<?xml version="1.0" encoding="UTF-8" standalone="no" ?>
<gpx xmlns="http://www.topografix.com/GPX/1/1" xmlns:xsi="http://www.w3.org/2001/XMLSchema-instance" xsi:schemaLocation="http://www.topografix.com/GPX/1/1 http://www.topografix.com/GPX/1/1/gpx.xsd" version="1.1" creator="VisuGPX - https://www.visugpx.com">
  <metadata>
    <name>Le circuit des poules (ou des pigeons ou des colombes, je sais plus...) </name>
    <desc><![CDATA[Le circuit des poules (ou des pigeons ou des colombes, je sais plus...)]]></desc>
  </metadata>
  <trk>
    <name><![CDATA[14 Rue de Cheneau Prolongée]]></name>
    <desc><![CDATA[]]></desc>
    <trkseg>
      <trkpt lat="47.51784" lon="6.77472">
        <ele>389.9</ele>
        <time>2014-10-12T07:19:33.999Z</time>
      </trkpt>
      <trkpt lat="47.51778" lon="6.77474">
        <ele>400.3</ele>
        <time>2014-10-12T07:19:36.000Z</time>
      </trkpt>
      <trkpt lat="47.51775" lon="6.77472">
        <ele>398</ele>
        <time>2014-10-12T07:19:38.000Z</time>
      </trkpt>
      <trkpt lat="47.51773" lon="6.77471">
        <ele>396</ele>
        <time>2014-10-12T07:19:39.000Z</time>
      </trkpt>
      <trkpt lat="47.51769" lon="6.7747">
        <ele>395.8</ele>
        <time>2014-10-12T07:19:40.000Z</time>
      </trkpt>
      <trkpt lat="47.51766" lon="6.7747">
        <ele>394</ele>
        <time>2014-10-12T07:19:41.000Z</time>
      </trkpt>
      <trkpt lat="47.51763" lon="6.77469">
        <ele>392.6</ele>
        <time>2014-10-12T07:19:42.000Z</time>
      </trkpt>
      <trkpt lat="47.51759" lon="6.77468">
        <ele>393.7</ele>
        <time>2014-10-12T07:19:43.000Z</time>
      </trkpt>
      <trkpt lat="47.51755" lon="6.77468">
        <ele>393.5</ele>
        <time>2014-10-12T07:19:45.000Z</time>
      </trkpt>
      <trkpt lat="47.51752" lon="6.77467">
        <ele>393.4</ele>
        <time>2014-10-12T07:19:46.000Z</time>
      </trkpt>
      <trkpt lat="47.51749" lon="6.77467">
        <ele>392.9</ele>
        <time>2014-10-12T07:19:47.000Z</time>
      </trkpt>
      <trkpt lat="47.51742" lon="6.77468">
        <ele>387.4</ele>
        <time>2014-10-12T07:19:50.000Z</time>
      </trkpt>
      <trkpt lat="47.5174" lon="6.7747">
        <ele>387.5</ele>
        <time>2014-10-12T07:19:51.000Z</time>
      </trkpt>
      <trkpt lat="47.51737" lon="6.77474">
        <ele>387.7</ele>
        <time>2014-10-12T07:19:52.000Z</time>
      </trkpt>
      <trkpt lat="47.51735" lon="6.77479">
        <ele>387.2</ele>
        <time>2014-10-12T07:19:53.000Z</time>
      </trkpt>
      <trkpt lat="47.51732" lon="6.77485">
        <ele>387.1</ele>
        <time>2014-10-12T07:19:54.000Z</time>
      </trkpt>
      <trkpt lat="47.51731" lon="6.77491">
        <ele>387.1</ele>
        <time>2014-10-12T07:19:55.000Z</time>
      </trkpt>
      <trkpt lat="47.51729" lon="6.77497">
        <ele>387.7</ele>
        <time>2014-10-12T07:19:56.000Z</time>
      </trkpt>
      <trkpt lat="47.51726" lon="6.77509">
        <ele>389.5</ele>
        <time>2014-10-12T07:19:57.000Z</time>
      </trkpt>
      <trkpt lat="47.51726" lon="6.77516">
        <ele>389.3</ele>
        <time>2014-10-12T07:19:58.000Z</time>
      </trkpt>
      <trkpt lat="47.51724" lon="6.77522">
        <ele>388.6</ele>
        <time>2014-10-12T07:19:59.000Z</time>
      </trkpt>
      <trkpt lat="47.51723" lon="6.77527">
        <ele>387.6</ele>
        <time>2014-10-12T07:20:00.000Z</time>
      </trkpt>
      <trkpt lat="47.51721" lon="6.77533">
        <ele>387.2</ele>
        <time>2014-10-12T07:20:01.000Z</time>
      </trkpt>
      <trkpt lat="47.5172" lon="6.77537">
        <ele>386</ele>
        <time>2014-10-12T07:20:02.000Z</time>
      </trkpt>
      <trkpt lat="47.51717" lon="6.77542">
        <ele>386.4</ele>
        <time>2014-10-12T07:20:03.000Z</time>
      </trkpt>
      <trkpt lat="47.51712" lon="6.77545">
        <ele>386.5</ele>
        <time>2014-10-12T07:20:04.000Z</time>
      </trkpt>
      <trkpt lat="47.51708" lon="6.77546">
        <ele>387.8</ele>
        <time>2014-10-12T07:20:05.000Z</time>
      </trkpt>
      <trkpt lat="47.51703" lon="6.77543">
        <ele>388.4</ele>
        <time>2014-10-12T07:20:06.000Z</time>
      </trkpt>
      <trkpt lat="47.51699" lon="6.77539">
        <ele>388.7</ele>
        <time>2014-10-12T07:20:07.000Z</time>
      </trkpt>
      <trkpt lat="47.51696" lon="6.77534">
        <ele>388.9</ele>
        <time>2014-10-12T07:20:08.000Z</time>
      </trkpt>
      <trkpt lat="47.51692" lon="6.7753">
        <ele>389.5</ele>
        <time>2014-10-12T07:20:09.000Z</time>
      </trkpt>
      <trkpt lat="47.51688" lon="6.77525">
        <ele>389</ele>
        <time>2014-10-12T07:20:10.000Z</time>
      </trkpt>
      <trkpt lat="47.51683" lon="6.77519">
        <ele>389.3</ele>
        <time>2014-10-12T07:20:11.000Z</time>
      </trkpt>
      <trkpt lat="47.51679" lon="6.77513">
        <ele>389.4</ele>
        <time>2014-10-12T07:20:12.000Z</time>
      </trkpt>
      <trkpt lat="47.51675" lon="6.77507">
        <ele>389.1</ele>
        <time>2014-10-12T07:20:13.000Z</time>
      </trkpt>
      <trkpt lat="47.51671" lon="6.77501">
        <ele>388.9</ele>
        <time>2014-10-12T07:20:14.000Z</time>
      </trkpt>
      <trkpt lat="47.51666" lon="6.77496">
        <ele>388.4</ele>
        <time>2014-10-12T07:20:15.000Z</time>
      </trkpt>
      <trkpt lat="47.51662" lon="6.7749">
        <ele>388.4</ele>
        <time>2014-10-12T07:20:16.000Z</time>
      </trkpt>
      <trkpt lat="47.51658" lon="6.77484">
        <ele>388.4</ele>
        <time>2014-10-12T07:20:17.000Z</time>
      </trkpt>
      <trkpt lat="47.51652" lon="6.77478">
        <ele>388</ele>
        <time>2014-10-12T07:20:18.000Z</time>
      </trkpt>
      <trkpt lat="47.51647" lon="6.77473">
        <ele>387.9</ele>
        <time>2014-10-12T07:20:19.000Z</time>
      </trkpt>
      <trkpt lat="47.51641" lon="6.77467">
        <ele>387.5</ele>
        <time>2014-10-12T07:20:20.000Z</time>
      </trkpt>
      <trkpt lat="47.51636" lon="6.77462">
        <ele>387.8</ele>
        <time>2014-10-12T07:20:21.000Z</time>
      </trkpt>
      <trkpt lat="47.51631" lon="6.77456">
        <ele>388.2</ele>
        <time>2014-10-12T07:20:22.000Z</time>
      </trkpt>
      <trkpt lat="47.51626" lon="6.7745">
        <ele>388</ele>
        <time>2014-10-12T07:20:23.000Z</time>
      </trkpt>
      <trkpt lat="47.5162" lon="6.77444">
        <ele>388.2</ele>
        <time>2014-10-12T07:20:24.000Z</time>
      </trkpt>
      <trkpt lat="47.51614" lon="6.77438">
        <ele>387.8</ele>
        <time>2014-10-12T07:20:25.000Z</time>
      </trkpt>
      <trkpt lat="47.51609" lon="6.77431">
        <ele>387.8</ele>
        <time>2014-10-12T07:20:26.000Z</time>
      </trkpt>
      <trkpt lat="47.51603" lon="6.77424">
        <ele>387.8</ele>
        <time>2014-10-12T07:20:27.000Z</time>
      </trkpt>
      <trkpt lat="47.51597" lon="6.77417">
        <ele>387.7</ele>
        <time>2014-10-12T07:20:28.000Z</time>
      </trkpt>
      <trkpt lat="47.51591" lon="6.7741">
        <ele>387.7</ele>
        <time>2014-10-12T07:20:29.000Z</time>
      </trkpt>
      <trkpt lat="47.51585" lon="6.77403">
        <ele>387.5</ele>
        <time>2014-10-12T07:20:30.000Z</time>
      </trkpt>
      <trkpt lat="47.51578" lon="6.77396">
        <ele>387.4</ele>
        <time>2014-10-12T07:20:31.000Z</time>
      </trkpt>
      <trkpt lat="47.51572" lon="6.77389">
        <ele>387.4</ele>
        <time>2014-10-12T07:20:32.000Z</time>
      </trkpt>
      <trkpt lat="47.51565" lon="6.77381">
        <ele>386.8</ele>
        <time>2014-10-12T07:20:33.000Z</time>
      </trkpt>
      <trkpt lat="47.51559" lon="6.77373">
        <ele>386.1</ele>
        <time>2014-10-12T07:20:34.000Z</time>
      </trkpt>
      <trkpt lat="47.51553" lon="6.77365">
        <ele>385</ele>
        <time>2014-10-12T07:20:35.000Z</time>
      </trkpt>
      <trkpt lat="47.51547" lon="6.77356">
        <ele>384.1</ele>
        <time>2014-10-12T07:20:36.000Z</time>
      </trkpt>
      <trkpt lat="47.5154" lon="6.77348">
        <ele>384</ele>
        <time>2014-10-12T07:20:37.000Z</time>
      </trkpt>
      <trkpt lat="47.51533" lon="6.7734">
        <ele>382.8</ele>
        <time>2014-10-12T07:20:38.000Z</time>
      </trkpt>
      <trkpt lat="47.51526" lon="6.77332">
        <ele>381.2</ele>
        <time>2014-10-12T07:20:39.000Z</time>
      </trkpt>
      <trkpt lat="47.5152" lon="6.77324">
        <ele>381.5</ele>
        <time>2014-10-12T07:20:40.000Z</time>
      </trkpt>
      <trkpt lat="47.51513" lon="6.77316">
        <ele>380.5</ele>
        <time>2014-10-12T07:20:41.000Z</time>
      </trkpt>
      <trkpt lat="47.51506" lon="6.77306">
        <ele>379.6</ele>
        <time>2014-10-12T07:20:42.000Z</time>
      </trkpt>
      <trkpt lat="47.515" lon="6.77296">
        <ele>379.4</ele>
        <time>2014-10-12T07:20:43.000Z</time>
      </trkpt>
      <trkpt lat="47.51496" lon="6.77284">
        <ele>379</ele>
        <time>2014-10-12T07:20:44.000Z</time>
      </trkpt>
      <trkpt lat="47.51493" lon="6.77272">
        <ele>378.5</ele>
        <time>2014-10-12T07:20:45.000Z</time>
      </trkpt>
      <trkpt lat="47.51492" lon="6.77259">
        <ele>378.4</ele>
        <time>2014-10-12T07:20:46.000Z</time>
      </trkpt>
      <trkpt lat="47.51491" lon="6.77246">
        <ele>378.1</ele>
        <time>2014-10-12T07:20:47.000Z</time>
      </trkpt>
      <trkpt lat="47.51464" lon="6.77187">
        <ele>377.5</ele>
        <time>2014-10-12T07:20:55.000Z</time>
      </trkpt>
      <trkpt lat="47.5145" lon="6.77199">
        <ele>377.4</ele>
        <time>2014-10-12T07:20:56.000Z</time>
      </trkpt>
      <trkpt lat="47.51441" lon="6.77203">
        <ele>376.8</ele>
        <time>2014-10-12T07:20:57.000Z</time>
      </trkpt>
      <trkpt lat="47.51434" lon="6.77208">
        <ele>376.7</ele>
        <time>2014-10-12T07:20:58.000Z</time>
      </trkpt>
      <trkpt lat="47.51426" lon="6.77213">
        <ele>376.6</ele>
        <time>2014-10-12T07:20:59.000Z</time>
      </trkpt>
      <trkpt lat="47.51419" lon="6.77217">
        <ele>376.1</ele>
        <time>2014-10-12T07:21:00.000Z</time>
      </trkpt>
      <trkpt lat="47.51412" lon="6.77221">
        <ele>376.2</ele>
        <time>2014-10-12T07:21:01.000Z</time>
      </trkpt>
      <trkpt lat="47.51405" lon="6.77224">
        <ele>376.5</ele>
        <time>2014-10-12T07:21:02.000Z</time>
      </trkpt>
      <trkpt lat="47.51399" lon="6.77228">
        <ele>376.4</ele>
        <time>2014-10-12T07:21:03.000Z</time>
      </trkpt>
      <trkpt lat="47.51393" lon="6.77231">
        <ele>376.1</ele>
        <time>2014-10-12T07:21:04.000Z</time>
      </trkpt>
      <trkpt lat="47.51388" lon="6.77235">
        <ele>375.8</ele>
        <time>2014-10-12T07:21:05.000Z</time>
      </trkpt>
      <trkpt lat="47.51382" lon="6.77238">
        <ele>375.5</ele>
        <time>2014-10-12T07:21:06.000Z</time>
      </trkpt>
      <trkpt lat="47.51377" lon="6.77241">
        <ele>377.6</ele>
        <time>2014-10-12T07:21:07.000Z</time>
      </trkpt>
      <trkpt lat="47.51372" lon="6.77243">
        <ele>377.9</ele>
        <time>2014-10-12T07:21:08.000Z</time>
      </trkpt>
      <trkpt lat="47.51367" lon="6.77247">
        <ele>378.1</ele>
        <time>2014-10-12T07:21:09.000Z</time>
      </trkpt>
      <trkpt lat="47.51363" lon="6.77252">
        <ele>379.6</ele>
        <time>2014-10-12T07:21:10.000Z</time>
      </trkpt>
      <trkpt lat="47.51359" lon="6.77255">
        <ele>379.8</ele>
        <time>2014-10-12T07:21:11.000Z</time>
      </trkpt>
      <trkpt lat="47.51355" lon="6.77258">
        <ele>379.9</ele>
        <time>2014-10-12T07:21:12.000Z</time>
      </trkpt>
      <trkpt lat="47.51353" lon="6.7726">
        <ele>380.5</ele>
        <time>2014-10-12T07:21:13.000Z</time>
      </trkpt>
      <trkpt lat="47.5135" lon="6.77262">
        <ele>380.8</ele>
        <time>2014-10-12T07:21:14.000Z</time>
      </trkpt>
      <trkpt lat="47.51347" lon="6.77265">
        <ele>380.7</ele>
        <time>2014-10-12T07:21:15.000Z</time>
      </trkpt>
      <trkpt lat="47.51344" lon="6.77266">
        <ele>381.7</ele>
        <time>2014-10-12T07:21:16.000Z</time>
      </trkpt>
      <trkpt lat="47.51342" lon="6.77268">
        <ele>381.4</ele>
        <time>2014-10-12T07:21:17.000Z</time>
      </trkpt>
      <trkpt lat="47.51339" lon="6.77271">
        <ele>380.3</ele>
        <time>2014-10-12T07:21:19.000Z</time>
      </trkpt>
      <trkpt lat="47.51336" lon="6.77273">
        <ele>380.4</ele>
        <time>2014-10-12T07:21:20.000Z</time>
      </trkpt>
      <trkpt lat="47.51332" lon="6.77276">
        <ele>381.1</ele>
        <time>2014-10-12T07:21:22.000Z</time>
      </trkpt>
      <trkpt lat="47.5133" lon="6.77277">
        <ele>381.2</ele>
        <time>2014-10-12T07:21:23.000Z</time>
      </trkpt>
      <trkpt lat="47.51327" lon="6.77278">
        <ele>381.4</ele>
        <time>2014-10-12T07:21:24.000Z</time>
      </trkpt>
      <trkpt lat="47.51324" lon="6.77278">
        <ele>382.2</ele>
        <time>2014-10-12T07:21:25.000Z</time>
      </trkpt>
      <trkpt lat="47.51321" lon="6.77278">
        <ele>383.2</ele>
        <time>2014-10-12T07:21:26.000Z</time>
      </trkpt>
      <trkpt lat="47.51317" lon="6.77277">
        <ele>383.8</ele>
        <time>2014-10-12T07:21:27.000Z</time>
      </trkpt>
      <trkpt lat="47.51314" lon="6.77276">
        <ele>383.9</ele>
        <time>2014-10-12T07:21:28.000Z</time>
      </trkpt>
      <trkpt lat="47.51311" lon="6.77275">
        <ele>384.8</ele>
        <time>2014-10-12T07:21:29.000Z</time>
      </trkpt>
      <trkpt lat="47.51307" lon="6.77273">
        <ele>385.1</ele>
        <time>2014-10-12T07:21:30.000Z</time>
      </trkpt>
      <trkpt lat="47.51304" lon="6.77272">
        <ele>385.4</ele>
        <time>2014-10-12T07:21:31.000Z</time>
      </trkpt>
      <trkpt lat="47.513" lon="6.7727">
        <ele>386.3</ele>
        <time>2014-10-12T07:21:32.000Z</time>
      </trkpt>
      <trkpt lat="47.51297" lon="6.77268">
        <ele>387.6</ele>
        <time>2014-10-12T07:21:33.000Z</time>
      </trkpt>
      <trkpt lat="47.51293" lon="6.77267">
        <ele>387.6</ele>
        <time>2014-10-12T07:21:34.000Z</time>
      </trkpt>
      <trkpt lat="47.51289" lon="6.77265">
        <ele>387.6</ele>
        <time>2014-10-12T07:21:35.000Z</time>
      </trkpt>
      <trkpt lat="47.51285" lon="6.77263">
        <ele>388.3</ele>
        <time>2014-10-12T07:21:36.000Z</time>
      </trkpt>
      <trkpt lat="47.51282" lon="6.77261">
        <ele>388.3</ele>
        <time>2014-10-12T07:21:37.000Z</time>
      </trkpt>
      <trkpt lat="47.51278" lon="6.7726">
        <ele>389.3</ele>
        <time>2014-10-12T07:21:38.000Z</time>
      </trkpt>
      <trkpt lat="47.51274" lon="6.77258">
        <ele>389.2</ele>
        <time>2014-10-12T07:21:39.000Z</time>
      </trkpt>
      <trkpt lat="47.5127" lon="6.77255">
        <ele>389.1</ele>
        <time>2014-10-12T07:21:40.000Z</time>
      </trkpt>
      <trkpt lat="47.51265" lon="6.77251">
        <ele>389.7</ele>
        <time>2014-10-12T07:21:41.000Z</time>
      </trkpt>
      <trkpt lat="47.51262" lon="6.77247">
        <ele>389.9</ele>
        <time>2014-10-12T07:21:42.000Z</time>
      </trkpt>
      <trkpt lat="47.51259" lon="6.77243">
        <ele>388.5</ele>
        <time>2014-10-12T07:21:43.000Z</time>
      </trkpt>
      <trkpt lat="47.51255" lon="6.77237">
        <ele>388.6</ele>
        <time>2014-10-12T07:21:44.000Z</time>
      </trkpt>
      <trkpt lat="47.51252" lon="6.77231">
        <ele>388.5</ele>
        <time>2014-10-12T07:21:45.000Z</time>
      </trkpt>
      <trkpt lat="47.51249" lon="6.77225">
        <ele>389</ele>
        <time>2014-10-12T07:21:46.000Z</time>
      </trkpt>
      <trkpt lat="47.51245" lon="6.77219">
        <ele>388.9</ele>
        <time>2014-10-12T07:21:47.000Z</time>
      </trkpt>
      <trkpt lat="47.51237" lon="6.77202">
        <ele>389</ele>
        <time>2014-10-12T07:21:50.000Z</time>
      </trkpt>
      <trkpt lat="47.51233" lon="6.77194">
        <ele>391</ele>
        <time>2014-10-12T07:21:51.000Z</time>
      </trkpt>
      <trkpt lat="47.51229" lon="6.77187">
        <ele>390.7</ele>
        <time>2014-10-12T07:21:52.000Z</time>
      </trkpt>
      <trkpt lat="47.51225" lon="6.77179">
        <ele>390.2</ele>
        <time>2014-10-12T07:21:53.000Z</time>
      </trkpt>
      <trkpt lat="47.51221" lon="6.77171">
        <ele>389.7</ele>
        <time>2014-10-12T07:21:54.000Z</time>
      </trkpt>
      <trkpt lat="47.51215" lon="6.77164">
        <ele>387.4</ele>
        <time>2014-10-12T07:21:55.000Z</time>
      </trkpt>
      <trkpt lat="47.51211" lon="6.77156">
        <ele>386.9</ele>
        <time>2014-10-12T07:21:56.000Z</time>
      </trkpt>
      <trkpt lat="47.51207" lon="6.77147">
        <ele>387.1</ele>
        <time>2014-10-12T07:21:57.000Z</time>
      </trkpt>
      <trkpt lat="47.51203" lon="6.77138">
        <ele>386.3</ele>
        <time>2014-10-12T07:21:58.000Z</time>
      </trkpt>
      <trkpt lat="47.51198" lon="6.7713">
        <ele>385.1</ele>
        <time>2014-10-12T07:21:59.000Z</time>
      </trkpt>
      <trkpt lat="47.51193" lon="6.77121">
        <ele>384.2</ele>
        <time>2014-10-12T07:22:00.000Z</time>
      </trkpt>
      <trkpt lat="47.51188" lon="6.77112">
        <ele>383.6</ele>
        <time>2014-10-12T07:22:01.000Z</time>
      </trkpt>
      <trkpt lat="47.51182" lon="6.77102">
        <ele>383.2</ele>
        <time>2014-10-12T07:22:02.000Z</time>
      </trkpt>
      <trkpt lat="47.51177" lon="6.77093">
        <ele>383.1</ele>
        <time>2014-10-12T07:22:03.000Z</time>
      </trkpt>
      <trkpt lat="47.51172" lon="6.77083">
        <ele>383</ele>
        <time>2014-10-12T07:22:04.000Z</time>
      </trkpt>
      <trkpt lat="47.51166" lon="6.77073">
        <ele>383.4</ele>
        <time>2014-10-12T07:22:05.000Z</time>
      </trkpt>
      <trkpt lat="47.51159" lon="6.77064">
        <ele>383.6</ele>
        <time>2014-10-12T07:22:06.000Z</time>
      </trkpt>
      <trkpt lat="47.51153" lon="6.77057">
        <ele>383.1</ele>
        <time>2014-10-12T07:22:07.000Z</time>
      </trkpt>
      <trkpt lat="47.51146" lon="6.77051">
        <ele>382.6</ele>
        <time>2014-10-12T07:22:08.000Z</time>
      </trkpt>
      <trkpt lat="47.5114" lon="6.77046">
        <ele>384</ele>
        <time>2014-10-12T07:22:09.000Z</time>
      </trkpt>
      <trkpt lat="47.51133" lon="6.7704">
        <ele>384.2</ele>
        <time>2014-10-12T07:22:10.000Z</time>
      </trkpt>
      <trkpt lat="47.51126" lon="6.77034">
        <ele>382.9</ele>
        <time>2014-10-12T07:22:11.000Z</time>
      </trkpt>
      <trkpt lat="47.51119" lon="6.77028">
        <ele>382.7</ele>
        <time>2014-10-12T07:22:12.000Z</time>
      </trkpt>
      <trkpt lat="47.51113" lon="6.77022">
        <ele>382.7</ele>
        <time>2014-10-12T07:22:13.000Z</time>
      </trkpt>
      <trkpt lat="47.51106" lon="6.77016">
        <ele>382.5</ele>
        <time>2014-10-12T07:22:14.000Z</time>
      </trkpt>
      <trkpt lat="47.511" lon="6.77011">
        <ele>382.7</ele>
        <time>2014-10-12T07:22:15.000Z</time>
      </trkpt>
      <trkpt lat="47.51092" lon="6.77003">
        <ele>383.1</ele>
        <time>2014-10-12T07:22:16.000Z</time>
      </trkpt>
      <trkpt lat="47.51086" lon="6.76999">
        <ele>382.5</ele>
        <time>2014-10-12T07:22:17.000Z</time>
      </trkpt>
      <trkpt lat="47.51079" lon="6.76993">
        <ele>382.8</ele>
        <time>2014-10-12T07:22:18.000Z</time>
      </trkpt>
      <trkpt lat="47.51072" lon="6.76987">
        <ele>383.1</ele>
        <time>2014-10-12T07:22:19.000Z</time>
      </trkpt>
      <trkpt lat="47.51065" lon="6.76981">
        <ele>383.4</ele>
        <time>2014-10-12T07:22:20.000Z</time>
      </trkpt>
      <trkpt lat="47.51059" lon="6.76976">
        <ele>383.4</ele>
        <time>2014-10-12T07:22:21.000Z</time>
      </trkpt>
      <trkpt lat="47.51052" lon="6.7697">
        <ele>383.5</ele>
        <time>2014-10-12T07:22:21.999Z</time>
      </trkpt>
      <trkpt lat="47.51045" lon="6.76963">
        <ele>383.5</ele>
        <time>2014-10-12T07:22:23.000Z</time>
      </trkpt>
      <trkpt lat="47.51038" lon="6.76958">
        <ele>383.6</ele>
        <time>2014-10-12T07:22:24.000Z</time>
      </trkpt>
      <trkpt lat="47.51032" lon="6.76952">
        <ele>383.8</ele>
        <time>2014-10-12T07:22:25.000Z</time>
      </trkpt>
      <trkpt lat="47.51025" lon="6.76946">
        <ele>384.1</ele>
        <time>2014-10-12T07:22:26.000Z</time>
      </trkpt>
      <trkpt lat="47.51019" lon="6.76941">
        <ele>383.9</ele>
        <time>2014-10-12T07:22:27.000Z</time>
      </trkpt>
      <trkpt lat="47.51014" lon="6.76935">
        <ele>384.2</ele>
        <time>2014-10-12T07:22:28.000Z</time>
      </trkpt>
      <trkpt lat="47.51007" lon="6.76931">
        <ele>384.8</ele>
        <time>2014-10-12T07:22:29.000Z</time>
      </trkpt>
      <trkpt lat="47.51001" lon="6.76928">
        <ele>384.9</ele>
        <time>2014-10-12T07:22:30.000Z</time>
      </trkpt>
      <trkpt lat="47.50996" lon="6.76923">
        <ele>384.9</ele>
        <time>2014-10-12T07:22:31.000Z</time>
      </trkpt>
      <trkpt lat="47.50992" lon="6.76915">
        <ele>384.7</ele>
        <time>2014-10-12T07:22:32.000Z</time>
      </trkpt>
      <trkpt lat="47.50991" lon="6.76906">
        <ele>385.2</ele>
        <time>2014-10-12T07:22:33.000Z</time>
      </trkpt>
      <trkpt lat="47.50989" lon="6.769">
        <ele>384.9</ele>
        <time>2014-10-12T07:22:34.000Z</time>
      </trkpt>
      <trkpt lat="47.50985" lon="6.76895">
        <ele>384.4</ele>
        <time>2014-10-12T07:22:35.000Z</time>
      </trkpt>
      <trkpt lat="47.5098" lon="6.76892">
        <ele>384.2</ele>
        <time>2014-10-12T07:22:36.000Z</time>
      </trkpt>
      <trkpt lat="47.50975" lon="6.76892">
        <ele>383.6</ele>
        <time>2014-10-12T07:22:37.000Z</time>
      </trkpt>
      <trkpt lat="47.5097" lon="6.76892">
        <ele>383</ele>
        <time>2014-10-12T07:22:38.000Z</time>
      </trkpt>
      <trkpt lat="47.50965" lon="6.76891">
        <ele>382.8</ele>
        <time>2014-10-12T07:22:39.000Z</time>
      </trkpt>
      <trkpt lat="47.50961" lon="6.76888">
        <ele>382.8</ele>
        <time>2014-10-12T07:22:40.000Z</time>
      </trkpt>
      <trkpt lat="47.50956" lon="6.76884">
        <ele>384.2</ele>
        <time>2014-10-12T07:22:41.000Z</time>
      </trkpt>
      <trkpt lat="47.50951" lon="6.76881">
        <ele>384.1</ele>
        <time>2014-10-12T07:22:42.000Z</time>
      </trkpt>
      <trkpt lat="47.50947" lon="6.76879">
        <ele>383.4</ele>
        <time>2014-10-12T07:22:43.000Z</time>
      </trkpt>
      <trkpt lat="47.50943" lon="6.76874">
        <ele>383.6</ele>
        <time>2014-10-12T07:22:44.000Z</time>
      </trkpt>
      <trkpt lat="47.5094" lon="6.7687">
        <ele>385.4</ele>
        <time>2014-10-12T07:22:45.000Z</time>
      </trkpt>
      <trkpt lat="47.50936" lon="6.76865">
        <ele>385.4</ele>
        <time>2014-10-12T07:22:46.000Z</time>
      </trkpt>
      <trkpt lat="47.50933" lon="6.7686">
        <ele>384.9</ele>
        <time>2014-10-12T07:22:47.000Z</time>
      </trkpt>
      <trkpt lat="47.50916" lon="6.76818">
        <ele>383.7</ele>
        <time>2014-10-12T07:22:55.000Z</time>
      </trkpt>
      <trkpt lat="47.50912" lon="6.76811">
        <ele>386</ele>
        <time>2014-10-12T07:22:56.000Z</time>
      </trkpt>
      <trkpt lat="47.50907" lon="6.76805">
        <ele>386.2</ele>
        <time>2014-10-12T07:22:57.000Z</time>
      </trkpt>
      <trkpt lat="47.50904" lon="6.768">
        <ele>386</ele>
        <time>2014-10-12T07:22:58.000Z</time>
      </trkpt>
      <trkpt lat="47.50902" lon="6.76794">
        <ele>388.5</ele>
        <time>2014-10-12T07:22:59.000Z</time>
      </trkpt>
      <trkpt lat="47.509" lon="6.76788">
        <ele>387.8</ele>
        <time>2014-10-12T07:23:00.000Z</time>
      </trkpt>
      <trkpt lat="47.50898" lon="6.76783">
        <ele>388.5</ele>
        <time>2014-10-12T07:23:01.000Z</time>
      </trkpt>
      <trkpt lat="47.50895" lon="6.76777">
        <ele>388.4</ele>
        <time>2014-10-12T07:23:02.000Z</time>
      </trkpt>
      <trkpt lat="47.50892" lon="6.7677">
        <ele>388.5</ele>
        <time>2014-10-12T07:23:03.000Z</time>
      </trkpt>
      <trkpt lat="47.5089" lon="6.76765">
        <ele>388.5</ele>
        <time>2014-10-12T07:23:04.000Z</time>
      </trkpt>
      <trkpt lat="47.50888" lon="6.76759">
        <ele>388.8</ele>
        <time>2014-10-12T07:23:04.998Z</time>
      </trkpt>
      <trkpt lat="47.50886" lon="6.76754">
        <ele>390.1</ele>
        <time>2014-10-12T07:23:06.000Z</time>
      </trkpt>
      <trkpt lat="47.50884" lon="6.76748">
        <ele>390.7</ele>
        <time>2014-10-12T07:23:07.000Z</time>
      </trkpt>
      <trkpt lat="47.50883" lon="6.76742">
        <ele>390.9</ele>
        <time>2014-10-12T07:23:08.000Z</time>
      </trkpt>
      <trkpt lat="47.50881" lon="6.76737">
        <ele>390.9</ele>
        <time>2014-10-12T07:23:09.000Z</time>
      </trkpt>
      <trkpt lat="47.50879" lon="6.76731">
        <ele>390.2</ele>
        <time>2014-10-12T07:23:10.000Z</time>
      </trkpt>
      <trkpt lat="47.50877" lon="6.76725">
        <ele>390.1</ele>
        <time>2014-10-12T07:23:11.000Z</time>
      </trkpt>
      <trkpt lat="47.50876" lon="6.7672">
        <ele>390.1</ele>
        <time>2014-10-12T07:23:12.000Z</time>
      </trkpt>
      <trkpt lat="47.50874" lon="6.76714">
        <ele>389.9</ele>
        <time>2014-10-12T07:23:13.000Z</time>
      </trkpt>
      <trkpt lat="47.50872" lon="6.76708">
        <ele>389.7</ele>
        <time>2014-10-12T07:23:14.000Z</time>
      </trkpt>
      <trkpt lat="47.5087" lon="6.76703">
        <ele>390</ele>
        <time>2014-10-12T07:23:15.000Z</time>
      </trkpt>
      <trkpt lat="47.50869" lon="6.76698">
        <ele>389.6</ele>
        <time>2014-10-12T07:23:16.000Z</time>
      </trkpt>
      <trkpt lat="47.50867" lon="6.76692">
        <ele>388.7</ele>
        <time>2014-10-12T07:23:17.000Z</time>
      </trkpt>
      <trkpt lat="47.50865" lon="6.76687">
        <ele>390</ele>
        <time>2014-10-12T07:23:18.000Z</time>
      </trkpt>
      <trkpt lat="47.50863" lon="6.76682">
        <ele>390.6</ele>
        <time>2014-10-12T07:23:19.000Z</time>
      </trkpt>
      <trkpt lat="47.50861" lon="6.76678">
        <ele>390.8</ele>
        <time>2014-10-12T07:23:20.000Z</time>
      </trkpt>
      <trkpt lat="47.50859" lon="6.76673">
        <ele>391.5</ele>
        <time>2014-10-12T07:23:21.000Z</time>
      </trkpt>
      <trkpt lat="47.50857" lon="6.7667">
        <ele>391.1</ele>
        <time>2014-10-12T07:23:22.000Z</time>
      </trkpt>
      <trkpt lat="47.50856" lon="6.76666">
        <ele>390.9</ele>
        <time>2014-10-12T07:23:23.000Z</time>
      </trkpt>
      <trkpt lat="47.50854" lon="6.76663">
        <ele>391.9</ele>
        <time>2014-10-12T07:23:24.000Z</time>
      </trkpt>
      <trkpt lat="47.50853" lon="6.76659">
        <ele>391.2</ele>
        <time>2014-10-12T07:23:25.000Z</time>
      </trkpt>
      <trkpt lat="47.50851" lon="6.76654">
        <ele>391.1</ele>
        <time>2014-10-12T07:23:26.000Z</time>
      </trkpt>
      <trkpt lat="47.50848" lon="6.76649">
        <ele>391.5</ele>
        <time>2014-10-12T07:23:27.000Z</time>
      </trkpt>
      <trkpt lat="47.50847" lon="6.76645">
        <ele>392.3</ele>
        <time>2014-10-12T07:23:28.000Z</time>
      </trkpt>
      <trkpt lat="47.50845" lon="6.76641">
        <ele>392.7</ele>
        <time>2014-10-12T07:23:29.000Z</time>
      </trkpt>
      <trkpt lat="47.50844" lon="6.76637">
        <ele>392.5</ele>
        <time>2014-10-12T07:23:30.000Z</time>
      </trkpt>
      <trkpt lat="47.50844" lon="6.76633">
        <ele>388.2</ele>
        <time>2014-10-12T07:23:31.000Z</time>
      </trkpt>
      <trkpt lat="47.50843" lon="6.7663">
        <ele>386.9</ele>
        <time>2014-10-12T07:23:32.000Z</time>
      </trkpt>
      <trkpt lat="47.50842" lon="6.76626">
        <ele>386.4</ele>
        <time>2014-10-12T07:23:33.000Z</time>
      </trkpt>
      <trkpt lat="47.5084" lon="6.76623">
        <ele>386.1</ele>
        <time>2014-10-12T07:23:34.000Z</time>
      </trkpt>
      <trkpt lat="47.50839" lon="6.76619">
        <ele>383.5</ele>
        <time>2014-10-12T07:23:35.000Z</time>
      </trkpt>
      <trkpt lat="47.50838" lon="6.76615">
        <ele>383.8</ele>
        <time>2014-10-12T07:23:36.000Z</time>
      </trkpt>
      <trkpt lat="47.50836" lon="6.76611">
        <ele>384.1</ele>
        <time>2014-10-12T07:23:37.000Z</time>
      </trkpt>
      <trkpt lat="47.50835" lon="6.76607">
        <ele>385.2</ele>
        <time>2014-10-12T07:23:38.000Z</time>
      </trkpt>
      <trkpt lat="47.50832" lon="6.76603">
        <ele>386.4</ele>
        <time>2014-10-12T07:23:39.000Z</time>
      </trkpt>
      <trkpt lat="47.50831" lon="6.76599">
        <ele>386.6</ele>
        <time>2014-10-12T07:23:40.000Z</time>
      </trkpt>
      <trkpt lat="47.50829" lon="6.76595">
        <ele>386.9</ele>
        <time>2014-10-12T07:23:41.000Z</time>
      </trkpt>
      <trkpt lat="47.50827" lon="6.76592">
        <ele>386.4</ele>
        <time>2014-10-12T07:23:42.000Z</time>
      </trkpt>
      <trkpt lat="47.50825" lon="6.7659">
        <ele>387.3</ele>
        <time>2014-10-12T07:23:43.000Z</time>
      </trkpt>
      <trkpt lat="47.50822" lon="6.7659">
        <ele>387.5</ele>
        <time>2014-10-12T07:23:44.000Z</time>
      </trkpt>
      <trkpt lat="47.50819" lon="6.7659">
        <ele>388.3</ele>
        <time>2014-10-12T07:23:45.000Z</time>
      </trkpt>
      <trkpt lat="47.50816" lon="6.7659">
        <ele>389.1</ele>
        <time>2014-10-12T07:23:46.000Z</time>
      </trkpt>
      <trkpt lat="47.50814" lon="6.76588">
        <ele>389.7</ele>
        <time>2014-10-12T07:23:47.000Z</time>
      </trkpt>
      <trkpt lat="47.50808" lon="6.76583">
        <ele>391.1</ele>
        <time>2014-10-12T07:23:50.000Z</time>
      </trkpt>
      <trkpt lat="47.50803" lon="6.76582">
        <ele>391.1</ele>
        <time>2014-10-12T07:23:52.000Z</time>
      </trkpt>
      <trkpt lat="47.50801" lon="6.76581">
        <ele>391.2</ele>
        <time>2014-10-12T07:23:53.000Z</time>
      </trkpt>
      <trkpt lat="47.50797" lon="6.76582">
        <ele>391.4</ele>
        <time>2014-10-12T07:23:55.000Z</time>
      </trkpt>
      <trkpt lat="47.50794" lon="6.76583">
        <ele>391.3</ele>
        <time>2014-10-12T07:23:56.000Z</time>
      </trkpt>
      <trkpt lat="47.50792" lon="6.76583">
        <ele>391.7</ele>
        <time>2014-10-12T07:23:57.000Z</time>
      </trkpt>
      <trkpt lat="47.50789" lon="6.76584">
        <ele>392.9</ele>
        <time>2014-10-12T07:23:58.000Z</time>
      </trkpt>
      <trkpt lat="47.50786" lon="6.76584">
        <ele>392.9</ele>
        <time>2014-10-12T07:23:59.000Z</time>
      </trkpt>
      <trkpt lat="47.50783" lon="6.76585">
        <ele>393</ele>
        <time>2014-10-12T07:24:00.000Z</time>
      </trkpt>
      <trkpt lat="47.50779" lon="6.76586">
        <ele>393.7</ele>
        <time>2014-10-12T07:24:01.000Z</time>
      </trkpt>
      <trkpt lat="47.50776" lon="6.76587">
        <ele>394.1</ele>
        <time>2014-10-12T07:24:02.000Z</time>
      </trkpt>
      <trkpt lat="47.50773" lon="6.76588">
        <ele>394.9</ele>
        <time>2014-10-12T07:24:03.000Z</time>
      </trkpt>
      <trkpt lat="47.5077" lon="6.76589">
        <ele>394.2</ele>
        <time>2014-10-12T07:24:04.000Z</time>
      </trkpt>
      <trkpt lat="47.50766" lon="6.7659">
        <ele>393.5</ele>
        <time>2014-10-12T07:24:05.000Z</time>
      </trkpt>
      <trkpt lat="47.50763" lon="6.7659">
        <ele>393.3</ele>
        <time>2014-10-12T07:24:06.000Z</time>
      </trkpt>
      <trkpt lat="47.5076" lon="6.76591">
        <ele>394.1</ele>
        <time>2014-10-12T07:24:07.000Z</time>
      </trkpt>
      <trkpt lat="47.50757" lon="6.76591">
        <ele>394.5</ele>
        <time>2014-10-12T07:24:08.000Z</time>
      </trkpt>
      <trkpt lat="47.50753" lon="6.76592">
        <ele>394</ele>
        <time>2014-10-12T07:24:09.000Z</time>
      </trkpt>
      <trkpt lat="47.5075" lon="6.76592">
        <ele>394.5</ele>
        <time>2014-10-12T07:24:10.000Z</time>
      </trkpt>
      <trkpt lat="47.50746" lon="6.76592">
        <ele>394.2</ele>
        <time>2014-10-12T07:24:11.000Z</time>
      </trkpt>
      <trkpt lat="47.50743" lon="6.76591">
        <ele>394.8</ele>
        <time>2014-10-12T07:24:12.000Z</time>
      </trkpt>
      <trkpt lat="47.50739" lon="6.76591">
        <ele>395.4</ele>
        <time>2014-10-12T07:24:13.000Z</time>
      </trkpt>
      <trkpt lat="47.50736" lon="6.7659">
        <ele>395.1</ele>
        <time>2014-10-12T07:24:14.000Z</time>
      </trkpt>
      <trkpt lat="47.50732" lon="6.7659">
        <ele>394.9</ele>
        <time>2014-10-12T07:24:15.000Z</time>
      </trkpt>
      <trkpt lat="47.50728" lon="6.76589">
        <ele>395</ele>
        <time>2014-10-12T07:24:16.000Z</time>
      </trkpt>
      <trkpt lat="47.50725" lon="6.76588">
        <ele>395.2</ele>
        <time>2014-10-12T07:24:17.000Z</time>
      </trkpt>
      <trkpt lat="47.50721" lon="6.76588">
        <ele>395.2</ele>
        <time>2014-10-12T07:24:18.000Z</time>
      </trkpt>
      <trkpt lat="47.50717" lon="6.76587">
        <ele>395.3</ele>
        <time>2014-10-12T07:24:19.000Z</time>
      </trkpt>
      <trkpt lat="47.50714" lon="6.76586">
        <ele>395</ele>
        <time>2014-10-12T07:24:20.000Z</time>
      </trkpt>
      <trkpt lat="47.5071" lon="6.76586">
        <ele>394.9</ele>
        <time>2014-10-12T07:24:21.000Z</time>
      </trkpt>
      <trkpt lat="47.50707" lon="6.76585">
        <ele>395.2</ele>
        <time>2014-10-12T07:24:22.000Z</time>
      </trkpt>
      <trkpt lat="47.50703" lon="6.76585">
        <ele>395.5</ele>
        <time>2014-10-12T07:24:23.000Z</time>
      </trkpt>
      <trkpt lat="47.50699" lon="6.76585">
        <ele>395.4</ele>
        <time>2014-10-12T07:24:24.000Z</time>
      </trkpt>
      <trkpt lat="47.50696" lon="6.76584">
        <ele>395.9</ele>
        <time>2014-10-12T07:24:25.000Z</time>
      </trkpt>
      <trkpt lat="47.50692" lon="6.76585">
        <ele>396.6</ele>
        <time>2014-10-12T07:24:26.000Z</time>
      </trkpt>
      <trkpt lat="47.50689" lon="6.76586">
        <ele>397.2</ele>
        <time>2014-10-12T07:24:27.000Z</time>
      </trkpt>
      <trkpt lat="47.50686" lon="6.76587">
        <ele>397.1</ele>
        <time>2014-10-12T07:24:28.000Z</time>
      </trkpt>
      <trkpt lat="47.50683" lon="6.76588">
        <ele>397.3</ele>
        <time>2014-10-12T07:24:29.000Z</time>
      </trkpt>
      <trkpt lat="47.5068" lon="6.76588">
        <ele>396.8</ele>
        <time>2014-10-12T07:24:30.000Z</time>
      </trkpt>
      <trkpt lat="47.50676" lon="6.76589">
        <ele>396.6</ele>
        <time>2014-10-12T07:24:31.000Z</time>
      </trkpt>
      <trkpt lat="47.50673" lon="6.76589">
        <ele>396.4</ele>
        <time>2014-10-12T07:24:32.000Z</time>
      </trkpt>
      <trkpt lat="47.5067" lon="6.76589">
        <ele>396</ele>
        <time>2014-10-12T07:24:33.000Z</time>
      </trkpt>
      <trkpt lat="47.50667" lon="6.7659">
        <ele>396</ele>
        <time>2014-10-12T07:24:34.000Z</time>
      </trkpt>
      <trkpt lat="47.50664" lon="6.76591">
        <ele>396</ele>
        <time>2014-10-12T07:24:35.000Z</time>
      </trkpt>
      <trkpt lat="47.50661" lon="6.76591">
        <ele>397.2</ele>
        <time>2014-10-12T07:24:36.000Z</time>
      </trkpt>
      <trkpt lat="47.50658" lon="6.76592">
        <ele>397.9</ele>
        <time>2014-10-12T07:24:37.000Z</time>
      </trkpt>
      <trkpt lat="47.50654" lon="6.76593">
        <ele>398.4</ele>
        <time>2014-10-12T07:24:38.000Z</time>
      </trkpt>
      <trkpt lat="47.50651" lon="6.76593">
        <ele>399.6</ele>
        <time>2014-10-12T07:24:39.000Z</time>
      </trkpt>
      <trkpt lat="47.50648" lon="6.76595">
        <ele>399.6</ele>
        <time>2014-10-12T07:24:40.000Z</time>
      </trkpt>
      <trkpt lat="47.50644" lon="6.76596">
        <ele>400.5</ele>
        <time>2014-10-12T07:24:41.000Z</time>
      </trkpt>
      <trkpt lat="47.50641" lon="6.76597">
        <ele>400.7</ele>
        <time>2014-10-12T07:24:42.000Z</time>
      </trkpt>
      <trkpt lat="47.50638" lon="6.76599">
        <ele>401.1</ele>
        <time>2014-10-12T07:24:43.000Z</time>
      </trkpt>
      <trkpt lat="47.50635" lon="6.76601">
        <ele>401.1</ele>
        <time>2014-10-12T07:24:44.000Z</time>
      </trkpt>
      <trkpt lat="47.50632" lon="6.76603">
        <ele>401</ele>
        <time>2014-10-12T07:24:45.000Z</time>
      </trkpt>
      <trkpt lat="47.50629" lon="6.76605">
        <ele>405.7</ele>
        <time>2014-10-12T07:24:46.000Z</time>
      </trkpt>
      <trkpt lat="47.50626" lon="6.76607">
        <ele>404.1</ele>
        <time>2014-10-12T07:24:47.000Z</time>
      </trkpt>
      <trkpt lat="47.50603" lon="6.7662">
        <ele>402.4</ele>
        <time>2014-10-12T07:24:55.000Z</time>
      </trkpt>
      <trkpt lat="47.506" lon="6.76621">
        <ele>402.2</ele>
        <time>2014-10-12T07:24:56.000Z</time>
      </trkpt>
      <trkpt lat="47.50597" lon="6.76621">
        <ele>402.2</ele>
        <time>2014-10-12T07:24:57.000Z</time>
      </trkpt>
      <trkpt lat="47.50594" lon="6.76622">
        <ele>402.5</ele>
        <time>2014-10-12T07:24:58.000Z</time>
      </trkpt>
      <trkpt lat="47.5059" lon="6.76623">
        <ele>404</ele>
        <time>2014-10-12T07:24:59.000Z</time>
      </trkpt>
      <trkpt lat="47.50586" lon="6.76623">
        <ele>404.4</ele>
        <time>2014-10-12T07:25:00.000Z</time>
      </trkpt>
      <trkpt lat="47.50583" lon="6.76624">
        <ele>405.1</ele>
        <time>2014-10-12T07:25:01.000Z</time>
      </trkpt>
      <trkpt lat="47.50579" lon="6.76625">
        <ele>405.7</ele>
        <time>2014-10-12T07:25:02.000Z</time>
      </trkpt>
      <trkpt lat="47.50576" lon="6.76626">
        <ele>405.2</ele>
        <time>2014-10-12T07:25:03.000Z</time>
      </trkpt>
      <trkpt lat="47.50573" lon="6.76627">
        <ele>405.1</ele>
        <time>2014-10-12T07:25:04.000Z</time>
      </trkpt>
      <trkpt lat="47.50569" lon="6.76628">
        <ele>405</ele>
        <time>2014-10-12T07:25:05.000Z</time>
      </trkpt>
      <trkpt lat="47.50566" lon="6.76629">
        <ele>405.2</ele>
        <time>2014-10-12T07:25:06.000Z</time>
      </trkpt>
      <trkpt lat="47.50563" lon="6.7663">
        <ele>405.1</ele>
        <time>2014-10-12T07:25:07.000Z</time>
      </trkpt>
      <trkpt lat="47.5056" lon="6.76632">
        <ele>405.7</ele>
        <time>2014-10-12T07:25:08.000Z</time>
      </trkpt>
      <trkpt lat="47.50557" lon="6.76633">
        <ele>405.9</ele>
        <time>2014-10-12T07:25:09.000Z</time>
      </trkpt>
      <trkpt lat="47.50554" lon="6.76634">
        <ele>406.1</ele>
        <time>2014-10-12T07:25:10.000Z</time>
      </trkpt>
      <trkpt lat="47.5055" lon="6.76635">
        <ele>405.9</ele>
        <time>2014-10-12T07:25:11.000Z</time>
      </trkpt>
      <trkpt lat="47.50547" lon="6.76636">
        <ele>406.3</ele>
        <time>2014-10-12T07:25:12.000Z</time>
      </trkpt>
      <trkpt lat="47.50543" lon="6.76636">
        <ele>405.5</ele>
        <time>2014-10-12T07:25:13.000Z</time>
      </trkpt>
      <trkpt lat="47.5054" lon="6.76638">
        <ele>405.3</ele>
        <time>2014-10-12T07:25:14.000Z</time>
      </trkpt>
      <trkpt lat="47.50536" lon="6.76638">
        <ele>406.9</ele>
        <time>2014-10-12T07:25:15.000Z</time>
      </trkpt>
      <trkpt lat="47.50532" lon="6.76639">
        <ele>406.9</ele>
        <time>2014-10-12T07:25:16.000Z</time>
      </trkpt>
      <trkpt lat="47.50528" lon="6.76639">
        <ele>406.4</ele>
        <time>2014-10-12T07:25:17.000Z</time>
      </trkpt>
      <trkpt lat="47.50524" lon="6.76641">
        <ele>406.1</ele>
        <time>2014-10-12T07:25:18.000Z</time>
      </trkpt>
      <trkpt lat="47.50519" lon="6.76642">
        <ele>406.3</ele>
        <time>2014-10-12T07:25:19.000Z</time>
      </trkpt>
      <trkpt lat="47.50514" lon="6.76647">
        <ele>405.4</ele>
        <time>2014-10-12T07:25:20.000Z</time>
      </trkpt>
      <trkpt lat="47.50509" lon="6.76649">
        <ele>405.3</ele>
        <time>2014-10-12T07:25:21.000Z</time>
      </trkpt>
      <trkpt lat="47.50504" lon="6.7665">
        <ele>405.3</ele>
        <time>2014-10-12T07:25:22.000Z</time>
      </trkpt>
      <trkpt lat="47.50499" lon="6.76651">
        <ele>405.3</ele>
        <time>2014-10-12T07:25:23.000Z</time>
      </trkpt>
      <trkpt lat="47.50494" lon="6.76652">
        <ele>405.1</ele>
        <time>2014-10-12T07:25:24.000Z</time>
      </trkpt>
      <trkpt lat="47.50489" lon="6.76654">
        <ele>404.9</ele>
        <time>2014-10-12T07:25:25.000Z</time>
      </trkpt>
      <trkpt lat="47.50484" lon="6.76655">
        <ele>404.2</ele>
        <time>2014-10-12T07:25:26.000Z</time>
      </trkpt>
      <trkpt lat="47.50479" lon="6.76658">
        <ele>403.7</ele>
        <time>2014-10-12T07:25:27.000Z</time>
      </trkpt>
      <trkpt lat="47.50474" lon="6.7666">
        <ele>403.2</ele>
        <time>2014-10-12T07:25:28.000Z</time>
      </trkpt>
      <trkpt lat="47.50469" lon="6.76662">
        <ele>403.1</ele>
        <time>2014-10-12T07:25:29.000Z</time>
      </trkpt>
      <trkpt lat="47.50464" lon="6.76664">
        <ele>403.1</ele>
        <time>2014-10-12T07:25:30.000Z</time>
      </trkpt>
      <trkpt lat="47.50459" lon="6.76666">
        <ele>403.2</ele>
        <time>2014-10-12T07:25:31.000Z</time>
      </trkpt>
      <trkpt lat="47.50455" lon="6.76668">
        <ele>403.3</ele>
        <time>2014-10-12T07:25:32.000Z</time>
      </trkpt>
      <trkpt lat="47.5045" lon="6.76669">
        <ele>403.4</ele>
        <time>2014-10-12T07:25:33.000Z</time>
      </trkpt>
      <trkpt lat="47.50446" lon="6.76671">
        <ele>403</ele>
        <time>2014-10-12T07:25:34.000Z</time>
      </trkpt>
      <trkpt lat="47.50441" lon="6.76674">
        <ele>402.9</ele>
        <time>2014-10-12T07:25:35.000Z</time>
      </trkpt>
      <trkpt lat="47.50436" lon="6.76674">
        <ele>403</ele>
        <time>2014-10-12T07:25:36.000Z</time>
      </trkpt>
      <trkpt lat="47.50432" lon="6.76676">
        <ele>403.2</ele>
        <time>2014-10-12T07:25:37.000Z</time>
      </trkpt>
      <trkpt lat="47.50428" lon="6.76678">
        <ele>403.6</ele>
        <time>2014-10-12T07:25:38.000Z</time>
      </trkpt>
      <trkpt lat="47.50423" lon="6.7668">
        <ele>403.9</ele>
        <time>2014-10-12T07:25:39.000Z</time>
      </trkpt>
      <trkpt lat="47.50419" lon="6.76682">
        <ele>403.9</ele>
        <time>2014-10-12T07:25:40.000Z</time>
      </trkpt>
      <trkpt lat="47.50415" lon="6.76683">
        <ele>403.6</ele>
        <time>2014-10-12T07:25:41.000Z</time>
      </trkpt>
      <trkpt lat="47.5041" lon="6.76685">
        <ele>403.6</ele>
        <time>2014-10-12T07:25:42.000Z</time>
      </trkpt>
      <trkpt lat="47.50406" lon="6.76686">
        <ele>403.7</ele>
        <time>2014-10-12T07:25:43.000Z</time>
      </trkpt>
      <trkpt lat="47.50401" lon="6.76688">
        <ele>403.8</ele>
        <time>2014-10-12T07:25:44.000Z</time>
      </trkpt>
      <trkpt lat="47.50397" lon="6.76689">
        <ele>403.7</ele>
        <time>2014-10-12T07:25:45.000Z</time>
      </trkpt>
      <trkpt lat="47.50394" lon="6.7669">
        <ele>402.7</ele>
        <time>2014-10-12T07:25:46.000Z</time>
      </trkpt>
      <trkpt lat="47.50389" lon="6.76693">
        <ele>402.1</ele>
        <time>2014-10-12T07:25:47.000Z</time>
      </trkpt>
      <trkpt lat="47.50378" lon="6.76699">
        <ele>401.2</ele>
        <time>2014-10-12T07:25:50.000Z</time>
      </trkpt>
      <trkpt lat="47.50374" lon="6.76701">
        <ele>401.1</ele>
        <time>2014-10-12T07:25:51.000Z</time>
      </trkpt>
      <trkpt lat="47.5037" lon="6.76703">
        <ele>404.3</ele>
        <time>2014-10-12T07:25:52.000Z</time>
      </trkpt>
      <trkpt lat="47.50366" lon="6.76705">
        <ele>403.8</ele>
        <time>2014-10-12T07:25:53.000Z</time>
      </trkpt>
      <trkpt lat="47.50362" lon="6.76706">
        <ele>403.6</ele>
        <time>2014-10-12T07:25:54.000Z</time>
      </trkpt>
      <trkpt lat="47.50358" lon="6.76706">
        <ele>403.8</ele>
        <time>2014-10-12T07:25:55.000Z</time>
      </trkpt>
      <trkpt lat="47.50353" lon="6.76707">
        <ele>404.3</ele>
        <time>2014-10-12T07:25:56.000Z</time>
      </trkpt>
      <trkpt lat="47.50349" lon="6.76708">
        <ele>405.5</ele>
        <time>2014-10-12T07:25:57.000Z</time>
      </trkpt>
      <trkpt lat="47.50345" lon="6.7671">
        <ele>405.8</ele>
        <time>2014-10-12T07:25:58.000Z</time>
      </trkpt>
      <trkpt lat="47.50341" lon="6.76712">
        <ele>406.2</ele>
        <time>2014-10-12T07:25:58.998Z</time>
      </trkpt>
      <trkpt lat="47.50335" lon="6.76716">
        <ele>405.5</ele>
        <time>2014-10-12T07:26:00.000Z</time>
      </trkpt>
      <trkpt lat="47.50331" lon="6.76718">
        <ele>406</ele>
        <time>2014-10-12T07:26:01.000Z</time>
      </trkpt>
      <trkpt lat="47.50328" lon="6.76719">
        <ele>406.5</ele>
        <time>2014-10-12T07:26:02.000Z</time>
      </trkpt>
      <trkpt lat="47.50324" lon="6.76721">
        <ele>407.4</ele>
        <time>2014-10-12T07:26:03.000Z</time>
      </trkpt>
      <trkpt lat="47.50321" lon="6.76722">
        <ele>406.8</ele>
        <time>2014-10-12T07:26:04.000Z</time>
      </trkpt>
      <trkpt lat="47.50318" lon="6.76723">
        <ele>407.8</ele>
        <time>2014-10-12T07:26:05.000Z</time>
      </trkpt>
      <trkpt lat="47.50314" lon="6.76724">
        <ele>409</ele>
        <time>2014-10-12T07:26:06.000Z</time>
      </trkpt>
      <trkpt lat="47.50311" lon="6.76726">
        <ele>409.6</ele>
        <time>2014-10-12T07:26:07.000Z</time>
      </trkpt>
      <trkpt lat="47.50307" lon="6.76727">
        <ele>410</ele>
        <time>2014-10-12T07:26:08.000Z</time>
      </trkpt>
      <trkpt lat="47.50304" lon="6.76728">
        <ele>410.3</ele>
        <time>2014-10-12T07:26:09.000Z</time>
      </trkpt>
      <trkpt lat="47.503" lon="6.76729">
        <ele>409.8</ele>
        <time>2014-10-12T07:26:10.000Z</time>
      </trkpt>
      <trkpt lat="47.50297" lon="6.76729">
        <ele>408.4</ele>
        <time>2014-10-12T07:26:11.000Z</time>
      </trkpt>
      <trkpt lat="47.50294" lon="6.7673">
        <ele>408.4</ele>
        <time>2014-10-12T07:26:12.000Z</time>
      </trkpt>
      <trkpt lat="47.5029" lon="6.7673">
        <ele>408.4</ele>
        <time>2014-10-12T07:26:13.000Z</time>
      </trkpt>
      <trkpt lat="47.50287" lon="6.76731">
        <ele>410.1</ele>
        <time>2014-10-12T07:26:14.000Z</time>
      </trkpt>
      <trkpt lat="47.50283" lon="6.76733">
        <ele>408.8</ele>
        <time>2014-10-12T07:26:15.000Z</time>
      </trkpt>
      <trkpt lat="47.50279" lon="6.76734">
        <ele>407.9</ele>
        <time>2014-10-12T07:26:16.000Z</time>
      </trkpt>
      <trkpt lat="47.50276" lon="6.76735">
        <ele>407.9</ele>
        <time>2014-10-12T07:26:17.000Z</time>
      </trkpt>
      <trkpt lat="47.50272" lon="6.76736">
        <ele>408.6</ele>
        <time>2014-10-12T07:26:18.000Z</time>
      </trkpt>
      <trkpt lat="47.50269" lon="6.76737">
        <ele>409.5</ele>
        <time>2014-10-12T07:26:19.000Z</time>
      </trkpt>
      <trkpt lat="47.50266" lon="6.76738">
        <ele>409.3</ele>
        <time>2014-10-12T07:26:20.000Z</time>
      </trkpt>
      <trkpt lat="47.50263" lon="6.76739">
        <ele>409</ele>
        <time>2014-10-12T07:26:21.000Z</time>
      </trkpt>
      <trkpt lat="47.5026" lon="6.7674">
        <ele>408.4</ele>
        <time>2014-10-12T07:26:22.000Z</time>
      </trkpt>
      <trkpt lat="47.50257" lon="6.76742">
        <ele>408</ele>
        <time>2014-10-12T07:26:23.000Z</time>
      </trkpt>
      <trkpt lat="47.50253" lon="6.76743">
        <ele>407.1</ele>
        <time>2014-10-12T07:26:24.000Z</time>
      </trkpt>
      <trkpt lat="47.5025" lon="6.76743">
        <ele>406.2</ele>
        <time>2014-10-12T07:26:25.000Z</time>
      </trkpt>
      <trkpt lat="47.50247" lon="6.76742">
        <ele>406.1</ele>
        <time>2014-10-12T07:26:26.000Z</time>
      </trkpt>
      <trkpt lat="47.50245" lon="6.7674">
        <ele>406</ele>
        <time>2014-10-12T07:26:27.000Z</time>
      </trkpt>
      <trkpt lat="47.50243" lon="6.76738">
        <ele>405.9</ele>
        <time>2014-10-12T07:26:28.000Z</time>
      </trkpt>
      <trkpt lat="47.50241" lon="6.76735">
        <ele>406</ele>
        <time>2014-10-12T07:26:29.000Z</time>
      </trkpt>
      <trkpt lat="47.5024" lon="6.76732">
        <ele>406</ele>
        <time>2014-10-12T07:26:30.000Z</time>
      </trkpt>
      <trkpt lat="47.50238" lon="6.76729">
        <ele>405.8</ele>
        <time>2014-10-12T07:26:31.000Z</time>
      </trkpt>
      <trkpt lat="47.50236" lon="6.76725">
        <ele>406</ele>
        <time>2014-10-12T07:26:32.000Z</time>
      </trkpt>
      <trkpt lat="47.50235" lon="6.7672">
        <ele>405.9</ele>
        <time>2014-10-12T07:26:33.000Z</time>
      </trkpt>
      <trkpt lat="47.50233" lon="6.76716">
        <ele>405.4</ele>
        <time>2014-10-12T07:26:34.000Z</time>
      </trkpt>
      <trkpt lat="47.50231" lon="6.76713">
        <ele>405.5</ele>
        <time>2014-10-12T07:26:35.000Z</time>
      </trkpt>
      <trkpt lat="47.50229" lon="6.76709">
        <ele>405.8</ele>
        <time>2014-10-12T07:26:36.000Z</time>
      </trkpt>
      <trkpt lat="47.50228" lon="6.76705">
        <ele>405.7</ele>
        <time>2014-10-12T07:26:37.000Z</time>
      </trkpt>
      <trkpt lat="47.50226" lon="6.76701">
        <ele>406.1</ele>
        <time>2014-10-12T07:26:38.000Z</time>
      </trkpt>
      <trkpt lat="47.50225" lon="6.76697">
        <ele>406.1</ele>
        <time>2014-10-12T07:26:39.000Z</time>
      </trkpt>
      <trkpt lat="47.50223" lon="6.76692">
        <ele>406.1</ele>
        <time>2014-10-12T07:26:40.000Z</time>
      </trkpt>
      <trkpt lat="47.50222" lon="6.76688">
        <ele>406</ele>
        <time>2014-10-12T07:26:41.000Z</time>
      </trkpt>
      <trkpt lat="47.5022" lon="6.76684">
        <ele>406.3</ele>
        <time>2014-10-12T07:26:42.000Z</time>
      </trkpt>
      <trkpt lat="47.50219" lon="6.76679">
        <ele>406.3</ele>
        <time>2014-10-12T07:26:43.000Z</time>
      </trkpt>
      <trkpt lat="47.50217" lon="6.76675">
        <ele>406.2</ele>
        <time>2014-10-12T07:26:44.000Z</time>
      </trkpt>
      <trkpt lat="47.50216" lon="6.7667">
        <ele>406</ele>
        <time>2014-10-12T07:26:45.000Z</time>
      </trkpt>
      <trkpt lat="47.50214" lon="6.76665">
        <ele>406</ele>
        <time>2014-10-12T07:26:46.000Z</time>
      </trkpt>
      <trkpt lat="47.50213" lon="6.7666">
        <ele>405.9</ele>
        <time>2014-10-12T07:26:47.000Z</time>
      </trkpt>
      <trkpt lat="47.50201" lon="6.76618">
        <ele>405.8</ele>
        <time>2014-10-12T07:26:55.000Z</time>
      </trkpt>
      <trkpt lat="47.502" lon="6.76614">
        <ele>409.1</ele>
        <time>2014-10-12T07:26:56.000Z</time>
      </trkpt>
      <trkpt lat="47.50199" lon="6.76609">
        <ele>410</ele>
        <time>2014-10-12T07:26:57.000Z</time>
      </trkpt>
      <trkpt lat="47.50198" lon="6.76604">
        <ele>410.2</ele>
        <time>2014-10-12T07:26:58.000Z</time>
      </trkpt>
      <trkpt lat="47.50197" lon="6.76601">
        <ele>410.1</ele>
        <time>2014-10-12T07:26:59.000Z</time>
      </trkpt>
      <trkpt lat="47.50196" lon="6.76595">
        <ele>409.1</ele>
        <time>2014-10-12T07:27:02.000Z</time>
      </trkpt>
      <trkpt lat="47.50196" lon="6.76593">
        <ele>408.7</ele>
        <time>2014-10-12T07:27:03.000Z</time>
      </trkpt>
      <trkpt lat="47.50196" lon="6.76588">
        <ele>406.8</ele>
        <time>2014-10-12T07:27:05.000Z</time>
      </trkpt>
      <trkpt lat="47.50196" lon="6.76585">
        <ele>406.2</ele>
        <time>2014-10-12T07:27:06.000Z</time>
      </trkpt>
      <trkpt lat="47.50197" lon="6.76579">
        <ele>403.9</ele>
        <time>2014-10-12T07:27:08.000Z</time>
      </trkpt>
      <trkpt lat="47.50198" lon="6.76576">
        <ele>403.8</ele>
        <time>2014-10-12T07:27:09.000Z</time>
      </trkpt>
      <trkpt lat="47.50201" lon="6.76572">
        <ele>403</ele>
        <time>2014-10-12T07:27:11.000Z</time>
      </trkpt>
      <trkpt lat="47.50203" lon="6.7657">
        <ele>403</ele>
        <time>2014-10-12T07:27:12.000Z</time>
      </trkpt>
      <trkpt lat="47.50205" lon="6.76569">
        <ele>402.8</ele>
        <time>2014-10-12T07:27:13.000Z</time>
      </trkpt>
      <trkpt lat="47.50208" lon="6.76567">
        <ele>402.7</ele>
        <time>2014-10-12T07:27:14.000Z</time>
      </trkpt>
      <trkpt lat="47.5021" lon="6.76563">
        <ele>402.7</ele>
        <time>2014-10-12T07:27:15.000Z</time>
      </trkpt>
      <trkpt lat="47.50213" lon="6.7656">
        <ele>402.7</ele>
        <time>2014-10-12T07:27:16.000Z</time>
      </trkpt>
      <trkpt lat="47.50214" lon="6.76556">
        <ele>402.5</ele>
        <time>2014-10-12T07:27:17.000Z</time>
      </trkpt>
      <trkpt lat="47.50216" lon="6.76552">
        <ele>402.1</ele>
        <time>2014-10-12T07:27:18.000Z</time>
      </trkpt>
      <trkpt lat="47.50216" lon="6.76547">
        <ele>402.5</ele>
        <time>2014-10-12T07:27:19.000Z</time>
      </trkpt>
      <trkpt lat="47.50217" lon="6.76543">
        <ele>402.1</ele>
        <time>2014-10-12T07:27:20.000Z</time>
      </trkpt>
      <trkpt lat="47.50216" lon="6.76539">
        <ele>401.7</ele>
        <time>2014-10-12T07:27:21.000Z</time>
      </trkpt>
      <trkpt lat="47.50216" lon="6.76534">
        <ele>401.2</ele>
        <time>2014-10-12T07:27:22.000Z</time>
      </trkpt>
      <trkpt lat="47.50215" lon="6.7653">
        <ele>400.5</ele>
        <time>2014-10-12T07:27:23.000Z</time>
      </trkpt>
      <trkpt lat="47.50215" lon="6.76526">
        <ele>399.8</ele>
        <time>2014-10-12T07:27:24.000Z</time>
      </trkpt>
      <trkpt lat="47.50214" lon="6.76522">
        <ele>398.8</ele>
        <time>2014-10-12T07:27:25.000Z</time>
      </trkpt>
      <trkpt lat="47.50213" lon="6.76517">
        <ele>397.7</ele>
        <time>2014-10-12T07:27:26.000Z</time>
      </trkpt>
      <trkpt lat="47.50212" lon="6.76514">
        <ele>396.8</ele>
        <time>2014-10-12T07:27:27.000Z</time>
      </trkpt>
      <trkpt lat="47.5021" lon="6.76511">
        <ele>395.9</ele>
        <time>2014-10-12T07:27:28.000Z</time>
      </trkpt>
      <trkpt lat="47.50208" lon="6.76506">
        <ele>394.6</ele>
        <time>2014-10-12T07:27:30.000Z</time>
      </trkpt>
      <trkpt lat="47.50207" lon="6.76504">
        <ele>394.1</ele>
        <time>2014-10-12T07:27:31.000Z</time>
      </trkpt>
      <trkpt lat="47.50206" lon="6.76499">
        <ele>392.8</ele>
        <time>2014-10-12T07:27:33.000Z</time>
      </trkpt>
      <trkpt lat="47.50205" lon="6.76496">
        <ele>392.3</ele>
        <time>2014-10-12T07:27:34.000Z</time>
      </trkpt>
      <trkpt lat="47.50203" lon="6.7649">
        <ele>391.7</ele>
        <time>2014-10-12T07:27:35.000Z</time>
      </trkpt>
      <trkpt lat="47.50202" lon="6.76484">
        <ele>391</ele>
        <time>2014-10-12T07:27:36.000Z</time>
      </trkpt>
      <trkpt lat="47.50201" lon="6.76476">
        <ele>391</ele>
        <time>2014-10-12T07:27:37.000Z</time>
      </trkpt>
      <trkpt lat="47.502" lon="6.76468">
        <ele>390.3</ele>
        <time>2014-10-12T07:27:38.000Z</time>
      </trkpt>
      <trkpt lat="47.50199" lon="6.7646">
        <ele>389.5</ele>
        <time>2014-10-12T07:27:39.000Z</time>
      </trkpt>
      <trkpt lat="47.50198" lon="6.76453">
        <ele>389.6</ele>
        <time>2014-10-12T07:27:40.000Z</time>
      </trkpt>
      <trkpt lat="47.50196" lon="6.76446">
        <ele>388.4</ele>
        <time>2014-10-12T07:27:41.000Z</time>
      </trkpt>
      <trkpt lat="47.50194" lon="6.7644">
        <ele>388.7</ele>
        <time>2014-10-12T07:27:42.000Z</time>
      </trkpt>
      <trkpt lat="47.50192" lon="6.76433">
        <ele>387.7</ele>
        <time>2014-10-12T07:27:43.000Z</time>
      </trkpt>
      <trkpt lat="47.50189" lon="6.76426">
        <ele>386.1</ele>
        <time>2014-10-12T07:27:44.000Z</time>
      </trkpt>
      <trkpt lat="47.50186" lon="6.76419">
        <ele>385.3</ele>
        <time>2014-10-12T07:27:45.000Z</time>
      </trkpt>
      <trkpt lat="47.50183" lon="6.7641">
        <ele>384</ele>
        <time>2014-10-12T07:27:46.000Z</time>
      </trkpt>
      <trkpt lat="47.5018" lon="6.76401">
        <ele>384.2</ele>
        <time>2014-10-12T07:27:47.000Z</time>
      </trkpt>
      <trkpt lat="47.50164" lon="6.76333">
        <ele>380.7</ele>
        <time>2014-10-12T07:27:53.000Z</time>
      </trkpt>
      <trkpt lat="47.5016" lon="6.76321">
        <ele>379.9</ele>
        <time>2014-10-12T07:27:54.000Z</time>
      </trkpt>
      <trkpt lat="47.50157" lon="6.76309">
        <ele>379.6</ele>
        <time>2014-10-12T07:27:55.000Z</time>
      </trkpt>
      <trkpt lat="47.50156" lon="6.76293">
        <ele>380.2</ele>
        <time>2014-10-12T07:27:56.000Z</time>
      </trkpt>
      <trkpt lat="47.50156" lon="6.76281">
        <ele>381.4</ele>
        <time>2014-10-12T07:27:57.000Z</time>
      </trkpt>
      <trkpt lat="47.50154" lon="6.76269">
        <ele>381.2</ele>
        <time>2014-10-12T07:27:58.000Z</time>
      </trkpt>
      <trkpt lat="47.5015" lon="6.76255">
        <ele>380.9</ele>
        <time>2014-10-12T07:27:59.000Z</time>
      </trkpt>
      <trkpt lat="47.50147" lon="6.76241">
        <ele>380.6</ele>
        <time>2014-10-12T07:28:00.000Z</time>
      </trkpt>
      <trkpt lat="47.5014" lon="6.76221">
        <ele>381.6</ele>
        <time>2014-10-12T07:28:01.000Z</time>
      </trkpt>
      <trkpt lat="47.50136" lon="6.76207">
        <ele>382.4</ele>
        <time>2014-10-12T07:28:02.000Z</time>
      </trkpt>
      <trkpt lat="47.50136" lon="6.76195">
        <ele>382.3</ele>
        <time>2014-10-12T07:28:03.000Z</time>
      </trkpt>
      <trkpt lat="47.50134" lon="6.76185">
        <ele>381.9</ele>
        <time>2014-10-12T07:28:04.000Z</time>
      </trkpt>
      <trkpt lat="47.5013" lon="6.76179">
        <ele>381.7</ele>
        <time>2014-10-12T07:28:05.000Z</time>
      </trkpt>
      <trkpt lat="47.5013" lon="6.76169">
        <ele>380.9</ele>
        <time>2014-10-12T07:28:06.000Z</time>
      </trkpt>
      <trkpt lat="47.50127" lon="6.76161">
        <ele>379</ele>
        <time>2014-10-12T07:28:07.000Z</time>
      </trkpt>
      <trkpt lat="47.50124" lon="6.76153">
        <ele>377.7</ele>
        <time>2014-10-12T07:28:08.000Z</time>
      </trkpt>
      <trkpt lat="47.50121" lon="6.76141">
        <ele>376.3</ele>
        <time>2014-10-12T07:28:09.000Z</time>
      </trkpt>
      <trkpt lat="47.50119" lon="6.76131">
        <ele>375.4</ele>
        <time>2014-10-12T07:28:10.000Z</time>
      </trkpt>
      <trkpt lat="47.50115" lon="6.76122">
        <ele>373.4</ele>
        <time>2014-10-12T07:28:11.000Z</time>
      </trkpt>
      <trkpt lat="47.50113" lon="6.76113">
        <ele>373.1</ele>
        <time>2014-10-12T07:28:12.000Z</time>
      </trkpt>
      <trkpt lat="47.5011" lon="6.76104">
        <ele>371.5</ele>
        <time>2014-10-12T07:28:13.000Z</time>
      </trkpt>
      <trkpt lat="47.50106" lon="6.76096">
        <ele>367.3</ele>
        <time>2014-10-12T07:28:14.000Z</time>
      </trkpt>
      <trkpt lat="47.50102" lon="6.7609">
        <ele>364.6</ele>
        <time>2014-10-12T07:28:15.000Z</time>
      </trkpt>
      <trkpt lat="47.50098" lon="6.76082">
        <ele>361.8</ele>
        <time>2014-10-12T07:28:16.000Z</time>
      </trkpt>
      <trkpt lat="47.5008" lon="6.76041">
        <ele>363.3</ele>
        <time>2014-10-12T07:28:17.000Z</time>
      </trkpt>
      <trkpt lat="47.50078" lon="6.76017">
        <ele>366.7</ele>
        <time>2014-10-12T07:28:18.000Z</time>
      </trkpt>
      <trkpt lat="47.50076" lon="6.76">
        <ele>369</ele>
        <time>2014-10-12T07:28:19.000Z</time>
      </trkpt>
      <trkpt lat="47.50071" lon="6.75991">
        <ele>368.7</ele>
        <time>2014-10-12T07:28:20.000Z</time>
      </trkpt>
      <trkpt lat="47.50066" lon="6.75979">
        <ele>368.5</ele>
        <time>2014-10-12T07:28:21.000Z</time>
      </trkpt>
      <trkpt lat="47.50057" lon="6.75962">
        <ele>371.9</ele>
        <time>2014-10-12T07:28:22.000Z</time>
      </trkpt>
      <trkpt lat="47.50052" lon="6.75949">
        <ele>375.3</ele>
        <time>2014-10-12T07:28:23.000Z</time>
      </trkpt>
      <trkpt lat="47.5005" lon="6.75939">
        <ele>376.1</ele>
        <time>2014-10-12T07:28:24.000Z</time>
      </trkpt>
      <trkpt lat="47.50047" lon="6.75932">
        <ele>376.7</ele>
        <time>2014-10-12T07:28:25.000Z</time>
      </trkpt>
      <trkpt lat="47.50041" lon="6.75921">
        <ele>376.5</ele>
        <time>2014-10-12T07:28:26.000Z</time>
      </trkpt>
      <trkpt lat="47.50035" lon="6.75909">
        <ele>378.6</ele>
        <time>2014-10-12T07:28:27.000Z</time>
      </trkpt>
      <trkpt lat="47.50028" lon="6.75899">
        <ele>380.4</ele>
        <time>2014-10-12T07:28:28.000Z</time>
      </trkpt>
      <trkpt lat="47.50024" lon="6.7589">
        <ele>381</ele>
        <time>2014-10-12T07:28:29.000Z</time>
      </trkpt>
      <trkpt lat="47.50022" lon="6.75886">
        <ele>381.6</ele>
        <time>2014-10-12T07:28:30.000Z</time>
      </trkpt>
      <trkpt lat="47.50018" lon="6.7588">
        <ele>381.5</ele>
        <time>2014-10-12T07:28:31.000Z</time>
      </trkpt>
      <trkpt lat="47.50013" lon="6.75875">
        <ele>380.1</ele>
        <time>2014-10-12T07:28:32.000Z</time>
      </trkpt>
      <trkpt lat="47.50008" lon="6.75866">
        <ele>378.3</ele>
        <time>2014-10-12T07:28:33.000Z</time>
      </trkpt>
      <trkpt lat="47.50003" lon="6.75855">
        <ele>377.9</ele>
        <time>2014-10-12T07:28:34.000Z</time>
      </trkpt>
      <trkpt lat="47.49998" lon="6.75845">
        <ele>377.1</ele>
        <time>2014-10-12T07:28:35.000Z</time>
      </trkpt>
      <trkpt lat="47.49995" lon="6.75842">
        <ele>376.6</ele>
        <time>2014-10-12T07:28:36.000Z</time>
      </trkpt>
      <trkpt lat="47.49993" lon="6.75838">
        <ele>376.7</ele>
        <time>2014-10-12T07:28:37.000Z</time>
      </trkpt>
      <trkpt lat="47.49989" lon="6.75833">
        <ele>376.1</ele>
        <time>2014-10-12T07:28:38.000Z</time>
      </trkpt>
      <trkpt lat="47.49984" lon="6.75827">
        <ele>374.2</ele>
        <time>2014-10-12T07:28:39.000Z</time>
      </trkpt>
      <trkpt lat="47.49979" lon="6.75824">
        <ele>372.4</ele>
        <time>2014-10-12T07:28:40.000Z</time>
      </trkpt>
      <trkpt lat="47.49975" lon="6.75821">
        <ele>372.1</ele>
        <time>2014-10-12T07:28:41.000Z</time>
      </trkpt>
      <trkpt lat="47.49971" lon="6.75816">
        <ele>371</ele>
        <time>2014-10-12T07:28:42.000Z</time>
      </trkpt>
      <trkpt lat="47.49964" lon="6.75812">
        <ele>370.3</ele>
        <time>2014-10-12T07:28:43.000Z</time>
      </trkpt>
      <trkpt lat="47.4996" lon="6.75805">
        <ele>368.8</ele>
        <time>2014-10-12T07:28:44.000Z</time>
      </trkpt>
      <trkpt lat="47.49957" lon="6.75803">
        <ele>367.2</ele>
        <time>2014-10-12T07:28:45.000Z</time>
      </trkpt>
      <trkpt lat="47.49952" lon="6.758">
        <ele>367.5</ele>
        <time>2014-10-12T07:28:46.000Z</time>
      </trkpt>
      <trkpt lat="47.49947" lon="6.75797">
        <ele>367.1</ele>
        <time>2014-10-12T07:28:47.000Z</time>
      </trkpt>
      <trkpt lat="47.49912" lon="6.75789">
        <ele>359.2</ele>
        <time>2014-10-12T07:28:51.000Z</time>
      </trkpt>
      <trkpt lat="47.49902" lon="6.75794">
        <ele>357.6</ele>
        <time>2014-10-12T07:28:52.000Z</time>
      </trkpt>
      <trkpt lat="47.49894" lon="6.75795">
        <ele>356.6</ele>
        <time>2014-10-12T07:28:53.000Z</time>
      </trkpt>
      <trkpt lat="47.49885" lon="6.75795">
        <ele>356</ele>
        <time>2014-10-12T07:28:54.000Z</time>
      </trkpt>
      <trkpt lat="47.49875" lon="6.75793">
        <ele>355.3</ele>
        <time>2014-10-12T07:28:55.000Z</time>
      </trkpt>
      <trkpt lat="47.49864" lon="6.75792">
        <ele>354.9</ele>
        <time>2014-10-12T07:28:56.000Z</time>
      </trkpt>
      <trkpt lat="47.4985" lon="6.7579">
        <ele>354.2</ele>
        <time>2014-10-12T07:28:57.000Z</time>
      </trkpt>
      <trkpt lat="47.49837" lon="6.75786">
        <ele>353.4</ele>
        <time>2014-10-12T07:28:58.000Z</time>
      </trkpt>
      <trkpt lat="47.49823" lon="6.75785">
        <ele>352.1</ele>
        <time>2014-10-12T07:28:59.000Z</time>
      </trkpt>
      <trkpt lat="47.49811" lon="6.75783">
        <ele>351.9</ele>
        <time>2014-10-12T07:29:00.000Z</time>
      </trkpt>
      <trkpt lat="47.49797" lon="6.75786">
        <ele>351.5</ele>
        <time>2014-10-12T07:29:01.000Z</time>
      </trkpt>
      <trkpt lat="47.49784" lon="6.75784">
        <ele>351.4</ele>
        <time>2014-10-12T07:29:02.000Z</time>
      </trkpt>
      <trkpt lat="47.49771" lon="6.75782">
        <ele>351.3</ele>
        <time>2014-10-12T07:29:03.000Z</time>
      </trkpt>
      <trkpt lat="47.49758" lon="6.7578">
        <ele>351.6</ele>
        <time>2014-10-12T07:29:04.000Z</time>
      </trkpt>
      <trkpt lat="47.49745" lon="6.75779">
        <ele>352.1</ele>
        <time>2014-10-12T07:29:05.000Z</time>
      </trkpt>
      <trkpt lat="47.49733" lon="6.75778">
        <ele>352.9</ele>
        <time>2014-10-12T07:29:06.000Z</time>
      </trkpt>
      <trkpt lat="47.4972" lon="6.75776">
        <ele>353.6</ele>
        <time>2014-10-12T07:29:07.000Z</time>
      </trkpt>
      <trkpt lat="47.4971" lon="6.75776">
        <ele>353.6</ele>
        <time>2014-10-12T07:29:08.000Z</time>
      </trkpt>
      <trkpt lat="47.49701" lon="6.75776">
        <ele>353.3</ele>
        <time>2014-10-12T07:29:09.000Z</time>
      </trkpt>
      <trkpt lat="47.49694" lon="6.75778">
        <ele>352.8</ele>
        <time>2014-10-12T07:29:10.000Z</time>
      </trkpt>
      <trkpt lat="47.49686" lon="6.75779">
        <ele>352.1</ele>
        <time>2014-10-12T07:29:11.000Z</time>
      </trkpt>
      <trkpt lat="47.49679" lon="6.75779">
        <ele>351.6</ele>
        <time>2014-10-12T07:29:12.000Z</time>
      </trkpt>
      <trkpt lat="47.49672" lon="6.75781">
        <ele>351.6</ele>
        <time>2014-10-12T07:29:13.000Z</time>
      </trkpt>
      <trkpt lat="47.49668" lon="6.75781">
        <ele>351</ele>
        <time>2014-10-12T07:29:14.000Z</time>
      </trkpt>
      <trkpt lat="47.49662" lon="6.75784">
        <ele>350</ele>
        <time>2014-10-12T07:29:15.000Z</time>
      </trkpt>
      <trkpt lat="47.49655" lon="6.75784">
        <ele>349.6</ele>
        <time>2014-10-12T07:29:16.000Z</time>
      </trkpt>
      <trkpt lat="47.4965" lon="6.75787">
        <ele>349.3</ele>
        <time>2014-10-12T07:29:17.000Z</time>
      </trkpt>
      <trkpt lat="47.49644" lon="6.75786">
        <ele>349.5</ele>
        <time>2014-10-12T07:29:18.000Z</time>
      </trkpt>
      <trkpt lat="47.49635" lon="6.75783">
        <ele>349.5</ele>
        <time>2014-10-12T07:29:19.000Z</time>
      </trkpt>
      <trkpt lat="47.4963" lon="6.75783">
        <ele>348.7</ele>
        <time>2014-10-12T07:29:20.000Z</time>
      </trkpt>
      <trkpt lat="47.49624" lon="6.75783">
        <ele>348.6</ele>
        <time>2014-10-12T07:29:21.000Z</time>
      </trkpt>
      <trkpt lat="47.49617" lon="6.75785">
        <ele>348.9</ele>
        <time>2014-10-12T07:29:22.000Z</time>
      </trkpt>
      <trkpt lat="47.49611" lon="6.75785">
        <ele>349.1</ele>
        <time>2014-10-12T07:29:23.000Z</time>
      </trkpt>
      <trkpt lat="47.49607" lon="6.75785">
        <ele>349</ele>
        <time>2014-10-12T07:29:24.000Z</time>
      </trkpt>
      <trkpt lat="47.49601" lon="6.75785">
        <ele>347.5</ele>
        <time>2014-10-12T07:29:25.000Z</time>
      </trkpt>
      <trkpt lat="47.49595" lon="6.75785">
        <ele>347.9</ele>
        <time>2014-10-12T07:29:26.000Z</time>
      </trkpt>
      <trkpt lat="47.49589" lon="6.75786">
        <ele>347</ele>
        <time>2014-10-12T07:29:27.000Z</time>
      </trkpt>
      <trkpt lat="47.49584" lon="6.75786">
        <ele>345.7</ele>
        <time>2014-10-12T07:29:28.000Z</time>
      </trkpt>
      <trkpt lat="47.4958" lon="6.75785">
        <ele>344.7</ele>
        <time>2014-10-12T07:29:29.000Z</time>
      </trkpt>
      <trkpt lat="47.49575" lon="6.75784">
        <ele>342.4</ele>
        <time>2014-10-12T07:29:30.000Z</time>
      </trkpt>
      <trkpt lat="47.49572" lon="6.75781">
        <ele>342.2</ele>
        <time>2014-10-12T07:29:31.000Z</time>
      </trkpt>
      <trkpt lat="47.49569" lon="6.75777">
        <ele>340.6</ele>
        <time>2014-10-12T07:29:32.000Z</time>
      </trkpt>
      <trkpt lat="47.49568" lon="6.75772">
        <ele>339.7</ele>
        <time>2014-10-12T07:29:33.000Z</time>
      </trkpt>
      <trkpt lat="47.49569" lon="6.75767">
        <ele>339.3</ele>
        <time>2014-10-12T07:29:34.000Z</time>
      </trkpt>
      <trkpt lat="47.49572" lon="6.75763">
        <ele>338.7</ele>
        <time>2014-10-12T07:29:35.000Z</time>
      </trkpt>
      <trkpt lat="47.49575" lon="6.7576">
        <ele>340.3</ele>
        <time>2014-10-12T07:29:36.000Z</time>
      </trkpt>
      <trkpt lat="47.49582" lon="6.75748">
        <ele>339</ele>
        <time>2014-10-12T07:29:37.000Z</time>
      </trkpt>
      <trkpt lat="47.49586" lon="6.75743">
        <ele>338.2</ele>
        <time>2014-10-12T07:29:38.000Z</time>
      </trkpt>
      <trkpt lat="47.4959" lon="6.75738">
        <ele>338.5</ele>
        <time>2014-10-12T07:29:39.000Z</time>
      </trkpt>
      <trkpt lat="47.49594" lon="6.75732">
        <ele>338.1</ele>
        <time>2014-10-12T07:29:40.000Z</time>
      </trkpt>
      <trkpt lat="47.49596" lon="6.75725">
        <ele>337.8</ele>
        <time>2014-10-12T07:29:41.000Z</time>
      </trkpt>
      <trkpt lat="47.49598" lon="6.75719">
        <ele>335.7</ele>
        <time>2014-10-12T07:29:42.000Z</time>
      </trkpt>
      <trkpt lat="47.49602" lon="6.75715">
        <ele>333.7</ele>
        <time>2014-10-12T07:29:43.000Z</time>
      </trkpt>
      <trkpt lat="47.49606" lon="6.75708">
        <ele>332.8</ele>
        <time>2014-10-12T07:29:44.000Z</time>
      </trkpt>
      <trkpt lat="47.49607" lon="6.757">
        <ele>332</ele>
        <time>2014-10-12T07:29:45.000Z</time>
      </trkpt>
      <trkpt lat="47.49606" lon="6.75692">
        <ele>331.4</ele>
        <time>2014-10-12T07:29:46.000Z</time>
      </trkpt>
      <trkpt lat="47.496" lon="6.75689">
        <ele>329.4</ele>
        <time>2014-10-12T07:29:47.000Z</time>
      </trkpt>
      <trkpt lat="47.49588" lon="6.75677">
        <ele>327.4</ele>
        <time>2014-10-12T07:29:50.000Z</time>
      </trkpt>
      <trkpt lat="47.49582" lon="6.75676">
        <ele>327.5</ele>
        <time>2014-10-12T07:29:51.000Z</time>
      </trkpt>
      <trkpt lat="47.49576" lon="6.75674">
        <ele>327.1</ele>
        <time>2014-10-12T07:29:52.000Z</time>
      </trkpt>
      <trkpt lat="47.4957" lon="6.75674">
        <ele>326.9</ele>
        <time>2014-10-12T07:29:53.000Z</time>
      </trkpt>
      <trkpt lat="47.49565" lon="6.75683">
        <ele>326.7</ele>
        <time>2014-10-12T07:29:54.000Z</time>
      </trkpt>
      <trkpt lat="47.4956" lon="6.75688">
        <ele>325.9</ele>
        <time>2014-10-12T07:29:55.000Z</time>
      </trkpt>
      <trkpt lat="47.49556" lon="6.75692">
        <ele>325.8</ele>
        <time>2014-10-12T07:29:56.000Z</time>
      </trkpt>
      <trkpt lat="47.49551" lon="6.75697">
        <ele>325.8</ele>
        <time>2014-10-12T07:29:57.000Z</time>
      </trkpt>
      <trkpt lat="47.49546" lon="6.75702">
        <ele>325.7</ele>
        <time>2014-10-12T07:29:58.000Z</time>
      </trkpt>
      <trkpt lat="47.49541" lon="6.75707">
        <ele>327</ele>
        <time>2014-10-12T07:29:59.000Z</time>
      </trkpt>
      <trkpt lat="47.49535" lon="6.75712">
        <ele>325.5</ele>
        <time>2014-10-12T07:30:00.000Z</time>
      </trkpt>
      <trkpt lat="47.4953" lon="6.75716">
        <ele>325.2</ele>
        <time>2014-10-12T07:30:01.000Z</time>
      </trkpt>
      <trkpt lat="47.49526" lon="6.75718">
        <ele>323.7</ele>
        <time>2014-10-12T07:30:02.000Z</time>
      </trkpt>
      <trkpt lat="47.49521" lon="6.75721">
        <ele>323.4</ele>
        <time>2014-10-12T07:30:03.000Z</time>
      </trkpt>
      <trkpt lat="47.49516" lon="6.75724">
        <ele>323.2</ele>
        <time>2014-10-12T07:30:04.000Z</time>
      </trkpt>
      <trkpt lat="47.4951" lon="6.75728">
        <ele>323.1</ele>
        <time>2014-10-12T07:30:05.000Z</time>
      </trkpt>
      <trkpt lat="47.49504" lon="6.75731">
        <ele>323.3</ele>
        <time>2014-10-12T07:30:06.000Z</time>
      </trkpt>
      <trkpt lat="47.49499" lon="6.75733">
        <ele>322.9</ele>
        <time>2014-10-12T07:30:07.000Z</time>
      </trkpt>
      <trkpt lat="47.49493" lon="6.75736">
        <ele>323.2</ele>
        <time>2014-10-12T07:30:08.000Z</time>
      </trkpt>
      <trkpt lat="47.49487" lon="6.75736">
        <ele>323.5</ele>
        <time>2014-10-12T07:30:09.000Z</time>
      </trkpt>
      <trkpt lat="47.49482" lon="6.75734">
        <ele>323.6</ele>
        <time>2014-10-12T07:30:10.000Z</time>
      </trkpt>
      <trkpt lat="47.4948" lon="6.75724">
        <ele>323</ele>
        <time>2014-10-12T07:30:11.000Z</time>
      </trkpt>
      <trkpt lat="47.49477" lon="6.75717">
        <ele>322.9</ele>
        <time>2014-10-12T07:30:12.000Z</time>
      </trkpt>
      <trkpt lat="47.49475" lon="6.75708">
        <ele>322.1</ele>
        <time>2014-10-12T07:30:13.000Z</time>
      </trkpt>
      <trkpt lat="47.49472" lon="6.757">
        <ele>321.3</ele>
        <time>2014-10-12T07:30:14.000Z</time>
      </trkpt>
      <trkpt lat="47.49469" lon="6.75692">
        <ele>321.1</ele>
        <time>2014-10-12T07:30:15.000Z</time>
      </trkpt>
      <trkpt lat="47.49463" lon="6.75689">
        <ele>323.1</ele>
        <time>2014-10-12T07:30:16.000Z</time>
      </trkpt>
      <trkpt lat="47.49459" lon="6.75686">
        <ele>323.9</ele>
        <time>2014-10-12T07:30:17.000Z</time>
      </trkpt>
      <trkpt lat="47.49454" lon="6.75691">
        <ele>323.7</ele>
        <time>2014-10-12T07:30:18.000Z</time>
      </trkpt>
      <trkpt lat="47.49449" lon="6.75695">
        <ele>323</ele>
        <time>2014-10-12T07:30:19.000Z</time>
      </trkpt>
      <trkpt lat="47.49444" lon="6.75694">
        <ele>322.8</ele>
        <time>2014-10-12T07:30:20.000Z</time>
      </trkpt>
      <trkpt lat="47.49441" lon="6.75689">
        <ele>323.2</ele>
        <time>2014-10-12T07:30:21.000Z</time>
      </trkpt>
      <trkpt lat="47.49439" lon="6.75683">
        <ele>323.5</ele>
        <time>2014-10-12T07:30:22.000Z</time>
      </trkpt>
      <trkpt lat="47.49437" lon="6.75677">
        <ele>323.3</ele>
        <time>2014-10-12T07:30:23.000Z</time>
      </trkpt>
      <trkpt lat="47.49437" lon="6.75671">
        <ele>318.3</ele>
        <time>2014-10-12T07:30:25.000Z</time>
      </trkpt>
      <trkpt lat="47.49434" lon="6.75668">
        <ele>318.2</ele>
        <time>2014-10-12T07:30:26.000Z</time>
      </trkpt>
      <trkpt lat="47.49429" lon="6.75672">
        <ele>316.5</ele>
        <time>2014-10-12T07:30:27.000Z</time>
      </trkpt>
      <trkpt lat="47.49425" lon="6.75674">
        <ele>319.1</ele>
        <time>2014-10-12T07:30:28.000Z</time>
      </trkpt>
      <trkpt lat="47.49421" lon="6.75676">
        <ele>319.5</ele>
        <time>2014-10-12T07:30:29.000Z</time>
      </trkpt>
      <trkpt lat="47.49417" lon="6.75678">
        <ele>316.4</ele>
        <time>2014-10-12T07:30:30.000Z</time>
      </trkpt>
      <trkpt lat="47.49414" lon="6.75682">
        <ele>316.2</ele>
        <time>2014-10-12T07:30:31.000Z</time>
      </trkpt>
      <trkpt lat="47.49408" lon="6.75685">
        <ele>316.6</ele>
        <time>2014-10-12T07:30:32.000Z</time>
      </trkpt>
      <trkpt lat="47.49403" lon="6.75688">
        <ele>317.6</ele>
        <time>2014-10-12T07:30:33.000Z</time>
      </trkpt>
      <trkpt lat="47.49398" lon="6.75691">
        <ele>318.4</ele>
        <time>2014-10-12T07:30:34.000Z</time>
      </trkpt>
      <trkpt lat="47.49393" lon="6.75694">
        <ele>318.9</ele>
        <time>2014-10-12T07:30:35.000Z</time>
      </trkpt>
      <trkpt lat="47.49389" lon="6.75697">
        <ele>319.2</ele>
        <time>2014-10-12T07:30:36.000Z</time>
      </trkpt>
      <trkpt lat="47.49385" lon="6.75699">
        <ele>319.5</ele>
        <time>2014-10-12T07:30:37.000Z</time>
      </trkpt>
      <trkpt lat="47.49383" lon="6.75702">
        <ele>319.8</ele>
        <time>2014-10-12T07:30:38.000Z</time>
      </trkpt>
      <trkpt lat="47.49379" lon="6.75704">
        <ele>320.1</ele>
        <time>2014-10-12T07:30:39.000Z</time>
      </trkpt>
      <trkpt lat="47.49374" lon="6.75706">
        <ele>320.3</ele>
        <time>2014-10-12T07:30:40.000Z</time>
      </trkpt>
      <trkpt lat="47.4937" lon="6.75709">
        <ele>319.9</ele>
        <time>2014-10-12T07:30:41.000Z</time>
      </trkpt>
      <trkpt lat="47.49366" lon="6.75711">
        <ele>321.8</ele>
        <time>2014-10-12T07:30:42.000Z</time>
      </trkpt>
      <trkpt lat="47.49363" lon="6.75712">
        <ele>323.2</ele>
        <time>2014-10-12T07:30:43.000Z</time>
      </trkpt>
      <trkpt lat="47.49361" lon="6.75714">
        <ele>323.6</ele>
        <time>2014-10-12T07:30:44.000Z</time>
      </trkpt>
      <trkpt lat="47.49359" lon="6.75716">
        <ele>324.1</ele>
        <time>2014-10-12T07:30:45.000Z</time>
      </trkpt>
      <trkpt lat="47.49357" lon="6.75718">
        <ele>324.6</ele>
        <time>2014-10-12T07:30:46.000Z</time>
      </trkpt>
      <trkpt lat="47.49354" lon="6.75719">
        <ele>326</ele>
        <time>2014-10-12T07:30:47.000Z</time>
      </trkpt>
      <trkpt lat="47.49332" lon="6.75733">
        <ele>320.4</ele>
        <time>2014-10-12T07:30:55.000Z</time>
      </trkpt>
      <trkpt lat="47.49324" lon="6.75741">
        <ele>313.8</ele>
        <time>2014-10-12T07:30:56.000Z</time>
      </trkpt>
      <trkpt lat="47.49318" lon="6.75749">
        <ele>312.6</ele>
        <time>2014-10-12T07:30:57.000Z</time>
      </trkpt>
      <trkpt lat="47.49313" lon="6.75753">
        <ele>312.6</ele>
        <time>2014-10-12T07:30:58.000Z</time>
      </trkpt>
      <trkpt lat="47.49309" lon="6.75756">
        <ele>309.4</ele>
        <time>2014-10-12T07:30:59.000Z</time>
      </trkpt>
      <trkpt lat="47.49304" lon="6.75763">
        <ele>309.6</ele>
        <time>2014-10-12T07:31:00.000Z</time>
      </trkpt>
      <trkpt lat="47.49302" lon="6.75768">
        <ele>306.1</ele>
        <time>2014-10-12T07:31:01.000Z</time>
      </trkpt>
      <trkpt lat="47.49299" lon="6.75772">
        <ele>305.4</ele>
        <time>2014-10-12T07:31:02.000Z</time>
      </trkpt>
      <trkpt lat="47.49293" lon="6.7578">
        <ele>304.8</ele>
        <time>2014-10-12T07:31:03.000Z</time>
      </trkpt>
      <trkpt lat="47.49287" lon="6.75788">
        <ele>305.3</ele>
        <time>2014-10-12T07:31:04.000Z</time>
      </trkpt>
      <trkpt lat="47.49282" lon="6.75794">
        <ele>305.4</ele>
        <time>2014-10-12T07:31:05.000Z</time>
      </trkpt>
      <trkpt lat="47.49277" lon="6.75803">
        <ele>304.9</ele>
        <time>2014-10-12T07:31:06.000Z</time>
      </trkpt>
      <trkpt lat="47.49271" lon="6.75808">
        <ele>304.4</ele>
        <time>2014-10-12T07:31:07.000Z</time>
      </trkpt>
      <trkpt lat="47.49268" lon="6.75818">
        <ele>305.5</ele>
        <time>2014-10-12T07:31:08.000Z</time>
      </trkpt>
      <trkpt lat="47.49263" lon="6.75828">
        <ele>306.1</ele>
        <time>2014-10-12T07:31:09.000Z</time>
      </trkpt>
      <trkpt lat="47.49258" lon="6.75834">
        <ele>307.7</ele>
        <time>2014-10-12T07:31:10.000Z</time>
      </trkpt>
      <trkpt lat="47.49253" lon="6.75841">
        <ele>307.4</ele>
        <time>2014-10-12T07:31:11.000Z</time>
      </trkpt>
      <trkpt lat="47.49252" lon="6.75846">
        <ele>307.2</ele>
        <time>2014-10-12T07:31:12.000Z</time>
      </trkpt>
      <trkpt lat="47.49248" lon="6.75853">
        <ele>308.2</ele>
        <time>2014-10-12T07:31:13.000Z</time>
      </trkpt>
      <trkpt lat="47.49245" lon="6.75861">
        <ele>309.2</ele>
        <time>2014-10-12T07:31:14.000Z</time>
      </trkpt>
      <trkpt lat="47.49241" lon="6.75868">
        <ele>310.2</ele>
        <time>2014-10-12T07:31:15.000Z</time>
      </trkpt>
      <trkpt lat="47.49237" lon="6.75875">
        <ele>310.6</ele>
        <time>2014-10-12T07:31:16.000Z</time>
      </trkpt>
      <trkpt lat="47.49234" lon="6.75882">
        <ele>311.7</ele>
        <time>2014-10-12T07:31:17.000Z</time>
      </trkpt>
      <trkpt lat="47.4923" lon="6.75888">
        <ele>312.9</ele>
        <time>2014-10-12T07:31:18.000Z</time>
      </trkpt>
      <trkpt lat="47.49227" lon="6.75894">
        <ele>312.2</ele>
        <time>2014-10-12T07:31:19.000Z</time>
      </trkpt>
      <trkpt lat="47.49223" lon="6.75902">
        <ele>310.2</ele>
        <time>2014-10-12T07:31:20.000Z</time>
      </trkpt>
      <trkpt lat="47.49219" lon="6.75909">
        <ele>309.6</ele>
        <time>2014-10-12T07:31:21.000Z</time>
      </trkpt>
      <trkpt lat="47.49216" lon="6.75913">
        <ele>309.4</ele>
        <time>2014-10-12T07:31:22.000Z</time>
      </trkpt>
      <trkpt lat="47.49213" lon="6.75919">
        <ele>309.4</ele>
        <time>2014-10-12T07:31:23.000Z</time>
      </trkpt>
      <trkpt lat="47.49211" lon="6.75926">
        <ele>308.6</ele>
        <time>2014-10-12T07:31:24.000Z</time>
      </trkpt>
      <trkpt lat="47.49208" lon="6.75933">
        <ele>309</ele>
        <time>2014-10-12T07:31:25.000Z</time>
      </trkpt>
      <trkpt lat="47.49206" lon="6.75938">
        <ele>309.5</ele>
        <time>2014-10-12T07:31:26.000Z</time>
      </trkpt>
      <trkpt lat="47.49204" lon="6.75942">
        <ele>309.5</ele>
        <time>2014-10-12T07:31:27.000Z</time>
      </trkpt>
      <trkpt lat="47.49203" lon="6.75951">
        <ele>307.8</ele>
        <time>2014-10-12T07:31:28.000Z</time>
      </trkpt>
      <trkpt lat="47.49201" lon="6.75955">
        <ele>306.5</ele>
        <time>2014-10-12T07:31:29.000Z</time>
      </trkpt>
      <trkpt lat="47.49196" lon="6.75964">
        <ele>306.7</ele>
        <time>2014-10-12T07:31:30.000Z</time>
      </trkpt>
      <trkpt lat="47.49192" lon="6.75971">
        <ele>306.9</ele>
        <time>2014-10-12T07:31:31.000Z</time>
      </trkpt>
      <trkpt lat="47.4919" lon="6.75976">
        <ele>307.6</ele>
        <time>2014-10-12T07:31:32.000Z</time>
      </trkpt>
      <trkpt lat="47.49187" lon="6.75983">
        <ele>308.5</ele>
        <time>2014-10-12T07:31:33.000Z</time>
      </trkpt>
      <trkpt lat="47.49185" lon="6.75989">
        <ele>308.7</ele>
        <time>2014-10-12T07:31:34.000Z</time>
      </trkpt>
      <trkpt lat="47.49182" lon="6.75995">
        <ele>307.5</ele>
        <time>2014-10-12T07:31:35.000Z</time>
      </trkpt>
      <trkpt lat="47.49178" lon="6.76002">
        <ele>307.8</ele>
        <time>2014-10-12T07:31:36.000Z</time>
      </trkpt>
      <trkpt lat="47.49174" lon="6.76009">
        <ele>307.3</ele>
        <time>2014-10-12T07:31:37.000Z</time>
      </trkpt>
      <trkpt lat="47.49172" lon="6.76016">
        <ele>307.3</ele>
        <time>2014-10-12T07:31:38.000Z</time>
      </trkpt>
      <trkpt lat="47.49169" lon="6.76022">
        <ele>308.3</ele>
        <time>2014-10-12T07:31:39.000Z</time>
      </trkpt>
      <trkpt lat="47.49167" lon="6.7603">
        <ele>309.8</ele>
        <time>2014-10-12T07:31:40.000Z</time>
      </trkpt>
      <trkpt lat="47.49165" lon="6.76036">
        <ele>309.1</ele>
        <time>2014-10-12T07:31:41.000Z</time>
      </trkpt>
      <trkpt lat="47.49161" lon="6.76043">
        <ele>308.5</ele>
        <time>2014-10-12T07:31:42.000Z</time>
      </trkpt>
      <trkpt lat="47.49158" lon="6.76052">
        <ele>308.5</ele>
        <time>2014-10-12T07:31:43.000Z</time>
      </trkpt>
      <trkpt lat="47.49155" lon="6.7606">
        <ele>309.4</ele>
        <time>2014-10-12T07:31:44.000Z</time>
      </trkpt>
      <trkpt lat="47.49153" lon="6.76069">
        <ele>309.5</ele>
        <time>2014-10-12T07:31:45.000Z</time>
      </trkpt>
      <trkpt lat="47.4915" lon="6.76076">
        <ele>309.3</ele>
        <time>2014-10-12T07:31:46.000Z</time>
      </trkpt>
      <trkpt lat="47.49148" lon="6.76085">
        <ele>308.7</ele>
        <time>2014-10-12T07:31:47.000Z</time>
      </trkpt>
      <trkpt lat="47.49144" lon="6.76102">
        <ele>307.1</ele>
        <time>2014-10-12T07:31:50.000Z</time>
      </trkpt>
      <trkpt lat="47.49143" lon="6.7611">
        <ele>307.5</ele>
        <time>2014-10-12T07:31:51.000Z</time>
      </trkpt>
      <trkpt lat="47.49142" lon="6.76117">
        <ele>307.7</ele>
        <time>2014-10-12T07:31:52.000Z</time>
      </trkpt>
      <trkpt lat="47.49142" lon="6.76125">
        <ele>307.3</ele>
        <time>2014-10-12T07:31:53.000Z</time>
      </trkpt>
      <trkpt lat="47.4914" lon="6.76133">
        <ele>307.6</ele>
        <time>2014-10-12T07:31:54.000Z</time>
      </trkpt>
      <trkpt lat="47.49139" lon="6.76141">
        <ele>307.1</ele>
        <time>2014-10-12T07:31:55.000Z</time>
      </trkpt>
      <trkpt lat="47.49139" lon="6.7615">
        <ele>307.7</ele>
        <time>2014-10-12T07:31:56.000Z</time>
      </trkpt>
      <trkpt lat="47.49137" lon="6.76158">
        <ele>307.7</ele>
        <time>2014-10-12T07:31:57.000Z</time>
      </trkpt>
      <trkpt lat="47.49136" lon="6.76167">
        <ele>307.2</ele>
        <time>2014-10-12T07:31:58.000Z</time>
      </trkpt>
      <trkpt lat="47.49135" lon="6.76178">
        <ele>308.6</ele>
        <time>2014-10-12T07:31:59.000Z</time>
      </trkpt>
      <trkpt lat="47.49133" lon="6.76186">
        <ele>308.3</ele>
        <time>2014-10-12T07:32:00.000Z</time>
      </trkpt>
      <trkpt lat="47.49133" lon="6.76196">
        <ele>308.9</ele>
        <time>2014-10-12T07:32:01.000Z</time>
      </trkpt>
      <trkpt lat="47.49132" lon="6.76206">
        <ele>310.5</ele>
        <time>2014-10-12T07:32:02.000Z</time>
      </trkpt>
      <trkpt lat="47.49131" lon="6.76215">
        <ele>311.7</ele>
        <time>2014-10-12T07:32:03.000Z</time>
      </trkpt>
      <trkpt lat="47.4913" lon="6.76225">
        <ele>312.1</ele>
        <time>2014-10-12T07:32:04.000Z</time>
      </trkpt>
      <trkpt lat="47.49131" lon="6.76235">
        <ele>312.1</ele>
        <time>2014-10-12T07:32:05.000Z</time>
      </trkpt>
      <trkpt lat="47.4913" lon="6.76243">
        <ele>311.9</ele>
        <time>2014-10-12T07:32:06.000Z</time>
      </trkpt>
      <trkpt lat="47.4913" lon="6.76252">
        <ele>311.8</ele>
        <time>2014-10-12T07:32:07.000Z</time>
      </trkpt>
      <trkpt lat="47.49129" lon="6.76259">
        <ele>311.3</ele>
        <time>2014-10-12T07:32:08.000Z</time>
      </trkpt>
      <trkpt lat="47.49129" lon="6.76266">
        <ele>311.1</ele>
        <time>2014-10-12T07:32:09.000Z</time>
      </trkpt>
      <trkpt lat="47.49128" lon="6.76273">
        <ele>310.2</ele>
        <time>2014-10-12T07:32:10.000Z</time>
      </trkpt>
      <trkpt lat="47.49129" lon="6.76282">
        <ele>309.5</ele>
        <time>2014-10-12T07:32:11.000Z</time>
      </trkpt>
      <trkpt lat="47.49129" lon="6.76293">
        <ele>310.1</ele>
        <time>2014-10-12T07:32:12.000Z</time>
      </trkpt>
      <trkpt lat="47.49128" lon="6.76302">
        <ele>311.3</ele>
        <time>2014-10-12T07:32:13.000Z</time>
      </trkpt>
      <trkpt lat="47.49128" lon="6.76311">
        <ele>311.5</ele>
        <time>2014-10-12T07:32:14.000Z</time>
      </trkpt>
      <trkpt lat="47.49128" lon="6.76321">
        <ele>311.8</ele>
        <time>2014-10-12T07:32:15.000Z</time>
      </trkpt>
      <trkpt lat="47.49127" lon="6.76329">
        <ele>311.4</ele>
        <time>2014-10-12T07:32:16.000Z</time>
      </trkpt>
      <trkpt lat="47.49127" lon="6.76338">
        <ele>311.6</ele>
        <time>2014-10-12T07:32:17.000Z</time>
      </trkpt>
      <trkpt lat="47.49125" lon="6.76342">
        <ele>310.7</ele>
        <time>2014-10-12T07:32:18.000Z</time>
      </trkpt>
      <trkpt lat="47.49125" lon="6.76348">
        <ele>310.4</ele>
        <time>2014-10-12T07:32:19.000Z</time>
      </trkpt>
      <trkpt lat="47.49125" lon="6.76357">
        <ele>311.2</ele>
        <time>2014-10-12T07:32:20.000Z</time>
      </trkpt>
      <trkpt lat="47.49125" lon="6.76364">
        <ele>311</ele>
        <time>2014-10-12T07:32:21.000Z</time>
      </trkpt>
      <trkpt lat="47.49125" lon="6.76373">
        <ele>311.2</ele>
        <time>2014-10-12T07:32:22.000Z</time>
      </trkpt>
      <trkpt lat="47.49124" lon="6.76382">
        <ele>310.7</ele>
        <time>2014-10-12T07:32:23.000Z</time>
      </trkpt>
      <trkpt lat="47.49123" lon="6.76392">
        <ele>311</ele>
        <time>2014-10-12T07:32:24.000Z</time>
      </trkpt>
      <trkpt lat="47.49122" lon="6.764">
        <ele>311</ele>
        <time>2014-10-12T07:32:25.000Z</time>
      </trkpt>
      <trkpt lat="47.49122" lon="6.76409">
        <ele>311.1</ele>
        <time>2014-10-12T07:32:26.000Z</time>
      </trkpt>
      <trkpt lat="47.49121" lon="6.76415">
        <ele>309.3</ele>
        <time>2014-10-12T07:32:27.000Z</time>
      </trkpt>
      <trkpt lat="47.4912" lon="6.76424">
        <ele>309.1</ele>
        <time>2014-10-12T07:32:28.000Z</time>
      </trkpt>
      <trkpt lat="47.49119" lon="6.76431">
        <ele>308.8</ele>
        <time>2014-10-12T07:32:29.000Z</time>
      </trkpt>
      <trkpt lat="47.49118" lon="6.76439">
        <ele>308.9</ele>
        <time>2014-10-12T07:32:30.000Z</time>
      </trkpt>
      <trkpt lat="47.49118" lon="6.76449">
        <ele>310.7</ele>
        <time>2014-10-12T07:32:31.000Z</time>
      </trkpt>
      <trkpt lat="47.49119" lon="6.76459">
        <ele>312.1</ele>
        <time>2014-10-12T07:32:32.000Z</time>
      </trkpt>
      <trkpt lat="47.49121" lon="6.76473">
        <ele>314.5</ele>
        <time>2014-10-12T07:32:33.000Z</time>
      </trkpt>
      <trkpt lat="47.49121" lon="6.76482">
        <ele>316.1</ele>
        <time>2014-10-12T07:32:34.000Z</time>
      </trkpt>
      <trkpt lat="47.49121" lon="6.76491">
        <ele>316.4</ele>
        <time>2014-10-12T07:32:35.000Z</time>
      </trkpt>
      <trkpt lat="47.49121" lon="6.76498">
        <ele>315.6</ele>
        <time>2014-10-12T07:32:36.000Z</time>
      </trkpt>
      <trkpt lat="47.49122" lon="6.76505">
        <ele>313.4</ele>
        <time>2014-10-12T07:32:37.000Z</time>
      </trkpt>
      <trkpt lat="47.49127" lon="6.7651">
        <ele>312.4</ele>
        <time>2014-10-12T07:32:38.000Z</time>
      </trkpt>
      <trkpt lat="47.49133" lon="6.76512">
        <ele>312</ele>
        <time>2014-10-12T07:32:39.000Z</time>
      </trkpt>
      <trkpt lat="47.49139" lon="6.76515">
        <ele>312.5</ele>
        <time>2014-10-12T07:32:40.000Z</time>
      </trkpt>
      <trkpt lat="47.49145" lon="6.76514">
        <ele>313</ele>
        <time>2014-10-12T07:32:41.000Z</time>
      </trkpt>
      <trkpt lat="47.4915" lon="6.76513">
        <ele>313.9</ele>
        <time>2014-10-12T07:32:42.000Z</time>
      </trkpt>
      <trkpt lat="47.49156" lon="6.76511">
        <ele>315</ele>
        <time>2014-10-12T07:32:43.000Z</time>
      </trkpt>
      <trkpt lat="47.49161" lon="6.76507">
        <ele>315.1</ele>
        <time>2014-10-12T07:32:44.000Z</time>
      </trkpt>
      <trkpt lat="47.49165" lon="6.76505">
        <ele>316.6</ele>
        <time>2014-10-12T07:32:45.000Z</time>
      </trkpt>
      <trkpt lat="47.49168" lon="6.76503">
        <ele>317</ele>
        <time>2014-10-12T07:32:46.000Z</time>
      </trkpt>
      <trkpt lat="47.49171" lon="6.765">
        <ele>316.8</ele>
        <time>2014-10-12T07:32:47.000Z</time>
      </trkpt>
      <trkpt lat="47.49175" lon="6.76489">
        <ele>319.8</ele>
        <time>2014-10-12T07:32:55.000Z</time>
      </trkpt>
      <trkpt lat="47.49173" lon="6.76483">
        <ele>321.3</ele>
        <time>2014-10-12T07:33:12.000Z</time>
      </trkpt>
      <trkpt lat="47.49173" lon="6.76482">
        <ele>321.1</ele>
        <time>2014-10-12T07:33:13.000Z</time>
      </trkpt>
      <trkpt lat="47.49177" lon="6.76486">
        <ele>316.3</ele>
        <time>2014-10-12T07:33:51.000Z</time>
      </trkpt>
      <trkpt lat="47.49177" lon="6.76488">
        <ele>315.7</ele>
        <time>2014-10-12T07:33:52.000Z</time>
      </trkpt>
      <trkpt lat="47.49177" lon="6.76494">
        <ele>315.7</ele>
        <time>2014-10-12T07:33:54.000Z</time>
      </trkpt>
      <trkpt lat="47.49176" lon="6.76496">
        <ele>316</ele>
        <time>2014-10-12T07:33:55.000Z</time>
      </trkpt>
      <trkpt lat="47.49174" lon="6.76499">
        <ele>315.3</ele>
        <time>2014-10-12T07:33:56.000Z</time>
      </trkpt>
      <trkpt lat="47.49172" lon="6.76501">
        <ele>315.4</ele>
        <time>2014-10-12T07:33:57.000Z</time>
      </trkpt>
      <trkpt lat="47.49169" lon="6.76503">
        <ele>315.4</ele>
        <time>2014-10-12T07:33:58.000Z</time>
      </trkpt>
      <trkpt lat="47.49165" lon="6.76505">
        <ele>315.5</ele>
        <time>2014-10-12T07:33:59.000Z</time>
      </trkpt>
      <trkpt lat="47.49155" lon="6.76511">
        <ele>314.1</ele>
        <time>2014-10-12T07:34:00.000Z</time>
      </trkpt>
      <trkpt lat="47.4915" lon="6.76515">
        <ele>314</ele>
        <time>2014-10-12T07:34:01.000Z</time>
      </trkpt>
      <trkpt lat="47.49144" lon="6.76518">
        <ele>315.1</ele>
        <time>2014-10-12T07:34:02.000Z</time>
      </trkpt>
      <trkpt lat="47.49138" lon="6.76519">
        <ele>315.5</ele>
        <time>2014-10-12T07:34:03.000Z</time>
      </trkpt>
      <trkpt lat="47.49133" lon="6.76518">
        <ele>315.1</ele>
        <time>2014-10-12T07:34:04.000Z</time>
      </trkpt>
      <trkpt lat="47.49128" lon="6.76519">
        <ele>315.3</ele>
        <time>2014-10-12T07:34:05.000Z</time>
      </trkpt>
      <trkpt lat="47.49125" lon="6.76524">
        <ele>316.5</ele>
        <time>2014-10-12T07:34:06.000Z</time>
      </trkpt>
      <trkpt lat="47.49122" lon="6.7653">
        <ele>316.4</ele>
        <time>2014-10-12T07:34:07.000Z</time>
      </trkpt>
      <trkpt lat="47.49122" lon="6.76537">
        <ele>313.8</ele>
        <time>2014-10-12T07:34:08.000Z</time>
      </trkpt>
      <trkpt lat="47.49123" lon="6.76544">
        <ele>313.3</ele>
        <time>2014-10-12T07:34:09.000Z</time>
      </trkpt>
      <trkpt lat="47.49123" lon="6.76552">
        <ele>313.3</ele>
        <time>2014-10-12T07:34:10.000Z</time>
      </trkpt>
      <trkpt lat="47.49124" lon="6.76559">
        <ele>313.3</ele>
        <time>2014-10-12T07:34:11.000Z</time>
      </trkpt>
      <trkpt lat="47.49125" lon="6.76566">
        <ele>313.3</ele>
        <time>2014-10-12T07:34:12.000Z</time>
      </trkpt>
      <trkpt lat="47.49126" lon="6.76574">
        <ele>313.3</ele>
        <time>2014-10-12T07:34:13.000Z</time>
      </trkpt>
      <trkpt lat="47.49127" lon="6.76581">
        <ele>313.2</ele>
        <time>2014-10-12T07:34:14.000Z</time>
      </trkpt>
      <trkpt lat="47.49128" lon="6.76589">
        <ele>313</ele>
        <time>2014-10-12T07:34:15.000Z</time>
      </trkpt>
      <trkpt lat="47.49129" lon="6.76597">
        <ele>313.1</ele>
        <time>2014-10-12T07:34:16.000Z</time>
      </trkpt>
      <trkpt lat="47.49131" lon="6.76605">
        <ele>313.3</ele>
        <time>2014-10-12T07:34:17.000Z</time>
      </trkpt>
      <trkpt lat="47.49132" lon="6.76614">
        <ele>313.2</ele>
        <time>2014-10-12T07:34:18.000Z</time>
      </trkpt>
      <trkpt lat="47.49133" lon="6.76622">
        <ele>312.9</ele>
        <time>2014-10-12T07:34:19.000Z</time>
      </trkpt>
      <trkpt lat="47.49134" lon="6.76631">
        <ele>312.9</ele>
        <time>2014-10-12T07:34:20.000Z</time>
      </trkpt>
      <trkpt lat="47.49135" lon="6.7664">
        <ele>313.3</ele>
        <time>2014-10-12T07:34:21.000Z</time>
      </trkpt>
      <trkpt lat="47.49136" lon="6.76649">
        <ele>315.4</ele>
        <time>2014-10-12T07:34:22.000Z</time>
      </trkpt>
      <trkpt lat="47.49138" lon="6.76657">
        <ele>315.5</ele>
        <time>2014-10-12T07:34:23.000Z</time>
      </trkpt>
      <trkpt lat="47.49139" lon="6.76663">
        <ele>314.9</ele>
        <time>2014-10-12T07:34:24.000Z</time>
      </trkpt>
      <trkpt lat="47.4914" lon="6.76672">
        <ele>315</ele>
        <time>2014-10-12T07:34:25.000Z</time>
      </trkpt>
      <trkpt lat="47.4914" lon="6.76679">
        <ele>314.5</ele>
        <time>2014-10-12T07:34:26.000Z</time>
      </trkpt>
      <trkpt lat="47.49142" lon="6.76687">
        <ele>314.3</ele>
        <time>2014-10-12T07:34:27.000Z</time>
      </trkpt>
      <trkpt lat="47.49144" lon="6.76695">
        <ele>314.9</ele>
        <time>2014-10-12T07:34:28.000Z</time>
      </trkpt>
      <trkpt lat="47.49145" lon="6.76703">
        <ele>315</ele>
        <time>2014-10-12T07:34:29.000Z</time>
      </trkpt>
      <trkpt lat="47.49146" lon="6.76711">
        <ele>315.2</ele>
        <time>2014-10-12T07:34:30.000Z</time>
      </trkpt>
      <trkpt lat="47.49147" lon="6.76719">
        <ele>315</ele>
        <time>2014-10-12T07:34:31.000Z</time>
      </trkpt>
      <trkpt lat="47.49147" lon="6.76726">
        <ele>314.2</ele>
        <time>2014-10-12T07:34:32.000Z</time>
      </trkpt>
      <trkpt lat="47.49148" lon="6.76735">
        <ele>315.1</ele>
        <time>2014-10-12T07:34:33.000Z</time>
      </trkpt>
      <trkpt lat="47.49149" lon="6.76742">
        <ele>315.2</ele>
        <time>2014-10-12T07:34:34.000Z</time>
      </trkpt>
      <trkpt lat="47.4915" lon="6.7675">
        <ele>314.9</ele>
        <time>2014-10-12T07:34:35.000Z</time>
      </trkpt>
      <trkpt lat="47.49148" lon="6.76757">
        <ele>312.8</ele>
        <time>2014-10-12T07:34:36.000Z</time>
      </trkpt>
      <trkpt lat="47.49149" lon="6.76765">
        <ele>313.1</ele>
        <time>2014-10-12T07:34:37.000Z</time>
      </trkpt>
      <trkpt lat="47.4915" lon="6.76771">
        <ele>313.2</ele>
        <time>2014-10-12T07:34:38.000Z</time>
      </trkpt>
      <trkpt lat="47.49151" lon="6.76779">
        <ele>313.9</ele>
        <time>2014-10-12T07:34:39.000Z</time>
      </trkpt>
      <trkpt lat="47.49151" lon="6.76787">
        <ele>313.9</ele>
        <time>2014-10-12T07:34:40.000Z</time>
      </trkpt>
      <trkpt lat="47.49151" lon="6.76794">
        <ele>314.3</ele>
        <time>2014-10-12T07:34:41.000Z</time>
      </trkpt>
      <trkpt lat="47.49151" lon="6.76801">
        <ele>314.4</ele>
        <time>2014-10-12T07:34:42.000Z</time>
      </trkpt>
      <trkpt lat="47.49151" lon="6.76808">
        <ele>315.1</ele>
        <time>2014-10-12T07:34:43.000Z</time>
      </trkpt>
      <trkpt lat="47.49153" lon="6.76817">
        <ele>316.7</ele>
        <time>2014-10-12T07:34:44.000Z</time>
      </trkpt>
      <trkpt lat="47.49152" lon="6.76823">
        <ele>316.1</ele>
        <time>2014-10-12T07:34:45.000Z</time>
      </trkpt>
      <trkpt lat="47.49153" lon="6.7683">
        <ele>318.6</ele>
        <time>2014-10-12T07:34:46.000Z</time>
      </trkpt>
      <trkpt lat="47.49154" lon="6.76838">
        <ele>318.1</ele>
        <time>2014-10-12T07:34:47.000Z</time>
      </trkpt>
      <trkpt lat="47.49154" lon="6.76889">
        <ele>315</ele>
        <time>2014-10-12T07:34:54.395Z</time>
      </trkpt>
      <trkpt lat="47.49154" lon="6.76897">
        <ele>315</ele>
        <time>2014-10-12T07:34:56.000Z</time>
      </trkpt>
      <trkpt lat="47.49155" lon="6.7691">
        <ele>314.5</ele>
        <time>2014-10-12T07:34:58.000Z</time>
      </trkpt>
      <trkpt lat="47.49155" lon="6.76916">
        <ele>314.5</ele>
        <time>2014-10-12T07:34:59.000Z</time>
      </trkpt>
      <trkpt lat="47.49155" lon="6.76926">
        <ele>314.5</ele>
        <time>2014-10-12T07:35:00.000Z</time>
      </trkpt>
      <trkpt lat="47.49153" lon="6.76941">
        <ele>316</ele>
        <time>2014-10-12T07:35:01.000Z</time>
      </trkpt>
      <trkpt lat="47.49152" lon="6.76949">
        <ele>317</ele>
        <time>2014-10-12T07:35:02.000Z</time>
      </trkpt>
      <trkpt lat="47.4915" lon="6.76955">
        <ele>317.2</ele>
        <time>2014-10-12T07:35:03.000Z</time>
      </trkpt>
      <trkpt lat="47.49149" lon="6.7696">
        <ele>317.3</ele>
        <time>2014-10-12T07:35:04.000Z</time>
      </trkpt>
      <trkpt lat="47.49149" lon="6.76969">
        <ele>316.4</ele>
        <time>2014-10-12T07:35:05.000Z</time>
      </trkpt>
      <trkpt lat="47.4915" lon="6.7698">
        <ele>316</ele>
        <time>2014-10-12T07:35:06.000Z</time>
      </trkpt>
      <trkpt lat="47.49151" lon="6.76986">
        <ele>315.2</ele>
        <time>2014-10-12T07:35:07.000Z</time>
      </trkpt>
      <trkpt lat="47.49156" lon="6.76992">
        <ele>314.8</ele>
        <time>2014-10-12T07:35:08.000Z</time>
      </trkpt>
      <trkpt lat="47.49159" lon="6.76998">
        <ele>314.4</ele>
        <time>2014-10-12T07:35:09.000Z</time>
      </trkpt>
      <trkpt lat="47.49162" lon="6.77006">
        <ele>314.2</ele>
        <time>2014-10-12T07:35:10.000Z</time>
      </trkpt>
      <trkpt lat="47.49164" lon="6.77014">
        <ele>314.1</ele>
        <time>2014-10-12T07:35:11.000Z</time>
      </trkpt>
      <trkpt lat="47.49167" lon="6.77021">
        <ele>313.7</ele>
        <time>2014-10-12T07:35:12.000Z</time>
      </trkpt>
      <trkpt lat="47.49167" lon="6.77028">
        <ele>314.9</ele>
        <time>2014-10-12T07:35:13.000Z</time>
      </trkpt>
      <trkpt lat="47.49168" lon="6.77037">
        <ele>315.1</ele>
        <time>2014-10-12T07:35:14.000Z</time>
      </trkpt>
      <trkpt lat="47.49169" lon="6.77047">
        <ele>315.6</ele>
        <time>2014-10-12T07:35:15.000Z</time>
      </trkpt>
      <trkpt lat="47.4917" lon="6.77055">
        <ele>315.4</ele>
        <time>2014-10-12T07:35:16.000Z</time>
      </trkpt>
      <trkpt lat="47.49171" lon="6.77063">
        <ele>315.1</ele>
        <time>2014-10-12T07:35:17.000Z</time>
      </trkpt>
      <trkpt lat="47.49172" lon="6.7707">
        <ele>315.1</ele>
        <time>2014-10-12T07:35:18.000Z</time>
      </trkpt>
      <trkpt lat="47.49173" lon="6.77079">
        <ele>316.4</ele>
        <time>2014-10-12T07:35:19.000Z</time>
      </trkpt>
      <trkpt lat="47.49174" lon="6.77086">
        <ele>317.1</ele>
        <time>2014-10-12T07:35:20.000Z</time>
      </trkpt>
      <trkpt lat="47.49175" lon="6.77093">
        <ele>317.1</ele>
        <time>2014-10-12T07:35:21.000Z</time>
      </trkpt>
      <trkpt lat="47.49176" lon="6.771">
        <ele>317.5</ele>
        <time>2014-10-12T07:35:22.000Z</time>
      </trkpt>
      <trkpt lat="47.49178" lon="6.77107">
        <ele>317.2</ele>
        <time>2014-10-12T07:35:23.000Z</time>
      </trkpt>
      <trkpt lat="47.49179" lon="6.77113">
        <ele>316.9</ele>
        <time>2014-10-12T07:35:24.000Z</time>
      </trkpt>
      <trkpt lat="47.49181" lon="6.77118">
        <ele>316</ele>
        <time>2014-10-12T07:35:25.000Z</time>
      </trkpt>
      <trkpt lat="47.49182" lon="6.77122">
        <ele>316.1</ele>
        <time>2014-10-12T07:35:26.000Z</time>
      </trkpt>
      <trkpt lat="47.49184" lon="6.77126">
        <ele>315.7</ele>
        <time>2014-10-12T07:35:27.000Z</time>
      </trkpt>
      <trkpt lat="47.49184" lon="6.7713">
        <ele>315.6</ele>
        <time>2014-10-12T07:35:28.000Z</time>
      </trkpt>
      <trkpt lat="47.49185" lon="6.77136">
        <ele>315.2</ele>
        <time>2014-10-12T07:35:29.000Z</time>
      </trkpt>
      <trkpt lat="47.49186" lon="6.77145">
        <ele>315</ele>
        <time>2014-10-12T07:35:30.000Z</time>
      </trkpt>
      <trkpt lat="47.49187" lon="6.77151">
        <ele>315.2</ele>
        <time>2014-10-12T07:35:31.000Z</time>
      </trkpt>
      <trkpt lat="47.49187" lon="6.77158">
        <ele>315.4</ele>
        <time>2014-10-12T07:35:32.000Z</time>
      </trkpt>
      <trkpt lat="47.49187" lon="6.77166">
        <ele>315.2</ele>
        <time>2014-10-12T07:35:33.000Z</time>
      </trkpt>
      <trkpt lat="47.49188" lon="6.77173">
        <ele>315.6</ele>
        <time>2014-10-12T07:35:34.000Z</time>
      </trkpt>
      <trkpt lat="47.49188" lon="6.7718">
        <ele>316.1</ele>
        <time>2014-10-12T07:35:35.000Z</time>
      </trkpt>
      <trkpt lat="47.49188" lon="6.77187">
        <ele>315.3</ele>
        <time>2014-10-12T07:35:36.000Z</time>
      </trkpt>
      <trkpt lat="47.49188" lon="6.77195">
        <ele>315.1</ele>
        <time>2014-10-12T07:35:37.000Z</time>
      </trkpt>
      <trkpt lat="47.49187" lon="6.77201">
        <ele>315.1</ele>
        <time>2014-10-12T07:35:38.000Z</time>
      </trkpt>
      <trkpt lat="47.49187" lon="6.77208">
        <ele>315.5</ele>
        <time>2014-10-12T07:35:39.000Z</time>
      </trkpt>
      <trkpt lat="47.49186" lon="6.77215">
        <ele>315.7</ele>
        <time>2014-10-12T07:35:40.000Z</time>
      </trkpt>
      <trkpt lat="47.49186" lon="6.77221">
        <ele>315.5</ele>
        <time>2014-10-12T07:35:41.000Z</time>
      </trkpt>
      <trkpt lat="47.49187" lon="6.7723">
        <ele>314.4</ele>
        <time>2014-10-12T07:35:42.000Z</time>
      </trkpt>
      <trkpt lat="47.49188" lon="6.77238">
        <ele>314.4</ele>
        <time>2014-10-12T07:35:43.000Z</time>
      </trkpt>
      <trkpt lat="47.49189" lon="6.77246">
        <ele>314.8</ele>
        <time>2014-10-12T07:35:44.000Z</time>
      </trkpt>
      <trkpt lat="47.4919" lon="6.77254">
        <ele>314.6</ele>
        <time>2014-10-12T07:35:45.000Z</time>
      </trkpt>
      <trkpt lat="47.49189" lon="6.77263">
        <ele>313.6</ele>
        <time>2014-10-12T07:35:46.000Z</time>
      </trkpt>
      <trkpt lat="47.49187" lon="6.77271">
        <ele>313.4</ele>
        <time>2014-10-12T07:35:47.000Z</time>
      </trkpt>
      <trkpt lat="47.49175" lon="6.77325">
        <ele>311.9</ele>
        <time>2014-10-12T07:35:55.000Z</time>
      </trkpt>
      <trkpt lat="47.4917" lon="6.77325">
        <ele>312.1</ele>
        <time>2014-10-12T07:35:56.000Z</time>
      </trkpt>
      <trkpt lat="47.49166" lon="6.77325">
        <ele>312.2</ele>
        <time>2014-10-12T07:35:57.000Z</time>
      </trkpt>
      <trkpt lat="47.4916" lon="6.77324">
        <ele>312.5</ele>
        <time>2014-10-12T07:35:58.000Z</time>
      </trkpt>
      <trkpt lat="47.49155" lon="6.77324">
        <ele>312.6</ele>
        <time>2014-10-12T07:35:59.000Z</time>
      </trkpt>
      <trkpt lat="47.4915" lon="6.77322">
        <ele>310.9</ele>
        <time>2014-10-12T07:36:00.000Z</time>
      </trkpt>
      <trkpt lat="47.49145" lon="6.77321">
        <ele>311</ele>
        <time>2014-10-12T07:36:01.000Z</time>
      </trkpt>
      <trkpt lat="47.4914" lon="6.77323">
        <ele>311</ele>
        <time>2014-10-12T07:36:02.000Z</time>
      </trkpt>
      <trkpt lat="47.49134" lon="6.77322">
        <ele>311.4</ele>
        <time>2014-10-12T07:36:03.000Z</time>
      </trkpt>
      <trkpt lat="47.49128" lon="6.77322">
        <ele>311.1</ele>
        <time>2014-10-12T07:36:04.000Z</time>
      </trkpt>
      <trkpt lat="47.49122" lon="6.77323">
        <ele>311.6</ele>
        <time>2014-10-12T07:36:05.000Z</time>
      </trkpt>
      <trkpt lat="47.49116" lon="6.77324">
        <ele>311.4</ele>
        <time>2014-10-12T07:36:06.000Z</time>
      </trkpt>
      <trkpt lat="47.4911" lon="6.77323">
        <ele>311.4</ele>
        <time>2014-10-12T07:36:07.000Z</time>
      </trkpt>
      <trkpt lat="47.49105" lon="6.77323">
        <ele>311.6</ele>
        <time>2014-10-12T07:36:08.000Z</time>
      </trkpt>
      <trkpt lat="47.49099" lon="6.77323">
        <ele>311.9</ele>
        <time>2014-10-12T07:36:09.000Z</time>
      </trkpt>
      <trkpt lat="47.49092" lon="6.77323">
        <ele>311.8</ele>
        <time>2014-10-12T07:36:10.000Z</time>
      </trkpt>
      <trkpt lat="47.49086" lon="6.77323">
        <ele>312.2</ele>
        <time>2014-10-12T07:36:11.000Z</time>
      </trkpt>
      <trkpt lat="47.4908" lon="6.77322">
        <ele>311.9</ele>
        <time>2014-10-12T07:36:12.000Z</time>
      </trkpt>
      <trkpt lat="47.49074" lon="6.77321">
        <ele>312.3</ele>
        <time>2014-10-12T07:36:13.000Z</time>
      </trkpt>
      <trkpt lat="47.49068" lon="6.77321">
        <ele>312.3</ele>
        <time>2014-10-12T07:36:14.000Z</time>
      </trkpt>
      <trkpt lat="47.49061" lon="6.77321">
        <ele>312</ele>
        <time>2014-10-12T07:36:15.000Z</time>
      </trkpt>
      <trkpt lat="47.49056" lon="6.77322">
        <ele>311.9</ele>
        <time>2014-10-12T07:36:16.000Z</time>
      </trkpt>
      <trkpt lat="47.4905" lon="6.77322">
        <ele>312.4</ele>
        <time>2014-10-12T07:36:17.000Z</time>
      </trkpt>
      <trkpt lat="47.49045" lon="6.77323">
        <ele>315.3</ele>
        <time>2014-10-12T07:36:18.000Z</time>
      </trkpt>
      <trkpt lat="47.49039" lon="6.77323">
        <ele>315.7</ele>
        <time>2014-10-12T07:36:19.000Z</time>
      </trkpt>
      <trkpt lat="47.49033" lon="6.7732">
        <ele>314.2</ele>
        <time>2014-10-12T07:36:20.000Z</time>
      </trkpt>
      <trkpt lat="47.49027" lon="6.7732">
        <ele>313.3</ele>
        <time>2014-10-12T07:36:21.000Z</time>
      </trkpt>
      <trkpt lat="47.49021" lon="6.77318">
        <ele>313</ele>
        <time>2014-10-12T07:36:22.000Z</time>
      </trkpt>
      <trkpt lat="47.49015" lon="6.77318">
        <ele>313.5</ele>
        <time>2014-10-12T07:36:23.000Z</time>
      </trkpt>
      <trkpt lat="47.4901" lon="6.77317">
        <ele>313.1</ele>
        <time>2014-10-12T07:36:24.000Z</time>
      </trkpt>
      <trkpt lat="47.49004" lon="6.77317">
        <ele>313.6</ele>
        <time>2014-10-12T07:36:25.000Z</time>
      </trkpt>
      <trkpt lat="47.48998" lon="6.77317">
        <ele>314.3</ele>
        <time>2014-10-12T07:36:26.000Z</time>
      </trkpt>
      <trkpt lat="47.48993" lon="6.77317">
        <ele>314.3</ele>
        <time>2014-10-12T07:36:27.000Z</time>
      </trkpt>
      <trkpt lat="47.48987" lon="6.77316">
        <ele>313.2</ele>
        <time>2014-10-12T07:36:28.000Z</time>
      </trkpt>
      <trkpt lat="47.48982" lon="6.77315">
        <ele>313.6</ele>
        <time>2014-10-12T07:36:29.000Z</time>
      </trkpt>
      <trkpt lat="47.48976" lon="6.77315">
        <ele>313.8</ele>
        <time>2014-10-12T07:36:30.000Z</time>
      </trkpt>
      <trkpt lat="47.48971" lon="6.77316">
        <ele>313.1</ele>
        <time>2014-10-12T07:36:31.000Z</time>
      </trkpt>
      <trkpt lat="47.48966" lon="6.77316">
        <ele>312.8</ele>
        <time>2014-10-12T07:36:32.000Z</time>
      </trkpt>
      <trkpt lat="47.4896" lon="6.77315">
        <ele>313.4</ele>
        <time>2014-10-12T07:36:33.000Z</time>
      </trkpt>
      <trkpt lat="47.48954" lon="6.77314">
        <ele>313.9</ele>
        <time>2014-10-12T07:36:34.000Z</time>
      </trkpt>
      <trkpt lat="47.48949" lon="6.77312">
        <ele>314.1</ele>
        <time>2014-10-12T07:36:35.000Z</time>
      </trkpt>
      <trkpt lat="47.48943" lon="6.7731">
        <ele>314.3</ele>
        <time>2014-10-12T07:36:36.000Z</time>
      </trkpt>
      <trkpt lat="47.48938" lon="6.77307">
        <ele>314.4</ele>
        <time>2014-10-12T07:36:37.000Z</time>
      </trkpt>
      <trkpt lat="47.48932" lon="6.77305">
        <ele>314.5</ele>
        <time>2014-10-12T07:36:38.000Z</time>
      </trkpt>
      <trkpt lat="47.48927" lon="6.77304">
        <ele>315</ele>
        <time>2014-10-12T07:36:39.000Z</time>
      </trkpt>
      <trkpt lat="47.48921" lon="6.77302">
        <ele>314.7</ele>
        <time>2014-10-12T07:36:40.000Z</time>
      </trkpt>
      <trkpt lat="47.48916" lon="6.773">
        <ele>315</ele>
        <time>2014-10-12T07:36:41.000Z</time>
      </trkpt>
      <trkpt lat="47.48911" lon="6.77299">
        <ele>314.6</ele>
        <time>2014-10-12T07:36:42.000Z</time>
      </trkpt>
      <trkpt lat="47.48905" lon="6.77297">
        <ele>314.7</ele>
        <time>2014-10-12T07:36:43.000Z</time>
      </trkpt>
      <trkpt lat="47.489" lon="6.77295">
        <ele>315.2</ele>
        <time>2014-10-12T07:36:44.000Z</time>
      </trkpt>
      <trkpt lat="47.48895" lon="6.77292">
        <ele>315.6</ele>
        <time>2014-10-12T07:36:45.000Z</time>
      </trkpt>
      <trkpt lat="47.48889" lon="6.7729">
        <ele>315.8</ele>
        <time>2014-10-12T07:36:46.000Z</time>
      </trkpt>
      <trkpt lat="47.48884" lon="6.77289">
        <ele>315.5</ele>
        <time>2014-10-12T07:36:47.000Z</time>
      </trkpt>
      <trkpt lat="47.4887" lon="6.77282">
        <ele>316.4</ele>
        <time>2014-10-12T07:36:50.000Z</time>
      </trkpt>
      <trkpt lat="47.48865" lon="6.77278">
        <ele>316.1</ele>
        <time>2014-10-12T07:36:51.000Z</time>
      </trkpt>
      <trkpt lat="47.48862" lon="6.77275">
        <ele>315.8</ele>
        <time>2014-10-12T07:36:52.000Z</time>
      </trkpt>
      <trkpt lat="47.48857" lon="6.77271">
        <ele>315.5</ele>
        <time>2014-10-12T07:36:53.000Z</time>
      </trkpt>
      <trkpt lat="47.48852" lon="6.77269">
        <ele>317.1</ele>
        <time>2014-10-12T07:36:54.000Z</time>
      </trkpt>
      <trkpt lat="47.48845" lon="6.77266">
        <ele>317.1</ele>
        <time>2014-10-12T07:36:55.000Z</time>
      </trkpt>
      <trkpt lat="47.4884" lon="6.77262">
        <ele>316.8</ele>
        <time>2014-10-12T07:36:56.000Z</time>
      </trkpt>
      <trkpt lat="47.48835" lon="6.77259">
        <ele>316.9</ele>
        <time>2014-10-12T07:36:57.000Z</time>
      </trkpt>
      <trkpt lat="47.4883" lon="6.77256">
        <ele>316.2</ele>
        <time>2014-10-12T07:36:58.000Z</time>
      </trkpt>
      <trkpt lat="47.48825" lon="6.77252">
        <ele>316.3</ele>
        <time>2014-10-12T07:36:59.000Z</time>
      </trkpt>
      <trkpt lat="47.48819" lon="6.77248">
        <ele>316.5</ele>
        <time>2014-10-12T07:37:00.000Z</time>
      </trkpt>
      <trkpt lat="47.48814" lon="6.77245">
        <ele>316.6</ele>
        <time>2014-10-12T07:37:01.000Z</time>
      </trkpt>
      <trkpt lat="47.48809" lon="6.77241">
        <ele>316.3</ele>
        <time>2014-10-12T07:37:02.000Z</time>
      </trkpt>
      <trkpt lat="47.48804" lon="6.77237">
        <ele>316.2</ele>
        <time>2014-10-12T07:37:03.000Z</time>
      </trkpt>
      <trkpt lat="47.48799" lon="6.77234">
        <ele>315.7</ele>
        <time>2014-10-12T07:37:04.000Z</time>
      </trkpt>
      <trkpt lat="47.48794" lon="6.77231">
        <ele>315.5</ele>
        <time>2014-10-12T07:37:05.000Z</time>
      </trkpt>
      <trkpt lat="47.48789" lon="6.77227">
        <ele>314.8</ele>
        <time>2014-10-12T07:37:06.000Z</time>
      </trkpt>
      <trkpt lat="47.48783" lon="6.77223">
        <ele>314.9</ele>
        <time>2014-10-12T07:37:07.000Z</time>
      </trkpt>
      <trkpt lat="47.48778" lon="6.77218">
        <ele>314.7</ele>
        <time>2014-10-12T07:37:08.000Z</time>
      </trkpt>
      <trkpt lat="47.48773" lon="6.77215">
        <ele>314.7</ele>
        <time>2014-10-12T07:37:09.000Z</time>
      </trkpt>
      <trkpt lat="47.48767" lon="6.77211">
        <ele>315.2</ele>
        <time>2014-10-12T07:37:10.000Z</time>
      </trkpt>
      <trkpt lat="47.48762" lon="6.77208">
        <ele>315.4</ele>
        <time>2014-10-12T07:37:11.000Z</time>
      </trkpt>
      <trkpt lat="47.48757" lon="6.77204">
        <ele>315.8</ele>
        <time>2014-10-12T07:37:12.000Z</time>
      </trkpt>
      <trkpt lat="47.48753" lon="6.772">
        <ele>316</ele>
        <time>2014-10-12T07:37:13.000Z</time>
      </trkpt>
      <trkpt lat="47.48747" lon="6.77196">
        <ele>316</ele>
        <time>2014-10-12T07:37:14.000Z</time>
      </trkpt>
      <trkpt lat="47.48742" lon="6.77192">
        <ele>315.7</ele>
        <time>2014-10-12T07:37:15.000Z</time>
      </trkpt>
      <trkpt lat="47.48737" lon="6.77188">
        <ele>315.3</ele>
        <time>2014-10-12T07:37:16.000Z</time>
      </trkpt>
      <trkpt lat="47.48732" lon="6.77185">
        <ele>315.2</ele>
        <time>2014-10-12T07:37:17.000Z</time>
      </trkpt>
      <trkpt lat="47.48729" lon="6.77181">
        <ele>315.3</ele>
        <time>2014-10-12T07:37:18.000Z</time>
      </trkpt>
      <trkpt lat="47.48724" lon="6.77178">
        <ele>315.5</ele>
        <time>2014-10-12T07:37:19.000Z</time>
      </trkpt>
      <trkpt lat="47.48719" lon="6.77174">
        <ele>315</ele>
        <time>2014-10-12T07:37:20.000Z</time>
      </trkpt>
      <trkpt lat="47.48714" lon="6.77171">
        <ele>315.2</ele>
        <time>2014-10-12T07:37:21.000Z</time>
      </trkpt>
      <trkpt lat="47.48709" lon="6.77166">
        <ele>315.7</ele>
        <time>2014-10-12T07:37:22.000Z</time>
      </trkpt>
      <trkpt lat="47.48705" lon="6.77163">
        <ele>315</ele>
        <time>2014-10-12T07:37:23.000Z</time>
      </trkpt>
      <trkpt lat="47.48699" lon="6.77159">
        <ele>315.9</ele>
        <time>2014-10-12T07:37:24.000Z</time>
      </trkpt>
      <trkpt lat="47.48695" lon="6.77154">
        <ele>316.1</ele>
        <time>2014-10-12T07:37:25.000Z</time>
      </trkpt>
      <trkpt lat="47.4869" lon="6.7715">
        <ele>315.8</ele>
        <time>2014-10-12T07:37:26.000Z</time>
      </trkpt>
      <trkpt lat="47.48684" lon="6.77145">
        <ele>317</ele>
        <time>2014-10-12T07:37:27.000Z</time>
      </trkpt>
      <trkpt lat="47.4868" lon="6.77141">
        <ele>316.9</ele>
        <time>2014-10-12T07:37:28.000Z</time>
      </trkpt>
      <trkpt lat="47.48675" lon="6.77136">
        <ele>317.5</ele>
        <time>2014-10-12T07:37:29.000Z</time>
      </trkpt>
      <trkpt lat="47.48671" lon="6.77131">
        <ele>317.3</ele>
        <time>2014-10-12T07:37:30.000Z</time>
      </trkpt>
      <trkpt lat="47.48667" lon="6.77126">
        <ele>317.7</ele>
        <time>2014-10-12T07:37:31.000Z</time>
      </trkpt>
      <trkpt lat="47.48663" lon="6.77121">
        <ele>317.8</ele>
        <time>2014-10-12T07:37:32.000Z</time>
      </trkpt>
      <trkpt lat="47.48659" lon="6.77116">
        <ele>317.8</ele>
        <time>2014-10-12T07:37:33.000Z</time>
      </trkpt>
      <trkpt lat="47.48654" lon="6.77111">
        <ele>317.1</ele>
        <time>2014-10-12T07:37:34.000Z</time>
      </trkpt>
      <trkpt lat="47.4865" lon="6.77105">
        <ele>317</ele>
        <time>2014-10-12T07:37:35.000Z</time>
      </trkpt>
      <trkpt lat="47.48646" lon="6.771">
        <ele>316.8</ele>
        <time>2014-10-12T07:37:36.000Z</time>
      </trkpt>
      <trkpt lat="47.48641" lon="6.77095">
        <ele>317.3</ele>
        <time>2014-10-12T07:37:37.000Z</time>
      </trkpt>
      <trkpt lat="47.48637" lon="6.77089">
        <ele>317.4</ele>
        <time>2014-10-12T07:37:38.000Z</time>
      </trkpt>
      <trkpt lat="47.48632" lon="6.77085">
        <ele>318.4</ele>
        <time>2014-10-12T07:37:39.000Z</time>
      </trkpt>
      <trkpt lat="47.48628" lon="6.77082">
        <ele>318.8</ele>
        <time>2014-10-12T07:37:40.000Z</time>
      </trkpt>
      <trkpt lat="47.48624" lon="6.77077">
        <ele>319.2</ele>
        <time>2014-10-12T07:37:41.000Z</time>
      </trkpt>
      <trkpt lat="47.48619" lon="6.77074">
        <ele>319.1</ele>
        <time>2014-10-12T07:37:42.000Z</time>
      </trkpt>
      <trkpt lat="47.48614" lon="6.77071">
        <ele>318.9</ele>
        <time>2014-10-12T07:37:43.000Z</time>
      </trkpt>
      <trkpt lat="47.48608" lon="6.77065">
        <ele>318.9</ele>
        <time>2014-10-12T07:37:44.000Z</time>
      </trkpt>
      <trkpt lat="47.48603" lon="6.77061">
        <ele>319.3</ele>
        <time>2014-10-12T07:37:45.000Z</time>
      </trkpt>
      <trkpt lat="47.48597" lon="6.77058">
        <ele>318.7</ele>
        <time>2014-10-12T07:37:46.000Z</time>
      </trkpt>
      <trkpt lat="47.48592" lon="6.77054">
        <ele>319</ele>
        <time>2014-10-12T07:37:47.000Z</time>
      </trkpt>
      <trkpt lat="47.48555" lon="6.77042">
        <ele>316.9</ele>
        <time>2014-10-12T07:37:55.000Z</time>
      </trkpt>
      <trkpt lat="47.48545" lon="6.77033">
        <ele>317.8</ele>
        <time>2014-10-12T07:37:56.000Z</time>
      </trkpt>
      <trkpt lat="47.48536" lon="6.77026">
        <ele>318.3</ele>
        <time>2014-10-12T07:37:57.000Z</time>
      </trkpt>
      <trkpt lat="47.48528" lon="6.77019">
        <ele>318</ele>
        <time>2014-10-12T07:37:58.000Z</time>
      </trkpt>
      <trkpt lat="47.48522" lon="6.77016">
        <ele>317.8</ele>
        <time>2014-10-12T07:37:59.000Z</time>
      </trkpt>
      <trkpt lat="47.48514" lon="6.7701">
        <ele>318.7</ele>
        <time>2014-10-12T07:38:00.000Z</time>
      </trkpt>
      <trkpt lat="47.48508" lon="6.77006">
        <ele>318.7</ele>
        <time>2014-10-12T07:38:01.000Z</time>
      </trkpt>
      <trkpt lat="47.48502" lon="6.77001">
        <ele>319</ele>
        <time>2014-10-12T07:38:02.000Z</time>
      </trkpt>
      <trkpt lat="47.48494" lon="6.76997">
        <ele>320.3</ele>
        <time>2014-10-12T07:38:03.000Z</time>
      </trkpt>
      <trkpt lat="47.48487" lon="6.76993">
        <ele>319.9</ele>
        <time>2014-10-12T07:38:04.000Z</time>
      </trkpt>
      <trkpt lat="47.48481" lon="6.76989">
        <ele>319.8</ele>
        <time>2014-10-12T07:38:05.000Z</time>
      </trkpt>
      <trkpt lat="47.48475" lon="6.76985">
        <ele>319.6</ele>
        <time>2014-10-12T07:38:06.000Z</time>
      </trkpt>
      <trkpt lat="47.48469" lon="6.76984">
        <ele>320.2</ele>
        <time>2014-10-12T07:38:07.000Z</time>
      </trkpt>
      <trkpt lat="47.48463" lon="6.76981">
        <ele>320.3</ele>
        <time>2014-10-12T07:38:08.000Z</time>
      </trkpt>
      <trkpt lat="47.48458" lon="6.76976">
        <ele>320.5</ele>
        <time>2014-10-12T07:38:09.000Z</time>
      </trkpt>
      <trkpt lat="47.48452" lon="6.76972">
        <ele>320.5</ele>
        <time>2014-10-12T07:38:10.000Z</time>
      </trkpt>
      <trkpt lat="47.48446" lon="6.76968">
        <ele>320.6</ele>
        <time>2014-10-12T07:38:11.000Z</time>
      </trkpt>
      <trkpt lat="47.4844" lon="6.76964">
        <ele>320</ele>
        <time>2014-10-12T07:38:12.000Z</time>
      </trkpt>
      <trkpt lat="47.48434" lon="6.7696">
        <ele>320</ele>
        <time>2014-10-12T07:38:13.000Z</time>
      </trkpt>
      <trkpt lat="47.48428" lon="6.76957">
        <ele>319.3</ele>
        <time>2014-10-12T07:38:14.000Z</time>
      </trkpt>
      <trkpt lat="47.48421" lon="6.76956">
        <ele>319.6</ele>
        <time>2014-10-12T07:38:15.000Z</time>
      </trkpt>
      <trkpt lat="47.48415" lon="6.76953">
        <ele>319.8</ele>
        <time>2014-10-12T07:38:16.000Z</time>
      </trkpt>
      <trkpt lat="47.48408" lon="6.7695">
        <ele>319</ele>
        <time>2014-10-12T07:38:17.000Z</time>
      </trkpt>
      <trkpt lat="47.48402" lon="6.76945">
        <ele>317.7</ele>
        <time>2014-10-12T07:38:18.000Z</time>
      </trkpt>
      <trkpt lat="47.48396" lon="6.76942">
        <ele>318</ele>
        <time>2014-10-12T07:38:19.000Z</time>
      </trkpt>
      <trkpt lat="47.4839" lon="6.76938">
        <ele>318</ele>
        <time>2014-10-12T07:38:20.000Z</time>
      </trkpt>
      <trkpt lat="47.48383" lon="6.76935">
        <ele>318.3</ele>
        <time>2014-10-12T07:38:21.000Z</time>
      </trkpt>
      <trkpt lat="47.48377" lon="6.76932">
        <ele>318.1</ele>
        <time>2014-10-12T07:38:22.000Z</time>
      </trkpt>
      <trkpt lat="47.48371" lon="6.76928">
        <ele>318.2</ele>
        <time>2014-10-12T07:38:23.000Z</time>
      </trkpt>
      <trkpt lat="47.48365" lon="6.76924">
        <ele>318.1</ele>
        <time>2014-10-12T07:38:24.000Z</time>
      </trkpt>
      <trkpt lat="47.48359" lon="6.76921">
        <ele>317.4</ele>
        <time>2014-10-12T07:38:25.000Z</time>
      </trkpt>
      <trkpt lat="47.48353" lon="6.76917">
        <ele>316.9</ele>
        <time>2014-10-12T07:38:26.000Z</time>
      </trkpt>
      <trkpt lat="47.48347" lon="6.76913">
        <ele>317.5</ele>
        <time>2014-10-12T07:38:27.000Z</time>
      </trkpt>
      <trkpt lat="47.4834" lon="6.7691">
        <ele>317.8</ele>
        <time>2014-10-12T07:38:28.000Z</time>
      </trkpt>
      <trkpt lat="47.48334" lon="6.76906">
        <ele>317.3</ele>
        <time>2014-10-12T07:38:29.000Z</time>
      </trkpt>
      <trkpt lat="47.48329" lon="6.76902">
        <ele>317.5</ele>
        <time>2014-10-12T07:38:30.000Z</time>
      </trkpt>
      <trkpt lat="47.48323" lon="6.76899">
        <ele>319.1</ele>
        <time>2014-10-12T07:38:31.000Z</time>
      </trkpt>
      <trkpt lat="47.48318" lon="6.76894">
        <ele>318.7</ele>
        <time>2014-10-12T07:38:32.000Z</time>
      </trkpt>
      <trkpt lat="47.48313" lon="6.76889">
        <ele>318.5</ele>
        <time>2014-10-12T07:38:33.000Z</time>
      </trkpt>
      <trkpt lat="47.48308" lon="6.76883">
        <ele>318.2</ele>
        <time>2014-10-12T07:38:34.000Z</time>
      </trkpt>
      <trkpt lat="47.48303" lon="6.76879">
        <ele>318.1</ele>
        <time>2014-10-12T07:38:35.000Z</time>
      </trkpt>
      <trkpt lat="47.48298" lon="6.76873">
        <ele>317.9</ele>
        <time>2014-10-12T07:38:36.000Z</time>
      </trkpt>
      <trkpt lat="47.48292" lon="6.76869">
        <ele>318</ele>
        <time>2014-10-12T07:38:37.000Z</time>
      </trkpt>
      <trkpt lat="47.48287" lon="6.76863">
        <ele>318.3</ele>
        <time>2014-10-12T07:38:38.000Z</time>
      </trkpt>
      <trkpt lat="47.48283" lon="6.76857">
        <ele>318.4</ele>
        <time>2014-10-12T07:38:39.000Z</time>
      </trkpt>
      <trkpt lat="47.48279" lon="6.7685">
        <ele>318.1</ele>
        <time>2014-10-12T07:38:40.000Z</time>
      </trkpt>
      <trkpt lat="47.48275" lon="6.76843">
        <ele>317.8</ele>
        <time>2014-10-12T07:38:41.000Z</time>
      </trkpt>
      <trkpt lat="47.4827" lon="6.76836">
        <ele>318</ele>
        <time>2014-10-12T07:38:42.000Z</time>
      </trkpt>
      <trkpt lat="47.48265" lon="6.7683">
        <ele>317.9</ele>
        <time>2014-10-12T07:38:43.000Z</time>
      </trkpt>
      <trkpt lat="47.48261" lon="6.76823">
        <ele>318</ele>
        <time>2014-10-12T07:38:44.000Z</time>
      </trkpt>
      <trkpt lat="47.48257" lon="6.76816">
        <ele>317.9</ele>
        <time>2014-10-12T07:38:45.000Z</time>
      </trkpt>
      <trkpt lat="47.48253" lon="6.76809">
        <ele>317.2</ele>
        <time>2014-10-12T07:38:46.000Z</time>
      </trkpt>
      <trkpt lat="47.48248" lon="6.76803">
        <ele>316.6</ele>
        <time>2014-10-12T07:38:47.000Z</time>
      </trkpt>
      <trkpt lat="47.48234" lon="6.7679">
        <ele>316.5</ele>
        <time>2014-10-12T07:38:50.000Z</time>
      </trkpt>
      <trkpt lat="47.48226" lon="6.76789">
        <ele>317.2</ele>
        <time>2014-10-12T07:38:51.000Z</time>
      </trkpt>
      <trkpt lat="47.4822" lon="6.76786">
        <ele>316.7</ele>
        <time>2014-10-12T07:38:52.000Z</time>
      </trkpt>
      <trkpt lat="47.48213" lon="6.76785">
        <ele>316.3</ele>
        <time>2014-10-12T07:38:53.000Z</time>
      </trkpt>
      <trkpt lat="47.48207" lon="6.76783">
        <ele>316.4</ele>
        <time>2014-10-12T07:38:54.000Z</time>
      </trkpt>
      <trkpt lat="47.482" lon="6.7678">
        <ele>315.9</ele>
        <time>2014-10-12T07:38:55.000Z</time>
      </trkpt>
      <trkpt lat="47.48194" lon="6.76778">
        <ele>315.4</ele>
        <time>2014-10-12T07:38:56.000Z</time>
      </trkpt>
      <trkpt lat="47.48189" lon="6.76774">
        <ele>315.3</ele>
        <time>2014-10-12T07:38:57.000Z</time>
      </trkpt>
      <trkpt lat="47.48183" lon="6.76768">
        <ele>315.1</ele>
        <time>2014-10-12T07:38:58.000Z</time>
      </trkpt>
      <trkpt lat="47.48178" lon="6.76763">
        <ele>314.8</ele>
        <time>2014-10-12T07:38:59.000Z</time>
      </trkpt>
      <trkpt lat="47.48173" lon="6.76757">
        <ele>314.5</ele>
        <time>2014-10-12T07:39:00.000Z</time>
      </trkpt>
      <trkpt lat="47.48169" lon="6.7675">
        <ele>315.4</ele>
        <time>2014-10-12T07:39:01.000Z</time>
      </trkpt>
      <trkpt lat="47.48164" lon="6.76743">
        <ele>315.6</ele>
        <time>2014-10-12T07:39:02.000Z</time>
      </trkpt>
      <trkpt lat="47.4816" lon="6.76736">
        <ele>315.1</ele>
        <time>2014-10-12T07:39:03.000Z</time>
      </trkpt>
      <trkpt lat="47.48155" lon="6.76729">
        <ele>314.7</ele>
        <time>2014-10-12T07:39:04.000Z</time>
      </trkpt>
      <trkpt lat="47.48152" lon="6.76721">
        <ele>315</ele>
        <time>2014-10-12T07:39:05.000Z</time>
      </trkpt>
      <trkpt lat="47.48148" lon="6.76713">
        <ele>314.8</ele>
        <time>2014-10-12T07:39:06.000Z</time>
      </trkpt>
      <trkpt lat="47.48144" lon="6.76706">
        <ele>314.4</ele>
        <time>2014-10-12T07:39:07.000Z</time>
      </trkpt>
      <trkpt lat="47.4814" lon="6.76698">
        <ele>314.2</ele>
        <time>2014-10-12T07:39:08.000Z</time>
      </trkpt>
      <trkpt lat="47.48136" lon="6.76691">
        <ele>314.2</ele>
        <time>2014-10-12T07:39:09.000Z</time>
      </trkpt>
      <trkpt lat="47.48133" lon="6.76683">
        <ele>314.5</ele>
        <time>2014-10-12T07:39:10.000Z</time>
      </trkpt>
      <trkpt lat="47.48129" lon="6.76676">
        <ele>314.3</ele>
        <time>2014-10-12T07:39:11.000Z</time>
      </trkpt>
      <trkpt lat="47.48125" lon="6.76669">
        <ele>314.3</ele>
        <time>2014-10-12T07:39:12.000Z</time>
      </trkpt>
      <trkpt lat="47.48121" lon="6.76663">
        <ele>314.3</ele>
        <time>2014-10-12T07:39:13.000Z</time>
      </trkpt>
      <trkpt lat="47.48117" lon="6.76656">
        <ele>314.4</ele>
        <time>2014-10-12T07:39:14.000Z</time>
      </trkpt>
      <trkpt lat="47.48112" lon="6.76651">
        <ele>314.4</ele>
        <time>2014-10-12T07:39:15.000Z</time>
      </trkpt>
      <trkpt lat="47.48109" lon="6.76645">
        <ele>314</ele>
        <time>2014-10-12T07:39:16.000Z</time>
      </trkpt>
      <trkpt lat="47.48105" lon="6.76639">
        <ele>314.1</ele>
        <time>2014-10-12T07:39:17.000Z</time>
      </trkpt>
      <trkpt lat="47.48102" lon="6.76635">
        <ele>314</ele>
        <time>2014-10-12T07:39:18.000Z</time>
      </trkpt>
      <trkpt lat="47.48096" lon="6.76632">
        <ele>313.7</ele>
        <time>2014-10-12T07:39:19.000Z</time>
      </trkpt>
      <trkpt lat="47.48095" lon="6.76626">
        <ele>313</ele>
        <time>2014-10-12T07:39:20.000Z</time>
      </trkpt>
      <trkpt lat="47.48092" lon="6.7662">
        <ele>312.9</ele>
        <time>2014-10-12T07:39:21.000Z</time>
      </trkpt>
      <trkpt lat="47.48091" lon="6.76614">
        <ele>312.8</ele>
        <time>2014-10-12T07:39:22.000Z</time>
      </trkpt>
      <trkpt lat="47.48094" lon="6.76613">
        <ele>310.1</ele>
        <time>2014-10-12T07:39:23.000Z</time>
      </trkpt>
      <trkpt lat="47.48094" lon="6.76609">
        <ele>309.7</ele>
        <time>2014-10-12T07:39:24.000Z</time>
      </trkpt>
      <trkpt lat="47.48097" lon="6.76603">
        <ele>309.5</ele>
        <time>2014-10-12T07:39:25.000Z</time>
      </trkpt>
      <trkpt lat="47.481" lon="6.76597">
        <ele>309.3</ele>
        <time>2014-10-12T07:39:26.000Z</time>
      </trkpt>
      <trkpt lat="47.48103" lon="6.76592">
        <ele>308.9</ele>
        <time>2014-10-12T07:39:27.000Z</time>
      </trkpt>
      <trkpt lat="47.48107" lon="6.76587">
        <ele>308.7</ele>
        <time>2014-10-12T07:39:28.000Z</time>
      </trkpt>
      <trkpt lat="47.4811" lon="6.76581">
        <ele>308.8</ele>
        <time>2014-10-12T07:39:29.000Z</time>
      </trkpt>
      <trkpt lat="47.48112" lon="6.76575">
        <ele>309.5</ele>
        <time>2014-10-12T07:39:30.000Z</time>
      </trkpt>
      <trkpt lat="47.48117" lon="6.76562">
        <ele>309.2</ele>
        <time>2014-10-12T07:39:31.000Z</time>
      </trkpt>
      <trkpt lat="47.4812" lon="6.76555">
        <ele>310.8</ele>
        <time>2014-10-12T07:39:32.000Z</time>
      </trkpt>
      <trkpt lat="47.48117" lon="6.76551">
        <ele>312.5</ele>
        <time>2014-10-12T07:39:33.000Z</time>
      </trkpt>
      <trkpt lat="47.48117" lon="6.76544">
        <ele>312.8</ele>
        <time>2014-10-12T07:39:34.000Z</time>
      </trkpt>
      <trkpt lat="47.48115" lon="6.76535">
        <ele>312.3</ele>
        <time>2014-10-12T07:39:35.000Z</time>
      </trkpt>
      <trkpt lat="47.48114" lon="6.76529">
        <ele>312.5</ele>
        <time>2014-10-12T07:39:36.000Z</time>
      </trkpt>
      <trkpt lat="47.48111" lon="6.76528">
        <ele>311.9</ele>
        <time>2014-10-12T07:39:37.000Z</time>
      </trkpt>
      <trkpt lat="47.48109" lon="6.76524">
        <ele>311.8</ele>
        <time>2014-10-12T07:39:38.000Z</time>
      </trkpt>
      <trkpt lat="47.48107" lon="6.76518">
        <ele>311.8</ele>
        <time>2014-10-12T07:39:39.000Z</time>
      </trkpt>
      <trkpt lat="47.48107" lon="6.76514">
        <ele>312</ele>
        <time>2014-10-12T07:39:40.000Z</time>
      </trkpt>
      <trkpt lat="47.48104" lon="6.76513">
        <ele>310.5</ele>
        <time>2014-10-12T07:39:41.000Z</time>
      </trkpt>
      <trkpt lat="47.48101" lon="6.76513">
        <ele>310.2</ele>
        <time>2014-10-12T07:39:42.000Z</time>
      </trkpt>
      <trkpt lat="47.48098" lon="6.76515">
        <ele>310.5</ele>
        <time>2014-10-12T07:39:43.000Z</time>
      </trkpt>
      <trkpt lat="47.48094" lon="6.76519">
        <ele>309.9</ele>
        <time>2014-10-12T07:39:44.000Z</time>
      </trkpt>
      <trkpt lat="47.4809" lon="6.76523">
        <ele>309</ele>
        <time>2014-10-12T07:39:45.000Z</time>
      </trkpt>
      <trkpt lat="47.48082" lon="6.76529">
        <ele>309.4</ele>
        <time>2014-10-12T07:39:46.000Z</time>
      </trkpt>
      <trkpt lat="47.48077" lon="6.76533">
        <ele>310.6</ele>
        <time>2014-10-12T07:39:47.000Z</time>
      </trkpt>
      <trkpt lat="47.48049" lon="6.76548">
        <ele>307.3</ele>
        <time>2014-10-12T07:39:55.000Z</time>
      </trkpt>
      <trkpt lat="47.48044" lon="6.76555">
        <ele>306.2</ele>
        <time>2014-10-12T07:39:56.000Z</time>
      </trkpt>
      <trkpt lat="47.48039" lon="6.76558">
        <ele>306.3</ele>
        <time>2014-10-12T07:39:57.000Z</time>
      </trkpt>
      <trkpt lat="47.48035" lon="6.76561">
        <ele>307.1</ele>
        <time>2014-10-12T07:39:58.000Z</time>
      </trkpt>
      <trkpt lat="47.48031" lon="6.76566">
        <ele>308.1</ele>
        <time>2014-10-12T07:39:59.000Z</time>
      </trkpt>
      <trkpt lat="47.48026" lon="6.76571">
        <ele>309.5</ele>
        <time>2014-10-12T07:40:00.000Z</time>
      </trkpt>
      <trkpt lat="47.48021" lon="6.76575">
        <ele>310.2</ele>
        <time>2014-10-12T07:40:01.000Z</time>
      </trkpt>
      <trkpt lat="47.48016" lon="6.76577">
        <ele>310.9</ele>
        <time>2014-10-12T07:40:02.000Z</time>
      </trkpt>
      <trkpt lat="47.48011" lon="6.76581">
        <ele>312</ele>
        <time>2014-10-12T07:40:03.000Z</time>
      </trkpt>
      <trkpt lat="47.48007" lon="6.76585">
        <ele>312.2</ele>
        <time>2014-10-12T07:40:04.000Z</time>
      </trkpt>
      <trkpt lat="47.48002" lon="6.76588">
        <ele>312.4</ele>
        <time>2014-10-12T07:40:05.000Z</time>
      </trkpt>
      <trkpt lat="47.47997" lon="6.7659">
        <ele>312.1</ele>
        <time>2014-10-12T07:40:06.000Z</time>
      </trkpt>
      <trkpt lat="47.47992" lon="6.76594">
        <ele>313.5</ele>
        <time>2014-10-12T07:40:07.000Z</time>
      </trkpt>
      <trkpt lat="47.47987" lon="6.76597">
        <ele>315.4</ele>
        <time>2014-10-12T07:40:08.000Z</time>
      </trkpt>
      <trkpt lat="47.47983" lon="6.76601">
        <ele>315.7</ele>
        <time>2014-10-12T07:40:09.000Z</time>
      </trkpt>
      <trkpt lat="47.4798" lon="6.76603">
        <ele>315.6</ele>
        <time>2014-10-12T07:40:10.000Z</time>
      </trkpt>
      <trkpt lat="47.47977" lon="6.76607">
        <ele>315.4</ele>
        <time>2014-10-12T07:40:11.000Z</time>
      </trkpt>
      <trkpt lat="47.47973" lon="6.7661">
        <ele>314.9</ele>
        <time>2014-10-12T07:40:12.000Z</time>
      </trkpt>
      <trkpt lat="47.4797" lon="6.76611">
        <ele>315.5</ele>
        <time>2014-10-12T07:40:13.000Z</time>
      </trkpt>
      <trkpt lat="47.47967" lon="6.76613">
        <ele>316.3</ele>
        <time>2014-10-12T07:40:14.000Z</time>
      </trkpt>
      <trkpt lat="47.47965" lon="6.76614">
        <ele>316.6</ele>
        <time>2014-10-12T07:40:15.000Z</time>
      </trkpt>
      <trkpt lat="47.47961" lon="6.76614">
        <ele>314.9</ele>
        <time>2014-10-12T07:40:16.000Z</time>
      </trkpt>
      <trkpt lat="47.47957" lon="6.76615">
        <ele>314.6</ele>
        <time>2014-10-12T07:40:17.000Z</time>
      </trkpt>
      <trkpt lat="47.47953" lon="6.76613">
        <ele>313.1</ele>
        <time>2014-10-12T07:40:18.000Z</time>
      </trkpt>
      <trkpt lat="47.47949" lon="6.76608">
        <ele>312.4</ele>
        <time>2014-10-12T07:40:19.000Z</time>
      </trkpt>
      <trkpt lat="47.47945" lon="6.76603">
        <ele>312.5</ele>
        <time>2014-10-12T07:40:20.000Z</time>
      </trkpt>
      <trkpt lat="47.47943" lon="6.76595">
        <ele>312.4</ele>
        <time>2014-10-12T07:40:21.000Z</time>
      </trkpt>
      <trkpt lat="47.47943" lon="6.76585">
        <ele>312.6</ele>
        <time>2014-10-12T07:40:22.000Z</time>
      </trkpt>
      <trkpt lat="47.47942" lon="6.76575">
        <ele>312.2</ele>
        <time>2014-10-12T07:40:23.000Z</time>
      </trkpt>
      <trkpt lat="47.4794" lon="6.76566">
        <ele>312.6</ele>
        <time>2014-10-12T07:40:24.000Z</time>
      </trkpt>
      <trkpt lat="47.47939" lon="6.76556">
        <ele>313.2</ele>
        <time>2014-10-12T07:40:25.000Z</time>
      </trkpt>
      <trkpt lat="47.47937" lon="6.76546">
        <ele>313.3</ele>
        <time>2014-10-12T07:40:26.000Z</time>
      </trkpt>
      <trkpt lat="47.47934" lon="6.76538">
        <ele>312.8</ele>
        <time>2014-10-12T07:40:27.000Z</time>
      </trkpt>
      <trkpt lat="47.47932" lon="6.76529">
        <ele>313.3</ele>
        <time>2014-10-12T07:40:28.000Z</time>
      </trkpt>
      <trkpt lat="47.47931" lon="6.76521">
        <ele>313.5</ele>
        <time>2014-10-12T07:40:29.000Z</time>
      </trkpt>
      <trkpt lat="47.47929" lon="6.76512">
        <ele>313.9</ele>
        <time>2014-10-12T07:40:30.000Z</time>
      </trkpt>
      <trkpt lat="47.47926" lon="6.76504">
        <ele>313.5</ele>
        <time>2014-10-12T07:40:31.000Z</time>
      </trkpt>
      <trkpt lat="47.47924" lon="6.76495">
        <ele>313.6</ele>
        <time>2014-10-12T07:40:32.000Z</time>
      </trkpt>
      <trkpt lat="47.47922" lon="6.76487">
        <ele>313.9</ele>
        <time>2014-10-12T07:40:33.000Z</time>
      </trkpt>
      <trkpt lat="47.4792" lon="6.76479">
        <ele>313.3</ele>
        <time>2014-10-12T07:40:34.000Z</time>
      </trkpt>
      <trkpt lat="47.47919" lon="6.7647">
        <ele>313.3</ele>
        <time>2014-10-12T07:40:35.000Z</time>
      </trkpt>
      <trkpt lat="47.47917" lon="6.76462">
        <ele>313</ele>
        <time>2014-10-12T07:40:36.000Z</time>
      </trkpt>
      <trkpt lat="47.47915" lon="6.76453">
        <ele>313.4</ele>
        <time>2014-10-12T07:40:37.000Z</time>
      </trkpt>
      <trkpt lat="47.47914" lon="6.76445">
        <ele>313</ele>
        <time>2014-10-12T07:40:38.000Z</time>
      </trkpt>
      <trkpt lat="47.47912" lon="6.76437">
        <ele>313</ele>
        <time>2014-10-12T07:40:39.000Z</time>
      </trkpt>
      <trkpt lat="47.4791" lon="6.76428">
        <ele>313</ele>
        <time>2014-10-12T07:40:40.000Z</time>
      </trkpt>
      <trkpt lat="47.47907" lon="6.7642">
        <ele>313.4</ele>
        <time>2014-10-12T07:40:41.000Z</time>
      </trkpt>
      <trkpt lat="47.47905" lon="6.76412">
        <ele>313.5</ele>
        <time>2014-10-12T07:40:42.000Z</time>
      </trkpt>
      <trkpt lat="47.47902" lon="6.76405">
        <ele>313.9</ele>
        <time>2014-10-12T07:40:43.000Z</time>
      </trkpt>
      <trkpt lat="47.47899" lon="6.76397">
        <ele>314</ele>
        <time>2014-10-12T07:40:44.000Z</time>
      </trkpt>
      <trkpt lat="47.47895" lon="6.76389">
        <ele>314</ele>
        <time>2014-10-12T07:40:45.000Z</time>
      </trkpt>
      <trkpt lat="47.47892" lon="6.76382">
        <ele>313.9</ele>
        <time>2014-10-12T07:40:46.000Z</time>
      </trkpt>
      <trkpt lat="47.47888" lon="6.76375">
        <ele>313.6</ele>
        <time>2014-10-12T07:40:47.000Z</time>
      </trkpt>
      <trkpt lat="47.47879" lon="6.76356">
        <ele>313.6</ele>
        <time>2014-10-12T07:40:50.000Z</time>
      </trkpt>
      <trkpt lat="47.47875" lon="6.76348">
        <ele>314.5</ele>
        <time>2014-10-12T07:40:51.000Z</time>
      </trkpt>
      <trkpt lat="47.47871" lon="6.76341">
        <ele>313.9</ele>
        <time>2014-10-12T07:40:52.000Z</time>
      </trkpt>
      <trkpt lat="47.47867" lon="6.76333">
        <ele>314.6</ele>
        <time>2014-10-12T07:40:53.000Z</time>
      </trkpt>
      <trkpt lat="47.47863" lon="6.76325">
        <ele>314.9</ele>
        <time>2014-10-12T07:40:54.000Z</time>
      </trkpt>
      <trkpt lat="47.47859" lon="6.76317">
        <ele>315.2</ele>
        <time>2014-10-12T07:40:55.000Z</time>
      </trkpt>
      <trkpt lat="47.47854" lon="6.76309">
        <ele>315.2</ele>
        <time>2014-10-12T07:40:56.000Z</time>
      </trkpt>
      <trkpt lat="47.4785" lon="6.76302">
        <ele>315.7</ele>
        <time>2014-10-12T07:40:57.000Z</time>
      </trkpt>
      <trkpt lat="47.47847" lon="6.76295">
        <ele>316</ele>
        <time>2014-10-12T07:40:58.000Z</time>
      </trkpt>
      <trkpt lat="47.47843" lon="6.76288">
        <ele>315.8</ele>
        <time>2014-10-12T07:40:59.000Z</time>
      </trkpt>
      <trkpt lat="47.47838" lon="6.76282">
        <ele>316.6</ele>
        <time>2014-10-12T07:41:00.000Z</time>
      </trkpt>
      <trkpt lat="47.47833" lon="6.76276">
        <ele>316.9</ele>
        <time>2014-10-12T07:41:01.000Z</time>
      </trkpt>
      <trkpt lat="47.47828" lon="6.76272">
        <ele>317.6</ele>
        <time>2014-10-12T07:41:02.000Z</time>
      </trkpt>
      <trkpt lat="47.47822" lon="6.76268">
        <ele>317</ele>
        <time>2014-10-12T07:41:03.000Z</time>
      </trkpt>
      <trkpt lat="47.47817" lon="6.76265">
        <ele>317.1</ele>
        <time>2014-10-12T07:41:04.000Z</time>
      </trkpt>
      <trkpt lat="47.47811" lon="6.76262">
        <ele>316.8</ele>
        <time>2014-10-12T07:41:05.000Z</time>
      </trkpt>
      <trkpt lat="47.47806" lon="6.7626">
        <ele>317</ele>
        <time>2014-10-12T07:41:06.000Z</time>
      </trkpt>
      <trkpt lat="47.478" lon="6.76257">
        <ele>316.9</ele>
        <time>2014-10-12T07:41:07.000Z</time>
      </trkpt>
      <trkpt lat="47.47794" lon="6.76254">
        <ele>317.6</ele>
        <time>2014-10-12T07:41:08.000Z</time>
      </trkpt>
      <trkpt lat="47.47789" lon="6.7625">
        <ele>317.2</ele>
        <time>2014-10-12T07:41:09.000Z</time>
      </trkpt>
      <trkpt lat="47.47784" lon="6.76246">
        <ele>317.1</ele>
        <time>2014-10-12T07:41:10.000Z</time>
      </trkpt>
      <trkpt lat="47.47779" lon="6.76239">
        <ele>316.6</ele>
        <time>2014-10-12T07:41:11.000Z</time>
      </trkpt>
      <trkpt lat="47.47774" lon="6.76233">
        <ele>316.8</ele>
        <time>2014-10-12T07:41:12.000Z</time>
      </trkpt>
      <trkpt lat="47.4777" lon="6.76227">
        <ele>316.9</ele>
        <time>2014-10-12T07:41:13.000Z</time>
      </trkpt>
      <trkpt lat="47.47767" lon="6.76221">
        <ele>317.1</ele>
        <time>2014-10-12T07:41:14.000Z</time>
      </trkpt>
      <trkpt lat="47.47763" lon="6.76215">
        <ele>317</ele>
        <time>2014-10-12T07:41:15.000Z</time>
      </trkpt>
      <trkpt lat="47.47759" lon="6.76209">
        <ele>317.7</ele>
        <time>2014-10-12T07:41:16.000Z</time>
      </trkpt>
      <trkpt lat="47.47755" lon="6.76203">
        <ele>318.4</ele>
        <time>2014-10-12T07:41:17.000Z</time>
      </trkpt>
      <trkpt lat="47.47752" lon="6.76197">
        <ele>318.2</ele>
        <time>2014-10-12T07:41:18.000Z</time>
      </trkpt>
      <trkpt lat="47.47749" lon="6.76191">
        <ele>318.4</ele>
        <time>2014-10-12T07:41:19.000Z</time>
      </trkpt>
      <trkpt lat="47.47744" lon="6.76184">
        <ele>318.2</ele>
        <time>2014-10-12T07:41:20.000Z</time>
      </trkpt>
      <trkpt lat="47.4774" lon="6.76177">
        <ele>317.7</ele>
        <time>2014-10-12T07:41:21.000Z</time>
      </trkpt>
      <trkpt lat="47.47735" lon="6.7617">
        <ele>317.7</ele>
        <time>2014-10-12T07:41:22.000Z</time>
      </trkpt>
      <trkpt lat="47.47731" lon="6.76163">
        <ele>317.5</ele>
        <time>2014-10-12T07:41:23.000Z</time>
      </trkpt>
      <trkpt lat="47.47726" lon="6.76156">
        <ele>317.1</ele>
        <time>2014-10-12T07:41:24.000Z</time>
      </trkpt>
      <trkpt lat="47.47722" lon="6.7615">
        <ele>316.8</ele>
        <time>2014-10-12T07:41:25.000Z</time>
      </trkpt>
      <trkpt lat="47.47718" lon="6.76143">
        <ele>316.7</ele>
        <time>2014-10-12T07:41:26.000Z</time>
      </trkpt>
      <trkpt lat="47.47714" lon="6.76137">
        <ele>316.7</ele>
        <time>2014-10-12T07:41:27.000Z</time>
      </trkpt>
      <trkpt lat="47.47711" lon="6.76131">
        <ele>316.4</ele>
        <time>2014-10-12T07:41:28.000Z</time>
      </trkpt>
      <trkpt lat="47.47706" lon="6.76124">
        <ele>316.7</ele>
        <time>2014-10-12T07:41:29.000Z</time>
      </trkpt>
      <trkpt lat="47.47702" lon="6.76117">
        <ele>316.5</ele>
        <time>2014-10-12T07:41:30.000Z</time>
      </trkpt>
      <trkpt lat="47.47698" lon="6.76111">
        <ele>316.5</ele>
        <time>2014-10-12T07:41:31.000Z</time>
      </trkpt>
      <trkpt lat="47.47695" lon="6.76105">
        <ele>315.8</ele>
        <time>2014-10-12T07:41:32.000Z</time>
      </trkpt>
      <trkpt lat="47.47691" lon="6.76099">
        <ele>316.1</ele>
        <time>2014-10-12T07:41:33.000Z</time>
      </trkpt>
      <trkpt lat="47.47686" lon="6.76093">
        <ele>315.5</ele>
        <time>2014-10-12T07:41:34.000Z</time>
      </trkpt>
      <trkpt lat="47.47682" lon="6.76086">
        <ele>316.1</ele>
        <time>2014-10-12T07:41:35.000Z</time>
      </trkpt>
      <trkpt lat="47.47678" lon="6.7608">
        <ele>316</ele>
        <time>2014-10-12T07:41:36.000Z</time>
      </trkpt>
      <trkpt lat="47.47674" lon="6.76074">
        <ele>316.2</ele>
        <time>2014-10-12T07:41:37.000Z</time>
      </trkpt>
      <trkpt lat="47.47671" lon="6.76066">
        <ele>316.1</ele>
        <time>2014-10-12T07:41:38.000Z</time>
      </trkpt>
      <trkpt lat="47.47669" lon="6.76059">
        <ele>316.5</ele>
        <time>2014-10-12T07:41:39.000Z</time>
      </trkpt>
      <trkpt lat="47.47667" lon="6.7605">
        <ele>317</ele>
        <time>2014-10-12T07:41:40.000Z</time>
      </trkpt>
      <trkpt lat="47.47666" lon="6.76042">
        <ele>317.1</ele>
        <time>2014-10-12T07:41:41.000Z</time>
      </trkpt>
      <trkpt lat="47.47665" lon="6.76033">
        <ele>317.5</ele>
        <time>2014-10-12T07:41:42.000Z</time>
      </trkpt>
      <trkpt lat="47.47665" lon="6.76024">
        <ele>317.4</ele>
        <time>2014-10-12T07:41:43.000Z</time>
      </trkpt>
      <trkpt lat="47.47665" lon="6.76015">
        <ele>317.1</ele>
        <time>2014-10-12T07:41:44.000Z</time>
      </trkpt>
      <trkpt lat="47.47667" lon="6.76007">
        <ele>317.7</ele>
        <time>2014-10-12T07:41:45.000Z</time>
      </trkpt>
      <trkpt lat="47.47667" lon="6.75999">
        <ele>317.5</ele>
        <time>2014-10-12T07:41:46.000Z</time>
      </trkpt>
      <trkpt lat="47.4767" lon="6.75991">
        <ele>317.7</ele>
        <time>2014-10-12T07:41:47.000Z</time>
      </trkpt>
      <trkpt lat="47.47695" lon="6.75932">
        <ele>315.2</ele>
        <time>2014-10-12T07:41:55.000Z</time>
      </trkpt>
      <trkpt lat="47.47696" lon="6.75922">
        <ele>315</ele>
        <time>2014-10-12T07:41:56.000Z</time>
      </trkpt>
      <trkpt lat="47.47697" lon="6.75913">
        <ele>314.7</ele>
        <time>2014-10-12T07:41:57.000Z</time>
      </trkpt>
      <trkpt lat="47.47696" lon="6.75903">
        <ele>314.3</ele>
        <time>2014-10-12T07:41:58.000Z</time>
      </trkpt>
      <trkpt lat="47.47697" lon="6.75893">
        <ele>313.9</ele>
        <time>2014-10-12T07:41:59.000Z</time>
      </trkpt>
      <trkpt lat="47.47697" lon="6.75883">
        <ele>314.3</ele>
        <time>2014-10-12T07:42:00.000Z</time>
      </trkpt>
      <trkpt lat="47.47697" lon="6.75874">
        <ele>313.5</ele>
        <time>2014-10-12T07:42:01.000Z</time>
      </trkpt>
      <trkpt lat="47.47697" lon="6.75864">
        <ele>313.3</ele>
        <time>2014-10-12T07:42:02.000Z</time>
      </trkpt>
      <trkpt lat="47.47698" lon="6.75853">
        <ele>314.1</ele>
        <time>2014-10-12T07:42:03.000Z</time>
      </trkpt>
      <trkpt lat="47.47698" lon="6.75843">
        <ele>314.8</ele>
        <time>2014-10-12T07:42:04.000Z</time>
      </trkpt>
      <trkpt lat="47.47699" lon="6.75833">
        <ele>314.9</ele>
        <time>2014-10-12T07:42:05.000Z</time>
      </trkpt>
      <trkpt lat="47.47699" lon="6.75823">
        <ele>314.9</ele>
        <time>2014-10-12T07:42:06.000Z</time>
      </trkpt>
      <trkpt lat="47.47699" lon="6.75814">
        <ele>314.3</ele>
        <time>2014-10-12T07:42:07.000Z</time>
      </trkpt>
      <trkpt lat="47.477" lon="6.75804">
        <ele>314.2</ele>
        <time>2014-10-12T07:42:08.000Z</time>
      </trkpt>
      <trkpt lat="47.477" lon="6.75793">
        <ele>314.8</ele>
        <time>2014-10-12T07:42:09.000Z</time>
      </trkpt>
      <trkpt lat="47.47701" lon="6.75784">
        <ele>313.9</ele>
        <time>2014-10-12T07:42:10.000Z</time>
      </trkpt>
      <trkpt lat="47.47701" lon="6.75774">
        <ele>313.3</ele>
        <time>2014-10-12T07:42:11.000Z</time>
      </trkpt>
      <trkpt lat="47.47701" lon="6.75763">
        <ele>313.4</ele>
        <time>2014-10-12T07:42:12.000Z</time>
      </trkpt>
      <trkpt lat="47.47701" lon="6.75753">
        <ele>314.5</ele>
        <time>2014-10-12T07:42:13.000Z</time>
      </trkpt>
      <trkpt lat="47.47702" lon="6.75742">
        <ele>314.7</ele>
        <time>2014-10-12T07:42:14.000Z</time>
      </trkpt>
      <trkpt lat="47.47701" lon="6.75732">
        <ele>315.1</ele>
        <time>2014-10-12T07:42:15.000Z</time>
      </trkpt>
      <trkpt lat="47.47701" lon="6.75723">
        <ele>315.7</ele>
        <time>2014-10-12T07:42:16.000Z</time>
      </trkpt>
      <trkpt lat="47.477" lon="6.75715">
        <ele>315.5</ele>
        <time>2014-10-12T07:42:17.000Z</time>
      </trkpt>
      <trkpt lat="47.47701" lon="6.75706">
        <ele>315.4</ele>
        <time>2014-10-12T07:42:18.000Z</time>
      </trkpt>
      <trkpt lat="47.47702" lon="6.75698">
        <ele>314.8</ele>
        <time>2014-10-12T07:42:19.000Z</time>
      </trkpt>
      <trkpt lat="47.47702" lon="6.75689">
        <ele>314.6</ele>
        <time>2014-10-12T07:42:20.000Z</time>
      </trkpt>
      <trkpt lat="47.47703" lon="6.7568">
        <ele>314.5</ele>
        <time>2014-10-12T07:42:21.000Z</time>
      </trkpt>
      <trkpt lat="47.47703" lon="6.7567">
        <ele>314.4</ele>
        <time>2014-10-12T07:42:22.000Z</time>
      </trkpt>
      <trkpt lat="47.47703" lon="6.75659">
        <ele>314.2</ele>
        <time>2014-10-12T07:42:23.000Z</time>
      </trkpt>
      <trkpt lat="47.47704" lon="6.75649">
        <ele>313.6</ele>
        <time>2014-10-12T07:42:24.000Z</time>
      </trkpt>
      <trkpt lat="47.47704" lon="6.75639">
        <ele>313.5</ele>
        <time>2014-10-12T07:42:25.000Z</time>
      </trkpt>
      <trkpt lat="47.47704" lon="6.75629">
        <ele>313.3</ele>
        <time>2014-10-12T07:42:26.000Z</time>
      </trkpt>
      <trkpt lat="47.47705" lon="6.75619">
        <ele>312.6</ele>
        <time>2014-10-12T07:42:27.000Z</time>
      </trkpt>
      <trkpt lat="47.47705" lon="6.75609">
        <ele>312.2</ele>
        <time>2014-10-12T07:42:28.000Z</time>
      </trkpt>
      <trkpt lat="47.47705" lon="6.75599">
        <ele>312.6</ele>
        <time>2014-10-12T07:42:29.000Z</time>
      </trkpt>
      <trkpt lat="47.47705" lon="6.75589">
        <ele>312.7</ele>
        <time>2014-10-12T07:42:30.000Z</time>
      </trkpt>
      <trkpt lat="47.47705" lon="6.75579">
        <ele>312.5</ele>
        <time>2014-10-12T07:42:31.000Z</time>
      </trkpt>
      <trkpt lat="47.47705" lon="6.75569">
        <ele>312.6</ele>
        <time>2014-10-12T07:42:32.000Z</time>
      </trkpt>
      <trkpt lat="47.47705" lon="6.75559">
        <ele>312.3</ele>
        <time>2014-10-12T07:42:33.000Z</time>
      </trkpt>
      <trkpt lat="47.47705" lon="6.7555">
        <ele>312.6</ele>
        <time>2014-10-12T07:42:34.000Z</time>
      </trkpt>
      <trkpt lat="47.47705" lon="6.7554">
        <ele>312.6</ele>
        <time>2014-10-12T07:42:35.000Z</time>
      </trkpt>
      <trkpt lat="47.47706" lon="6.7553">
        <ele>313.2</ele>
        <time>2014-10-12T07:42:36.000Z</time>
      </trkpt>
      <trkpt lat="47.47706" lon="6.7552">
        <ele>313.3</ele>
        <time>2014-10-12T07:42:37.000Z</time>
      </trkpt>
      <trkpt lat="47.47706" lon="6.75511">
        <ele>313.4</ele>
        <time>2014-10-12T07:42:38.000Z</time>
      </trkpt>
      <trkpt lat="47.47706" lon="6.75501">
        <ele>313.7</ele>
        <time>2014-10-12T07:42:39.000Z</time>
      </trkpt>
      <trkpt lat="47.47707" lon="6.7549">
        <ele>315.4</ele>
        <time>2014-10-12T07:42:40.000Z</time>
      </trkpt>
      <trkpt lat="47.47707" lon="6.75481">
        <ele>313.9</ele>
        <time>2014-10-12T07:42:41.000Z</time>
      </trkpt>
      <trkpt lat="47.47708" lon="6.75473">
        <ele>314.3</ele>
        <time>2014-10-12T07:42:42.000Z</time>
      </trkpt>
      <trkpt lat="47.47708" lon="6.75464">
        <ele>313</ele>
        <time>2014-10-12T07:42:43.000Z</time>
      </trkpt>
      <trkpt lat="47.47709" lon="6.75455">
        <ele>313.2</ele>
        <time>2014-10-12T07:42:44.000Z</time>
      </trkpt>
      <trkpt lat="47.47709" lon="6.75445">
        <ele>313.3</ele>
        <time>2014-10-12T07:42:45.000Z</time>
      </trkpt>
      <trkpt lat="47.47709" lon="6.75437">
        <ele>312.2</ele>
        <time>2014-10-12T07:42:46.000Z</time>
      </trkpt>
      <trkpt lat="47.4771" lon="6.75428">
        <ele>312.5</ele>
        <time>2014-10-12T07:42:47.000Z</time>
      </trkpt>
      <trkpt lat="47.47711" lon="6.75404">
        <ele>311.4</ele>
        <time>2014-10-12T07:42:50.000Z</time>
      </trkpt>
      <trkpt lat="47.47711" lon="6.75392">
        <ele>312</ele>
        <time>2014-10-12T07:42:51.000Z</time>
      </trkpt>
      <trkpt lat="47.47712" lon="6.75381">
        <ele>312.5</ele>
        <time>2014-10-12T07:42:52.000Z</time>
      </trkpt>
      <trkpt lat="47.47713" lon="6.7537">
        <ele>312.7</ele>
        <time>2014-10-12T07:42:53.000Z</time>
      </trkpt>
      <trkpt lat="47.47713" lon="6.7536">
        <ele>312.9</ele>
        <time>2014-10-12T07:42:54.000Z</time>
      </trkpt>
      <trkpt lat="47.47713" lon="6.7535">
        <ele>313.2</ele>
        <time>2014-10-12T07:42:55.000Z</time>
      </trkpt>
      <trkpt lat="47.47714" lon="6.75341">
        <ele>312.6</ele>
        <time>2014-10-12T07:42:56.000Z</time>
      </trkpt>
      <trkpt lat="47.47714" lon="6.7533">
        <ele>312.6</ele>
        <time>2014-10-12T07:42:57.000Z</time>
      </trkpt>
      <trkpt lat="47.47715" lon="6.75321">
        <ele>312.7</ele>
        <time>2014-10-12T07:42:58.000Z</time>
      </trkpt>
      <trkpt lat="47.47715" lon="6.75311">
        <ele>313.4</ele>
        <time>2014-10-12T07:42:59.000Z</time>
      </trkpt>
      <trkpt lat="47.47715" lon="6.75301">
        <ele>313.8</ele>
        <time>2014-10-12T07:43:00.000Z</time>
      </trkpt>
      <trkpt lat="47.47715" lon="6.75291">
        <ele>314</ele>
        <time>2014-10-12T07:43:01.000Z</time>
      </trkpt>
      <trkpt lat="47.47715" lon="6.75281">
        <ele>314.5</ele>
        <time>2014-10-12T07:43:02.000Z</time>
      </trkpt>
      <trkpt lat="47.47716" lon="6.75272">
        <ele>314.5</ele>
        <time>2014-10-12T07:43:03.000Z</time>
      </trkpt>
      <trkpt lat="47.47716" lon="6.75263">
        <ele>314.1</ele>
        <time>2014-10-12T07:43:04.000Z</time>
      </trkpt>
      <trkpt lat="47.47715" lon="6.75254">
        <ele>311.7</ele>
        <time>2014-10-12T07:43:05.000Z</time>
      </trkpt>
      <trkpt lat="47.47716" lon="6.75244">
        <ele>311.7</ele>
        <time>2014-10-12T07:43:06.000Z</time>
      </trkpt>
      <trkpt lat="47.47715" lon="6.75236">
        <ele>310.2</ele>
        <time>2014-10-12T07:43:07.000Z</time>
      </trkpt>
      <trkpt lat="47.47716" lon="6.75227">
        <ele>310.1</ele>
        <time>2014-10-12T07:43:08.000Z</time>
      </trkpt>
      <trkpt lat="47.47716" lon="6.75218">
        <ele>310.8</ele>
        <time>2014-10-12T07:43:09.000Z</time>
      </trkpt>
      <trkpt lat="47.47716" lon="6.75207">
        <ele>311.2</ele>
        <time>2014-10-12T07:43:10.000Z</time>
      </trkpt>
      <trkpt lat="47.47716" lon="6.75197">
        <ele>311.5</ele>
        <time>2014-10-12T07:43:11.000Z</time>
      </trkpt>
      <trkpt lat="47.47716" lon="6.75189">
        <ele>310.6</ele>
        <time>2014-10-12T07:43:12.000Z</time>
      </trkpt>
      <trkpt lat="47.47717" lon="6.75179">
        <ele>311.3</ele>
        <time>2014-10-12T07:43:13.000Z</time>
      </trkpt>
      <trkpt lat="47.47718" lon="6.75169">
        <ele>311.6</ele>
        <time>2014-10-12T07:43:14.000Z</time>
      </trkpt>
      <trkpt lat="47.47716" lon="6.7516">
        <ele>310</ele>
        <time>2014-10-12T07:43:15.000Z</time>
      </trkpt>
      <trkpt lat="47.47717" lon="6.7515">
        <ele>309.9</ele>
        <time>2014-10-12T07:43:16.000Z</time>
      </trkpt>
      <trkpt lat="47.47717" lon="6.7514">
        <ele>309.3</ele>
        <time>2014-10-12T07:43:17.000Z</time>
      </trkpt>
      <trkpt lat="47.47717" lon="6.7513">
        <ele>309.8</ele>
        <time>2014-10-12T07:43:18.000Z</time>
      </trkpt>
      <trkpt lat="47.47717" lon="6.7512">
        <ele>310.6</ele>
        <time>2014-10-12T07:43:19.000Z</time>
      </trkpt>
      <trkpt lat="47.47718" lon="6.7511">
        <ele>310.4</ele>
        <time>2014-10-12T07:43:20.000Z</time>
      </trkpt>
      <trkpt lat="47.47718" lon="6.751">
        <ele>310.1</ele>
        <time>2014-10-12T07:43:21.000Z</time>
      </trkpt>
      <trkpt lat="47.47719" lon="6.75091">
        <ele>310.6</ele>
        <time>2014-10-12T07:43:22.000Z</time>
      </trkpt>
      <trkpt lat="47.4772" lon="6.75082">
        <ele>310.9</ele>
        <time>2014-10-12T07:43:23.000Z</time>
      </trkpt>
      <trkpt lat="47.47721" lon="6.75072">
        <ele>310.7</ele>
        <time>2014-10-12T07:43:24.000Z</time>
      </trkpt>
      <trkpt lat="47.4772" lon="6.75063">
        <ele>309.8</ele>
        <time>2014-10-12T07:43:25.000Z</time>
      </trkpt>
      <trkpt lat="47.4772" lon="6.75054">
        <ele>308.4</ele>
        <time>2014-10-12T07:43:26.000Z</time>
      </trkpt>
      <trkpt lat="47.4772" lon="6.75045">
        <ele>307.3</ele>
        <time>2014-10-12T07:43:27.000Z</time>
      </trkpt>
      <trkpt lat="47.4772" lon="6.75034">
        <ele>306.8</ele>
        <time>2014-10-12T07:43:28.000Z</time>
      </trkpt>
      <trkpt lat="47.4772" lon="6.75024">
        <ele>306.7</ele>
        <time>2014-10-12T07:43:29.000Z</time>
      </trkpt>
      <trkpt lat="47.4772" lon="6.75015">
        <ele>306.9</ele>
        <time>2014-10-12T07:43:30.000Z</time>
      </trkpt>
      <trkpt lat="47.4772" lon="6.75005">
        <ele>306.9</ele>
        <time>2014-10-12T07:43:31.000Z</time>
      </trkpt>
      <trkpt lat="47.47721" lon="6.74995">
        <ele>307.5</ele>
        <time>2014-10-12T07:43:32.000Z</time>
      </trkpt>
      <trkpt lat="47.4772" lon="6.74987">
        <ele>304.7</ele>
        <time>2014-10-12T07:43:33.000Z</time>
      </trkpt>
      <trkpt lat="47.4772" lon="6.74977">
        <ele>305.2</ele>
        <time>2014-10-12T07:43:34.000Z</time>
      </trkpt>
      <trkpt lat="47.47721" lon="6.74967">
        <ele>306.7</ele>
        <time>2014-10-12T07:43:35.000Z</time>
      </trkpt>
      <trkpt lat="47.47722" lon="6.74956">
        <ele>308.2</ele>
        <time>2014-10-12T07:43:36.000Z</time>
      </trkpt>
      <trkpt lat="47.47723" lon="6.74947">
        <ele>308.6</ele>
        <time>2014-10-12T07:43:37.000Z</time>
      </trkpt>
      <trkpt lat="47.47723" lon="6.74937">
        <ele>308.5</ele>
        <time>2014-10-12T07:43:38.000Z</time>
      </trkpt>
      <trkpt lat="47.47723" lon="6.74928">
        <ele>308.7</ele>
        <time>2014-10-12T07:43:39.000Z</time>
      </trkpt>
      <trkpt lat="47.47724" lon="6.74919">
        <ele>309</ele>
        <time>2014-10-12T07:43:40.000Z</time>
      </trkpt>
      <trkpt lat="47.47725" lon="6.7491">
        <ele>309.6</ele>
        <time>2014-10-12T07:43:41.000Z</time>
      </trkpt>
      <trkpt lat="47.47725" lon="6.74901">
        <ele>309.4</ele>
        <time>2014-10-12T07:43:42.000Z</time>
      </trkpt>
      <trkpt lat="47.47725" lon="6.74892">
        <ele>309.7</ele>
        <time>2014-10-12T07:43:43.000Z</time>
      </trkpt>
      <trkpt lat="47.47725" lon="6.74882">
        <ele>310</ele>
        <time>2014-10-12T07:43:44.000Z</time>
      </trkpt>
      <trkpt lat="47.47725" lon="6.74875">
        <ele>308.4</ele>
        <time>2014-10-12T07:43:45.000Z</time>
      </trkpt>
      <trkpt lat="47.47725" lon="6.74866">
        <ele>308.4</ele>
        <time>2014-10-12T07:43:46.000Z</time>
      </trkpt>
      <trkpt lat="47.47725" lon="6.74857">
        <ele>307.9</ele>
        <time>2014-10-12T07:43:47.000Z</time>
      </trkpt>
      <trkpt lat="47.47727" lon="6.74787">
        <ele>310.6</ele>
        <time>2014-10-12T07:43:55.000Z</time>
      </trkpt>
      <trkpt lat="47.47726" lon="6.74778">
        <ele>310.5</ele>
        <time>2014-10-12T07:43:56.000Z</time>
      </trkpt>
      <trkpt lat="47.47728" lon="6.7477">
        <ele>311.5</ele>
        <time>2014-10-12T07:43:57.000Z</time>
      </trkpt>
      <trkpt lat="47.47728" lon="6.7476">
        <ele>311.1</ele>
        <time>2014-10-12T07:43:58.000Z</time>
      </trkpt>
      <trkpt lat="47.47728" lon="6.74752">
        <ele>310.9</ele>
        <time>2014-10-12T07:43:59.000Z</time>
      </trkpt>
      <trkpt lat="47.47729" lon="6.74744">
        <ele>310.8</ele>
        <time>2014-10-12T07:44:00.000Z</time>
      </trkpt>
      <trkpt lat="47.4773" lon="6.74735">
        <ele>311.1</ele>
        <time>2014-10-12T07:44:01.000Z</time>
      </trkpt>
      <trkpt lat="47.47731" lon="6.74726">
        <ele>311.9</ele>
        <time>2014-10-12T07:44:02.000Z</time>
      </trkpt>
      <trkpt lat="47.47731" lon="6.74717">
        <ele>311.4</ele>
        <time>2014-10-12T07:44:03.000Z</time>
      </trkpt>
      <trkpt lat="47.47731" lon="6.74707">
        <ele>312.1</ele>
        <time>2014-10-12T07:44:04.000Z</time>
      </trkpt>
      <trkpt lat="47.47731" lon="6.74698">
        <ele>312</ele>
        <time>2014-10-12T07:44:05.000Z</time>
      </trkpt>
      <trkpt lat="47.47731" lon="6.74689">
        <ele>312</ele>
        <time>2014-10-12T07:44:06.000Z</time>
      </trkpt>
      <trkpt lat="47.47731" lon="6.7468">
        <ele>310.9</ele>
        <time>2014-10-12T07:44:07.000Z</time>
      </trkpt>
      <trkpt lat="47.47731" lon="6.7467">
        <ele>311.2</ele>
        <time>2014-10-12T07:44:08.000Z</time>
      </trkpt>
      <trkpt lat="47.47731" lon="6.74661">
        <ele>312.3</ele>
        <time>2014-10-12T07:44:09.000Z</time>
      </trkpt>
      <trkpt lat="47.47731" lon="6.74651">
        <ele>314.3</ele>
        <time>2014-10-12T07:44:10.000Z</time>
      </trkpt>
      <trkpt lat="47.47731" lon="6.74641">
        <ele>314.6</ele>
        <time>2014-10-12T07:44:11.000Z</time>
      </trkpt>
      <trkpt lat="47.47731" lon="6.74632">
        <ele>314.3</ele>
        <time>2014-10-12T07:44:12.000Z</time>
      </trkpt>
      <trkpt lat="47.47731" lon="6.74623">
        <ele>314.4</ele>
        <time>2014-10-12T07:44:13.000Z</time>
      </trkpt>
      <trkpt lat="47.47732" lon="6.74613">
        <ele>314.7</ele>
        <time>2014-10-12T07:44:14.000Z</time>
      </trkpt>
      <trkpt lat="47.47731" lon="6.74605">
        <ele>314.8</ele>
        <time>2014-10-12T07:44:15.000Z</time>
      </trkpt>
      <trkpt lat="47.47731" lon="6.74595">
        <ele>314.8</ele>
        <time>2014-10-12T07:44:16.000Z</time>
      </trkpt>
      <trkpt lat="47.4773" lon="6.74586">
        <ele>315.6</ele>
        <time>2014-10-12T07:44:17.000Z</time>
      </trkpt>
      <trkpt lat="47.47729" lon="6.74578">
        <ele>314</ele>
        <time>2014-10-12T07:44:18.000Z</time>
      </trkpt>
      <trkpt lat="47.47728" lon="6.7457">
        <ele>313.3</ele>
        <time>2014-10-12T07:44:19.000Z</time>
      </trkpt>
      <trkpt lat="47.47728" lon="6.7456">
        <ele>313.3</ele>
        <time>2014-10-12T07:44:20.000Z</time>
      </trkpt>
      <trkpt lat="47.47728" lon="6.74551">
        <ele>313.5</ele>
        <time>2014-10-12T07:44:21.000Z</time>
      </trkpt>
      <trkpt lat="47.47727" lon="6.74542">
        <ele>313.1</ele>
        <time>2014-10-12T07:44:22.000Z</time>
      </trkpt>
      <trkpt lat="47.47726" lon="6.74533">
        <ele>313.5</ele>
        <time>2014-10-12T07:44:23.000Z</time>
      </trkpt>
      <trkpt lat="47.47729" lon="6.74524">
        <ele>313.6</ele>
        <time>2014-10-12T07:44:24.000Z</time>
      </trkpt>
      <trkpt lat="47.47732" lon="6.74515">
        <ele>313.3</ele>
        <time>2014-10-12T07:44:25.000Z</time>
      </trkpt>
      <trkpt lat="47.47733" lon="6.74506">
        <ele>313.1</ele>
        <time>2014-10-12T07:44:26.000Z</time>
      </trkpt>
      <trkpt lat="47.47734" lon="6.74497">
        <ele>313.6</ele>
        <time>2014-10-12T07:44:27.000Z</time>
      </trkpt>
      <trkpt lat="47.4773" lon="6.74489">
        <ele>312.1</ele>
        <time>2014-10-12T07:44:28.000Z</time>
      </trkpt>
      <trkpt lat="47.47728" lon="6.74481">
        <ele>312.1</ele>
        <time>2014-10-12T07:44:29.000Z</time>
      </trkpt>
      <trkpt lat="47.47725" lon="6.74471">
        <ele>312.7</ele>
        <time>2014-10-12T07:44:30.000Z</time>
      </trkpt>
      <trkpt lat="47.47724" lon="6.74463">
        <ele>312.9</ele>
        <time>2014-10-12T07:44:31.000Z</time>
      </trkpt>
      <trkpt lat="47.47723" lon="6.74453">
        <ele>312.7</ele>
        <time>2014-10-12T07:44:32.000Z</time>
      </trkpt>
      <trkpt lat="47.47723" lon="6.74444">
        <ele>312.5</ele>
        <time>2014-10-12T07:44:33.000Z</time>
      </trkpt>
      <trkpt lat="47.47722" lon="6.74435">
        <ele>312</ele>
        <time>2014-10-12T07:44:34.000Z</time>
      </trkpt>
      <trkpt lat="47.47722" lon="6.74425">
        <ele>311.8</ele>
        <time>2014-10-12T07:44:35.000Z</time>
      </trkpt>
      <trkpt lat="47.47721" lon="6.74416">
        <ele>311.8</ele>
        <time>2014-10-12T07:44:36.000Z</time>
      </trkpt>
      <trkpt lat="47.4772" lon="6.74406">
        <ele>311.6</ele>
        <time>2014-10-12T07:44:37.000Z</time>
      </trkpt>
      <trkpt lat="47.47719" lon="6.74397">
        <ele>311.6</ele>
        <time>2014-10-12T07:44:38.000Z</time>
      </trkpt>
      <trkpt lat="47.47718" lon="6.74388">
        <ele>312</ele>
        <time>2014-10-12T07:44:39.000Z</time>
      </trkpt>
      <trkpt lat="47.47717" lon="6.74378">
        <ele>311.9</ele>
        <time>2014-10-12T07:44:40.000Z</time>
      </trkpt>
      <trkpt lat="47.47716" lon="6.74369">
        <ele>312.1</ele>
        <time>2014-10-12T07:44:41.000Z</time>
      </trkpt>
      <trkpt lat="47.47715" lon="6.74359">
        <ele>312.5</ele>
        <time>2014-10-12T07:44:42.000Z</time>
      </trkpt>
      <trkpt lat="47.47714" lon="6.7435">
        <ele>312.6</ele>
        <time>2014-10-12T07:44:43.000Z</time>
      </trkpt>
      <trkpt lat="47.47712" lon="6.7434">
        <ele>312.4</ele>
        <time>2014-10-12T07:44:44.000Z</time>
      </trkpt>
      <trkpt lat="47.47711" lon="6.74331">
        <ele>312.2</ele>
        <time>2014-10-12T07:44:45.000Z</time>
      </trkpt>
      <trkpt lat="47.4771" lon="6.74322">
        <ele>312.4</ele>
        <time>2014-10-12T07:44:46.000Z</time>
      </trkpt>
      <trkpt lat="47.47709" lon="6.74312">
        <ele>312.5</ele>
        <time>2014-10-12T07:44:47.000Z</time>
      </trkpt>
      <trkpt lat="47.47705" lon="6.74288">
        <ele>313</ele>
        <time>2014-10-12T07:44:50.000Z</time>
      </trkpt>
      <trkpt lat="47.47703" lon="6.74277">
        <ele>312.9</ele>
        <time>2014-10-12T07:44:51.000Z</time>
      </trkpt>
      <trkpt lat="47.47702" lon="6.74268">
        <ele>312.7</ele>
        <time>2014-10-12T07:44:52.000Z</time>
      </trkpt>
      <trkpt lat="47.47701" lon="6.74258">
        <ele>312.9</ele>
        <time>2014-10-12T07:44:53.000Z</time>
      </trkpt>
      <trkpt lat="47.47699" lon="6.74248">
        <ele>312.5</ele>
        <time>2014-10-12T07:44:54.000Z</time>
      </trkpt>
      <trkpt lat="47.47698" lon="6.74237">
        <ele>312.3</ele>
        <time>2014-10-12T07:44:55.000Z</time>
      </trkpt>
      <trkpt lat="47.47697" lon="6.74229">
        <ele>312.5</ele>
        <time>2014-10-12T07:44:56.000Z</time>
      </trkpt>
      <trkpt lat="47.47695" lon="6.74219">
        <ele>312</ele>
        <time>2014-10-12T07:44:57.000Z</time>
      </trkpt>
      <trkpt lat="47.47694" lon="6.7421">
        <ele>312.3</ele>
        <time>2014-10-12T07:44:58.000Z</time>
      </trkpt>
      <trkpt lat="47.47693" lon="6.74202">
        <ele>312.8</ele>
        <time>2014-10-12T07:44:59.000Z</time>
      </trkpt>
      <trkpt lat="47.47691" lon="6.74192">
        <ele>312.9</ele>
        <time>2014-10-12T07:45:00.000Z</time>
      </trkpt>
      <trkpt lat="47.47689" lon="6.74183">
        <ele>313.5</ele>
        <time>2014-10-12T07:45:01.000Z</time>
      </trkpt>
      <trkpt lat="47.47687" lon="6.74175">
        <ele>313.3</ele>
        <time>2014-10-12T07:45:02.000Z</time>
      </trkpt>
      <trkpt lat="47.47685" lon="6.74165">
        <ele>313</ele>
        <time>2014-10-12T07:45:03.000Z</time>
      </trkpt>
      <trkpt lat="47.47683" lon="6.74157">
        <ele>313.2</ele>
        <time>2014-10-12T07:45:04.000Z</time>
      </trkpt>
      <trkpt lat="47.47681" lon="6.74148">
        <ele>313</ele>
        <time>2014-10-12T07:45:05.000Z</time>
      </trkpt>
      <trkpt lat="47.47679" lon="6.7414">
        <ele>312.8</ele>
        <time>2014-10-12T07:45:06.000Z</time>
      </trkpt>
      <trkpt lat="47.47677" lon="6.74131">
        <ele>312.2</ele>
        <time>2014-10-12T07:45:07.000Z</time>
      </trkpt>
      <trkpt lat="47.47676" lon="6.74123">
        <ele>312.4</ele>
        <time>2014-10-12T07:45:08.000Z</time>
      </trkpt>
      <trkpt lat="47.47675" lon="6.74116">
        <ele>312.9</ele>
        <time>2014-10-12T07:45:09.000Z</time>
      </trkpt>
      <trkpt lat="47.47674" lon="6.74109">
        <ele>312.6</ele>
        <time>2014-10-12T07:45:10.000Z</time>
      </trkpt>
      <trkpt lat="47.47671" lon="6.74106">
        <ele>312.3</ele>
        <time>2014-10-12T07:45:11.000Z</time>
      </trkpt>
      <trkpt lat="47.47667" lon="6.74107">
        <ele>311.7</ele>
        <time>2014-10-12T07:45:13.000Z</time>
      </trkpt>
      <trkpt lat="47.47666" lon="6.74108">
        <ele>311.4</ele>
        <time>2014-10-12T07:45:14.000Z</time>
      </trkpt>
      <trkpt lat="47.47662" lon="6.7411">
        <ele>311.6</ele>
        <time>2014-10-12T07:45:23.000Z</time>
      </trkpt>
      <trkpt lat="47.4766" lon="6.7411">
        <ele>311.1</ele>
        <time>2014-10-12T07:45:24.000Z</time>
      </trkpt>
      <trkpt lat="47.47658" lon="6.74109">
        <ele>309.8</ele>
        <time>2014-10-12T07:45:25.000Z</time>
      </trkpt>
      <trkpt lat="47.47655" lon="6.74108">
        <ele>310.3</ele>
        <time>2014-10-12T07:45:26.000Z</time>
      </trkpt>
      <trkpt lat="47.47652" lon="6.74106">
        <ele>311.2</ele>
        <time>2014-10-12T07:45:27.000Z</time>
      </trkpt>
      <trkpt lat="47.47649" lon="6.74103">
        <ele>311</ele>
        <time>2014-10-12T07:45:28.000Z</time>
      </trkpt>
      <trkpt lat="47.47646" lon="6.74098">
        <ele>311.4</ele>
        <time>2014-10-12T07:45:29.000Z</time>
      </trkpt>
      <trkpt lat="47.47643" lon="6.74093">
        <ele>311.4</ele>
        <time>2014-10-12T07:45:30.000Z</time>
      </trkpt>
      <trkpt lat="47.47641" lon="6.74081">
        <ele>311.3</ele>
        <time>2014-10-12T07:45:31.000Z</time>
      </trkpt>
      <trkpt lat="47.4764" lon="6.74075">
        <ele>311.9</ele>
        <time>2014-10-12T07:45:32.000Z</time>
      </trkpt>
      <trkpt lat="47.47638" lon="6.74069">
        <ele>312.2</ele>
        <time>2014-10-12T07:45:33.000Z</time>
      </trkpt>
      <trkpt lat="47.47635" lon="6.74062">
        <ele>311.6</ele>
        <time>2014-10-12T07:45:34.000Z</time>
      </trkpt>
      <trkpt lat="47.47632" lon="6.74057">
        <ele>311.4</ele>
        <time>2014-10-12T07:45:35.000Z</time>
      </trkpt>
      <trkpt lat="47.47627" lon="6.74055">
        <ele>310.5</ele>
        <time>2014-10-12T07:45:36.000Z</time>
      </trkpt>
      <trkpt lat="47.47623" lon="6.74054">
        <ele>309.9</ele>
        <time>2014-10-12T07:45:37.000Z</time>
      </trkpt>
      <trkpt lat="47.47619" lon="6.74054">
        <ele>309.4</ele>
        <time>2014-10-12T07:45:38.000Z</time>
      </trkpt>
      <trkpt lat="47.47614" lon="6.74057">
        <ele>309.5</ele>
        <time>2014-10-12T07:45:39.000Z</time>
      </trkpt>
      <trkpt lat="47.47609" lon="6.74058">
        <ele>309.4</ele>
        <time>2014-10-12T07:45:40.000Z</time>
      </trkpt>
      <trkpt lat="47.47604" lon="6.74059">
        <ele>309.5</ele>
        <time>2014-10-12T07:45:41.000Z</time>
      </trkpt>
      <trkpt lat="47.47599" lon="6.74061">
        <ele>309.6</ele>
        <time>2014-10-12T07:45:42.000Z</time>
      </trkpt>
      <trkpt lat="47.47593" lon="6.74063">
        <ele>308.8</ele>
        <time>2014-10-12T07:45:43.000Z</time>
      </trkpt>
      <trkpt lat="47.47589" lon="6.74066">
        <ele>308.7</ele>
        <time>2014-10-12T07:45:44.000Z</time>
      </trkpt>
      <trkpt lat="47.47583" lon="6.74069">
        <ele>307.9</ele>
        <time>2014-10-12T07:45:45.000Z</time>
      </trkpt>
      <trkpt lat="47.47578" lon="6.74074">
        <ele>308.9</ele>
        <time>2014-10-12T07:45:46.000Z</time>
      </trkpt>
      <trkpt lat="47.47573" lon="6.74077">
        <ele>307.5</ele>
        <time>2014-10-12T07:45:47.000Z</time>
      </trkpt>
      <trkpt lat="47.47535" lon="6.74108">
        <ele>308.8</ele>
        <time>2014-10-12T07:45:55.000Z</time>
      </trkpt>
      <trkpt lat="47.47529" lon="6.74113">
        <ele>308.5</ele>
        <time>2014-10-12T07:45:56.000Z</time>
      </trkpt>
      <trkpt lat="47.47524" lon="6.74117">
        <ele>306.3</ele>
        <time>2014-10-12T07:45:57.000Z</time>
      </trkpt>
      <trkpt lat="47.47519" lon="6.74121">
        <ele>306.7</ele>
        <time>2014-10-12T07:45:58.000Z</time>
      </trkpt>
      <trkpt lat="47.47513" lon="6.74126">
        <ele>307.7</ele>
        <time>2014-10-12T07:45:59.000Z</time>
      </trkpt>
      <trkpt lat="47.47508" lon="6.7413">
        <ele>307.8</ele>
        <time>2014-10-12T07:46:00.000Z</time>
      </trkpt>
      <trkpt lat="47.47504" lon="6.74134">
        <ele>307.7</ele>
        <time>2014-10-12T07:46:01.000Z</time>
      </trkpt>
      <trkpt lat="47.47499" lon="6.74138">
        <ele>308.3</ele>
        <time>2014-10-12T07:46:02.000Z</time>
      </trkpt>
      <trkpt lat="47.47494" lon="6.74141">
        <ele>308.3</ele>
        <time>2014-10-12T07:46:03.000Z</time>
      </trkpt>
      <trkpt lat="47.4749" lon="6.74145">
        <ele>308.4</ele>
        <time>2014-10-12T07:46:04.000Z</time>
      </trkpt>
      <trkpt lat="47.47485" lon="6.74149">
        <ele>307.8</ele>
        <time>2014-10-12T07:46:05.000Z</time>
      </trkpt>
      <trkpt lat="47.4748" lon="6.74153">
        <ele>308</ele>
        <time>2014-10-12T07:46:06.000Z</time>
      </trkpt>
      <trkpt lat="47.47476" lon="6.74157">
        <ele>308.6</ele>
        <time>2014-10-12T07:46:07.000Z</time>
      </trkpt>
      <trkpt lat="47.47472" lon="6.7416">
        <ele>309</ele>
        <time>2014-10-12T07:46:08.000Z</time>
      </trkpt>
      <trkpt lat="47.47468" lon="6.74163">
        <ele>309.2</ele>
        <time>2014-10-12T07:46:09.000Z</time>
      </trkpt>
      <trkpt lat="47.47463" lon="6.74166">
        <ele>308.8</ele>
        <time>2014-10-12T07:46:10.000Z</time>
      </trkpt>
      <trkpt lat="47.47458" lon="6.74168">
        <ele>309.2</ele>
        <time>2014-10-12T07:46:11.000Z</time>
      </trkpt>
      <trkpt lat="47.47453" lon="6.74172">
        <ele>308.4</ele>
        <time>2014-10-12T07:46:12.000Z</time>
      </trkpt>
      <trkpt lat="47.47446" lon="6.74175">
        <ele>308.2</ele>
        <time>2014-10-12T07:46:13.000Z</time>
      </trkpt>
      <trkpt lat="47.47441" lon="6.74178">
        <ele>307.9</ele>
        <time>2014-10-12T07:46:14.000Z</time>
      </trkpt>
      <trkpt lat="47.47435" lon="6.74181">
        <ele>309.1</ele>
        <time>2014-10-12T07:46:15.000Z</time>
      </trkpt>
      <trkpt lat="47.47429" lon="6.74183">
        <ele>308.2</ele>
        <time>2014-10-12T07:46:16.000Z</time>
      </trkpt>
      <trkpt lat="47.47423" lon="6.74186">
        <ele>307.4</ele>
        <time>2014-10-12T07:46:17.000Z</time>
      </trkpt>
      <trkpt lat="47.47418" lon="6.74188">
        <ele>307.1</ele>
        <time>2014-10-12T07:46:18.000Z</time>
      </trkpt>
      <trkpt lat="47.47412" lon="6.7419">
        <ele>307.1</ele>
        <time>2014-10-12T07:46:19.000Z</time>
      </trkpt>
      <trkpt lat="47.47407" lon="6.74193">
        <ele>307.2</ele>
        <time>2014-10-12T07:46:20.000Z</time>
      </trkpt>
      <trkpt lat="47.47402" lon="6.74194">
        <ele>306.9</ele>
        <time>2014-10-12T07:46:21.000Z</time>
      </trkpt>
      <trkpt lat="47.47397" lon="6.74197">
        <ele>307.5</ele>
        <time>2014-10-12T07:46:22.000Z</time>
      </trkpt>
      <trkpt lat="47.47392" lon="6.74199">
        <ele>306.9</ele>
        <time>2014-10-12T07:46:23.000Z</time>
      </trkpt>
      <trkpt lat="47.47387" lon="6.74202">
        <ele>307.6</ele>
        <time>2014-10-12T07:46:24.000Z</time>
      </trkpt>
      <trkpt lat="47.47382" lon="6.74204">
        <ele>307.1</ele>
        <time>2014-10-12T07:46:25.000Z</time>
      </trkpt>
      <trkpt lat="47.47377" lon="6.74206">
        <ele>307.2</ele>
        <time>2014-10-12T07:46:26.000Z</time>
      </trkpt>
      <trkpt lat="47.47373" lon="6.74209">
        <ele>307.7</ele>
        <time>2014-10-12T07:46:27.000Z</time>
      </trkpt>
      <trkpt lat="47.47368" lon="6.74211">
        <ele>308.2</ele>
        <time>2014-10-12T07:46:28.000Z</time>
      </trkpt>
      <trkpt lat="47.47363" lon="6.74214">
        <ele>308.9</ele>
        <time>2014-10-12T07:46:29.000Z</time>
      </trkpt>
      <trkpt lat="47.47358" lon="6.74216">
        <ele>309.4</ele>
        <time>2014-10-12T07:46:30.000Z</time>
      </trkpt>
      <trkpt lat="47.47353" lon="6.74219">
        <ele>309.4</ele>
        <time>2014-10-12T07:46:31.000Z</time>
      </trkpt>
      <trkpt lat="47.47348" lon="6.74223">
        <ele>309.7</ele>
        <time>2014-10-12T07:46:32.000Z</time>
      </trkpt>
      <trkpt lat="47.47343" lon="6.74226">
        <ele>309.4</ele>
        <time>2014-10-12T07:46:33.000Z</time>
      </trkpt>
      <trkpt lat="47.47339" lon="6.74229">
        <ele>309.7</ele>
        <time>2014-10-12T07:46:34.000Z</time>
      </trkpt>
      <trkpt lat="47.47334" lon="6.74232">
        <ele>310.1</ele>
        <time>2014-10-12T07:46:35.000Z</time>
      </trkpt>
      <trkpt lat="47.4733" lon="6.74234">
        <ele>310.9</ele>
        <time>2014-10-12T07:46:36.000Z</time>
      </trkpt>
      <trkpt lat="47.47325" lon="6.74237">
        <ele>310.9</ele>
        <time>2014-10-12T07:46:37.000Z</time>
      </trkpt>
      <trkpt lat="47.47321" lon="6.74239">
        <ele>310.9</ele>
        <time>2014-10-12T07:46:38.000Z</time>
      </trkpt>
      <trkpt lat="47.47316" lon="6.74242">
        <ele>311.2</ele>
        <time>2014-10-12T07:46:39.000Z</time>
      </trkpt>
      <trkpt lat="47.47312" lon="6.74245">
        <ele>311.7</ele>
        <time>2014-10-12T07:46:40.000Z</time>
      </trkpt>
      <trkpt lat="47.47307" lon="6.74246">
        <ele>311.8</ele>
        <time>2014-10-12T07:46:41.000Z</time>
      </trkpt>
      <trkpt lat="47.47302" lon="6.74248">
        <ele>312.1</ele>
        <time>2014-10-12T07:46:42.000Z</time>
      </trkpt>
      <trkpt lat="47.47297" lon="6.7425">
        <ele>312.1</ele>
        <time>2014-10-12T07:46:43.000Z</time>
      </trkpt>
      <trkpt lat="47.47292" lon="6.74251">
        <ele>311.2</ele>
        <time>2014-10-12T07:46:44.000Z</time>
      </trkpt>
      <trkpt lat="47.47287" lon="6.74253">
        <ele>311.5</ele>
        <time>2014-10-12T07:46:45.000Z</time>
      </trkpt>
      <trkpt lat="47.47282" lon="6.74255">
        <ele>312.8</ele>
        <time>2014-10-12T07:46:46.000Z</time>
      </trkpt>
      <trkpt lat="47.47277" lon="6.74256">
        <ele>313.1</ele>
        <time>2014-10-12T07:46:47.000Z</time>
      </trkpt>
      <trkpt lat="47.47266" lon="6.7426">
        <ele>313.2</ele>
        <time>2014-10-12T07:46:50.000Z</time>
      </trkpt>
      <trkpt lat="47.47264" lon="6.74262">
        <ele>313.7</ele>
        <time>2014-10-12T07:46:51.000Z</time>
      </trkpt>
      <trkpt lat="47.4726" lon="6.74264">
        <ele>313.7</ele>
        <time>2014-10-12T07:46:52.000Z</time>
      </trkpt>
      <trkpt lat="47.47257" lon="6.74269">
        <ele>314.3</ele>
        <time>2014-10-12T07:46:53.000Z</time>
      </trkpt>
      <trkpt lat="47.47255" lon="6.74274">
        <ele>314.1</ele>
        <time>2014-10-12T07:46:54.000Z</time>
      </trkpt>
      <trkpt lat="47.47253" lon="6.74281">
        <ele>315.1</ele>
        <time>2014-10-12T07:46:55.000Z</time>
      </trkpt>
      <trkpt lat="47.47252" lon="6.74287">
        <ele>315.5</ele>
        <time>2014-10-12T07:46:56.000Z</time>
      </trkpt>
      <trkpt lat="47.47251" lon="6.74294">
        <ele>315.3</ele>
        <time>2014-10-12T07:46:57.000Z</time>
      </trkpt>
      <trkpt lat="47.4725" lon="6.74299">
        <ele>315</ele>
        <time>2014-10-12T07:46:58.000Z</time>
      </trkpt>
      <trkpt lat="47.47249" lon="6.74305">
        <ele>315.2</ele>
        <time>2014-10-12T07:46:59.000Z</time>
      </trkpt>
      <trkpt lat="47.47248" lon="6.74311">
        <ele>313.3</ele>
        <time>2014-10-12T07:47:00.000Z</time>
      </trkpt>
      <trkpt lat="47.47247" lon="6.74316">
        <ele>313.7</ele>
        <time>2014-10-12T07:47:01.000Z</time>
      </trkpt>
      <trkpt lat="47.47245" lon="6.74322">
        <ele>313.9</ele>
        <time>2014-10-12T07:47:02.000Z</time>
      </trkpt>
      <trkpt lat="47.47243" lon="6.74327">
        <ele>313.2</ele>
        <time>2014-10-12T07:47:03.000Z</time>
      </trkpt>
      <trkpt lat="47.4724" lon="6.74331">
        <ele>312.8</ele>
        <time>2014-10-12T07:47:04.000Z</time>
      </trkpt>
      <trkpt lat="47.47238" lon="6.74335">
        <ele>307.5</ele>
        <time>2014-10-12T07:47:05.000Z</time>
      </trkpt>
      <trkpt lat="47.47236" lon="6.74339">
        <ele>307.2</ele>
        <time>2014-10-12T07:47:06.000Z</time>
      </trkpt>
      <trkpt lat="47.47234" lon="6.74342">
        <ele>306.8</ele>
        <time>2014-10-12T07:47:07.000Z</time>
      </trkpt>
      <trkpt lat="47.47231" lon="6.74345">
        <ele>307.6</ele>
        <time>2014-10-12T07:47:08.000Z</time>
      </trkpt>
      <trkpt lat="47.47228" lon="6.74348">
        <ele>307.6</ele>
        <time>2014-10-12T07:47:09.000Z</time>
      </trkpt>
      <trkpt lat="47.47225" lon="6.74352">
        <ele>306.9</ele>
        <time>2014-10-12T07:47:10.000Z</time>
      </trkpt>
      <trkpt lat="47.47222" lon="6.74355">
        <ele>306.4</ele>
        <time>2014-10-12T07:47:11.000Z</time>
      </trkpt>
      <trkpt lat="47.47219" lon="6.74357">
        <ele>307.7</ele>
        <time>2014-10-12T07:47:12.000Z</time>
      </trkpt>
      <trkpt lat="47.47217" lon="6.74358">
        <ele>308.2</ele>
        <time>2014-10-12T07:47:13.000Z</time>
      </trkpt>
      <trkpt lat="47.47214" lon="6.74358">
        <ele>308.6</ele>
        <time>2014-10-12T07:47:14.000Z</time>
      </trkpt>
      <trkpt lat="47.47212" lon="6.74359">
        <ele>308.8</ele>
        <time>2014-10-12T07:47:14.998Z</time>
      </trkpt>
      <trkpt lat="47.47208" lon="6.74356">
        <ele>306.6</ele>
        <time>2014-10-12T07:47:17.000Z</time>
      </trkpt>
      <trkpt lat="47.47207" lon="6.74355">
        <ele>306</ele>
        <time>2014-10-12T07:47:18.000Z</time>
      </trkpt>
      <trkpt lat="47.47204" lon="6.74353">
        <ele>305.5</ele>
        <time>2014-10-12T07:47:20.000Z</time>
      </trkpt>
      <trkpt lat="47.47203" lon="6.74352">
        <ele>305.8</ele>
        <time>2014-10-12T07:47:21.000Z</time>
      </trkpt>
      <trkpt lat="47.472" lon="6.74352">
        <ele>304.8</ele>
        <time>2014-10-12T07:47:22.000Z</time>
      </trkpt>
      <trkpt lat="47.47198" lon="6.74352">
        <ele>303.5</ele>
        <time>2014-10-12T07:47:23.000Z</time>
      </trkpt>
      <trkpt lat="47.47196" lon="6.74352">
        <ele>302.2</ele>
        <time>2014-10-12T07:47:23.999Z</time>
      </trkpt>
      <trkpt lat="47.47192" lon="6.74353">
        <ele>303.4</ele>
        <time>2014-10-12T07:47:25.000Z</time>
      </trkpt>
      <trkpt lat="47.47189" lon="6.74353">
        <ele>303.5</ele>
        <time>2014-10-12T07:47:26.000Z</time>
      </trkpt>
      <trkpt lat="47.47185" lon="6.74353">
        <ele>303.7</ele>
        <time>2014-10-12T07:47:27.000Z</time>
      </trkpt>
      <trkpt lat="47.47182" lon="6.74354">
        <ele>304.1</ele>
        <time>2014-10-12T07:47:28.000Z</time>
      </trkpt>
      <trkpt lat="47.4718" lon="6.74353">
        <ele>301.5</ele>
        <time>2014-10-12T07:47:29.000Z</time>
      </trkpt>
      <trkpt lat="47.47178" lon="6.74353">
        <ele>302.3</ele>
        <time>2014-10-12T07:47:30.000Z</time>
      </trkpt>
      <trkpt lat="47.47175" lon="6.74353">
        <ele>302.8</ele>
        <time>2014-10-12T07:47:31.000Z</time>
      </trkpt>
      <trkpt lat="47.47173" lon="6.74353">
        <ele>303.9</ele>
        <time>2014-10-12T07:47:32.000Z</time>
      </trkpt>
      <trkpt lat="47.4717" lon="6.74353">
        <ele>305.2</ele>
        <time>2014-10-12T07:47:33.000Z</time>
      </trkpt>
      <trkpt lat="47.47167" lon="6.74354">
        <ele>305.8</ele>
        <time>2014-10-12T07:47:34.000Z</time>
      </trkpt>
      <trkpt lat="47.47165" lon="6.74355">
        <ele>306.4</ele>
        <time>2014-10-12T07:47:35.000Z</time>
      </trkpt>
      <trkpt lat="47.47162" lon="6.74355">
        <ele>306.2</ele>
        <time>2014-10-12T07:47:36.000Z</time>
      </trkpt>
      <trkpt lat="47.47159" lon="6.74356">
        <ele>305.7</ele>
        <time>2014-10-12T07:47:37.000Z</time>
      </trkpt>
      <trkpt lat="47.47157" lon="6.74356">
        <ele>306.1</ele>
        <time>2014-10-12T07:47:38.000Z</time>
      </trkpt>
      <trkpt lat="47.47154" lon="6.74357">
        <ele>305.9</ele>
        <time>2014-10-12T07:47:39.000Z</time>
      </trkpt>
      <trkpt lat="47.4715" lon="6.74358">
        <ele>305.8</ele>
        <time>2014-10-12T07:47:41.000Z</time>
      </trkpt>
      <trkpt lat="47.47148" lon="6.74359">
        <ele>307.4</ele>
        <time>2014-10-12T07:47:42.000Z</time>
      </trkpt>
      <trkpt lat="47.47145" lon="6.74359">
        <ele>308.3</ele>
        <time>2014-10-12T07:47:43.000Z</time>
      </trkpt>
      <trkpt lat="47.47143" lon="6.7436">
        <ele>307.2</ele>
        <time>2014-10-12T07:47:44.000Z</time>
      </trkpt>
      <trkpt lat="47.47139" lon="6.74361">
        <ele>303.3</ele>
        <time>2014-10-12T07:47:46.000Z</time>
      </trkpt>
      <trkpt lat="47.47137" lon="6.74361">
        <ele>301.8</ele>
        <time>2014-10-12T07:47:47.000Z</time>
      </trkpt>
      <trkpt lat="47.47122" lon="6.74367">
        <ele>304.7</ele>
        <time>2014-10-12T07:47:55.000Z</time>
      </trkpt>
      <trkpt lat="47.47119" lon="6.74368">
        <ele>305.5</ele>
        <time>2014-10-12T07:47:57.000Z</time>
      </trkpt>
      <trkpt lat="47.47117" lon="6.74369">
        <ele>306.1</ele>
        <time>2014-10-12T07:47:58.000Z</time>
      </trkpt>
      <trkpt lat="47.47113" lon="6.74371">
        <ele>305.8</ele>
        <time>2014-10-12T07:48:00.000Z</time>
      </trkpt>
      <trkpt lat="47.47112" lon="6.74372">
        <ele>307.1</ele>
        <time>2014-10-12T07:48:01.000Z</time>
      </trkpt>
      <trkpt lat="47.47108" lon="6.74374">
        <ele>307.9</ele>
        <time>2014-10-12T07:48:03.000Z</time>
      </trkpt>
      <trkpt lat="47.47106" lon="6.74375">
        <ele>309.7</ele>
        <time>2014-10-12T07:48:04.000Z</time>
      </trkpt>
      <trkpt lat="47.47102" lon="6.74376">
        <ele>310.2</ele>
        <time>2014-10-12T07:48:06.000Z</time>
      </trkpt>
      <trkpt lat="47.471" lon="6.74376">
        <ele>310.7</ele>
        <time>2014-10-12T07:48:07.000Z</time>
      </trkpt>
      <trkpt lat="47.47096" lon="6.74378">
        <ele>312.8</ele>
        <time>2014-10-12T07:48:09.000Z</time>
      </trkpt>
      <trkpt lat="47.47094" lon="6.74379">
        <ele>312.4</ele>
        <time>2014-10-12T07:48:10.000Z</time>
      </trkpt>
      <trkpt lat="47.47091" lon="6.7438">
        <ele>314.9</ele>
        <time>2014-10-12T07:48:12.000Z</time>
      </trkpt>
      <trkpt lat="47.47089" lon="6.74381">
        <ele>315.8</ele>
        <time>2014-10-12T07:48:13.000Z</time>
      </trkpt>
      <trkpt lat="47.47086" lon="6.74382">
        <ele>315.1</ele>
        <time>2014-10-12T07:48:15.000Z</time>
      </trkpt>
      <trkpt lat="47.47084" lon="6.74383">
        <ele>315.1</ele>
        <time>2014-10-12T07:48:16.000Z</time>
      </trkpt>
      <trkpt lat="47.47081" lon="6.74384">
        <ele>316.9</ele>
        <time>2014-10-12T07:48:18.000Z</time>
      </trkpt>
      <trkpt lat="47.47079" lon="6.74384">
        <ele>317.2</ele>
        <time>2014-10-12T07:48:19.000Z</time>
      </trkpt>
      <trkpt lat="47.47075" lon="6.74386">
        <ele>316.6</ele>
        <time>2014-10-12T07:48:21.000Z</time>
      </trkpt>
      <trkpt lat="47.47074" lon="6.74388">
        <ele>316.5</ele>
        <time>2014-10-12T07:48:22.000Z</time>
      </trkpt>
      <trkpt lat="47.4707" lon="6.74389">
        <ele>315.8</ele>
        <time>2014-10-12T07:48:24.000Z</time>
      </trkpt>
      <trkpt lat="47.47069" lon="6.7439">
        <ele>317</ele>
        <time>2014-10-12T07:48:25.000Z</time>
      </trkpt>
      <trkpt lat="47.47066" lon="6.74395">
        <ele>319.7</ele>
        <time>2014-10-12T07:48:28.000Z</time>
      </trkpt>
      <trkpt lat="47.47065" lon="6.74396">
        <ele>321.8</ele>
        <time>2014-10-12T07:48:29.000Z</time>
      </trkpt>
      <trkpt lat="47.47061" lon="6.74398">
        <ele>324.5</ele>
        <time>2014-10-12T07:48:31.000Z</time>
      </trkpt>
      <trkpt lat="47.4706" lon="6.74399">
        <ele>325.3</ele>
        <time>2014-10-12T07:48:32.000Z</time>
      </trkpt>
      <trkpt lat="47.47057" lon="6.74402">
        <ele>326.3</ele>
        <time>2014-10-12T07:48:34.000Z</time>
      </trkpt>
      <trkpt lat="47.47055" lon="6.74403">
        <ele>326.3</ele>
        <time>2014-10-12T07:48:35.000Z</time>
      </trkpt>
      <trkpt lat="47.47052" lon="6.74407">
        <ele>325.1</ele>
        <time>2014-10-12T07:48:38.000Z</time>
      </trkpt>
      <trkpt lat="47.47052" lon="6.74409">
        <ele>324.8</ele>
        <time>2014-10-12T07:48:39.000Z</time>
      </trkpt>
      <trkpt lat="47.47049" lon="6.74412">
        <ele>325.4</ele>
        <time>2014-10-12T07:48:41.000Z</time>
      </trkpt>
      <trkpt lat="47.47048" lon="6.74414">
        <ele>324.8</ele>
        <time>2014-10-12T07:48:42.000Z</time>
      </trkpt>
      <trkpt lat="47.47045" lon="6.74418">
        <ele>324.3</ele>
        <time>2014-10-12T07:48:44.000Z</time>
      </trkpt>
      <trkpt lat="47.47043" lon="6.7442">
        <ele>324.1</ele>
        <time>2014-10-12T07:48:45.000Z</time>
      </trkpt>
      <trkpt lat="47.4704" lon="6.74422">
        <ele>324.7</ele>
        <time>2014-10-12T07:48:47.000Z</time>
      </trkpt>
      <trkpt lat="47.47035" lon="6.74424">
        <ele>326</ele>
        <time>2014-10-12T07:48:50.000Z</time>
      </trkpt>
      <trkpt lat="47.47032" lon="6.74426">
        <ele>327</ele>
        <time>2014-10-12T07:48:52.000Z</time>
      </trkpt>
      <trkpt lat="47.4703" lon="6.74427">
        <ele>326.8</ele>
        <time>2014-10-12T07:48:53.000Z</time>
      </trkpt>
      <trkpt lat="47.47027" lon="6.7443">
        <ele>328.7</ele>
        <time>2014-10-12T07:48:55.000Z</time>
      </trkpt>
      <trkpt lat="47.47025" lon="6.74431">
        <ele>329</ele>
        <time>2014-10-12T07:48:56.000Z</time>
      </trkpt>
      <trkpt lat="47.47021" lon="6.74434">
        <ele>330.5</ele>
        <time>2014-10-12T07:48:58.000Z</time>
      </trkpt>
      <trkpt lat="47.47019" lon="6.74436">
        <ele>331.4</ele>
        <time>2014-10-12T07:48:59.000Z</time>
      </trkpt>
      <trkpt lat="47.47017" lon="6.74438">
        <ele>331.1</ele>
        <time>2014-10-12T07:49:00.000Z</time>
      </trkpt>
      <trkpt lat="47.47015" lon="6.7444">
        <ele>331.2</ele>
        <time>2014-10-12T07:49:01.000Z</time>
      </trkpt>
      <trkpt lat="47.47014" lon="6.74442">
        <ele>331.9</ele>
        <time>2014-10-12T07:49:02.000Z</time>
      </trkpt>
      <trkpt lat="47.47012" lon="6.74444">
        <ele>332.9</ele>
        <time>2014-10-12T07:49:03.000Z</time>
      </trkpt>
      <trkpt lat="47.4701" lon="6.74446">
        <ele>333.3</ele>
        <time>2014-10-12T07:49:04.000Z</time>
      </trkpt>
      <trkpt lat="47.47008" lon="6.74449">
        <ele>333.9</ele>
        <time>2014-10-12T07:49:05.000Z</time>
      </trkpt>
      <trkpt lat="47.47006" lon="6.74454">
        <ele>333.3</ele>
        <time>2014-10-12T07:49:07.000Z</time>
      </trkpt>
      <trkpt lat="47.47004" lon="6.74456">
        <ele>333.8</ele>
        <time>2014-10-12T07:49:08.000Z</time>
      </trkpt>
      <trkpt lat="47.47001" lon="6.74458">
        <ele>333.5</ele>
        <time>2014-10-12T07:49:10.000Z</time>
      </trkpt>
      <trkpt lat="47.47" lon="6.7446">
        <ele>333.4</ele>
        <time>2014-10-12T07:49:11.000Z</time>
      </trkpt>
      <trkpt lat="47.46996" lon="6.74462">
        <ele>333.3</ele>
        <time>2014-10-12T07:49:13.000Z</time>
      </trkpt>
      <trkpt lat="47.46995" lon="6.74463">
        <ele>332.7</ele>
        <time>2014-10-12T07:49:14.000Z</time>
      </trkpt>
      <trkpt lat="47.46992" lon="6.74465">
        <ele>333.3</ele>
        <time>2014-10-12T07:49:16.000Z</time>
      </trkpt>
      <trkpt lat="47.46991" lon="6.74466">
        <ele>335.1</ele>
        <time>2014-10-12T07:49:17.000Z</time>
      </trkpt>
      <trkpt lat="47.46988" lon="6.74469">
        <ele>334.2</ele>
        <time>2014-10-12T07:49:19.000Z</time>
      </trkpt>
      <trkpt lat="47.46987" lon="6.74471">
        <ele>334.1</ele>
        <time>2014-10-12T07:49:20.000Z</time>
      </trkpt>
      <trkpt lat="47.46984" lon="6.74475">
        <ele>333.3</ele>
        <time>2014-10-12T07:49:22.000Z</time>
      </trkpt>
      <trkpt lat="47.46983" lon="6.74476">
        <ele>333.3</ele>
        <time>2014-10-12T07:49:23.000Z</time>
      </trkpt>
      <trkpt lat="47.4698" lon="6.74478">
        <ele>334</ele>
        <time>2014-10-12T07:49:25.000Z</time>
      </trkpt>
      <trkpt lat="47.46978" lon="6.74479">
        <ele>334.8</ele>
        <time>2014-10-12T07:49:26.000Z</time>
      </trkpt>
      <trkpt lat="47.46976" lon="6.74482">
        <ele>335.5</ele>
        <time>2014-10-12T07:49:29.000Z</time>
      </trkpt>
      <trkpt lat="47.46975" lon="6.74483">
        <ele>336.7</ele>
        <time>2014-10-12T07:49:30.000Z</time>
      </trkpt>
      <trkpt lat="47.46972" lon="6.74487">
        <ele>338.7</ele>
        <time>2014-10-12T07:49:33.000Z</time>
      </trkpt>
      <trkpt lat="47.46972" lon="6.74488">
        <ele>338.8</ele>
        <time>2014-10-12T07:49:34.000Z</time>
      </trkpt>
      <trkpt lat="47.4697" lon="6.74492">
        <ele>340.3</ele>
        <time>2014-10-12T07:49:36.000Z</time>
      </trkpt>
      <trkpt lat="47.46968" lon="6.74493">
        <ele>340</ele>
        <time>2014-10-12T07:49:37.000Z</time>
      </trkpt>
      <trkpt lat="47.46966" lon="6.74496">
        <ele>340.3</ele>
        <time>2014-10-12T07:49:39.000Z</time>
      </trkpt>
      <trkpt lat="47.46964" lon="6.74496">
        <ele>339.8</ele>
        <time>2014-10-12T07:49:40.000Z</time>
      </trkpt>
      <trkpt lat="47.46961" lon="6.74497">
        <ele>339.4</ele>
        <time>2014-10-12T07:49:43.000Z</time>
      </trkpt>
      <trkpt lat="47.4696" lon="6.74497">
        <ele>339.4</ele>
        <time>2014-10-12T07:49:44.000Z</time>
      </trkpt>
      <trkpt lat="47.46957" lon="6.74498">
        <ele>341.1</ele>
        <time>2014-10-12T07:49:46.000Z</time>
      </trkpt>
      <trkpt lat="47.46955" lon="6.74499">
        <ele>341.4</ele>
        <time>2014-10-12T07:49:47.000Z</time>
      </trkpt>
      <trkpt lat="47.46938" lon="6.74519">
        <ele>346.4</ele>
        <time>2014-10-12T07:49:55.000Z</time>
      </trkpt>
      <trkpt lat="47.46935" lon="6.74521">
        <ele>346.5</ele>
        <time>2014-10-12T07:49:56.000Z</time>
      </trkpt>
      <trkpt lat="47.46934" lon="6.74523">
        <ele>346.8</ele>
        <time>2014-10-12T07:49:56.999Z</time>
      </trkpt>
      <trkpt lat="47.46931" lon="6.74524">
        <ele>345.4</ele>
        <time>2014-10-12T07:49:58.000Z</time>
      </trkpt>
      <trkpt lat="47.46929" lon="6.74525">
        <ele>345</ele>
        <time>2014-10-12T07:49:59.000Z</time>
      </trkpt>
      <trkpt lat="47.46925" lon="6.74523">
        <ele>349.1</ele>
        <time>2014-10-12T07:50:01.000Z</time>
      </trkpt>
      <trkpt lat="47.46923" lon="6.74521">
        <ele>350.1</ele>
        <time>2014-10-12T07:50:02.000Z</time>
      </trkpt>
      <trkpt lat="47.46921" lon="6.74516">
        <ele>349.2</ele>
        <time>2014-10-12T07:50:04.000Z</time>
      </trkpt>
      <trkpt lat="47.46921" lon="6.74513">
        <ele>350.1</ele>
        <time>2014-10-12T07:50:05.000Z</time>
      </trkpt>
      <trkpt lat="47.46921" lon="6.74509">
        <ele>351.1</ele>
        <time>2014-10-12T07:50:06.000Z</time>
      </trkpt>
      <trkpt lat="47.4692" lon="6.74506">
        <ele>351.3</ele>
        <time>2014-10-12T07:50:07.000Z</time>
      </trkpt>
      <trkpt lat="47.46918" lon="6.745">
        <ele>351.7</ele>
        <time>2014-10-12T07:50:09.000Z</time>
      </trkpt>
      <trkpt lat="47.46917" lon="6.74497">
        <ele>351.7</ele>
        <time>2014-10-12T07:50:10.000Z</time>
      </trkpt>
      <trkpt lat="47.46915" lon="6.74493">
        <ele>351.8</ele>
        <time>2014-10-12T07:50:12.000Z</time>
      </trkpt>
      <trkpt lat="47.46915" lon="6.74491">
        <ele>353.1</ele>
        <time>2014-10-12T07:50:13.000Z</time>
      </trkpt>
      <trkpt lat="47.46912" lon="6.74487">
        <ele>354.2</ele>
        <time>2014-10-12T07:50:17.000Z</time>
      </trkpt>
      <trkpt lat="47.46911" lon="6.74486">
        <ele>353.4</ele>
        <time>2014-10-12T07:50:18.000Z</time>
      </trkpt>
      <trkpt lat="47.46909" lon="6.74481">
        <ele>353</ele>
        <time>2014-10-12T07:50:21.000Z</time>
      </trkpt>
      <trkpt lat="47.46909" lon="6.74479">
        <ele>353.6</ele>
        <time>2014-10-12T07:50:22.000Z</time>
      </trkpt>
      <trkpt lat="47.46908" lon="6.74475">
        <ele>354.7</ele>
        <time>2014-10-12T07:50:24.000Z</time>
      </trkpt>
      <trkpt lat="47.46908" lon="6.74473">
        <ele>355</ele>
        <time>2014-10-12T07:50:25.000Z</time>
      </trkpt>
      <trkpt lat="47.46906" lon="6.74467">
        <ele>355.3</ele>
        <time>2014-10-12T07:50:27.000Z</time>
      </trkpt>
      <trkpt lat="47.46906" lon="6.74464">
        <ele>355.3</ele>
        <time>2014-10-12T07:50:28.000Z</time>
      </trkpt>
      <trkpt lat="47.46905" lon="6.7446">
        <ele>355.7</ele>
        <time>2014-10-12T07:50:29.000Z</time>
      </trkpt>
      <trkpt lat="47.46904" lon="6.74457">
        <ele>356.2</ele>
        <time>2014-10-12T07:50:30.000Z</time>
      </trkpt>
      <trkpt lat="47.46903" lon="6.74451">
        <ele>357.2</ele>
        <time>2014-10-12T07:50:32.000Z</time>
      </trkpt>
      <trkpt lat="47.46902" lon="6.74448">
        <ele>357</ele>
        <time>2014-10-12T07:50:33.000Z</time>
      </trkpt>
      <trkpt lat="47.46901" lon="6.74443">
        <ele>356.5</ele>
        <time>2014-10-12T07:50:35.000Z</time>
      </trkpt>
      <trkpt lat="47.469" lon="6.7444">
        <ele>356.7</ele>
        <time>2014-10-12T07:50:36.000Z</time>
      </trkpt>
      <trkpt lat="47.46899" lon="6.74435">
        <ele>357.2</ele>
        <time>2014-10-12T07:50:38.000Z</time>
      </trkpt>
      <trkpt lat="47.46898" lon="6.74432">
        <ele>357.4</ele>
        <time>2014-10-12T07:50:39.000Z</time>
      </trkpt>
      <trkpt lat="47.46898" lon="6.74427">
        <ele>358.1</ele>
        <time>2014-10-12T07:50:41.000Z</time>
      </trkpt>
      <trkpt lat="47.46897" lon="6.74425">
        <ele>358.3</ele>
        <time>2014-10-12T07:50:42.000Z</time>
      </trkpt>
      <trkpt lat="47.46896" lon="6.74419">
        <ele>359.5</ele>
        <time>2014-10-12T07:50:45.000Z</time>
      </trkpt>
      <trkpt lat="47.46895" lon="6.74417">
        <ele>360.8</ele>
        <time>2014-10-12T07:50:46.000Z</time>
      </trkpt>
      <trkpt lat="47.46895" lon="6.74414">
        <ele>361.5</ele>
        <time>2014-10-12T07:50:47.000Z</time>
      </trkpt>
      <trkpt lat="47.46894" lon="6.74409">
        <ele>362.4</ele>
        <time>2014-10-12T07:50:50.000Z</time>
      </trkpt>
      <trkpt lat="47.46893" lon="6.74403">
        <ele>361.6</ele>
        <time>2014-10-12T07:50:53.000Z</time>
      </trkpt>
      <trkpt lat="47.46892" lon="6.74401">
        <ele>361.6</ele>
        <time>2014-10-12T07:50:54.000Z</time>
      </trkpt>
      <trkpt lat="47.46891" lon="6.74395">
        <ele>359.7</ele>
        <time>2014-10-12T07:50:57.000Z</time>
      </trkpt>
      <trkpt lat="47.46891" lon="6.74393">
        <ele>359.3</ele>
        <time>2014-10-12T07:50:58.000Z</time>
      </trkpt>
      <trkpt lat="47.46889" lon="6.74388">
        <ele>359.1</ele>
        <time>2014-10-12T07:51:01.000Z</time>
      </trkpt>
      <trkpt lat="47.46888" lon="6.74386">
        <ele>359.5</ele>
        <time>2014-10-12T07:51:02.000Z</time>
      </trkpt>
      <trkpt lat="47.46887" lon="6.74381">
        <ele>357.5</ele>
        <time>2014-10-12T07:51:05.000Z</time>
      </trkpt>
      <trkpt lat="47.46886" lon="6.74378">
        <ele>356.9</ele>
        <time>2014-10-12T07:51:06.000Z</time>
      </trkpt>
      <trkpt lat="47.46885" lon="6.74373">
        <ele>356.3</ele>
        <time>2014-10-12T07:51:09.000Z</time>
      </trkpt>
      <trkpt lat="47.46885" lon="6.74371">
        <ele>356.8</ele>
        <time>2014-10-12T07:51:10.000Z</time>
      </trkpt>
      <trkpt lat="47.46886" lon="6.74365">
        <ele>358.1</ele>
        <time>2014-10-12T07:51:14.000Z</time>
      </trkpt>
      <trkpt lat="47.46886" lon="6.74363">
        <ele>358.1</ele>
        <time>2014-10-12T07:51:15.000Z</time>
      </trkpt>
      <trkpt lat="47.46887" lon="6.74357">
        <ele>362.2</ele>
        <time>2014-10-12T07:51:19.000Z</time>
      </trkpt>
      <trkpt lat="47.46888" lon="6.74355">
        <ele>362.4</ele>
        <time>2014-10-12T07:51:20.000Z</time>
      </trkpt>
      <trkpt lat="47.46888" lon="6.7435">
        <ele>362.4</ele>
        <time>2014-10-12T07:51:23.000Z</time>
      </trkpt>
      <trkpt lat="47.46889" lon="6.74348">
        <ele>361.4</ele>
        <time>2014-10-12T07:51:24.000Z</time>
      </trkpt>
      <trkpt lat="47.46888" lon="6.74342">
        <ele>360.1</ele>
        <time>2014-10-12T07:51:27.000Z</time>
      </trkpt>
      <trkpt lat="47.46887" lon="6.7434">
        <ele>357.7</ele>
        <time>2014-10-12T07:51:28.000Z</time>
      </trkpt>
      <trkpt lat="47.46886" lon="6.74335">
        <ele>355.3</ele>
        <time>2014-10-12T07:51:30.000Z</time>
      </trkpt>
      <trkpt lat="47.46886" lon="6.74332">
        <ele>353.6</ele>
        <time>2014-10-12T07:51:31.000Z</time>
      </trkpt>
      <trkpt lat="47.46886" lon="6.74327">
        <ele>353.7</ele>
        <time>2014-10-12T07:51:33.000Z</time>
      </trkpt>
      <trkpt lat="47.46887" lon="6.74324">
        <ele>354.1</ele>
        <time>2014-10-12T07:51:34.000Z</time>
      </trkpt>
      <trkpt lat="47.46889" lon="6.74319">
        <ele>355.3</ele>
        <time>2014-10-12T07:51:38.000Z</time>
      </trkpt>
      <trkpt lat="47.46889" lon="6.74317">
        <ele>355.8</ele>
        <time>2014-10-12T07:51:39.000Z</time>
      </trkpt>
      <trkpt lat="47.46889" lon="6.74311">
        <ele>356.1</ele>
        <time>2014-10-12T07:51:44.000Z</time>
      </trkpt>
      <trkpt lat="47.46889" lon="6.74309">
        <ele>356.5</ele>
        <time>2014-10-12T07:51:45.000Z</time>
      </trkpt>
      <trkpt lat="47.46889" lon="6.74306">
        <ele>355.1</ele>
        <time>2014-10-12T07:51:47.000Z</time>
      </trkpt>
      <trkpt lat="47.4689" lon="6.74292">
        <ele>353.2</ele>
        <time>2014-10-12T07:51:55.000Z</time>
      </trkpt>
      <trkpt lat="47.46892" lon="6.74287">
        <ele>352.8</ele>
        <time>2014-10-12T07:51:58.000Z</time>
      </trkpt>
      <trkpt lat="47.46892" lon="6.74284">
        <ele>352</ele>
        <time>2014-10-12T07:51:59.000Z</time>
      </trkpt>
      <trkpt lat="47.46891" lon="6.74279">
        <ele>351.7</ele>
        <time>2014-10-12T07:52:02.000Z</time>
      </trkpt>
      <trkpt lat="47.46891" lon="6.74277">
        <ele>351.8</ele>
        <time>2014-10-12T07:52:03.000Z</time>
      </trkpt>
      <trkpt lat="47.46891" lon="6.7427">
        <ele>352.7</ele>
        <time>2014-10-12T07:52:06.000Z</time>
      </trkpt>
      <trkpt lat="47.46891" lon="6.74268">
        <ele>352.8</ele>
        <time>2014-10-12T07:52:07.000Z</time>
      </trkpt>
      <trkpt lat="47.46891" lon="6.74262">
        <ele>354.3</ele>
        <time>2014-10-12T07:52:11.000Z</time>
      </trkpt>
      <trkpt lat="47.46891" lon="6.7426">
        <ele>354.4</ele>
        <time>2014-10-12T07:52:12.000Z</time>
      </trkpt>
      <trkpt lat="47.46892" lon="6.74254">
        <ele>354.2</ele>
        <time>2014-10-12T07:52:16.000Z</time>
      </trkpt>
      <trkpt lat="47.46892" lon="6.74253">
        <ele>354.4</ele>
        <time>2014-10-12T07:52:17.000Z</time>
      </trkpt>
      <trkpt lat="47.46892" lon="6.74247">
        <ele>356.2</ele>
        <time>2014-10-12T07:52:22.000Z</time>
      </trkpt>
      <trkpt lat="47.46892" lon="6.74245">
        <ele>356.2</ele>
        <time>2014-10-12T07:52:23.000Z</time>
      </trkpt>
      <trkpt lat="47.46893" lon="6.74239">
        <ele>359.1</ele>
        <time>2014-10-12T07:52:27.000Z</time>
      </trkpt>
      <trkpt lat="47.46893" lon="6.74237">
        <ele>358.8</ele>
        <time>2014-10-12T07:52:28.000Z</time>
      </trkpt>
      <trkpt lat="47.46893" lon="6.74231">
        <ele>360.6</ele>
        <time>2014-10-12T07:52:31.000Z</time>
      </trkpt>
      <trkpt lat="47.46894" lon="6.74229">
        <ele>361.6</ele>
        <time>2014-10-12T07:52:32.000Z</time>
      </trkpt>
      <trkpt lat="47.46895" lon="6.74224">
        <ele>362</ele>
        <time>2014-10-12T07:52:34.000Z</time>
      </trkpt>
      <trkpt lat="47.46895" lon="6.74223">
        <ele>362.2</ele>
        <time>2014-10-12T07:52:35.000Z</time>
      </trkpt>
      <trkpt lat="47.46896" lon="6.74218">
        <ele>363.8</ele>
        <time>2014-10-12T07:52:38.000Z</time>
      </trkpt>
      <trkpt lat="47.46897" lon="6.74216">
        <ele>363.6</ele>
        <time>2014-10-12T07:52:39.000Z</time>
      </trkpt>
      <trkpt lat="47.46898" lon="6.74211">
        <ele>366.1</ele>
        <time>2014-10-12T07:52:42.000Z</time>
      </trkpt>
      <trkpt lat="47.46898" lon="6.74209">
        <ele>366.7</ele>
        <time>2014-10-12T07:52:43.000Z</time>
      </trkpt>
      <trkpt lat="47.46898" lon="6.74202">
        <ele>367.1</ele>
        <time>2014-10-12T07:52:47.000Z</time>
      </trkpt>
      <trkpt lat="47.46897" lon="6.74199">
        <ele>366.7</ele>
        <time>2014-10-12T07:52:50.000Z</time>
      </trkpt>
      <trkpt lat="47.46897" lon="6.74194">
        <ele>366.9</ele>
        <time>2014-10-12T07:52:53.000Z</time>
      </trkpt>
      <trkpt lat="47.46897" lon="6.74191">
        <ele>366.6</ele>
        <time>2014-10-12T07:52:54.000Z</time>
      </trkpt>
      <trkpt lat="47.46898" lon="6.74185">
        <ele>367.1</ele>
        <time>2014-10-12T07:52:57.000Z</time>
      </trkpt>
      <trkpt lat="47.46898" lon="6.74183">
        <ele>366.7</ele>
        <time>2014-10-12T07:52:58.000Z</time>
      </trkpt>
      <trkpt lat="47.46897" lon="6.74177">
        <ele>364.1</ele>
        <time>2014-10-12T07:53:01.000Z</time>
      </trkpt>
      <trkpt lat="47.46896" lon="6.74175">
        <ele>364.4</ele>
        <time>2014-10-12T07:53:02.000Z</time>
      </trkpt>
      <trkpt lat="47.46896" lon="6.74169">
        <ele>362.3</ele>
        <time>2014-10-12T07:53:05.000Z</time>
      </trkpt>
      <trkpt lat="47.46896" lon="6.74167">
        <ele>361.8</ele>
        <time>2014-10-12T07:53:06.000Z</time>
      </trkpt>
      <trkpt lat="47.46895" lon="6.7416">
        <ele>360.8</ele>
        <time>2014-10-12T07:53:08.999Z</time>
      </trkpt>
      <trkpt lat="47.46895" lon="6.74157">
        <ele>360.8</ele>
        <time>2014-10-12T07:53:10.000Z</time>
      </trkpt>
      <trkpt lat="47.46896" lon="6.74152">
        <ele>359.1</ele>
        <time>2014-10-12T07:53:13.000Z</time>
      </trkpt>
      <trkpt lat="47.46896" lon="6.74151">
        <ele>359.1</ele>
        <time>2014-10-12T07:53:14.000Z</time>
      </trkpt>
      <trkpt lat="47.46898" lon="6.74145">
        <ele>358.7</ele>
        <time>2014-10-12T07:53:17.000Z</time>
      </trkpt>
      <trkpt lat="47.46898" lon="6.74143">
        <ele>358.5</ele>
        <time>2014-10-12T07:53:18.000Z</time>
      </trkpt>
      <trkpt lat="47.46898" lon="6.74137">
        <ele>360.8</ele>
        <time>2014-10-12T07:53:21.000Z</time>
      </trkpt>
      <trkpt lat="47.46898" lon="6.74135">
        <ele>361.5</ele>
        <time>2014-10-12T07:53:22.000Z</time>
      </trkpt>
      <trkpt lat="47.46898" lon="6.7413">
        <ele>360.7</ele>
        <time>2014-10-12T07:53:24.000Z</time>
      </trkpt>
      <trkpt lat="47.46898" lon="6.74128">
        <ele>361</ele>
        <time>2014-10-12T07:53:25.000Z</time>
      </trkpt>
      <trkpt lat="47.46898" lon="6.74122">
        <ele>361.8</ele>
        <time>2014-10-12T07:53:29.000Z</time>
      </trkpt>
      <trkpt lat="47.46898" lon="6.7412">
        <ele>362.3</ele>
        <time>2014-10-12T07:53:30.000Z</time>
      </trkpt>
      <trkpt lat="47.46898" lon="6.74114">
        <ele>364.7</ele>
        <time>2014-10-12T07:53:35.000Z</time>
      </trkpt>
      <trkpt lat="47.46898" lon="6.74112">
        <ele>364.9</ele>
        <time>2014-10-12T07:53:36.000Z</time>
      </trkpt>
      <trkpt lat="47.46897" lon="6.74108">
        <ele>366.7</ele>
        <time>2014-10-12T07:53:38.000Z</time>
      </trkpt>
      <trkpt lat="47.46897" lon="6.74106">
        <ele>366.7</ele>
        <time>2014-10-12T07:53:39.000Z</time>
      </trkpt>
      <trkpt lat="47.46896" lon="6.74099">
        <ele>368.4</ele>
        <time>2014-10-12T07:53:42.000Z</time>
      </trkpt>
      <trkpt lat="47.46895" lon="6.74097">
        <ele>368</ele>
        <time>2014-10-12T07:53:43.000Z</time>
      </trkpt>
      <trkpt lat="47.46894" lon="6.74093">
        <ele>368.6</ele>
        <time>2014-10-12T07:53:45.000Z</time>
      </trkpt>
      <trkpt lat="47.46894" lon="6.74091">
        <ele>368.1</ele>
        <time>2014-10-12T07:53:46.000Z</time>
      </trkpt>
      <trkpt lat="47.46893" lon="6.74088">
        <ele>368.6</ele>
        <time>2014-10-12T07:53:47.000Z</time>
      </trkpt>
      <trkpt lat="47.4689" lon="6.74076">
        <ele>369.7</ele>
        <time>2014-10-12T07:53:55.000Z</time>
      </trkpt>
      <trkpt lat="47.46888" lon="6.74071">
        <ele>370.5</ele>
        <time>2014-10-12T07:53:58.000Z</time>
      </trkpt>
      <trkpt lat="47.46888" lon="6.74069">
        <ele>372</ele>
        <time>2014-10-12T07:53:59.000Z</time>
      </trkpt>
      <trkpt lat="47.46886" lon="6.74063">
        <ele>373.3</ele>
        <time>2014-10-12T07:54:02.000Z</time>
      </trkpt>
      <trkpt lat="47.46886" lon="6.74061">
        <ele>371.3</ele>
        <time>2014-10-12T07:54:03.000Z</time>
      </trkpt>
      <trkpt lat="47.46884" lon="6.74056">
        <ele>374.2</ele>
        <time>2014-10-12T07:54:07.000Z</time>
      </trkpt>
      <trkpt lat="47.46883" lon="6.74054">
        <ele>373.8</ele>
        <time>2014-10-12T07:54:08.000Z</time>
      </trkpt>
      <trkpt lat="47.46881" lon="6.74048">
        <ele>374</ele>
        <time>2014-10-12T07:54:12.000Z</time>
      </trkpt>
      <trkpt lat="47.46881" lon="6.74047">
        <ele>374.3</ele>
        <time>2014-10-12T07:54:13.000Z</time>
      </trkpt>
      <trkpt lat="47.4688" lon="6.74041">
        <ele>377.1</ele>
        <time>2014-10-12T07:54:16.000Z</time>
      </trkpt>
      <trkpt lat="47.4688" lon="6.74039">
        <ele>376.9</ele>
        <time>2014-10-12T07:54:17.000Z</time>
      </trkpt>
      <trkpt lat="47.4688" lon="6.74033">
        <ele>378.7</ele>
        <time>2014-10-12T07:54:20.000Z</time>
      </trkpt>
      <trkpt lat="47.46879" lon="6.74031">
        <ele>379.2</ele>
        <time>2014-10-12T07:54:21.000Z</time>
      </trkpt>
      <trkpt lat="47.46879" lon="6.74026">
        <ele>380.4</ele>
        <time>2014-10-12T07:54:23.000Z</time>
      </trkpt>
      <trkpt lat="47.46878" lon="6.74024">
        <ele>380</ele>
        <time>2014-10-12T07:54:24.000Z</time>
      </trkpt>
      <trkpt lat="47.46878" lon="6.74018">
        <ele>382.7</ele>
        <time>2014-10-12T07:54:28.000Z</time>
      </trkpt>
      <trkpt lat="47.46878" lon="6.74017">
        <ele>382.9</ele>
        <time>2014-10-12T07:54:29.000Z</time>
      </trkpt>
      <trkpt lat="47.46875" lon="6.74012">
        <ele>385.1</ele>
        <time>2014-10-12T07:54:32.000Z</time>
      </trkpt>
      <trkpt lat="47.46875" lon="6.7401">
        <ele>386.1</ele>
        <time>2014-10-12T07:54:33.000Z</time>
      </trkpt>
      <trkpt lat="47.46874" lon="6.74004">
        <ele>383.9</ele>
        <time>2014-10-12T07:54:36.000Z</time>
      </trkpt>
      <trkpt lat="47.46873" lon="6.74003">
        <ele>384.6</ele>
        <time>2014-10-12T07:54:37.000Z</time>
      </trkpt>
      <trkpt lat="47.46871" lon="6.73998">
        <ele>384.6</ele>
        <time>2014-10-12T07:54:40.000Z</time>
      </trkpt>
      <trkpt lat="47.4687" lon="6.73997">
        <ele>383.5</ele>
        <time>2014-10-12T07:54:41.000Z</time>
      </trkpt>
      <trkpt lat="47.46868" lon="6.73992">
        <ele>380.6</ele>
        <time>2014-10-12T07:54:44.000Z</time>
      </trkpt>
      <trkpt lat="47.46867" lon="6.73991">
        <ele>379.1</ele>
        <time>2014-10-12T07:54:45.000Z</time>
      </trkpt>
      <trkpt lat="47.46867" lon="6.73987">
        <ele>378.3</ele>
        <time>2014-10-12T07:54:47.000Z</time>
      </trkpt>
      <trkpt lat="47.46865" lon="6.73981">
        <ele>378.4</ele>
        <time>2014-10-12T07:54:51.000Z</time>
      </trkpt>
      <trkpt lat="47.46864" lon="6.73976">
        <ele>379.2</ele>
        <time>2014-10-12T07:54:53.000Z</time>
      </trkpt>
      <trkpt lat="47.46864" lon="6.73974">
        <ele>380.1</ele>
        <time>2014-10-12T07:54:54.000Z</time>
      </trkpt>
      <trkpt lat="47.46861" lon="6.73969">
        <ele>379.2</ele>
        <time>2014-10-12T07:54:57.000Z</time>
      </trkpt>
      <trkpt lat="47.4686" lon="6.73967">
        <ele>379.6</ele>
        <time>2014-10-12T07:54:58.000Z</time>
      </trkpt>
      <trkpt lat="47.4686" lon="6.7396">
        <ele>376.1</ele>
        <time>2014-10-12T07:55:01.000Z</time>
      </trkpt>
      <trkpt lat="47.4686" lon="6.73958">
        <ele>378.4</ele>
        <time>2014-10-12T07:55:02.000Z</time>
      </trkpt>
      <trkpt lat="47.46859" lon="6.73953">
        <ele>379</ele>
        <time>2014-10-12T07:55:04.000Z</time>
      </trkpt>
      <trkpt lat="47.46858" lon="6.73951">
        <ele>378</ele>
        <time>2014-10-12T07:55:05.000Z</time>
      </trkpt>
      <trkpt lat="47.46858" lon="6.73945">
        <ele>376.7</ele>
        <time>2014-10-12T07:55:08.000Z</time>
      </trkpt>
      <trkpt lat="47.46858" lon="6.73943">
        <ele>375.4</ele>
        <time>2014-10-12T07:55:09.000Z</time>
      </trkpt>
      <trkpt lat="47.46859" lon="6.73937">
        <ele>368.7</ele>
        <time>2014-10-12T07:55:12.000Z</time>
      </trkpt>
      <trkpt lat="47.46859" lon="6.73935">
        <ele>367.8</ele>
        <time>2014-10-12T07:55:13.000Z</time>
      </trkpt>
      <trkpt lat="47.46858" lon="6.73929">
        <ele>366.4</ele>
        <time>2014-10-12T07:55:16.000Z</time>
      </trkpt>
      <trkpt lat="47.46858" lon="6.73926">
        <ele>366.1</ele>
        <time>2014-10-12T07:55:17.000Z</time>
      </trkpt>
      <trkpt lat="47.46858" lon="6.73921">
        <ele>365.4</ele>
        <time>2014-10-12T07:55:19.000Z</time>
      </trkpt>
      <trkpt lat="47.46858" lon="6.73918">
        <ele>364.5</ele>
        <time>2014-10-12T07:55:20.000Z</time>
      </trkpt>
      <trkpt lat="47.46858" lon="6.73914">
        <ele>363.9</ele>
        <time>2014-10-12T07:55:22.000Z</time>
      </trkpt>
      <trkpt lat="47.46858" lon="6.73912">
        <ele>364.8</ele>
        <time>2014-10-12T07:55:23.000Z</time>
      </trkpt>
      <trkpt lat="47.46857" lon="6.73907">
        <ele>371</ele>
        <time>2014-10-12T07:55:25.000Z</time>
      </trkpt>
      <trkpt lat="47.46857" lon="6.73905">
        <ele>371.7</ele>
        <time>2014-10-12T07:55:26.000Z</time>
      </trkpt>
      <trkpt lat="47.46858" lon="6.739">
        <ele>374</ele>
        <time>2014-10-12T07:55:28.000Z</time>
      </trkpt>
      <trkpt lat="47.46858" lon="6.73898">
        <ele>375.1</ele>
        <time>2014-10-12T07:55:29.000Z</time>
      </trkpt>
      <trkpt lat="47.46857" lon="6.73892">
        <ele>378.4</ele>
        <time>2014-10-12T07:55:32.000Z</time>
      </trkpt>
      <trkpt lat="47.46856" lon="6.73891">
        <ele>379.4</ele>
        <time>2014-10-12T07:55:33.000Z</time>
      </trkpt>
      <trkpt lat="47.46855" lon="6.73887">
        <ele>382.4</ele>
        <time>2014-10-12T07:55:35.000Z</time>
      </trkpt>
      <trkpt lat="47.46854" lon="6.73884">
        <ele>381.7</ele>
        <time>2014-10-12T07:55:36.000Z</time>
      </trkpt>
      <trkpt lat="47.46853" lon="6.73878">
        <ele>380.9</ele>
        <time>2014-10-12T07:55:42.000Z</time>
      </trkpt>
      <trkpt lat="47.46853" lon="6.73877">
        <ele>380.8</ele>
        <time>2014-10-12T07:55:43.000Z</time>
      </trkpt>
      <trkpt lat="47.46851" lon="6.73871">
        <ele>383</ele>
        <time>2014-10-12T07:56:23.000Z</time>
      </trkpt>
      <trkpt lat="47.46851" lon="6.7387">
        <ele>383.4</ele>
        <time>2014-10-12T07:56:24.000Z</time>
      </trkpt>
      <trkpt lat="47.46849" lon="6.73865">
        <ele>384</ele>
        <time>2014-10-12T07:56:30.000Z</time>
      </trkpt>
      <trkpt lat="47.46848" lon="6.73864">
        <ele>384.1</ele>
        <time>2014-10-12T07:56:31.000Z</time>
      </trkpt>
      <trkpt lat="47.46848" lon="6.73862">
        <ele>386.2</ele>
        <time>2014-10-12T07:56:47.000Z</time>
      </trkpt>
      <trkpt lat="47.46844" lon="6.73851">
        <ele>387.4</ele>
        <time>2014-10-12T07:56:55.001Z</time>
      </trkpt>
      <trkpt lat="47.46843" lon="6.73848">
        <ele>387.1</ele>
        <time>2014-10-12T07:56:56.000Z</time>
      </trkpt>
      <trkpt lat="47.46842" lon="6.73845">
        <ele>386.6</ele>
        <time>2014-10-12T07:56:57.000Z</time>
      </trkpt>
      <trkpt lat="47.4684" lon="6.73842">
        <ele>386.2</ele>
        <time>2014-10-12T07:56:58.000Z</time>
      </trkpt>
      <trkpt lat="47.46839" lon="6.73839">
        <ele>385.9</ele>
        <time>2014-10-12T07:56:59.000Z</time>
      </trkpt>
      <trkpt lat="47.46837" lon="6.73834">
        <ele>386.5</ele>
        <time>2014-10-12T07:57:01.000Z</time>
      </trkpt>
      <trkpt lat="47.46835" lon="6.73831">
        <ele>385</ele>
        <time>2014-10-12T07:57:02.000Z</time>
      </trkpt>
      <trkpt lat="47.46834" lon="6.73828">
        <ele>384.1</ele>
        <time>2014-10-12T07:57:03.000Z</time>
      </trkpt>
      <trkpt lat="47.46833" lon="6.73825">
        <ele>385.3</ele>
        <time>2014-10-12T07:57:04.000Z</time>
      </trkpt>
      <trkpt lat="47.46831" lon="6.73822">
        <ele>386.5</ele>
        <time>2014-10-12T07:57:05.000Z</time>
      </trkpt>
      <trkpt lat="47.4683" lon="6.73819">
        <ele>387</ele>
        <time>2014-10-12T07:57:06.000Z</time>
      </trkpt>
      <trkpt lat="47.46828" lon="6.73817">
        <ele>388.2</ele>
        <time>2014-10-12T07:57:07.000Z</time>
      </trkpt>
      <trkpt lat="47.46825" lon="6.73816">
        <ele>389</ele>
        <time>2014-10-12T07:57:08.000Z</time>
      </trkpt>
      <trkpt lat="47.46823" lon="6.73816">
        <ele>387</ele>
        <time>2014-10-12T07:57:09.000Z</time>
      </trkpt>
      <trkpt lat="47.4682" lon="6.73816">
        <ele>388.2</ele>
        <time>2014-10-12T07:57:10.000Z</time>
      </trkpt>
      <trkpt lat="47.46818" lon="6.73817">
        <ele>388.1</ele>
        <time>2014-10-12T07:57:11.000Z</time>
      </trkpt>
      <trkpt lat="47.46815" lon="6.73816">
        <ele>389.9</ele>
        <time>2014-10-12T07:57:12.000Z</time>
      </trkpt>
      <trkpt lat="47.46813" lon="6.73816">
        <ele>389.9</ele>
        <time>2014-10-12T07:57:13.000Z</time>
      </trkpt>
      <trkpt lat="47.46811" lon="6.73816">
        <ele>389.9</ele>
        <time>2014-10-12T07:57:14.000Z</time>
      </trkpt>
      <trkpt lat="47.46808" lon="6.73816">
        <ele>389.9</ele>
        <time>2014-10-12T07:57:15.000Z</time>
      </trkpt>
      <trkpt lat="47.46806" lon="6.73817">
        <ele>389.6</ele>
        <time>2014-10-12T07:57:16.000Z</time>
      </trkpt>
      <trkpt lat="47.46803" lon="6.73818">
        <ele>389.7</ele>
        <time>2014-10-12T07:57:17.000Z</time>
      </trkpt>
      <trkpt lat="47.46799" lon="6.73818">
        <ele>390.6</ele>
        <time>2014-10-12T07:57:18.000Z</time>
      </trkpt>
      <trkpt lat="47.46795" lon="6.73819">
        <ele>390.9</ele>
        <time>2014-10-12T07:57:19.000Z</time>
      </trkpt>
      <trkpt lat="47.46791" lon="6.7382">
        <ele>391.6</ele>
        <time>2014-10-12T07:57:20.000Z</time>
      </trkpt>
      <trkpt lat="47.46779" lon="6.73819">
        <ele>389</ele>
        <time>2014-10-12T07:57:21.000Z</time>
      </trkpt>
      <trkpt lat="47.46776" lon="6.73821">
        <ele>390.2</ele>
        <time>2014-10-12T07:57:22.000Z</time>
      </trkpt>
      <trkpt lat="47.46772" lon="6.73821">
        <ele>391.5</ele>
        <time>2014-10-12T07:57:23.000Z</time>
      </trkpt>
      <trkpt lat="47.46767" lon="6.73822">
        <ele>392.9</ele>
        <time>2014-10-12T07:57:24.000Z</time>
      </trkpt>
      <trkpt lat="47.46761" lon="6.73822">
        <ele>393.1</ele>
        <time>2014-10-12T07:57:25.000Z</time>
      </trkpt>
      <trkpt lat="47.46753" lon="6.73821">
        <ele>393.6</ele>
        <time>2014-10-12T07:57:26.000Z</time>
      </trkpt>
      <trkpt lat="47.46748" lon="6.7382">
        <ele>394.3</ele>
        <time>2014-10-12T07:57:27.000Z</time>
      </trkpt>
      <trkpt lat="47.46745" lon="6.73822">
        <ele>401.7</ele>
        <time>2014-10-12T07:57:28.000Z</time>
      </trkpt>
      <trkpt lat="47.4674" lon="6.73822">
        <ele>403.5</ele>
        <time>2014-10-12T07:57:29.000Z</time>
      </trkpt>
      <trkpt lat="47.46736" lon="6.73822">
        <ele>405</ele>
        <time>2014-10-12T07:57:30.000Z</time>
      </trkpt>
      <trkpt lat="47.46732" lon="6.73825">
        <ele>407.2</ele>
        <time>2014-10-12T07:57:31.000Z</time>
      </trkpt>
      <trkpt lat="47.46729" lon="6.73827">
        <ele>408.7</ele>
        <time>2014-10-12T07:57:32.000Z</time>
      </trkpt>
      <trkpt lat="47.46725" lon="6.7383">
        <ele>407.1</ele>
        <time>2014-10-12T07:57:33.000Z</time>
      </trkpt>
      <trkpt lat="47.46721" lon="6.73832">
        <ele>406.7</ele>
        <time>2014-10-12T07:57:34.000Z</time>
      </trkpt>
      <trkpt lat="47.46718" lon="6.73834">
        <ele>405.9</ele>
        <time>2014-10-12T07:57:35.000Z</time>
      </trkpt>
      <trkpt lat="47.46714" lon="6.73835">
        <ele>405.4</ele>
        <time>2014-10-12T07:57:36.000Z</time>
      </trkpt>
      <trkpt lat="47.46711" lon="6.73837">
        <ele>404.2</ele>
        <time>2014-10-12T07:57:37.000Z</time>
      </trkpt>
      <trkpt lat="47.46707" lon="6.7384">
        <ele>402.1</ele>
        <time>2014-10-12T07:57:38.000Z</time>
      </trkpt>
      <trkpt lat="47.46703" lon="6.73844">
        <ele>403.9</ele>
        <time>2014-10-12T07:57:39.000Z</time>
      </trkpt>
      <trkpt lat="47.46699" lon="6.73848">
        <ele>404.5</ele>
        <time>2014-10-12T07:57:40.000Z</time>
      </trkpt>
      <trkpt lat="47.46695" lon="6.73853">
        <ele>403.5</ele>
        <time>2014-10-12T07:57:41.000Z</time>
      </trkpt>
      <trkpt lat="47.46684" lon="6.73855">
        <ele>404.2</ele>
        <time>2014-10-12T07:57:42.000Z</time>
      </trkpt>
      <trkpt lat="47.4668" lon="6.73854">
        <ele>404.3</ele>
        <time>2014-10-12T07:57:43.000Z</time>
      </trkpt>
      <trkpt lat="47.46676" lon="6.7385">
        <ele>405</ele>
        <time>2014-10-12T07:57:44.000Z</time>
      </trkpt>
      <trkpt lat="47.46674" lon="6.73846">
        <ele>404.6</ele>
        <time>2014-10-12T07:57:45.000Z</time>
      </trkpt>
      <trkpt lat="47.46672" lon="6.73841">
        <ele>404.4</ele>
        <time>2014-10-12T07:57:46.000Z</time>
      </trkpt>
      <trkpt lat="47.46674" lon="6.73842">
        <ele>402.8</ele>
        <time>2014-10-12T07:57:47.000Z</time>
      </trkpt>
      <trkpt lat="47.46674" lon="6.73832">
        <ele>401.5</ele>
        <time>2014-10-12T07:57:50.000Z</time>
      </trkpt>
      <trkpt lat="47.46674" lon="6.73827">
        <ele>401.1</ele>
        <time>2014-10-12T07:57:51.000Z</time>
      </trkpt>
      <trkpt lat="47.46674" lon="6.73823">
        <ele>400.3</ele>
        <time>2014-10-12T07:57:52.000Z</time>
      </trkpt>
      <trkpt lat="47.46673" lon="6.73819">
        <ele>400.4</ele>
        <time>2014-10-12T07:57:53.000Z</time>
      </trkpt>
      <trkpt lat="47.46672" lon="6.73815">
        <ele>399.9</ele>
        <time>2014-10-12T07:57:54.000Z</time>
      </trkpt>
      <trkpt lat="47.4667" lon="6.7381">
        <ele>405.2</ele>
        <time>2014-10-12T07:57:56.000Z</time>
      </trkpt>
      <trkpt lat="47.46669" lon="6.73807">
        <ele>405.8</ele>
        <time>2014-10-12T07:57:57.000Z</time>
      </trkpt>
      <trkpt lat="47.46668" lon="6.73804">
        <ele>405.9</ele>
        <time>2014-10-12T07:57:58.000Z</time>
      </trkpt>
      <trkpt lat="47.46666" lon="6.738">
        <ele>405.4</ele>
        <time>2014-10-12T07:57:59.000Z</time>
      </trkpt>
      <trkpt lat="47.46663" lon="6.73796">
        <ele>405.3</ele>
        <time>2014-10-12T07:58:01.000Z</time>
      </trkpt>
      <trkpt lat="47.46661" lon="6.73794">
        <ele>406.6</ele>
        <time>2014-10-12T07:58:02.000Z</time>
      </trkpt>
      <trkpt lat="47.46659" lon="6.73791">
        <ele>406.3</ele>
        <time>2014-10-12T07:58:03.000Z</time>
      </trkpt>
      <trkpt lat="47.46657" lon="6.73787">
        <ele>405.1</ele>
        <time>2014-10-12T07:58:04.000Z</time>
      </trkpt>
      <trkpt lat="47.46654" lon="6.73783">
        <ele>402.8</ele>
        <time>2014-10-12T07:58:05.000Z</time>
      </trkpt>
      <trkpt lat="47.46651" lon="6.73779">
        <ele>402.8</ele>
        <time>2014-10-12T07:58:06.000Z</time>
      </trkpt>
      <trkpt lat="47.46648" lon="6.73776">
        <ele>403</ele>
        <time>2014-10-12T07:58:07.000Z</time>
      </trkpt>
      <trkpt lat="47.46646" lon="6.73773">
        <ele>402.9</ele>
        <time>2014-10-12T07:58:08.000Z</time>
      </trkpt>
      <trkpt lat="47.46644" lon="6.7377">
        <ele>402.4</ele>
        <time>2014-10-12T07:58:09.000Z</time>
      </trkpt>
      <trkpt lat="47.46642" lon="6.73767">
        <ele>403.1</ele>
        <time>2014-10-12T07:58:10.000Z</time>
      </trkpt>
      <trkpt lat="47.46639" lon="6.73764">
        <ele>403</ele>
        <time>2014-10-12T07:58:11.000Z</time>
      </trkpt>
      <trkpt lat="47.46636" lon="6.73762">
        <ele>406.2</ele>
        <time>2014-10-12T07:58:12.000Z</time>
      </trkpt>
      <trkpt lat="47.46633" lon="6.73759">
        <ele>406.1</ele>
        <time>2014-10-12T07:58:13.000Z</time>
      </trkpt>
      <trkpt lat="47.4663" lon="6.73757">
        <ele>406.3</ele>
        <time>2014-10-12T07:58:14.000Z</time>
      </trkpt>
      <trkpt lat="47.46626" lon="6.73755">
        <ele>405</ele>
        <time>2014-10-12T07:58:15.000Z</time>
      </trkpt>
      <trkpt lat="47.46624" lon="6.73754">
        <ele>403.7</ele>
        <time>2014-10-12T07:58:16.000Z</time>
      </trkpt>
      <trkpt lat="47.46619" lon="6.73753">
        <ele>403.9</ele>
        <time>2014-10-12T07:58:18.000Z</time>
      </trkpt>
      <trkpt lat="47.46617" lon="6.73752">
        <ele>403.9</ele>
        <time>2014-10-12T07:58:19.000Z</time>
      </trkpt>
      <trkpt lat="47.46613" lon="6.73751">
        <ele>407.5</ele>
        <time>2014-10-12T07:58:21.000Z</time>
      </trkpt>
      <trkpt lat="47.46611" lon="6.7375">
        <ele>406.8</ele>
        <time>2014-10-12T07:58:22.000Z</time>
      </trkpt>
      <trkpt lat="47.46607" lon="6.7375">
        <ele>404.5</ele>
        <time>2014-10-12T07:58:24.000Z</time>
      </trkpt>
      <trkpt lat="47.46605" lon="6.73749">
        <ele>402.9</ele>
        <time>2014-10-12T07:58:25.000Z</time>
      </trkpt>
      <trkpt lat="47.46602" lon="6.73747">
        <ele>398.7</ele>
        <time>2014-10-12T07:58:27.000Z</time>
      </trkpt>
      <trkpt lat="47.466" lon="6.73746">
        <ele>396.8</ele>
        <time>2014-10-12T07:58:28.000Z</time>
      </trkpt>
      <trkpt lat="47.46597" lon="6.73742">
        <ele>393.1</ele>
        <time>2014-10-12T07:58:30.000Z</time>
      </trkpt>
      <trkpt lat="47.46596" lon="6.73741">
        <ele>393.2</ele>
        <time>2014-10-12T07:58:31.000Z</time>
      </trkpt>
      <trkpt lat="47.46592" lon="6.73738">
        <ele>397.5</ele>
        <time>2014-10-12T07:58:33.000Z</time>
      </trkpt>
      <trkpt lat="47.4659" lon="6.73738">
        <ele>397.4</ele>
        <time>2014-10-12T07:58:34.000Z</time>
      </trkpt>
      <trkpt lat="47.46587" lon="6.73736">
        <ele>397.2</ele>
        <time>2014-10-12T07:58:36.000Z</time>
      </trkpt>
      <trkpt lat="47.46585" lon="6.73734">
        <ele>396.7</ele>
        <time>2014-10-12T07:58:37.000Z</time>
      </trkpt>
      <trkpt lat="47.46582" lon="6.73732">
        <ele>395.7</ele>
        <time>2014-10-12T07:58:38.000Z</time>
      </trkpt>
      <trkpt lat="47.46578" lon="6.73729">
        <ele>395.3</ele>
        <time>2014-10-12T07:58:39.000Z</time>
      </trkpt>
      <trkpt lat="47.46575" lon="6.73727">
        <ele>394.1</ele>
        <time>2014-10-12T07:58:40.000Z</time>
      </trkpt>
      <trkpt lat="47.46573" lon="6.73726">
        <ele>393.1</ele>
        <time>2014-10-12T07:58:41.000Z</time>
      </trkpt>
      <trkpt lat="47.46568" lon="6.73726">
        <ele>394.7</ele>
        <time>2014-10-12T07:58:43.000Z</time>
      </trkpt>
      <trkpt lat="47.46566" lon="6.73726">
        <ele>395.3</ele>
        <time>2014-10-12T07:58:44.000Z</time>
      </trkpt>
      <trkpt lat="47.46563" lon="6.73727">
        <ele>394.9</ele>
        <time>2014-10-12T07:58:45.000Z</time>
      </trkpt>
      <trkpt lat="47.46561" lon="6.73727">
        <ele>389.4</ele>
        <time>2014-10-12T07:58:46.000Z</time>
      </trkpt>
      <trkpt lat="47.46558" lon="6.73728">
        <ele>387.7</ele>
        <time>2014-10-12T07:58:47.000Z</time>
      </trkpt>
      <trkpt lat="47.4654" lon="6.73731">
        <ele>385.7</ele>
        <time>2014-10-12T07:58:55.000Z</time>
      </trkpt>
      <trkpt lat="47.46538" lon="6.73732">
        <ele>385.1</ele>
        <time>2014-10-12T07:58:56.000Z</time>
      </trkpt>
      <trkpt lat="47.46536" lon="6.73733">
        <ele>384.8</ele>
        <time>2014-10-12T07:58:57.000Z</time>
      </trkpt>
      <trkpt lat="47.46532" lon="6.73736">
        <ele>382.9</ele>
        <time>2014-10-12T07:58:59.000Z</time>
      </trkpt>
      <trkpt lat="47.46531" lon="6.73737">
        <ele>382.3</ele>
        <time>2014-10-12T07:59:00.000Z</time>
      </trkpt>
      <trkpt lat="47.46527" lon="6.73741">
        <ele>379.4</ele>
        <time>2014-10-12T07:59:03.000Z</time>
      </trkpt>
      <trkpt lat="47.46526" lon="6.73742">
        <ele>380.7</ele>
        <time>2014-10-12T07:59:04.000Z</time>
      </trkpt>
      <trkpt lat="47.46522" lon="6.73744">
        <ele>382</ele>
        <time>2014-10-12T07:59:06.000Z</time>
      </trkpt>
      <trkpt lat="47.46521" lon="6.73744">
        <ele>381.7</ele>
        <time>2014-10-12T07:59:07.000Z</time>
      </trkpt>
      <trkpt lat="47.46518" lon="6.73745">
        <ele>383.1</ele>
        <time>2014-10-12T07:59:09.000Z</time>
      </trkpt>
      <trkpt lat="47.46516" lon="6.73745">
        <ele>382.3</ele>
        <time>2014-10-12T07:59:10.000Z</time>
      </trkpt>
      <trkpt lat="47.46513" lon="6.73748">
        <ele>380.8</ele>
        <time>2014-10-12T07:59:12.000Z</time>
      </trkpt>
      <trkpt lat="47.46512" lon="6.7375">
        <ele>380.7</ele>
        <time>2014-10-12T07:59:13.000Z</time>
      </trkpt>
      <trkpt lat="47.46509" lon="6.73752">
        <ele>380.9</ele>
        <time>2014-10-12T07:59:15.000Z</time>
      </trkpt>
      <trkpt lat="47.46507" lon="6.73753">
        <ele>380</ele>
        <time>2014-10-12T07:59:16.000Z</time>
      </trkpt>
      <trkpt lat="47.46504" lon="6.73754">
        <ele>378.6</ele>
        <time>2014-10-12T07:59:18.000Z</time>
      </trkpt>
      <trkpt lat="47.46502" lon="6.73754">
        <ele>379.6</ele>
        <time>2014-10-12T07:59:19.000Z</time>
      </trkpt>
      <trkpt lat="47.46499" lon="6.73754">
        <ele>379.3</ele>
        <time>2014-10-12T07:59:21.000Z</time>
      </trkpt>
      <trkpt lat="47.46497" lon="6.73755">
        <ele>378.7</ele>
        <time>2014-10-12T07:59:22.000Z</time>
      </trkpt>
      <trkpt lat="47.46494" lon="6.73756">
        <ele>377.3</ele>
        <time>2014-10-12T07:59:24.000Z</time>
      </trkpt>
      <trkpt lat="47.46493" lon="6.73756">
        <ele>376.9</ele>
        <time>2014-10-12T07:59:25.000Z</time>
      </trkpt>
      <trkpt lat="47.46489" lon="6.73756">
        <ele>378</ele>
        <time>2014-10-12T07:59:27.000Z</time>
      </trkpt>
      <trkpt lat="47.46487" lon="6.73755">
        <ele>379.5</ele>
        <time>2014-10-12T07:59:28.000Z</time>
      </trkpt>
      <trkpt lat="47.46484" lon="6.73753">
        <ele>381.6</ele>
        <time>2014-10-12T07:59:30.000Z</time>
      </trkpt>
      <trkpt lat="47.46482" lon="6.73753">
        <ele>382</ele>
        <time>2014-10-12T07:59:31.000Z</time>
      </trkpt>
      <trkpt lat="47.46478" lon="6.73751">
        <ele>380.6</ele>
        <time>2014-10-12T07:59:33.000Z</time>
      </trkpt>
      <trkpt lat="47.46476" lon="6.73751">
        <ele>380.5</ele>
        <time>2014-10-12T07:59:34.000Z</time>
      </trkpt>
      <trkpt lat="47.46472" lon="6.7375">
        <ele>380.7</ele>
        <time>2014-10-12T07:59:36.000Z</time>
      </trkpt>
      <trkpt lat="47.4647" lon="6.73749">
        <ele>380.6</ele>
        <time>2014-10-12T07:59:37.000Z</time>
      </trkpt>
      <trkpt lat="47.46466" lon="6.73747">
        <ele>381.4</ele>
        <time>2014-10-12T07:59:40.000Z</time>
      </trkpt>
      <trkpt lat="47.46465" lon="6.73747">
        <ele>381.7</ele>
        <time>2014-10-12T07:59:41.000Z</time>
      </trkpt>
      <trkpt lat="47.46462" lon="6.73745">
        <ele>383.6</ele>
        <time>2014-10-12T07:59:46.999Z</time>
      </trkpt>
      <trkpt lat="47.4646" lon="6.7374">
        <ele>385.6</ele>
        <time>2014-10-12T07:59:50.000Z</time>
      </trkpt>
      <trkpt lat="47.46457" lon="6.73738">
        <ele>386.1</ele>
        <time>2014-10-12T07:59:53.000Z</time>
      </trkpt>
      <trkpt lat="47.46456" lon="6.73738">
        <ele>387</ele>
        <time>2014-10-12T07:59:54.000Z</time>
      </trkpt>
      <trkpt lat="47.46452" lon="6.73738">
        <ele>385.9</ele>
        <time>2014-10-12T07:59:57.000Z</time>
      </trkpt>
      <trkpt lat="47.46451" lon="6.73738">
        <ele>386</ele>
        <time>2014-10-12T07:59:58.000Z</time>
      </trkpt>
      <trkpt lat="47.46448" lon="6.73739">
        <ele>383.9</ele>
        <time>2014-10-12T08:00:01.000Z</time>
      </trkpt>
      <trkpt lat="47.46446" lon="6.7374">
        <ele>383.8</ele>
        <time>2014-10-12T08:00:02.000Z</time>
      </trkpt>
      <trkpt lat="47.46443" lon="6.73742">
        <ele>383.5</ele>
        <time>2014-10-12T08:00:04.000Z</time>
      </trkpt>
      <trkpt lat="47.46441" lon="6.73743">
        <ele>383.9</ele>
        <time>2014-10-12T08:00:05.000Z</time>
      </trkpt>
      <trkpt lat="47.46438" lon="6.73746">
        <ele>383.3</ele>
        <time>2014-10-12T08:00:07.000Z</time>
      </trkpt>
      <trkpt lat="47.46436" lon="6.73747">
        <ele>383.1</ele>
        <time>2014-10-12T08:00:08.000Z</time>
      </trkpt>
      <trkpt lat="47.46432" lon="6.73748">
        <ele>381.5</ele>
        <time>2014-10-12T08:00:10.000Z</time>
      </trkpt>
      <trkpt lat="47.46431" lon="6.73748">
        <ele>381</ele>
        <time>2014-10-12T08:00:11.000Z</time>
      </trkpt>
      <trkpt lat="47.46427" lon="6.73751">
        <ele>381.3</ele>
        <time>2014-10-12T08:00:14.000Z</time>
      </trkpt>
      <trkpt lat="47.46425" lon="6.73751">
        <ele>380.8</ele>
        <time>2014-10-12T08:00:15.000Z</time>
      </trkpt>
      <trkpt lat="47.46421" lon="6.7375">
        <ele>380.8</ele>
        <time>2014-10-12T08:00:17.000Z</time>
      </trkpt>
      <trkpt lat="47.46419" lon="6.7375">
        <ele>381.7</ele>
        <time>2014-10-12T08:00:18.000Z</time>
      </trkpt>
      <trkpt lat="47.46415" lon="6.7375">
        <ele>382.2</ele>
        <time>2014-10-12T08:00:20.000Z</time>
      </trkpt>
      <trkpt lat="47.46414" lon="6.73749">
        <ele>381.5</ele>
        <time>2014-10-12T08:00:20.998Z</time>
      </trkpt>
      <trkpt lat="47.46412" lon="6.73748">
        <ele>384.9</ele>
        <time>2014-10-12T08:00:22.000Z</time>
      </trkpt>
      <trkpt lat="47.4641" lon="6.73748">
        <ele>386.5</ele>
        <time>2014-10-12T08:00:23.000Z</time>
      </trkpt>
      <trkpt lat="47.46405" lon="6.73746">
        <ele>388.8</ele>
        <time>2014-10-12T08:00:25.000Z</time>
      </trkpt>
      <trkpt lat="47.46403" lon="6.73746">
        <ele>389.5</ele>
        <time>2014-10-12T08:00:26.000Z</time>
      </trkpt>
      <trkpt lat="47.46401" lon="6.73745">
        <ele>390</ele>
        <time>2014-10-12T08:00:27.000Z</time>
      </trkpt>
      <trkpt lat="47.46398" lon="6.73744">
        <ele>389.7</ele>
        <time>2014-10-12T08:00:28.000Z</time>
      </trkpt>
      <trkpt lat="47.46393" lon="6.73744">
        <ele>394.7</ele>
        <time>2014-10-12T08:00:30.000Z</time>
      </trkpt>
      <trkpt lat="47.46391" lon="6.73744">
        <ele>395.2</ele>
        <time>2014-10-12T08:00:31.000Z</time>
      </trkpt>
      <trkpt lat="47.46388" lon="6.73743">
        <ele>397.8</ele>
        <time>2014-10-12T08:00:33.000Z</time>
      </trkpt>
      <trkpt lat="47.46385" lon="6.73743">
        <ele>398.3</ele>
        <time>2014-10-12T08:00:34.000Z</time>
      </trkpt>
      <trkpt lat="47.46383" lon="6.73742">
        <ele>399.3</ele>
        <time>2014-10-12T08:00:35.000Z</time>
      </trkpt>
      <trkpt lat="47.46381" lon="6.73741">
        <ele>400.6</ele>
        <time>2014-10-12T08:00:36.000Z</time>
      </trkpt>
      <trkpt lat="47.46377" lon="6.73739">
        <ele>402.9</ele>
        <time>2014-10-12T08:00:38.000Z</time>
      </trkpt>
      <trkpt lat="47.46375" lon="6.73738">
        <ele>404</ele>
        <time>2014-10-12T08:00:39.000Z</time>
      </trkpt>
      <trkpt lat="47.46371" lon="6.73735">
        <ele>404.5</ele>
        <time>2014-10-12T08:00:41.000Z</time>
      </trkpt>
      <trkpt lat="47.46369" lon="6.73734">
        <ele>405</ele>
        <time>2014-10-12T08:00:42.000Z</time>
      </trkpt>
      <trkpt lat="47.46366" lon="6.73732">
        <ele>404.8</ele>
        <time>2014-10-12T08:00:44.000Z</time>
      </trkpt>
      <trkpt lat="47.46364" lon="6.7373">
        <ele>405.6</ele>
        <time>2014-10-12T08:00:45.000Z</time>
      </trkpt>
      <trkpt lat="47.46362" lon="6.73727">
        <ele>405</ele>
        <time>2014-10-12T08:00:47.000Z</time>
      </trkpt>
      <trkpt lat="47.46352" lon="6.73714">
        <ele>408.2</ele>
        <time>2014-10-12T08:00:55.000Z</time>
      </trkpt>
      <trkpt lat="47.4635" lon="6.73708">
        <ele>410</ele>
        <time>2014-10-12T08:00:58.000Z</time>
      </trkpt>
      <trkpt lat="47.46349" lon="6.73705">
        <ele>410.6</ele>
        <time>2014-10-12T08:00:59.000Z</time>
      </trkpt>
      <trkpt lat="47.46348" lon="6.73702">
        <ele>410.9</ele>
        <time>2014-10-12T08:01:00.000Z</time>
      </trkpt>
      <trkpt lat="47.46347" lon="6.73698">
        <ele>411.3</ele>
        <time>2014-10-12T08:01:01.000Z</time>
      </trkpt>
      <trkpt lat="47.46346" lon="6.73694">
        <ele>411.9</ele>
        <time>2014-10-12T08:01:02.000Z</time>
      </trkpt>
      <trkpt lat="47.46344" lon="6.7369">
        <ele>412.7</ele>
        <time>2014-10-12T08:01:03.000Z</time>
      </trkpt>
      <trkpt lat="47.46343" lon="6.73686">
        <ele>411.8</ele>
        <time>2014-10-12T08:01:04.000Z</time>
      </trkpt>
      <trkpt lat="47.46342" lon="6.73682">
        <ele>412</ele>
        <time>2014-10-12T08:01:05.000Z</time>
      </trkpt>
      <trkpt lat="47.46342" lon="6.73678">
        <ele>411.3</ele>
        <time>2014-10-12T08:01:06.000Z</time>
      </trkpt>
      <trkpt lat="47.46341" lon="6.73675">
        <ele>412.6</ele>
        <time>2014-10-12T08:01:07.000Z</time>
      </trkpt>
      <trkpt lat="47.4634" lon="6.73669">
        <ele>411.2</ele>
        <time>2014-10-12T08:01:09.000Z</time>
      </trkpt>
      <trkpt lat="47.4634" lon="6.73666">
        <ele>411</ele>
        <time>2014-10-12T08:01:10.000Z</time>
      </trkpt>
      <trkpt lat="47.4634" lon="6.73661">
        <ele>410.6</ele>
        <time>2014-10-12T08:01:12.000Z</time>
      </trkpt>
      <trkpt lat="47.4634" lon="6.73658">
        <ele>411.2</ele>
        <time>2014-10-12T08:01:13.000Z</time>
      </trkpt>
      <trkpt lat="47.46341" lon="6.73652">
        <ele>411.1</ele>
        <time>2014-10-12T08:01:15.000Z</time>
      </trkpt>
      <trkpt lat="47.46342" lon="6.73649">
        <ele>409.5</ele>
        <time>2014-10-12T08:01:16.000Z</time>
      </trkpt>
      <trkpt lat="47.46343" lon="6.73644">
        <ele>409</ele>
        <time>2014-10-12T08:01:18.000Z</time>
      </trkpt>
      <trkpt lat="47.46344" lon="6.73642">
        <ele>408.1</ele>
        <time>2014-10-12T08:01:19.000Z</time>
      </trkpt>
      <trkpt lat="47.46345" lon="6.73638">
        <ele>406.7</ele>
        <time>2014-10-12T08:01:21.000Z</time>
      </trkpt>
      <trkpt lat="47.46345" lon="6.73635">
        <ele>405.3</ele>
        <time>2014-10-12T08:01:22.000Z</time>
      </trkpt>
      <trkpt lat="47.46345" lon="6.73629">
        <ele>403.6</ele>
        <time>2014-10-12T08:01:25.000Z</time>
      </trkpt>
      <trkpt lat="47.46345" lon="6.73627">
        <ele>403.3</ele>
        <time>2014-10-12T08:01:26.000Z</time>
      </trkpt>
      <trkpt lat="47.46345" lon="6.73621">
        <ele>403.8</ele>
        <time>2014-10-12T08:01:29.000Z</time>
      </trkpt>
      <trkpt lat="47.46345" lon="6.73618">
        <ele>405</ele>
        <time>2014-10-12T08:01:30.000Z</time>
      </trkpt>
      <trkpt lat="47.46344" lon="6.73612">
        <ele>407.8</ele>
        <time>2014-10-12T08:01:32.000Z</time>
      </trkpt>
      <trkpt lat="47.46344" lon="6.73609">
        <ele>408.9</ele>
        <time>2014-10-12T08:01:33.000Z</time>
      </trkpt>
      <trkpt lat="47.46344" lon="6.73606">
        <ele>410.5</ele>
        <time>2014-10-12T08:01:34.000Z</time>
      </trkpt>
      <trkpt lat="47.46344" lon="6.73602">
        <ele>412.1</ele>
        <time>2014-10-12T08:01:35.000Z</time>
      </trkpt>
      <trkpt lat="47.46343" lon="6.73599">
        <ele>412.8</ele>
        <time>2014-10-12T08:01:36.000Z</time>
      </trkpt>
      <trkpt lat="47.46342" lon="6.73595">
        <ele>414.8</ele>
        <time>2014-10-12T08:01:37.000Z</time>
      </trkpt>
      <trkpt lat="47.46342" lon="6.73592">
        <ele>415.6</ele>
        <time>2014-10-12T08:01:38.000Z</time>
      </trkpt>
      <trkpt lat="47.4634" lon="6.73588">
        <ele>416.4</ele>
        <time>2014-10-12T08:01:39.000Z</time>
      </trkpt>
      <trkpt lat="47.46339" lon="6.73584">
        <ele>417.3</ele>
        <time>2014-10-12T08:01:40.000Z</time>
      </trkpt>
      <trkpt lat="47.46338" lon="6.73581">
        <ele>418.5</ele>
        <time>2014-10-12T08:01:41.000Z</time>
      </trkpt>
      <trkpt lat="47.46337" lon="6.73577">
        <ele>421</ele>
        <time>2014-10-12T08:01:42.000Z</time>
      </trkpt>
      <trkpt lat="47.46336" lon="6.73573">
        <ele>421.9</ele>
        <time>2014-10-12T08:01:43.000Z</time>
      </trkpt>
      <trkpt lat="47.46334" lon="6.73569">
        <ele>422.7</ele>
        <time>2014-10-12T08:01:44.000Z</time>
      </trkpt>
      <trkpt lat="47.46333" lon="6.73565">
        <ele>423.2</ele>
        <time>2014-10-12T08:01:45.000Z</time>
      </trkpt>
      <trkpt lat="47.46332" lon="6.73561">
        <ele>423.7</ele>
        <time>2014-10-12T08:01:46.000Z</time>
      </trkpt>
      <trkpt lat="47.46331" lon="6.73557">
        <ele>424.2</ele>
        <time>2014-10-12T08:01:47.000Z</time>
      </trkpt>
      <trkpt lat="47.46329" lon="6.73547">
        <ele>426.4</ele>
        <time>2014-10-12T08:01:50.000Z</time>
      </trkpt>
      <trkpt lat="47.46328" lon="6.73544">
        <ele>426.7</ele>
        <time>2014-10-12T08:01:51.000Z</time>
      </trkpt>
      <trkpt lat="47.46327" lon="6.7354">
        <ele>427.6</ele>
        <time>2014-10-12T08:01:52.000Z</time>
      </trkpt>
      <trkpt lat="47.46327" lon="6.73537">
        <ele>427.5</ele>
        <time>2014-10-12T08:01:53.000Z</time>
      </trkpt>
      <trkpt lat="47.46326" lon="6.73533">
        <ele>427.5</ele>
        <time>2014-10-12T08:01:54.000Z</time>
      </trkpt>
      <trkpt lat="47.46325" lon="6.73529">
        <ele>428.1</ele>
        <time>2014-10-12T08:01:55.000Z</time>
      </trkpt>
      <trkpt lat="47.46325" lon="6.73526">
        <ele>428.5</ele>
        <time>2014-10-12T08:01:56.000Z</time>
      </trkpt>
      <trkpt lat="47.46324" lon="6.73522">
        <ele>428.8</ele>
        <time>2014-10-12T08:01:57.000Z</time>
      </trkpt>
      <trkpt lat="47.46324" lon="6.73518">
        <ele>428.8</ele>
        <time>2014-10-12T08:01:58.000Z</time>
      </trkpt>
      <trkpt lat="47.46324" lon="6.73515">
        <ele>428.8</ele>
        <time>2014-10-12T08:01:59.000Z</time>
      </trkpt>
      <trkpt lat="47.46323" lon="6.73511">
        <ele>429</ele>
        <time>2014-10-12T08:02:00.000Z</time>
      </trkpt>
      <trkpt lat="47.46323" lon="6.73507">
        <ele>429.3</ele>
        <time>2014-10-12T08:02:01.000Z</time>
      </trkpt>
      <trkpt lat="47.46323" lon="6.73503">
        <ele>429.7</ele>
        <time>2014-10-12T08:02:02.000Z</time>
      </trkpt>
      <trkpt lat="47.46322" lon="6.73499">
        <ele>429.8</ele>
        <time>2014-10-12T08:02:03.000Z</time>
      </trkpt>
      <trkpt lat="47.46322" lon="6.73495">
        <ele>430.4</ele>
        <time>2014-10-12T08:02:04.000Z</time>
      </trkpt>
      <trkpt lat="47.46322" lon="6.73491">
        <ele>431.2</ele>
        <time>2014-10-12T08:02:05.000Z</time>
      </trkpt>
      <trkpt lat="47.46322" lon="6.73487">
        <ele>431</ele>
        <time>2014-10-12T08:02:06.000Z</time>
      </trkpt>
      <trkpt lat="47.46322" lon="6.73483">
        <ele>431.4</ele>
        <time>2014-10-12T08:02:07.000Z</time>
      </trkpt>
      <trkpt lat="47.46322" lon="6.73479">
        <ele>431.7</ele>
        <time>2014-10-12T08:02:08.000Z</time>
      </trkpt>
      <trkpt lat="47.46322" lon="6.73475">
        <ele>431.6</ele>
        <time>2014-10-12T08:02:09.000Z</time>
      </trkpt>
      <trkpt lat="47.46322" lon="6.73471">
        <ele>431.4</ele>
        <time>2014-10-12T08:02:10.000Z</time>
      </trkpt>
      <trkpt lat="47.46322" lon="6.73467">
        <ele>431.6</ele>
        <time>2014-10-12T08:02:11.000Z</time>
      </trkpt>
      <trkpt lat="47.46322" lon="6.73463">
        <ele>431.9</ele>
        <time>2014-10-12T08:02:12.000Z</time>
      </trkpt>
      <trkpt lat="47.46322" lon="6.73458">
        <ele>431.6</ele>
        <time>2014-10-12T08:02:13.000Z</time>
      </trkpt>
      <trkpt lat="47.46322" lon="6.73454">
        <ele>432</ele>
        <time>2014-10-12T08:02:14.000Z</time>
      </trkpt>
      <trkpt lat="47.46322" lon="6.7345">
        <ele>432</ele>
        <time>2014-10-12T08:02:15.000Z</time>
      </trkpt>
      <trkpt lat="47.46322" lon="6.73446">
        <ele>431.9</ele>
        <time>2014-10-12T08:02:16.000Z</time>
      </trkpt>
      <trkpt lat="47.46322" lon="6.73441">
        <ele>431.6</ele>
        <time>2014-10-12T08:02:17.000Z</time>
      </trkpt>
      <trkpt lat="47.46322" lon="6.73437">
        <ele>431.5</ele>
        <time>2014-10-12T08:02:18.000Z</time>
      </trkpt>
      <trkpt lat="47.46322" lon="6.73432">
        <ele>430.9</ele>
        <time>2014-10-12T08:02:19.000Z</time>
      </trkpt>
      <trkpt lat="47.46322" lon="6.73428">
        <ele>431.3</ele>
        <time>2014-10-12T08:02:20.000Z</time>
      </trkpt>
      <trkpt lat="47.46322" lon="6.73423">
        <ele>431.2</ele>
        <time>2014-10-12T08:02:21.000Z</time>
      </trkpt>
      <trkpt lat="47.46322" lon="6.73419">
        <ele>431.4</ele>
        <time>2014-10-12T08:02:22.000Z</time>
      </trkpt>
      <trkpt lat="47.46322" lon="6.73414">
        <ele>431.3</ele>
        <time>2014-10-12T08:02:23.000Z</time>
      </trkpt>
      <trkpt lat="47.46322" lon="6.73409">
        <ele>431.2</ele>
        <time>2014-10-12T08:02:24.000Z</time>
      </trkpt>
      <trkpt lat="47.46322" lon="6.73405">
        <ele>431.5</ele>
        <time>2014-10-12T08:02:25.000Z</time>
      </trkpt>
      <trkpt lat="47.46322" lon="6.734">
        <ele>431.2</ele>
        <time>2014-10-12T08:02:26.000Z</time>
      </trkpt>
      <trkpt lat="47.46322" lon="6.73396">
        <ele>431.2</ele>
        <time>2014-10-12T08:02:27.000Z</time>
      </trkpt>
      <trkpt lat="47.46322" lon="6.73391">
        <ele>431.5</ele>
        <time>2014-10-12T08:02:28.000Z</time>
      </trkpt>
      <trkpt lat="47.46321" lon="6.73387">
        <ele>431.3</ele>
        <time>2014-10-12T08:02:29.000Z</time>
      </trkpt>
      <trkpt lat="47.46321" lon="6.73382">
        <ele>431</ele>
        <time>2014-10-12T08:02:30.000Z</time>
      </trkpt>
      <trkpt lat="47.46321" lon="6.73378">
        <ele>430.9</ele>
        <time>2014-10-12T08:02:31.000Z</time>
      </trkpt>
      <trkpt lat="47.46321" lon="6.73373">
        <ele>431.4</ele>
        <time>2014-10-12T08:02:32.000Z</time>
      </trkpt>
      <trkpt lat="47.4632" lon="6.73368">
        <ele>431.6</ele>
        <time>2014-10-12T08:02:33.000Z</time>
      </trkpt>
      <trkpt lat="47.4632" lon="6.73364">
        <ele>431.4</ele>
        <time>2014-10-12T08:02:34.000Z</time>
      </trkpt>
      <trkpt lat="47.4632" lon="6.73359">
        <ele>430.2</ele>
        <time>2014-10-12T08:02:35.000Z</time>
      </trkpt>
      <trkpt lat="47.46319" lon="6.73355">
        <ele>430.6</ele>
        <time>2014-10-12T08:02:36.000Z</time>
      </trkpt>
      <trkpt lat="47.46319" lon="6.7335">
        <ele>430.8</ele>
        <time>2014-10-12T08:02:37.000Z</time>
      </trkpt>
      <trkpt lat="47.4632" lon="6.73346">
        <ele>430.8</ele>
        <time>2014-10-12T08:02:38.000Z</time>
      </trkpt>
      <trkpt lat="47.4632" lon="6.73341">
        <ele>431</ele>
        <time>2014-10-12T08:02:39.000Z</time>
      </trkpt>
      <trkpt lat="47.4632" lon="6.73336">
        <ele>431.4</ele>
        <time>2014-10-12T08:02:40.000Z</time>
      </trkpt>
      <trkpt lat="47.4632" lon="6.73332">
        <ele>431.6</ele>
        <time>2014-10-12T08:02:41.000Z</time>
      </trkpt>
      <trkpt lat="47.4632" lon="6.73327">
        <ele>431.5</ele>
        <time>2014-10-12T08:02:42.000Z</time>
      </trkpt>
      <trkpt lat="47.4632" lon="6.73321">
        <ele>431.6</ele>
        <time>2014-10-12T08:02:43.000Z</time>
      </trkpt>
      <trkpt lat="47.4632" lon="6.73316">
        <ele>431.1</ele>
        <time>2014-10-12T08:02:44.000Z</time>
      </trkpt>
      <trkpt lat="47.4632" lon="6.73311">
        <ele>431.4</ele>
        <time>2014-10-12T08:02:45.000Z</time>
      </trkpt>
      <trkpt lat="47.4632" lon="6.73306">
        <ele>431.2</ele>
        <time>2014-10-12T08:02:46.000Z</time>
      </trkpt>
      <trkpt lat="47.4632" lon="6.73301">
        <ele>432.1</ele>
        <time>2014-10-12T08:02:47.000Z</time>
      </trkpt>
      <trkpt lat="47.4632" lon="6.73262">
        <ele>433.2</ele>
        <time>2014-10-12T08:02:55.000Z</time>
      </trkpt>
      <trkpt lat="47.4632" lon="6.73258">
        <ele>434.2</ele>
        <time>2014-10-12T08:02:56.000Z</time>
      </trkpt>
      <trkpt lat="47.4632" lon="6.73254">
        <ele>434.3</ele>
        <time>2014-10-12T08:02:57.000Z</time>
      </trkpt>
      <trkpt lat="47.4632" lon="6.73249">
        <ele>435.2</ele>
        <time>2014-10-12T08:02:58.000Z</time>
      </trkpt>
      <trkpt lat="47.4632" lon="6.73245">
        <ele>435.6</ele>
        <time>2014-10-12T08:02:59.000Z</time>
      </trkpt>
      <trkpt lat="47.4632" lon="6.7324">
        <ele>436.8</ele>
        <time>2014-10-12T08:03:00.000Z</time>
      </trkpt>
      <trkpt lat="47.4632" lon="6.73236">
        <ele>437.6</ele>
        <time>2014-10-12T08:03:01.000Z</time>
      </trkpt>
      <trkpt lat="47.46321" lon="6.73232">
        <ele>438.2</ele>
        <time>2014-10-12T08:03:02.000Z</time>
      </trkpt>
      <trkpt lat="47.46321" lon="6.73228">
        <ele>437.8</ele>
        <time>2014-10-12T08:03:03.000Z</time>
      </trkpt>
      <trkpt lat="47.46321" lon="6.73224">
        <ele>438.3</ele>
        <time>2014-10-12T08:03:04.000Z</time>
      </trkpt>
      <trkpt lat="47.46321" lon="6.7322">
        <ele>438.7</ele>
        <time>2014-10-12T08:03:05.000Z</time>
      </trkpt>
      <trkpt lat="47.46321" lon="6.73216">
        <ele>439.4</ele>
        <time>2014-10-12T08:03:06.000Z</time>
      </trkpt>
      <trkpt lat="47.4632" lon="6.73212">
        <ele>439.7</ele>
        <time>2014-10-12T08:03:07.000Z</time>
      </trkpt>
      <trkpt lat="47.4632" lon="6.73209">
        <ele>440</ele>
        <time>2014-10-12T08:03:08.000Z</time>
      </trkpt>
      <trkpt lat="47.4632" lon="6.73205">
        <ele>440.2</ele>
        <time>2014-10-12T08:03:09.000Z</time>
      </trkpt>
      <trkpt lat="47.4632" lon="6.73201">
        <ele>440</ele>
        <time>2014-10-12T08:03:10.000Z</time>
      </trkpt>
      <trkpt lat="47.4632" lon="6.73198">
        <ele>440.1</ele>
        <time>2014-10-12T08:03:11.000Z</time>
      </trkpt>
      <trkpt lat="47.46321" lon="6.73194">
        <ele>440.6</ele>
        <time>2014-10-12T08:03:12.000Z</time>
      </trkpt>
      <trkpt lat="47.46321" lon="6.7319">
        <ele>441.3</ele>
        <time>2014-10-12T08:03:13.000Z</time>
      </trkpt>
      <trkpt lat="47.46321" lon="6.73187">
        <ele>441.5</ele>
        <time>2014-10-12T08:03:14.000Z</time>
      </trkpt>
      <trkpt lat="47.46321" lon="6.73183">
        <ele>441.5</ele>
        <time>2014-10-12T08:03:15.000Z</time>
      </trkpt>
      <trkpt lat="47.46321" lon="6.73178">
        <ele>441.8</ele>
        <time>2014-10-12T08:03:16.000Z</time>
      </trkpt>
      <trkpt lat="47.46321" lon="6.73174">
        <ele>442</ele>
        <time>2014-10-12T08:03:17.000Z</time>
      </trkpt>
      <trkpt lat="47.46321" lon="6.73169">
        <ele>442.2</ele>
        <time>2014-10-12T08:03:18.000Z</time>
      </trkpt>
      <trkpt lat="47.46321" lon="6.73165">
        <ele>442.4</ele>
        <time>2014-10-12T08:03:19.000Z</time>
      </trkpt>
      <trkpt lat="47.46321" lon="6.7316">
        <ele>442.6</ele>
        <time>2014-10-12T08:03:20.000Z</time>
      </trkpt>
      <trkpt lat="47.46321" lon="6.73156">
        <ele>442.6</ele>
        <time>2014-10-12T08:03:21.000Z</time>
      </trkpt>
      <trkpt lat="47.46321" lon="6.73151">
        <ele>442.8</ele>
        <time>2014-10-12T08:03:22.000Z</time>
      </trkpt>
      <trkpt lat="47.46321" lon="6.73147">
        <ele>442.6</ele>
        <time>2014-10-12T08:03:23.000Z</time>
      </trkpt>
      <trkpt lat="47.46321" lon="6.73142">
        <ele>443.1</ele>
        <time>2014-10-12T08:03:24.000Z</time>
      </trkpt>
      <trkpt lat="47.46321" lon="6.73138">
        <ele>443.2</ele>
        <time>2014-10-12T08:03:25.000Z</time>
      </trkpt>
      <trkpt lat="47.46321" lon="6.73134">
        <ele>442.3</ele>
        <time>2014-10-12T08:03:26.000Z</time>
      </trkpt>
      <trkpt lat="47.46321" lon="6.73129">
        <ele>442.7</ele>
        <time>2014-10-12T08:03:27.000Z</time>
      </trkpt>
      <trkpt lat="47.46321" lon="6.73125">
        <ele>442.7</ele>
        <time>2014-10-12T08:03:28.000Z</time>
      </trkpt>
      <trkpt lat="47.46321" lon="6.7312">
        <ele>443.5</ele>
        <time>2014-10-12T08:03:29.000Z</time>
      </trkpt>
      <trkpt lat="47.46321" lon="6.73116">
        <ele>443.4</ele>
        <time>2014-10-12T08:03:30.000Z</time>
      </trkpt>
      <trkpt lat="47.46321" lon="6.73111">
        <ele>443.3</ele>
        <time>2014-10-12T08:03:31.000Z</time>
      </trkpt>
      <trkpt lat="47.46321" lon="6.73106">
        <ele>443.5</ele>
        <time>2014-10-12T08:03:32.000Z</time>
      </trkpt>
      <trkpt lat="47.46321" lon="6.73102">
        <ele>443.3</ele>
        <time>2014-10-12T08:03:33.000Z</time>
      </trkpt>
      <trkpt lat="47.46321" lon="6.73097">
        <ele>443.6</ele>
        <time>2014-10-12T08:03:34.000Z</time>
      </trkpt>
      <trkpt lat="47.46321" lon="6.73092">
        <ele>443.9</ele>
        <time>2014-10-12T08:03:35.000Z</time>
      </trkpt>
      <trkpt lat="47.46321" lon="6.73087">
        <ele>443.5</ele>
        <time>2014-10-12T08:03:36.000Z</time>
      </trkpt>
      <trkpt lat="47.46321" lon="6.73082">
        <ele>443.2</ele>
        <time>2014-10-12T08:03:37.000Z</time>
      </trkpt>
      <trkpt lat="47.46321" lon="6.73077">
        <ele>443.2</ele>
        <time>2014-10-12T08:03:38.000Z</time>
      </trkpt>
      <trkpt lat="47.46321" lon="6.73071">
        <ele>443</ele>
        <time>2014-10-12T08:03:39.000Z</time>
      </trkpt>
      <trkpt lat="47.46321" lon="6.73066">
        <ele>443.9</ele>
        <time>2014-10-12T08:03:40.000Z</time>
      </trkpt>
      <trkpt lat="47.46322" lon="6.73059">
        <ele>444.2</ele>
        <time>2014-10-12T08:03:41.000Z</time>
      </trkpt>
      <trkpt lat="47.46322" lon="6.73053">
        <ele>443.7</ele>
        <time>2014-10-12T08:03:42.000Z</time>
      </trkpt>
      <trkpt lat="47.46323" lon="6.73047">
        <ele>443.5</ele>
        <time>2014-10-12T08:03:43.000Z</time>
      </trkpt>
      <trkpt lat="47.46323" lon="6.73042">
        <ele>443.2</ele>
        <time>2014-10-12T08:03:44.000Z</time>
      </trkpt>
      <trkpt lat="47.46323" lon="6.73036">
        <ele>443.3</ele>
        <time>2014-10-12T08:03:45.000Z</time>
      </trkpt>
      <trkpt lat="47.46323" lon="6.7303">
        <ele>443.4</ele>
        <time>2014-10-12T08:03:46.000Z</time>
      </trkpt>
      <trkpt lat="47.46323" lon="6.73025">
        <ele>443.6</ele>
        <time>2014-10-12T08:03:47.000Z</time>
      </trkpt>
      <trkpt lat="47.46323" lon="6.73009">
        <ele>443.8</ele>
        <time>2014-10-12T08:03:50.000Z</time>
      </trkpt>
      <trkpt lat="47.46323" lon="6.73">
        <ele>444.1</ele>
        <time>2014-10-12T08:03:51.000Z</time>
      </trkpt>
      <trkpt lat="47.46323" lon="6.72993">
        <ele>444.5</ele>
        <time>2014-10-12T08:03:52.000Z</time>
      </trkpt>
      <trkpt lat="47.46323" lon="6.72986">
        <ele>444.2</ele>
        <time>2014-10-12T08:03:53.000Z</time>
      </trkpt>
      <trkpt lat="47.46323" lon="6.72979">
        <ele>444.9</ele>
        <time>2014-10-12T08:03:54.000Z</time>
      </trkpt>
      <trkpt lat="47.46323" lon="6.72971">
        <ele>444.8</ele>
        <time>2014-10-12T08:03:55.000Z</time>
      </trkpt>
      <trkpt lat="47.46323" lon="6.72964">
        <ele>444.5</ele>
        <time>2014-10-12T08:03:56.000Z</time>
      </trkpt>
      <trkpt lat="47.46323" lon="6.72956">
        <ele>444.4</ele>
        <time>2014-10-12T08:03:57.000Z</time>
      </trkpt>
      <trkpt lat="47.46323" lon="6.72948">
        <ele>444</ele>
        <time>2014-10-12T08:03:58.000Z</time>
      </trkpt>
      <trkpt lat="47.46322" lon="6.7294">
        <ele>443.8</ele>
        <time>2014-10-12T08:03:59.000Z</time>
      </trkpt>
      <trkpt lat="47.46321" lon="6.72932">
        <ele>443.6</ele>
        <time>2014-10-12T08:04:00.000Z</time>
      </trkpt>
      <trkpt lat="47.4632" lon="6.72923">
        <ele>443.1</ele>
        <time>2014-10-12T08:04:01.000Z</time>
      </trkpt>
      <trkpt lat="47.46319" lon="6.72915">
        <ele>443.1</ele>
        <time>2014-10-12T08:04:02.000Z</time>
      </trkpt>
      <trkpt lat="47.46318" lon="6.72906">
        <ele>442.8</ele>
        <time>2014-10-12T08:04:03.000Z</time>
      </trkpt>
      <trkpt lat="47.46316" lon="6.72897">
        <ele>442.3</ele>
        <time>2014-10-12T08:04:04.000Z</time>
      </trkpt>
      <trkpt lat="47.46315" lon="6.7289">
        <ele>442.3</ele>
        <time>2014-10-12T08:04:05.000Z</time>
      </trkpt>
      <trkpt lat="47.46313" lon="6.72881">
        <ele>442.2</ele>
        <time>2014-10-12T08:04:06.000Z</time>
      </trkpt>
      <trkpt lat="47.46311" lon="6.72873">
        <ele>441.7</ele>
        <time>2014-10-12T08:04:07.000Z</time>
      </trkpt>
      <trkpt lat="47.46308" lon="6.72866">
        <ele>441.5</ele>
        <time>2014-10-12T08:04:08.000Z</time>
      </trkpt>
      <trkpt lat="47.46305" lon="6.72857">
        <ele>440.8</ele>
        <time>2014-10-12T08:04:09.000Z</time>
      </trkpt>
      <trkpt lat="47.46302" lon="6.7285">
        <ele>441.4</ele>
        <time>2014-10-12T08:04:10.000Z</time>
      </trkpt>
      <trkpt lat="47.46299" lon="6.72845">
        <ele>441.8</ele>
        <time>2014-10-12T08:04:11.000Z</time>
      </trkpt>
      <trkpt lat="47.46296" lon="6.72843">
        <ele>443</ele>
        <time>2014-10-12T08:04:12.000Z</time>
      </trkpt>
      <trkpt lat="47.46292" lon="6.72843">
        <ele>443.6</ele>
        <time>2014-10-12T08:04:14.000Z</time>
      </trkpt>
      <trkpt lat="47.4629" lon="6.72845">
        <ele>442.8</ele>
        <time>2014-10-12T08:04:15.000Z</time>
      </trkpt>
      <trkpt lat="47.46287" lon="6.72848">
        <ele>442</ele>
        <time>2014-10-12T08:04:17.000Z</time>
      </trkpt>
      <trkpt lat="47.46286" lon="6.72851">
        <ele>441.4</ele>
        <time>2014-10-12T08:04:18.000Z</time>
      </trkpt>
      <trkpt lat="47.46284" lon="6.72855">
        <ele>442.7</ele>
        <time>2014-10-12T08:04:20.000Z</time>
      </trkpt>
      <trkpt lat="47.46283" lon="6.72857">
        <ele>442.7</ele>
        <time>2014-10-12T08:04:21.000Z</time>
      </trkpt>
      <trkpt lat="47.4628" lon="6.72861">
        <ele>443.2</ele>
        <time>2014-10-12T08:04:23.000Z</time>
      </trkpt>
      <trkpt lat="47.46279" lon="6.72863">
        <ele>443.3</ele>
        <time>2014-10-12T08:04:24.000Z</time>
      </trkpt>
      <trkpt lat="47.46276" lon="6.72867">
        <ele>442.6</ele>
        <time>2014-10-12T08:04:26.000Z</time>
      </trkpt>
      <trkpt lat="47.46274" lon="6.72868">
        <ele>441.8</ele>
        <time>2014-10-12T08:04:27.000Z</time>
      </trkpt>
      <trkpt lat="47.46271" lon="6.72872">
        <ele>445.2</ele>
        <time>2014-10-12T08:04:29.000Z</time>
      </trkpt>
      <trkpt lat="47.4627" lon="6.72874">
        <ele>445.6</ele>
        <time>2014-10-12T08:04:30.000Z</time>
      </trkpt>
      <trkpt lat="47.46267" lon="6.72878">
        <ele>447.4</ele>
        <time>2014-10-12T08:04:32.000Z</time>
      </trkpt>
      <trkpt lat="47.46266" lon="6.7288">
        <ele>446.4</ele>
        <time>2014-10-12T08:04:33.000Z</time>
      </trkpt>
      <trkpt lat="47.46263" lon="6.72884">
        <ele>445.4</ele>
        <time>2014-10-12T08:04:35.000Z</time>
      </trkpt>
      <trkpt lat="47.46261" lon="6.72886">
        <ele>446.8</ele>
        <time>2014-10-12T08:04:36.000Z</time>
      </trkpt>
      <trkpt lat="47.46257" lon="6.7289">
        <ele>447.6</ele>
        <time>2014-10-12T08:04:38.000Z</time>
      </trkpt>
      <trkpt lat="47.46256" lon="6.72892">
        <ele>447.7</ele>
        <time>2014-10-12T08:04:39.000Z</time>
      </trkpt>
      <trkpt lat="47.46252" lon="6.72895">
        <ele>447.6</ele>
        <time>2014-10-12T08:04:41.000Z</time>
      </trkpt>
      <trkpt lat="47.4625" lon="6.72897">
        <ele>448.9</ele>
        <time>2014-10-12T08:04:42.000Z</time>
      </trkpt>
      <trkpt lat="47.46247" lon="6.72901">
        <ele>449.9</ele>
        <time>2014-10-12T08:04:44.000Z</time>
      </trkpt>
      <trkpt lat="47.46245" lon="6.72904">
        <ele>449.7</ele>
        <time>2014-10-12T08:04:45.000Z</time>
      </trkpt>
      <trkpt lat="47.46244" lon="6.72906">
        <ele>449.5</ele>
        <time>2014-10-12T08:04:46.000Z</time>
      </trkpt>
      <trkpt lat="47.46242" lon="6.72908">
        <ele>449.3</ele>
        <time>2014-10-12T08:04:47.000Z</time>
      </trkpt>
      <trkpt lat="47.46223" lon="6.72919">
        <ele>452</ele>
        <time>2014-10-12T08:04:55.000Z</time>
      </trkpt>
      <trkpt lat="47.46222" lon="6.72916">
        <ele>451.8</ele>
        <time>2014-10-12T08:04:56.000Z</time>
      </trkpt>
      <trkpt lat="47.4622" lon="6.72912">
        <ele>451.8</ele>
        <time>2014-10-12T08:04:57.000Z</time>
      </trkpt>
      <trkpt lat="47.4622" lon="6.72906">
        <ele>451.5</ele>
        <time>2014-10-12T08:04:58.000Z</time>
      </trkpt>
      <trkpt lat="47.46219" lon="6.72901">
        <ele>451.5</ele>
        <time>2014-10-12T08:04:59.000Z</time>
      </trkpt>
      <trkpt lat="47.46218" lon="6.72895">
        <ele>451.4</ele>
        <time>2014-10-12T08:05:00.000Z</time>
      </trkpt>
      <trkpt lat="47.46217" lon="6.7289">
        <ele>450.5</ele>
        <time>2014-10-12T08:05:01.000Z</time>
      </trkpt>
      <trkpt lat="47.46216" lon="6.72884">
        <ele>450</ele>
        <time>2014-10-12T08:05:02.000Z</time>
      </trkpt>
      <trkpt lat="47.46215" lon="6.72879">
        <ele>449.2</ele>
        <time>2014-10-12T08:05:03.000Z</time>
      </trkpt>
      <trkpt lat="47.46214" lon="6.72874">
        <ele>448.9</ele>
        <time>2014-10-12T08:05:04.000Z</time>
      </trkpt>
      <trkpt lat="47.46214" lon="6.72869">
        <ele>448.4</ele>
        <time>2014-10-12T08:05:05.000Z</time>
      </trkpt>
      <trkpt lat="47.46213" lon="6.72863">
        <ele>447.9</ele>
        <time>2014-10-12T08:05:06.000Z</time>
      </trkpt>
      <trkpt lat="47.46212" lon="6.72858">
        <ele>448</ele>
        <time>2014-10-12T08:05:07.000Z</time>
      </trkpt>
      <trkpt lat="47.46212" lon="6.72853">
        <ele>448.7</ele>
        <time>2014-10-12T08:05:08.000Z</time>
      </trkpt>
      <trkpt lat="47.46211" lon="6.72848">
        <ele>449.6</ele>
        <time>2014-10-12T08:05:09.000Z</time>
      </trkpt>
      <trkpt lat="47.4621" lon="6.72843">
        <ele>450.3</ele>
        <time>2014-10-12T08:05:10.000Z</time>
      </trkpt>
      <trkpt lat="47.4621" lon="6.72839">
        <ele>451.1</ele>
        <time>2014-10-12T08:05:11.000Z</time>
      </trkpt>
      <trkpt lat="47.46209" lon="6.72833">
        <ele>448.1</ele>
        <time>2014-10-12T08:05:12.000Z</time>
      </trkpt>
      <trkpt lat="47.46208" lon="6.72827">
        <ele>447.7</ele>
        <time>2014-10-12T08:05:13.000Z</time>
      </trkpt>
      <trkpt lat="47.46207" lon="6.72821">
        <ele>448.6</ele>
        <time>2014-10-12T08:05:14.000Z</time>
      </trkpt>
      <trkpt lat="47.46207" lon="6.72815">
        <ele>449.1</ele>
        <time>2014-10-12T08:05:15.000Z</time>
      </trkpt>
      <trkpt lat="47.46208" lon="6.72809">
        <ele>449.2</ele>
        <time>2014-10-12T08:05:16.000Z</time>
      </trkpt>
      <trkpt lat="47.46208" lon="6.72803">
        <ele>449.6</ele>
        <time>2014-10-12T08:05:17.000Z</time>
      </trkpt>
      <trkpt lat="47.46207" lon="6.72798">
        <ele>449.7</ele>
        <time>2014-10-12T08:05:18.000Z</time>
      </trkpt>
      <trkpt lat="47.46206" lon="6.72792">
        <ele>450.1</ele>
        <time>2014-10-12T08:05:19.000Z</time>
      </trkpt>
      <trkpt lat="47.46198" lon="6.72782">
        <ele>449.7</ele>
        <time>2014-10-12T08:05:20.000Z</time>
      </trkpt>
      <trkpt lat="47.46192" lon="6.72776">
        <ele>447</ele>
        <time>2014-10-12T08:05:21.000Z</time>
      </trkpt>
      <trkpt lat="47.46187" lon="6.7277">
        <ele>446.8</ele>
        <time>2014-10-12T08:05:22.000Z</time>
      </trkpt>
      <trkpt lat="47.46182" lon="6.72762">
        <ele>446.5</ele>
        <time>2014-10-12T08:05:23.000Z</time>
      </trkpt>
      <trkpt lat="47.46177" lon="6.72754">
        <ele>446.6</ele>
        <time>2014-10-12T08:05:24.000Z</time>
      </trkpt>
      <trkpt lat="47.46173" lon="6.72748">
        <ele>447.6</ele>
        <time>2014-10-12T08:05:25.000Z</time>
      </trkpt>
      <trkpt lat="47.46169" lon="6.72742">
        <ele>447.6</ele>
        <time>2014-10-12T08:05:26.000Z</time>
      </trkpt>
      <trkpt lat="47.46165" lon="6.72737">
        <ele>447.5</ele>
        <time>2014-10-12T08:05:27.000Z</time>
      </trkpt>
      <trkpt lat="47.4616" lon="6.72731">
        <ele>447.2</ele>
        <time>2014-10-12T08:05:28.000Z</time>
      </trkpt>
      <trkpt lat="47.46156" lon="6.72726">
        <ele>446.2</ele>
        <time>2014-10-12T08:05:29.000Z</time>
      </trkpt>
      <trkpt lat="47.46151" lon="6.7272">
        <ele>445.7</ele>
        <time>2014-10-12T08:05:30.000Z</time>
      </trkpt>
      <trkpt lat="47.46147" lon="6.72715">
        <ele>444.7</ele>
        <time>2014-10-12T08:05:31.000Z</time>
      </trkpt>
      <trkpt lat="47.46143" lon="6.7271">
        <ele>444.9</ele>
        <time>2014-10-12T08:05:32.000Z</time>
      </trkpt>
      <trkpt lat="47.4614" lon="6.72706">
        <ele>447.4</ele>
        <time>2014-10-12T08:05:33.000Z</time>
      </trkpt>
      <trkpt lat="47.46137" lon="6.72701">
        <ele>447.4</ele>
        <time>2014-10-12T08:05:34.000Z</time>
      </trkpt>
      <trkpt lat="47.46132" lon="6.72697">
        <ele>446.3</ele>
        <time>2014-10-12T08:05:35.000Z</time>
      </trkpt>
      <trkpt lat="47.46128" lon="6.72692">
        <ele>445.5</ele>
        <time>2014-10-12T08:05:36.000Z</time>
      </trkpt>
      <trkpt lat="47.46125" lon="6.72689">
        <ele>448.4</ele>
        <time>2014-10-12T08:05:37.000Z</time>
      </trkpt>
      <trkpt lat="47.46121" lon="6.72683">
        <ele>449</ele>
        <time>2014-10-12T08:05:38.000Z</time>
      </trkpt>
      <trkpt lat="47.46116" lon="6.72682">
        <ele>452.4</ele>
        <time>2014-10-12T08:05:39.000Z</time>
      </trkpt>
      <trkpt lat="47.46113" lon="6.72676">
        <ele>451.3</ele>
        <time>2014-10-12T08:05:40.000Z</time>
      </trkpt>
      <trkpt lat="47.4611" lon="6.72672">
        <ele>451.5</ele>
        <time>2014-10-12T08:05:41.000Z</time>
      </trkpt>
      <trkpt lat="47.46106" lon="6.72667">
        <ele>451.9</ele>
        <time>2014-10-12T08:05:42.000Z</time>
      </trkpt>
      <trkpt lat="47.46101" lon="6.7266">
        <ele>450.8</ele>
        <time>2014-10-12T08:05:43.000Z</time>
      </trkpt>
      <trkpt lat="47.46097" lon="6.72654">
        <ele>450.3</ele>
        <time>2014-10-12T08:05:44.000Z</time>
      </trkpt>
      <trkpt lat="47.46093" lon="6.72647">
        <ele>449.5</ele>
        <time>2014-10-12T08:05:45.000Z</time>
      </trkpt>
      <trkpt lat="47.4609" lon="6.72641">
        <ele>448.2</ele>
        <time>2014-10-12T08:05:46.000Z</time>
      </trkpt>
      <trkpt lat="47.46087" lon="6.72635">
        <ele>447.7</ele>
        <time>2014-10-12T08:05:47.000Z</time>
      </trkpt>
      <trkpt lat="47.46077" lon="6.72621">
        <ele>448.6</ele>
        <time>2014-10-12T08:05:50.000Z</time>
      </trkpt>
      <trkpt lat="47.46071" lon="6.72615">
        <ele>449.6</ele>
        <time>2014-10-12T08:05:51.000Z</time>
      </trkpt>
      <trkpt lat="47.46067" lon="6.7261">
        <ele>449.2</ele>
        <time>2014-10-12T08:05:52.000Z</time>
      </trkpt>
      <trkpt lat="47.46062" lon="6.72605">
        <ele>449.4</ele>
        <time>2014-10-12T08:05:53.000Z</time>
      </trkpt>
      <trkpt lat="47.46056" lon="6.72599">
        <ele>451</ele>
        <time>2014-10-12T08:05:54.000Z</time>
      </trkpt>
      <trkpt lat="47.4605" lon="6.72593">
        <ele>449.8</ele>
        <time>2014-10-12T08:05:55.000Z</time>
      </trkpt>
      <trkpt lat="47.46046" lon="6.72587">
        <ele>451.1</ele>
        <time>2014-10-12T08:05:56.000Z</time>
      </trkpt>
      <trkpt lat="47.46041" lon="6.72582">
        <ele>451.9</ele>
        <time>2014-10-12T08:05:57.000Z</time>
      </trkpt>
      <trkpt lat="47.46037" lon="6.72576">
        <ele>453.2</ele>
        <time>2014-10-12T08:05:58.000Z</time>
      </trkpt>
      <trkpt lat="47.46032" lon="6.72569">
        <ele>452.5</ele>
        <time>2014-10-12T08:05:59.000Z</time>
      </trkpt>
      <trkpt lat="47.46027" lon="6.72563">
        <ele>452.4</ele>
        <time>2014-10-12T08:06:00.000Z</time>
      </trkpt>
      <trkpt lat="47.46022" lon="6.72556">
        <ele>452</ele>
        <time>2014-10-12T08:06:01.000Z</time>
      </trkpt>
      <trkpt lat="47.46017" lon="6.7255">
        <ele>451.2</ele>
        <time>2014-10-12T08:06:02.000Z</time>
      </trkpt>
      <trkpt lat="47.46012" lon="6.72544">
        <ele>450.7</ele>
        <time>2014-10-12T08:06:03.000Z</time>
      </trkpt>
      <trkpt lat="47.46006" lon="6.72539">
        <ele>450.6</ele>
        <time>2014-10-12T08:06:04.000Z</time>
      </trkpt>
      <trkpt lat="47.46" lon="6.72534">
        <ele>450.2</ele>
        <time>2014-10-12T08:06:05.000Z</time>
      </trkpt>
      <trkpt lat="47.45994" lon="6.72529">
        <ele>448.7</ele>
        <time>2014-10-12T08:06:06.000Z</time>
      </trkpt>
      <trkpt lat="47.45988" lon="6.72526">
        <ele>447.4</ele>
        <time>2014-10-12T08:06:07.000Z</time>
      </trkpt>
      <trkpt lat="47.45983" lon="6.72526">
        <ele>448</ele>
        <time>2014-10-12T08:06:08.000Z</time>
      </trkpt>
      <trkpt lat="47.45978" lon="6.72525">
        <ele>447.7</ele>
        <time>2014-10-12T08:06:09.000Z</time>
      </trkpt>
      <trkpt lat="47.45974" lon="6.72528">
        <ele>448.4</ele>
        <time>2014-10-12T08:06:12.000Z</time>
      </trkpt>
      <trkpt lat="47.45974" lon="6.72528">
        <ele>448.7</ele>
        <time>2014-10-12T08:06:13.000Z</time>
      </trkpt>
      <trkpt lat="47.4597" lon="6.72529">
        <ele>448.8</ele>
        <time>2014-10-12T08:06:16.000Z</time>
      </trkpt>
      <trkpt lat="47.45969" lon="6.7253">
        <ele>448.6</ele>
        <time>2014-10-12T08:06:17.000Z</time>
      </trkpt>
      <trkpt lat="47.45966" lon="6.72528">
        <ele>445.9</ele>
        <time>2014-10-12T08:06:25.000Z</time>
      </trkpt>
      <trkpt lat="47.45965" lon="6.72527">
        <ele>446.2</ele>
        <time>2014-10-12T08:06:26.000Z</time>
      </trkpt>
      <trkpt lat="47.45962" lon="6.72523">
        <ele>450.8</ele>
        <time>2014-10-12T08:06:29.000Z</time>
      </trkpt>
      <trkpt lat="47.45961" lon="6.72521">
        <ele>450.6</ele>
        <time>2014-10-12T08:06:30.000Z</time>
      </trkpt>
      <trkpt lat="47.4596" lon="6.72518">
        <ele>450.6</ele>
        <time>2014-10-12T08:06:32.000Z</time>
      </trkpt>
      <trkpt lat="47.4596" lon="6.72515">
        <ele>449.3</ele>
        <time>2014-10-12T08:06:33.000Z</time>
      </trkpt>
      <trkpt lat="47.45959" lon="6.72509">
        <ele>449.7</ele>
        <time>2014-10-12T08:06:35.000Z</time>
      </trkpt>
      <trkpt lat="47.45959" lon="6.72507">
        <ele>447.9</ele>
        <time>2014-10-12T08:06:36.000Z</time>
      </trkpt>
      <trkpt lat="47.45959" lon="6.72502">
        <ele>446.4</ele>
        <time>2014-10-12T08:06:41.000Z</time>
      </trkpt>
      <trkpt lat="47.45959" lon="6.725">
        <ele>446.2</ele>
        <time>2014-10-12T08:06:42.000Z</time>
      </trkpt>
      <trkpt lat="47.45957" lon="6.72495">
        <ele>445.9</ele>
        <time>2014-10-12T08:06:55.000Z</time>
      </trkpt>
      <trkpt lat="47.45957" lon="6.72493">
        <ele>446.2</ele>
        <time>2014-10-12T08:06:56.000Z</time>
      </trkpt>
      <trkpt lat="47.45958" lon="6.72487">
        <ele>444.4</ele>
        <time>2014-10-12T08:07:00.000Z</time>
      </trkpt>
      <trkpt lat="47.45958" lon="6.72486">
        <ele>444.3</ele>
        <time>2014-10-12T08:07:01.000Z</time>
      </trkpt>
      <trkpt lat="47.45958" lon="6.72481">
        <ele>447.7</ele>
        <time>2014-10-12T08:07:03.000Z</time>
      </trkpt>
      <trkpt lat="47.45959" lon="6.72477">
        <ele>446.4</ele>
        <time>2014-10-12T08:07:04.000Z</time>
      </trkpt>
      <trkpt lat="47.45961" lon="6.7246">
        <ele>445.6</ele>
        <time>2014-10-12T08:07:05.000Z</time>
      </trkpt>
      <trkpt lat="47.45963" lon="6.72452">
        <ele>445.5</ele>
        <time>2014-10-12T08:07:06.000Z</time>
      </trkpt>
      <trkpt lat="47.45964" lon="6.72446">
        <ele>445.3</ele>
        <time>2014-10-12T08:07:07.000Z</time>
      </trkpt>
      <trkpt lat="47.45964" lon="6.72441">
        <ele>443.3</ele>
        <time>2014-10-12T08:07:08.000Z</time>
      </trkpt>
      <trkpt lat="47.45964" lon="6.72437">
        <ele>441.2</ele>
        <time>2014-10-12T08:07:09.000Z</time>
      </trkpt>
      <trkpt lat="47.45964" lon="6.72432">
        <ele>440.7</ele>
        <time>2014-10-12T08:07:10.000Z</time>
      </trkpt>
      <trkpt lat="47.45962" lon="6.72427">
        <ele>439.9</ele>
        <time>2014-10-12T08:07:12.000Z</time>
      </trkpt>
      <trkpt lat="47.45958" lon="6.72432">
        <ele>440.8</ele>
        <time>2014-10-12T08:07:13.000Z</time>
      </trkpt>
      <trkpt lat="47.45957" lon="6.72428">
        <ele>443.4</ele>
        <time>2014-10-12T08:07:15.000Z</time>
      </trkpt>
      <trkpt lat="47.45955" lon="6.72427">
        <ele>443.9</ele>
        <time>2014-10-12T08:07:16.000Z</time>
      </trkpt>
      <trkpt lat="47.45953" lon="6.72423">
        <ele>443.8</ele>
        <time>2014-10-12T08:07:18.000Z</time>
      </trkpt>
      <trkpt lat="47.45951" lon="6.72421">
        <ele>444.6</ele>
        <time>2014-10-12T08:07:19.000Z</time>
      </trkpt>
      <trkpt lat="47.45949" lon="6.72419">
        <ele>444.1</ele>
        <time>2014-10-12T08:07:20.000Z</time>
      </trkpt>
      <trkpt lat="47.45947" lon="6.72417">
        <ele>444.1</ele>
        <time>2014-10-12T08:07:21.000Z</time>
      </trkpt>
      <trkpt lat="47.45944" lon="6.72412">
        <ele>442.3</ele>
        <time>2014-10-12T08:07:23.000Z</time>
      </trkpt>
      <trkpt lat="47.45943" lon="6.7241">
        <ele>443.6</ele>
        <time>2014-10-12T08:07:24.000Z</time>
      </trkpt>
      <trkpt lat="47.4594" lon="6.72406">
        <ele>445.8</ele>
        <time>2014-10-12T08:07:26.000Z</time>
      </trkpt>
      <trkpt lat="47.45939" lon="6.72404">
        <ele>445.8</ele>
        <time>2014-10-12T08:07:27.000Z</time>
      </trkpt>
      <trkpt lat="47.45938" lon="6.72398">
        <ele>447.9</ele>
        <time>2014-10-12T08:07:29.000Z</time>
      </trkpt>
      <trkpt lat="47.45937" lon="6.72395">
        <ele>447.4</ele>
        <time>2014-10-12T08:07:30.000Z</time>
      </trkpt>
      <trkpt lat="47.45937" lon="6.7239">
        <ele>446.1</ele>
        <time>2014-10-12T08:07:32.000Z</time>
      </trkpt>
      <trkpt lat="47.45937" lon="6.72388">
        <ele>444</ele>
        <time>2014-10-12T08:07:33.000Z</time>
      </trkpt>
      <trkpt lat="47.45934" lon="6.72384">
        <ele>449.8</ele>
        <time>2014-10-12T08:07:36.000Z</time>
      </trkpt>
      <trkpt lat="47.45934" lon="6.72382">
        <ele>450.9</ele>
        <time>2014-10-12T08:07:37.000Z</time>
      </trkpt>
      <trkpt lat="47.45933" lon="6.72376">
        <ele>451.7</ele>
        <time>2014-10-12T08:07:40.000Z</time>
      </trkpt>
      <trkpt lat="47.45932" lon="6.72374">
        <ele>451.5</ele>
        <time>2014-10-12T08:07:41.000Z</time>
      </trkpt>
      <trkpt lat="47.45931" lon="6.72369">
        <ele>448.7</ele>
        <time>2014-10-12T08:07:44.000Z</time>
      </trkpt>
      <trkpt lat="47.45931" lon="6.72365">
        <ele>451</ele>
        <time>2014-10-12T08:07:45.000Z</time>
      </trkpt>
      <trkpt lat="47.4593" lon="6.72361">
        <ele>453.1</ele>
        <time>2014-10-12T08:07:46.000Z</time>
      </trkpt>
      <trkpt lat="47.45929" lon="6.72357">
        <ele>454.4</ele>
        <time>2014-10-12T08:07:47.000Z</time>
      </trkpt>
      <trkpt lat="47.45929" lon="6.72344">
        <ele>453.7</ele>
        <time>2014-10-12T08:07:50.000Z</time>
      </trkpt>
      <trkpt lat="47.4593" lon="6.72339">
        <ele>456.9</ele>
        <time>2014-10-12T08:07:51.000Z</time>
      </trkpt>
      <trkpt lat="47.4593" lon="6.72334">
        <ele>457.8</ele>
        <time>2014-10-12T08:07:52.000Z</time>
      </trkpt>
      <trkpt lat="47.45931" lon="6.72328">
        <ele>458.3</ele>
        <time>2014-10-12T08:07:53.000Z</time>
      </trkpt>
      <trkpt lat="47.45932" lon="6.72323">
        <ele>458.6</ele>
        <time>2014-10-12T08:07:54.000Z</time>
      </trkpt>
      <trkpt lat="47.45932" lon="6.72318">
        <ele>459</ele>
        <time>2014-10-12T08:07:55.000Z</time>
      </trkpt>
      <trkpt lat="47.45932" lon="6.72313">
        <ele>459.1</ele>
        <time>2014-10-12T08:07:56.000Z</time>
      </trkpt>
      <trkpt lat="47.45931" lon="6.72309">
        <ele>458.8</ele>
        <time>2014-10-12T08:07:57.000Z</time>
      </trkpt>
      <trkpt lat="47.4593" lon="6.72306">
        <ele>457.9</ele>
        <time>2014-10-12T08:07:58.000Z</time>
      </trkpt>
      <trkpt lat="47.45927" lon="6.72302">
        <ele>458.3</ele>
        <time>2014-10-12T08:08:00.000Z</time>
      </trkpt>
      <trkpt lat="47.45925" lon="6.72301">
        <ele>456.9</ele>
        <time>2014-10-12T08:08:01.000Z</time>
      </trkpt>
      <trkpt lat="47.45922" lon="6.72299">
        <ele>456.2</ele>
        <time>2014-10-12T08:08:03.000Z</time>
      </trkpt>
      <trkpt lat="47.4592" lon="6.72298">
        <ele>458.7</ele>
        <time>2014-10-12T08:08:04.000Z</time>
      </trkpt>
      <trkpt lat="47.45917" lon="6.72294">
        <ele>458.8</ele>
        <time>2014-10-12T08:08:06.000Z</time>
      </trkpt>
      <trkpt lat="47.45917" lon="6.72293">
        <ele>458.7</ele>
        <time>2014-10-12T08:08:07.000Z</time>
      </trkpt>
      <trkpt lat="47.45917" lon="6.72287">
        <ele>461.5</ele>
        <time>2014-10-12T08:08:12.000Z</time>
      </trkpt>
      <trkpt lat="47.45917" lon="6.72286">
        <ele>462.2</ele>
        <time>2014-10-12T08:08:13.000Z</time>
      </trkpt>
      <trkpt lat="47.4592" lon="6.72282">
        <ele>456.8</ele>
        <time>2014-10-12T08:08:20.000Z</time>
      </trkpt>
      <trkpt lat="47.4592" lon="6.72282">
        <ele>454.7</ele>
        <time>2014-10-12T08:08:21.000Z</time>
      </trkpt>
      <trkpt lat="47.45924" lon="6.72278">
        <ele>452.1</ele>
        <time>2014-10-12T08:08:27.000Z</time>
      </trkpt>
      <trkpt lat="47.45924" lon="6.72277">
        <ele>451.6</ele>
        <time>2014-10-12T08:08:28.000Z</time>
      </trkpt>
      <trkpt lat="47.45927" lon="6.72273">
        <ele>450</ele>
        <time>2014-10-12T08:08:31.000Z</time>
      </trkpt>
      <trkpt lat="47.45928" lon="6.72272">
        <ele>449.5</ele>
        <time>2014-10-12T08:08:32.000Z</time>
      </trkpt>
      <trkpt lat="47.45932" lon="6.72272">
        <ele>447.9</ele>
        <time>2014-10-12T08:08:36.000Z</time>
      </trkpt>
      <trkpt lat="47.45933" lon="6.72271">
        <ele>447.5</ele>
        <time>2014-10-12T08:08:37.000Z</time>
      </trkpt>
      <trkpt lat="47.45936" lon="6.7227">
        <ele>449</ele>
        <time>2014-10-12T08:08:40.000Z</time>
      </trkpt>
      <trkpt lat="47.45937" lon="6.7227">
        <ele>448.7</ele>
        <time>2014-10-12T08:08:41.000Z</time>
      </trkpt>
      <trkpt lat="47.45941" lon="6.72268">
        <ele>446.2</ele>
        <time>2014-10-12T08:08:46.000Z</time>
      </trkpt>
      <trkpt lat="47.45942" lon="6.72267">
        <ele>446.1</ele>
        <time>2014-10-12T08:08:47.000Z</time>
      </trkpt>
      <trkpt lat="47.45946" lon="6.7227">
        <ele>439.4</ele>
        <time>2014-10-12T08:08:55.000Z</time>
      </trkpt>
      <trkpt lat="47.4595" lon="6.72269">
        <ele>435.8</ele>
        <time>2014-10-12T08:08:59.000Z</time>
      </trkpt>
      <trkpt lat="47.45951" lon="6.72268">
        <ele>435.5</ele>
        <time>2014-10-12T08:09:00.000Z</time>
      </trkpt>
      <trkpt lat="47.45955" lon="6.72265">
        <ele>433.7</ele>
        <time>2014-10-12T08:09:04.000Z</time>
      </trkpt>
      <trkpt lat="47.45956" lon="6.72265">
        <ele>433.4</ele>
        <time>2014-10-12T08:09:05.000Z</time>
      </trkpt>
      <trkpt lat="47.4596" lon="6.72262">
        <ele>433.3</ele>
        <time>2014-10-12T08:09:22.000Z</time>
      </trkpt>
      <trkpt lat="47.4596" lon="6.72262">
        <ele>433.5</ele>
        <time>2014-10-12T08:09:23.000Z</time>
      </trkpt>
      <trkpt lat="47.45963" lon="6.72259">
        <ele>433.7</ele>
        <time>2014-10-12T08:09:27.000Z</time>
      </trkpt>
      <trkpt lat="47.45965" lon="6.72256">
        <ele>431.2</ele>
        <time>2014-10-12T08:09:28.000Z</time>
      </trkpt>
      <trkpt lat="47.45966" lon="6.72253">
        <ele>430.5</ele>
        <time>2014-10-12T08:09:29.000Z</time>
      </trkpt>
      <trkpt lat="47.45968" lon="6.72251">
        <ele>432.4</ele>
        <time>2014-10-12T08:09:30.000Z</time>
      </trkpt>
      <trkpt lat="47.4597" lon="6.72248">
        <ele>432.9</ele>
        <time>2014-10-12T08:09:31.000Z</time>
      </trkpt>
      <trkpt lat="47.45973" lon="6.72246">
        <ele>433.4</ele>
        <time>2014-10-12T08:09:32.000Z</time>
      </trkpt>
      <trkpt lat="47.45975" lon="6.72243">
        <ele>433</ele>
        <time>2014-10-12T08:09:33.000Z</time>
      </trkpt>
      <trkpt lat="47.45977" lon="6.7224">
        <ele>432.6</ele>
        <time>2014-10-12T08:09:34.000Z</time>
      </trkpt>
      <trkpt lat="47.45979" lon="6.72237">
        <ele>431.5</ele>
        <time>2014-10-12T08:09:35.000Z</time>
      </trkpt>
      <trkpt lat="47.4598" lon="6.72232">
        <ele>431.5</ele>
        <time>2014-10-12T08:09:36.000Z</time>
      </trkpt>
      <trkpt lat="47.45981" lon="6.72228">
        <ele>431.4</ele>
        <time>2014-10-12T08:09:37.000Z</time>
      </trkpt>
      <trkpt lat="47.45982" lon="6.72223">
        <ele>431.2</ele>
        <time>2014-10-12T08:09:38.000Z</time>
      </trkpt>
      <trkpt lat="47.45983" lon="6.72218">
        <ele>429.4</ele>
        <time>2014-10-12T08:09:39.000Z</time>
      </trkpt>
      <trkpt lat="47.45983" lon="6.72213">
        <ele>429.1</ele>
        <time>2014-10-12T08:09:40.000Z</time>
      </trkpt>
      <trkpt lat="47.45983" lon="6.72209">
        <ele>429.1</ele>
        <time>2014-10-12T08:09:41.000Z</time>
      </trkpt>
      <trkpt lat="47.45982" lon="6.72206">
        <ele>431.8</ele>
        <time>2014-10-12T08:09:42.000Z</time>
      </trkpt>
      <trkpt lat="47.45982" lon="6.722">
        <ele>428.8</ele>
        <time>2014-10-12T08:09:45.000Z</time>
      </trkpt>
      <trkpt lat="47.45981" lon="6.72199">
        <ele>427.2</ele>
        <time>2014-10-12T08:09:46.000Z</time>
      </trkpt>
      <trkpt lat="47.4598" lon="6.72193">
        <ele>426.7</ele>
        <time>2014-10-12T08:09:50.000Z</time>
      </trkpt>
      <trkpt lat="47.4598" lon="6.72192">
        <ele>426.7</ele>
        <time>2014-10-12T08:09:51.000Z</time>
      </trkpt>
      <trkpt lat="47.45979" lon="6.72186">
        <ele>427.4</ele>
        <time>2014-10-12T08:09:54.000Z</time>
      </trkpt>
      <trkpt lat="47.45978" lon="6.72185">
        <ele>427.3</ele>
        <time>2014-10-12T08:09:55.000Z</time>
      </trkpt>
      <trkpt lat="47.45977" lon="6.72179">
        <ele>427.2</ele>
        <time>2014-10-12T08:09:58.000Z</time>
      </trkpt>
      <trkpt lat="47.45977" lon="6.72177">
        <ele>426.4</ele>
        <time>2014-10-12T08:09:59.000Z</time>
      </trkpt>
      <trkpt lat="47.45978" lon="6.72173">
        <ele>427.9</ele>
        <time>2014-10-12T08:10:01.000Z</time>
      </trkpt>
      <trkpt lat="47.45978" lon="6.7217">
        <ele>423.1</ele>
        <time>2014-10-12T08:10:02.000Z</time>
      </trkpt>
      <trkpt lat="47.45979" lon="6.72167">
        <ele>421.6</ele>
        <time>2014-10-12T08:10:03.000Z</time>
      </trkpt>
      <trkpt lat="47.45979" lon="6.72163">
        <ele>420.8</ele>
        <time>2014-10-12T08:10:04.000Z</time>
      </trkpt>
      <trkpt lat="47.45979" lon="6.7216">
        <ele>422.7</ele>
        <time>2014-10-12T08:10:05.000Z</time>
      </trkpt>
      <trkpt lat="47.45978" lon="6.72157">
        <ele>423.4</ele>
        <time>2014-10-12T08:10:06.000Z</time>
      </trkpt>
      <trkpt lat="47.45977" lon="6.7215">
        <ele>422.2</ele>
        <time>2014-10-12T08:10:08.000Z</time>
      </trkpt>
      <trkpt lat="47.45976" lon="6.72147">
        <ele>421.9</ele>
        <time>2014-10-12T08:10:09.000Z</time>
      </trkpt>
      <trkpt lat="47.45976" lon="6.72144">
        <ele>423.3</ele>
        <time>2014-10-12T08:10:10.000Z</time>
      </trkpt>
      <trkpt lat="47.45976" lon="6.7214">
        <ele>423.5</ele>
        <time>2014-10-12T08:10:11.000Z</time>
      </trkpt>
      <trkpt lat="47.45975" lon="6.72134">
        <ele>422.8</ele>
        <time>2014-10-12T08:10:13.000Z</time>
      </trkpt>
      <trkpt lat="47.45975" lon="6.72131">
        <ele>421</ele>
        <time>2014-10-12T08:10:14.000Z</time>
      </trkpt>
      <trkpt lat="47.45974" lon="6.72125">
        <ele>419.9</ele>
        <time>2014-10-12T08:10:16.000Z</time>
      </trkpt>
      <trkpt lat="47.45974" lon="6.72121">
        <ele>420.1</ele>
        <time>2014-10-12T08:10:17.000Z</time>
      </trkpt>
      <trkpt lat="47.45973" lon="6.72117">
        <ele>420.4</ele>
        <time>2014-10-12T08:10:18.000Z</time>
      </trkpt>
      <trkpt lat="47.45972" lon="6.72114">
        <ele>420.7</ele>
        <time>2014-10-12T08:10:19.000Z</time>
      </trkpt>
      <trkpt lat="47.45972" lon="6.72108">
        <ele>420.4</ele>
        <time>2014-10-12T08:10:21.000Z</time>
      </trkpt>
      <trkpt lat="47.45972" lon="6.72105">
        <ele>419.6</ele>
        <time>2014-10-12T08:10:22.000Z</time>
      </trkpt>
      <trkpt lat="47.45972" lon="6.721">
        <ele>418.3</ele>
        <time>2014-10-12T08:10:24.000Z</time>
      </trkpt>
      <trkpt lat="47.45972" lon="6.72098">
        <ele>418</ele>
        <time>2014-10-12T08:10:25.000Z</time>
      </trkpt>
      <trkpt lat="47.4597" lon="6.72092">
        <ele>416.9</ele>
        <time>2014-10-12T08:10:28.000Z</time>
      </trkpt>
      <trkpt lat="47.4597" lon="6.7209">
        <ele>416.2</ele>
        <time>2014-10-12T08:10:29.000Z</time>
      </trkpt>
      <trkpt lat="47.45968" lon="6.72084">
        <ele>415.2</ele>
        <time>2014-10-12T08:10:32.000Z</time>
      </trkpt>
      <trkpt lat="47.45967" lon="6.72082">
        <ele>416.1</ele>
        <time>2014-10-12T08:10:33.000Z</time>
      </trkpt>
      <trkpt lat="47.45966" lon="6.72078">
        <ele>419.9</ele>
        <time>2014-10-12T08:10:35.000Z</time>
      </trkpt>
      <trkpt lat="47.45966" lon="6.72076">
        <ele>421.1</ele>
        <time>2014-10-12T08:10:36.000Z</time>
      </trkpt>
      <trkpt lat="47.45965" lon="6.7207">
        <ele>421.9</ele>
        <time>2014-10-12T08:10:40.000Z</time>
      </trkpt>
      <trkpt lat="47.45965" lon="6.72068">
        <ele>422.4</ele>
        <time>2014-10-12T08:10:41.000Z</time>
      </trkpt>
      <trkpt lat="47.45965" lon="6.72064">
        <ele>423.6</ele>
        <time>2014-10-12T08:10:43.000Z</time>
      </trkpt>
      <trkpt lat="47.45964" lon="6.72061">
        <ele>423.5</ele>
        <time>2014-10-12T08:10:44.000Z</time>
      </trkpt>
      <trkpt lat="47.45963" lon="6.72055">
        <ele>422.2</ele>
        <time>2014-10-12T08:10:46.000Z</time>
      </trkpt>
      <trkpt lat="47.45962" lon="6.72052">
        <ele>422.3</ele>
        <time>2014-10-12T08:10:47.000Z</time>
      </trkpt>
      <trkpt lat="47.45949" lon="6.72036">
        <ele>419.6</ele>
        <time>2014-10-12T08:10:55.000Z</time>
      </trkpt>
      <trkpt lat="47.45948" lon="6.72031">
        <ele>417.7</ele>
        <time>2014-10-12T08:10:57.000Z</time>
      </trkpt>
      <trkpt lat="47.45948" lon="6.72028">
        <ele>418</ele>
        <time>2014-10-12T08:10:58.000Z</time>
      </trkpt>
      <trkpt lat="47.45948" lon="6.72025">
        <ele>416.7</ele>
        <time>2014-10-12T08:10:59.000Z</time>
      </trkpt>
      <trkpt lat="47.45948" lon="6.7202">
        <ele>417.2</ele>
        <time>2014-10-12T08:11:00.000Z</time>
      </trkpt>
      <trkpt lat="47.45947" lon="6.72016">
        <ele>417.6</ele>
        <time>2014-10-12T08:11:01.000Z</time>
      </trkpt>
      <trkpt lat="47.45946" lon="6.72011">
        <ele>417.9</ele>
        <time>2014-10-12T08:11:02.000Z</time>
      </trkpt>
      <trkpt lat="47.45945" lon="6.72007">
        <ele>417.1</ele>
        <time>2014-10-12T08:11:03.000Z</time>
      </trkpt>
      <trkpt lat="47.45944" lon="6.72003">
        <ele>416.4</ele>
        <time>2014-10-12T08:11:04.000Z</time>
      </trkpt>
      <trkpt lat="47.45943" lon="6.72">
        <ele>419.2</ele>
        <time>2014-10-12T08:11:05.000Z</time>
      </trkpt>
      <trkpt lat="47.45942" lon="6.71996">
        <ele>419.6</ele>
        <time>2014-10-12T08:11:06.000Z</time>
      </trkpt>
      <trkpt lat="47.45942" lon="6.71992">
        <ele>418.9</ele>
        <time>2014-10-12T08:11:07.000Z</time>
      </trkpt>
      <trkpt lat="47.45941" lon="6.71988">
        <ele>418.4</ele>
        <time>2014-10-12T08:11:08.000Z</time>
      </trkpt>
      <trkpt lat="47.45941" lon="6.71982">
        <ele>417</ele>
        <time>2014-10-12T08:11:10.000Z</time>
      </trkpt>
      <trkpt lat="47.4594" lon="6.71979">
        <ele>417.5</ele>
        <time>2014-10-12T08:11:11.000Z</time>
      </trkpt>
      <trkpt lat="47.4594" lon="6.71973">
        <ele>420.3</ele>
        <time>2014-10-12T08:11:13.000Z</time>
      </trkpt>
      <trkpt lat="47.4594" lon="6.71969">
        <ele>419.2</ele>
        <time>2014-10-12T08:11:14.000Z</time>
      </trkpt>
      <trkpt lat="47.45941" lon="6.71965">
        <ele>419.6</ele>
        <time>2014-10-12T08:11:15.000Z</time>
      </trkpt>
      <trkpt lat="47.45941" lon="6.71961">
        <ele>420</ele>
        <time>2014-10-12T08:11:16.000Z</time>
      </trkpt>
      <trkpt lat="47.45941" lon="6.71957">
        <ele>420.9</ele>
        <time>2014-10-12T08:11:17.000Z</time>
      </trkpt>
      <trkpt lat="47.45941" lon="6.71952">
        <ele>421.2</ele>
        <time>2014-10-12T08:11:18.000Z</time>
      </trkpt>
      <trkpt lat="47.45941" lon="6.71948">
        <ele>420.5</ele>
        <time>2014-10-12T08:11:19.000Z</time>
      </trkpt>
      <trkpt lat="47.45941" lon="6.71944">
        <ele>421.1</ele>
        <time>2014-10-12T08:11:20.000Z</time>
      </trkpt>
      <trkpt lat="47.45941" lon="6.7194">
        <ele>421</ele>
        <time>2014-10-12T08:11:21.000Z</time>
      </trkpt>
      <trkpt lat="47.4594" lon="6.71935">
        <ele>421.6</ele>
        <time>2014-10-12T08:11:22.000Z</time>
      </trkpt>
      <trkpt lat="47.4594" lon="6.7193">
        <ele>421.7</ele>
        <time>2014-10-12T08:11:23.000Z</time>
      </trkpt>
      <trkpt lat="47.4594" lon="6.71925">
        <ele>421.7</ele>
        <time>2014-10-12T08:11:24.000Z</time>
      </trkpt>
      <trkpt lat="47.4594" lon="6.71921">
        <ele>421.5</ele>
        <time>2014-10-12T08:11:25.000Z</time>
      </trkpt>
      <trkpt lat="47.45939" lon="6.71917">
        <ele>421.9</ele>
        <time>2014-10-12T08:11:26.000Z</time>
      </trkpt>
      <trkpt lat="47.45939" lon="6.71912">
        <ele>421.9</ele>
        <time>2014-10-12T08:11:27.000Z</time>
      </trkpt>
      <trkpt lat="47.45939" lon="6.71908">
        <ele>418.8</ele>
        <time>2014-10-12T08:11:28.000Z</time>
      </trkpt>
      <trkpt lat="47.45939" lon="6.71904">
        <ele>416.7</ele>
        <time>2014-10-12T08:11:29.000Z</time>
      </trkpt>
      <trkpt lat="47.45939" lon="6.719">
        <ele>415.8</ele>
        <time>2014-10-12T08:11:30.000Z</time>
      </trkpt>
      <trkpt lat="47.45939" lon="6.71895">
        <ele>414</ele>
        <time>2014-10-12T08:11:31.000Z</time>
      </trkpt>
      <trkpt lat="47.45939" lon="6.7189">
        <ele>414.3</ele>
        <time>2014-10-12T08:11:32.000Z</time>
      </trkpt>
      <trkpt lat="47.45939" lon="6.71884">
        <ele>414.9</ele>
        <time>2014-10-12T08:11:33.000Z</time>
      </trkpt>
      <trkpt lat="47.45939" lon="6.71878">
        <ele>414.9</ele>
        <time>2014-10-12T08:11:34.000Z</time>
      </trkpt>
      <trkpt lat="47.45939" lon="6.71873">
        <ele>411.4</ele>
        <time>2014-10-12T08:11:35.000Z</time>
      </trkpt>
      <trkpt lat="47.45939" lon="6.7187">
        <ele>409.8</ele>
        <time>2014-10-12T08:11:36.000Z</time>
      </trkpt>
      <trkpt lat="47.45938" lon="6.71866">
        <ele>409.6</ele>
        <time>2014-10-12T08:11:37.000Z</time>
      </trkpt>
      <trkpt lat="47.45937" lon="6.71863">
        <ele>410.3</ele>
        <time>2014-10-12T08:11:38.000Z</time>
      </trkpt>
      <trkpt lat="47.45936" lon="6.71857">
        <ele>407.3</ele>
        <time>2014-10-12T08:11:40.000Z</time>
      </trkpt>
      <trkpt lat="47.45936" lon="6.71854">
        <ele>406.5</ele>
        <time>2014-10-12T08:11:41.000Z</time>
      </trkpt>
      <trkpt lat="47.45937" lon="6.71849">
        <ele>403.3</ele>
        <time>2014-10-12T08:11:43.000Z</time>
      </trkpt>
      <trkpt lat="47.45937" lon="6.71845">
        <ele>403.5</ele>
        <time>2014-10-12T08:11:44.000Z</time>
      </trkpt>
      <trkpt lat="47.45937" lon="6.71842">
        <ele>403.3</ele>
        <time>2014-10-12T08:11:45.000Z</time>
      </trkpt>
      <trkpt lat="47.45937" lon="6.71839">
        <ele>403.4</ele>
        <time>2014-10-12T08:11:46.000Z</time>
      </trkpt>
      <trkpt lat="47.45937" lon="6.71835">
        <ele>402.6</ele>
        <time>2014-10-12T08:11:47.000Z</time>
      </trkpt>
      <trkpt lat="47.45936" lon="6.71817">
        <ele>402.9</ele>
        <time>2014-10-12T08:11:51.000Z</time>
      </trkpt>
      <trkpt lat="47.45936" lon="6.71813">
        <ele>402.7</ele>
        <time>2014-10-12T08:11:52.000Z</time>
      </trkpt>
      <trkpt lat="47.45936" lon="6.7181">
        <ele>400.9</ele>
        <time>2014-10-12T08:11:53.000Z</time>
      </trkpt>
      <trkpt lat="47.45935" lon="6.71805">
        <ele>396.8</ele>
        <time>2014-10-12T08:11:57.000Z</time>
      </trkpt>
      <trkpt lat="47.45935" lon="6.71803">
        <ele>395.8</ele>
        <time>2014-10-12T08:11:58.000Z</time>
      </trkpt>
      <trkpt lat="47.45934" lon="6.71797">
        <ele>396</ele>
        <time>2014-10-12T08:12:00.000Z</time>
      </trkpt>
      <trkpt lat="47.45934" lon="6.71795">
        <ele>397.7</ele>
        <time>2014-10-12T08:12:01.000Z</time>
      </trkpt>
      <trkpt lat="47.45932" lon="6.7179">
        <ele>398.1</ele>
        <time>2014-10-12T08:12:04.000Z</time>
      </trkpt>
      <trkpt lat="47.45931" lon="6.71789">
        <ele>397.7</ele>
        <time>2014-10-12T08:12:05.000Z</time>
      </trkpt>
      <trkpt lat="47.4593" lon="6.71784">
        <ele>400.2</ele>
        <time>2014-10-12T08:12:08.000Z</time>
      </trkpt>
      <trkpt lat="47.45929" lon="6.71781">
        <ele>399.9</ele>
        <time>2014-10-12T08:12:09.000Z</time>
      </trkpt>
      <trkpt lat="47.45927" lon="6.71775">
        <ele>403.6</ele>
        <time>2014-10-12T08:12:12.000Z</time>
      </trkpt>
      <trkpt lat="47.45927" lon="6.71774">
        <ele>404.5</ele>
        <time>2014-10-12T08:12:13.000Z</time>
      </trkpt>
      <trkpt lat="47.45927" lon="6.71768">
        <ele>407.2</ele>
        <time>2014-10-12T08:12:16.000Z</time>
      </trkpt>
      <trkpt lat="47.45927" lon="6.71766">
        <ele>408.5</ele>
        <time>2014-10-12T08:12:17.000Z</time>
      </trkpt>
      <trkpt lat="47.45928" lon="6.7176">
        <ele>411.6</ele>
        <time>2014-10-12T08:12:23.000Z</time>
      </trkpt>
      <trkpt lat="47.45928" lon="6.71759">
        <ele>412</ele>
        <time>2014-10-12T08:12:24.000Z</time>
      </trkpt>
      <trkpt lat="47.45928" lon="6.71753">
        <ele>414.7</ele>
        <time>2014-10-12T08:12:30.000Z</time>
      </trkpt>
      <trkpt lat="47.45928" lon="6.71752">
        <ele>415.5</ele>
        <time>2014-10-12T08:12:31.000Z</time>
      </trkpt>
      <trkpt lat="47.45929" lon="6.71747">
        <ele>418.9</ele>
        <time>2014-10-12T08:13:22.000Z</time>
      </trkpt>
      <trkpt lat="47.45929" lon="6.71745">
        <ele>418.6</ele>
        <time>2014-10-12T08:13:23.000Z</time>
      </trkpt>
      <trkpt lat="47.45929" lon="6.71742">
        <ele>418.1</ele>
        <time>2014-10-12T08:13:24.000Z</time>
      </trkpt>
      <trkpt lat="47.45929" lon="6.71738">
        <ele>417.8</ele>
        <time>2014-10-12T08:13:25.000Z</time>
      </trkpt>
      <trkpt lat="47.45929" lon="6.71734">
        <ele>417.4</ele>
        <time>2014-10-12T08:13:26.000Z</time>
      </trkpt>
      <trkpt lat="47.45929" lon="6.7173">
        <ele>417.2</ele>
        <time>2014-10-12T08:13:27.000Z</time>
      </trkpt>
      <trkpt lat="47.45929" lon="6.71726">
        <ele>416.5</ele>
        <time>2014-10-12T08:13:28.000Z</time>
      </trkpt>
      <trkpt lat="47.45929" lon="6.71721">
        <ele>416.4</ele>
        <time>2014-10-12T08:13:29.000Z</time>
      </trkpt>
      <trkpt lat="47.45929" lon="6.71716">
        <ele>416.8</ele>
        <time>2014-10-12T08:13:30.000Z</time>
      </trkpt>
      <trkpt lat="47.45929" lon="6.71709">
        <ele>416.2</ele>
        <time>2014-10-12T08:13:31.000Z</time>
      </trkpt>
      <trkpt lat="47.45929" lon="6.71702">
        <ele>416.9</ele>
        <time>2014-10-12T08:13:32.000Z</time>
      </trkpt>
      <trkpt lat="47.45928" lon="6.71695">
        <ele>417</ele>
        <time>2014-10-12T08:13:33.000Z</time>
      </trkpt>
      <trkpt lat="47.45927" lon="6.71687">
        <ele>416.8</ele>
        <time>2014-10-12T08:13:34.000Z</time>
      </trkpt>
      <trkpt lat="47.45926" lon="6.7168">
        <ele>416</ele>
        <time>2014-10-12T08:13:35.000Z</time>
      </trkpt>
      <trkpt lat="47.45925" lon="6.71673">
        <ele>415.9</ele>
        <time>2014-10-12T08:13:36.000Z</time>
      </trkpt>
      <trkpt lat="47.45924" lon="6.71666">
        <ele>415.2</ele>
        <time>2014-10-12T08:13:37.000Z</time>
      </trkpt>
      <trkpt lat="47.45923" lon="6.7166">
        <ele>415.6</ele>
        <time>2014-10-12T08:13:38.000Z</time>
      </trkpt>
      <trkpt lat="47.45922" lon="6.71655">
        <ele>414.9</ele>
        <time>2014-10-12T08:13:39.000Z</time>
      </trkpt>
      <trkpt lat="47.45921" lon="6.71649">
        <ele>414</ele>
        <time>2014-10-12T08:13:40.000Z</time>
      </trkpt>
      <trkpt lat="47.4592" lon="6.71643">
        <ele>413</ele>
        <time>2014-10-12T08:13:41.000Z</time>
      </trkpt>
      <trkpt lat="47.45918" lon="6.71637">
        <ele>414.3</ele>
        <time>2014-10-12T08:13:42.000Z</time>
      </trkpt>
      <trkpt lat="47.45917" lon="6.71632">
        <ele>415.6</ele>
        <time>2014-10-12T08:13:43.000Z</time>
      </trkpt>
      <trkpt lat="47.45915" lon="6.71627">
        <ele>417</ele>
        <time>2014-10-12T08:13:44.000Z</time>
      </trkpt>
      <trkpt lat="47.45912" lon="6.71624">
        <ele>417.6</ele>
        <time>2014-10-12T08:13:45.000Z</time>
      </trkpt>
      <trkpt lat="47.45909" lon="6.71621">
        <ele>418.4</ele>
        <time>2014-10-12T08:13:46.000Z</time>
      </trkpt>
      <trkpt lat="47.45907" lon="6.71618">
        <ele>419.1</ele>
        <time>2014-10-12T08:13:47.000Z</time>
      </trkpt>
      <trkpt lat="47.45884" lon="6.71604">
        <ele>420.3</ele>
        <time>2014-10-12T08:13:55.000Z</time>
      </trkpt>
      <trkpt lat="47.45881" lon="6.71604">
        <ele>420.9</ele>
        <time>2014-10-12T08:13:56.000Z</time>
      </trkpt>
      <trkpt lat="47.45879" lon="6.71603">
        <ele>421</ele>
        <time>2014-10-12T08:13:57.000Z</time>
      </trkpt>
      <trkpt lat="47.45876" lon="6.71603">
        <ele>420</ele>
        <time>2014-10-12T08:13:58.000Z</time>
      </trkpt>
      <trkpt lat="47.45873" lon="6.71602">
        <ele>419.9</ele>
        <time>2014-10-12T08:13:59.000Z</time>
      </trkpt>
      <trkpt lat="47.4587" lon="6.71601">
        <ele>420.1</ele>
        <time>2014-10-12T08:14:00.000Z</time>
      </trkpt>
      <trkpt lat="47.45867" lon="6.716">
        <ele>419.7</ele>
        <time>2014-10-12T08:14:01.000Z</time>
      </trkpt>
      <trkpt lat="47.45864" lon="6.716">
        <ele>419.2</ele>
        <time>2014-10-12T08:14:02.000Z</time>
      </trkpt>
      <trkpt lat="47.45861" lon="6.71599">
        <ele>419.5</ele>
        <time>2014-10-12T08:14:03.000Z</time>
      </trkpt>
      <trkpt lat="47.45858" lon="6.71599">
        <ele>419</ele>
        <time>2014-10-12T08:14:04.000Z</time>
      </trkpt>
      <trkpt lat="47.45855" lon="6.71599">
        <ele>418.9</ele>
        <time>2014-10-12T08:14:05.000Z</time>
      </trkpt>
      <trkpt lat="47.45852" lon="6.71599">
        <ele>418.6</ele>
        <time>2014-10-12T08:14:06.000Z</time>
      </trkpt>
      <trkpt lat="47.45848" lon="6.71599">
        <ele>419.9</ele>
        <time>2014-10-12T08:14:07.000Z</time>
      </trkpt>
      <trkpt lat="47.45845" lon="6.71599">
        <ele>421</ele>
        <time>2014-10-12T08:14:08.000Z</time>
      </trkpt>
      <trkpt lat="47.45842" lon="6.716">
        <ele>421.7</ele>
        <time>2014-10-12T08:14:09.000Z</time>
      </trkpt>
      <trkpt lat="47.45839" lon="6.716">
        <ele>422.3</ele>
        <time>2014-10-12T08:14:10.000Z</time>
      </trkpt>
      <trkpt lat="47.45836" lon="6.716">
        <ele>422.3</ele>
        <time>2014-10-12T08:14:11.000Z</time>
      </trkpt>
      <trkpt lat="47.45833" lon="6.716">
        <ele>421.7</ele>
        <time>2014-10-12T08:14:12.000Z</time>
      </trkpt>
      <trkpt lat="47.4583" lon="6.71601">
        <ele>421.2</ele>
        <time>2014-10-12T08:14:13.000Z</time>
      </trkpt>
      <trkpt lat="47.45827" lon="6.71601">
        <ele>420.5</ele>
        <time>2014-10-12T08:14:14.000Z</time>
      </trkpt>
      <trkpt lat="47.45824" lon="6.71601">
        <ele>421</ele>
        <time>2014-10-12T08:14:15.000Z</time>
      </trkpt>
      <trkpt lat="47.45822" lon="6.71602">
        <ele>420.5</ele>
        <time>2014-10-12T08:14:16.000Z</time>
      </trkpt>
      <trkpt lat="47.45819" lon="6.71603">
        <ele>420.5</ele>
        <time>2014-10-12T08:14:17.000Z</time>
      </trkpt>
      <trkpt lat="47.45816" lon="6.71605">
        <ele>420</ele>
        <time>2014-10-12T08:14:18.000Z</time>
      </trkpt>
      <trkpt lat="47.45813" lon="6.71606">
        <ele>419.9</ele>
        <time>2014-10-12T08:14:19.000Z</time>
      </trkpt>
      <trkpt lat="47.45811" lon="6.71607">
        <ele>419.9</ele>
        <time>2014-10-12T08:14:20.000Z</time>
      </trkpt>
      <trkpt lat="47.45808" lon="6.71609">
        <ele>419.6</ele>
        <time>2014-10-12T08:14:21.000Z</time>
      </trkpt>
      <trkpt lat="47.45804" lon="6.71611">
        <ele>419.7</ele>
        <time>2014-10-12T08:14:22.000Z</time>
      </trkpt>
      <trkpt lat="47.45801" lon="6.71612">
        <ele>419.5</ele>
        <time>2014-10-12T08:14:23.000Z</time>
      </trkpt>
      <trkpt lat="47.45798" lon="6.71614">
        <ele>419.5</ele>
        <time>2014-10-12T08:14:24.000Z</time>
      </trkpt>
      <trkpt lat="47.45794" lon="6.71616">
        <ele>419.1</ele>
        <time>2014-10-12T08:14:25.000Z</time>
      </trkpt>
      <trkpt lat="47.45791" lon="6.71618">
        <ele>419.3</ele>
        <time>2014-10-12T08:14:26.000Z</time>
      </trkpt>
      <trkpt lat="47.45787" lon="6.7162">
        <ele>419.5</ele>
        <time>2014-10-12T08:14:27.000Z</time>
      </trkpt>
      <trkpt lat="47.45784" lon="6.71623">
        <ele>420.1</ele>
        <time>2014-10-12T08:14:28.000Z</time>
      </trkpt>
      <trkpt lat="47.45781" lon="6.71625">
        <ele>420.1</ele>
        <time>2014-10-12T08:14:29.000Z</time>
      </trkpt>
      <trkpt lat="47.45777" lon="6.71627">
        <ele>420.9</ele>
        <time>2014-10-12T08:14:30.000Z</time>
      </trkpt>
      <trkpt lat="47.45774" lon="6.71629">
        <ele>420.8</ele>
        <time>2014-10-12T08:14:31.000Z</time>
      </trkpt>
      <trkpt lat="47.4577" lon="6.71631">
        <ele>420.7</ele>
        <time>2014-10-12T08:14:32.000Z</time>
      </trkpt>
      <trkpt lat="47.45766" lon="6.71633">
        <ele>420.8</ele>
        <time>2014-10-12T08:14:33.000Z</time>
      </trkpt>
      <trkpt lat="47.45762" lon="6.71636">
        <ele>420.4</ele>
        <time>2014-10-12T08:14:34.000Z</time>
      </trkpt>
      <trkpt lat="47.45758" lon="6.71639">
        <ele>420.3</ele>
        <time>2014-10-12T08:14:35.000Z</time>
      </trkpt>
      <trkpt lat="47.45755" lon="6.71641">
        <ele>421.2</ele>
        <time>2014-10-12T08:14:36.000Z</time>
      </trkpt>
      <trkpt lat="47.45751" lon="6.71644">
        <ele>421.3</ele>
        <time>2014-10-12T08:14:37.000Z</time>
      </trkpt>
      <trkpt lat="47.45748" lon="6.71646">
        <ele>421.8</ele>
        <time>2014-10-12T08:14:38.000Z</time>
      </trkpt>
      <trkpt lat="47.45744" lon="6.71649">
        <ele>421.9</ele>
        <time>2014-10-12T08:14:39.000Z</time>
      </trkpt>
      <trkpt lat="47.45741" lon="6.71651">
        <ele>421.6</ele>
        <time>2014-10-12T08:14:40.000Z</time>
      </trkpt>
      <trkpt lat="47.45737" lon="6.71654">
        <ele>421.4</ele>
        <time>2014-10-12T08:14:41.000Z</time>
      </trkpt>
      <trkpt lat="47.45734" lon="6.71656">
        <ele>422.8</ele>
        <time>2014-10-12T08:14:42.000Z</time>
      </trkpt>
      <trkpt lat="47.4573" lon="6.71659">
        <ele>423.4</ele>
        <time>2014-10-12T08:14:43.000Z</time>
      </trkpt>
      <trkpt lat="47.45727" lon="6.71662">
        <ele>423.8</ele>
        <time>2014-10-12T08:14:44.000Z</time>
      </trkpt>
      <trkpt lat="47.45724" lon="6.71664">
        <ele>424</ele>
        <time>2014-10-12T08:14:45.000Z</time>
      </trkpt>
      <trkpt lat="47.45721" lon="6.71666">
        <ele>422.9</ele>
        <time>2014-10-12T08:14:46.000Z</time>
      </trkpt>
      <trkpt lat="47.45717" lon="6.71668">
        <ele>422.6</ele>
        <time>2014-10-12T08:14:47.000Z</time>
      </trkpt>
      <trkpt lat="47.45706" lon="6.71673">
        <ele>422.2</ele>
        <time>2014-10-12T08:14:50.000Z</time>
      </trkpt>
      <trkpt lat="47.45704" lon="6.71675">
        <ele>422.5</ele>
        <time>2014-10-12T08:14:51.000Z</time>
      </trkpt>
      <trkpt lat="47.45701" lon="6.71677">
        <ele>424.9</ele>
        <time>2014-10-12T08:14:52.000Z</time>
      </trkpt>
      <trkpt lat="47.45699" lon="6.71679">
        <ele>425.4</ele>
        <time>2014-10-12T08:14:53.000Z</time>
      </trkpt>
      <trkpt lat="47.45697" lon="6.71682">
        <ele>425.6</ele>
        <time>2014-10-12T08:14:54.000Z</time>
      </trkpt>
      <trkpt lat="47.45695" lon="6.71685">
        <ele>425.6</ele>
        <time>2014-10-12T08:14:55.000Z</time>
      </trkpt>
      <trkpt lat="47.45692" lon="6.71688">
        <ele>425.8</ele>
        <time>2014-10-12T08:14:56.000Z</time>
      </trkpt>
      <trkpt lat="47.45689" lon="6.7169">
        <ele>426.9</ele>
        <time>2014-10-12T08:14:57.000Z</time>
      </trkpt>
      <trkpt lat="47.45686" lon="6.71693">
        <ele>427.2</ele>
        <time>2014-10-12T08:14:58.000Z</time>
      </trkpt>
      <trkpt lat="47.45682" lon="6.71694">
        <ele>427.4</ele>
        <time>2014-10-12T08:14:59.000Z</time>
      </trkpt>
      <trkpt lat="47.45679" lon="6.71696">
        <ele>427.4</ele>
        <time>2014-10-12T08:15:00.000Z</time>
      </trkpt>
      <trkpt lat="47.45676" lon="6.71698">
        <ele>426.5</ele>
        <time>2014-10-12T08:15:01.000Z</time>
      </trkpt>
      <trkpt lat="47.45672" lon="6.717">
        <ele>426.5</ele>
        <time>2014-10-12T08:15:02.000Z</time>
      </trkpt>
      <trkpt lat="47.45668" lon="6.71703">
        <ele>426.3</ele>
        <time>2014-10-12T08:15:03.000Z</time>
      </trkpt>
      <trkpt lat="47.45664" lon="6.71705">
        <ele>426.3</ele>
        <time>2014-10-12T08:15:04.000Z</time>
      </trkpt>
      <trkpt lat="47.4566" lon="6.71708">
        <ele>426.9</ele>
        <time>2014-10-12T08:15:05.000Z</time>
      </trkpt>
      <trkpt lat="47.45655" lon="6.7171">
        <ele>427.5</ele>
        <time>2014-10-12T08:15:06.000Z</time>
      </trkpt>
      <trkpt lat="47.45642" lon="6.71717">
        <ele>426.3</ele>
        <time>2014-10-12T08:15:07.000Z</time>
      </trkpt>
      <trkpt lat="47.45637" lon="6.7172">
        <ele>425.7</ele>
        <time>2014-10-12T08:15:08.000Z</time>
      </trkpt>
      <trkpt lat="47.45632" lon="6.71725">
        <ele>427.2</ele>
        <time>2014-10-12T08:15:09.000Z</time>
      </trkpt>
      <trkpt lat="47.45628" lon="6.71729">
        <ele>426.6</ele>
        <time>2014-10-12T08:15:10.000Z</time>
      </trkpt>
      <trkpt lat="47.45625" lon="6.71732">
        <ele>426.2</ele>
        <time>2014-10-12T08:15:11.000Z</time>
      </trkpt>
      <trkpt lat="47.45618" lon="6.71736">
        <ele>427.9</ele>
        <time>2014-10-12T08:15:12.000Z</time>
      </trkpt>
      <trkpt lat="47.45613" lon="6.7174">
        <ele>428.1</ele>
        <time>2014-10-12T08:15:13.000Z</time>
      </trkpt>
      <trkpt lat="47.45608" lon="6.71744">
        <ele>427.1</ele>
        <time>2014-10-12T08:15:14.000Z</time>
      </trkpt>
      <trkpt lat="47.45605" lon="6.71746">
        <ele>426.5</ele>
        <time>2014-10-12T08:15:15.000Z</time>
      </trkpt>
      <trkpt lat="47.45602" lon="6.71749">
        <ele>426.3</ele>
        <time>2014-10-12T08:15:16.000Z</time>
      </trkpt>
      <trkpt lat="47.45598" lon="6.71753">
        <ele>425.6</ele>
        <time>2014-10-12T08:15:17.000Z</time>
      </trkpt>
      <trkpt lat="47.45596" lon="6.71755">
        <ele>426.1</ele>
        <time>2014-10-12T08:15:18.000Z</time>
      </trkpt>
      <trkpt lat="47.45593" lon="6.71759">
        <ele>426.9</ele>
        <time>2014-10-12T08:15:19.000Z</time>
      </trkpt>
      <trkpt lat="47.45584" lon="6.71762">
        <ele>425.9</ele>
        <time>2014-10-12T08:15:20.000Z</time>
      </trkpt>
      <trkpt lat="47.4558" lon="6.71768">
        <ele>426.1</ele>
        <time>2014-10-12T08:15:21.000Z</time>
      </trkpt>
      <trkpt lat="47.45574" lon="6.71772">
        <ele>424.2</ele>
        <time>2014-10-12T08:15:22.000Z</time>
      </trkpt>
      <trkpt lat="47.45569" lon="6.71776">
        <ele>423.7</ele>
        <time>2014-10-12T08:15:23.000Z</time>
      </trkpt>
      <trkpt lat="47.45564" lon="6.71779">
        <ele>422.1</ele>
        <time>2014-10-12T08:15:24.000Z</time>
      </trkpt>
      <trkpt lat="47.45559" lon="6.7178">
        <ele>421</ele>
        <time>2014-10-12T08:15:25.000Z</time>
      </trkpt>
      <trkpt lat="47.45554" lon="6.71782">
        <ele>420.6</ele>
        <time>2014-10-12T08:15:26.000Z</time>
      </trkpt>
      <trkpt lat="47.45548" lon="6.71783">
        <ele>420.9</ele>
        <time>2014-10-12T08:15:27.000Z</time>
      </trkpt>
      <trkpt lat="47.45543" lon="6.71781">
        <ele>417.2</ele>
        <time>2014-10-12T08:15:28.000Z</time>
      </trkpt>
      <trkpt lat="47.45538" lon="6.71782">
        <ele>417</ele>
        <time>2014-10-12T08:15:29.000Z</time>
      </trkpt>
      <trkpt lat="47.45534" lon="6.71783">
        <ele>417.8</ele>
        <time>2014-10-12T08:15:30.000Z</time>
      </trkpt>
      <trkpt lat="47.4553" lon="6.71783">
        <ele>418.2</ele>
        <time>2014-10-12T08:15:31.000Z</time>
      </trkpt>
      <trkpt lat="47.45526" lon="6.71784">
        <ele>417.9</ele>
        <time>2014-10-12T08:15:32.000Z</time>
      </trkpt>
      <trkpt lat="47.45523" lon="6.71785">
        <ele>418.1</ele>
        <time>2014-10-12T08:15:33.000Z</time>
      </trkpt>
      <trkpt lat="47.4552" lon="6.71785">
        <ele>418.6</ele>
        <time>2014-10-12T08:15:34.000Z</time>
      </trkpt>
      <trkpt lat="47.45517" lon="6.71785">
        <ele>419.6</ele>
        <time>2014-10-12T08:15:35.000Z</time>
      </trkpt>
      <trkpt lat="47.45514" lon="6.71785">
        <ele>420.3</ele>
        <time>2014-10-12T08:15:36.000Z</time>
      </trkpt>
      <trkpt lat="47.45511" lon="6.71786">
        <ele>420.8</ele>
        <time>2014-10-12T08:15:37.000Z</time>
      </trkpt>
      <trkpt lat="47.45508" lon="6.71786">
        <ele>420.1</ele>
        <time>2014-10-12T08:15:38.000Z</time>
      </trkpt>
      <trkpt lat="47.45505" lon="6.71786">
        <ele>420</ele>
        <time>2014-10-12T08:15:39.000Z</time>
      </trkpt>
      <trkpt lat="47.45503" lon="6.71786">
        <ele>420.2</ele>
        <time>2014-10-12T08:15:40.000Z</time>
      </trkpt>
      <trkpt lat="47.455" lon="6.71786">
        <ele>421.2</ele>
        <time>2014-10-12T08:15:41.000Z</time>
      </trkpt>
      <trkpt lat="47.45498" lon="6.71786">
        <ele>422.2</ele>
        <time>2014-10-12T08:15:42.000Z</time>
      </trkpt>
      <trkpt lat="47.45495" lon="6.71786">
        <ele>422.2</ele>
        <time>2014-10-12T08:15:43.000Z</time>
      </trkpt>
      <trkpt lat="47.45492" lon="6.71787">
        <ele>422.5</ele>
        <time>2014-10-12T08:15:44.000Z</time>
      </trkpt>
      <trkpt lat="47.45489" lon="6.71788">
        <ele>423.1</ele>
        <time>2014-10-12T08:15:45.000Z</time>
      </trkpt>
      <trkpt lat="47.45486" lon="6.71789">
        <ele>423.8</ele>
        <time>2014-10-12T08:15:46.000Z</time>
      </trkpt>
      <trkpt lat="47.45483" lon="6.7179">
        <ele>423.5</ele>
        <time>2014-10-12T08:15:47.000Z</time>
      </trkpt>
      <trkpt lat="47.45473" lon="6.71792">
        <ele>423.3</ele>
        <time>2014-10-12T08:15:50.000Z</time>
      </trkpt>
      <trkpt lat="47.4547" lon="6.71793">
        <ele>424.2</ele>
        <time>2014-10-12T08:15:51.000Z</time>
      </trkpt>
      <trkpt lat="47.45466" lon="6.71794">
        <ele>425.1</ele>
        <time>2014-10-12T08:15:52.000Z</time>
      </trkpt>
      <trkpt lat="47.45463" lon="6.71796">
        <ele>424.3</ele>
        <time>2014-10-12T08:15:53.000Z</time>
      </trkpt>
      <trkpt lat="47.45461" lon="6.71797">
        <ele>423.7</ele>
        <time>2014-10-12T08:15:53.999Z</time>
      </trkpt>
      <trkpt lat="47.45457" lon="6.71798">
        <ele>424.6</ele>
        <time>2014-10-12T08:15:55.000Z</time>
      </trkpt>
      <trkpt lat="47.45454" lon="6.71799">
        <ele>425.1</ele>
        <time>2014-10-12T08:15:56.000Z</time>
      </trkpt>
      <trkpt lat="47.45451" lon="6.71801">
        <ele>425.7</ele>
        <time>2014-10-12T08:15:57.000Z</time>
      </trkpt>
      <trkpt lat="47.45447" lon="6.71802">
        <ele>425.8</ele>
        <time>2014-10-12T08:15:58.000Z</time>
      </trkpt>
      <trkpt lat="47.45444" lon="6.71803">
        <ele>426.1</ele>
        <time>2014-10-12T08:15:59.000Z</time>
      </trkpt>
      <trkpt lat="47.4544" lon="6.71804">
        <ele>426.2</ele>
        <time>2014-10-12T08:16:00.000Z</time>
      </trkpt>
      <trkpt lat="47.45437" lon="6.71805">
        <ele>426.9</ele>
        <time>2014-10-12T08:16:01.000Z</time>
      </trkpt>
      <trkpt lat="47.45434" lon="6.71806">
        <ele>427.2</ele>
        <time>2014-10-12T08:16:02.000Z</time>
      </trkpt>
      <trkpt lat="47.45431" lon="6.71807">
        <ele>426.7</ele>
        <time>2014-10-12T08:16:03.000Z</time>
      </trkpt>
      <trkpt lat="47.45428" lon="6.71808">
        <ele>426.5</ele>
        <time>2014-10-12T08:16:04.000Z</time>
      </trkpt>
      <trkpt lat="47.45425" lon="6.71808">
        <ele>426.9</ele>
        <time>2014-10-12T08:16:05.000Z</time>
      </trkpt>
      <trkpt lat="47.45422" lon="6.71808">
        <ele>427.8</ele>
        <time>2014-10-12T08:16:06.000Z</time>
      </trkpt>
      <trkpt lat="47.45419" lon="6.71809">
        <ele>428.1</ele>
        <time>2014-10-12T08:16:07.000Z</time>
      </trkpt>
      <trkpt lat="47.45417" lon="6.71809">
        <ele>428.1</ele>
        <time>2014-10-12T08:16:08.000Z</time>
      </trkpt>
      <trkpt lat="47.45414" lon="6.71808">
        <ele>429.4</ele>
        <time>2014-10-12T08:16:09.000Z</time>
      </trkpt>
      <trkpt lat="47.45411" lon="6.71807">
        <ele>429.8</ele>
        <time>2014-10-12T08:16:10.000Z</time>
      </trkpt>
      <trkpt lat="47.45409" lon="6.71806">
        <ele>430.6</ele>
        <time>2014-10-12T08:16:11.000Z</time>
      </trkpt>
      <trkpt lat="47.45406" lon="6.71805">
        <ele>430.5</ele>
        <time>2014-10-12T08:16:12.000Z</time>
      </trkpt>
      <trkpt lat="47.45404" lon="6.71803">
        <ele>430.9</ele>
        <time>2014-10-12T08:16:13.000Z</time>
      </trkpt>
      <trkpt lat="47.45402" lon="6.71801">
        <ele>430.8</ele>
        <time>2014-10-12T08:16:14.000Z</time>
      </trkpt>
      <trkpt lat="47.45399" lon="6.71796">
        <ele>432.4</ele>
        <time>2014-10-12T08:16:16.000Z</time>
      </trkpt>
      <trkpt lat="47.45397" lon="6.71794">
        <ele>432.3</ele>
        <time>2014-10-12T08:16:17.000Z</time>
      </trkpt>
      <trkpt lat="47.45396" lon="6.71791">
        <ele>432.3</ele>
        <time>2014-10-12T08:16:18.000Z</time>
      </trkpt>
      <trkpt lat="47.45395" lon="6.71787">
        <ele>432.8</ele>
        <time>2014-10-12T08:16:19.000Z</time>
      </trkpt>
      <trkpt lat="47.45394" lon="6.71782">
        <ele>435.2</ele>
        <time>2014-10-12T08:16:21.000Z</time>
      </trkpt>
      <trkpt lat="47.45393" lon="6.71779">
        <ele>437</ele>
        <time>2014-10-12T08:16:22.000Z</time>
      </trkpt>
      <trkpt lat="47.45392" lon="6.71774">
        <ele>439.9</ele>
        <time>2014-10-12T08:16:24.000Z</time>
      </trkpt>
      <trkpt lat="47.45392" lon="6.71771">
        <ele>440.8</ele>
        <time>2014-10-12T08:16:25.000Z</time>
      </trkpt>
      <trkpt lat="47.45391" lon="6.71767">
        <ele>440.7</ele>
        <time>2014-10-12T08:16:27.000Z</time>
      </trkpt>
      <trkpt lat="47.4539" lon="6.71765">
        <ele>441.9</ele>
        <time>2014-10-12T08:16:28.000Z</time>
      </trkpt>
      <trkpt lat="47.45387" lon="6.7176">
        <ele>444.1</ele>
        <time>2014-10-12T08:16:31.000Z</time>
      </trkpt>
      <trkpt lat="47.45386" lon="6.71758">
        <ele>442.8</ele>
        <time>2014-10-12T08:16:32.000Z</time>
      </trkpt>
      <trkpt lat="47.45385" lon="6.71753">
        <ele>445.8</ele>
        <time>2014-10-12T08:16:34.000Z</time>
      </trkpt>
      <trkpt lat="47.45384" lon="6.71751">
        <ele>447.3</ele>
        <time>2014-10-12T08:16:35.000Z</time>
      </trkpt>
      <trkpt lat="47.45383" lon="6.71746">
        <ele>452.3</ele>
        <time>2014-10-12T08:16:37.000Z</time>
      </trkpt>
      <trkpt lat="47.45383" lon="6.71743">
        <ele>453.1</ele>
        <time>2014-10-12T08:16:38.000Z</time>
      </trkpt>
      <trkpt lat="47.45381" lon="6.71739">
        <ele>450.3</ele>
        <time>2014-10-12T08:16:40.000Z</time>
      </trkpt>
      <trkpt lat="47.4538" lon="6.71737">
        <ele>449.9</ele>
        <time>2014-10-12T08:16:41.000Z</time>
      </trkpt>
      <trkpt lat="47.45378" lon="6.71733">
        <ele>446.2</ele>
        <time>2014-10-12T08:16:43.000Z</time>
      </trkpt>
      <trkpt lat="47.45378" lon="6.7173">
        <ele>446.9</ele>
        <time>2014-10-12T08:16:44.000Z</time>
      </trkpt>
      <trkpt lat="47.45376" lon="6.71724">
        <ele>447.4</ele>
        <time>2014-10-12T08:16:46.000Z</time>
      </trkpt>
      <trkpt lat="47.45375" lon="6.71721">
        <ele>448.1</ele>
        <time>2014-10-12T08:16:47.000Z</time>
      </trkpt>
      <trkpt lat="47.45371" lon="6.71697">
        <ele>448</ele>
        <time>2014-10-12T08:16:55.000Z</time>
      </trkpt>
      <trkpt lat="47.4537" lon="6.71691">
        <ele>448.9</ele>
        <time>2014-10-12T08:16:57.000Z</time>
      </trkpt>
      <trkpt lat="47.45369" lon="6.71687">
        <ele>450.5</ele>
        <time>2014-10-12T08:16:58.000Z</time>
      </trkpt>
      <trkpt lat="47.45369" lon="6.71684">
        <ele>451.2</ele>
        <time>2014-10-12T08:16:59.000Z</time>
      </trkpt>
      <trkpt lat="47.45368" lon="6.71679">
        <ele>451.1</ele>
        <time>2014-10-12T08:17:00.000Z</time>
      </trkpt>
      <trkpt lat="47.45367" lon="6.71674">
        <ele>450.9</ele>
        <time>2014-10-12T08:17:01.000Z</time>
      </trkpt>
      <trkpt lat="47.45366" lon="6.71669">
        <ele>450.7</ele>
        <time>2014-10-12T08:17:02.000Z</time>
      </trkpt>
      <trkpt lat="47.45365" lon="6.71664">
        <ele>452</ele>
        <time>2014-10-12T08:17:03.000Z</time>
      </trkpt>
      <trkpt lat="47.45364" lon="6.71659">
        <ele>453</ele>
        <time>2014-10-12T08:17:04.000Z</time>
      </trkpt>
      <trkpt lat="47.45362" lon="6.71654">
        <ele>454.4</ele>
        <time>2014-10-12T08:17:05.000Z</time>
      </trkpt>
      <trkpt lat="47.45361" lon="6.71649">
        <ele>455</ele>
        <time>2014-10-12T08:17:06.000Z</time>
      </trkpt>
      <trkpt lat="47.4536" lon="6.71644">
        <ele>454.1</ele>
        <time>2014-10-12T08:17:07.000Z</time>
      </trkpt>
      <trkpt lat="47.45359" lon="6.7164">
        <ele>453.8</ele>
        <time>2014-10-12T08:17:08.000Z</time>
      </trkpt>
      <trkpt lat="47.45358" lon="6.71635">
        <ele>453</ele>
        <time>2014-10-12T08:17:09.000Z</time>
      </trkpt>
      <trkpt lat="47.45357" lon="6.71631">
        <ele>451.8</ele>
        <time>2014-10-12T08:17:10.000Z</time>
      </trkpt>
      <trkpt lat="47.45355" lon="6.71628">
        <ele>451.4</ele>
        <time>2014-10-12T08:17:10.998Z</time>
      </trkpt>
      <trkpt lat="47.45354" lon="6.71624">
        <ele>448.1</ele>
        <time>2014-10-12T08:17:12.000Z</time>
      </trkpt>
      <trkpt lat="47.45352" lon="6.7162">
        <ele>446.3</ele>
        <time>2014-10-12T08:17:13.000Z</time>
      </trkpt>
      <trkpt lat="47.45351" lon="6.71616">
        <ele>447</ele>
        <time>2014-10-12T08:17:14.000Z</time>
      </trkpt>
      <trkpt lat="47.45349" lon="6.71612">
        <ele>446.9</ele>
        <time>2014-10-12T08:17:15.000Z</time>
      </trkpt>
      <trkpt lat="47.45347" lon="6.71608">
        <ele>447.1</ele>
        <time>2014-10-12T08:17:16.000Z</time>
      </trkpt>
      <trkpt lat="47.45344" lon="6.71604">
        <ele>447.2</ele>
        <time>2014-10-12T08:17:17.000Z</time>
      </trkpt>
      <trkpt lat="47.45342" lon="6.716">
        <ele>447.2</ele>
        <time>2014-10-12T08:17:18.000Z</time>
      </trkpt>
      <trkpt lat="47.45339" lon="6.71597">
        <ele>447.7</ele>
        <time>2014-10-12T08:17:19.000Z</time>
      </trkpt>
      <trkpt lat="47.45337" lon="6.71593">
        <ele>447.2</ele>
        <time>2014-10-12T08:17:20.000Z</time>
      </trkpt>
      <trkpt lat="47.45334" lon="6.7159">
        <ele>447.4</ele>
        <time>2014-10-12T08:17:21.000Z</time>
      </trkpt>
      <trkpt lat="47.45332" lon="6.71588">
        <ele>448.3</ele>
        <time>2014-10-12T08:17:22.000Z</time>
      </trkpt>
      <trkpt lat="47.45328" lon="6.71586">
        <ele>449.9</ele>
        <time>2014-10-12T08:17:24.000Z</time>
      </trkpt>
      <trkpt lat="47.45327" lon="6.71585">
        <ele>450.3</ele>
        <time>2014-10-12T08:17:25.000Z</time>
      </trkpt>
      <trkpt lat="47.45324" lon="6.7158">
        <ele>448</ele>
        <time>2014-10-12T08:17:29.000Z</time>
      </trkpt>
      <trkpt lat="47.45323" lon="6.71578">
        <ele>446.5</ele>
        <time>2014-10-12T08:17:30.000Z</time>
      </trkpt>
      <trkpt lat="47.45321" lon="6.71574">
        <ele>444.8</ele>
        <time>2014-10-12T08:17:33.000Z</time>
      </trkpt>
      <trkpt lat="47.4532" lon="6.71572">
        <ele>444.6</ele>
        <time>2014-10-12T08:17:34.000Z</time>
      </trkpt>
      <trkpt lat="47.45319" lon="6.71566">
        <ele>444.7</ele>
        <time>2014-10-12T08:17:37.000Z</time>
      </trkpt>
      <trkpt lat="47.45318" lon="6.71565">
        <ele>445</ele>
        <time>2014-10-12T08:17:38.000Z</time>
      </trkpt>
      <trkpt lat="47.45318" lon="6.7156">
        <ele>445.1</ele>
        <time>2014-10-12T08:17:41.000Z</time>
      </trkpt>
      <trkpt lat="47.45318" lon="6.71558">
        <ele>444.9</ele>
        <time>2014-10-12T08:17:42.000Z</time>
      </trkpt>
      <trkpt lat="47.45317" lon="6.71552">
        <ele>445.2</ele>
        <time>2014-10-12T08:17:44.000Z</time>
      </trkpt>
      <trkpt lat="47.45317" lon="6.7155">
        <ele>444.2</ele>
        <time>2014-10-12T08:17:45.000Z</time>
      </trkpt>
      <trkpt lat="47.45315" lon="6.71546">
        <ele>442.5</ele>
        <time>2014-10-12T08:17:47.000Z</time>
      </trkpt>
      <trkpt lat="47.45314" lon="6.71542">
        <ele>439.4</ele>
        <time>2014-10-12T08:17:50.000Z</time>
      </trkpt>
      <trkpt lat="47.45314" lon="6.71536">
        <ele>438.2</ele>
        <time>2014-10-12T08:17:54.000Z</time>
      </trkpt>
      <trkpt lat="47.45314" lon="6.71533">
        <ele>438.8</ele>
        <time>2014-10-12T08:17:55.000Z</time>
      </trkpt>
      <trkpt lat="47.45313" lon="6.71529">
        <ele>439.8</ele>
        <time>2014-10-12T08:17:56.000Z</time>
      </trkpt>
      <trkpt lat="47.45313" lon="6.71525">
        <ele>439.8</ele>
        <time>2014-10-12T08:17:57.000Z</time>
      </trkpt>
      <trkpt lat="47.45312" lon="6.71521">
        <ele>440.9</ele>
        <time>2014-10-12T08:17:58.000Z</time>
      </trkpt>
      <trkpt lat="47.45311" lon="6.71516">
        <ele>441</ele>
        <time>2014-10-12T08:17:59.000Z</time>
      </trkpt>
      <trkpt lat="47.4531" lon="6.7151">
        <ele>441.2</ele>
        <time>2014-10-12T08:18:00.000Z</time>
      </trkpt>
      <trkpt lat="47.45309" lon="6.71504">
        <ele>441.7</ele>
        <time>2014-10-12T08:18:01.000Z</time>
      </trkpt>
      <trkpt lat="47.45308" lon="6.71499">
        <ele>442.9</ele>
        <time>2014-10-12T08:18:02.000Z</time>
      </trkpt>
      <trkpt lat="47.45307" lon="6.71493">
        <ele>442.9</ele>
        <time>2014-10-12T08:18:03.000Z</time>
      </trkpt>
      <trkpt lat="47.45306" lon="6.71487">
        <ele>443</ele>
        <time>2014-10-12T08:18:04.000Z</time>
      </trkpt>
      <trkpt lat="47.45304" lon="6.71482">
        <ele>443</ele>
        <time>2014-10-12T08:18:05.000Z</time>
      </trkpt>
      <trkpt lat="47.45303" lon="6.71477">
        <ele>442.9</ele>
        <time>2014-10-12T08:18:06.000Z</time>
      </trkpt>
      <trkpt lat="47.45301" lon="6.71472">
        <ele>443.5</ele>
        <time>2014-10-12T08:18:07.000Z</time>
      </trkpt>
      <trkpt lat="47.45299" lon="6.71468">
        <ele>443.7</ele>
        <time>2014-10-12T08:18:08.000Z</time>
      </trkpt>
      <trkpt lat="47.45296" lon="6.71465">
        <ele>443.8</ele>
        <time>2014-10-12T08:18:09.000Z</time>
      </trkpt>
      <trkpt lat="47.45294" lon="6.71462">
        <ele>444</ele>
        <time>2014-10-12T08:18:10.000Z</time>
      </trkpt>
      <trkpt lat="47.45292" lon="6.71461">
        <ele>441.5</ele>
        <time>2014-10-12T08:18:11.000Z</time>
      </trkpt>
      <trkpt lat="47.45289" lon="6.71461">
        <ele>440.9</ele>
        <time>2014-10-12T08:18:12.000Z</time>
      </trkpt>
      <trkpt lat="47.45287" lon="6.71459">
        <ele>440.2</ele>
        <time>2014-10-12T08:18:12.999Z</time>
      </trkpt>
      <trkpt lat="47.45284" lon="6.71461">
        <ele>439.6</ele>
        <time>2014-10-12T08:18:14.000Z</time>
      </trkpt>
      <trkpt lat="47.45281" lon="6.7146">
        <ele>440.7</ele>
        <time>2014-10-12T08:18:15.000Z</time>
      </trkpt>
      <trkpt lat="47.45278" lon="6.71459">
        <ele>441</ele>
        <time>2014-10-12T08:18:16.000Z</time>
      </trkpt>
      <trkpt lat="47.45276" lon="6.71458">
        <ele>441.1</ele>
        <time>2014-10-12T08:18:17.000Z</time>
      </trkpt>
      <trkpt lat="47.45273" lon="6.71457">
        <ele>441.3</ele>
        <time>2014-10-12T08:18:18.000Z</time>
      </trkpt>
      <trkpt lat="47.4527" lon="6.71457">
        <ele>438.2</ele>
        <time>2014-10-12T08:18:19.000Z</time>
      </trkpt>
      <trkpt lat="47.45266" lon="6.71457">
        <ele>436.4</ele>
        <time>2014-10-12T08:18:21.000Z</time>
      </trkpt>
      <trkpt lat="47.45265" lon="6.71457">
        <ele>438.1</ele>
        <time>2014-10-12T08:18:22.000Z</time>
      </trkpt>
      <trkpt lat="47.45261" lon="6.71457">
        <ele>438.7</ele>
        <time>2014-10-12T08:18:24.000Z</time>
      </trkpt>
      <trkpt lat="47.45259" lon="6.71456">
        <ele>439.6</ele>
        <time>2014-10-12T08:18:25.000Z</time>
      </trkpt>
      <trkpt lat="47.45256" lon="6.71454">
        <ele>444.7</ele>
        <time>2014-10-12T08:18:27.000Z</time>
      </trkpt>
      <trkpt lat="47.45255" lon="6.71452">
        <ele>446.3</ele>
        <time>2014-10-12T08:18:28.000Z</time>
      </trkpt>
      <trkpt lat="47.45253" lon="6.7145">
        <ele>448.4</ele>
        <time>2014-10-12T08:18:29.000Z</time>
      </trkpt>
      <trkpt lat="47.45251" lon="6.71448">
        <ele>449.5</ele>
        <time>2014-10-12T08:18:30.000Z</time>
      </trkpt>
      <trkpt lat="47.45248" lon="6.71445">
        <ele>450.1</ele>
        <time>2014-10-12T08:18:32.000Z</time>
      </trkpt>
      <trkpt lat="47.45247" lon="6.71445">
        <ele>448.5</ele>
        <time>2014-10-12T08:18:33.000Z</time>
      </trkpt>
      <trkpt lat="47.4525" lon="6.71445">
        <ele>442.6</ele>
        <time>2014-10-12T08:18:40.000Z</time>
      </trkpt>
      <trkpt lat="47.45253" lon="6.71445">
        <ele>441.5</ele>
        <time>2014-10-12T08:18:41.000Z</time>
      </trkpt>
      <trkpt lat="47.45256" lon="6.71446">
        <ele>444.4</ele>
        <time>2014-10-12T08:18:42.000Z</time>
      </trkpt>
      <trkpt lat="47.4526" lon="6.71448">
        <ele>446.4</ele>
        <time>2014-10-12T08:18:43.000Z</time>
      </trkpt>
      <trkpt lat="47.45263" lon="6.71449">
        <ele>445</ele>
        <time>2014-10-12T08:18:44.000Z</time>
      </trkpt>
      <trkpt lat="47.45267" lon="6.71449">
        <ele>445.1</ele>
        <time>2014-10-12T08:18:45.000Z</time>
      </trkpt>
      <trkpt lat="47.4527" lon="6.7145">
        <ele>443.7</ele>
        <time>2014-10-12T08:18:46.000Z</time>
      </trkpt>
      <trkpt lat="47.45274" lon="6.71451">
        <ele>445.1</ele>
        <time>2014-10-12T08:18:47.000Z</time>
      </trkpt>
      <trkpt lat="47.45296" lon="6.71438">
        <ele>445.3</ele>
        <time>2014-10-12T08:18:55.000Z</time>
      </trkpt>
      <trkpt lat="47.45294" lon="6.71432">
        <ele>444.6</ele>
        <time>2014-10-12T08:18:56.000Z</time>
      </trkpt>
      <trkpt lat="47.45292" lon="6.71427">
        <ele>444.5</ele>
        <time>2014-10-12T08:18:57.000Z</time>
      </trkpt>
      <trkpt lat="47.45289" lon="6.71421">
        <ele>444.2</ele>
        <time>2014-10-12T08:18:58.000Z</time>
      </trkpt>
      <trkpt lat="47.45287" lon="6.71415">
        <ele>444.1</ele>
        <time>2014-10-12T08:18:59.000Z</time>
      </trkpt>
      <trkpt lat="47.45284" lon="6.71408">
        <ele>444.7</ele>
        <time>2014-10-12T08:19:00.000Z</time>
      </trkpt>
      <trkpt lat="47.45282" lon="6.71402">
        <ele>445.1</ele>
        <time>2014-10-12T08:19:01.000Z</time>
      </trkpt>
      <trkpt lat="47.4528" lon="6.71396">
        <ele>444.6</ele>
        <time>2014-10-12T08:19:02.000Z</time>
      </trkpt>
      <trkpt lat="47.45279" lon="6.7139">
        <ele>444.3</ele>
        <time>2014-10-12T08:19:03.000Z</time>
      </trkpt>
      <trkpt lat="47.45277" lon="6.71385">
        <ele>444</ele>
        <time>2014-10-12T08:19:04.000Z</time>
      </trkpt>
      <trkpt lat="47.45275" lon="6.7138">
        <ele>444.1</ele>
        <time>2014-10-12T08:19:05.000Z</time>
      </trkpt>
      <trkpt lat="47.45274" lon="6.71375">
        <ele>443.7</ele>
        <time>2014-10-12T08:19:06.000Z</time>
      </trkpt>
      <trkpt lat="47.45273" lon="6.71371">
        <ele>443.8</ele>
        <time>2014-10-12T08:19:07.000Z</time>
      </trkpt>
      <trkpt lat="47.45272" lon="6.71367">
        <ele>443.9</ele>
        <time>2014-10-12T08:19:08.000Z</time>
      </trkpt>
      <trkpt lat="47.45271" lon="6.71363">
        <ele>443.8</ele>
        <time>2014-10-12T08:19:09.000Z</time>
      </trkpt>
      <trkpt lat="47.45269" lon="6.71358">
        <ele>442.9</ele>
        <time>2014-10-12T08:19:11.000Z</time>
      </trkpt>
      <trkpt lat="47.45268" lon="6.71355">
        <ele>443.7</ele>
        <time>2014-10-12T08:19:12.000Z</time>
      </trkpt>
      <trkpt lat="47.45267" lon="6.71349">
        <ele>444.6</ele>
        <time>2014-10-12T08:19:14.000Z</time>
      </trkpt>
      <trkpt lat="47.45266" lon="6.71346">
        <ele>445.2</ele>
        <time>2014-10-12T08:19:15.000Z</time>
      </trkpt>
      <trkpt lat="47.45265" lon="6.71342">
        <ele>445.4</ele>
        <time>2014-10-12T08:19:16.000Z</time>
      </trkpt>
      <trkpt lat="47.45265" lon="6.71338">
        <ele>446.2</ele>
        <time>2014-10-12T08:19:17.000Z</time>
      </trkpt>
      <trkpt lat="47.45264" lon="6.71334">
        <ele>446.4</ele>
        <time>2014-10-12T08:19:18.000Z</time>
      </trkpt>
      <trkpt lat="47.45263" lon="6.71329">
        <ele>446.7</ele>
        <time>2014-10-12T08:19:19.000Z</time>
      </trkpt>
      <trkpt lat="47.45262" lon="6.71325">
        <ele>445.6</ele>
        <time>2014-10-12T08:19:20.000Z</time>
      </trkpt>
      <trkpt lat="47.45261" lon="6.7132">
        <ele>446</ele>
        <time>2014-10-12T08:19:21.000Z</time>
      </trkpt>
      <trkpt lat="47.45259" lon="6.7131">
        <ele>445.9</ele>
        <time>2014-10-12T08:19:22.000Z</time>
      </trkpt>
      <trkpt lat="47.45258" lon="6.71303">
        <ele>447.5</ele>
        <time>2014-10-12T08:19:23.000Z</time>
      </trkpt>
      <trkpt lat="47.45258" lon="6.71296">
        <ele>447.7</ele>
        <time>2014-10-12T08:19:24.000Z</time>
      </trkpt>
      <trkpt lat="47.45257" lon="6.71289">
        <ele>447.9</ele>
        <time>2014-10-12T08:19:25.000Z</time>
      </trkpt>
      <trkpt lat="47.45253" lon="6.71286">
        <ele>448.1</ele>
        <time>2014-10-12T08:19:26.000Z</time>
      </trkpt>
      <trkpt lat="47.4525" lon="6.71282">
        <ele>451.9</ele>
        <time>2014-10-12T08:19:27.000Z</time>
      </trkpt>
      <trkpt lat="47.45248" lon="6.71279">
        <ele>451.7</ele>
        <time>2014-10-12T08:19:28.000Z</time>
      </trkpt>
      <trkpt lat="47.45248" lon="6.71276">
        <ele>450.6</ele>
        <time>2014-10-12T08:19:29.000Z</time>
      </trkpt>
      <trkpt lat="47.45244" lon="6.71274">
        <ele>449.1</ele>
        <time>2014-10-12T08:19:31.000Z</time>
      </trkpt>
      <trkpt lat="47.45243" lon="6.71273">
        <ele>448.2</ele>
        <time>2014-10-12T08:19:32.000Z</time>
      </trkpt>
      <trkpt lat="47.4524" lon="6.7127">
        <ele>444.4</ele>
        <time>2014-10-12T08:19:36.000Z</time>
      </trkpt>
      <trkpt lat="47.45239" lon="6.71269">
        <ele>443.2</ele>
        <time>2014-10-12T08:19:37.000Z</time>
      </trkpt>
      <trkpt lat="47.45236" lon="6.71265">
        <ele>442.8</ele>
        <time>2014-10-12T08:19:43.000Z</time>
      </trkpt>
      <trkpt lat="47.45235" lon="6.71264">
        <ele>443.1</ele>
        <time>2014-10-12T08:19:44.000Z</time>
      </trkpt>
      <trkpt lat="47.45231" lon="6.71262">
        <ele>444.4</ele>
        <time>2014-10-12T08:19:55.000Z</time>
      </trkpt>
      <trkpt lat="47.45231" lon="6.71261">
        <ele>444.9</ele>
        <time>2014-10-12T08:19:56.000Z</time>
      </trkpt>
      <trkpt lat="47.45226" lon="6.71259">
        <ele>438.2</ele>
        <time>2014-10-12T08:20:03.000Z</time>
      </trkpt>
      <trkpt lat="47.45226" lon="6.71259">
        <ele>435.9</ele>
        <time>2014-10-12T08:20:04.000Z</time>
      </trkpt>
      <trkpt lat="47.45222" lon="6.71259">
        <ele>432</ele>
        <time>2014-10-12T08:20:08.000Z</time>
      </trkpt>
      <trkpt lat="47.45221" lon="6.71257">
        <ele>432.9</ele>
        <time>2014-10-12T08:20:09.000Z</time>
      </trkpt>
      <trkpt lat="47.45218" lon="6.71252">
        <ele>431.9</ele>
        <time>2014-10-12T08:20:16.000Z</time>
      </trkpt>
      <trkpt lat="47.45217" lon="6.71252">
        <ele>431.8</ele>
        <time>2014-10-12T08:20:17.000Z</time>
      </trkpt>
      <trkpt lat="47.45214" lon="6.71248">
        <ele>432.6</ele>
        <time>2014-10-12T08:20:20.000Z</time>
      </trkpt>
      <trkpt lat="47.45214" lon="6.71246">
        <ele>432.1</ele>
        <time>2014-10-12T08:20:21.000Z</time>
      </trkpt>
      <trkpt lat="47.45211" lon="6.71243">
        <ele>427.9</ele>
        <time>2014-10-12T08:20:23.000Z</time>
      </trkpt>
      <trkpt lat="47.45209" lon="6.71241">
        <ele>424.1</ele>
        <time>2014-10-12T08:20:24.000Z</time>
      </trkpt>
      <trkpt lat="47.45206" lon="6.71238">
        <ele>420.9</ele>
        <time>2014-10-12T08:20:26.000Z</time>
      </trkpt>
      <trkpt lat="47.45205" lon="6.71237">
        <ele>419.9</ele>
        <time>2014-10-12T08:20:27.000Z</time>
      </trkpt>
      <trkpt lat="47.45202" lon="6.71236">
        <ele>420.3</ele>
        <time>2014-10-12T08:20:28.000Z</time>
      </trkpt>
      <trkpt lat="47.452" lon="6.71234">
        <ele>420.3</ele>
        <time>2014-10-12T08:20:29.000Z</time>
      </trkpt>
      <trkpt lat="47.45198" lon="6.71232">
        <ele>421.4</ele>
        <time>2014-10-12T08:20:30.000Z</time>
      </trkpt>
      <trkpt lat="47.45196" lon="6.7123">
        <ele>421.6</ele>
        <time>2014-10-12T08:20:31.000Z</time>
      </trkpt>
      <trkpt lat="47.45194" lon="6.71228">
        <ele>422</ele>
        <time>2014-10-12T08:20:32.000Z</time>
      </trkpt>
      <trkpt lat="47.45192" lon="6.71226">
        <ele>423.8</ele>
        <time>2014-10-12T08:20:33.000Z</time>
      </trkpt>
      <trkpt lat="47.4519" lon="6.71222">
        <ele>429</ele>
        <time>2014-10-12T08:20:35.000Z</time>
      </trkpt>
      <trkpt lat="47.45189" lon="6.7122">
        <ele>429.6</ele>
        <time>2014-10-12T08:20:36.000Z</time>
      </trkpt>
      <trkpt lat="47.45188" lon="6.71215">
        <ele>434.8</ele>
        <time>2014-10-12T08:20:38.000Z</time>
      </trkpt>
      <trkpt lat="47.45188" lon="6.71211">
        <ele>435.4</ele>
        <time>2014-10-12T08:20:39.000Z</time>
      </trkpt>
      <trkpt lat="47.45188" lon="6.71207">
        <ele>434.4</ele>
        <time>2014-10-12T08:20:40.000Z</time>
      </trkpt>
      <trkpt lat="47.45189" lon="6.71201">
        <ele>435.4</ele>
        <time>2014-10-12T08:20:41.000Z</time>
      </trkpt>
      <trkpt lat="47.4519" lon="6.71195">
        <ele>436.2</ele>
        <time>2014-10-12T08:20:42.000Z</time>
      </trkpt>
      <trkpt lat="47.45191" lon="6.71189">
        <ele>437.5</ele>
        <time>2014-10-12T08:20:43.000Z</time>
      </trkpt>
      <trkpt lat="47.45192" lon="6.71182">
        <ele>437.8</ele>
        <time>2014-10-12T08:20:44.000Z</time>
      </trkpt>
      <trkpt lat="47.45193" lon="6.71176">
        <ele>438.2</ele>
        <time>2014-10-12T08:20:45.000Z</time>
      </trkpt>
      <trkpt lat="47.45194" lon="6.7117">
        <ele>438</ele>
        <time>2014-10-12T08:20:46.000Z</time>
      </trkpt>
      <trkpt lat="47.45195" lon="6.71163">
        <ele>438.1</ele>
        <time>2014-10-12T08:20:47.000Z</time>
      </trkpt>
      <trkpt lat="47.4521" lon="6.71097">
        <ele>436.3</ele>
        <time>2014-10-12T08:20:55.000Z</time>
      </trkpt>
      <trkpt lat="47.45212" lon="6.71085">
        <ele>436.4</ele>
        <time>2014-10-12T08:20:56.000Z</time>
      </trkpt>
      <trkpt lat="47.45211" lon="6.71072">
        <ele>438</ele>
        <time>2014-10-12T08:20:57.000Z</time>
      </trkpt>
      <trkpt lat="47.45209" lon="6.71063">
        <ele>442.2</ele>
        <time>2014-10-12T08:20:58.000Z</time>
      </trkpt>
      <trkpt lat="47.45208" lon="6.71054">
        <ele>442.4</ele>
        <time>2014-10-12T08:20:59.000Z</time>
      </trkpt>
      <trkpt lat="47.45208" lon="6.71048">
        <ele>441.9</ele>
        <time>2014-10-12T08:21:00.000Z</time>
      </trkpt>
      <trkpt lat="47.45205" lon="6.71045">
        <ele>440</ele>
        <time>2014-10-12T08:21:01.000Z</time>
      </trkpt>
      <trkpt lat="47.45203" lon="6.71043">
        <ele>436</ele>
        <time>2014-10-12T08:21:02.000Z</time>
      </trkpt>
      <trkpt lat="47.45202" lon="6.71039">
        <ele>434.6</ele>
        <time>2014-10-12T08:21:03.000Z</time>
      </trkpt>
      <trkpt lat="47.452" lon="6.71034">
        <ele>433.1</ele>
        <time>2014-10-12T08:21:05.000Z</time>
      </trkpt>
      <trkpt lat="47.45199" lon="6.71032">
        <ele>432.4</ele>
        <time>2014-10-12T08:21:06.000Z</time>
      </trkpt>
      <trkpt lat="47.45197" lon="6.71026">
        <ele>431.5</ele>
        <time>2014-10-12T08:21:08.000Z</time>
      </trkpt>
      <trkpt lat="47.45195" lon="6.71024">
        <ele>430.8</ele>
        <time>2014-10-12T08:21:09.000Z</time>
      </trkpt>
      <trkpt lat="47.45194" lon="6.71021">
        <ele>429</ele>
        <time>2014-10-12T08:21:10.000Z</time>
      </trkpt>
      <trkpt lat="47.45192" lon="6.71017">
        <ele>428.2</ele>
        <time>2014-10-12T08:21:11.000Z</time>
      </trkpt>
      <trkpt lat="47.45191" lon="6.71013">
        <ele>427.7</ele>
        <time>2014-10-12T08:21:12.000Z</time>
      </trkpt>
      <trkpt lat="47.45189" lon="6.71009">
        <ele>424.5</ele>
        <time>2014-10-12T08:21:13.000Z</time>
      </trkpt>
      <trkpt lat="47.45188" lon="6.71004">
        <ele>424.7</ele>
        <time>2014-10-12T08:21:14.000Z</time>
      </trkpt>
      <trkpt lat="47.45186" lon="6.70999">
        <ele>424.6</ele>
        <time>2014-10-12T08:21:15.000Z</time>
      </trkpt>
      <trkpt lat="47.45184" lon="6.70995">
        <ele>425.7</ele>
        <time>2014-10-12T08:21:16.000Z</time>
      </trkpt>
      <trkpt lat="47.45183" lon="6.7099">
        <ele>425</ele>
        <time>2014-10-12T08:21:17.000Z</time>
      </trkpt>
      <trkpt lat="47.45181" lon="6.70985">
        <ele>421.6</ele>
        <time>2014-10-12T08:21:18.000Z</time>
      </trkpt>
      <trkpt lat="47.45179" lon="6.70981">
        <ele>419.2</ele>
        <time>2014-10-12T08:21:19.000Z</time>
      </trkpt>
      <trkpt lat="47.45176" lon="6.70975">
        <ele>419.4</ele>
        <time>2014-10-12T08:21:20.000Z</time>
      </trkpt>
      <trkpt lat="47.45174" lon="6.7097">
        <ele>420.4</ele>
        <time>2014-10-12T08:21:21.000Z</time>
      </trkpt>
      <trkpt lat="47.45172" lon="6.70965">
        <ele>419.1</ele>
        <time>2014-10-12T08:21:22.000Z</time>
      </trkpt>
      <trkpt lat="47.4517" lon="6.7096">
        <ele>419.3</ele>
        <time>2014-10-12T08:21:23.000Z</time>
      </trkpt>
      <trkpt lat="47.45168" lon="6.70955">
        <ele>422.4</ele>
        <time>2014-10-12T08:21:24.000Z</time>
      </trkpt>
      <trkpt lat="47.45166" lon="6.7095">
        <ele>425</ele>
        <time>2014-10-12T08:21:25.000Z</time>
      </trkpt>
      <trkpt lat="47.45164" lon="6.70946">
        <ele>427.1</ele>
        <time>2014-10-12T08:21:26.000Z</time>
      </trkpt>
      <trkpt lat="47.45161" lon="6.70941">
        <ele>426.7</ele>
        <time>2014-10-12T08:21:27.000Z</time>
      </trkpt>
      <trkpt lat="47.45159" lon="6.70936">
        <ele>428.8</ele>
        <time>2014-10-12T08:21:28.000Z</time>
      </trkpt>
      <trkpt lat="47.45158" lon="6.70931">
        <ele>430.8</ele>
        <time>2014-10-12T08:21:29.000Z</time>
      </trkpt>
      <trkpt lat="47.45156" lon="6.70926">
        <ele>430.7</ele>
        <time>2014-10-12T08:21:30.000Z</time>
      </trkpt>
      <trkpt lat="47.45154" lon="6.70921">
        <ele>430.1</ele>
        <time>2014-10-12T08:21:31.000Z</time>
      </trkpt>
      <trkpt lat="47.45152" lon="6.70915">
        <ele>429.3</ele>
        <time>2014-10-12T08:21:32.000Z</time>
      </trkpt>
      <trkpt lat="47.4515" lon="6.7091">
        <ele>429.5</ele>
        <time>2014-10-12T08:21:33.000Z</time>
      </trkpt>
      <trkpt lat="47.45149" lon="6.70905">
        <ele>429.5</ele>
        <time>2014-10-12T08:21:34.000Z</time>
      </trkpt>
      <trkpt lat="47.45147" lon="6.70901">
        <ele>429.6</ele>
        <time>2014-10-12T08:21:35.000Z</time>
      </trkpt>
      <trkpt lat="47.45145" lon="6.70897">
        <ele>429.6</ele>
        <time>2014-10-12T08:21:36.000Z</time>
      </trkpt>
      <trkpt lat="47.45143" lon="6.70892">
        <ele>431.6</ele>
        <time>2014-10-12T08:21:37.000Z</time>
      </trkpt>
      <trkpt lat="47.45141" lon="6.70887">
        <ele>432.3</ele>
        <time>2014-10-12T08:21:38.000Z</time>
      </trkpt>
      <trkpt lat="47.45139" lon="6.70881">
        <ele>432.8</ele>
        <time>2014-10-12T08:21:39.000Z</time>
      </trkpt>
      <trkpt lat="47.45136" lon="6.70875">
        <ele>433.2</ele>
        <time>2014-10-12T08:21:40.000Z</time>
      </trkpt>
      <trkpt lat="47.45134" lon="6.70868">
        <ele>432.1</ele>
        <time>2014-10-12T08:21:41.000Z</time>
      </trkpt>
      <trkpt lat="47.45132" lon="6.70861">
        <ele>430.8</ele>
        <time>2014-10-12T08:21:42.000Z</time>
      </trkpt>
      <trkpt lat="47.45131" lon="6.70855">
        <ele>431.2</ele>
        <time>2014-10-12T08:21:43.000Z</time>
      </trkpt>
      <trkpt lat="47.45129" lon="6.70848">
        <ele>431.5</ele>
        <time>2014-10-12T08:21:44.000Z</time>
      </trkpt>
      <trkpt lat="47.45127" lon="6.70841">
        <ele>431.6</ele>
        <time>2014-10-12T08:21:45.000Z</time>
      </trkpt>
      <trkpt lat="47.45125" lon="6.70834">
        <ele>431.7</ele>
        <time>2014-10-12T08:21:46.000Z</time>
      </trkpt>
      <trkpt lat="47.45123" lon="6.70827">
        <ele>431.5</ele>
        <time>2014-10-12T08:21:47.000Z</time>
      </trkpt>
      <trkpt lat="47.45112" lon="6.708">
        <ele>430</ele>
        <time>2014-10-12T08:21:50.000Z</time>
      </trkpt>
      <trkpt lat="47.4511" lon="6.70791">
        <ele>429.4</ele>
        <time>2014-10-12T08:21:51.000Z</time>
      </trkpt>
      <trkpt lat="47.45107" lon="6.70785">
        <ele>427.9</ele>
        <time>2014-10-12T08:21:52.000Z</time>
      </trkpt>
      <trkpt lat="47.45104" lon="6.70779">
        <ele>427.5</ele>
        <time>2014-10-12T08:21:53.000Z</time>
      </trkpt>
      <trkpt lat="47.45102" lon="6.7077">
        <ele>426.5</ele>
        <time>2014-10-12T08:21:54.000Z</time>
      </trkpt>
      <trkpt lat="47.45098" lon="6.70762">
        <ele>427</ele>
        <time>2014-10-12T08:21:55.000Z</time>
      </trkpt>
      <trkpt lat="47.45095" lon="6.70753">
        <ele>426.9</ele>
        <time>2014-10-12T08:21:56.000Z</time>
      </trkpt>
      <trkpt lat="47.45091" lon="6.70744">
        <ele>427.1</ele>
        <time>2014-10-12T08:21:57.000Z</time>
      </trkpt>
      <trkpt lat="47.45088" lon="6.70733">
        <ele>427.4</ele>
        <time>2014-10-12T08:21:58.000Z</time>
      </trkpt>
      <trkpt lat="47.45086" lon="6.70722">
        <ele>427.6</ele>
        <time>2014-10-12T08:21:59.000Z</time>
      </trkpt>
      <trkpt lat="47.45084" lon="6.70713">
        <ele>427.9</ele>
        <time>2014-10-12T08:22:00.000Z</time>
      </trkpt>
      <trkpt lat="47.45083" lon="6.70706">
        <ele>428.2</ele>
        <time>2014-10-12T08:22:01.000Z</time>
      </trkpt>
      <trkpt lat="47.45082" lon="6.707">
        <ele>428.5</ele>
        <time>2014-10-12T08:22:07.000Z</time>
      </trkpt>
      <trkpt lat="47.45082" lon="6.70697">
        <ele>429.1</ele>
        <time>2014-10-12T08:22:08.000Z</time>
      </trkpt>
      <trkpt lat="47.45079" lon="6.70693">
        <ele>429</ele>
        <time>2014-10-12T08:22:09.000Z</time>
      </trkpt>
      <trkpt lat="47.45079" lon="6.70691">
        <ele>429</ele>
        <time>2014-10-12T08:22:10.000Z</time>
      </trkpt>
      <trkpt lat="47.45075" lon="6.70687">
        <ele>425.9</ele>
        <time>2014-10-12T08:22:12.000Z</time>
      </trkpt>
      <trkpt lat="47.45073" lon="6.70685">
        <ele>425.3</ele>
        <time>2014-10-12T08:22:13.000Z</time>
      </trkpt>
      <trkpt lat="47.45071" lon="6.70682">
        <ele>425.2</ele>
        <time>2014-10-12T08:22:14.000Z</time>
      </trkpt>
      <trkpt lat="47.4507" lon="6.70679">
        <ele>425.2</ele>
        <time>2014-10-12T08:22:15.000Z</time>
      </trkpt>
      <trkpt lat="47.45068" lon="6.70676">
        <ele>425.3</ele>
        <time>2014-10-12T08:22:16.000Z</time>
      </trkpt>
      <trkpt lat="47.45066" lon="6.70673">
        <ele>425.6</ele>
        <time>2014-10-12T08:22:17.000Z</time>
      </trkpt>
      <trkpt lat="47.45065" lon="6.7067">
        <ele>425.5</ele>
        <time>2014-10-12T08:22:18.000Z</time>
      </trkpt>
      <trkpt lat="47.45063" lon="6.70666">
        <ele>425.4</ele>
        <time>2014-10-12T08:22:19.000Z</time>
      </trkpt>
      <trkpt lat="47.45061" lon="6.70662">
        <ele>425.3</ele>
        <time>2014-10-12T08:22:20.000Z</time>
      </trkpt>
      <trkpt lat="47.4506" lon="6.70659">
        <ele>425.2</ele>
        <time>2014-10-12T08:22:21.000Z</time>
      </trkpt>
      <trkpt lat="47.45057" lon="6.70654">
        <ele>425</ele>
        <time>2014-10-12T08:22:22.000Z</time>
      </trkpt>
      <trkpt lat="47.45056" lon="6.70651">
        <ele>426.6</ele>
        <time>2014-10-12T08:22:23.000Z</time>
      </trkpt>
      <trkpt lat="47.45053" lon="6.70647">
        <ele>418.9</ele>
        <time>2014-10-12T08:22:31.000Z</time>
      </trkpt>
      <trkpt lat="47.45052" lon="6.70647">
        <ele>417.3</ele>
        <time>2014-10-12T08:22:32.000Z</time>
      </trkpt>
      <trkpt lat="47.45048" lon="6.70647">
        <ele>413.9</ele>
        <time>2014-10-12T08:22:35.000Z</time>
      </trkpt>
      <trkpt lat="47.45047" lon="6.70647">
        <ele>415.8</ele>
        <time>2014-10-12T08:22:36.000Z</time>
      </trkpt>
      <trkpt lat="47.45043" lon="6.70646">
        <ele>415.1</ele>
        <time>2014-10-12T08:22:39.000Z</time>
      </trkpt>
      <trkpt lat="47.45042" lon="6.70643">
        <ele>415.6</ele>
        <time>2014-10-12T08:22:40.000Z</time>
      </trkpt>
      <trkpt lat="47.45039" lon="6.7064">
        <ele>415</ele>
        <time>2014-10-12T08:22:47.000Z</time>
      </trkpt>
      <trkpt lat="47.45034" lon="6.70637">
        <ele>409</ele>
        <time>2014-10-12T08:22:55.000Z</time>
      </trkpt>
      <trkpt lat="47.45032" lon="6.70632">
        <ele>400.7</ele>
        <time>2014-10-12T08:23:00.000Z</time>
      </trkpt>
      <trkpt lat="47.45031" lon="6.7063">
        <ele>400.1</ele>
        <time>2014-10-12T08:23:01.000Z</time>
      </trkpt>
      <trkpt lat="47.45029" lon="6.70626">
        <ele>400.2</ele>
        <time>2014-10-12T08:23:03.000Z</time>
      </trkpt>
      <trkpt lat="47.45028" lon="6.70624">
        <ele>399.8</ele>
        <time>2014-10-12T08:23:04.000Z</time>
      </trkpt>
      <trkpt lat="47.45026" lon="6.70619">
        <ele>403.2</ele>
        <time>2014-10-12T08:23:06.000Z</time>
      </trkpt>
      <trkpt lat="47.45025" lon="6.70617">
        <ele>403.7</ele>
        <time>2014-10-12T08:23:07.000Z</time>
      </trkpt>
      <trkpt lat="47.45022" lon="6.70614">
        <ele>407</ele>
        <time>2014-10-12T08:23:09.000Z</time>
      </trkpt>
      <trkpt lat="47.4502" lon="6.70613">
        <ele>406.1</ele>
        <time>2014-10-12T08:23:10.000Z</time>
      </trkpt>
      <trkpt lat="47.45017" lon="6.70612">
        <ele>407.9</ele>
        <time>2014-10-12T08:23:12.000Z</time>
      </trkpt>
      <trkpt lat="47.45015" lon="6.70611">
        <ele>408.6</ele>
        <time>2014-10-12T08:23:13.000Z</time>
      </trkpt>
      <trkpt lat="47.45011" lon="6.70611">
        <ele>408.9</ele>
        <time>2014-10-12T08:23:15.000Z</time>
      </trkpt>
      <trkpt lat="47.45009" lon="6.70612">
        <ele>408.2</ele>
        <time>2014-10-12T08:23:16.000Z</time>
      </trkpt>
      <trkpt lat="47.45007" lon="6.70614">
        <ele>405.1</ele>
        <time>2014-10-12T08:23:17.000Z</time>
      </trkpt>
      <trkpt lat="47.45005" lon="6.70615">
        <ele>401.7</ele>
        <time>2014-10-12T08:23:18.000Z</time>
      </trkpt>
      <trkpt lat="47.45002" lon="6.70617">
        <ele>401.7</ele>
        <time>2014-10-12T08:23:19.000Z</time>
      </trkpt>
      <trkpt lat="47.45" lon="6.70619">
        <ele>402</ele>
        <time>2014-10-12T08:23:20.000Z</time>
      </trkpt>
      <trkpt lat="47.44997" lon="6.70621">
        <ele>401.9</ele>
        <time>2014-10-12T08:23:21.000Z</time>
      </trkpt>
      <trkpt lat="47.44995" lon="6.70623">
        <ele>398.5</ele>
        <time>2014-10-12T08:23:22.000Z</time>
      </trkpt>
      <trkpt lat="47.44991" lon="6.70624">
        <ele>399.5</ele>
        <time>2014-10-12T08:23:24.000Z</time>
      </trkpt>
      <trkpt lat="47.44989" lon="6.70626">
        <ele>400.8</ele>
        <time>2014-10-12T08:23:25.000Z</time>
      </trkpt>
      <trkpt lat="47.44987" lon="6.70628">
        <ele>402.8</ele>
        <time>2014-10-12T08:23:26.000Z</time>
      </trkpt>
      <trkpt lat="47.44985" lon="6.7063">
        <ele>404.7</ele>
        <time>2014-10-12T08:23:27.000Z</time>
      </trkpt>
      <trkpt lat="47.44981" lon="6.70634">
        <ele>403.1</ele>
        <time>2014-10-12T08:23:29.000Z</time>
      </trkpt>
      <trkpt lat="47.44979" lon="6.70636">
        <ele>403.7</ele>
        <time>2014-10-12T08:23:30.000Z</time>
      </trkpt>
      <trkpt lat="47.44977" lon="6.7064">
        <ele>404.4</ele>
        <time>2014-10-12T08:23:32.000Z</time>
      </trkpt>
      <trkpt lat="47.44975" lon="6.70641">
        <ele>404.7</ele>
        <time>2014-10-12T08:23:33.000Z</time>
      </trkpt>
      <trkpt lat="47.44971" lon="6.70644">
        <ele>409.3</ele>
        <time>2014-10-12T08:23:35.000Z</time>
      </trkpt>
      <trkpt lat="47.44969" lon="6.70646">
        <ele>410.8</ele>
        <time>2014-10-12T08:23:36.000Z</time>
      </trkpt>
      <trkpt lat="47.44965" lon="6.70648">
        <ele>409.6</ele>
        <time>2014-10-12T08:23:38.000Z</time>
      </trkpt>
      <trkpt lat="47.44963" lon="6.7065">
        <ele>409.3</ele>
        <time>2014-10-12T08:23:39.000Z</time>
      </trkpt>
      <trkpt lat="47.44961" lon="6.70652">
        <ele>406.8</ele>
        <time>2014-10-12T08:23:40.000Z</time>
      </trkpt>
      <trkpt lat="47.44959" lon="6.70654">
        <ele>404.9</ele>
        <time>2014-10-12T08:23:41.000Z</time>
      </trkpt>
      <trkpt lat="47.44957" lon="6.70657">
        <ele>402.3</ele>
        <time>2014-10-12T08:23:42.000Z</time>
      </trkpt>
      <trkpt lat="47.44955" lon="6.70659">
        <ele>399.6</ele>
        <time>2014-10-12T08:23:43.000Z</time>
      </trkpt>
      <trkpt lat="47.44954" lon="6.70661">
        <ele>398</ele>
        <time>2014-10-12T08:23:44.000Z</time>
      </trkpt>
      <trkpt lat="47.44952" lon="6.70664">
        <ele>398.9</ele>
        <time>2014-10-12T08:23:45.000Z</time>
      </trkpt>
      <trkpt lat="47.4495" lon="6.70666">
        <ele>398.1</ele>
        <time>2014-10-12T08:23:46.000Z</time>
      </trkpt>
      <trkpt lat="47.44948" lon="6.70668">
        <ele>397.6</ele>
        <time>2014-10-12T08:23:47.000Z</time>
      </trkpt>
      <trkpt lat="47.44945" lon="6.70672">
        <ele>396.1</ele>
        <time>2014-10-12T08:23:50.000Z</time>
      </trkpt>
      <trkpt lat="47.44943" lon="6.70674">
        <ele>394.3</ele>
        <time>2014-10-12T08:23:51.000Z</time>
      </trkpt>
      <trkpt lat="47.4494" lon="6.70678">
        <ele>393.3</ele>
        <time>2014-10-12T08:23:54.000Z</time>
      </trkpt>
      <trkpt lat="47.44939" lon="6.70679">
        <ele>393.7</ele>
        <time>2014-10-12T08:23:55.000Z</time>
      </trkpt>
      <trkpt lat="47.44936" lon="6.70682">
        <ele>394.3</ele>
        <time>2014-10-12T08:23:57.000Z</time>
      </trkpt>
      <trkpt lat="47.44934" lon="6.70685">
        <ele>394.3</ele>
        <time>2014-10-12T08:23:58.000Z</time>
      </trkpt>
      <trkpt lat="47.44931" lon="6.70689">
        <ele>396.7</ele>
        <time>2014-10-12T08:24:00.000Z</time>
      </trkpt>
      <trkpt lat="47.4493" lon="6.70692">
        <ele>397.6</ele>
        <time>2014-10-12T08:24:01.000Z</time>
      </trkpt>
      <trkpt lat="47.44928" lon="6.70695">
        <ele>396.8</ele>
        <time>2014-10-12T08:24:02.000Z</time>
      </trkpt>
      <trkpt lat="47.44926" lon="6.70699">
        <ele>396.9</ele>
        <time>2014-10-12T08:24:03.000Z</time>
      </trkpt>
      <trkpt lat="47.44925" lon="6.70702">
        <ele>393.8</ele>
        <time>2014-10-12T08:24:04.000Z</time>
      </trkpt>
      <trkpt lat="47.44924" lon="6.70706">
        <ele>396.2</ele>
        <time>2014-10-12T08:24:05.000Z</time>
      </trkpt>
      <trkpt lat="47.44924" lon="6.70709">
        <ele>396.7</ele>
        <time>2014-10-12T08:24:06.000Z</time>
      </trkpt>
      <trkpt lat="47.44923" lon="6.70712">
        <ele>396.4</ele>
        <time>2014-10-12T08:24:07.000Z</time>
      </trkpt>
      <trkpt lat="47.44923" lon="6.70717">
        <ele>395.2</ele>
        <time>2014-10-12T08:24:09.000Z</time>
      </trkpt>
      <trkpt lat="47.44922" lon="6.70719">
        <ele>395.8</ele>
        <time>2014-10-12T08:24:10.000Z</time>
      </trkpt>
      <trkpt lat="47.44921" lon="6.70724">
        <ele>396.7</ele>
        <time>2014-10-12T08:24:12.000Z</time>
      </trkpt>
      <trkpt lat="47.44921" lon="6.70726">
        <ele>397.2</ele>
        <time>2014-10-12T08:24:13.000Z</time>
      </trkpt>
      <trkpt lat="47.44919" lon="6.70732">
        <ele>404</ele>
        <time>2014-10-12T08:24:15.000Z</time>
      </trkpt>
      <trkpt lat="47.44918" lon="6.70734">
        <ele>406</ele>
        <time>2014-10-12T08:24:16.000Z</time>
      </trkpt>
      <trkpt lat="47.44916" lon="6.70738">
        <ele>406.4</ele>
        <time>2014-10-12T08:24:17.000Z</time>
      </trkpt>
      <trkpt lat="47.44915" lon="6.70741">
        <ele>405.1</ele>
        <time>2014-10-12T08:24:18.000Z</time>
      </trkpt>
      <trkpt lat="47.44913" lon="6.70745">
        <ele>405</ele>
        <time>2014-10-12T08:24:19.000Z</time>
      </trkpt>
      <trkpt lat="47.44911" lon="6.70749">
        <ele>404.4</ele>
        <time>2014-10-12T08:24:20.000Z</time>
      </trkpt>
      <trkpt lat="47.44909" lon="6.70753">
        <ele>403.4</ele>
        <time>2014-10-12T08:24:21.000Z</time>
      </trkpt>
      <trkpt lat="47.44906" lon="6.70757">
        <ele>404.1</ele>
        <time>2014-10-12T08:24:22.000Z</time>
      </trkpt>
      <trkpt lat="47.44904" lon="6.70761">
        <ele>403.3</ele>
        <time>2014-10-12T08:24:23.000Z</time>
      </trkpt>
      <trkpt lat="47.44902" lon="6.70765">
        <ele>402.3</ele>
        <time>2014-10-12T08:24:24.000Z</time>
      </trkpt>
      <trkpt lat="47.449" lon="6.70769">
        <ele>401.8</ele>
        <time>2014-10-12T08:24:25.000Z</time>
      </trkpt>
      <trkpt lat="47.44898" lon="6.70774">
        <ele>402.2</ele>
        <time>2014-10-12T08:24:26.000Z</time>
      </trkpt>
      <trkpt lat="47.44896" lon="6.70779">
        <ele>402.5</ele>
        <time>2014-10-12T08:24:27.000Z</time>
      </trkpt>
      <trkpt lat="47.44894" lon="6.70783">
        <ele>402.8</ele>
        <time>2014-10-12T08:24:28.000Z</time>
      </trkpt>
      <trkpt lat="47.44892" lon="6.70788">
        <ele>403.6</ele>
        <time>2014-10-12T08:24:29.000Z</time>
      </trkpt>
      <trkpt lat="47.4489" lon="6.70792">
        <ele>405.4</ele>
        <time>2014-10-12T08:24:30.000Z</time>
      </trkpt>
      <trkpt lat="47.44888" lon="6.70795">
        <ele>406.8</ele>
        <time>2014-10-12T08:24:31.000Z</time>
      </trkpt>
      <trkpt lat="47.44886" lon="6.70799">
        <ele>407.4</ele>
        <time>2014-10-12T08:24:32.000Z</time>
      </trkpt>
      <trkpt lat="47.44884" lon="6.70802">
        <ele>407</ele>
        <time>2014-10-12T08:24:33.000Z</time>
      </trkpt>
      <trkpt lat="47.44881" lon="6.70804">
        <ele>406.8</ele>
        <time>2014-10-12T08:24:34.000Z</time>
      </trkpt>
      <trkpt lat="47.44879" lon="6.70806">
        <ele>407.2</ele>
        <time>2014-10-12T08:24:35.000Z</time>
      </trkpt>
      <trkpt lat="47.44877" lon="6.70808">
        <ele>407.4</ele>
        <time>2014-10-12T08:24:36.000Z</time>
      </trkpt>
      <trkpt lat="47.44874" lon="6.7081">
        <ele>406.7</ele>
        <time>2014-10-12T08:24:37.000Z</time>
      </trkpt>
      <trkpt lat="47.44872" lon="6.70811">
        <ele>406.2</ele>
        <time>2014-10-12T08:24:38.000Z</time>
      </trkpt>
      <trkpt lat="47.4487" lon="6.70814">
        <ele>407.7</ele>
        <time>2014-10-12T08:24:39.000Z</time>
      </trkpt>
      <trkpt lat="47.44868" lon="6.70816">
        <ele>411.9</ele>
        <time>2014-10-12T08:24:40.000Z</time>
      </trkpt>
      <trkpt lat="47.44866" lon="6.70818">
        <ele>412.4</ele>
        <time>2014-10-12T08:24:41.000Z</time>
      </trkpt>
      <trkpt lat="47.44864" lon="6.7082">
        <ele>412.5</ele>
        <time>2014-10-12T08:24:42.000Z</time>
      </trkpt>
      <trkpt lat="47.44861" lon="6.70823">
        <ele>412.8</ele>
        <time>2014-10-12T08:24:43.000Z</time>
      </trkpt>
      <trkpt lat="47.44859" lon="6.70825">
        <ele>411.7</ele>
        <time>2014-10-12T08:24:44.000Z</time>
      </trkpt>
      <trkpt lat="47.44857" lon="6.70828">
        <ele>412</ele>
        <time>2014-10-12T08:24:45.000Z</time>
      </trkpt>
      <trkpt lat="47.44855" lon="6.7083">
        <ele>412</ele>
        <time>2014-10-12T08:24:46.000Z</time>
      </trkpt>
      <trkpt lat="47.44853" lon="6.70832">
        <ele>411.6</ele>
        <time>2014-10-12T08:24:47.000Z</time>
      </trkpt>
      <trkpt lat="47.44849" lon="6.70836">
        <ele>411.3</ele>
        <time>2014-10-12T08:24:50.000Z</time>
      </trkpt>
      <trkpt lat="47.44846" lon="6.70838">
        <ele>410.5</ele>
        <time>2014-10-12T08:24:52.000Z</time>
      </trkpt>
      <trkpt lat="47.44845" lon="6.70839">
        <ele>410.8</ele>
        <time>2014-10-12T08:24:53.000Z</time>
      </trkpt>
      <trkpt lat="47.44842" lon="6.70842">
        <ele>411.7</ele>
        <time>2014-10-12T08:24:55.000Z</time>
      </trkpt>
      <trkpt lat="47.44841" lon="6.70843">
        <ele>412.8</ele>
        <time>2014-10-12T08:24:56.000Z</time>
      </trkpt>
      <trkpt lat="47.44838" lon="6.70846">
        <ele>415.4</ele>
        <time>2014-10-12T08:24:58.000Z</time>
      </trkpt>
      <trkpt lat="47.44837" lon="6.70848">
        <ele>415.5</ele>
        <time>2014-10-12T08:24:59.000Z</time>
      </trkpt>
      <trkpt lat="47.44833" lon="6.70849">
        <ele>416.1</ele>
        <time>2014-10-12T08:25:02.000Z</time>
      </trkpt>
      <trkpt lat="47.44832" lon="6.70849">
        <ele>417</ele>
        <time>2014-10-12T08:25:03.000Z</time>
      </trkpt>
      <trkpt lat="47.4483" lon="6.70851">
        <ele>418.7</ele>
        <time>2014-10-12T08:25:04.000Z</time>
      </trkpt>
      <trkpt lat="47.44828" lon="6.70853">
        <ele>419.4</ele>
        <time>2014-10-12T08:25:05.000Z</time>
      </trkpt>
      <trkpt lat="47.44826" lon="6.70855">
        <ele>420.1</ele>
        <time>2014-10-12T08:25:06.000Z</time>
      </trkpt>
      <trkpt lat="47.44824" lon="6.70857">
        <ele>420.4</ele>
        <time>2014-10-12T08:25:07.000Z</time>
      </trkpt>
      <trkpt lat="47.44821" lon="6.70859">
        <ele>420.8</ele>
        <time>2014-10-12T08:25:08.000Z</time>
      </trkpt>
      <trkpt lat="47.44819" lon="6.70861">
        <ele>421.2</ele>
        <time>2014-10-12T08:25:09.000Z</time>
      </trkpt>
      <trkpt lat="47.44817" lon="6.70864">
        <ele>421.7</ele>
        <time>2014-10-12T08:25:10.000Z</time>
      </trkpt>
      <trkpt lat="47.44815" lon="6.70866">
        <ele>422.2</ele>
        <time>2014-10-12T08:25:11.000Z</time>
      </trkpt>
      <trkpt lat="47.44813" lon="6.70868">
        <ele>424.5</ele>
        <time>2014-10-12T08:25:12.000Z</time>
      </trkpt>
      <trkpt lat="47.44811" lon="6.70871">
        <ele>424.1</ele>
        <time>2014-10-12T08:25:13.000Z</time>
      </trkpt>
      <trkpt lat="47.44808" lon="6.70873">
        <ele>424.4</ele>
        <time>2014-10-12T08:25:14.000Z</time>
      </trkpt>
      <trkpt lat="47.44805" lon="6.70876">
        <ele>424.7</ele>
        <time>2014-10-12T08:25:15.000Z</time>
      </trkpt>
      <trkpt lat="47.44802" lon="6.70879">
        <ele>427.4</ele>
        <time>2014-10-12T08:25:16.000Z</time>
      </trkpt>
      <trkpt lat="47.448" lon="6.70883">
        <ele>428.9</ele>
        <time>2014-10-12T08:25:17.000Z</time>
      </trkpt>
      <trkpt lat="47.44798" lon="6.70886">
        <ele>430.2</ele>
        <time>2014-10-12T08:25:18.000Z</time>
      </trkpt>
      <trkpt lat="47.44796" lon="6.70889">
        <ele>431.3</ele>
        <time>2014-10-12T08:25:19.000Z</time>
      </trkpt>
      <trkpt lat="47.44793" lon="6.70892">
        <ele>433.3</ele>
        <time>2014-10-12T08:25:21.000Z</time>
      </trkpt>
      <trkpt lat="47.44791" lon="6.70894">
        <ele>431.9</ele>
        <time>2014-10-12T08:25:22.000Z</time>
      </trkpt>
      <trkpt lat="47.44787" lon="6.70896">
        <ele>431.6</ele>
        <time>2014-10-12T08:25:24.000Z</time>
      </trkpt>
      <trkpt lat="47.44785" lon="6.70897">
        <ele>433.2</ele>
        <time>2014-10-12T08:25:25.000Z</time>
      </trkpt>
      <trkpt lat="47.44782" lon="6.70898">
        <ele>433.4</ele>
        <time>2014-10-12T08:25:27.000Z</time>
      </trkpt>
      <trkpt lat="47.44781" lon="6.70899">
        <ele>432.1</ele>
        <time>2014-10-12T08:25:28.000Z</time>
      </trkpt>
      <trkpt lat="47.44777" lon="6.70901">
        <ele>432</ele>
        <time>2014-10-12T08:25:30.000Z</time>
      </trkpt>
      <trkpt lat="47.44776" lon="6.70901">
        <ele>432.5</ele>
        <time>2014-10-12T08:25:31.000Z</time>
      </trkpt>
      <trkpt lat="47.44774" lon="6.70903">
        <ele>432.6</ele>
        <time>2014-10-12T08:25:32.000Z</time>
      </trkpt>
      <trkpt lat="47.44772" lon="6.70905">
        <ele>432.1</ele>
        <time>2014-10-12T08:25:33.000Z</time>
      </trkpt>
      <trkpt lat="47.44769" lon="6.70908">
        <ele>432.2</ele>
        <time>2014-10-12T08:25:34.000Z</time>
      </trkpt>
      <trkpt lat="47.44767" lon="6.7091">
        <ele>433.2</ele>
        <time>2014-10-12T08:25:35.000Z</time>
      </trkpt>
      <trkpt lat="47.44765" lon="6.70912">
        <ele>433.7</ele>
        <time>2014-10-12T08:25:36.000Z</time>
      </trkpt>
      <trkpt lat="47.44763" lon="6.70915">
        <ele>433.6</ele>
        <time>2014-10-12T08:25:37.000Z</time>
      </trkpt>
      <trkpt lat="47.44759" lon="6.70919">
        <ele>432</ele>
        <time>2014-10-12T08:25:39.000Z</time>
      </trkpt>
      <trkpt lat="47.44758" lon="6.7092">
        <ele>431.6</ele>
        <time>2014-10-12T08:25:40.000Z</time>
      </trkpt>
      <trkpt lat="47.44755" lon="6.70922">
        <ele>431.5</ele>
        <time>2014-10-12T08:25:42.000Z</time>
      </trkpt>
      <trkpt lat="47.44753" lon="6.70923">
        <ele>431.6</ele>
        <time>2014-10-12T08:25:43.000Z</time>
      </trkpt>
      <trkpt lat="47.44749" lon="6.70925">
        <ele>431.4</ele>
        <time>2014-10-12T08:25:45.000Z</time>
      </trkpt>
      <trkpt lat="47.44748" lon="6.70927">
        <ele>431.9</ele>
        <time>2014-10-12T08:25:46.000Z</time>
      </trkpt>
      <trkpt lat="47.44745" lon="6.70928">
        <ele>432.4</ele>
        <time>2014-10-12T08:25:47.000Z</time>
      </trkpt>
      <trkpt lat="47.44732" lon="6.70941">
        <ele>433.1</ele>
        <time>2014-10-12T08:25:55.000Z</time>
      </trkpt>
      <trkpt lat="47.44728" lon="6.70943">
        <ele>430.9</ele>
        <time>2014-10-12T08:25:58.000Z</time>
      </trkpt>
      <trkpt lat="47.44727" lon="6.70944">
        <ele>429.7</ele>
        <time>2014-10-12T08:25:59.000Z</time>
      </trkpt>
      <trkpt lat="47.44723" lon="6.70948">
        <ele>428.8</ele>
        <time>2014-10-12T08:26:01.000Z</time>
      </trkpt>
      <trkpt lat="47.44721" lon="6.7095">
        <ele>427.7</ele>
        <time>2014-10-12T08:26:02.000Z</time>
      </trkpt>
      <trkpt lat="47.44719" lon="6.70953">
        <ele>428.6</ele>
        <time>2014-10-12T08:26:03.000Z</time>
      </trkpt>
      <trkpt lat="47.44716" lon="6.70955">
        <ele>428.6</ele>
        <time>2014-10-12T08:26:04.000Z</time>
      </trkpt>
      <trkpt lat="47.44714" lon="6.70958">
        <ele>430.4</ele>
        <time>2014-10-12T08:26:05.000Z</time>
      </trkpt>
      <trkpt lat="47.44712" lon="6.7096">
        <ele>430.4</ele>
        <time>2014-10-12T08:26:06.000Z</time>
      </trkpt>
      <trkpt lat="47.44709" lon="6.70963">
        <ele>431.5</ele>
        <time>2014-10-12T08:26:07.000Z</time>
      </trkpt>
      <trkpt lat="47.44707" lon="6.70966">
        <ele>432.7</ele>
        <time>2014-10-12T08:26:08.000Z</time>
      </trkpt>
      <trkpt lat="47.44705" lon="6.70969">
        <ele>433.3</ele>
        <time>2014-10-12T08:26:09.000Z</time>
      </trkpt>
      <trkpt lat="47.44703" lon="6.7097">
        <ele>432.5</ele>
        <time>2014-10-12T08:26:10.000Z</time>
      </trkpt>
      <trkpt lat="47.44701" lon="6.70972">
        <ele>434.1</ele>
        <time>2014-10-12T08:26:11.000Z</time>
      </trkpt>
      <trkpt lat="47.44698" lon="6.70972">
        <ele>436.1</ele>
        <time>2014-10-12T08:26:12.000Z</time>
      </trkpt>
      <trkpt lat="47.44696" lon="6.70973">
        <ele>437.1</ele>
        <time>2014-10-12T08:26:13.000Z</time>
      </trkpt>
      <trkpt lat="47.44694" lon="6.70974">
        <ele>438.2</ele>
        <time>2014-10-12T08:26:14.000Z</time>
      </trkpt>
      <trkpt lat="47.44691" lon="6.70976">
        <ele>438.8</ele>
        <time>2014-10-12T08:26:15.000Z</time>
      </trkpt>
      <trkpt lat="47.44689" lon="6.70977">
        <ele>439.3</ele>
        <time>2014-10-12T08:26:16.000Z</time>
      </trkpt>
      <trkpt lat="47.44686" lon="6.70979">
        <ele>436</ele>
        <time>2014-10-12T08:26:17.000Z</time>
      </trkpt>
      <trkpt lat="47.44683" lon="6.70981">
        <ele>434.8</ele>
        <time>2014-10-12T08:26:18.000Z</time>
      </trkpt>
      <trkpt lat="47.44679" lon="6.70983">
        <ele>435.7</ele>
        <time>2014-10-12T08:26:19.000Z</time>
      </trkpt>
      <trkpt lat="47.44676" lon="6.70985">
        <ele>436.2</ele>
        <time>2014-10-12T08:26:20.000Z</time>
      </trkpt>
      <trkpt lat="47.4467" lon="6.70989">
        <ele>435.1</ele>
        <time>2014-10-12T08:26:21.000Z</time>
      </trkpt>
      <trkpt lat="47.44667" lon="6.70991">
        <ele>434.9</ele>
        <time>2014-10-12T08:26:22.000Z</time>
      </trkpt>
      <trkpt lat="47.44664" lon="6.70992">
        <ele>435.8</ele>
        <time>2014-10-12T08:26:23.000Z</time>
      </trkpt>
      <trkpt lat="47.44662" lon="6.70993">
        <ele>435.8</ele>
        <time>2014-10-12T08:26:24.000Z</time>
      </trkpt>
      <trkpt lat="47.4466" lon="6.70995">
        <ele>436.5</ele>
        <time>2014-10-12T08:26:25.000Z</time>
      </trkpt>
      <trkpt lat="47.44657" lon="6.70995">
        <ele>434.3</ele>
        <time>2014-10-12T08:26:27.000Z</time>
      </trkpt>
      <trkpt lat="47.44655" lon="6.70995">
        <ele>433</ele>
        <time>2014-10-12T08:26:28.000Z</time>
      </trkpt>
      <trkpt lat="47.44653" lon="6.70996">
        <ele>434.3</ele>
        <time>2014-10-12T08:26:29.000Z</time>
      </trkpt>
      <trkpt lat="47.4465" lon="6.70997">
        <ele>435</ele>
        <time>2014-10-12T08:26:30.000Z</time>
      </trkpt>
      <trkpt lat="47.44647" lon="6.70998">
        <ele>434.7</ele>
        <time>2014-10-12T08:26:31.000Z</time>
      </trkpt>
      <trkpt lat="47.44645" lon="6.71">
        <ele>434.8</ele>
        <time>2014-10-12T08:26:32.000Z</time>
      </trkpt>
      <trkpt lat="47.44642" lon="6.71002">
        <ele>435.3</ele>
        <time>2014-10-12T08:26:33.000Z</time>
      </trkpt>
      <trkpt lat="47.4464" lon="6.71004">
        <ele>435.6</ele>
        <time>2014-10-12T08:26:34.000Z</time>
      </trkpt>
      <trkpt lat="47.44636" lon="6.71005">
        <ele>433.9</ele>
        <time>2014-10-12T08:26:36.000Z</time>
      </trkpt>
      <trkpt lat="47.44635" lon="6.71005">
        <ele>433.8</ele>
        <time>2014-10-12T08:26:37.000Z</time>
      </trkpt>
      <trkpt lat="47.44631" lon="6.71007">
        <ele>434.8</ele>
        <time>2014-10-12T08:26:39.000Z</time>
      </trkpt>
      <trkpt lat="47.44629" lon="6.71009">
        <ele>435.9</ele>
        <time>2014-10-12T08:26:40.000Z</time>
      </trkpt>
      <trkpt lat="47.44626" lon="6.71012">
        <ele>436.8</ele>
        <time>2014-10-12T08:26:41.000Z</time>
      </trkpt>
      <trkpt lat="47.44624" lon="6.71015">
        <ele>436.6</ele>
        <time>2014-10-12T08:26:42.000Z</time>
      </trkpt>
      <trkpt lat="47.44621" lon="6.71018">
        <ele>437.6</ele>
        <time>2014-10-12T08:26:43.000Z</time>
      </trkpt>
      <trkpt lat="47.44618" lon="6.71022">
        <ele>439.3</ele>
        <time>2014-10-12T08:26:44.000Z</time>
      </trkpt>
      <trkpt lat="47.44616" lon="6.71025">
        <ele>440.2</ele>
        <time>2014-10-12T08:26:45.000Z</time>
      </trkpt>
      <trkpt lat="47.44613" lon="6.71028">
        <ele>435.6</ele>
        <time>2014-10-12T08:26:46.000Z</time>
      </trkpt>
      <trkpt lat="47.4461" lon="6.7103">
        <ele>435.7</ele>
        <time>2014-10-12T08:26:47.000Z</time>
      </trkpt>
      <trkpt lat="47.44601" lon="6.71037">
        <ele>431.6</ele>
        <time>2014-10-12T08:26:51.000Z</time>
      </trkpt>
      <trkpt lat="47.44598" lon="6.71041">
        <ele>430.7</ele>
        <time>2014-10-12T08:26:52.000Z</time>
      </trkpt>
      <trkpt lat="47.44595" lon="6.71045">
        <ele>429.3</ele>
        <time>2014-10-12T08:26:53.000Z</time>
      </trkpt>
      <trkpt lat="47.44592" lon="6.71049">
        <ele>430.5</ele>
        <time>2014-10-12T08:26:54.000Z</time>
      </trkpt>
      <trkpt lat="47.4459" lon="6.71053">
        <ele>432.1</ele>
        <time>2014-10-12T08:26:55.000Z</time>
      </trkpt>
      <trkpt lat="47.44587" lon="6.71057">
        <ele>432.9</ele>
        <time>2014-10-12T08:26:56.000Z</time>
      </trkpt>
      <trkpt lat="47.44585" lon="6.71059">
        <ele>428.5</ele>
        <time>2014-10-12T08:26:57.000Z</time>
      </trkpt>
      <trkpt lat="47.44582" lon="6.71062">
        <ele>427</ele>
        <time>2014-10-12T08:26:58.000Z</time>
      </trkpt>
      <trkpt lat="47.44579" lon="6.71064">
        <ele>427.2</ele>
        <time>2014-10-12T08:26:59.000Z</time>
      </trkpt>
      <trkpt lat="47.44576" lon="6.71066">
        <ele>430.3</ele>
        <time>2014-10-12T08:27:00.000Z</time>
      </trkpt>
      <trkpt lat="47.44573" lon="6.71068">
        <ele>430.9</ele>
        <time>2014-10-12T08:27:01.000Z</time>
      </trkpt>
      <trkpt lat="47.44571" lon="6.71071">
        <ele>432.2</ele>
        <time>2014-10-12T08:27:02.000Z</time>
      </trkpt>
      <trkpt lat="47.44568" lon="6.71073">
        <ele>436.4</ele>
        <time>2014-10-12T08:27:03.000Z</time>
      </trkpt>
      <trkpt lat="47.44566" lon="6.71076">
        <ele>438</ele>
        <time>2014-10-12T08:27:04.000Z</time>
      </trkpt>
      <trkpt lat="47.44564" lon="6.71079">
        <ele>440</ele>
        <time>2014-10-12T08:27:05.000Z</time>
      </trkpt>
      <trkpt lat="47.44562" lon="6.71082">
        <ele>440.9</ele>
        <time>2014-10-12T08:27:06.000Z</time>
      </trkpt>
      <trkpt lat="47.44561" lon="6.71085">
        <ele>443</ele>
        <time>2014-10-12T08:27:07.000Z</time>
      </trkpt>
      <trkpt lat="47.44559" lon="6.71088">
        <ele>443.9</ele>
        <time>2014-10-12T08:27:08.000Z</time>
      </trkpt>
      <trkpt lat="47.44558" lon="6.71091">
        <ele>444.5</ele>
        <time>2014-10-12T08:27:09.000Z</time>
      </trkpt>
      <trkpt lat="47.44557" lon="6.71094">
        <ele>446</ele>
        <time>2014-10-12T08:27:10.000Z</time>
      </trkpt>
      <trkpt lat="47.44555" lon="6.71096">
        <ele>446.7</ele>
        <time>2014-10-12T08:27:11.000Z</time>
      </trkpt>
      <trkpt lat="47.44553" lon="6.71098">
        <ele>447.2</ele>
        <time>2014-10-12T08:27:12.000Z</time>
      </trkpt>
      <trkpt lat="47.4455" lon="6.71101">
        <ele>447.7</ele>
        <time>2014-10-12T08:27:13.000Z</time>
      </trkpt>
      <trkpt lat="47.44548" lon="6.71103">
        <ele>448.9</ele>
        <time>2014-10-12T08:27:14.000Z</time>
      </trkpt>
      <trkpt lat="47.44545" lon="6.71106">
        <ele>450.2</ele>
        <time>2014-10-12T08:27:15.000Z</time>
      </trkpt>
      <trkpt lat="47.44543" lon="6.71109">
        <ele>451.9</ele>
        <time>2014-10-12T08:27:16.000Z</time>
      </trkpt>
      <trkpt lat="47.44541" lon="6.71112">
        <ele>452.7</ele>
        <time>2014-10-12T08:27:17.000Z</time>
      </trkpt>
      <trkpt lat="47.44538" lon="6.71115">
        <ele>453.9</ele>
        <time>2014-10-12T08:27:18.000Z</time>
      </trkpt>
      <trkpt lat="47.44535" lon="6.71118">
        <ele>454.3</ele>
        <time>2014-10-12T08:27:19.000Z</time>
      </trkpt>
      <trkpt lat="47.44533" lon="6.7112">
        <ele>454.3</ele>
        <time>2014-10-12T08:27:20.000Z</time>
      </trkpt>
      <trkpt lat="47.44531" lon="6.71123">
        <ele>454.7</ele>
        <time>2014-10-12T08:27:21.000Z</time>
      </trkpt>
      <trkpt lat="47.44528" lon="6.71126">
        <ele>454.6</ele>
        <time>2014-10-12T08:27:22.000Z</time>
      </trkpt>
      <trkpt lat="47.44525" lon="6.71129">
        <ele>452.6</ele>
        <time>2014-10-12T08:27:23.000Z</time>
      </trkpt>
      <trkpt lat="47.44522" lon="6.71133">
        <ele>452.2</ele>
        <time>2014-10-12T08:27:24.000Z</time>
      </trkpt>
      <trkpt lat="47.44518" lon="6.71136">
        <ele>451.4</ele>
        <time>2014-10-12T08:27:25.000Z</time>
      </trkpt>
      <trkpt lat="47.44515" lon="6.7114">
        <ele>450.3</ele>
        <time>2014-10-12T08:27:26.000Z</time>
      </trkpt>
      <trkpt lat="47.44512" lon="6.71143">
        <ele>450.3</ele>
        <time>2014-10-12T08:27:27.000Z</time>
      </trkpt>
      <trkpt lat="47.44509" lon="6.71146">
        <ele>448.6</ele>
        <time>2014-10-12T08:27:28.000Z</time>
      </trkpt>
      <trkpt lat="47.44506" lon="6.71149">
        <ele>450.3</ele>
        <time>2014-10-12T08:27:29.000Z</time>
      </trkpt>
      <trkpt lat="47.44504" lon="6.71152">
        <ele>448.3</ele>
        <time>2014-10-12T08:27:30.000Z</time>
      </trkpt>
      <trkpt lat="47.44501" lon="6.71155">
        <ele>447.6</ele>
        <time>2014-10-12T08:27:31.000Z</time>
      </trkpt>
      <trkpt lat="47.44497" lon="6.71157">
        <ele>448.1</ele>
        <time>2014-10-12T08:27:32.000Z</time>
      </trkpt>
      <trkpt lat="47.44495" lon="6.7116">
        <ele>448.8</ele>
        <time>2014-10-12T08:27:33.000Z</time>
      </trkpt>
      <trkpt lat="47.44491" lon="6.71163">
        <ele>448.1</ele>
        <time>2014-10-12T08:27:35.000Z</time>
      </trkpt>
      <trkpt lat="47.4449" lon="6.71164">
        <ele>447.7</ele>
        <time>2014-10-12T08:27:36.000Z</time>
      </trkpt>
      <trkpt lat="47.44488" lon="6.71165">
        <ele>448</ele>
        <time>2014-10-12T08:27:37.000Z</time>
      </trkpt>
      <trkpt lat="47.44485" lon="6.71167">
        <ele>445.6</ele>
        <time>2014-10-12T08:27:38.000Z</time>
      </trkpt>
      <trkpt lat="47.44482" lon="6.7117">
        <ele>444.3</ele>
        <time>2014-10-12T08:27:39.000Z</time>
      </trkpt>
      <trkpt lat="47.44479" lon="6.71173">
        <ele>441.6</ele>
        <time>2014-10-12T08:27:40.000Z</time>
      </trkpt>
      <trkpt lat="47.44476" lon="6.71176">
        <ele>442.6</ele>
        <time>2014-10-12T08:27:41.000Z</time>
      </trkpt>
      <trkpt lat="47.44474" lon="6.7118">
        <ele>440.5</ele>
        <time>2014-10-12T08:27:42.000Z</time>
      </trkpt>
      <trkpt lat="47.44471" lon="6.71184">
        <ele>441.1</ele>
        <time>2014-10-12T08:27:43.000Z</time>
      </trkpt>
      <trkpt lat="47.44469" lon="6.71187">
        <ele>441.1</ele>
        <time>2014-10-12T08:27:44.000Z</time>
      </trkpt>
      <trkpt lat="47.44467" lon="6.7119">
        <ele>441.3</ele>
        <time>2014-10-12T08:27:45.000Z</time>
      </trkpt>
      <trkpt lat="47.44465" lon="6.71193">
        <ele>441.8</ele>
        <time>2014-10-12T08:27:46.000Z</time>
      </trkpt>
      <trkpt lat="47.44462" lon="6.71195">
        <ele>442.7</ele>
        <time>2014-10-12T08:27:47.000Z</time>
      </trkpt>
      <trkpt lat="47.44454" lon="6.71203">
        <ele>442.7</ele>
        <time>2014-10-12T08:27:51.000Z</time>
      </trkpt>
      <trkpt lat="47.44452" lon="6.71205">
        <ele>441.8</ele>
        <time>2014-10-12T08:27:52.000Z</time>
      </trkpt>
      <trkpt lat="47.44449" lon="6.71208">
        <ele>447.8</ele>
        <time>2014-10-12T08:27:53.000Z</time>
      </trkpt>
      <trkpt lat="47.44446" lon="6.71211">
        <ele>449.4</ele>
        <time>2014-10-12T08:27:54.000Z</time>
      </trkpt>
      <trkpt lat="47.44443" lon="6.71215">
        <ele>450.4</ele>
        <time>2014-10-12T08:27:55.000Z</time>
      </trkpt>
      <trkpt lat="47.4444" lon="6.71218">
        <ele>449.8</ele>
        <time>2014-10-12T08:27:56.000Z</time>
      </trkpt>
      <trkpt lat="47.44437" lon="6.71222">
        <ele>450.3</ele>
        <time>2014-10-12T08:27:57.000Z</time>
      </trkpt>
      <trkpt lat="47.44434" lon="6.71226">
        <ele>450.6</ele>
        <time>2014-10-12T08:27:58.000Z</time>
      </trkpt>
      <trkpt lat="47.44432" lon="6.7123">
        <ele>453.2</ele>
        <time>2014-10-12T08:27:59.000Z</time>
      </trkpt>
      <trkpt lat="47.44429" lon="6.71234">
        <ele>455.7</ele>
        <time>2014-10-12T08:28:00.000Z</time>
      </trkpt>
      <trkpt lat="47.44427" lon="6.71238">
        <ele>454.3</ele>
        <time>2014-10-12T08:28:01.000Z</time>
      </trkpt>
      <trkpt lat="47.44425" lon="6.71241">
        <ele>456</ele>
        <time>2014-10-12T08:28:02.000Z</time>
      </trkpt>
      <trkpt lat="47.44424" lon="6.71244">
        <ele>457.1</ele>
        <time>2014-10-12T08:28:03.000Z</time>
      </trkpt>
      <trkpt lat="47.44422" lon="6.71247">
        <ele>457.4</ele>
        <time>2014-10-12T08:28:04.000Z</time>
      </trkpt>
      <trkpt lat="47.4442" lon="6.7125">
        <ele>457.9</ele>
        <time>2014-10-12T08:28:05.000Z</time>
      </trkpt>
      <trkpt lat="47.44418" lon="6.71253">
        <ele>459.7</ele>
        <time>2014-10-12T08:28:06.000Z</time>
      </trkpt>
      <trkpt lat="47.44416" lon="6.71256">
        <ele>460.6</ele>
        <time>2014-10-12T08:28:07.000Z</time>
      </trkpt>
      <trkpt lat="47.44415" lon="6.7126">
        <ele>461.6</ele>
        <time>2014-10-12T08:28:09.000Z</time>
      </trkpt>
      <trkpt lat="47.44414" lon="6.71263">
        <ele>462.5</ele>
        <time>2014-10-12T08:28:10.000Z</time>
      </trkpt>
      <trkpt lat="47.44413" lon="6.71265">
        <ele>462.7</ele>
        <time>2014-10-12T08:28:11.000Z</time>
      </trkpt>
      <trkpt lat="47.44411" lon="6.71268">
        <ele>464.4</ele>
        <time>2014-10-12T08:28:12.000Z</time>
      </trkpt>
      <trkpt lat="47.44409" lon="6.71271">
        <ele>463.6</ele>
        <time>2014-10-12T08:28:13.000Z</time>
      </trkpt>
      <trkpt lat="47.44407" lon="6.71274">
        <ele>463.8</ele>
        <time>2014-10-12T08:28:14.000Z</time>
      </trkpt>
      <trkpt lat="47.44406" lon="6.71277">
        <ele>463.6</ele>
        <time>2014-10-12T08:28:15.000Z</time>
      </trkpt>
      <trkpt lat="47.44404" lon="6.7128">
        <ele>464.3</ele>
        <time>2014-10-12T08:28:16.000Z</time>
      </trkpt>
      <trkpt lat="47.44402" lon="6.71282">
        <ele>464.5</ele>
        <time>2014-10-12T08:28:17.000Z</time>
      </trkpt>
      <trkpt lat="47.44401" lon="6.71285">
        <ele>461.7</ele>
        <time>2014-10-12T08:28:18.000Z</time>
      </trkpt>
      <trkpt lat="47.44398" lon="6.71289">
        <ele>445.6</ele>
        <time>2014-10-12T08:28:20.000Z</time>
      </trkpt>
      <trkpt lat="47.44396" lon="6.71291">
        <ele>442.9</ele>
        <time>2014-10-12T08:28:21.000Z</time>
      </trkpt>
      <trkpt lat="47.44392" lon="6.71294">
        <ele>441.4</ele>
        <time>2014-10-12T08:28:23.000Z</time>
      </trkpt>
      <trkpt lat="47.44391" lon="6.71297">
        <ele>442.8</ele>
        <time>2014-10-12T08:28:24.000Z</time>
      </trkpt>
      <trkpt lat="47.44389" lon="6.71299">
        <ele>442.4</ele>
        <time>2014-10-12T08:28:25.000Z</time>
      </trkpt>
      <trkpt lat="47.44386" lon="6.71301">
        <ele>443.5</ele>
        <time>2014-10-12T08:28:26.000Z</time>
      </trkpt>
      <trkpt lat="47.44383" lon="6.71303">
        <ele>443.8</ele>
        <time>2014-10-12T08:28:27.000Z</time>
      </trkpt>
      <trkpt lat="47.4438" lon="6.71306">
        <ele>443.7</ele>
        <time>2014-10-12T08:28:28.000Z</time>
      </trkpt>
      <trkpt lat="47.44379" lon="6.71309">
        <ele>443.7</ele>
        <time>2014-10-12T08:28:29.000Z</time>
      </trkpt>
      <trkpt lat="47.44377" lon="6.71312">
        <ele>444.6</ele>
        <time>2014-10-12T08:28:30.000Z</time>
      </trkpt>
      <trkpt lat="47.44375" lon="6.71315">
        <ele>445.8</ele>
        <time>2014-10-12T08:28:31.000Z</time>
      </trkpt>
      <trkpt lat="47.44374" lon="6.71318">
        <ele>444.2</ele>
        <time>2014-10-12T08:28:32.000Z</time>
      </trkpt>
      <trkpt lat="47.44372" lon="6.71321">
        <ele>447.8</ele>
        <time>2014-10-12T08:28:33.000Z</time>
      </trkpt>
      <trkpt lat="47.4437" lon="6.71324">
        <ele>448.7</ele>
        <time>2014-10-12T08:28:34.000Z</time>
      </trkpt>
      <trkpt lat="47.44367" lon="6.71327">
        <ele>449.1</ele>
        <time>2014-10-12T08:28:35.000Z</time>
      </trkpt>
      <trkpt lat="47.44364" lon="6.71329">
        <ele>449.7</ele>
        <time>2014-10-12T08:28:36.000Z</time>
      </trkpt>
      <trkpt lat="47.44361" lon="6.71331">
        <ele>450.4</ele>
        <time>2014-10-12T08:28:37.000Z</time>
      </trkpt>
      <trkpt lat="47.44358" lon="6.71333">
        <ele>450.9</ele>
        <time>2014-10-12T08:28:38.000Z</time>
      </trkpt>
      <trkpt lat="47.44355" lon="6.71335">
        <ele>452.2</ele>
        <time>2014-10-12T08:28:39.000Z</time>
      </trkpt>
      <trkpt lat="47.44352" lon="6.71337">
        <ele>452.1</ele>
        <time>2014-10-12T08:28:40.000Z</time>
      </trkpt>
      <trkpt lat="47.4435" lon="6.71339">
        <ele>451.4</ele>
        <time>2014-10-12T08:28:41.000Z</time>
      </trkpt>
      <trkpt lat="47.44347" lon="6.71342">
        <ele>449.7</ele>
        <time>2014-10-12T08:28:42.000Z</time>
      </trkpt>
      <trkpt lat="47.44344" lon="6.71345">
        <ele>447.4</ele>
        <time>2014-10-12T08:28:43.000Z</time>
      </trkpt>
      <trkpt lat="47.44342" lon="6.71349">
        <ele>446.3</ele>
        <time>2014-10-12T08:28:44.000Z</time>
      </trkpt>
      <trkpt lat="47.4434" lon="6.71353">
        <ele>446.7</ele>
        <time>2014-10-12T08:28:45.000Z</time>
      </trkpt>
      <trkpt lat="47.44338" lon="6.71357">
        <ele>447.5</ele>
        <time>2014-10-12T08:28:46.000Z</time>
      </trkpt>
      <trkpt lat="47.44336" lon="6.7136">
        <ele>448.2</ele>
        <time>2014-10-12T08:28:47.000Z</time>
      </trkpt>
      <trkpt lat="47.44331" lon="6.7137">
        <ele>448.1</ele>
        <time>2014-10-12T08:28:51.000Z</time>
      </trkpt>
      <trkpt lat="47.44329" lon="6.71373">
        <ele>448.4</ele>
        <time>2014-10-12T08:28:52.000Z</time>
      </trkpt>
      <trkpt lat="47.44328" lon="6.71377">
        <ele>449.9</ele>
        <time>2014-10-12T08:28:53.000Z</time>
      </trkpt>
      <trkpt lat="47.44326" lon="6.71381">
        <ele>451.6</ele>
        <time>2014-10-12T08:28:54.000Z</time>
      </trkpt>
      <trkpt lat="47.44324" lon="6.71384">
        <ele>453</ele>
        <time>2014-10-12T08:28:55.000Z</time>
      </trkpt>
      <trkpt lat="47.44322" lon="6.71388">
        <ele>451.2</ele>
        <time>2014-10-12T08:28:56.000Z</time>
      </trkpt>
      <trkpt lat="47.4432" lon="6.7139">
        <ele>450.3</ele>
        <time>2014-10-12T08:28:57.000Z</time>
      </trkpt>
      <trkpt lat="47.44318" lon="6.71392">
        <ele>450.7</ele>
        <time>2014-10-12T08:28:58.000Z</time>
      </trkpt>
      <trkpt lat="47.44315" lon="6.71393">
        <ele>450.8</ele>
        <time>2014-10-12T08:28:59.000Z</time>
      </trkpt>
      <trkpt lat="47.44312" lon="6.71394">
        <ele>452.6</ele>
        <time>2014-10-12T08:29:00.000Z</time>
      </trkpt>
      <trkpt lat="47.44308" lon="6.71395">
        <ele>454.1</ele>
        <time>2014-10-12T08:29:01.000Z</time>
      </trkpt>
      <trkpt lat="47.44304" lon="6.71396">
        <ele>456.8</ele>
        <time>2014-10-12T08:29:03.000Z</time>
      </trkpt>
      <trkpt lat="47.44303" lon="6.71396">
        <ele>458.1</ele>
        <time>2014-10-12T08:29:04.000Z</time>
      </trkpt>
      <trkpt lat="47.44299" lon="6.71398">
        <ele>461.4</ele>
        <time>2014-10-12T08:29:07.000Z</time>
      </trkpt>
      <trkpt lat="47.44297" lon="6.71399">
        <ele>462.1</ele>
        <time>2014-10-12T08:29:08.000Z</time>
      </trkpt>
      <trkpt lat="47.44296" lon="6.71401">
        <ele>463</ele>
        <time>2014-10-12T08:29:09.000Z</time>
      </trkpt>
      <trkpt lat="47.44294" lon="6.71403">
        <ele>463</ele>
        <time>2014-10-12T08:29:10.000Z</time>
      </trkpt>
      <trkpt lat="47.44292" lon="6.71405">
        <ele>464.5</ele>
        <time>2014-10-12T08:29:11.000Z</time>
      </trkpt>
      <trkpt lat="47.4429" lon="6.71408">
        <ele>465.5</ele>
        <time>2014-10-12T08:29:12.000Z</time>
      </trkpt>
      <trkpt lat="47.44288" lon="6.71414">
        <ele>467.8</ele>
        <time>2014-10-12T08:29:14.000Z</time>
      </trkpt>
      <trkpt lat="47.44287" lon="6.71417">
        <ele>467.7</ele>
        <time>2014-10-12T08:29:15.000Z</time>
      </trkpt>
      <trkpt lat="47.44285" lon="6.71422">
        <ele>468.3</ele>
        <time>2014-10-12T08:29:17.000Z</time>
      </trkpt>
      <trkpt lat="47.44284" lon="6.71424">
        <ele>469.2</ele>
        <time>2014-10-12T08:29:18.000Z</time>
      </trkpt>
      <trkpt lat="47.44281" lon="6.71428">
        <ele>473.6</ele>
        <time>2014-10-12T08:29:21.000Z</time>
      </trkpt>
      <trkpt lat="47.44279" lon="6.71429">
        <ele>474.4</ele>
        <time>2014-10-12T08:29:22.000Z</time>
      </trkpt>
      <trkpt lat="47.44277" lon="6.71434">
        <ele>476.5</ele>
        <time>2014-10-12T08:29:24.000Z</time>
      </trkpt>
      <trkpt lat="47.44277" lon="6.71437">
        <ele>474.9</ele>
        <time>2014-10-12T08:29:25.000Z</time>
      </trkpt>
      <trkpt lat="47.44276" lon="6.71442">
        <ele>471.8</ele>
        <time>2014-10-12T08:29:27.000Z</time>
      </trkpt>
      <trkpt lat="47.44276" lon="6.71445">
        <ele>468.7</ele>
        <time>2014-10-12T08:29:28.000Z</time>
      </trkpt>
      <trkpt lat="47.44274" lon="6.71451">
        <ele>470.5</ele>
        <time>2014-10-12T08:29:30.000Z</time>
      </trkpt>
      <trkpt lat="47.44273" lon="6.71453">
        <ele>468.7</ele>
        <time>2014-10-12T08:29:31.000Z</time>
      </trkpt>
      <trkpt lat="47.44272" lon="6.71458">
        <ele>468.8</ele>
        <time>2014-10-12T08:29:33.000Z</time>
      </trkpt>
      <trkpt lat="47.44272" lon="6.71461">
        <ele>468.4</ele>
        <time>2014-10-12T08:29:34.000Z</time>
      </trkpt>
      <trkpt lat="47.44271" lon="6.71467">
        <ele>468.9</ele>
        <time>2014-10-12T08:29:36.000Z</time>
      </trkpt>
      <trkpt lat="47.4427" lon="6.71469">
        <ele>464.8</ele>
        <time>2014-10-12T08:29:37.000Z</time>
      </trkpt>
      <trkpt lat="47.44268" lon="6.71475">
        <ele>466.8</ele>
        <time>2014-10-12T08:29:39.000Z</time>
      </trkpt>
      <trkpt lat="47.44267" lon="6.71477">
        <ele>466</ele>
        <time>2014-10-12T08:29:40.000Z</time>
      </trkpt>
      <trkpt lat="47.44266" lon="6.71481">
        <ele>465.5</ele>
        <time>2014-10-12T08:29:42.000Z</time>
      </trkpt>
      <trkpt lat="47.44265" lon="6.71483">
        <ele>463.6</ele>
        <time>2014-10-12T08:29:43.000Z</time>
      </trkpt>
      <trkpt lat="47.44263" lon="6.71489">
        <ele>467.3</ele>
        <time>2014-10-12T08:29:46.000Z</time>
      </trkpt>
      <trkpt lat="47.44263" lon="6.71491">
        <ele>466.7</ele>
        <time>2014-10-12T08:29:47.000Z</time>
      </trkpt>
      <trkpt lat="47.44262" lon="6.71498">
        <ele>468.2</ele>
        <time>2014-10-12T08:29:51.000Z</time>
      </trkpt>
      <trkpt lat="47.44261" lon="6.715">
        <ele>467.1</ele>
        <time>2014-10-12T08:29:52.000Z</time>
      </trkpt>
      <trkpt lat="47.44262" lon="6.71505">
        <ele>466.4</ele>
        <time>2014-10-12T08:29:55.000Z</time>
      </trkpt>
      <trkpt lat="47.44261" lon="6.71508">
        <ele>466.7</ele>
        <time>2014-10-12T08:29:56.000Z</time>
      </trkpt>
      <trkpt lat="47.44259" lon="6.71513">
        <ele>466.8</ele>
        <time>2014-10-12T08:29:58.000Z</time>
      </trkpt>
      <trkpt lat="47.44259" lon="6.71515">
        <ele>465.4</ele>
        <time>2014-10-12T08:29:59.000Z</time>
      </trkpt>
      <trkpt lat="47.4426" lon="6.7152">
        <ele>468.4</ele>
        <time>2014-10-12T08:30:02.000Z</time>
      </trkpt>
      <trkpt lat="47.4426" lon="6.71522">
        <ele>469</ele>
        <time>2014-10-12T08:30:03.000Z</time>
      </trkpt>
      <trkpt lat="47.44259" lon="6.71528">
        <ele>470.6</ele>
        <time>2014-10-12T08:30:05.000Z</time>
      </trkpt>
      <trkpt lat="47.44258" lon="6.71531">
        <ele>473.8</ele>
        <time>2014-10-12T08:30:06.000Z</time>
      </trkpt>
      <trkpt lat="47.44257" lon="6.71533">
        <ele>471.8</ele>
        <time>2014-10-12T08:30:07.000Z</time>
      </trkpt>
      <trkpt lat="47.44256" lon="6.71536">
        <ele>470.6</ele>
        <time>2014-10-12T08:30:08.000Z</time>
      </trkpt>
      <trkpt lat="47.44254" lon="6.7154">
        <ele>470</ele>
        <time>2014-10-12T08:30:09.000Z</time>
      </trkpt>
      <trkpt lat="47.44252" lon="6.71544">
        <ele>470</ele>
        <time>2014-10-12T08:30:10.000Z</time>
      </trkpt>
      <trkpt lat="47.4425" lon="6.71548">
        <ele>469.1</ele>
        <time>2014-10-12T08:30:11.000Z</time>
      </trkpt>
      <trkpt lat="47.44248" lon="6.71552">
        <ele>467.6</ele>
        <time>2014-10-12T08:30:12.000Z</time>
      </trkpt>
      <trkpt lat="47.44246" lon="6.71556">
        <ele>467.2</ele>
        <time>2014-10-12T08:30:13.000Z</time>
      </trkpt>
      <trkpt lat="47.44246" lon="6.7156">
        <ele>468.6</ele>
        <time>2014-10-12T08:30:14.000Z</time>
      </trkpt>
      <trkpt lat="47.44246" lon="6.71564">
        <ele>467.2</ele>
        <time>2014-10-12T08:30:15.000Z</time>
      </trkpt>
      <trkpt lat="47.44246" lon="6.71568">
        <ele>466.7</ele>
        <time>2014-10-12T08:30:16.000Z</time>
      </trkpt>
      <trkpt lat="47.44246" lon="6.71572">
        <ele>465.9</ele>
        <time>2014-10-12T08:30:17.000Z</time>
      </trkpt>
      <trkpt lat="47.44246" lon="6.71576">
        <ele>465.4</ele>
        <time>2014-10-12T08:30:18.000Z</time>
      </trkpt>
      <trkpt lat="47.44245" lon="6.7158">
        <ele>465.3</ele>
        <time>2014-10-12T08:30:19.000Z</time>
      </trkpt>
      <trkpt lat="47.44245" lon="6.71584">
        <ele>465.6</ele>
        <time>2014-10-12T08:30:20.000Z</time>
      </trkpt>
      <trkpt lat="47.44245" lon="6.71588">
        <ele>466.4</ele>
        <time>2014-10-12T08:30:21.000Z</time>
      </trkpt>
      <trkpt lat="47.44245" lon="6.71593">
        <ele>466.9</ele>
        <time>2014-10-12T08:30:22.000Z</time>
      </trkpt>
      <trkpt lat="47.44244" lon="6.71597">
        <ele>467.4</ele>
        <time>2014-10-12T08:30:23.000Z</time>
      </trkpt>
      <trkpt lat="47.44244" lon="6.71601">
        <ele>467.6</ele>
        <time>2014-10-12T08:30:24.000Z</time>
      </trkpt>
      <trkpt lat="47.44243" lon="6.71605">
        <ele>468.8</ele>
        <time>2014-10-12T08:30:25.000Z</time>
      </trkpt>
      <trkpt lat="47.44243" lon="6.71609">
        <ele>469.1</ele>
        <time>2014-10-12T08:30:26.000Z</time>
      </trkpt>
      <trkpt lat="47.44242" lon="6.71613">
        <ele>469.1</ele>
        <time>2014-10-12T08:30:27.000Z</time>
      </trkpt>
      <trkpt lat="47.44242" lon="6.71618">
        <ele>469.5</ele>
        <time>2014-10-12T08:30:28.000Z</time>
      </trkpt>
      <trkpt lat="47.44243" lon="6.71623">
        <ele>474.7</ele>
        <time>2014-10-12T08:30:30.000Z</time>
      </trkpt>
      <trkpt lat="47.44244" lon="6.71625">
        <ele>474.6</ele>
        <time>2014-10-12T08:30:31.000Z</time>
      </trkpt>
      <trkpt lat="47.44244" lon="6.7163">
        <ele>470.4</ele>
        <time>2014-10-12T08:30:33.000Z</time>
      </trkpt>
      <trkpt lat="47.44244" lon="6.71634">
        <ele>469.6</ele>
        <time>2014-10-12T08:30:34.000Z</time>
      </trkpt>
      <trkpt lat="47.44243" lon="6.71638">
        <ele>469.1</ele>
        <time>2014-10-12T08:30:35.000Z</time>
      </trkpt>
      <trkpt lat="47.44242" lon="6.71643">
        <ele>469.1</ele>
        <time>2014-10-12T08:30:36.000Z</time>
      </trkpt>
      <trkpt lat="47.44241" lon="6.71648">
        <ele>466.4</ele>
        <time>2014-10-12T08:30:37.000Z</time>
      </trkpt>
      <trkpt lat="47.4424" lon="6.71653">
        <ele>466.9</ele>
        <time>2014-10-12T08:30:38.000Z</time>
      </trkpt>
      <trkpt lat="47.44238" lon="6.71658">
        <ele>466.8</ele>
        <time>2014-10-12T08:30:39.000Z</time>
      </trkpt>
      <trkpt lat="47.44237" lon="6.71663">
        <ele>467.4</ele>
        <time>2014-10-12T08:30:40.000Z</time>
      </trkpt>
      <trkpt lat="47.44236" lon="6.71668">
        <ele>462</ele>
        <time>2014-10-12T08:30:41.000Z</time>
      </trkpt>
      <trkpt lat="47.44235" lon="6.71673">
        <ele>459.8</ele>
        <time>2014-10-12T08:30:42.000Z</time>
      </trkpt>
      <trkpt lat="47.44234" lon="6.71679">
        <ele>459.8</ele>
        <time>2014-10-12T08:30:43.000Z</time>
      </trkpt>
      <trkpt lat="47.44233" lon="6.71683">
        <ele>459.8</ele>
        <time>2014-10-12T08:30:44.000Z</time>
      </trkpt>
      <trkpt lat="47.44232" lon="6.71688">
        <ele>459.8</ele>
        <time>2014-10-12T08:30:45.000Z</time>
      </trkpt>
      <trkpt lat="47.44231" lon="6.71692">
        <ele>460.2</ele>
        <time>2014-10-12T08:30:46.000Z</time>
      </trkpt>
      <trkpt lat="47.4423" lon="6.71696">
        <ele>458.4</ele>
        <time>2014-10-12T08:30:47.000Z</time>
      </trkpt>
      <trkpt lat="47.44228" lon="6.71722">
        <ele>448.4</ele>
        <time>2014-10-12T08:30:55.000Z</time>
      </trkpt>
      <trkpt lat="47.44227" lon="6.71726">
        <ele>446.6</ele>
        <time>2014-10-12T08:30:56.000Z</time>
      </trkpt>
      <trkpt lat="47.44227" lon="6.7173">
        <ele>445.1</ele>
        <time>2014-10-12T08:30:57.000Z</time>
      </trkpt>
      <trkpt lat="47.44227" lon="6.71735">
        <ele>445.1</ele>
        <time>2014-10-12T08:30:58.000Z</time>
      </trkpt>
      <trkpt lat="47.44227" lon="6.71739">
        <ele>445.8</ele>
        <time>2014-10-12T08:30:59.000Z</time>
      </trkpt>
      <trkpt lat="47.44228" lon="6.71743">
        <ele>447.9</ele>
        <time>2014-10-12T08:31:00.000Z</time>
      </trkpt>
      <trkpt lat="47.44228" lon="6.71747">
        <ele>450.8</ele>
        <time>2014-10-12T08:31:01.000Z</time>
      </trkpt>
      <trkpt lat="47.44228" lon="6.71751">
        <ele>451.1</ele>
        <time>2014-10-12T08:31:02.000Z</time>
      </trkpt>
      <trkpt lat="47.44229" lon="6.71755">
        <ele>450.3</ele>
        <time>2014-10-12T08:31:03.000Z</time>
      </trkpt>
      <trkpt lat="47.44229" lon="6.71758">
        <ele>451.4</ele>
        <time>2014-10-12T08:31:04.000Z</time>
      </trkpt>
      <trkpt lat="47.4423" lon="6.71762">
        <ele>451.7</ele>
        <time>2014-10-12T08:31:05.000Z</time>
      </trkpt>
      <trkpt lat="47.44231" lon="6.71765">
        <ele>452.3</ele>
        <time>2014-10-12T08:31:06.000Z</time>
      </trkpt>
      <trkpt lat="47.44232" lon="6.71768">
        <ele>454.1</ele>
        <time>2014-10-12T08:31:07.000Z</time>
      </trkpt>
      <trkpt lat="47.44233" lon="6.71772">
        <ele>455.2</ele>
        <time>2014-10-12T08:31:08.000Z</time>
      </trkpt>
      <trkpt lat="47.44234" lon="6.71775">
        <ele>455.6</ele>
        <time>2014-10-12T08:31:09.000Z</time>
      </trkpt>
      <trkpt lat="47.44235" lon="6.71781">
        <ele>457.3</ele>
        <time>2014-10-12T08:31:11.000Z</time>
      </trkpt>
      <trkpt lat="47.44236" lon="6.71783">
        <ele>457.9</ele>
        <time>2014-10-12T08:31:12.000Z</time>
      </trkpt>
      <trkpt lat="47.44236" lon="6.71787">
        <ele>458.5</ele>
        <time>2014-10-12T08:31:13.000Z</time>
      </trkpt>
      <trkpt lat="47.44236" lon="6.71791">
        <ele>461.2</ele>
        <time>2014-10-12T08:31:14.000Z</time>
      </trkpt>
      <trkpt lat="47.44235" lon="6.71796">
        <ele>463.1</ele>
        <time>2014-10-12T08:31:15.000Z</time>
      </trkpt>
      <trkpt lat="47.44235" lon="6.71801">
        <ele>463.4</ele>
        <time>2014-10-12T08:31:16.000Z</time>
      </trkpt>
      <trkpt lat="47.44234" lon="6.71806">
        <ele>464.4</ele>
        <time>2014-10-12T08:31:17.000Z</time>
      </trkpt>
      <trkpt lat="47.44234" lon="6.71811">
        <ele>463.3</ele>
        <time>2014-10-12T08:31:18.000Z</time>
      </trkpt>
      <trkpt lat="47.44235" lon="6.71815">
        <ele>465.4</ele>
        <time>2014-10-12T08:31:19.000Z</time>
      </trkpt>
      <trkpt lat="47.44235" lon="6.71818">
        <ele>465.9</ele>
        <time>2014-10-12T08:31:20.000Z</time>
      </trkpt>
      <trkpt lat="47.44236" lon="6.71824">
        <ele>466.2</ele>
        <time>2014-10-12T08:31:22.000Z</time>
      </trkpt>
      <trkpt lat="47.44237" lon="6.71827">
        <ele>467.5</ele>
        <time>2014-10-12T08:31:23.000Z</time>
      </trkpt>
      <trkpt lat="47.44238" lon="6.71833">
        <ele>464.5</ele>
        <time>2014-10-12T08:31:25.000Z</time>
      </trkpt>
      <trkpt lat="47.44239" lon="6.71835">
        <ele>466.3</ele>
        <time>2014-10-12T08:31:26.000Z</time>
      </trkpt>
      <trkpt lat="47.4424" lon="6.71841">
        <ele>468.3</ele>
        <time>2014-10-12T08:31:29.000Z</time>
      </trkpt>
      <trkpt lat="47.4424" lon="6.71843">
        <ele>472.1</ele>
        <time>2014-10-12T08:31:30.000Z</time>
      </trkpt>
      <trkpt lat="47.4424" lon="6.71848">
        <ele>473.8</ele>
        <time>2014-10-12T08:31:33.000Z</time>
      </trkpt>
      <trkpt lat="47.4424" lon="6.7185">
        <ele>473.1</ele>
        <time>2014-10-12T08:31:34.000Z</time>
      </trkpt>
      <trkpt lat="47.4424" lon="6.71855">
        <ele>471.2</ele>
        <time>2014-10-12T08:31:37.000Z</time>
      </trkpt>
      <trkpt lat="47.4424" lon="6.71858">
        <ele>469.3</ele>
        <time>2014-10-12T08:31:38.000Z</time>
      </trkpt>
      <trkpt lat="47.44239" lon="6.71862">
        <ele>470</ele>
        <time>2014-10-12T08:31:40.000Z</time>
      </trkpt>
      <trkpt lat="47.44238" lon="6.71864">
        <ele>470.1</ele>
        <time>2014-10-12T08:31:41.000Z</time>
      </trkpt>
      <trkpt lat="47.44237" lon="6.71868">
        <ele>469</ele>
        <time>2014-10-12T08:31:43.000Z</time>
      </trkpt>
      <trkpt lat="47.44235" lon="6.7187">
        <ele>470.9</ele>
        <time>2014-10-12T08:31:44.000Z</time>
      </trkpt>
      <trkpt lat="47.44233" lon="6.71876">
        <ele>474.4</ele>
        <time>2014-10-12T08:31:47.000Z</time>
      </trkpt>
      <trkpt lat="47.4423" lon="6.71881">
        <ele>477.4</ele>
        <time>2014-10-12T08:31:50.000Z</time>
      </trkpt>
      <trkpt lat="47.44228" lon="6.71887">
        <ele>478.9</ele>
        <time>2014-10-12T08:31:53.000Z</time>
      </trkpt>
      <trkpt lat="47.44228" lon="6.71888">
        <ele>478.7</ele>
        <time>2014-10-12T08:31:54.000Z</time>
      </trkpt>
      <trkpt lat="47.44226" lon="6.71894">
        <ele>471.8</ele>
        <time>2014-10-12T08:32:02.000Z</time>
      </trkpt>
      <trkpt lat="47.44226" lon="6.71894">
        <ele>471.9</ele>
        <time>2014-10-12T08:32:03.000Z</time>
      </trkpt>
      <trkpt lat="47.44225" lon="6.719">
        <ele>469.3</ele>
        <time>2014-10-12T08:32:29.000Z</time>
      </trkpt>
      <trkpt lat="47.44225" lon="6.71901">
        <ele>468.8</ele>
        <time>2014-10-12T08:32:30.000Z</time>
      </trkpt>
      <trkpt lat="47.44226" lon="6.71907">
        <ele>473.3</ele>
        <time>2014-10-12T08:33:09.000Z</time>
      </trkpt>
      <trkpt lat="47.44226" lon="6.71907">
        <ele>473.3</ele>
        <time>2014-10-12T08:33:10.000Z</time>
      </trkpt>
      <trkpt lat="47.44225" lon="6.71913">
        <ele>477</ele>
        <time>2014-10-12T08:35:36.000Z</time>
      </trkpt>
      <trkpt lat="47.44224" lon="6.71914">
        <ele>477.8</ele>
        <time>2014-10-12T08:35:37.000Z</time>
      </trkpt>
      <trkpt lat="47.44221" lon="6.71915">
        <ele>479</ele>
        <time>2014-10-12T08:37:25.000Z</time>
      </trkpt>
      <trkpt lat="47.4422" lon="6.71915">
        <ele>479</ele>
        <time>2014-10-12T08:37:26.000Z</time>
      </trkpt>
      <trkpt lat="47.44216" lon="6.71915">
        <ele>477.6</ele>
        <time>2014-10-12T08:37:29.000Z</time>
      </trkpt>
      <trkpt lat="47.44214" lon="6.71914">
        <ele>479.7</ele>
        <time>2014-10-12T08:37:30.000Z</time>
      </trkpt>
      <trkpt lat="47.44209" lon="6.71912">
        <ele>476</ele>
        <time>2014-10-12T08:37:32.000Z</time>
      </trkpt>
      <trkpt lat="47.44208" lon="6.71912">
        <ele>473</ele>
        <time>2014-10-12T08:37:33.000Z</time>
      </trkpt>
      <trkpt lat="47.44204" lon="6.71911">
        <ele>470.3</ele>
        <time>2014-10-12T08:37:35.000Z</time>
      </trkpt>
      <trkpt lat="47.44201" lon="6.7191">
        <ele>471.5</ele>
        <time>2014-10-12T08:37:36.000Z</time>
      </trkpt>
      <trkpt lat="47.44198" lon="6.7191">
        <ele>469</ele>
        <time>2014-10-12T08:37:37.000Z</time>
      </trkpt>
      <trkpt lat="47.44195" lon="6.71909">
        <ele>468</ele>
        <time>2014-10-12T08:37:38.000Z</time>
      </trkpt>
      <trkpt lat="47.44191" lon="6.71908">
        <ele>467.5</ele>
        <time>2014-10-12T08:37:39.000Z</time>
      </trkpt>
      <trkpt lat="47.44188" lon="6.71907">
        <ele>468</ele>
        <time>2014-10-12T08:37:40.000Z</time>
      </trkpt>
      <trkpt lat="47.44184" lon="6.71907">
        <ele>468.9</ele>
        <time>2014-10-12T08:37:41.000Z</time>
      </trkpt>
      <trkpt lat="47.44181" lon="6.71905">
        <ele>468.6</ele>
        <time>2014-10-12T08:37:42.000Z</time>
      </trkpt>
      <trkpt lat="47.44177" lon="6.71904">
        <ele>468.9</ele>
        <time>2014-10-12T08:37:43.000Z</time>
      </trkpt>
      <trkpt lat="47.44174" lon="6.71903">
        <ele>464.4</ele>
        <time>2014-10-12T08:37:44.000Z</time>
      </trkpt>
      <trkpt lat="47.44172" lon="6.71902">
        <ele>464</ele>
        <time>2014-10-12T08:37:45.000Z</time>
      </trkpt>
      <trkpt lat="47.44169" lon="6.71901">
        <ele>464.3</ele>
        <time>2014-10-12T08:37:46.000Z</time>
      </trkpt>
      <trkpt lat="47.44167" lon="6.71901">
        <ele>464.3</ele>
        <time>2014-10-12T08:37:47.000Z</time>
      </trkpt>
      <trkpt lat="47.44146" lon="6.71895">
        <ele>462.4</ele>
        <time>2014-10-12T08:37:55.000Z</time>
      </trkpt>
      <trkpt lat="47.44142" lon="6.71891">
        <ele>453.9</ele>
        <time>2014-10-12T08:37:57.000Z</time>
      </trkpt>
      <trkpt lat="47.4414" lon="6.71888">
        <ele>454.4</ele>
        <time>2014-10-12T08:37:58.000Z</time>
      </trkpt>
      <trkpt lat="47.44138" lon="6.71885">
        <ele>454.4</ele>
        <time>2014-10-12T08:37:59.000Z</time>
      </trkpt>
      <trkpt lat="47.44136" lon="6.71883">
        <ele>457.1</ele>
        <time>2014-10-12T08:38:00.000Z</time>
      </trkpt>
      <trkpt lat="47.44133" lon="6.7188">
        <ele>458.9</ele>
        <time>2014-10-12T08:38:01.000Z</time>
      </trkpt>
      <trkpt lat="47.4413" lon="6.71877">
        <ele>458</ele>
        <time>2014-10-12T08:38:02.000Z</time>
      </trkpt>
      <trkpt lat="47.44127" lon="6.71874">
        <ele>455</ele>
        <time>2014-10-12T08:38:03.000Z</time>
      </trkpt>
      <trkpt lat="47.44125" lon="6.7187">
        <ele>451.7</ele>
        <time>2014-10-12T08:38:04.000Z</time>
      </trkpt>
      <trkpt lat="47.44122" lon="6.71866">
        <ele>451.7</ele>
        <time>2014-10-12T08:38:05.000Z</time>
      </trkpt>
      <trkpt lat="47.4412" lon="6.71863">
        <ele>451.4</ele>
        <time>2014-10-12T08:38:06.000Z</time>
      </trkpt>
      <trkpt lat="47.44117" lon="6.7186">
        <ele>450.3</ele>
        <time>2014-10-12T08:38:07.000Z</time>
      </trkpt>
      <trkpt lat="47.44115" lon="6.71857">
        <ele>450.2</ele>
        <time>2014-10-12T08:38:08.000Z</time>
      </trkpt>
      <trkpt lat="47.44112" lon="6.71854">
        <ele>450</ele>
        <time>2014-10-12T08:38:09.000Z</time>
      </trkpt>
      <trkpt lat="47.4411" lon="6.71851">
        <ele>451.2</ele>
        <time>2014-10-12T08:38:10.000Z</time>
      </trkpt>
      <trkpt lat="47.44108" lon="6.71848">
        <ele>454.9</ele>
        <time>2014-10-12T08:38:11.000Z</time>
      </trkpt>
      <trkpt lat="47.44106" lon="6.71846">
        <ele>457.6</ele>
        <time>2014-10-12T08:38:12.000Z</time>
      </trkpt>
      <trkpt lat="47.44104" lon="6.71842">
        <ele>462.2</ele>
        <time>2014-10-12T08:38:14.000Z</time>
      </trkpt>
      <trkpt lat="47.44103" lon="6.71841">
        <ele>464.2</ele>
        <time>2014-10-12T08:38:15.000Z</time>
      </trkpt>
      <trkpt lat="47.441" lon="6.71837">
        <ele>466.6</ele>
        <time>2014-10-12T08:38:17.000Z</time>
      </trkpt>
      <trkpt lat="47.44098" lon="6.71835">
        <ele>468.2</ele>
        <time>2014-10-12T08:38:18.000Z</time>
      </trkpt>
      <trkpt lat="47.44096" lon="6.71833">
        <ele>463.3</ele>
        <time>2014-10-12T08:38:19.000Z</time>
      </trkpt>
      <trkpt lat="47.44094" lon="6.71831">
        <ele>463.3</ele>
        <time>2014-10-12T08:38:20.000Z</time>
      </trkpt>
      <trkpt lat="47.44091" lon="6.7183">
        <ele>462.7</ele>
        <time>2014-10-12T08:38:21.000Z</time>
      </trkpt>
      <trkpt lat="47.44089" lon="6.71829">
        <ele>463.4</ele>
        <time>2014-10-12T08:38:22.000Z</time>
      </trkpt>
      <trkpt lat="47.44086" lon="6.71829">
        <ele>462.8</ele>
        <time>2014-10-12T08:38:23.000Z</time>
      </trkpt>
      <trkpt lat="47.44083" lon="6.71828">
        <ele>459.5</ele>
        <time>2014-10-12T08:38:24.000Z</time>
      </trkpt>
      <trkpt lat="47.44079" lon="6.71825">
        <ele>452.8</ele>
        <time>2014-10-12T08:38:26.000Z</time>
      </trkpt>
      <trkpt lat="47.44078" lon="6.71823">
        <ele>450.6</ele>
        <time>2014-10-12T08:38:27.000Z</time>
      </trkpt>
      <trkpt lat="47.44076" lon="6.71821">
        <ele>450.6</ele>
        <time>2014-10-12T08:38:28.000Z</time>
      </trkpt>
      <trkpt lat="47.44073" lon="6.71819">
        <ele>449.9</ele>
        <time>2014-10-12T08:38:29.000Z</time>
      </trkpt>
      <trkpt lat="47.4407" lon="6.71817">
        <ele>451</ele>
        <time>2014-10-12T08:38:30.000Z</time>
      </trkpt>
      <trkpt lat="47.44068" lon="6.71815">
        <ele>449.1</ele>
        <time>2014-10-12T08:38:31.000Z</time>
      </trkpt>
      <trkpt lat="47.44066" lon="6.71813">
        <ele>448.6</ele>
        <time>2014-10-12T08:38:32.000Z</time>
      </trkpt>
      <trkpt lat="47.44064" lon="6.71811">
        <ele>449.1</ele>
        <time>2014-10-12T08:38:33.000Z</time>
      </trkpt>
      <trkpt lat="47.44061" lon="6.71809">
        <ele>450.8</ele>
        <time>2014-10-12T08:38:34.000Z</time>
      </trkpt>
      <trkpt lat="47.44059" lon="6.71807">
        <ele>450.6</ele>
        <time>2014-10-12T08:38:35.000Z</time>
      </trkpt>
      <trkpt lat="47.44057" lon="6.71805">
        <ele>449.9</ele>
        <time>2014-10-12T08:38:36.000Z</time>
      </trkpt>
      <trkpt lat="47.44054" lon="6.71803">
        <ele>451.7</ele>
        <time>2014-10-12T08:38:37.000Z</time>
      </trkpt>
      <trkpt lat="47.44052" lon="6.71801">
        <ele>452.7</ele>
        <time>2014-10-12T08:38:38.000Z</time>
      </trkpt>
      <trkpt lat="47.4405" lon="6.71798">
        <ele>453</ele>
        <time>2014-10-12T08:38:39.000Z</time>
      </trkpt>
      <trkpt lat="47.44048" lon="6.71796">
        <ele>453.7</ele>
        <time>2014-10-12T08:38:40.000Z</time>
      </trkpt>
      <trkpt lat="47.44046" lon="6.71793">
        <ele>452.9</ele>
        <time>2014-10-12T08:38:41.000Z</time>
      </trkpt>
      <trkpt lat="47.44043" lon="6.71789">
        <ele>455.5</ele>
        <time>2014-10-12T08:38:43.000Z</time>
      </trkpt>
      <trkpt lat="47.44042" lon="6.71788">
        <ele>454.5</ele>
        <time>2014-10-12T08:38:44.000Z</time>
      </trkpt>
      <trkpt lat="47.44038" lon="6.71785">
        <ele>455</ele>
        <time>2014-10-12T08:38:46.000Z</time>
      </trkpt>
      <trkpt lat="47.44036" lon="6.71784">
        <ele>453.9</ele>
        <time>2014-10-12T08:38:47.000Z</time>
      </trkpt>
      <trkpt lat="47.44029" lon="6.71783">
        <ele>451.3</ele>
        <time>2014-10-12T08:38:51.000Z</time>
      </trkpt>
      <trkpt lat="47.44025" lon="6.71782">
        <ele>453.3</ele>
        <time>2014-10-12T08:38:53.000Z</time>
      </trkpt>
      <trkpt lat="47.44023" lon="6.71781">
        <ele>454.5</ele>
        <time>2014-10-12T08:38:54.000Z</time>
      </trkpt>
      <trkpt lat="47.44018" lon="6.71779">
        <ele>457.7</ele>
        <time>2014-10-12T08:38:56.000Z</time>
      </trkpt>
      <trkpt lat="47.44016" lon="6.71777">
        <ele>459</ele>
        <time>2014-10-12T08:38:57.000Z</time>
      </trkpt>
      <trkpt lat="47.44012" lon="6.71776">
        <ele>458</ele>
        <time>2014-10-12T08:38:59.000Z</time>
      </trkpt>
      <trkpt lat="47.44011" lon="6.71775">
        <ele>457.2</ele>
        <time>2014-10-12T08:39:00.000Z</time>
      </trkpt>
      <trkpt lat="47.44006" lon="6.71775">
        <ele>452.5</ele>
        <time>2014-10-12T08:39:03.000Z</time>
      </trkpt>
      <trkpt lat="47.44005" lon="6.71775">
        <ele>453.2</ele>
        <time>2014-10-12T08:39:04.000Z</time>
      </trkpt>
      <trkpt lat="47.44001" lon="6.71771">
        <ele>454.3</ele>
        <time>2014-10-12T08:39:07.000Z</time>
      </trkpt>
      <trkpt lat="47.44" lon="6.7177">
        <ele>453.3</ele>
        <time>2014-10-12T08:39:08.000Z</time>
      </trkpt>
      <trkpt lat="47.43997" lon="6.71767">
        <ele>456.4</ele>
        <time>2014-10-12T08:39:10.000Z</time>
      </trkpt>
      <trkpt lat="47.43995" lon="6.71765">
        <ele>456.6</ele>
        <time>2014-10-12T08:39:11.000Z</time>
      </trkpt>
      <trkpt lat="47.4399" lon="6.71764">
        <ele>454.2</ele>
        <time>2014-10-12T08:39:13.000Z</time>
      </trkpt>
      <trkpt lat="47.43988" lon="6.71764">
        <ele>453.3</ele>
        <time>2014-10-12T08:39:14.000Z</time>
      </trkpt>
      <trkpt lat="47.43984" lon="6.71764">
        <ele>452.5</ele>
        <time>2014-10-12T08:39:16.000Z</time>
      </trkpt>
      <trkpt lat="47.43982" lon="6.71764">
        <ele>454.1</ele>
        <time>2014-10-12T08:39:17.000Z</time>
      </trkpt>
      <trkpt lat="47.43978" lon="6.71763">
        <ele>452.3</ele>
        <time>2014-10-12T08:39:19.000Z</time>
      </trkpt>
      <trkpt lat="47.43976" lon="6.71762">
        <ele>451.9</ele>
        <time>2014-10-12T08:39:20.000Z</time>
      </trkpt>
      <trkpt lat="47.43972" lon="6.71761">
        <ele>455.3</ele>
        <time>2014-10-12T08:39:23.000Z</time>
      </trkpt>
      <trkpt lat="47.4397" lon="6.7176">
        <ele>454.1</ele>
        <time>2014-10-12T08:39:24.000Z</time>
      </trkpt>
      <trkpt lat="47.43968" lon="6.71757">
        <ele>453.7</ele>
        <time>2014-10-12T08:39:26.000Z</time>
      </trkpt>
      <trkpt lat="47.43966" lon="6.71755">
        <ele>453.4</ele>
        <time>2014-10-12T08:39:27.000Z</time>
      </trkpt>
      <trkpt lat="47.43963" lon="6.71753">
        <ele>448.9</ele>
        <time>2014-10-12T08:39:29.000Z</time>
      </trkpt>
      <trkpt lat="47.43962" lon="6.71752">
        <ele>451.5</ele>
        <time>2014-10-12T08:39:30.000Z</time>
      </trkpt>
      <trkpt lat="47.43958" lon="6.71751">
        <ele>455</ele>
        <time>2014-10-12T08:39:33.000Z</time>
      </trkpt>
      <trkpt lat="47.43957" lon="6.7175">
        <ele>456.6</ele>
        <time>2014-10-12T08:39:34.000Z</time>
      </trkpt>
      <trkpt lat="47.43953" lon="6.71748">
        <ele>457.6</ele>
        <time>2014-10-12T08:39:37.000Z</time>
      </trkpt>
      <trkpt lat="47.43951" lon="6.71747">
        <ele>459.4</ele>
        <time>2014-10-12T08:39:38.000Z</time>
      </trkpt>
      <trkpt lat="47.43948" lon="6.71744">
        <ele>461.2</ele>
        <time>2014-10-12T08:39:40.000Z</time>
      </trkpt>
      <trkpt lat="47.43946" lon="6.71742">
        <ele>462.9</ele>
        <time>2014-10-12T08:39:41.000Z</time>
      </trkpt>
      <trkpt lat="47.43944" lon="6.7174">
        <ele>464.1</ele>
        <time>2014-10-12T08:39:42.000Z</time>
      </trkpt>
      <trkpt lat="47.43942" lon="6.71738">
        <ele>465.7</ele>
        <time>2014-10-12T08:39:43.000Z</time>
      </trkpt>
      <trkpt lat="47.4394" lon="6.71736">
        <ele>465.4</ele>
        <time>2014-10-12T08:39:44.000Z</time>
      </trkpt>
      <trkpt lat="47.43938" lon="6.71735">
        <ele>464.8</ele>
        <time>2014-10-12T08:39:45.000Z</time>
      </trkpt>
      <trkpt lat="47.43936" lon="6.71733">
        <ele>465.4</ele>
        <time>2014-10-12T08:39:46.000Z</time>
      </trkpt>
      <trkpt lat="47.43933" lon="6.7173">
        <ele>467</ele>
        <time>2014-10-12T08:39:47.000Z</time>
      </trkpt>
      <trkpt lat="47.43929" lon="6.71725">
        <ele>466.2</ele>
        <time>2014-10-12T08:39:50.000Z</time>
      </trkpt>
      <trkpt lat="47.43925" lon="6.71723">
        <ele>467.5</ele>
        <time>2014-10-12T08:39:53.000Z</time>
      </trkpt>
      <trkpt lat="47.43924" lon="6.71722">
        <ele>468.4</ele>
        <time>2014-10-12T08:39:54.000Z</time>
      </trkpt>
      <trkpt lat="47.43921" lon="6.7172">
        <ele>468.9</ele>
        <time>2014-10-12T08:39:56.000Z</time>
      </trkpt>
      <trkpt lat="47.4392" lon="6.71719">
        <ele>470.2</ele>
        <time>2014-10-12T08:39:57.000Z</time>
      </trkpt>
      <trkpt lat="47.43917" lon="6.71716">
        <ele>470.9</ele>
        <time>2014-10-12T08:39:59.000Z</time>
      </trkpt>
      <trkpt lat="47.43915" lon="6.71715">
        <ele>471.1</ele>
        <time>2014-10-12T08:40:00.000Z</time>
      </trkpt>
      <trkpt lat="47.43912" lon="6.71712">
        <ele>471</ele>
        <time>2014-10-12T08:40:02.000Z</time>
      </trkpt>
      <trkpt lat="47.43909" lon="6.71711">
        <ele>471.5</ele>
        <time>2014-10-12T08:40:03.000Z</time>
      </trkpt>
      <trkpt lat="47.43906" lon="6.7171">
        <ele>471.3</ele>
        <time>2014-10-12T08:40:04.000Z</time>
      </trkpt>
      <trkpt lat="47.43903" lon="6.7171">
        <ele>471.1</ele>
        <time>2014-10-12T08:40:05.000Z</time>
      </trkpt>
      <trkpt lat="47.439" lon="6.71708">
        <ele>472.1</ele>
        <time>2014-10-12T08:40:06.000Z</time>
      </trkpt>
      <trkpt lat="47.43897" lon="6.71707">
        <ele>472.3</ele>
        <time>2014-10-12T08:40:07.000Z</time>
      </trkpt>
      <trkpt lat="47.43894" lon="6.71706">
        <ele>466</ele>
        <time>2014-10-12T08:40:08.000Z</time>
      </trkpt>
      <trkpt lat="47.4389" lon="6.71706">
        <ele>467.5</ele>
        <time>2014-10-12T08:40:09.000Z</time>
      </trkpt>
      <trkpt lat="47.43887" lon="6.71704">
        <ele>469.2</ele>
        <time>2014-10-12T08:40:10.000Z</time>
      </trkpt>
      <trkpt lat="47.43884" lon="6.71703">
        <ele>471.3</ele>
        <time>2014-10-12T08:40:11.000Z</time>
      </trkpt>
      <trkpt lat="47.43881" lon="6.717">
        <ele>471.5</ele>
        <time>2014-10-12T08:40:12.000Z</time>
      </trkpt>
      <trkpt lat="47.43878" lon="6.71697">
        <ele>471.9</ele>
        <time>2014-10-12T08:40:13.000Z</time>
      </trkpt>
      <trkpt lat="47.43876" lon="6.71694">
        <ele>472.4</ele>
        <time>2014-10-12T08:40:14.000Z</time>
      </trkpt>
      <trkpt lat="47.43873" lon="6.71692">
        <ele>472.6</ele>
        <time>2014-10-12T08:40:15.000Z</time>
      </trkpt>
      <trkpt lat="47.43871" lon="6.7169">
        <ele>471.9</ele>
        <time>2014-10-12T08:40:16.000Z</time>
      </trkpt>
      <trkpt lat="47.43868" lon="6.71688">
        <ele>472</ele>
        <time>2014-10-12T08:40:17.000Z</time>
      </trkpt>
      <trkpt lat="47.43866" lon="6.71688">
        <ele>472.1</ele>
        <time>2014-10-12T08:40:18.000Z</time>
      </trkpt>
      <trkpt lat="47.43864" lon="6.71688">
        <ele>469.9</ele>
        <time>2014-10-12T08:40:19.000Z</time>
      </trkpt>
      <trkpt lat="47.43861" lon="6.71688">
        <ele>470.3</ele>
        <time>2014-10-12T08:40:20.000Z</time>
      </trkpt>
      <trkpt lat="47.43858" lon="6.71689">
        <ele>470.9</ele>
        <time>2014-10-12T08:40:21.000Z</time>
      </trkpt>
      <trkpt lat="47.43855" lon="6.7169">
        <ele>472.1</ele>
        <time>2014-10-12T08:40:23.000Z</time>
      </trkpt>
      <trkpt lat="47.43853" lon="6.71689">
        <ele>472.5</ele>
        <time>2014-10-12T08:40:24.000Z</time>
      </trkpt>
      <trkpt lat="47.4385" lon="6.71685">
        <ele>474.5</ele>
        <time>2014-10-12T08:40:26.000Z</time>
      </trkpt>
      <trkpt lat="47.43849" lon="6.71682">
        <ele>475.4</ele>
        <time>2014-10-12T08:40:27.000Z</time>
      </trkpt>
      <trkpt lat="47.43847" lon="6.71677">
        <ele>475</ele>
        <time>2014-10-12T08:40:29.000Z</time>
      </trkpt>
      <trkpt lat="47.43846" lon="6.71674">
        <ele>481.4</ele>
        <time>2014-10-12T08:40:30.000Z</time>
      </trkpt>
      <trkpt lat="47.43842" lon="6.7167">
        <ele>483.4</ele>
        <time>2014-10-12T08:40:32.000Z</time>
      </trkpt>
      <trkpt lat="47.43841" lon="6.71668">
        <ele>483.8</ele>
        <time>2014-10-12T08:40:33.000Z</time>
      </trkpt>
      <trkpt lat="47.43838" lon="6.71663">
        <ele>486.3</ele>
        <time>2014-10-12T08:40:37.000Z</time>
      </trkpt>
      <trkpt lat="47.43837" lon="6.71662">
        <ele>486.8</ele>
        <time>2014-10-12T08:40:38.000Z</time>
      </trkpt>
      <trkpt lat="47.43834" lon="6.71656">
        <ele>487.8</ele>
        <time>2014-10-12T08:40:41.000Z</time>
      </trkpt>
      <trkpt lat="47.43834" lon="6.71654">
        <ele>488.6</ele>
        <time>2014-10-12T08:40:42.000Z</time>
      </trkpt>
      <trkpt lat="47.43833" lon="6.71648">
        <ele>485.7</ele>
        <time>2014-10-12T08:40:45.000Z</time>
      </trkpt>
      <trkpt lat="47.43833" lon="6.71646">
        <ele>486</ele>
        <time>2014-10-12T08:40:46.000Z</time>
      </trkpt>
      <trkpt lat="47.43833" lon="6.71644">
        <ele>487.8</ele>
        <time>2014-10-12T08:40:47.000Z</time>
      </trkpt>
      <trkpt lat="47.43829" lon="6.71633">
        <ele>485.7</ele>
        <time>2014-10-12T08:40:55.000Z</time>
      </trkpt>
      <trkpt lat="47.43828" lon="6.71628">
        <ele>486</ele>
        <time>2014-10-12T08:40:57.000Z</time>
      </trkpt>
      <trkpt lat="47.43828" lon="6.71625">
        <ele>485.7</ele>
        <time>2014-10-12T08:40:58.000Z</time>
      </trkpt>
      <trkpt lat="47.43828" lon="6.71619">
        <ele>485.7</ele>
        <time>2014-10-12T08:41:00.000Z</time>
      </trkpt>
      <trkpt lat="47.43828" lon="6.71617">
        <ele>486.1</ele>
        <time>2014-10-12T08:41:01.000Z</time>
      </trkpt>
      <trkpt lat="47.43827" lon="6.7161">
        <ele>488.2</ele>
        <time>2014-10-12T08:41:04.000Z</time>
      </trkpt>
      <trkpt lat="47.43827" lon="6.71608">
        <ele>487.9</ele>
        <time>2014-10-12T08:41:05.000Z</time>
      </trkpt>
      <trkpt lat="47.43827" lon="6.71603">
        <ele>489.5</ele>
        <time>2014-10-12T08:41:08.000Z</time>
      </trkpt>
      <trkpt lat="47.43827" lon="6.716">
        <ele>489.9</ele>
        <time>2014-10-12T08:41:09.000Z</time>
      </trkpt>
      <trkpt lat="47.43827" lon="6.71596">
        <ele>490.8</ele>
        <time>2014-10-12T08:41:10.000Z</time>
      </trkpt>
      <trkpt lat="47.43828" lon="6.71592">
        <ele>491.4</ele>
        <time>2014-10-12T08:41:11.000Z</time>
      </trkpt>
      <trkpt lat="47.43828" lon="6.71587">
        <ele>490.8</ele>
        <time>2014-10-12T08:41:12.000Z</time>
      </trkpt>
      <trkpt lat="47.43828" lon="6.71584">
        <ele>489.6</ele>
        <time>2014-10-12T08:41:13.000Z</time>
      </trkpt>
      <trkpt lat="47.43829" lon="6.71579">
        <ele>488.7</ele>
        <time>2014-10-12T08:41:15.000Z</time>
      </trkpt>
      <trkpt lat="47.43829" lon="6.71577">
        <ele>486.4</ele>
        <time>2014-10-12T08:41:16.000Z</time>
      </trkpt>
      <trkpt lat="47.43829" lon="6.7157">
        <ele>486.6</ele>
        <time>2014-10-12T08:41:21.000Z</time>
      </trkpt>
      <trkpt lat="47.43829" lon="6.7157">
        <ele>485.1</ele>
        <time>2014-10-12T08:41:22.000Z</time>
      </trkpt>
      <trkpt lat="47.43831" lon="6.71564">
        <ele>482</ele>
        <time>2014-10-12T08:41:27.000Z</time>
      </trkpt>
      <trkpt lat="47.43832" lon="6.71563">
        <ele>479.7</ele>
        <time>2014-10-12T08:41:28.000Z</time>
      </trkpt>
      <trkpt lat="47.43834" lon="6.71559">
        <ele>477.3</ele>
        <time>2014-10-12T08:41:31.000Z</time>
      </trkpt>
      <trkpt lat="47.43835" lon="6.71557">
        <ele>474.1</ele>
        <time>2014-10-12T08:41:32.000Z</time>
      </trkpt>
      <trkpt lat="47.43836" lon="6.71554">
        <ele>471.7</ele>
        <time>2014-10-12T08:41:33.000Z</time>
      </trkpt>
      <trkpt lat="47.43838" lon="6.71551">
        <ele>470.4</ele>
        <time>2014-10-12T08:41:34.000Z</time>
      </trkpt>
      <trkpt lat="47.43839" lon="6.71547">
        <ele>469.6</ele>
        <time>2014-10-12T08:41:35.000Z</time>
      </trkpt>
      <trkpt lat="47.43841" lon="6.71543">
        <ele>469.1</ele>
        <time>2014-10-12T08:41:36.000Z</time>
      </trkpt>
      <trkpt lat="47.43842" lon="6.71539">
        <ele>464.3</ele>
        <time>2014-10-12T08:41:37.000Z</time>
      </trkpt>
      <trkpt lat="47.43843" lon="6.71536">
        <ele>463.4</ele>
        <time>2014-10-12T08:41:38.000Z</time>
      </trkpt>
      <trkpt lat="47.43843" lon="6.7153">
        <ele>463.9</ele>
        <time>2014-10-12T08:41:40.000Z</time>
      </trkpt>
      <trkpt lat="47.43842" lon="6.71527">
        <ele>464.7</ele>
        <time>2014-10-12T08:41:41.000Z</time>
      </trkpt>
      <trkpt lat="47.43842" lon="6.71523">
        <ele>464.7</ele>
        <time>2014-10-12T08:41:42.000Z</time>
      </trkpt>
      <trkpt lat="47.4384" lon="6.71519">
        <ele>464.4</ele>
        <time>2014-10-12T08:41:43.000Z</time>
      </trkpt>
      <trkpt lat="47.43839" lon="6.71515">
        <ele>465.9</ele>
        <time>2014-10-12T08:41:44.000Z</time>
      </trkpt>
      <trkpt lat="47.43837" lon="6.71512">
        <ele>465.1</ele>
        <time>2014-10-12T08:41:45.000Z</time>
      </trkpt>
      <trkpt lat="47.43835" lon="6.71508">
        <ele>465.8</ele>
        <time>2014-10-12T08:41:46.000Z</time>
      </trkpt>
      <trkpt lat="47.43833" lon="6.71505">
        <ele>465.9</ele>
        <time>2014-10-12T08:41:47.000Z</time>
      </trkpt>
      <trkpt lat="47.4383" lon="6.71498">
        <ele>465.2</ele>
        <time>2014-10-12T08:41:50.000Z</time>
      </trkpt>
      <trkpt lat="47.43828" lon="6.71492">
        <ele>460.1</ele>
        <time>2014-10-12T08:41:53.000Z</time>
      </trkpt>
      <trkpt lat="47.43828" lon="6.7149">
        <ele>460.1</ele>
        <time>2014-10-12T08:41:54.000Z</time>
      </trkpt>
      <trkpt lat="47.43827" lon="6.71487">
        <ele>458.1</ele>
        <time>2014-10-12T08:41:55.000Z</time>
      </trkpt>
      <trkpt lat="47.43826" lon="6.71484">
        <ele>458</ele>
        <time>2014-10-12T08:41:56.000Z</time>
      </trkpt>
      <trkpt lat="47.43825" lon="6.7148">
        <ele>456.6</ele>
        <time>2014-10-12T08:41:57.000Z</time>
      </trkpt>
      <trkpt lat="47.43825" lon="6.71476">
        <ele>457</ele>
        <time>2014-10-12T08:41:58.000Z</time>
      </trkpt>
      <trkpt lat="47.43824" lon="6.71472">
        <ele>458.7</ele>
        <time>2014-10-12T08:41:59.000Z</time>
      </trkpt>
      <trkpt lat="47.43823" lon="6.71468">
        <ele>460.1</ele>
        <time>2014-10-12T08:42:00.000Z</time>
      </trkpt>
      <trkpt lat="47.43823" lon="6.71463">
        <ele>459.5</ele>
        <time>2014-10-12T08:42:01.000Z</time>
      </trkpt>
      <trkpt lat="47.43822" lon="6.71459">
        <ele>460.8</ele>
        <time>2014-10-12T08:42:02.000Z</time>
      </trkpt>
      <trkpt lat="47.43822" lon="6.71454">
        <ele>461.9</ele>
        <time>2014-10-12T08:42:03.000Z</time>
      </trkpt>
      <trkpt lat="47.43821" lon="6.7145">
        <ele>463.4</ele>
        <time>2014-10-12T08:42:04.000Z</time>
      </trkpt>
      <trkpt lat="47.4382" lon="6.71446">
        <ele>464</ele>
        <time>2014-10-12T08:42:05.000Z</time>
      </trkpt>
      <trkpt lat="47.43819" lon="6.71442">
        <ele>464.8</ele>
        <time>2014-10-12T08:42:06.000Z</time>
      </trkpt>
      <trkpt lat="47.43818" lon="6.71439">
        <ele>467.7</ele>
        <time>2014-10-12T08:42:07.000Z</time>
      </trkpt>
      <trkpt lat="47.43817" lon="6.71435">
        <ele>468.3</ele>
        <time>2014-10-12T08:42:08.000Z</time>
      </trkpt>
      <trkpt lat="47.43816" lon="6.71431">
        <ele>469</ele>
        <time>2014-10-12T08:42:09.000Z</time>
      </trkpt>
      <trkpt lat="47.43815" lon="6.71427">
        <ele>468.7</ele>
        <time>2014-10-12T08:42:10.000Z</time>
      </trkpt>
      <trkpt lat="47.43814" lon="6.71424">
        <ele>467.9</ele>
        <time>2014-10-12T08:42:11.000Z</time>
      </trkpt>
      <trkpt lat="47.43813" lon="6.7142">
        <ele>470.8</ele>
        <time>2014-10-12T08:42:12.000Z</time>
      </trkpt>
      <trkpt lat="47.43812" lon="6.71417">
        <ele>471.1</ele>
        <time>2014-10-12T08:42:13.000Z</time>
      </trkpt>
      <trkpt lat="47.43811" lon="6.71413">
        <ele>471.2</ele>
        <time>2014-10-12T08:42:14.000Z</time>
      </trkpt>
      <trkpt lat="47.43809" lon="6.71408">
        <ele>470.4</ele>
        <time>2014-10-12T08:42:16.000Z</time>
      </trkpt>
      <trkpt lat="47.43808" lon="6.71405">
        <ele>469.7</ele>
        <time>2014-10-12T08:42:17.000Z</time>
      </trkpt>
      <trkpt lat="47.43807" lon="6.71399">
        <ele>469.2</ele>
        <time>2014-10-12T08:42:19.000Z</time>
      </trkpt>
      <trkpt lat="47.43806" lon="6.71396">
        <ele>469.4</ele>
        <time>2014-10-12T08:42:20.000Z</time>
      </trkpt>
      <trkpt lat="47.43804" lon="6.7139">
        <ele>463.1</ele>
        <time>2014-10-12T08:42:22.000Z</time>
      </trkpt>
      <trkpt lat="47.43803" lon="6.71386">
        <ele>463.4</ele>
        <time>2014-10-12T08:42:23.000Z</time>
      </trkpt>
      <trkpt lat="47.43803" lon="6.71383">
        <ele>463.2</ele>
        <time>2014-10-12T08:42:24.000Z</time>
      </trkpt>
      <trkpt lat="47.43802" lon="6.7138">
        <ele>463.1</ele>
        <time>2014-10-12T08:42:25.000Z</time>
      </trkpt>
      <trkpt lat="47.43802" lon="6.71376">
        <ele>463.8</ele>
        <time>2014-10-12T08:42:26.000Z</time>
      </trkpt>
      <trkpt lat="47.43801" lon="6.71373">
        <ele>463</ele>
        <time>2014-10-12T08:42:27.000Z</time>
      </trkpt>
      <trkpt lat="47.438" lon="6.7137">
        <ele>462.3</ele>
        <time>2014-10-12T08:42:28.000Z</time>
      </trkpt>
      <trkpt lat="47.43799" lon="6.71365">
        <ele>462.3</ele>
        <time>2014-10-12T08:42:29.000Z</time>
      </trkpt>
      <trkpt lat="47.43798" lon="6.71359">
        <ele>463.8</ele>
        <time>2014-10-12T08:42:30.000Z</time>
      </trkpt>
      <trkpt lat="47.43796" lon="6.71352">
        <ele>463</ele>
        <time>2014-10-12T08:42:31.000Z</time>
      </trkpt>
      <trkpt lat="47.43795" lon="6.71345">
        <ele>456.6</ele>
        <time>2014-10-12T08:42:32.000Z</time>
      </trkpt>
      <trkpt lat="47.43794" lon="6.7134">
        <ele>454.5</ele>
        <time>2014-10-12T08:42:33.000Z</time>
      </trkpt>
      <trkpt lat="47.43793" lon="6.71334">
        <ele>455.3</ele>
        <time>2014-10-12T08:42:34.000Z</time>
      </trkpt>
      <trkpt lat="47.43792" lon="6.71329">
        <ele>455.5</ele>
        <time>2014-10-12T08:42:35.000Z</time>
      </trkpt>
      <trkpt lat="47.43789" lon="6.71318">
        <ele>454.4</ele>
        <time>2014-10-12T08:42:36.000Z</time>
      </trkpt>
      <trkpt lat="47.43787" lon="6.71312">
        <ele>455.2</ele>
        <time>2014-10-12T08:42:37.000Z</time>
      </trkpt>
      <trkpt lat="47.43786" lon="6.71307">
        <ele>455.5</ele>
        <time>2014-10-12T08:42:38.000Z</time>
      </trkpt>
      <trkpt lat="47.43787" lon="6.713">
        <ele>456.3</ele>
        <time>2014-10-12T08:42:39.000Z</time>
      </trkpt>
      <trkpt lat="47.43789" lon="6.71298">
        <ele>456</ele>
        <time>2014-10-12T08:42:40.000Z</time>
      </trkpt>
      <trkpt lat="47.43792" lon="6.71292">
        <ele>458.6</ele>
        <time>2014-10-12T08:42:41.000Z</time>
      </trkpt>
      <trkpt lat="47.43794" lon="6.71289">
        <ele>458.6</ele>
        <time>2014-10-12T08:42:42.000Z</time>
      </trkpt>
      <trkpt lat="47.43797" lon="6.71285">
        <ele>457.8</ele>
        <time>2014-10-12T08:42:43.000Z</time>
      </trkpt>
      <trkpt lat="47.438" lon="6.71282">
        <ele>458</ele>
        <time>2014-10-12T08:42:44.000Z</time>
      </trkpt>
      <trkpt lat="47.43802" lon="6.71281">
        <ele>457.9</ele>
        <time>2014-10-12T08:42:45.000Z</time>
      </trkpt>
      <trkpt lat="47.43804" lon="6.71278">
        <ele>461.6</ele>
        <time>2014-10-12T08:42:46.000Z</time>
      </trkpt>
      <trkpt lat="47.43807" lon="6.71275">
        <ele>463.5</ele>
        <time>2014-10-12T08:42:47.000Z</time>
      </trkpt>
      <trkpt lat="47.43822" lon="6.71258">
        <ele>463.1</ele>
        <time>2014-10-12T08:42:55.000Z</time>
      </trkpt>
      <trkpt lat="47.43824" lon="6.71252">
        <ele>465.1</ele>
        <time>2014-10-12T08:42:57.000Z</time>
      </trkpt>
      <trkpt lat="47.43824" lon="6.71248">
        <ele>466.9</ele>
        <time>2014-10-12T08:42:58.000Z</time>
      </trkpt>
      <trkpt lat="47.43824" lon="6.71242">
        <ele>467.6</ele>
        <time>2014-10-12T08:42:59.000Z</time>
      </trkpt>
      <trkpt lat="47.43824" lon="6.71237">
        <ele>467.9</ele>
        <time>2014-10-12T08:43:00.000Z</time>
      </trkpt>
      <trkpt lat="47.43825" lon="6.71232">
        <ele>469.1</ele>
        <time>2014-10-12T08:43:01.000Z</time>
      </trkpt>
      <trkpt lat="47.43826" lon="6.71228">
        <ele>470.3</ele>
        <time>2014-10-12T08:43:02.000Z</time>
      </trkpt>
      <trkpt lat="47.43828" lon="6.71225">
        <ele>473.1</ele>
        <time>2014-10-12T08:43:04.000Z</time>
      </trkpt>
      <trkpt lat="47.4383" lon="6.71224">
        <ele>471.9</ele>
        <time>2014-10-12T08:43:05.000Z</time>
      </trkpt>
      <trkpt lat="47.43833" lon="6.71221">
        <ele>474.5</ele>
        <time>2014-10-12T08:43:07.000Z</time>
      </trkpt>
      <trkpt lat="47.43835" lon="6.71219">
        <ele>474.8</ele>
        <time>2014-10-12T08:43:08.000Z</time>
      </trkpt>
      <trkpt lat="47.43836" lon="6.71217">
        <ele>475.1</ele>
        <time>2014-10-12T08:43:09.000Z</time>
      </trkpt>
      <trkpt lat="47.43838" lon="6.71215">
        <ele>474.6</ele>
        <time>2014-10-12T08:43:10.000Z</time>
      </trkpt>
      <trkpt lat="47.4384" lon="6.71213">
        <ele>472.9</ele>
        <time>2014-10-12T08:43:11.000Z</time>
      </trkpt>
      <trkpt lat="47.43842" lon="6.71211">
        <ele>472</ele>
        <time>2014-10-12T08:43:12.000Z</time>
      </trkpt>
      <trkpt lat="47.43844" lon="6.71209">
        <ele>472.1</ele>
        <time>2014-10-12T08:43:13.000Z</time>
      </trkpt>
      <trkpt lat="47.43846" lon="6.71207">
        <ele>472.4</ele>
        <time>2014-10-12T08:43:14.000Z</time>
      </trkpt>
      <trkpt lat="47.43848" lon="6.71205">
        <ele>472.3</ele>
        <time>2014-10-12T08:43:15.000Z</time>
      </trkpt>
      <trkpt lat="47.4385" lon="6.71203">
        <ele>471.7</ele>
        <time>2014-10-12T08:43:16.000Z</time>
      </trkpt>
      <trkpt lat="47.43853" lon="6.71202">
        <ele>470.7</ele>
        <time>2014-10-12T08:43:17.000Z</time>
      </trkpt>
      <trkpt lat="47.43855" lon="6.712">
        <ele>471</ele>
        <time>2014-10-12T08:43:18.000Z</time>
      </trkpt>
      <trkpt lat="47.43857" lon="6.71198">
        <ele>470.7</ele>
        <time>2014-10-12T08:43:19.000Z</time>
      </trkpt>
      <trkpt lat="47.4386" lon="6.71195">
        <ele>470.3</ele>
        <time>2014-10-12T08:43:20.000Z</time>
      </trkpt>
      <trkpt lat="47.43862" lon="6.71193">
        <ele>470.7</ele>
        <time>2014-10-12T08:43:21.000Z</time>
      </trkpt>
      <trkpt lat="47.43864" lon="6.71191">
        <ele>470.3</ele>
        <time>2014-10-12T08:43:22.000Z</time>
      </trkpt>
      <trkpt lat="47.43866" lon="6.71189">
        <ele>469.9</ele>
        <time>2014-10-12T08:43:23.000Z</time>
      </trkpt>
      <trkpt lat="47.43868" lon="6.71187">
        <ele>470</ele>
        <time>2014-10-12T08:43:24.000Z</time>
      </trkpt>
      <trkpt lat="47.4387" lon="6.71185">
        <ele>470.3</ele>
        <time>2014-10-12T08:43:25.000Z</time>
      </trkpt>
      <trkpt lat="47.43872" lon="6.71183">
        <ele>470.8</ele>
        <time>2014-10-12T08:43:26.000Z</time>
      </trkpt>
      <trkpt lat="47.43874" lon="6.71181">
        <ele>470.7</ele>
        <time>2014-10-12T08:43:27.000Z</time>
      </trkpt>
      <trkpt lat="47.43876" lon="6.71178">
        <ele>468.8</ele>
        <time>2014-10-12T08:43:28.000Z</time>
      </trkpt>
      <trkpt lat="47.43878" lon="6.71175">
        <ele>467.8</ele>
        <time>2014-10-12T08:43:29.000Z</time>
      </trkpt>
      <trkpt lat="47.43879" lon="6.71171">
        <ele>466.7</ele>
        <time>2014-10-12T08:43:30.000Z</time>
      </trkpt>
      <trkpt lat="47.4388" lon="6.71167">
        <ele>467.2</ele>
        <time>2014-10-12T08:43:31.000Z</time>
      </trkpt>
      <trkpt lat="47.4388" lon="6.71162">
        <ele>467.4</ele>
        <time>2014-10-12T08:43:32.000Z</time>
      </trkpt>
      <trkpt lat="47.43879" lon="6.71159">
        <ele>468.1</ele>
        <time>2014-10-12T08:43:33.000Z</time>
      </trkpt>
      <trkpt lat="47.43879" lon="6.71155">
        <ele>469.2</ele>
        <time>2014-10-12T08:43:34.000Z</time>
      </trkpt>
      <trkpt lat="47.43878" lon="6.71152">
        <ele>469.6</ele>
        <time>2014-10-12T08:43:35.000Z</time>
      </trkpt>
      <trkpt lat="47.43878" lon="6.71148">
        <ele>469.8</ele>
        <time>2014-10-12T08:43:36.000Z</time>
      </trkpt>
      <trkpt lat="47.43877" lon="6.71144">
        <ele>470.3</ele>
        <time>2014-10-12T08:43:37.000Z</time>
      </trkpt>
      <trkpt lat="47.43877" lon="6.7114">
        <ele>470.2</ele>
        <time>2014-10-12T08:43:38.000Z</time>
      </trkpt>
      <trkpt lat="47.43879" lon="6.71135">
        <ele>473.1</ele>
        <time>2014-10-12T08:43:51.000Z</time>
      </trkpt>
      <trkpt lat="47.43879" lon="6.71135">
        <ele>473.2</ele>
        <time>2014-10-12T08:43:52.000Z</time>
      </trkpt>
      <trkpt lat="47.43879" lon="6.71129">
        <ele>476</ele>
        <time>2014-10-12T08:50:15.000Z</time>
      </trkpt>
      <trkpt lat="47.43881" lon="6.71126">
        <ele>474.9</ele>
        <time>2014-10-12T08:50:16.000Z</time>
      </trkpt>
      <trkpt lat="47.43882" lon="6.7112">
        <ele>476.3</ele>
        <time>2014-10-12T08:58:39.000Z</time>
      </trkpt>
      <trkpt lat="47.43882" lon="6.71119">
        <ele>475.2</ele>
        <time>2014-10-12T08:58:40.000Z</time>
      </trkpt>
      <trkpt lat="47.43882" lon="6.71114">
        <ele>475.2</ele>
        <time>2014-10-12T08:58:42.000Z</time>
      </trkpt>
      <trkpt lat="47.43882" lon="6.71112">
        <ele>473.3</ele>
        <time>2014-10-12T08:58:43.000Z</time>
      </trkpt>
      <trkpt lat="47.43883" lon="6.71108">
        <ele>473.6</ele>
        <time>2014-10-12T08:58:45.000Z</time>
      </trkpt>
      <trkpt lat="47.43883" lon="6.71105">
        <ele>474.1</ele>
        <time>2014-10-12T08:58:46.000Z</time>
      </trkpt>
      <trkpt lat="47.43883" lon="6.71102">
        <ele>474</ele>
        <time>2014-10-12T08:58:47.000Z</time>
      </trkpt>
      <trkpt lat="47.43873" lon="6.71078">
        <ele>471</ele>
        <time>2014-10-12T08:58:55.000Z</time>
      </trkpt>
      <trkpt lat="47.43872" lon="6.71075">
        <ele>468.5</ele>
        <time>2014-10-12T08:58:56.000Z</time>
      </trkpt>
      <trkpt lat="47.43871" lon="6.7107">
        <ele>471.2</ele>
        <time>2014-10-12T08:58:57.000Z</time>
      </trkpt>
      <trkpt lat="47.4387" lon="6.71065">
        <ele>472</ele>
        <time>2014-10-12T08:58:58.000Z</time>
      </trkpt>
      <trkpt lat="47.43869" lon="6.71058">
        <ele>474.1</ele>
        <time>2014-10-12T08:58:59.000Z</time>
      </trkpt>
      <trkpt lat="47.43868" lon="6.71052">
        <ele>474.6</ele>
        <time>2014-10-12T08:59:00.000Z</time>
      </trkpt>
      <trkpt lat="47.43866" lon="6.71045">
        <ele>475.3</ele>
        <time>2014-10-12T08:59:01.000Z</time>
      </trkpt>
      <trkpt lat="47.43865" lon="6.71039">
        <ele>476.6</ele>
        <time>2014-10-12T08:59:02.000Z</time>
      </trkpt>
      <trkpt lat="47.43864" lon="6.71032">
        <ele>476.1</ele>
        <time>2014-10-12T08:59:03.000Z</time>
      </trkpt>
      <trkpt lat="47.43863" lon="6.71026">
        <ele>476.7</ele>
        <time>2014-10-12T08:59:04.000Z</time>
      </trkpt>
      <trkpt lat="47.43862" lon="6.7102">
        <ele>476.9</ele>
        <time>2014-10-12T08:59:05.000Z</time>
      </trkpt>
      <trkpt lat="47.43861" lon="6.71014">
        <ele>477.6</ele>
        <time>2014-10-12T08:59:06.000Z</time>
      </trkpt>
      <trkpt lat="47.43859" lon="6.71008">
        <ele>477.8</ele>
        <time>2014-10-12T08:59:07.000Z</time>
      </trkpt>
      <trkpt lat="47.43858" lon="6.71002">
        <ele>478.1</ele>
        <time>2014-10-12T08:59:08.000Z</time>
      </trkpt>
      <trkpt lat="47.43856" lon="6.70991">
        <ele>478</ele>
        <time>2014-10-12T08:59:09.000Z</time>
      </trkpt>
      <trkpt lat="47.43854" lon="6.70984">
        <ele>477.7</ele>
        <time>2014-10-12T08:59:10.000Z</time>
      </trkpt>
      <trkpt lat="47.43853" lon="6.70977">
        <ele>477.5</ele>
        <time>2014-10-12T08:59:11.000Z</time>
      </trkpt>
      <trkpt lat="47.43852" lon="6.70971">
        <ele>477.1</ele>
        <time>2014-10-12T08:59:12.000Z</time>
      </trkpt>
      <trkpt lat="47.43851" lon="6.70963">
        <ele>476.2</ele>
        <time>2014-10-12T08:59:13.000Z</time>
      </trkpt>
      <trkpt lat="47.4385" lon="6.70956">
        <ele>476.8</ele>
        <time>2014-10-12T08:59:14.000Z</time>
      </trkpt>
      <trkpt lat="47.43849" lon="6.70949">
        <ele>476.9</ele>
        <time>2014-10-12T08:59:15.000Z</time>
      </trkpt>
      <trkpt lat="47.43846" lon="6.70942">
        <ele>476.2</ele>
        <time>2014-10-12T08:59:16.000Z</time>
      </trkpt>
      <trkpt lat="47.43846" lon="6.70935">
        <ele>478</ele>
        <time>2014-10-12T08:59:17.000Z</time>
      </trkpt>
      <trkpt lat="47.43844" lon="6.70929">
        <ele>478.6</ele>
        <time>2014-10-12T08:59:18.000Z</time>
      </trkpt>
      <trkpt lat="47.43843" lon="6.70923">
        <ele>478.6</ele>
        <time>2014-10-12T08:59:19.000Z</time>
      </trkpt>
      <trkpt lat="47.43846" lon="6.7092">
        <ele>478.2</ele>
        <time>2014-10-12T08:59:20.000Z</time>
      </trkpt>
      <trkpt lat="47.43848" lon="6.70917">
        <ele>479.5</ele>
        <time>2014-10-12T08:59:21.000Z</time>
      </trkpt>
      <trkpt lat="47.43849" lon="6.70912">
        <ele>479.5</ele>
        <time>2014-10-12T08:59:22.000Z</time>
      </trkpt>
      <trkpt lat="47.4385" lon="6.70904">
        <ele>480.6</ele>
        <time>2014-10-12T08:59:23.000Z</time>
      </trkpt>
      <trkpt lat="47.4385" lon="6.70898">
        <ele>480.8</ele>
        <time>2014-10-12T08:59:24.000Z</time>
      </trkpt>
      <trkpt lat="47.4385" lon="6.70893">
        <ele>480.2</ele>
        <time>2014-10-12T08:59:25.000Z</time>
      </trkpt>
      <trkpt lat="47.43847" lon="6.70886">
        <ele>478.8</ele>
        <time>2014-10-12T08:59:26.000Z</time>
      </trkpt>
      <trkpt lat="47.43847" lon="6.7088">
        <ele>477.7</ele>
        <time>2014-10-12T08:59:27.000Z</time>
      </trkpt>
      <trkpt lat="47.43846" lon="6.70873">
        <ele>477.2</ele>
        <time>2014-10-12T08:59:28.000Z</time>
      </trkpt>
      <trkpt lat="47.43845" lon="6.70866">
        <ele>476.2</ele>
        <time>2014-10-12T08:59:29.000Z</time>
      </trkpt>
      <trkpt lat="47.43843" lon="6.70859">
        <ele>476.5</ele>
        <time>2014-10-12T08:59:30.000Z</time>
      </trkpt>
      <trkpt lat="47.43841" lon="6.70852">
        <ele>475.9</ele>
        <time>2014-10-12T08:59:31.000Z</time>
      </trkpt>
      <trkpt lat="47.43839" lon="6.70845">
        <ele>476</ele>
        <time>2014-10-12T08:59:32.000Z</time>
      </trkpt>
      <trkpt lat="47.43839" lon="6.70838">
        <ele>475.8</ele>
        <time>2014-10-12T08:59:33.000Z</time>
      </trkpt>
      <trkpt lat="47.43839" lon="6.7083">
        <ele>475</ele>
        <time>2014-10-12T08:59:34.000Z</time>
      </trkpt>
      <trkpt lat="47.43838" lon="6.70824">
        <ele>473.9</ele>
        <time>2014-10-12T08:59:35.000Z</time>
      </trkpt>
      <trkpt lat="47.43838" lon="6.70817">
        <ele>473.7</ele>
        <time>2014-10-12T08:59:36.000Z</time>
      </trkpt>
      <trkpt lat="47.43837" lon="6.7081">
        <ele>472.8</ele>
        <time>2014-10-12T08:59:37.000Z</time>
      </trkpt>
      <trkpt lat="47.43837" lon="6.70804">
        <ele>472.4</ele>
        <time>2014-10-12T08:59:38.000Z</time>
      </trkpt>
      <trkpt lat="47.43836" lon="6.70798">
        <ele>471.8</ele>
        <time>2014-10-12T08:59:39.000Z</time>
      </trkpt>
      <trkpt lat="47.43836" lon="6.70793">
        <ele>471.6</ele>
        <time>2014-10-12T08:59:40.000Z</time>
      </trkpt>
      <trkpt lat="47.43834" lon="6.7079">
        <ele>471.4</ele>
        <time>2014-10-12T08:59:41.000Z</time>
      </trkpt>
      <trkpt lat="47.43833" lon="6.70785">
        <ele>472.4</ele>
        <time>2014-10-12T08:59:42.000Z</time>
      </trkpt>
      <trkpt lat="47.43831" lon="6.7078">
        <ele>472.1</ele>
        <time>2014-10-12T08:59:43.000Z</time>
      </trkpt>
      <trkpt lat="47.43829" lon="6.70776">
        <ele>472.1</ele>
        <time>2014-10-12T08:59:44.000Z</time>
      </trkpt>
      <trkpt lat="47.43828" lon="6.70772">
        <ele>471.7</ele>
        <time>2014-10-12T08:59:45.000Z</time>
      </trkpt>
      <trkpt lat="47.43827" lon="6.70769">
        <ele>471</ele>
        <time>2014-10-12T08:59:46.000Z</time>
      </trkpt>
      <trkpt lat="47.43826" lon="6.70765">
        <ele>470.8</ele>
        <time>2014-10-12T08:59:47.000Z</time>
      </trkpt>
      <trkpt lat="47.43823" lon="6.70758">
        <ele>470.3</ele>
        <time>2014-10-12T08:59:50.000Z</time>
      </trkpt>
      <trkpt lat="47.43821" lon="6.70754">
        <ele>469.2</ele>
        <time>2014-10-12T08:59:52.000Z</time>
      </trkpt>
      <trkpt lat="47.43819" lon="6.70751">
        <ele>469.1</ele>
        <time>2014-10-12T08:59:53.000Z</time>
      </trkpt>
      <trkpt lat="47.43816" lon="6.70746">
        <ele>467.6</ele>
        <time>2014-10-12T08:59:55.000Z</time>
      </trkpt>
      <trkpt lat="47.43815" lon="6.70743">
        <ele>465.6</ele>
        <time>2014-10-12T08:59:56.000Z</time>
      </trkpt>
      <trkpt lat="47.43814" lon="6.70739">
        <ele>466.4</ele>
        <time>2014-10-12T08:59:57.000Z</time>
      </trkpt>
      <trkpt lat="47.43813" lon="6.70733">
        <ele>466.5</ele>
        <time>2014-10-12T08:59:58.000Z</time>
      </trkpt>
      <trkpt lat="47.43812" lon="6.70726">
        <ele>465.9</ele>
        <time>2014-10-12T08:59:59.000Z</time>
      </trkpt>
      <trkpt lat="47.43811" lon="6.70718">
        <ele>464.6</ele>
        <time>2014-10-12T09:00:00.000Z</time>
      </trkpt>
      <trkpt lat="47.4381" lon="6.7071">
        <ele>464.5</ele>
        <time>2014-10-12T09:00:01.000Z</time>
      </trkpt>
      <trkpt lat="47.43809" lon="6.70702">
        <ele>464.5</ele>
        <time>2014-10-12T09:00:02.000Z</time>
      </trkpt>
      <trkpt lat="47.43807" lon="6.70694">
        <ele>463.6</ele>
        <time>2014-10-12T09:00:03.000Z</time>
      </trkpt>
      <trkpt lat="47.43806" lon="6.70686">
        <ele>463.6</ele>
        <time>2014-10-12T09:00:04.000Z</time>
      </trkpt>
      <trkpt lat="47.43804" lon="6.70678">
        <ele>463</ele>
        <time>2014-10-12T09:00:05.000Z</time>
      </trkpt>
      <trkpt lat="47.43802" lon="6.7067">
        <ele>462.9</ele>
        <time>2014-10-12T09:00:06.000Z</time>
      </trkpt>
      <trkpt lat="47.43799" lon="6.70662">
        <ele>462.4</ele>
        <time>2014-10-12T09:00:07.000Z</time>
      </trkpt>
      <trkpt lat="47.43796" lon="6.70636">
        <ele>462.4</ele>
        <time>2014-10-12T09:00:08.000Z</time>
      </trkpt>
      <trkpt lat="47.43794" lon="6.70625">
        <ele>462.1</ele>
        <time>2014-10-12T09:00:09.000Z</time>
      </trkpt>
      <trkpt lat="47.4379" lon="6.70614">
        <ele>461.3</ele>
        <time>2014-10-12T09:00:10.000Z</time>
      </trkpt>
      <trkpt lat="47.43784" lon="6.70603">
        <ele>460.1</ele>
        <time>2014-10-12T09:00:11.000Z</time>
      </trkpt>
      <trkpt lat="47.4378" lon="6.70592">
        <ele>459.3</ele>
        <time>2014-10-12T09:00:12.000Z</time>
      </trkpt>
      <trkpt lat="47.43781" lon="6.70581">
        <ele>459.3</ele>
        <time>2014-10-12T09:00:13.000Z</time>
      </trkpt>
      <trkpt lat="47.43781" lon="6.70572">
        <ele>459.2</ele>
        <time>2014-10-12T09:00:14.000Z</time>
      </trkpt>
      <trkpt lat="47.4378" lon="6.70562">
        <ele>459.5</ele>
        <time>2014-10-12T09:00:15.000Z</time>
      </trkpt>
      <trkpt lat="47.43778" lon="6.70552">
        <ele>459.7</ele>
        <time>2014-10-12T09:00:16.000Z</time>
      </trkpt>
      <trkpt lat="47.43777" lon="6.7054">
        <ele>459.1</ele>
        <time>2014-10-12T09:00:17.000Z</time>
      </trkpt>
      <trkpt lat="47.43775" lon="6.70527">
        <ele>458.9</ele>
        <time>2014-10-12T09:00:18.000Z</time>
      </trkpt>
      <trkpt lat="47.43774" lon="6.70517">
        <ele>458.8</ele>
        <time>2014-10-12T09:00:19.000Z</time>
      </trkpt>
      <trkpt lat="47.43772" lon="6.70509">
        <ele>458.6</ele>
        <time>2014-10-12T09:00:20.000Z</time>
      </trkpt>
      <trkpt lat="47.43769" lon="6.70501">
        <ele>458.3</ele>
        <time>2014-10-12T09:00:21.000Z</time>
      </trkpt>
      <trkpt lat="47.43767" lon="6.70496">
        <ele>457.7</ele>
        <time>2014-10-12T09:00:22.000Z</time>
      </trkpt>
      <trkpt lat="47.43767" lon="6.70492">
        <ele>457.6</ele>
        <time>2014-10-12T09:00:23.000Z</time>
      </trkpt>
      <trkpt lat="47.43767" lon="6.70489">
        <ele>457.3</ele>
        <time>2014-10-12T09:00:24.000Z</time>
      </trkpt>
      <trkpt lat="47.43767" lon="6.70484">
        <ele>457.9</ele>
        <time>2014-10-12T09:00:25.000Z</time>
      </trkpt>
      <trkpt lat="47.43767" lon="6.7048">
        <ele>457.6</ele>
        <time>2014-10-12T09:00:26.000Z</time>
      </trkpt>
      <trkpt lat="47.43767" lon="6.70476">
        <ele>457</ele>
        <time>2014-10-12T09:00:27.000Z</time>
      </trkpt>
      <trkpt lat="47.43767" lon="6.70473">
        <ele>456.3</ele>
        <time>2014-10-12T09:00:28.000Z</time>
      </trkpt>
      <trkpt lat="47.43766" lon="6.70467">
        <ele>455.9</ele>
        <time>2014-10-12T09:00:29.000Z</time>
      </trkpt>
      <trkpt lat="47.43765" lon="6.70463">
        <ele>455.3</ele>
        <time>2014-10-12T09:00:30.000Z</time>
      </trkpt>
      <trkpt lat="47.43764" lon="6.70459">
        <ele>454.9</ele>
        <time>2014-10-12T09:00:31.000Z</time>
      </trkpt>
      <trkpt lat="47.43763" lon="6.70455">
        <ele>454.1</ele>
        <time>2014-10-12T09:00:32.000Z</time>
      </trkpt>
      <trkpt lat="47.43761" lon="6.70451">
        <ele>453.1</ele>
        <time>2014-10-12T09:00:33.000Z</time>
      </trkpt>
      <trkpt lat="47.4376" lon="6.70447">
        <ele>452.3</ele>
        <time>2014-10-12T09:00:34.000Z</time>
      </trkpt>
      <trkpt lat="47.43758" lon="6.70442">
        <ele>451.3</ele>
        <time>2014-10-12T09:00:35.000Z</time>
      </trkpt>
      <trkpt lat="47.43757" lon="6.70438">
        <ele>452.1</ele>
        <time>2014-10-12T09:00:36.000Z</time>
      </trkpt>
      <trkpt lat="47.43756" lon="6.70434">
        <ele>451.3</ele>
        <time>2014-10-12T09:00:37.000Z</time>
      </trkpt>
      <trkpt lat="47.43755" lon="6.7043">
        <ele>450</ele>
        <time>2014-10-12T09:00:39.000Z</time>
      </trkpt>
      <trkpt lat="47.43754" lon="6.70427">
        <ele>448.2</ele>
        <time>2014-10-12T09:00:40.000Z</time>
      </trkpt>
      <trkpt lat="47.43756" lon="6.70422">
        <ele>448.4</ele>
        <time>2014-10-12T09:00:42.000Z</time>
      </trkpt>
      <trkpt lat="47.43757" lon="6.70418">
        <ele>448.4</ele>
        <time>2014-10-12T09:00:43.000Z</time>
      </trkpt>
      <trkpt lat="47.43759" lon="6.70414">
        <ele>447.9</ele>
        <time>2014-10-12T09:00:44.000Z</time>
      </trkpt>
      <trkpt lat="47.43761" lon="6.7041">
        <ele>447.7</ele>
        <time>2014-10-12T09:00:45.000Z</time>
      </trkpt>
      <trkpt lat="47.43763" lon="6.70407">
        <ele>447.6</ele>
        <time>2014-10-12T09:00:46.000Z</time>
      </trkpt>
      <trkpt lat="47.43765" lon="6.70403">
        <ele>447.5</ele>
        <time>2014-10-12T09:00:47.000Z</time>
      </trkpt>
      <trkpt lat="47.43765" lon="6.70391">
        <ele>448.9</ele>
        <time>2014-10-12T09:00:55.000Z</time>
      </trkpt>
      <trkpt lat="47.43766" lon="6.70387">
        <ele>448.6</ele>
        <time>2014-10-12T09:00:56.000Z</time>
      </trkpt>
      <trkpt lat="47.43767" lon="6.70381">
        <ele>447.1</ele>
        <time>2014-10-12T09:00:57.000Z</time>
      </trkpt>
      <trkpt lat="47.43769" lon="6.70374">
        <ele>445.1</ele>
        <time>2014-10-12T09:00:58.000Z</time>
      </trkpt>
      <trkpt lat="47.4377" lon="6.70371">
        <ele>445.1</ele>
        <time>2014-10-12T09:00:59.000Z</time>
      </trkpt>
      <trkpt lat="47.43772" lon="6.70366">
        <ele>444.7</ele>
        <time>2014-10-12T09:01:00.000Z</time>
      </trkpt>
      <trkpt lat="47.43773" lon="6.70364">
        <ele>445.3</ele>
        <time>2014-10-12T09:01:01.000Z</time>
      </trkpt>
      <trkpt lat="47.43774" lon="6.7036">
        <ele>443.4</ele>
        <time>2014-10-12T09:01:02.000Z</time>
      </trkpt>
      <trkpt lat="47.43776" lon="6.70357">
        <ele>442.3</ele>
        <time>2014-10-12T09:01:03.000Z</time>
      </trkpt>
      <trkpt lat="47.43778" lon="6.70354">
        <ele>442.8</ele>
        <time>2014-10-12T09:01:04.000Z</time>
      </trkpt>
      <trkpt lat="47.4378" lon="6.70351">
        <ele>442.8</ele>
        <time>2014-10-12T09:01:05.000Z</time>
      </trkpt>
      <trkpt lat="47.43782" lon="6.70348">
        <ele>443.1</ele>
        <time>2014-10-12T09:01:06.000Z</time>
      </trkpt>
      <trkpt lat="47.43785" lon="6.70347">
        <ele>443.1</ele>
        <time>2014-10-12T09:01:07.000Z</time>
      </trkpt>
      <trkpt lat="47.43788" lon="6.70345">
        <ele>443.6</ele>
        <time>2014-10-12T09:01:08.000Z</time>
      </trkpt>
      <trkpt lat="47.43791" lon="6.70344">
        <ele>444.1</ele>
        <time>2014-10-12T09:01:09.000Z</time>
      </trkpt>
      <trkpt lat="47.43793" lon="6.70342">
        <ele>443.8</ele>
        <time>2014-10-12T09:01:10.000Z</time>
      </trkpt>
      <trkpt lat="47.43795" lon="6.7034">
        <ele>442.2</ele>
        <time>2014-10-12T09:01:11.000Z</time>
      </trkpt>
      <trkpt lat="47.43798" lon="6.70336">
        <ele>441.6</ele>
        <time>2014-10-12T09:01:12.000Z</time>
      </trkpt>
      <trkpt lat="47.438" lon="6.70333">
        <ele>441.2</ele>
        <time>2014-10-12T09:01:13.000Z</time>
      </trkpt>
      <trkpt lat="47.43802" lon="6.70331">
        <ele>441.6</ele>
        <time>2014-10-12T09:01:14.000Z</time>
      </trkpt>
      <trkpt lat="47.43805" lon="6.70325">
        <ele>443</ele>
        <time>2014-10-12T09:01:17.000Z</time>
      </trkpt>
      <trkpt lat="47.43805" lon="6.70325">
        <ele>441.1</ele>
        <time>2014-10-12T09:01:18.000Z</time>
      </trkpt>
      <trkpt lat="47.43808" lon="6.70321">
        <ele>440.2</ele>
        <time>2014-10-12T09:01:20.000Z</time>
      </trkpt>
      <trkpt lat="47.4381" lon="6.70319">
        <ele>440.8</ele>
        <time>2014-10-12T09:01:21.000Z</time>
      </trkpt>
      <trkpt lat="47.43812" lon="6.70317">
        <ele>440.3</ele>
        <time>2014-10-12T09:01:22.000Z</time>
      </trkpt>
      <trkpt lat="47.43814" lon="6.70314">
        <ele>440.3</ele>
        <time>2014-10-12T09:01:23.000Z</time>
      </trkpt>
      <trkpt lat="47.43816" lon="6.70309">
        <ele>442</ele>
        <time>2014-10-12T09:01:25.000Z</time>
      </trkpt>
      <trkpt lat="47.43817" lon="6.70307">
        <ele>442.7</ele>
        <time>2014-10-12T09:01:26.000Z</time>
      </trkpt>
      <trkpt lat="47.43819" lon="6.70302">
        <ele>443.7</ele>
        <time>2014-10-12T09:01:28.000Z</time>
      </trkpt>
      <trkpt lat="47.4382" lon="6.703">
        <ele>444.2</ele>
        <time>2014-10-12T09:01:29.000Z</time>
      </trkpt>
      <trkpt lat="47.43822" lon="6.70297">
        <ele>445.1</ele>
        <time>2014-10-12T09:01:30.000Z</time>
      </trkpt>
      <trkpt lat="47.43824" lon="6.70294">
        <ele>445.3</ele>
        <time>2014-10-12T09:01:31.000Z</time>
      </trkpt>
      <trkpt lat="47.43826" lon="6.70291">
        <ele>445.7</ele>
        <time>2014-10-12T09:01:32.000Z</time>
      </trkpt>
      <trkpt lat="47.43829" lon="6.70288">
        <ele>446.8</ele>
        <time>2014-10-12T09:01:33.000Z</time>
      </trkpt>
      <trkpt lat="47.43831" lon="6.70285">
        <ele>447.2</ele>
        <time>2014-10-12T09:01:34.000Z</time>
      </trkpt>
      <trkpt lat="47.43834" lon="6.70282">
        <ele>447.9</ele>
        <time>2014-10-12T09:01:35.000Z</time>
      </trkpt>
      <trkpt lat="47.43837" lon="6.70279">
        <ele>449.2</ele>
        <time>2014-10-12T09:01:36.000Z</time>
      </trkpt>
      <trkpt lat="47.4384" lon="6.70276">
        <ele>449.3</ele>
        <time>2014-10-12T09:01:37.000Z</time>
      </trkpt>
      <trkpt lat="47.43842" lon="6.70273">
        <ele>449.7</ele>
        <time>2014-10-12T09:01:38.000Z</time>
      </trkpt>
      <trkpt lat="47.43844" lon="6.70269">
        <ele>450.5</ele>
        <time>2014-10-12T09:01:39.000Z</time>
      </trkpt>
      <trkpt lat="47.43846" lon="6.70265">
        <ele>449.7</ele>
        <time>2014-10-12T09:01:40.000Z</time>
      </trkpt>
      <trkpt lat="47.43849" lon="6.7026">
        <ele>450.1</ele>
        <time>2014-10-12T09:01:41.000Z</time>
      </trkpt>
      <trkpt lat="47.43851" lon="6.70256">
        <ele>448.7</ele>
        <time>2014-10-12T09:01:42.000Z</time>
      </trkpt>
      <trkpt lat="47.43853" lon="6.70252">
        <ele>447.5</ele>
        <time>2014-10-12T09:01:43.000Z</time>
      </trkpt>
      <trkpt lat="47.43855" lon="6.70248">
        <ele>446</ele>
        <time>2014-10-12T09:01:44.000Z</time>
      </trkpt>
      <trkpt lat="47.43858" lon="6.70242">
        <ele>445</ele>
        <time>2014-10-12T09:01:45.000Z</time>
      </trkpt>
      <trkpt lat="47.43862" lon="6.70236">
        <ele>444.3</ele>
        <time>2014-10-12T09:01:46.000Z</time>
      </trkpt>
      <trkpt lat="47.43866" lon="6.70229">
        <ele>443.1</ele>
        <time>2014-10-12T09:01:47.000Z</time>
      </trkpt>
      <trkpt lat="47.43877" lon="6.70205">
        <ele>443.7</ele>
        <time>2014-10-12T09:01:51.000Z</time>
      </trkpt>
      <trkpt lat="47.43879" lon="6.70198">
        <ele>444.5</ele>
        <time>2014-10-12T09:01:52.000Z</time>
      </trkpt>
      <trkpt lat="47.43881" lon="6.70192">
        <ele>446.1</ele>
        <time>2014-10-12T09:01:53.000Z</time>
      </trkpt>
      <trkpt lat="47.43884" lon="6.70187">
        <ele>446.8</ele>
        <time>2014-10-12T09:01:54.000Z</time>
      </trkpt>
      <trkpt lat="47.43886" lon="6.70181">
        <ele>447.5</ele>
        <time>2014-10-12T09:01:55.000Z</time>
      </trkpt>
      <trkpt lat="47.43889" lon="6.70177">
        <ele>448.2</ele>
        <time>2014-10-12T09:01:56.000Z</time>
      </trkpt>
      <trkpt lat="47.43891" lon="6.70173">
        <ele>448.7</ele>
        <time>2014-10-12T09:01:57.000Z</time>
      </trkpt>
      <trkpt lat="47.43895" lon="6.70169">
        <ele>450.1</ele>
        <time>2014-10-12T09:01:58.000Z</time>
      </trkpt>
      <trkpt lat="47.43898" lon="6.70166">
        <ele>451.1</ele>
        <time>2014-10-12T09:01:59.000Z</time>
      </trkpt>
      <trkpt lat="47.43901" lon="6.70163">
        <ele>451.5</ele>
        <time>2014-10-12T09:02:00.000Z</time>
      </trkpt>
      <trkpt lat="47.43904" lon="6.7016">
        <ele>447</ele>
        <time>2014-10-12T09:02:01.000Z</time>
      </trkpt>
      <trkpt lat="47.43908" lon="6.70157">
        <ele>447</ele>
        <time>2014-10-12T09:02:02.000Z</time>
      </trkpt>
      <trkpt lat="47.43911" lon="6.70154">
        <ele>446.9</ele>
        <time>2014-10-12T09:02:03.000Z</time>
      </trkpt>
      <trkpt lat="47.43914" lon="6.70152">
        <ele>447.7</ele>
        <time>2014-10-12T09:02:04.000Z</time>
      </trkpt>
      <trkpt lat="47.43917" lon="6.7015">
        <ele>448</ele>
        <time>2014-10-12T09:02:05.000Z</time>
      </trkpt>
      <trkpt lat="47.4392" lon="6.70149">
        <ele>448.8</ele>
        <time>2014-10-12T09:02:06.000Z</time>
      </trkpt>
      <trkpt lat="47.43922" lon="6.70148">
        <ele>449.7</ele>
        <time>2014-10-12T09:02:07.000Z</time>
      </trkpt>
      <trkpt lat="47.43925" lon="6.70147">
        <ele>450.3</ele>
        <time>2014-10-12T09:02:08.000Z</time>
      </trkpt>
      <trkpt lat="47.43928" lon="6.70146">
        <ele>447</ele>
        <time>2014-10-12T09:02:09.000Z</time>
      </trkpt>
      <trkpt lat="47.43931" lon="6.70145">
        <ele>446.7</ele>
        <time>2014-10-12T09:02:10.000Z</time>
      </trkpt>
      <trkpt lat="47.43935" lon="6.70145">
        <ele>448.9</ele>
        <time>2014-10-12T09:02:11.000Z</time>
      </trkpt>
      <trkpt lat="47.43938" lon="6.70146">
        <ele>449.2</ele>
        <time>2014-10-12T09:02:12.000Z</time>
      </trkpt>
      <trkpt lat="47.4394" lon="6.70147">
        <ele>451.9</ele>
        <time>2014-10-12T09:02:13.000Z</time>
      </trkpt>
      <trkpt lat="47.43943" lon="6.70149">
        <ele>452.9</ele>
        <time>2014-10-12T09:02:14.000Z</time>
      </trkpt>
      <trkpt lat="47.43945" lon="6.70151">
        <ele>452.3</ele>
        <time>2014-10-12T09:02:15.000Z</time>
      </trkpt>
      <trkpt lat="47.43946" lon="6.70153">
        <ele>452.6</ele>
        <time>2014-10-12T09:02:16.000Z</time>
      </trkpt>
      <trkpt lat="47.43948" lon="6.70154">
        <ele>452.4</ele>
        <time>2014-10-12T09:02:17.000Z</time>
      </trkpt>
      <trkpt lat="47.4395" lon="6.70156">
        <ele>452.9</ele>
        <time>2014-10-12T09:02:18.000Z</time>
      </trkpt>
      <trkpt lat="47.43953" lon="6.70157">
        <ele>454.1</ele>
        <time>2014-10-12T09:02:19.000Z</time>
      </trkpt>
      <trkpt lat="47.43956" lon="6.7016">
        <ele>455.2</ele>
        <time>2014-10-12T09:02:21.000Z</time>
      </trkpt>
      <trkpt lat="47.4396" lon="6.70163">
        <ele>455.5</ele>
        <time>2014-10-12T09:02:22.000Z</time>
      </trkpt>
      <trkpt lat="47.43963" lon="6.70165">
        <ele>455.1</ele>
        <time>2014-10-12T09:02:23.000Z</time>
      </trkpt>
      <trkpt lat="47.43965" lon="6.70166">
        <ele>454.8</ele>
        <time>2014-10-12T09:02:24.000Z</time>
      </trkpt>
      <trkpt lat="47.43967" lon="6.70168">
        <ele>454.7</ele>
        <time>2014-10-12T09:02:25.000Z</time>
      </trkpt>
      <trkpt lat="47.43969" lon="6.70171">
        <ele>454.5</ele>
        <time>2014-10-12T09:02:26.000Z</time>
      </trkpt>
      <trkpt lat="47.43972" lon="6.70172">
        <ele>452.9</ele>
        <time>2014-10-12T09:02:27.000Z</time>
      </trkpt>
      <trkpt lat="47.43976" lon="6.70174">
        <ele>452.1</ele>
        <time>2014-10-12T09:02:28.000Z</time>
      </trkpt>
      <trkpt lat="47.4398" lon="6.70176">
        <ele>452.6</ele>
        <time>2014-10-12T09:02:29.000Z</time>
      </trkpt>
      <trkpt lat="47.43983" lon="6.70178">
        <ele>456.3</ele>
        <time>2014-10-12T09:02:30.000Z</time>
      </trkpt>
      <trkpt lat="47.43985" lon="6.7018">
        <ele>455.9</ele>
        <time>2014-10-12T09:02:31.000Z</time>
      </trkpt>
      <trkpt lat="47.43986" lon="6.70182">
        <ele>456.8</ele>
        <time>2014-10-12T09:02:32.000Z</time>
      </trkpt>
      <trkpt lat="47.43989" lon="6.70187">
        <ele>457.1</ele>
        <time>2014-10-12T09:02:34.000Z</time>
      </trkpt>
      <trkpt lat="47.43991" lon="6.70189">
        <ele>455.8</ele>
        <time>2014-10-12T09:02:35.000Z</time>
      </trkpt>
      <trkpt lat="47.43994" lon="6.70191">
        <ele>457.4</ele>
        <time>2014-10-12T09:02:36.000Z</time>
      </trkpt>
      <trkpt lat="47.43996" lon="6.70192">
        <ele>458.4</ele>
        <time>2014-10-12T09:02:37.000Z</time>
      </trkpt>
      <trkpt lat="47.43999" lon="6.70193">
        <ele>456.4</ele>
        <time>2014-10-12T09:02:38.000Z</time>
      </trkpt>
      <trkpt lat="47.44001" lon="6.70194">
        <ele>457.1</ele>
        <time>2014-10-12T09:02:39.000Z</time>
      </trkpt>
      <trkpt lat="47.44003" lon="6.70195">
        <ele>458.3</ele>
        <time>2014-10-12T09:02:40.000Z</time>
      </trkpt>
      <trkpt lat="47.44005" lon="6.70196">
        <ele>460.1</ele>
        <time>2014-10-12T09:02:41.000Z</time>
      </trkpt>
      <trkpt lat="47.44009" lon="6.70197">
        <ele>459.8</ele>
        <time>2014-10-12T09:02:43.000Z</time>
      </trkpt>
      <trkpt lat="47.44011" lon="6.70198">
        <ele>459</ele>
        <time>2014-10-12T09:02:44.000Z</time>
      </trkpt>
      <trkpt lat="47.44014" lon="6.70199">
        <ele>461.5</ele>
        <time>2014-10-12T09:02:46.000Z</time>
      </trkpt>
      <trkpt lat="47.44016" lon="6.702">
        <ele>461.5</ele>
        <time>2014-10-12T09:02:47.000Z</time>
      </trkpt>
      <trkpt lat="47.4402" lon="6.702">
        <ele>461.3</ele>
        <time>2014-10-12T09:02:50.000Z</time>
      </trkpt>
      <trkpt lat="47.44021" lon="6.702">
        <ele>461.1</ele>
        <time>2014-10-12T09:02:51.000Z</time>
      </trkpt>
      <trkpt lat="47.44025" lon="6.70198">
        <ele>456</ele>
        <time>2014-10-12T09:02:53.000Z</time>
      </trkpt>
      <trkpt lat="47.44027" lon="6.70197">
        <ele>455.1</ele>
        <time>2014-10-12T09:02:54.000Z</time>
      </trkpt>
      <trkpt lat="47.44029" lon="6.70195">
        <ele>454.9</ele>
        <time>2014-10-12T09:02:55.000Z</time>
      </trkpt>
      <trkpt lat="47.44031" lon="6.70193">
        <ele>453.8</ele>
        <time>2014-10-12T09:02:56.000Z</time>
      </trkpt>
      <trkpt lat="47.44033" lon="6.70191">
        <ele>453.2</ele>
        <time>2014-10-12T09:02:57.000Z</time>
      </trkpt>
      <trkpt lat="47.44035" lon="6.70189">
        <ele>453.2</ele>
        <time>2014-10-12T09:02:58.000Z</time>
      </trkpt>
      <trkpt lat="47.44038" lon="6.70187">
        <ele>452.9</ele>
        <time>2014-10-12T09:02:59.000Z</time>
      </trkpt>
      <trkpt lat="47.4404" lon="6.70185">
        <ele>452.6</ele>
        <time>2014-10-12T09:03:00.000Z</time>
      </trkpt>
      <trkpt lat="47.44042" lon="6.70183">
        <ele>451.9</ele>
        <time>2014-10-12T09:03:01.000Z</time>
      </trkpt>
      <trkpt lat="47.44044" lon="6.70181">
        <ele>452.1</ele>
        <time>2014-10-12T09:03:02.000Z</time>
      </trkpt>
      <trkpt lat="47.44046" lon="6.70176">
        <ele>450.6</ele>
        <time>2014-10-12T09:03:04.000Z</time>
      </trkpt>
      <trkpt lat="47.44047" lon="6.70174">
        <ele>449.6</ele>
        <time>2014-10-12T09:03:05.000Z</time>
      </trkpt>
      <trkpt lat="47.44048" lon="6.70169">
        <ele>446</ele>
        <time>2014-10-12T09:03:09.000Z</time>
      </trkpt>
      <trkpt lat="47.44048" lon="6.70167">
        <ele>445.3</ele>
        <time>2014-10-12T09:03:10.000Z</time>
      </trkpt>
      <trkpt lat="47.44049" lon="6.70161">
        <ele>441.5</ele>
        <time>2014-10-12T09:03:16.000Z</time>
      </trkpt>
      <trkpt lat="47.44049" lon="6.7016">
        <ele>441.2</ele>
        <time>2014-10-12T09:03:17.000Z</time>
      </trkpt>
      <trkpt lat="47.44046" lon="6.70155">
        <ele>437</ele>
        <time>2014-10-12T09:03:21.000Z</time>
      </trkpt>
      <trkpt lat="47.44044" lon="6.70155">
        <ele>436.2</ele>
        <time>2014-10-12T09:03:22.000Z</time>
      </trkpt>
      <trkpt lat="47.4404" lon="6.70151">
        <ele>437.1</ele>
        <time>2014-10-12T09:03:25.000Z</time>
      </trkpt>
      <trkpt lat="47.4404" lon="6.70148">
        <ele>440.8</ele>
        <time>2014-10-12T09:03:26.000Z</time>
      </trkpt>
      <trkpt lat="47.44041" lon="6.70142">
        <ele>444.1</ele>
        <time>2014-10-12T09:03:28.000Z</time>
      </trkpt>
      <trkpt lat="47.44041" lon="6.7014">
        <ele>444</ele>
        <time>2014-10-12T09:03:29.000Z</time>
      </trkpt>
      <trkpt lat="47.44043" lon="6.70133">
        <ele>444.6</ele>
        <time>2014-10-12T09:03:32.000Z</time>
      </trkpt>
      <trkpt lat="47.44043" lon="6.70132">
        <ele>443.1</ele>
        <time>2014-10-12T09:03:33.000Z</time>
      </trkpt>
      <trkpt lat="47.44042" lon="6.70126">
        <ele>441.8</ele>
        <time>2014-10-12T09:03:43.000Z</time>
      </trkpt>
      <trkpt lat="47.44043" lon="6.70125">
        <ele>441.1</ele>
        <time>2014-10-12T09:03:44.000Z</time>
      </trkpt>
      <trkpt lat="47.44044" lon="6.70122">
        <ele>439.5</ele>
        <time>2014-10-12T09:03:47.000Z</time>
      </trkpt>
      <trkpt lat="47.44048" lon="6.70113">
        <ele>440.3</ele>
        <time>2014-10-12T09:03:55.000Z</time>
      </trkpt>
      <trkpt lat="47.4405" lon="6.70107">
        <ele>440.4</ele>
        <time>2014-10-12T09:03:58.000Z</time>
      </trkpt>
      <trkpt lat="47.4405" lon="6.70105">
        <ele>440.6</ele>
        <time>2014-10-12T09:03:59.000Z</time>
      </trkpt>
      <trkpt lat="47.44052" lon="6.701">
        <ele>440</ele>
        <time>2014-10-12T09:04:02.000Z</time>
      </trkpt>
      <trkpt lat="47.44052" lon="6.70098">
        <ele>437.9</ele>
        <time>2014-10-12T09:04:03.000Z</time>
      </trkpt>
      <trkpt lat="47.44052" lon="6.70093">
        <ele>437.2</ele>
        <time>2014-10-12T09:04:05.000Z</time>
      </trkpt>
      <trkpt lat="47.44051" lon="6.70091">
        <ele>437.1</ele>
        <time>2014-10-12T09:04:06.000Z</time>
      </trkpt>
      <trkpt lat="47.44051" lon="6.70087">
        <ele>437.4</ele>
        <time>2014-10-12T09:04:07.000Z</time>
      </trkpt>
      <trkpt lat="47.4405" lon="6.70083">
        <ele>437.9</ele>
        <time>2014-10-12T09:04:08.000Z</time>
      </trkpt>
      <trkpt lat="47.4405" lon="6.70078">
        <ele>437.4</ele>
        <time>2014-10-12T09:04:09.000Z</time>
      </trkpt>
      <trkpt lat="47.44051" lon="6.70073">
        <ele>437.1</ele>
        <time>2014-10-12T09:04:10.000Z</time>
      </trkpt>
      <trkpt lat="47.44051" lon="6.70068">
        <ele>437.5</ele>
        <time>2014-10-12T09:04:11.000Z</time>
      </trkpt>
      <trkpt lat="47.44051" lon="6.70063">
        <ele>437.8</ele>
        <time>2014-10-12T09:04:12.000Z</time>
      </trkpt>
      <trkpt lat="47.44051" lon="6.70058">
        <ele>436.9</ele>
        <time>2014-10-12T09:04:13.000Z</time>
      </trkpt>
      <trkpt lat="47.44051" lon="6.70053">
        <ele>436.4</ele>
        <time>2014-10-12T09:04:14.000Z</time>
      </trkpt>
      <trkpt lat="47.44051" lon="6.7005">
        <ele>435.6</ele>
        <time>2014-10-12T09:04:15.000Z</time>
      </trkpt>
      <trkpt lat="47.44051" lon="6.70046">
        <ele>433.7</ele>
        <time>2014-10-12T09:04:16.000Z</time>
      </trkpt>
      <trkpt lat="47.44051" lon="6.70042">
        <ele>434.8</ele>
        <time>2014-10-12T09:04:17.000Z</time>
      </trkpt>
      <trkpt lat="47.44051" lon="6.70037">
        <ele>435.3</ele>
        <time>2014-10-12T09:04:18.000Z</time>
      </trkpt>
      <trkpt lat="47.44052" lon="6.70032">
        <ele>435</ele>
        <time>2014-10-12T09:04:19.000Z</time>
      </trkpt>
      <trkpt lat="47.44053" lon="6.70026">
        <ele>435.1</ele>
        <time>2014-10-12T09:04:20.000Z</time>
      </trkpt>
      <trkpt lat="47.44054" lon="6.7002">
        <ele>434.6</ele>
        <time>2014-10-12T09:04:21.000Z</time>
      </trkpt>
      <trkpt lat="47.44055" lon="6.70014">
        <ele>434.6</ele>
        <time>2014-10-12T09:04:22.000Z</time>
      </trkpt>
      <trkpt lat="47.44056" lon="6.70009">
        <ele>435.1</ele>
        <time>2014-10-12T09:04:23.000Z</time>
      </trkpt>
      <trkpt lat="47.44057" lon="6.70005">
        <ele>436.4</ele>
        <time>2014-10-12T09:04:24.000Z</time>
      </trkpt>
      <trkpt lat="47.44058" lon="6.70001">
        <ele>437</ele>
        <time>2014-10-12T09:04:25.000Z</time>
      </trkpt>
      <trkpt lat="47.44058" lon="6.69997">
        <ele>436.4</ele>
        <time>2014-10-12T09:04:26.000Z</time>
      </trkpt>
      <trkpt lat="47.44058" lon="6.69992">
        <ele>437.2</ele>
        <time>2014-10-12T09:04:29.000Z</time>
      </trkpt>
      <trkpt lat="47.44058" lon="6.6999">
        <ele>437.8</ele>
        <time>2014-10-12T09:04:30.000Z</time>
      </trkpt>
      <trkpt lat="47.44057" lon="6.69984">
        <ele>436.8</ele>
        <time>2014-10-12T09:04:33.000Z</time>
      </trkpt>
      <trkpt lat="47.44056" lon="6.69983">
        <ele>435.8</ele>
        <time>2014-10-12T09:04:34.000Z</time>
      </trkpt>
      <trkpt lat="47.44055" lon="6.69979">
        <ele>437.7</ele>
        <time>2014-10-12T09:04:36.000Z</time>
      </trkpt>
      <trkpt lat="47.44054" lon="6.69977">
        <ele>437.8</ele>
        <time>2014-10-12T09:04:37.000Z</time>
      </trkpt>
      <trkpt lat="47.44052" lon="6.69971">
        <ele>439.6</ele>
        <time>2014-10-12T09:04:39.000Z</time>
      </trkpt>
      <trkpt lat="47.44051" lon="6.69969">
        <ele>438.9</ele>
        <time>2014-10-12T09:04:40.000Z</time>
      </trkpt>
      <trkpt lat="47.44049" lon="6.69965">
        <ele>439.3</ele>
        <time>2014-10-12T09:04:42.000Z</time>
      </trkpt>
      <trkpt lat="47.44048" lon="6.69963">
        <ele>439.2</ele>
        <time>2014-10-12T09:04:43.000Z</time>
      </trkpt>
      <trkpt lat="47.44046" lon="6.69959">
        <ele>440.7</ele>
        <time>2014-10-12T09:04:46.000Z</time>
      </trkpt>
      <trkpt lat="47.44045" lon="6.69958">
        <ele>439.6</ele>
        <time>2014-10-12T09:04:47.000Z</time>
      </trkpt>
      <trkpt lat="47.4404" lon="6.69959">
        <ele>438.9</ele>
        <time>2014-10-12T09:04:50.000Z</time>
      </trkpt>
      <trkpt lat="47.44039" lon="6.69958">
        <ele>439.1</ele>
        <time>2014-10-12T09:04:51.000Z</time>
      </trkpt>
      <trkpt lat="47.44036" lon="6.69954">
        <ele>438</ele>
        <time>2014-10-12T09:04:53.000Z</time>
      </trkpt>
      <trkpt lat="47.44034" lon="6.69952">
        <ele>438.7</ele>
        <time>2014-10-12T09:04:54.000Z</time>
      </trkpt>
      <trkpt lat="47.44031" lon="6.69948">
        <ele>437</ele>
        <time>2014-10-12T09:04:56.000Z</time>
      </trkpt>
      <trkpt lat="47.4403" lon="6.69947">
        <ele>436</ele>
        <time>2014-10-12T09:04:57.000Z</time>
      </trkpt>
      <trkpt lat="47.44028" lon="6.69944">
        <ele>436.4</ele>
        <time>2014-10-12T09:04:59.000Z</time>
      </trkpt>
      <trkpt lat="47.44026" lon="6.69942">
        <ele>436.1</ele>
        <time>2014-10-12T09:05:00.000Z</time>
      </trkpt>
      <trkpt lat="47.44024" lon="6.69937">
        <ele>435.1</ele>
        <time>2014-10-12T09:05:02.000Z</time>
      </trkpt>
      <trkpt lat="47.44023" lon="6.69935">
        <ele>435.1</ele>
        <time>2014-10-12T09:05:03.000Z</time>
      </trkpt>
      <trkpt lat="47.4402" lon="6.69933">
        <ele>437.1</ele>
        <time>2014-10-12T09:05:05.000Z</time>
      </trkpt>
      <trkpt lat="47.44019" lon="6.69932">
        <ele>437</ele>
        <time>2014-10-12T09:05:06.000Z</time>
      </trkpt>
      <trkpt lat="47.44015" lon="6.69929">
        <ele>438.5</ele>
        <time>2014-10-12T09:05:08.000Z</time>
      </trkpt>
      <trkpt lat="47.44014" lon="6.69928">
        <ele>438.6</ele>
        <time>2014-10-12T09:05:09.000Z</time>
      </trkpt>
      <trkpt lat="47.4401" lon="6.69925">
        <ele>438.8</ele>
        <time>2014-10-12T09:05:11.000Z</time>
      </trkpt>
      <trkpt lat="47.44008" lon="6.69922">
        <ele>439</ele>
        <time>2014-10-12T09:05:12.000Z</time>
      </trkpt>
      <trkpt lat="47.44006" lon="6.6992">
        <ele>439.2</ele>
        <time>2014-10-12T09:05:13.000Z</time>
      </trkpt>
      <trkpt lat="47.44003" lon="6.69917">
        <ele>440.8</ele>
        <time>2014-10-12T09:05:14.000Z</time>
      </trkpt>
      <trkpt lat="47.44001" lon="6.69914">
        <ele>441.1</ele>
        <time>2014-10-12T09:05:15.000Z</time>
      </trkpt>
      <trkpt lat="47.43998" lon="6.69912">
        <ele>441.9</ele>
        <time>2014-10-12T09:05:16.000Z</time>
      </trkpt>
      <trkpt lat="47.43995" lon="6.6991">
        <ele>441.9</ele>
        <time>2014-10-12T09:05:17.000Z</time>
      </trkpt>
      <trkpt lat="47.43993" lon="6.69909">
        <ele>442</ele>
        <time>2014-10-12T09:05:18.000Z</time>
      </trkpt>
      <trkpt lat="47.4399" lon="6.69907">
        <ele>442.3</ele>
        <time>2014-10-12T09:05:19.000Z</time>
      </trkpt>
      <trkpt lat="47.43987" lon="6.69906">
        <ele>445.8</ele>
        <time>2014-10-12T09:05:20.000Z</time>
      </trkpt>
      <trkpt lat="47.43984" lon="6.69904">
        <ele>445.4</ele>
        <time>2014-10-12T09:05:21.000Z</time>
      </trkpt>
      <trkpt lat="47.4398" lon="6.69903">
        <ele>446.2</ele>
        <time>2014-10-12T09:05:22.000Z</time>
      </trkpt>
      <trkpt lat="47.43977" lon="6.699">
        <ele>444.7</ele>
        <time>2014-10-12T09:05:23.000Z</time>
      </trkpt>
      <trkpt lat="47.43974" lon="6.69899">
        <ele>445</ele>
        <time>2014-10-12T09:05:24.000Z</time>
      </trkpt>
      <trkpt lat="47.43971" lon="6.69897">
        <ele>446.3</ele>
        <time>2014-10-12T09:05:25.000Z</time>
      </trkpt>
      <trkpt lat="47.43968" lon="6.69895">
        <ele>446.1</ele>
        <time>2014-10-12T09:05:26.000Z</time>
      </trkpt>
      <trkpt lat="47.43964" lon="6.69892">
        <ele>445.7</ele>
        <time>2014-10-12T09:05:28.000Z</time>
      </trkpt>
      <trkpt lat="47.43963" lon="6.69891">
        <ele>445.2</ele>
        <time>2014-10-12T09:05:29.000Z</time>
      </trkpt>
      <trkpt lat="47.4396" lon="6.69886">
        <ele>445.6</ele>
        <time>2014-10-12T09:05:32.000Z</time>
      </trkpt>
      <trkpt lat="47.43959" lon="6.69884">
        <ele>446.5</ele>
        <time>2014-10-12T09:05:33.000Z</time>
      </trkpt>
      <trkpt lat="47.43958" lon="6.6988">
        <ele>448.6</ele>
        <time>2014-10-12T09:05:34.000Z</time>
      </trkpt>
      <trkpt lat="47.43955" lon="6.69878">
        <ele>449.1</ele>
        <time>2014-10-12T09:05:35.000Z</time>
      </trkpt>
      <trkpt lat="47.43953" lon="6.69875">
        <ele>449.6</ele>
        <time>2014-10-12T09:05:36.000Z</time>
      </trkpt>
      <trkpt lat="47.43951" lon="6.69873">
        <ele>451.5</ele>
        <time>2014-10-12T09:05:37.000Z</time>
      </trkpt>
      <trkpt lat="47.43947" lon="6.6987">
        <ele>452.5</ele>
        <time>2014-10-12T09:05:38.000Z</time>
      </trkpt>
      <trkpt lat="47.43937" lon="6.69859">
        <ele>451.3</ele>
        <time>2014-10-12T09:05:39.000Z</time>
      </trkpt>
      <trkpt lat="47.43932" lon="6.69852">
        <ele>452.6</ele>
        <time>2014-10-12T09:05:40.000Z</time>
      </trkpt>
      <trkpt lat="47.43927" lon="6.69848">
        <ele>452.9</ele>
        <time>2014-10-12T09:05:41.000Z</time>
      </trkpt>
      <trkpt lat="47.43921" lon="6.69842">
        <ele>452</ele>
        <time>2014-10-12T09:05:42.000Z</time>
      </trkpt>
      <trkpt lat="47.43915" lon="6.69838">
        <ele>451.8</ele>
        <time>2014-10-12T09:05:43.000Z</time>
      </trkpt>
      <trkpt lat="47.4391" lon="6.69831">
        <ele>452.7</ele>
        <time>2014-10-12T09:05:44.000Z</time>
      </trkpt>
      <trkpt lat="47.43903" lon="6.69824">
        <ele>451.9</ele>
        <time>2014-10-12T09:05:45.000Z</time>
      </trkpt>
      <trkpt lat="47.43897" lon="6.69817">
        <ele>452.4</ele>
        <time>2014-10-12T09:05:46.000Z</time>
      </trkpt>
      <trkpt lat="47.43891" lon="6.69812">
        <ele>452.1</ele>
        <time>2014-10-12T09:05:47.000Z</time>
      </trkpt>
      <trkpt lat="47.43866" lon="6.69775">
        <ele>450.6</ele>
        <time>2014-10-12T09:05:55.000Z</time>
      </trkpt>
      <trkpt lat="47.43867" lon="6.69768">
        <ele>450</ele>
        <time>2014-10-12T09:05:56.000Z</time>
      </trkpt>
      <trkpt lat="47.43867" lon="6.69763">
        <ele>446.7</ele>
        <time>2014-10-12T09:05:57.000Z</time>
      </trkpt>
      <trkpt lat="47.43866" lon="6.69759">
        <ele>444.6</ele>
        <time>2014-10-12T09:05:58.000Z</time>
      </trkpt>
      <trkpt lat="47.43865" lon="6.69754">
        <ele>443</ele>
        <time>2014-10-12T09:05:59.000Z</time>
      </trkpt>
      <trkpt lat="47.43864" lon="6.69748">
        <ele>442.8</ele>
        <time>2014-10-12T09:06:00.000Z</time>
      </trkpt>
      <trkpt lat="47.43864" lon="6.69743">
        <ele>441.9</ele>
        <time>2014-10-12T09:06:01.000Z</time>
      </trkpt>
      <trkpt lat="47.43865" lon="6.69738">
        <ele>442.4</ele>
        <time>2014-10-12T09:06:02.000Z</time>
      </trkpt>
      <trkpt lat="47.43865" lon="6.69734">
        <ele>443.2</ele>
        <time>2014-10-12T09:06:03.000Z</time>
      </trkpt>
      <trkpt lat="47.43866" lon="6.69731">
        <ele>443.6</ele>
        <time>2014-10-12T09:06:04.000Z</time>
      </trkpt>
      <trkpt lat="47.43866" lon="6.69725">
        <ele>445.1</ele>
        <time>2014-10-12T09:06:06.000Z</time>
      </trkpt>
      <trkpt lat="47.43867" lon="6.69722">
        <ele>445.2</ele>
        <time>2014-10-12T09:06:07.000Z</time>
      </trkpt>
      <trkpt lat="47.43867" lon="6.69716">
        <ele>446.2</ele>
        <time>2014-10-12T09:06:09.000Z</time>
      </trkpt>
      <trkpt lat="47.43867" lon="6.69713">
        <ele>446.9</ele>
        <time>2014-10-12T09:06:10.000Z</time>
      </trkpt>
      <trkpt lat="47.43867" lon="6.69709">
        <ele>446.4</ele>
        <time>2014-10-12T09:06:11.000Z</time>
      </trkpt>
      <trkpt lat="47.43867" lon="6.69705">
        <ele>446.3</ele>
        <time>2014-10-12T09:06:12.000Z</time>
      </trkpt>
      <trkpt lat="47.43867" lon="6.69701">
        <ele>445.2</ele>
        <time>2014-10-12T09:06:13.000Z</time>
      </trkpt>
      <trkpt lat="47.43866" lon="6.69696">
        <ele>444.1</ele>
        <time>2014-10-12T09:06:14.000Z</time>
      </trkpt>
      <trkpt lat="47.43865" lon="6.69692">
        <ele>443.6</ele>
        <time>2014-10-12T09:06:15.000Z</time>
      </trkpt>
      <trkpt lat="47.43865" lon="6.69688">
        <ele>441</ele>
        <time>2014-10-12T09:06:16.000Z</time>
      </trkpt>
      <trkpt lat="47.43864" lon="6.69684">
        <ele>440.1</ele>
        <time>2014-10-12T09:06:17.000Z</time>
      </trkpt>
      <trkpt lat="47.43864" lon="6.69679">
        <ele>439.5</ele>
        <time>2014-10-12T09:06:18.000Z</time>
      </trkpt>
      <trkpt lat="47.43864" lon="6.69674">
        <ele>438.7</ele>
        <time>2014-10-12T09:06:19.000Z</time>
      </trkpt>
      <trkpt lat="47.43864" lon="6.69669">
        <ele>439.6</ele>
        <time>2014-10-12T09:06:20.000Z</time>
      </trkpt>
      <trkpt lat="47.43864" lon="6.69665">
        <ele>439.7</ele>
        <time>2014-10-12T09:06:21.000Z</time>
      </trkpt>
      <trkpt lat="47.43864" lon="6.6966">
        <ele>440.6</ele>
        <time>2014-10-12T09:06:22.000Z</time>
      </trkpt>
      <trkpt lat="47.43864" lon="6.69656">
        <ele>440</ele>
        <time>2014-10-12T09:06:23.000Z</time>
      </trkpt>
      <trkpt lat="47.43864" lon="6.69653">
        <ele>439</ele>
        <time>2014-10-12T09:06:24.000Z</time>
      </trkpt>
      <trkpt lat="47.43863" lon="6.69647">
        <ele>438</ele>
        <time>2014-10-12T09:06:26.000Z</time>
      </trkpt>
      <trkpt lat="47.43862" lon="6.69644">
        <ele>437.6</ele>
        <time>2014-10-12T09:06:27.000Z</time>
      </trkpt>
      <trkpt lat="47.4386" lon="6.69642">
        <ele>438.8</ele>
        <time>2014-10-12T09:06:28.000Z</time>
      </trkpt>
      <trkpt lat="47.43857" lon="6.6964">
        <ele>437.2</ele>
        <time>2014-10-12T09:06:29.000Z</time>
      </trkpt>
      <trkpt lat="47.43854" lon="6.69639">
        <ele>436.6</ele>
        <time>2014-10-12T09:06:30.000Z</time>
      </trkpt>
      <trkpt lat="47.4385" lon="6.69637">
        <ele>436</ele>
        <time>2014-10-12T09:06:31.000Z</time>
      </trkpt>
      <trkpt lat="47.43847" lon="6.69636">
        <ele>437.6</ele>
        <time>2014-10-12T09:06:32.000Z</time>
      </trkpt>
      <trkpt lat="47.43837" lon="6.69633">
        <ele>439</ele>
        <time>2014-10-12T09:06:33.000Z</time>
      </trkpt>
      <trkpt lat="47.43833" lon="6.69631">
        <ele>438.3</ele>
        <time>2014-10-12T09:06:34.000Z</time>
      </trkpt>
      <trkpt lat="47.4383" lon="6.6963">
        <ele>438</ele>
        <time>2014-10-12T09:06:35.000Z</time>
      </trkpt>
      <trkpt lat="47.43826" lon="6.69632">
        <ele>439</ele>
        <time>2014-10-12T09:06:36.000Z</time>
      </trkpt>
      <trkpt lat="47.43823" lon="6.69631">
        <ele>436.4</ele>
        <time>2014-10-12T09:06:37.000Z</time>
      </trkpt>
      <trkpt lat="47.4382" lon="6.6963">
        <ele>435.2</ele>
        <time>2014-10-12T09:06:38.000Z</time>
      </trkpt>
      <trkpt lat="47.43816" lon="6.69629">
        <ele>435.3</ele>
        <time>2014-10-12T09:06:39.000Z</time>
      </trkpt>
      <trkpt lat="47.43814" lon="6.69626">
        <ele>437.5</ele>
        <time>2014-10-12T09:06:40.000Z</time>
      </trkpt>
      <trkpt lat="47.43811" lon="6.69623">
        <ele>438.3</ele>
        <time>2014-10-12T09:06:41.000Z</time>
      </trkpt>
      <trkpt lat="47.43808" lon="6.6962">
        <ele>438.6</ele>
        <time>2014-10-12T09:06:42.000Z</time>
      </trkpt>
      <trkpt lat="47.43807" lon="6.69617">
        <ele>435</ele>
        <time>2014-10-12T09:06:43.000Z</time>
      </trkpt>
      <trkpt lat="47.43805" lon="6.69614">
        <ele>434.3</ele>
        <time>2014-10-12T09:06:44.000Z</time>
      </trkpt>
      <trkpt lat="47.43804" lon="6.69611">
        <ele>433.6</ele>
        <time>2014-10-12T09:06:45.000Z</time>
      </trkpt>
      <trkpt lat="47.43802" lon="6.69606">
        <ele>432.7</ele>
        <time>2014-10-12T09:06:46.000Z</time>
      </trkpt>
      <trkpt lat="47.43801" lon="6.69602">
        <ele>432</ele>
        <time>2014-10-12T09:06:47.000Z</time>
      </trkpt>
      <trkpt lat="47.43797" lon="6.6959">
        <ele>430.6</ele>
        <time>2014-10-12T09:06:50.000Z</time>
      </trkpt>
      <trkpt lat="47.43794" lon="6.69587">
        <ele>429.3</ele>
        <time>2014-10-12T09:06:51.000Z</time>
      </trkpt>
      <trkpt lat="47.43792" lon="6.69585">
        <ele>428.3</ele>
        <time>2014-10-12T09:06:52.000Z</time>
      </trkpt>
      <trkpt lat="47.43788" lon="6.69583">
        <ele>427.4</ele>
        <time>2014-10-12T09:06:53.000Z</time>
      </trkpt>
      <trkpt lat="47.43784" lon="6.6958">
        <ele>426.2</ele>
        <time>2014-10-12T09:06:54.000Z</time>
      </trkpt>
      <trkpt lat="47.43779" lon="6.69577">
        <ele>425.7</ele>
        <time>2014-10-12T09:06:55.000Z</time>
      </trkpt>
      <trkpt lat="47.43774" lon="6.69575">
        <ele>425</ele>
        <time>2014-10-12T09:06:56.000Z</time>
      </trkpt>
      <trkpt lat="47.43769" lon="6.69573">
        <ele>424.5</ele>
        <time>2014-10-12T09:06:57.000Z</time>
      </trkpt>
      <trkpt lat="47.43766" lon="6.69572">
        <ele>423</ele>
        <time>2014-10-12T09:06:58.000Z</time>
      </trkpt>
      <trkpt lat="47.43763" lon="6.69569">
        <ele>422.9</ele>
        <time>2014-10-12T09:06:59.000Z</time>
      </trkpt>
      <trkpt lat="47.4376" lon="6.69564">
        <ele>423</ele>
        <time>2014-10-12T09:07:00.000Z</time>
      </trkpt>
      <trkpt lat="47.43758" lon="6.69558">
        <ele>421.9</ele>
        <time>2014-10-12T09:07:01.000Z</time>
      </trkpt>
      <trkpt lat="47.43755" lon="6.69552">
        <ele>420.6</ele>
        <time>2014-10-12T09:07:02.000Z</time>
      </trkpt>
      <trkpt lat="47.43753" lon="6.69547">
        <ele>415.6</ele>
        <time>2014-10-12T09:07:03.000Z</time>
      </trkpt>
      <trkpt lat="47.43751" lon="6.69543">
        <ele>415.2</ele>
        <time>2014-10-12T09:07:04.000Z</time>
      </trkpt>
      <trkpt lat="47.43748" lon="6.69539">
        <ele>415.6</ele>
        <time>2014-10-12T09:07:06.000Z</time>
      </trkpt>
      <trkpt lat="47.43747" lon="6.69537">
        <ele>415.3</ele>
        <time>2014-10-12T09:07:07.000Z</time>
      </trkpt>
      <trkpt lat="47.43743" lon="6.69535">
        <ele>416.1</ele>
        <time>2014-10-12T09:07:09.000Z</time>
      </trkpt>
      <trkpt lat="47.43741" lon="6.69534">
        <ele>415.1</ele>
        <time>2014-10-12T09:07:10.000Z</time>
      </trkpt>
      <trkpt lat="47.43739" lon="6.69532">
        <ele>415.7</ele>
        <time>2014-10-12T09:07:11.000Z</time>
      </trkpt>
      <trkpt lat="47.43736" lon="6.69529">
        <ele>416.2</ele>
        <time>2014-10-12T09:07:12.000Z</time>
      </trkpt>
      <trkpt lat="47.43734" lon="6.69526">
        <ele>416.4</ele>
        <time>2014-10-12T09:07:13.000Z</time>
      </trkpt>
      <trkpt lat="47.43732" lon="6.69524">
        <ele>416.3</ele>
        <time>2014-10-12T09:07:14.000Z</time>
      </trkpt>
      <trkpt lat="47.4373" lon="6.69522">
        <ele>413.8</ele>
        <time>2014-10-12T09:07:15.000Z</time>
      </trkpt>
      <trkpt lat="47.43728" lon="6.6952">
        <ele>415.6</ele>
        <time>2014-10-12T09:07:16.000Z</time>
      </trkpt>
      <trkpt lat="47.43724" lon="6.69517">
        <ele>415.3</ele>
        <time>2014-10-12T09:07:18.000Z</time>
      </trkpt>
      <trkpt lat="47.43723" lon="6.69516">
        <ele>415.1</ele>
        <time>2014-10-12T09:07:19.000Z</time>
      </trkpt>
      <trkpt lat="47.43719" lon="6.69512">
        <ele>412.5</ele>
        <time>2014-10-12T09:07:22.000Z</time>
      </trkpt>
      <trkpt lat="47.43717" lon="6.69511">
        <ele>412.5</ele>
        <time>2014-10-12T09:07:23.000Z</time>
      </trkpt>
      <trkpt lat="47.43715" lon="6.6951">
        <ele>411.3</ele>
        <time>2014-10-12T09:07:24.000Z</time>
      </trkpt>
      <trkpt lat="47.43713" lon="6.69508">
        <ele>410.9</ele>
        <time>2014-10-12T09:07:25.000Z</time>
      </trkpt>
      <trkpt lat="47.4371" lon="6.69507">
        <ele>409.8</ele>
        <time>2014-10-12T09:07:26.000Z</time>
      </trkpt>
      <trkpt lat="47.43708" lon="6.69507">
        <ele>409.1</ele>
        <time>2014-10-12T09:07:27.000Z</time>
      </trkpt>
      <trkpt lat="47.43705" lon="6.69507">
        <ele>409</ele>
        <time>2014-10-12T09:07:28.000Z</time>
      </trkpt>
      <trkpt lat="47.43703" lon="6.69507">
        <ele>409.2</ele>
        <time>2014-10-12T09:07:29.000Z</time>
      </trkpt>
      <trkpt lat="47.437" lon="6.69505">
        <ele>408.3</ele>
        <time>2014-10-12T09:07:31.000Z</time>
      </trkpt>
      <trkpt lat="47.43697" lon="6.69504">
        <ele>412.8</ele>
        <time>2014-10-12T09:07:32.000Z</time>
      </trkpt>
      <trkpt lat="47.43693" lon="6.69503">
        <ele>413.4</ele>
        <time>2014-10-12T09:07:33.000Z</time>
      </trkpt>
      <trkpt lat="47.4369" lon="6.69502">
        <ele>413.1</ele>
        <time>2014-10-12T09:07:34.000Z</time>
      </trkpt>
      <trkpt lat="47.43686" lon="6.695">
        <ele>412.5</ele>
        <time>2014-10-12T09:07:35.000Z</time>
      </trkpt>
      <trkpt lat="47.43682" lon="6.69498">
        <ele>412.1</ele>
        <time>2014-10-12T09:07:36.000Z</time>
      </trkpt>
      <trkpt lat="47.43679" lon="6.69497">
        <ele>411.6</ele>
        <time>2014-10-12T09:07:37.000Z</time>
      </trkpt>
      <trkpt lat="47.43676" lon="6.69496">
        <ele>410.7</ele>
        <time>2014-10-12T09:07:38.000Z</time>
      </trkpt>
      <trkpt lat="47.43674" lon="6.69495">
        <ele>410.2</ele>
        <time>2014-10-12T09:07:39.000Z</time>
      </trkpt>
      <trkpt lat="47.43671" lon="6.69494">
        <ele>409.5</ele>
        <time>2014-10-12T09:07:40.000Z</time>
      </trkpt>
      <trkpt lat="47.43667" lon="6.69493">
        <ele>409.8</ele>
        <time>2014-10-12T09:07:41.000Z</time>
      </trkpt>
      <trkpt lat="47.43663" lon="6.69491">
        <ele>408.6</ele>
        <time>2014-10-12T09:07:42.000Z</time>
      </trkpt>
      <trkpt lat="47.43659" lon="6.69488">
        <ele>407.8</ele>
        <time>2014-10-12T09:07:43.000Z</time>
      </trkpt>
      <trkpt lat="47.43654" lon="6.69485">
        <ele>406.7</ele>
        <time>2014-10-12T09:07:44.000Z</time>
      </trkpt>
      <trkpt lat="47.43648" lon="6.69482">
        <ele>405.4</ele>
        <time>2014-10-12T09:07:45.000Z</time>
      </trkpt>
      <trkpt lat="47.43632" lon="6.69474">
        <ele>404.5</ele>
        <time>2014-10-12T09:07:46.000Z</time>
      </trkpt>
      <trkpt lat="47.43625" lon="6.69473">
        <ele>403.6</ele>
        <time>2014-10-12T09:07:47.000Z</time>
      </trkpt>
      <trkpt lat="47.43558" lon="6.69472">
        <ele>393</ele>
        <time>2014-10-12T09:07:55.000Z</time>
      </trkpt>
      <trkpt lat="47.43543" lon="6.69471">
        <ele>390.6</ele>
        <time>2014-10-12T09:07:56.000Z</time>
      </trkpt>
      <trkpt lat="47.43535" lon="6.69465">
        <ele>388.8</ele>
        <time>2014-10-12T09:07:57.000Z</time>
      </trkpt>
      <trkpt lat="47.4353" lon="6.69461">
        <ele>386.8</ele>
        <time>2014-10-12T09:07:58.000Z</time>
      </trkpt>
      <trkpt lat="47.43523" lon="6.69459">
        <ele>385.6</ele>
        <time>2014-10-12T09:07:59.000Z</time>
      </trkpt>
      <trkpt lat="47.43517" lon="6.69458">
        <ele>384.6</ele>
        <time>2014-10-12T09:08:00.000Z</time>
      </trkpt>
      <trkpt lat="47.4351" lon="6.69453">
        <ele>383.7</ele>
        <time>2014-10-12T09:08:01.000Z</time>
      </trkpt>
      <trkpt lat="47.43501" lon="6.69436">
        <ele>382.5</ele>
        <time>2014-10-12T09:08:02.000Z</time>
      </trkpt>
      <trkpt lat="47.43493" lon="6.69426">
        <ele>381.9</ele>
        <time>2014-10-12T09:08:03.000Z</time>
      </trkpt>
      <trkpt lat="47.43485" lon="6.69414">
        <ele>381.7</ele>
        <time>2014-10-12T09:08:04.000Z</time>
      </trkpt>
      <trkpt lat="47.43477" lon="6.69401">
        <ele>381.5</ele>
        <time>2014-10-12T09:08:05.000Z</time>
      </trkpt>
      <trkpt lat="47.43466" lon="6.69393">
        <ele>381.6</ele>
        <time>2014-10-12T09:08:06.000Z</time>
      </trkpt>
      <trkpt lat="47.43456" lon="6.69386">
        <ele>382.3</ele>
        <time>2014-10-12T09:08:07.000Z</time>
      </trkpt>
      <trkpt lat="47.43444" lon="6.69381">
        <ele>382.7</ele>
        <time>2014-10-12T09:08:08.000Z</time>
      </trkpt>
      <trkpt lat="47.43436" lon="6.69376">
        <ele>383.9</ele>
        <time>2014-10-12T09:08:09.000Z</time>
      </trkpt>
      <trkpt lat="47.4343" lon="6.69374">
        <ele>385.6</ele>
        <time>2014-10-12T09:08:10.000Z</time>
      </trkpt>
      <trkpt lat="47.43423" lon="6.69372">
        <ele>385.8</ele>
        <time>2014-10-12T09:08:11.000Z</time>
      </trkpt>
      <trkpt lat="47.43418" lon="6.69373">
        <ele>386.2</ele>
        <time>2014-10-12T09:08:12.000Z</time>
      </trkpt>
      <trkpt lat="47.43418" lon="6.69367">
        <ele>390.3</ele>
        <time>2014-10-12T09:08:47.000Z</time>
      </trkpt>
      <trkpt lat="47.43419" lon="6.69364">
        <ele>390.4</ele>
        <time>2014-10-12T09:08:50.000Z</time>
      </trkpt>
      <trkpt lat="47.43419" lon="6.69359">
        <ele>391.1</ele>
        <time>2014-10-12T09:08:54.000Z</time>
      </trkpt>
      <trkpt lat="47.4342" lon="6.69356">
        <ele>391.4</ele>
        <time>2014-10-12T09:08:55.000Z</time>
      </trkpt>
      <trkpt lat="47.43422" lon="6.69351">
        <ele>390.8</ele>
        <time>2014-10-12T09:08:59.000Z</time>
      </trkpt>
      <trkpt lat="47.43423" lon="6.6935">
        <ele>390.6</ele>
        <time>2014-10-12T09:09:00.000Z</time>
      </trkpt>
      <trkpt lat="47.43426" lon="6.69347">
        <ele>389.4</ele>
        <time>2014-10-12T09:09:04.000Z</time>
      </trkpt>
      <trkpt lat="47.43427" lon="6.69347">
        <ele>390</ele>
        <time>2014-10-12T09:09:05.000Z</time>
      </trkpt>
      <trkpt lat="47.43431" lon="6.69347">
        <ele>391.6</ele>
        <time>2014-10-12T09:09:08.000Z</time>
      </trkpt>
      <trkpt lat="47.43433" lon="6.69346">
        <ele>391.5</ele>
        <time>2014-10-12T09:09:09.000Z</time>
      </trkpt>
      <trkpt lat="47.43437" lon="6.69345">
        <ele>393.8</ele>
        <time>2014-10-12T09:09:11.000Z</time>
      </trkpt>
      <trkpt lat="47.43438" lon="6.69343">
        <ele>395.5</ele>
        <time>2014-10-12T09:09:12.000Z</time>
      </trkpt>
      <trkpt lat="47.43442" lon="6.6934">
        <ele>397.1</ele>
        <time>2014-10-12T09:09:14.000Z</time>
      </trkpt>
      <trkpt lat="47.43444" lon="6.69339">
        <ele>401.7</ele>
        <time>2014-10-12T09:09:15.000Z</time>
      </trkpt>
      <trkpt lat="47.43448" lon="6.69339">
        <ele>402.5</ele>
        <time>2014-10-12T09:09:17.000Z</time>
      </trkpt>
      <trkpt lat="47.4345" lon="6.69338">
        <ele>401.7</ele>
        <time>2014-10-12T09:09:18.000Z</time>
      </trkpt>
      <trkpt lat="47.43453" lon="6.69335">
        <ele>401.2</ele>
        <time>2014-10-12T09:09:20.000Z</time>
      </trkpt>
      <trkpt lat="47.43454" lon="6.69333">
        <ele>400</ele>
        <time>2014-10-12T09:09:21.000Z</time>
      </trkpt>
      <trkpt lat="47.43457" lon="6.69331">
        <ele>397.4</ele>
        <time>2014-10-12T09:09:23.000Z</time>
      </trkpt>
      <trkpt lat="47.43459" lon="6.6933">
        <ele>397.3</ele>
        <time>2014-10-12T09:09:24.000Z</time>
      </trkpt>
      <trkpt lat="47.43462" lon="6.69326">
        <ele>393.8</ele>
        <time>2014-10-12T09:09:28.000Z</time>
      </trkpt>
      <trkpt lat="47.43464" lon="6.69325">
        <ele>394.7</ele>
        <time>2014-10-12T09:09:29.000Z</time>
      </trkpt>
      <trkpt lat="47.43466" lon="6.69325">
        <ele>395.9</ele>
        <time>2014-10-12T09:09:30.000Z</time>
      </trkpt>
      <trkpt lat="47.43468" lon="6.69325">
        <ele>394.3</ele>
        <time>2014-10-12T09:09:31.000Z</time>
      </trkpt>
      <trkpt lat="47.43471" lon="6.69322">
        <ele>394.6</ele>
        <time>2014-10-12T09:09:33.000Z</time>
      </trkpt>
      <trkpt lat="47.43472" lon="6.69319">
        <ele>397.1</ele>
        <time>2014-10-12T09:09:34.000Z</time>
      </trkpt>
      <trkpt lat="47.43472" lon="6.69314">
        <ele>395.9</ele>
        <time>2014-10-12T09:09:36.000Z</time>
      </trkpt>
      <trkpt lat="47.43473" lon="6.69311">
        <ele>398</ele>
        <time>2014-10-12T09:09:37.000Z</time>
      </trkpt>
      <trkpt lat="47.43475" lon="6.69305">
        <ele>399.9</ele>
        <time>2014-10-12T09:09:39.000Z</time>
      </trkpt>
      <trkpt lat="47.43475" lon="6.69303">
        <ele>400.7</ele>
        <time>2014-10-12T09:09:40.000Z</time>
      </trkpt>
      <trkpt lat="47.43478" lon="6.69299">
        <ele>402.1</ele>
        <time>2014-10-12T09:09:42.000Z</time>
      </trkpt>
      <trkpt lat="47.43479" lon="6.69297">
        <ele>402.7</ele>
        <time>2014-10-12T09:09:43.000Z</time>
      </trkpt>
      <trkpt lat="47.43481" lon="6.69293">
        <ele>405.4</ele>
        <time>2014-10-12T09:09:47.000Z</time>
      </trkpt>
      <trkpt lat="47.43487" lon="6.69282">
        <ele>407.9</ele>
        <time>2014-10-12T09:09:55.000Z</time>
      </trkpt>
      <trkpt lat="47.4349" lon="6.69278">
        <ele>406.3</ele>
        <time>2014-10-12T09:09:58.000Z</time>
      </trkpt>
      <trkpt lat="47.43492" lon="6.69276">
        <ele>404.5</ele>
        <time>2014-10-12T09:09:59.000Z</time>
      </trkpt>
      <trkpt lat="47.43494" lon="6.69275">
        <ele>404.3</ele>
        <time>2014-10-12T09:10:00.000Z</time>
      </trkpt>
      <trkpt lat="47.43496" lon="6.69273">
        <ele>404</ele>
        <time>2014-10-12T09:10:01.000Z</time>
      </trkpt>
      <trkpt lat="47.43499" lon="6.69272">
        <ele>404.8</ele>
        <time>2014-10-12T09:10:02.000Z</time>
      </trkpt>
      <trkpt lat="47.43501" lon="6.69271">
        <ele>403.4</ele>
        <time>2014-10-12T09:10:03.000Z</time>
      </trkpt>
      <trkpt lat="47.43503" lon="6.69268">
        <ele>402</ele>
        <time>2014-10-12T09:10:05.000Z</time>
      </trkpt>
      <trkpt lat="47.43505" lon="6.69267">
        <ele>400.5</ele>
        <time>2014-10-12T09:10:06.000Z</time>
      </trkpt>
      <trkpt lat="47.43507" lon="6.69263">
        <ele>398.5</ele>
        <time>2014-10-12T09:10:08.000Z</time>
      </trkpt>
      <trkpt lat="47.43508" lon="6.69261">
        <ele>397.1</ele>
        <time>2014-10-12T09:10:09.000Z</time>
      </trkpt>
      <trkpt lat="47.43511" lon="6.69256">
        <ele>395.4</ele>
        <time>2014-10-12T09:10:12.000Z</time>
      </trkpt>
      <trkpt lat="47.43512" lon="6.69254">
        <ele>395.5</ele>
        <time>2014-10-12T09:10:13.000Z</time>
      </trkpt>
      <trkpt lat="47.43515" lon="6.69249">
        <ele>396</ele>
        <time>2014-10-12T09:10:16.000Z</time>
      </trkpt>
      <trkpt lat="47.43516" lon="6.69247">
        <ele>396</ele>
        <time>2014-10-12T09:10:17.000Z</time>
      </trkpt>
      <trkpt lat="47.43518" lon="6.69243">
        <ele>395.2</ele>
        <time>2014-10-12T09:10:19.000Z</time>
      </trkpt>
      <trkpt lat="47.43519" lon="6.69241">
        <ele>395.2</ele>
        <time>2014-10-12T09:10:20.000Z</time>
      </trkpt>
      <trkpt lat="47.43522" lon="6.69237">
        <ele>395.3</ele>
        <time>2014-10-12T09:10:22.000Z</time>
      </trkpt>
      <trkpt lat="47.43523" lon="6.69235">
        <ele>395.5</ele>
        <time>2014-10-12T09:10:23.000Z</time>
      </trkpt>
      <trkpt lat="47.43525" lon="6.69231">
        <ele>395.7</ele>
        <time>2014-10-12T09:10:25.000Z</time>
      </trkpt>
      <trkpt lat="47.43526" lon="6.69229">
        <ele>395.6</ele>
        <time>2014-10-12T09:10:26.000Z</time>
      </trkpt>
      <trkpt lat="47.43528" lon="6.69224">
        <ele>395.5</ele>
        <time>2014-10-12T09:10:30.000Z</time>
      </trkpt>
      <trkpt lat="47.43528" lon="6.69223">
        <ele>395.8</ele>
        <time>2014-10-12T09:10:31.000Z</time>
      </trkpt>
      <trkpt lat="47.43531" lon="6.69219">
        <ele>399.3</ele>
        <time>2014-10-12T09:10:42.000Z</time>
      </trkpt>
      <trkpt lat="47.43532" lon="6.69219">
        <ele>399.6</ele>
        <time>2014-10-12T09:10:43.000Z</time>
      </trkpt>
      <trkpt lat="47.43536" lon="6.69216">
        <ele>405.3</ele>
        <time>2014-10-12T09:11:10.000Z</time>
      </trkpt>
      <trkpt lat="47.43536" lon="6.69216">
        <ele>406</ele>
        <time>2014-10-12T09:11:11.000Z</time>
      </trkpt>
      <trkpt lat="47.43539" lon="6.69212">
        <ele>406.8</ele>
        <time>2014-10-12T09:11:20.000Z</time>
      </trkpt>
      <trkpt lat="47.4354" lon="6.69211">
        <ele>407.9</ele>
        <time>2014-10-12T09:11:21.000Z</time>
      </trkpt>
      <trkpt lat="47.43543" lon="6.69209">
        <ele>407.8</ele>
        <time>2014-10-12T09:11:23.000Z</time>
      </trkpt>
      <trkpt lat="47.43545" lon="6.69209">
        <ele>408.5</ele>
        <time>2014-10-12T09:11:24.000Z</time>
      </trkpt>
      <trkpt lat="47.43548" lon="6.69208">
        <ele>411.7</ele>
        <time>2014-10-12T09:11:26.000Z</time>
      </trkpt>
      <trkpt lat="47.4355" lon="6.69207">
        <ele>411.6</ele>
        <time>2014-10-12T09:11:27.000Z</time>
      </trkpt>
      <trkpt lat="47.43553" lon="6.69206">
        <ele>410.1</ele>
        <time>2014-10-12T09:11:29.000Z</time>
      </trkpt>
      <trkpt lat="47.43554" lon="6.69206">
        <ele>409.6</ele>
        <time>2014-10-12T09:11:30.000Z</time>
      </trkpt>
      <trkpt lat="47.43558" lon="6.69204">
        <ele>411.8</ele>
        <time>2014-10-12T09:11:33.000Z</time>
      </trkpt>
      <trkpt lat="47.43559" lon="6.69204">
        <ele>411.4</ele>
        <time>2014-10-12T09:11:34.000Z</time>
      </trkpt>
      <trkpt lat="47.43563" lon="6.69202">
        <ele>410</ele>
        <time>2014-10-12T09:11:37.000Z</time>
      </trkpt>
      <trkpt lat="47.43564" lon="6.69202">
        <ele>409.4</ele>
        <time>2014-10-12T09:11:38.000Z</time>
      </trkpt>
      <trkpt lat="47.43567" lon="6.692">
        <ele>410.3</ele>
        <time>2014-10-12T09:11:40.000Z</time>
      </trkpt>
      <trkpt lat="47.43569" lon="6.69199">
        <ele>411.3</ele>
        <time>2014-10-12T09:11:41.000Z</time>
      </trkpt>
      <trkpt lat="47.43573" lon="6.69197">
        <ele>411.9</ele>
        <time>2014-10-12T09:11:45.000Z</time>
      </trkpt>
      <trkpt lat="47.43575" lon="6.69196">
        <ele>410.9</ele>
        <time>2014-10-12T09:11:46.000Z</time>
      </trkpt>
      <trkpt lat="47.43576" lon="6.69195">
        <ele>409.6</ele>
        <time>2014-10-12T09:11:47.000Z</time>
      </trkpt>
      <trkpt lat="47.43589" lon="6.69187">
        <ele>405.2</ele>
        <time>2014-10-12T09:11:55.000Z</time>
      </trkpt>
      <trkpt lat="47.43592" lon="6.69185">
        <ele>411.2</ele>
        <time>2014-10-12T09:11:57.000Z</time>
      </trkpt>
      <trkpt lat="47.43595" lon="6.69183">
        <ele>411.5</ele>
        <time>2014-10-12T09:11:58.000Z</time>
      </trkpt>
      <trkpt lat="47.43598" lon="6.69182">
        <ele>410.2</ele>
        <time>2014-10-12T09:11:59.000Z</time>
      </trkpt>
      <trkpt lat="47.436" lon="6.69181">
        <ele>410.8</ele>
        <time>2014-10-12T09:12:00.000Z</time>
      </trkpt>
      <trkpt lat="47.43604" lon="6.69178">
        <ele>413.9</ele>
        <time>2014-10-12T09:12:02.000Z</time>
      </trkpt>
      <trkpt lat="47.43606" lon="6.69176">
        <ele>414.6</ele>
        <time>2014-10-12T09:12:03.000Z</time>
      </trkpt>
      <trkpt lat="47.43609" lon="6.69172">
        <ele>415.1</ele>
        <time>2014-10-12T09:12:05.000Z</time>
      </trkpt>
      <trkpt lat="47.43611" lon="6.69171">
        <ele>415.6</ele>
        <time>2014-10-12T09:12:06.000Z</time>
      </trkpt>
      <trkpt lat="47.43614" lon="6.69167">
        <ele>415.7</ele>
        <time>2014-10-12T09:12:08.000Z</time>
      </trkpt>
      <trkpt lat="47.43615" lon="6.69165">
        <ele>415.4</ele>
        <time>2014-10-12T09:12:09.000Z</time>
      </trkpt>
      <trkpt lat="47.43616" lon="6.6916">
        <ele>415.9</ele>
        <time>2014-10-12T09:12:11.000Z</time>
      </trkpt>
      <trkpt lat="47.43617" lon="6.69156">
        <ele>416.3</ele>
        <time>2014-10-12T09:12:12.000Z</time>
      </trkpt>
      <trkpt lat="47.43618" lon="6.69153">
        <ele>415.8</ele>
        <time>2014-10-12T09:12:13.000Z</time>
      </trkpt>
      <trkpt lat="47.43619" lon="6.69149">
        <ele>416.3</ele>
        <time>2014-10-12T09:12:14.000Z</time>
      </trkpt>
      <trkpt lat="47.43621" lon="6.69144">
        <ele>417.2</ele>
        <time>2014-10-12T09:12:17.000Z</time>
      </trkpt>
      <trkpt lat="47.43622" lon="6.69143">
        <ele>416.2</ele>
        <time>2014-10-12T09:12:18.000Z</time>
      </trkpt>
      <trkpt lat="47.43624" lon="6.69139">
        <ele>417.2</ele>
        <time>2014-10-12T09:12:20.000Z</time>
      </trkpt>
      <trkpt lat="47.43625" lon="6.69137">
        <ele>417.5</ele>
        <time>2014-10-12T09:12:21.000Z</time>
      </trkpt>
      <trkpt lat="47.43627" lon="6.69132">
        <ele>416.5</ele>
        <time>2014-10-12T09:12:24.000Z</time>
      </trkpt>
      <trkpt lat="47.43628" lon="6.6913">
        <ele>417.1</ele>
        <time>2014-10-12T09:12:25.000Z</time>
      </trkpt>
      <trkpt lat="47.43631" lon="6.69126">
        <ele>417.7</ele>
        <time>2014-10-12T09:12:27.000Z</time>
      </trkpt>
      <trkpt lat="47.43633" lon="6.69125">
        <ele>417.4</ele>
        <time>2014-10-12T09:12:28.000Z</time>
      </trkpt>
      <trkpt lat="47.43636" lon="6.69121">
        <ele>415.6</ele>
        <time>2014-10-12T09:12:31.000Z</time>
      </trkpt>
      <trkpt lat="47.43637" lon="6.69121">
        <ele>414.3</ele>
        <time>2014-10-12T09:12:32.000Z</time>
      </trkpt>
      <trkpt lat="47.4364" lon="6.69117">
        <ele>414.4</ele>
        <time>2014-10-12T09:12:35.000Z</time>
      </trkpt>
      <trkpt lat="47.43642" lon="6.69115">
        <ele>411.6</ele>
        <time>2014-10-12T09:12:36.000Z</time>
      </trkpt>
      <trkpt lat="47.43644" lon="6.69111">
        <ele>410.6</ele>
        <time>2014-10-12T09:12:38.000Z</time>
      </trkpt>
      <trkpt lat="47.43646" lon="6.69108">
        <ele>410</ele>
        <time>2014-10-12T09:12:39.000Z</time>
      </trkpt>
      <trkpt lat="47.43647" lon="6.69106">
        <ele>409.7</ele>
        <time>2014-10-12T09:12:40.000Z</time>
      </trkpt>
      <trkpt lat="47.43649" lon="6.69103">
        <ele>409</ele>
        <time>2014-10-12T09:12:41.000Z</time>
      </trkpt>
      <trkpt lat="47.43652" lon="6.69099">
        <ele>409.6</ele>
        <time>2014-10-12T09:12:43.000Z</time>
      </trkpt>
      <trkpt lat="47.43653" lon="6.69097">
        <ele>411.5</ele>
        <time>2014-10-12T09:12:44.000Z</time>
      </trkpt>
      <trkpt lat="47.43656" lon="6.69094">
        <ele>413.3</ele>
        <time>2014-10-12T09:12:46.000Z</time>
      </trkpt>
      <trkpt lat="47.43657" lon="6.69093">
        <ele>413.8</ele>
        <time>2014-10-12T09:12:47.000Z</time>
      </trkpt>
      <trkpt lat="47.43662" lon="6.69087">
        <ele>414.8</ele>
        <time>2014-10-12T09:12:50.000Z</time>
      </trkpt>
      <trkpt lat="47.43663" lon="6.69084">
        <ele>413.6</ele>
        <time>2014-10-12T09:12:51.000Z</time>
      </trkpt>
      <trkpt lat="47.43665" lon="6.69082">
        <ele>414.4</ele>
        <time>2014-10-12T09:12:52.000Z</time>
      </trkpt>
      <trkpt lat="47.43669" lon="6.69078">
        <ele>415.1</ele>
        <time>2014-10-12T09:12:54.000Z</time>
      </trkpt>
      <trkpt lat="47.4367" lon="6.69076">
        <ele>414.6</ele>
        <time>2014-10-12T09:12:55.000Z</time>
      </trkpt>
      <trkpt lat="47.43674" lon="6.69073">
        <ele>415.2</ele>
        <time>2014-10-12T09:12:57.000Z</time>
      </trkpt>
      <trkpt lat="47.43675" lon="6.69071">
        <ele>415.9</ele>
        <time>2014-10-12T09:12:58.000Z</time>
      </trkpt>
      <trkpt lat="47.43678" lon="6.69068">
        <ele>417.1</ele>
        <time>2014-10-12T09:13:00.000Z</time>
      </trkpt>
      <trkpt lat="47.4368" lon="6.69067">
        <ele>417.5</ele>
        <time>2014-10-12T09:13:01.000Z</time>
      </trkpt>
      <trkpt lat="47.43683" lon="6.69066">
        <ele>417.5</ele>
        <time>2014-10-12T09:13:03.000Z</time>
      </trkpt>
      <trkpt lat="47.43685" lon="6.69065">
        <ele>417.5</ele>
        <time>2014-10-12T09:13:04.000Z</time>
      </trkpt>
      <trkpt lat="47.43688" lon="6.69063">
        <ele>416.5</ele>
        <time>2014-10-12T09:13:06.000Z</time>
      </trkpt>
      <trkpt lat="47.4369" lon="6.69062">
        <ele>416.5</ele>
        <time>2014-10-12T09:13:07.000Z</time>
      </trkpt>
      <trkpt lat="47.43693" lon="6.69061">
        <ele>416.8</ele>
        <time>2014-10-12T09:13:09.000Z</time>
      </trkpt>
      <trkpt lat="47.43694" lon="6.69061">
        <ele>417</ele>
        <time>2014-10-12T09:13:10.000Z</time>
      </trkpt>
      <trkpt lat="47.43698" lon="6.6906">
        <ele>416.7</ele>
        <time>2014-10-12T09:13:12.000Z</time>
      </trkpt>
      <trkpt lat="47.437" lon="6.6906">
        <ele>416.4</ele>
        <time>2014-10-12T09:13:13.000Z</time>
      </trkpt>
      <trkpt lat="47.43703" lon="6.69058">
        <ele>416.2</ele>
        <time>2014-10-12T09:13:15.000Z</time>
      </trkpt>
      <trkpt lat="47.43705" lon="6.69057">
        <ele>416.8</ele>
        <time>2014-10-12T09:13:16.000Z</time>
      </trkpt>
      <trkpt lat="47.43707" lon="6.69056">
        <ele>417</ele>
        <time>2014-10-12T09:13:17.000Z</time>
      </trkpt>
      <trkpt lat="47.4371" lon="6.69055">
        <ele>417.5</ele>
        <time>2014-10-12T09:13:18.000Z</time>
      </trkpt>
      <trkpt lat="47.43714" lon="6.69053">
        <ele>419.4</ele>
        <time>2014-10-12T09:13:20.000Z</time>
      </trkpt>
      <trkpt lat="47.43715" lon="6.69052">
        <ele>419.4</ele>
        <time>2014-10-12T09:13:21.000Z</time>
      </trkpt>
      <trkpt lat="47.43718" lon="6.69049">
        <ele>420.6</ele>
        <time>2014-10-12T09:13:24.000Z</time>
      </trkpt>
      <trkpt lat="47.4372" lon="6.69049">
        <ele>421.7</ele>
        <time>2014-10-12T09:13:25.000Z</time>
      </trkpt>
      <trkpt lat="47.43723" lon="6.69047">
        <ele>420.8</ele>
        <time>2014-10-12T09:13:27.000Z</time>
      </trkpt>
      <trkpt lat="47.43725" lon="6.69046">
        <ele>421</ele>
        <time>2014-10-12T09:13:28.000Z</time>
      </trkpt>
      <trkpt lat="47.43729" lon="6.69045">
        <ele>422.5</ele>
        <time>2014-10-12T09:13:31.000Z</time>
      </trkpt>
      <trkpt lat="47.4373" lon="6.69045">
        <ele>422.7</ele>
        <time>2014-10-12T09:13:32.000Z</time>
      </trkpt>
      <trkpt lat="47.43734" lon="6.69043">
        <ele>423.1</ele>
        <time>2014-10-12T09:13:39.000Z</time>
      </trkpt>
      <trkpt lat="47.43734" lon="6.69042">
        <ele>423.1</ele>
        <time>2014-10-12T09:13:40.000Z</time>
      </trkpt>
      <trkpt lat="47.43737" lon="6.6904">
        <ele>423.2</ele>
        <time>2014-10-12T09:13:47.000Z</time>
      </trkpt>
      <trkpt lat="47.43743" lon="6.69037">
        <ele>423.5</ele>
        <time>2014-10-12T09:13:51.000Z</time>
      </trkpt>
      <trkpt lat="47.43746" lon="6.69035">
        <ele>424.7</ele>
        <time>2014-10-12T09:13:53.000Z</time>
      </trkpt>
      <trkpt lat="47.43747" lon="6.69034">
        <ele>425</ele>
        <time>2014-10-12T09:13:54.000Z</time>
      </trkpt>
      <trkpt lat="47.4375" lon="6.6903">
        <ele>425.7</ele>
        <time>2014-10-12T09:13:57.000Z</time>
      </trkpt>
      <trkpt lat="47.43751" lon="6.69029">
        <ele>426.6</ele>
        <time>2014-10-12T09:13:58.000Z</time>
      </trkpt>
      <trkpt lat="47.43753" lon="6.69027">
        <ele>427.6</ele>
        <time>2014-10-12T09:14:00.000Z</time>
      </trkpt>
      <trkpt lat="47.43755" lon="6.69026">
        <ele>427.2</ele>
        <time>2014-10-12T09:14:01.000Z</time>
      </trkpt>
      <trkpt lat="47.43759" lon="6.69023">
        <ele>427.2</ele>
        <time>2014-10-12T09:14:03.000Z</time>
      </trkpt>
      <trkpt lat="47.43761" lon="6.69022">
        <ele>427.6</ele>
        <time>2014-10-12T09:14:04.000Z</time>
      </trkpt>
      <trkpt lat="47.43765" lon="6.69019">
        <ele>426</ele>
        <time>2014-10-12T09:14:06.000Z</time>
      </trkpt>
      <trkpt lat="47.43766" lon="6.69018">
        <ele>426.5</ele>
        <time>2014-10-12T09:14:07.000Z</time>
      </trkpt>
      <trkpt lat="47.4377" lon="6.69016">
        <ele>427.7</ele>
        <time>2014-10-12T09:14:09.000Z</time>
      </trkpt>
      <trkpt lat="47.43772" lon="6.69015">
        <ele>429.1</ele>
        <time>2014-10-12T09:14:10.000Z</time>
      </trkpt>
      <trkpt lat="47.43774" lon="6.69014">
        <ele>431.9</ele>
        <time>2014-10-12T09:14:11.000Z</time>
      </trkpt>
      <trkpt lat="47.43776" lon="6.69013">
        <ele>430.8</ele>
        <time>2014-10-12T09:14:12.000Z</time>
      </trkpt>
      <trkpt lat="47.4378" lon="6.69012">
        <ele>429.7</ele>
        <time>2014-10-12T09:14:13.000Z</time>
      </trkpt>
      <trkpt lat="47.43782" lon="6.69011">
        <ele>430.4</ele>
        <time>2014-10-12T09:14:14.000Z</time>
      </trkpt>
      <trkpt lat="47.43785" lon="6.69008">
        <ele>428</ele>
        <time>2014-10-12T09:14:17.000Z</time>
      </trkpt>
      <trkpt lat="47.43786" lon="6.69007">
        <ele>427.5</ele>
        <time>2014-10-12T09:14:18.000Z</time>
      </trkpt>
      <trkpt lat="47.4379" lon="6.69004">
        <ele>428.6</ele>
        <time>2014-10-12T09:14:21.000Z</time>
      </trkpt>
      <trkpt lat="47.43791" lon="6.69004">
        <ele>428.9</ele>
        <time>2014-10-12T09:14:22.000Z</time>
      </trkpt>
      <trkpt lat="47.43794" lon="6.69">
        <ele>432.8</ele>
        <time>2014-10-12T09:14:26.000Z</time>
      </trkpt>
      <trkpt lat="47.43796" lon="6.69">
        <ele>433.1</ele>
        <time>2014-10-12T09:14:27.000Z</time>
      </trkpt>
      <trkpt lat="47.43799" lon="6.68999">
        <ele>435.6</ele>
        <time>2014-10-12T09:14:29.000Z</time>
      </trkpt>
      <trkpt lat="47.43801" lon="6.69">
        <ele>436.2</ele>
        <time>2014-10-12T09:14:30.000Z</time>
      </trkpt>
      <trkpt lat="47.43804" lon="6.69002">
        <ele>435</ele>
        <time>2014-10-12T09:14:32.000Z</time>
      </trkpt>
      <trkpt lat="47.43806" lon="6.69003">
        <ele>435.4</ele>
        <time>2014-10-12T09:14:33.000Z</time>
      </trkpt>
      <trkpt lat="47.43809" lon="6.69006">
        <ele>433.6</ele>
        <time>2014-10-12T09:14:35.000Z</time>
      </trkpt>
      <trkpt lat="47.4381" lon="6.69007">
        <ele>433.1</ele>
        <time>2014-10-12T09:14:36.000Z</time>
      </trkpt>
      <trkpt lat="47.43813" lon="6.69008">
        <ele>430.6</ele>
        <time>2014-10-12T09:14:38.000Z</time>
      </trkpt>
      <trkpt lat="47.43815" lon="6.69008">
        <ele>431.2</ele>
        <time>2014-10-12T09:14:39.000Z</time>
      </trkpt>
      <trkpt lat="47.43819" lon="6.6901">
        <ele>430.2</ele>
        <time>2014-10-12T09:14:42.000Z</time>
      </trkpt>
      <trkpt lat="47.43819" lon="6.6901">
        <ele>428.9</ele>
        <time>2014-10-12T09:14:43.000Z</time>
      </trkpt>
      <trkpt lat="47.43823" lon="6.69012">
        <ele>427.1</ele>
        <time>2014-10-12T09:14:45.000Z</time>
      </trkpt>
      <trkpt lat="47.43824" lon="6.69013">
        <ele>426.3</ele>
        <time>2014-10-12T09:14:46.000Z</time>
      </trkpt>
      <trkpt lat="47.43828" lon="6.69012">
        <ele>421.9</ele>
        <time>2014-10-12T09:14:52.000Z</time>
      </trkpt>
      <trkpt lat="47.43829" lon="6.69012">
        <ele>420.9</ele>
        <time>2014-10-12T09:14:53.000Z</time>
      </trkpt>
      <trkpt lat="47.43833" lon="6.69013">
        <ele>418.2</ele>
        <time>2014-10-12T09:15:00.000Z</time>
      </trkpt>
      <trkpt lat="47.43834" lon="6.69014">
        <ele>417</ele>
        <time>2014-10-12T09:15:01.000Z</time>
      </trkpt>
      <trkpt lat="47.43837" lon="6.69017">
        <ele>415.1</ele>
        <time>2014-10-12T09:15:04.000Z</time>
      </trkpt>
      <trkpt lat="47.43839" lon="6.69018">
        <ele>415.5</ele>
        <time>2014-10-12T09:15:05.000Z</time>
      </trkpt>
      <trkpt lat="47.43843" lon="6.6902">
        <ele>413</ele>
        <time>2014-10-12T09:15:08.000Z</time>
      </trkpt>
      <trkpt lat="47.43844" lon="6.6902">
        <ele>414.9</ele>
        <time>2014-10-12T09:15:09.000Z</time>
      </trkpt>
      <trkpt lat="47.43847" lon="6.69022">
        <ele>413.1</ele>
        <time>2014-10-12T09:15:12.000Z</time>
      </trkpt>
      <trkpt lat="47.43848" lon="6.69023">
        <ele>414.9</ele>
        <time>2014-10-12T09:15:13.000Z</time>
      </trkpt>
      <trkpt lat="47.43851" lon="6.69025">
        <ele>416.6</ele>
        <time>2014-10-12T09:15:17.000Z</time>
      </trkpt>
      <trkpt lat="47.43852" lon="6.69026">
        <ele>416.5</ele>
        <time>2014-10-12T09:15:18.000Z</time>
      </trkpt>
      <trkpt lat="47.43855" lon="6.69029">
        <ele>415.7</ele>
        <time>2014-10-12T09:15:21.000Z</time>
      </trkpt>
      <trkpt lat="47.43856" lon="6.6903">
        <ele>416.1</ele>
        <time>2014-10-12T09:15:22.000Z</time>
      </trkpt>
      <trkpt lat="47.43859" lon="6.69034">
        <ele>415</ele>
        <time>2014-10-12T09:15:26.000Z</time>
      </trkpt>
      <trkpt lat="47.4386" lon="6.69035">
        <ele>416.3</ele>
        <time>2014-10-12T09:15:27.000Z</time>
      </trkpt>
      <trkpt lat="47.43864" lon="6.69037">
        <ele>420</ele>
        <time>2014-10-12T09:15:32.000Z</time>
      </trkpt>
      <trkpt lat="47.43864" lon="6.69037">
        <ele>420.2</ele>
        <time>2014-10-12T09:15:33.000Z</time>
      </trkpt>
      <trkpt lat="47.43867" lon="6.69041">
        <ele>422.2</ele>
        <time>2014-10-12T09:15:55.000Z</time>
      </trkpt>
      <trkpt lat="47.43868" lon="6.69042">
        <ele>422.2</ele>
        <time>2014-10-12T09:15:56.000Z</time>
      </trkpt>
      <trkpt lat="47.43872" lon="6.69045">
        <ele>424.8</ele>
        <time>2014-10-12T09:16:00.000Z</time>
      </trkpt>
      <trkpt lat="47.43873" lon="6.69046">
        <ele>424.4</ele>
        <time>2014-10-12T09:16:01.000Z</time>
      </trkpt>
      <trkpt lat="47.43877" lon="6.69048">
        <ele>426</ele>
        <time>2014-10-12T09:16:05.000Z</time>
      </trkpt>
      <trkpt lat="47.43878" lon="6.69049">
        <ele>425</ele>
        <time>2014-10-12T09:16:06.000Z</time>
      </trkpt>
      <trkpt lat="47.43882" lon="6.69053">
        <ele>425.9</ele>
        <time>2014-10-12T09:16:08.000Z</time>
      </trkpt>
      <trkpt lat="47.43883" lon="6.69054">
        <ele>426.7</ele>
        <time>2014-10-12T09:16:09.000Z</time>
      </trkpt>
      <trkpt lat="47.43887" lon="6.69057">
        <ele>430.5</ele>
        <time>2014-10-12T09:16:19.000Z</time>
      </trkpt>
      <trkpt lat="47.43887" lon="6.69058">
        <ele>431.8</ele>
        <time>2014-10-12T09:16:20.000Z</time>
      </trkpt>
      <trkpt lat="47.4389" lon="6.69063">
        <ele>434.9</ele>
        <time>2014-10-12T09:16:27.000Z</time>
      </trkpt>
      <trkpt lat="47.43891" lon="6.69063">
        <ele>435.5</ele>
        <time>2014-10-12T09:16:28.000Z</time>
      </trkpt>
      <trkpt lat="47.43894" lon="6.69067">
        <ele>438</ele>
        <time>2014-10-12T09:16:35.000Z</time>
      </trkpt>
      <trkpt lat="47.43894" lon="6.69067">
        <ele>437.4</ele>
        <time>2014-10-12T09:16:36.000Z</time>
      </trkpt>
      <trkpt lat="47.43897" lon="6.69072">
        <ele>438.9</ele>
        <time>2014-10-12T09:16:42.000Z</time>
      </trkpt>
      <trkpt lat="47.43897" lon="6.69073">
        <ele>439</ele>
        <time>2014-10-12T09:16:43.000Z</time>
      </trkpt>
      <trkpt lat="47.43899" lon="6.69078">
        <ele>436.5</ele>
        <time>2014-10-12T09:16:46.000Z</time>
      </trkpt>
      <trkpt lat="47.43901" lon="6.69081">
        <ele>436.9</ele>
        <time>2014-10-12T09:16:47.000Z</time>
      </trkpt>
      <trkpt lat="47.43904" lon="6.69092">
        <ele>437.5</ele>
        <time>2014-10-12T09:16:55.000Z</time>
      </trkpt>
      <trkpt lat="47.43906" lon="6.69096">
        <ele>440</ele>
        <time>2014-10-12T09:16:58.000Z</time>
      </trkpt>
      <trkpt lat="47.43906" lon="6.69098">
        <ele>441.2</ele>
        <time>2014-10-12T09:16:59.000Z</time>
      </trkpt>
      <trkpt lat="47.43908" lon="6.69103">
        <ele>441.4</ele>
        <time>2014-10-12T09:17:02.000Z</time>
      </trkpt>
      <trkpt lat="47.43908" lon="6.69105">
        <ele>442.5</ele>
        <time>2014-10-12T09:17:03.000Z</time>
      </trkpt>
      <trkpt lat="47.43909" lon="6.6911">
        <ele>441.5</ele>
        <time>2014-10-12T09:17:06.000Z</time>
      </trkpt>
      <trkpt lat="47.4391" lon="6.69111">
        <ele>441</ele>
        <time>2014-10-12T09:17:07.000Z</time>
      </trkpt>
      <trkpt lat="47.43912" lon="6.69116">
        <ele>440.9</ele>
        <time>2014-10-12T09:17:10.000Z</time>
      </trkpt>
      <trkpt lat="47.43913" lon="6.69118">
        <ele>441.6</ele>
        <time>2014-10-12T09:17:11.000Z</time>
      </trkpt>
      <trkpt lat="47.43916" lon="6.69123">
        <ele>441</ele>
        <time>2014-10-12T09:17:15.000Z</time>
      </trkpt>
      <trkpt lat="47.43916" lon="6.69124">
        <ele>440.5</ele>
        <time>2014-10-12T09:17:16.000Z</time>
      </trkpt>
      <trkpt lat="47.4392" lon="6.69127">
        <ele>440.9</ele>
        <time>2014-10-12T09:17:22.000Z</time>
      </trkpt>
      <trkpt lat="47.43921" lon="6.69127">
        <ele>440.9</ele>
        <time>2014-10-12T09:17:23.000Z</time>
      </trkpt>
      <trkpt lat="47.43924" lon="6.69127">
        <ele>443.6</ele>
        <time>2014-10-12T09:17:27.000Z</time>
      </trkpt>
      <trkpt lat="47.43926" lon="6.69127">
        <ele>443.9</ele>
        <time>2014-10-12T09:17:28.000Z</time>
      </trkpt>
      <trkpt lat="47.43929" lon="6.69125">
        <ele>444.4</ele>
        <time>2014-10-12T09:17:32.000Z</time>
      </trkpt>
      <trkpt lat="47.4393" lon="6.69125">
        <ele>443.5</ele>
        <time>2014-10-12T09:17:33.000Z</time>
      </trkpt>
      <trkpt lat="47.43934" lon="6.69121">
        <ele>442.9</ele>
        <time>2014-10-12T09:17:36.000Z</time>
      </trkpt>
      <trkpt lat="47.43935" lon="6.69119">
        <ele>443</ele>
        <time>2014-10-12T09:17:37.000Z</time>
      </trkpt>
      <trkpt lat="47.43938" lon="6.69115">
        <ele>442.7</ele>
        <time>2014-10-12T09:17:40.000Z</time>
      </trkpt>
      <trkpt lat="47.43938" lon="6.69114">
        <ele>442.8</ele>
        <time>2014-10-12T09:17:41.000Z</time>
      </trkpt>
      <trkpt lat="47.43941" lon="6.6911">
        <ele>442.8</ele>
        <time>2014-10-12T09:17:46.000Z</time>
      </trkpt>
      <trkpt lat="47.43942" lon="6.6911">
        <ele>442.8</ele>
        <time>2014-10-12T09:17:47.000Z</time>
      </trkpt>
      <trkpt lat="47.43944" lon="6.69106">
        <ele>441.9</ele>
        <time>2014-10-12T09:17:54.000Z</time>
      </trkpt>
      <trkpt lat="47.43945" lon="6.69104">
        <ele>442</ele>
        <time>2014-10-12T09:17:55.000Z</time>
      </trkpt>
      <trkpt lat="47.43947" lon="6.691">
        <ele>443.7</ele>
        <time>2014-10-12T09:17:58.000Z</time>
      </trkpt>
      <trkpt lat="47.43948" lon="6.69098">
        <ele>443</ele>
        <time>2014-10-12T09:17:59.000Z</time>
      </trkpt>
      <trkpt lat="47.4395" lon="6.69096">
        <ele>442.9</ele>
        <time>2014-10-12T09:18:01.000Z</time>
      </trkpt>
      <trkpt lat="47.43952" lon="6.69095">
        <ele>443.5</ele>
        <time>2014-10-12T09:18:02.000Z</time>
      </trkpt>
      <trkpt lat="47.43955" lon="6.69093">
        <ele>442.8</ele>
        <time>2014-10-12T09:18:04.000Z</time>
      </trkpt>
      <trkpt lat="47.43956" lon="6.69092">
        <ele>442.7</ele>
        <time>2014-10-12T09:18:05.000Z</time>
      </trkpt>
      <trkpt lat="47.4396" lon="6.69088">
        <ele>443.9</ele>
        <time>2014-10-12T09:18:08.000Z</time>
      </trkpt>
      <trkpt lat="47.43961" lon="6.69087">
        <ele>444.3</ele>
        <time>2014-10-12T09:18:09.000Z</time>
      </trkpt>
      <trkpt lat="47.43963" lon="6.69082">
        <ele>442.7</ele>
        <time>2014-10-12T09:18:12.000Z</time>
      </trkpt>
      <trkpt lat="47.43964" lon="6.6908">
        <ele>442.9</ele>
        <time>2014-10-12T09:18:13.000Z</time>
      </trkpt>
      <trkpt lat="47.43967" lon="6.69076">
        <ele>442</ele>
        <time>2014-10-12T09:18:16.000Z</time>
      </trkpt>
      <trkpt lat="47.43969" lon="6.69075">
        <ele>441.2</ele>
        <time>2014-10-12T09:18:17.000Z</time>
      </trkpt>
      <trkpt lat="47.43972" lon="6.69072">
        <ele>440.7</ele>
        <time>2014-10-12T09:18:20.000Z</time>
      </trkpt>
      <trkpt lat="47.43973" lon="6.69071">
        <ele>441.4</ele>
        <time>2014-10-12T09:18:21.000Z</time>
      </trkpt>
      <trkpt lat="47.43976" lon="6.69068">
        <ele>441.1</ele>
        <time>2014-10-12T09:18:24.000Z</time>
      </trkpt>
      <trkpt lat="47.43977" lon="6.69067">
        <ele>441.3</ele>
        <time>2014-10-12T09:18:25.000Z</time>
      </trkpt>
      <trkpt lat="47.4398" lon="6.69065">
        <ele>440.4</ele>
        <time>2014-10-12T09:18:29.000Z</time>
      </trkpt>
      <trkpt lat="47.43981" lon="6.69065">
        <ele>440.9</ele>
        <time>2014-10-12T09:18:30.000Z</time>
      </trkpt>
      <trkpt lat="47.43984" lon="6.69063">
        <ele>440.6</ele>
        <time>2014-10-12T09:18:33.000Z</time>
      </trkpt>
      <trkpt lat="47.43985" lon="6.69062">
        <ele>440.2</ele>
        <time>2014-10-12T09:18:34.000Z</time>
      </trkpt>
      <trkpt lat="47.43988" lon="6.69058">
        <ele>440.3</ele>
        <time>2014-10-12T09:18:38.000Z</time>
      </trkpt>
      <trkpt lat="47.43989" lon="6.69056">
        <ele>440.8</ele>
        <time>2014-10-12T09:18:39.000Z</time>
      </trkpt>
      <trkpt lat="47.43991" lon="6.69052">
        <ele>440.8</ele>
        <time>2014-10-12T09:18:42.000Z</time>
      </trkpt>
      <trkpt lat="47.43992" lon="6.69051">
        <ele>440.8</ele>
        <time>2014-10-12T09:18:43.000Z</time>
      </trkpt>
      <trkpt lat="47.43994" lon="6.69047">
        <ele>442.9</ele>
        <time>2014-10-12T09:18:46.000Z</time>
      </trkpt>
      <trkpt lat="47.43996" lon="6.69045">
        <ele>443.8</ele>
        <time>2014-10-12T09:18:47.000Z</time>
      </trkpt>
      <trkpt lat="47.43998" lon="6.6904">
        <ele>447</ele>
        <time>2014-10-12T09:19:00.000Z</time>
      </trkpt>
      <trkpt lat="47.43999" lon="6.69038">
        <ele>447.7</ele>
        <time>2014-10-12T09:19:01.000Z</time>
      </trkpt>
      <trkpt lat="47.44001" lon="6.69034">
        <ele>448.8</ele>
        <time>2014-10-12T09:19:05.000Z</time>
      </trkpt>
      <trkpt lat="47.44001" lon="6.69033">
        <ele>448.9</ele>
        <time>2014-10-12T09:19:06.000Z</time>
      </trkpt>
      <trkpt lat="47.44003" lon="6.69028">
        <ele>448.6</ele>
        <time>2014-10-12T09:19:11.000Z</time>
      </trkpt>
      <trkpt lat="47.44004" lon="6.69027">
        <ele>448.2</ele>
        <time>2014-10-12T09:19:12.000Z</time>
      </trkpt>
      <trkpt lat="47.44006" lon="6.69021">
        <ele>445.3</ele>
        <time>2014-10-12T09:19:17.000Z</time>
      </trkpt>
      <trkpt lat="47.44006" lon="6.6902">
        <ele>444.9</ele>
        <time>2014-10-12T09:19:18.000Z</time>
      </trkpt>
      <trkpt lat="47.44007" lon="6.69014">
        <ele>445.6</ele>
        <time>2014-10-12T09:19:22.000Z</time>
      </trkpt>
      <trkpt lat="47.44007" lon="6.69013">
        <ele>446.3</ele>
        <time>2014-10-12T09:19:23.000Z</time>
      </trkpt>
      <trkpt lat="47.44006" lon="6.69007">
        <ele>446.4</ele>
        <time>2014-10-12T09:19:28.000Z</time>
      </trkpt>
      <trkpt lat="47.44006" lon="6.69005">
        <ele>446.7</ele>
        <time>2014-10-12T09:19:29.000Z</time>
      </trkpt>
      <trkpt lat="47.44005" lon="6.69">
        <ele>446.6</ele>
        <time>2014-10-12T09:19:34.000Z</time>
      </trkpt>
      <trkpt lat="47.44004" lon="6.68999">
        <ele>447.2</ele>
        <time>2014-10-12T09:19:35.000Z</time>
      </trkpt>
      <trkpt lat="47.44002" lon="6.68995">
        <ele>446.2</ele>
        <time>2014-10-12T09:19:37.000Z</time>
      </trkpt>
      <trkpt lat="47.44001" lon="6.68992">
        <ele>445.6</ele>
        <time>2014-10-12T09:19:38.000Z</time>
      </trkpt>
      <trkpt lat="47.43999" lon="6.6899">
        <ele>444.8</ele>
        <time>2014-10-12T09:19:39.000Z</time>
      </trkpt>
      <trkpt lat="47.43998" lon="6.68987">
        <ele>444.9</ele>
        <time>2014-10-12T09:19:40.000Z</time>
      </trkpt>
      <trkpt lat="47.43996" lon="6.68984">
        <ele>445</ele>
        <time>2014-10-12T09:19:41.000Z</time>
      </trkpt>
      <trkpt lat="47.43995" lon="6.68981">
        <ele>445.1</ele>
        <time>2014-10-12T09:19:42.000Z</time>
      </trkpt>
      <trkpt lat="47.43993" lon="6.68977">
        <ele>444.4</ele>
        <time>2014-10-12T09:19:44.000Z</time>
      </trkpt>
      <trkpt lat="47.43992" lon="6.68975">
        <ele>444.9</ele>
        <time>2014-10-12T09:19:45.000Z</time>
      </trkpt>
      <trkpt lat="47.4399" lon="6.68972">
        <ele>445.2</ele>
        <time>2014-10-12T09:19:47.000Z</time>
      </trkpt>
      <trkpt lat="47.43988" lon="6.68964">
        <ele>444.9</ele>
        <time>2014-10-12T09:19:51.000Z</time>
      </trkpt>
      <trkpt lat="47.43988" lon="6.68961">
        <ele>444.7</ele>
        <time>2014-10-12T09:19:52.000Z</time>
      </trkpt>
      <trkpt lat="47.43988" lon="6.68957">
        <ele>444.9</ele>
        <time>2014-10-12T09:19:53.000Z</time>
      </trkpt>
      <trkpt lat="47.43988" lon="6.68953">
        <ele>444.9</ele>
        <time>2014-10-12T09:19:54.000Z</time>
      </trkpt>
      <trkpt lat="47.43988" lon="6.6895">
        <ele>443</ele>
        <time>2014-10-12T09:19:55.000Z</time>
      </trkpt>
      <trkpt lat="47.43986" lon="6.68945">
        <ele>441.4</ele>
        <time>2014-10-12T09:19:57.000Z</time>
      </trkpt>
      <trkpt lat="47.43986" lon="6.68943">
        <ele>441.4</ele>
        <time>2014-10-12T09:19:58.000Z</time>
      </trkpt>
      <trkpt lat="47.43982" lon="6.6894">
        <ele>446.6</ele>
        <time>2014-10-12T09:20:00.000Z</time>
      </trkpt>
      <trkpt lat="47.4398" lon="6.68939">
        <ele>444.8</ele>
        <time>2014-10-12T09:20:01.000Z</time>
      </trkpt>
      <trkpt lat="47.43977" lon="6.68938">
        <ele>443.3</ele>
        <time>2014-10-12T09:20:02.000Z</time>
      </trkpt>
      <trkpt lat="47.43975" lon="6.68937">
        <ele>445.7</ele>
        <time>2014-10-12T09:20:03.000Z</time>
      </trkpt>
      <trkpt lat="47.43973" lon="6.68932">
        <ele>445.2</ele>
        <time>2014-10-12T09:20:05.000Z</time>
      </trkpt>
      <trkpt lat="47.43972" lon="6.6893">
        <ele>443.8</ele>
        <time>2014-10-12T09:20:06.000Z</time>
      </trkpt>
      <trkpt lat="47.43969" lon="6.68926">
        <ele>443.7</ele>
        <time>2014-10-12T09:20:08.000Z</time>
      </trkpt>
      <trkpt lat="47.43968" lon="6.68925">
        <ele>444</ele>
        <time>2014-10-12T09:20:09.000Z</time>
      </trkpt>
      <trkpt lat="47.43966" lon="6.68919">
        <ele>439.9</ele>
        <time>2014-10-12T09:20:13.000Z</time>
      </trkpt>
      <trkpt lat="47.43966" lon="6.68918">
        <ele>440.5</ele>
        <time>2014-10-12T09:20:14.000Z</time>
      </trkpt>
      <trkpt lat="47.43964" lon="6.68912">
        <ele>438.8</ele>
        <time>2014-10-12T09:20:17.000Z</time>
      </trkpt>
      <trkpt lat="47.43964" lon="6.68909">
        <ele>438.1</ele>
        <time>2014-10-12T09:20:18.000Z</time>
      </trkpt>
      <trkpt lat="47.43963" lon="6.68904">
        <ele>437.8</ele>
        <time>2014-10-12T09:20:20.000Z</time>
      </trkpt>
      <trkpt lat="47.43963" lon="6.68901">
        <ele>437.9</ele>
        <time>2014-10-12T09:20:21.000Z</time>
      </trkpt>
      <trkpt lat="47.43961" lon="6.68897">
        <ele>436.4</ele>
        <time>2014-10-12T09:20:23.000Z</time>
      </trkpt>
      <trkpt lat="47.43961" lon="6.68895">
        <ele>435.5</ele>
        <time>2014-10-12T09:20:24.000Z</time>
      </trkpt>
      <trkpt lat="47.43961" lon="6.68889">
        <ele>433.9</ele>
        <time>2014-10-12T09:20:26.000Z</time>
      </trkpt>
      <trkpt lat="47.4396" lon="6.68886">
        <ele>434</ele>
        <time>2014-10-12T09:20:27.000Z</time>
      </trkpt>
      <trkpt lat="47.43958" lon="6.68881">
        <ele>431.3</ele>
        <time>2014-10-12T09:20:29.000Z</time>
      </trkpt>
      <trkpt lat="47.43957" lon="6.68878">
        <ele>430.4</ele>
        <time>2014-10-12T09:20:30.000Z</time>
      </trkpt>
      <trkpt lat="47.43954" lon="6.68873">
        <ele>429.9</ele>
        <time>2014-10-12T09:20:32.000Z</time>
      </trkpt>
      <trkpt lat="47.43952" lon="6.68871">
        <ele>429.9</ele>
        <time>2014-10-12T09:20:33.000Z</time>
      </trkpt>
      <trkpt lat="47.4395" lon="6.68869">
        <ele>429</ele>
        <time>2014-10-12T09:20:34.000Z</time>
      </trkpt>
      <trkpt lat="47.43948" lon="6.68867">
        <ele>427.8</ele>
        <time>2014-10-12T09:20:35.000Z</time>
      </trkpt>
      <trkpt lat="47.43945" lon="6.68863">
        <ele>426.9</ele>
        <time>2014-10-12T09:20:37.000Z</time>
      </trkpt>
      <trkpt lat="47.43943" lon="6.68862">
        <ele>426.7</ele>
        <time>2014-10-12T09:20:38.000Z</time>
      </trkpt>
      <trkpt lat="47.43941" lon="6.68861">
        <ele>427.3</ele>
        <time>2014-10-12T09:20:39.000Z</time>
      </trkpt>
      <trkpt lat="47.43939" lon="6.68859">
        <ele>427.9</ele>
        <time>2014-10-12T09:20:40.000Z</time>
      </trkpt>
      <trkpt lat="47.43937" lon="6.68858">
        <ele>429</ele>
        <time>2014-10-12T09:20:41.000Z</time>
      </trkpt>
      <trkpt lat="47.43934" lon="6.68856">
        <ele>429.8</ele>
        <time>2014-10-12T09:20:42.000Z</time>
      </trkpt>
      <trkpt lat="47.43931" lon="6.68854">
        <ele>430</ele>
        <time>2014-10-12T09:20:43.000Z</time>
      </trkpt>
      <trkpt lat="47.43929" lon="6.68852">
        <ele>431.1</ele>
        <time>2014-10-12T09:20:44.000Z</time>
      </trkpt>
      <trkpt lat="47.43926" lon="6.68849">
        <ele>434.1</ele>
        <time>2014-10-12T09:20:46.000Z</time>
      </trkpt>
      <trkpt lat="47.43925" lon="6.68848">
        <ele>434.5</ele>
        <time>2014-10-12T09:20:47.000Z</time>
      </trkpt>
      <trkpt lat="47.43922" lon="6.68844">
        <ele>433.6</ele>
        <time>2014-10-12T09:20:50.000Z</time>
      </trkpt>
      <trkpt lat="47.43921" lon="6.68843">
        <ele>435</ele>
        <time>2014-10-12T09:20:51.000Z</time>
      </trkpt>
      <trkpt lat="47.43919" lon="6.68838">
        <ele>433.1</ele>
        <time>2014-10-12T09:21:23.000Z</time>
      </trkpt>
      <trkpt lat="47.43918" lon="6.68837">
        <ele>433</ele>
        <time>2014-10-12T09:21:24.000Z</time>
      </trkpt>
      <trkpt lat="47.43915" lon="6.68833">
        <ele>430.6</ele>
        <time>2014-10-12T09:21:27.000Z</time>
      </trkpt>
      <trkpt lat="47.43914" lon="6.68831">
        <ele>429.4</ele>
        <time>2014-10-12T09:21:28.000Z</time>
      </trkpt>
      <trkpt lat="47.43913" lon="6.68826">
        <ele>425.7</ele>
        <time>2014-10-12T09:21:31.000Z</time>
      </trkpt>
      <trkpt lat="47.43913" lon="6.68824">
        <ele>425.1</ele>
        <time>2014-10-12T09:21:32.000Z</time>
      </trkpt>
      <trkpt lat="47.4391" lon="6.68821">
        <ele>423.3</ele>
        <time>2014-10-12T09:21:35.000Z</time>
      </trkpt>
      <trkpt lat="47.43908" lon="6.68818">
        <ele>422.3</ele>
        <time>2014-10-12T09:21:36.000Z</time>
      </trkpt>
      <trkpt lat="47.43906" lon="6.68815">
        <ele>421.5</ele>
        <time>2014-10-12T09:21:37.000Z</time>
      </trkpt>
      <trkpt lat="47.43904" lon="6.6881">
        <ele>420.3</ele>
        <time>2014-10-12T09:21:38.000Z</time>
      </trkpt>
      <trkpt lat="47.43901" lon="6.68804">
        <ele>419.9</ele>
        <time>2014-10-12T09:21:39.000Z</time>
      </trkpt>
      <trkpt lat="47.43899" lon="6.68799">
        <ele>420.2</ele>
        <time>2014-10-12T09:21:40.000Z</time>
      </trkpt>
      <trkpt lat="47.43897" lon="6.68794">
        <ele>421</ele>
        <time>2014-10-12T09:21:41.000Z</time>
      </trkpt>
      <trkpt lat="47.43896" lon="6.6879">
        <ele>418.6</ele>
        <time>2014-10-12T09:21:42.000Z</time>
      </trkpt>
      <trkpt lat="47.43895" lon="6.68785">
        <ele>415.4</ele>
        <time>2014-10-12T09:21:44.000Z</time>
      </trkpt>
      <trkpt lat="47.43894" lon="6.68782">
        <ele>413</ele>
        <time>2014-10-12T09:21:45.000Z</time>
      </trkpt>
      <trkpt lat="47.43891" lon="6.68778">
        <ele>410.8</ele>
        <time>2014-10-12T09:21:47.000Z</time>
      </trkpt>
      <trkpt lat="47.43886" lon="6.68765">
        <ele>363.1</ele>
        <time>2014-10-12T09:21:55.000Z</time>
      </trkpt>
      <trkpt lat="47.43889" lon="6.68764">
        <ele>362.9</ele>
        <time>2014-10-12T09:21:57.000Z</time>
      </trkpt>
      <trkpt lat="47.4389" lon="6.68761">
        <ele>363.6</ele>
        <time>2014-10-12T09:21:58.000Z</time>
      </trkpt>
      <trkpt lat="47.43893" lon="6.68757">
        <ele>363.9</ele>
        <time>2014-10-12T09:21:59.000Z</time>
      </trkpt>
      <trkpt lat="47.43895" lon="6.68751">
        <ele>365.2</ele>
        <time>2014-10-12T09:22:00.000Z</time>
      </trkpt>
      <trkpt lat="47.43898" lon="6.68745">
        <ele>366.5</ele>
        <time>2014-10-12T09:22:01.000Z</time>
      </trkpt>
      <trkpt lat="47.43901" lon="6.6874">
        <ele>366</ele>
        <time>2014-10-12T09:22:02.000Z</time>
      </trkpt>
      <trkpt lat="47.43904" lon="6.68735">
        <ele>365.9</ele>
        <time>2014-10-12T09:22:03.000Z</time>
      </trkpt>
      <trkpt lat="47.43908" lon="6.6873">
        <ele>367.9</ele>
        <time>2014-10-12T09:22:04.000Z</time>
      </trkpt>
      <trkpt lat="47.43911" lon="6.68725">
        <ele>368.5</ele>
        <time>2014-10-12T09:22:05.000Z</time>
      </trkpt>
      <trkpt lat="47.43915" lon="6.68721">
        <ele>369.4</ele>
        <time>2014-10-12T09:22:06.000Z</time>
      </trkpt>
      <trkpt lat="47.43917" lon="6.68718">
        <ele>370.2</ele>
        <time>2014-10-12T09:22:07.000Z</time>
      </trkpt>
      <trkpt lat="47.4392" lon="6.68715">
        <ele>369.4</ele>
        <time>2014-10-12T09:22:08.000Z</time>
      </trkpt>
      <trkpt lat="47.43922" lon="6.68713">
        <ele>368.3</ele>
        <time>2014-10-12T09:22:09.000Z</time>
      </trkpt>
      <trkpt lat="47.43925" lon="6.68711">
        <ele>367.9</ele>
        <time>2014-10-12T09:22:10.000Z</time>
      </trkpt>
      <trkpt lat="47.43928" lon="6.68709">
        <ele>368.8</ele>
        <time>2014-10-12T09:22:11.000Z</time>
      </trkpt>
      <trkpt lat="47.43931" lon="6.68707">
        <ele>370.7</ele>
        <time>2014-10-12T09:22:12.000Z</time>
      </trkpt>
      <trkpt lat="47.43934" lon="6.68704">
        <ele>372.4</ele>
        <time>2014-10-12T09:22:13.000Z</time>
      </trkpt>
      <trkpt lat="47.43939" lon="6.68683">
        <ele>375</ele>
        <time>2014-10-12T09:22:14.000Z</time>
      </trkpt>
      <trkpt lat="47.43942" lon="6.68676">
        <ele>376.4</ele>
        <time>2014-10-12T09:22:15.000Z</time>
      </trkpt>
      <trkpt lat="47.43944" lon="6.6867">
        <ele>378.6</ele>
        <time>2014-10-12T09:22:16.000Z</time>
      </trkpt>
      <trkpt lat="47.43947" lon="6.68664">
        <ele>379.9</ele>
        <time>2014-10-12T09:22:17.000Z</time>
      </trkpt>
      <trkpt lat="47.43947" lon="6.68658">
        <ele>379.4</ele>
        <time>2014-10-12T09:22:18.000Z</time>
      </trkpt>
      <trkpt lat="47.43949" lon="6.68651">
        <ele>380.4</ele>
        <time>2014-10-12T09:22:19.000Z</time>
      </trkpt>
      <trkpt lat="47.4395" lon="6.68645">
        <ele>382.3</ele>
        <time>2014-10-12T09:22:20.000Z</time>
      </trkpt>
      <trkpt lat="47.43952" lon="6.68638">
        <ele>385.5</ele>
        <time>2014-10-12T09:22:21.000Z</time>
      </trkpt>
      <trkpt lat="47.4395" lon="6.68636">
        <ele>384.1</ele>
        <time>2014-10-12T09:22:23.000Z</time>
      </trkpt>
      <trkpt lat="47.43952" lon="6.68626">
        <ele>386.5</ele>
        <time>2014-10-12T09:22:24.000Z</time>
      </trkpt>
      <trkpt lat="47.43953" lon="6.68621">
        <ele>387.1</ele>
        <time>2014-10-12T09:22:25.000Z</time>
      </trkpt>
      <trkpt lat="47.43955" lon="6.68617">
        <ele>388.3</ele>
        <time>2014-10-12T09:22:26.000Z</time>
      </trkpt>
      <trkpt lat="47.43958" lon="6.68612">
        <ele>388.4</ele>
        <time>2014-10-12T09:22:27.000Z</time>
      </trkpt>
      <trkpt lat="47.43961" lon="6.6861">
        <ele>389</ele>
        <time>2014-10-12T09:22:28.000Z</time>
      </trkpt>
      <trkpt lat="47.43963" lon="6.68609">
        <ele>389.3</ele>
        <time>2014-10-12T09:22:29.000Z</time>
      </trkpt>
      <trkpt lat="47.43966" lon="6.68606">
        <ele>392.8</ele>
        <time>2014-10-12T09:22:30.000Z</time>
      </trkpt>
      <trkpt lat="47.43969" lon="6.68604">
        <ele>395.7</ele>
        <time>2014-10-12T09:22:31.000Z</time>
      </trkpt>
      <trkpt lat="47.43971" lon="6.686">
        <ele>397.9</ele>
        <time>2014-10-12T09:22:32.000Z</time>
      </trkpt>
      <trkpt lat="47.43974" lon="6.68596">
        <ele>401.1</ele>
        <time>2014-10-12T09:22:33.000Z</time>
      </trkpt>
      <trkpt lat="47.43977" lon="6.68592">
        <ele>403.5</ele>
        <time>2014-10-12T09:22:34.000Z</time>
      </trkpt>
      <trkpt lat="47.43979" lon="6.68588">
        <ele>404.1</ele>
        <time>2014-10-12T09:22:35.000Z</time>
      </trkpt>
      <trkpt lat="47.43982" lon="6.68584">
        <ele>404.1</ele>
        <time>2014-10-12T09:22:36.000Z</time>
      </trkpt>
      <trkpt lat="47.43984" lon="6.6858">
        <ele>405.7</ele>
        <time>2014-10-12T09:22:37.000Z</time>
      </trkpt>
      <trkpt lat="47.43987" lon="6.68577">
        <ele>407.2</ele>
        <time>2014-10-12T09:22:38.000Z</time>
      </trkpt>
      <trkpt lat="47.43989" lon="6.68573">
        <ele>408.8</ele>
        <time>2014-10-12T09:22:39.000Z</time>
      </trkpt>
      <trkpt lat="47.43991" lon="6.6857">
        <ele>410.1</ele>
        <time>2014-10-12T09:22:40.000Z</time>
      </trkpt>
      <trkpt lat="47.43994" lon="6.68566">
        <ele>411</ele>
        <time>2014-10-12T09:22:41.000Z</time>
      </trkpt>
      <trkpt lat="47.43996" lon="6.68563">
        <ele>411.7</ele>
        <time>2014-10-12T09:22:42.000Z</time>
      </trkpt>
      <trkpt lat="47.43998" lon="6.6856">
        <ele>413.2</ele>
        <time>2014-10-12T09:22:43.000Z</time>
      </trkpt>
      <trkpt lat="47.44001" lon="6.68558">
        <ele>414.1</ele>
        <time>2014-10-12T09:22:44.000Z</time>
      </trkpt>
      <trkpt lat="47.44004" lon="6.68555">
        <ele>415.2</ele>
        <time>2014-10-12T09:22:45.000Z</time>
      </trkpt>
      <trkpt lat="47.44007" lon="6.68552">
        <ele>415.6</ele>
        <time>2014-10-12T09:22:46.000Z</time>
      </trkpt>
      <trkpt lat="47.4401" lon="6.6855">
        <ele>416.7</ele>
        <time>2014-10-12T09:22:47.000Z</time>
      </trkpt>
      <trkpt lat="47.44019" lon="6.68546">
        <ele>409.5</ele>
        <time>2014-10-12T09:22:51.000Z</time>
      </trkpt>
      <trkpt lat="47.44021" lon="6.68545">
        <ele>410.2</ele>
        <time>2014-10-12T09:22:52.000Z</time>
      </trkpt>
      <trkpt lat="47.44023" lon="6.68544">
        <ele>411.1</ele>
        <time>2014-10-12T09:22:53.000Z</time>
      </trkpt>
      <trkpt lat="47.44026" lon="6.68543">
        <ele>412</ele>
        <time>2014-10-12T09:22:54.000Z</time>
      </trkpt>
      <trkpt lat="47.44029" lon="6.68541">
        <ele>412.5</ele>
        <time>2014-10-12T09:22:55.000Z</time>
      </trkpt>
      <trkpt lat="47.44032" lon="6.68539">
        <ele>413.2</ele>
        <time>2014-10-12T09:22:56.000Z</time>
      </trkpt>
      <trkpt lat="47.44036" lon="6.68536">
        <ele>410.7</ele>
        <time>2014-10-12T09:22:57.000Z</time>
      </trkpt>
      <trkpt lat="47.44041" lon="6.68533">
        <ele>407.7</ele>
        <time>2014-10-12T09:22:58.000Z</time>
      </trkpt>
      <trkpt lat="47.44045" lon="6.6853">
        <ele>402.9</ele>
        <time>2014-10-12T09:22:59.000Z</time>
      </trkpt>
      <trkpt lat="47.44048" lon="6.68527">
        <ele>401.9</ele>
        <time>2014-10-12T09:23:00.000Z</time>
      </trkpt>
      <trkpt lat="47.44051" lon="6.68524">
        <ele>399.7</ele>
        <time>2014-10-12T09:23:01.000Z</time>
      </trkpt>
      <trkpt lat="47.44055" lon="6.68521">
        <ele>399.1</ele>
        <time>2014-10-12T09:23:02.000Z</time>
      </trkpt>
      <trkpt lat="47.44058" lon="6.68517">
        <ele>402</ele>
        <time>2014-10-12T09:23:03.000Z</time>
      </trkpt>
      <trkpt lat="47.44061" lon="6.68514">
        <ele>405.1</ele>
        <time>2014-10-12T09:23:04.000Z</time>
      </trkpt>
      <trkpt lat="47.44064" lon="6.68511">
        <ele>408.2</ele>
        <time>2014-10-12T09:23:05.000Z</time>
      </trkpt>
      <trkpt lat="47.44066" lon="6.68506">
        <ele>412.1</ele>
        <time>2014-10-12T09:23:07.000Z</time>
      </trkpt>
      <trkpt lat="47.44068" lon="6.68504">
        <ele>414.6</ele>
        <time>2014-10-12T09:23:08.000Z</time>
      </trkpt>
      <trkpt lat="47.4407" lon="6.68499">
        <ele>418.4</ele>
        <time>2014-10-12T09:23:10.000Z</time>
      </trkpt>
      <trkpt lat="47.44071" lon="6.68496">
        <ele>420.1</ele>
        <time>2014-10-12T09:23:11.000Z</time>
      </trkpt>
      <trkpt lat="47.44073" lon="6.68492">
        <ele>423.5</ele>
        <time>2014-10-12T09:23:13.000Z</time>
      </trkpt>
      <trkpt lat="47.44074" lon="6.6849">
        <ele>424.1</ele>
        <time>2014-10-12T09:23:14.000Z</time>
      </trkpt>
      <trkpt lat="47.44075" lon="6.68484">
        <ele>422.9</ele>
        <time>2014-10-12T09:23:17.000Z</time>
      </trkpt>
      <trkpt lat="47.44076" lon="6.68482">
        <ele>422.7</ele>
        <time>2014-10-12T09:23:18.000Z</time>
      </trkpt>
      <trkpt lat="47.44077" lon="6.68478">
        <ele>423.8</ele>
        <time>2014-10-12T09:23:20.000Z</time>
      </trkpt>
      <trkpt lat="47.44078" lon="6.68475">
        <ele>424.7</ele>
        <time>2014-10-12T09:23:21.000Z</time>
      </trkpt>
      <trkpt lat="47.4408" lon="6.68469">
        <ele>425.3</ele>
        <time>2014-10-12T09:23:23.000Z</time>
      </trkpt>
      <trkpt lat="47.44081" lon="6.68465">
        <ele>424.8</ele>
        <time>2014-10-12T09:23:24.000Z</time>
      </trkpt>
      <trkpt lat="47.44082" lon="6.6846">
        <ele>424.5</ele>
        <time>2014-10-12T09:23:25.000Z</time>
      </trkpt>
      <trkpt lat="47.44083" lon="6.68454">
        <ele>424.2</ele>
        <time>2014-10-12T09:23:26.000Z</time>
      </trkpt>
      <trkpt lat="47.44083" lon="6.68448">
        <ele>423.9</ele>
        <time>2014-10-12T09:23:27.000Z</time>
      </trkpt>
      <trkpt lat="47.44083" lon="6.68442">
        <ele>424.6</ele>
        <time>2014-10-12T09:23:28.000Z</time>
      </trkpt>
      <trkpt lat="47.44083" lon="6.68438">
        <ele>424.4</ele>
        <time>2014-10-12T09:23:29.000Z</time>
      </trkpt>
      <trkpt lat="47.44083" lon="6.68435">
        <ele>424</ele>
        <time>2014-10-12T09:23:30.000Z</time>
      </trkpt>
      <trkpt lat="47.44083" lon="6.68429">
        <ele>423</ele>
        <time>2014-10-12T09:23:32.000Z</time>
      </trkpt>
      <trkpt lat="47.44083" lon="6.68425">
        <ele>422.7</ele>
        <time>2014-10-12T09:23:33.000Z</time>
      </trkpt>
      <trkpt lat="47.44083" lon="6.68422">
        <ele>422.6</ele>
        <time>2014-10-12T09:23:34.000Z</time>
      </trkpt>
      <trkpt lat="47.44084" lon="6.68418">
        <ele>421.2</ele>
        <time>2014-10-12T09:23:35.000Z</time>
      </trkpt>
      <trkpt lat="47.44085" lon="6.68414">
        <ele>420.2</ele>
        <time>2014-10-12T09:23:36.000Z</time>
      </trkpt>
      <trkpt lat="47.44085" lon="6.68409">
        <ele>418.7</ele>
        <time>2014-10-12T09:23:37.000Z</time>
      </trkpt>
      <trkpt lat="47.44086" lon="6.68404">
        <ele>415.7</ele>
        <time>2014-10-12T09:23:38.000Z</time>
      </trkpt>
      <trkpt lat="47.44088" lon="6.684">
        <ele>412.5</ele>
        <time>2014-10-12T09:23:39.000Z</time>
      </trkpt>
      <trkpt lat="47.44091" lon="6.68395">
        <ele>411.3</ele>
        <time>2014-10-12T09:23:40.000Z</time>
      </trkpt>
      <trkpt lat="47.44094" lon="6.68391">
        <ele>411</ele>
        <time>2014-10-12T09:23:41.000Z</time>
      </trkpt>
      <trkpt lat="47.44098" lon="6.68386">
        <ele>411</ele>
        <time>2014-10-12T09:23:42.000Z</time>
      </trkpt>
      <trkpt lat="47.44101" lon="6.68382">
        <ele>410.2</ele>
        <time>2014-10-12T09:23:43.000Z</time>
      </trkpt>
      <trkpt lat="47.44106" lon="6.68377">
        <ele>410.1</ele>
        <time>2014-10-12T09:23:44.000Z</time>
      </trkpt>
      <trkpt lat="47.44122" lon="6.68357">
        <ele>409.9</ele>
        <time>2014-10-12T09:23:45.000Z</time>
      </trkpt>
      <trkpt lat="47.44128" lon="6.68352">
        <ele>409.5</ele>
        <time>2014-10-12T09:23:46.000Z</time>
      </trkpt>
      <trkpt lat="47.44135" lon="6.68346">
        <ele>409.4</ele>
        <time>2014-10-12T09:23:47.000Z</time>
      </trkpt>
      <trkpt lat="47.44155" lon="6.68331">
        <ele>365.5</ele>
        <time>2014-10-12T09:23:51.000Z</time>
      </trkpt>
      <trkpt lat="47.44162" lon="6.68322">
        <ele>367.3</ele>
        <time>2014-10-12T09:23:52.000Z</time>
      </trkpt>
      <trkpt lat="47.44166" lon="6.68319">
        <ele>369</ele>
        <time>2014-10-12T09:23:53.000Z</time>
      </trkpt>
      <trkpt lat="47.44169" lon="6.68317">
        <ele>370.3</ele>
        <time>2014-10-12T09:23:54.000Z</time>
      </trkpt>
      <trkpt lat="47.44171" lon="6.68315">
        <ele>371.9</ele>
        <time>2014-10-12T09:23:55.000Z</time>
      </trkpt>
      <trkpt lat="47.44175" lon="6.68311">
        <ele>373</ele>
        <time>2014-10-12T09:23:56.000Z</time>
      </trkpt>
      <trkpt lat="47.44178" lon="6.68308">
        <ele>374.1</ele>
        <time>2014-10-12T09:23:57.000Z</time>
      </trkpt>
      <trkpt lat="47.44184" lon="6.68306">
        <ele>375</ele>
        <time>2014-10-12T09:23:58.000Z</time>
      </trkpt>
      <trkpt lat="47.44188" lon="6.68305">
        <ele>376.2</ele>
        <time>2014-10-12T09:23:59.000Z</time>
      </trkpt>
      <trkpt lat="47.44194" lon="6.68303">
        <ele>377.5</ele>
        <time>2014-10-12T09:24:00.000Z</time>
      </trkpt>
      <trkpt lat="47.44197" lon="6.68302">
        <ele>378.4</ele>
        <time>2014-10-12T09:24:01.000Z</time>
      </trkpt>
      <trkpt lat="47.44201" lon="6.68301">
        <ele>378.4</ele>
        <time>2014-10-12T09:24:02.000Z</time>
      </trkpt>
      <trkpt lat="47.44203" lon="6.68301">
        <ele>379.4</ele>
        <time>2014-10-12T09:24:03.000Z</time>
      </trkpt>
      <trkpt lat="47.44205" lon="6.68301">
        <ele>379.9</ele>
        <time>2014-10-12T09:24:04.000Z</time>
      </trkpt>
      <trkpt lat="47.44208" lon="6.68301">
        <ele>379.5</ele>
        <time>2014-10-12T09:24:05.000Z</time>
      </trkpt>
      <trkpt lat="47.4421" lon="6.68301">
        <ele>379.8</ele>
        <time>2014-10-12T09:24:06.000Z</time>
      </trkpt>
      <trkpt lat="47.44213" lon="6.68301">
        <ele>380.2</ele>
        <time>2014-10-12T09:24:07.000Z</time>
      </trkpt>
      <trkpt lat="47.44217" lon="6.68302">
        <ele>381</ele>
        <time>2014-10-12T09:24:08.000Z</time>
      </trkpt>
      <trkpt lat="47.44221" lon="6.68302">
        <ele>380.3</ele>
        <time>2014-10-12T09:24:09.000Z</time>
      </trkpt>
      <trkpt lat="47.44226" lon="6.68303">
        <ele>378.8</ele>
        <time>2014-10-12T09:24:10.000Z</time>
      </trkpt>
      <trkpt lat="47.44232" lon="6.68303">
        <ele>379.1</ele>
        <time>2014-10-12T09:24:11.000Z</time>
      </trkpt>
      <trkpt lat="47.44238" lon="6.68304">
        <ele>378.9</ele>
        <time>2014-10-12T09:24:12.000Z</time>
      </trkpt>
      <trkpt lat="47.44244" lon="6.68304">
        <ele>379.4</ele>
        <time>2014-10-12T09:24:13.000Z</time>
      </trkpt>
      <trkpt lat="47.4425" lon="6.68306">
        <ele>379.5</ele>
        <time>2014-10-12T09:24:14.000Z</time>
      </trkpt>
      <trkpt lat="47.44257" lon="6.68308">
        <ele>380.7</ele>
        <time>2014-10-12T09:24:15.000Z</time>
      </trkpt>
      <trkpt lat="47.44263" lon="6.68311">
        <ele>380.5</ele>
        <time>2014-10-12T09:24:16.000Z</time>
      </trkpt>
      <trkpt lat="47.44269" lon="6.68314">
        <ele>379.4</ele>
        <time>2014-10-12T09:24:17.000Z</time>
      </trkpt>
      <trkpt lat="47.44276" lon="6.68316">
        <ele>378.7</ele>
        <time>2014-10-12T09:24:18.000Z</time>
      </trkpt>
      <trkpt lat="47.44282" lon="6.68319">
        <ele>380.4</ele>
        <time>2014-10-12T09:24:19.000Z</time>
      </trkpt>
      <trkpt lat="47.44288" lon="6.68321">
        <ele>381.1</ele>
        <time>2014-10-12T09:24:20.000Z</time>
      </trkpt>
      <trkpt lat="47.44294" lon="6.68322">
        <ele>381.9</ele>
        <time>2014-10-12T09:24:21.000Z</time>
      </trkpt>
      <trkpt lat="47.44298" lon="6.68322">
        <ele>382.9</ele>
        <time>2014-10-12T09:24:22.000Z</time>
      </trkpt>
      <trkpt lat="47.44302" lon="6.68323">
        <ele>384.4</ele>
        <time>2014-10-12T09:24:23.000Z</time>
      </trkpt>
      <trkpt lat="47.44306" lon="6.68324">
        <ele>385</ele>
        <time>2014-10-12T09:24:24.000Z</time>
      </trkpt>
      <trkpt lat="47.4431" lon="6.68326">
        <ele>385.9</ele>
        <time>2014-10-12T09:24:25.000Z</time>
      </trkpt>
      <trkpt lat="47.44313" lon="6.68327">
        <ele>383.1</ele>
        <time>2014-10-12T09:24:26.000Z</time>
      </trkpt>
      <trkpt lat="47.44317" lon="6.68328">
        <ele>381.8</ele>
        <time>2014-10-12T09:24:27.000Z</time>
      </trkpt>
      <trkpt lat="47.44321" lon="6.68329">
        <ele>381.5</ele>
        <time>2014-10-12T09:24:28.000Z</time>
      </trkpt>
      <trkpt lat="47.44325" lon="6.6833">
        <ele>381.8</ele>
        <time>2014-10-12T09:24:29.000Z</time>
      </trkpt>
      <trkpt lat="47.44329" lon="6.6833">
        <ele>381.5</ele>
        <time>2014-10-12T09:24:30.000Z</time>
      </trkpt>
      <trkpt lat="47.44333" lon="6.68331">
        <ele>381.4</ele>
        <time>2014-10-12T09:24:31.000Z</time>
      </trkpt>
      <trkpt lat="47.44337" lon="6.68332">
        <ele>381.1</ele>
        <time>2014-10-12T09:24:32.000Z</time>
      </trkpt>
      <trkpt lat="47.44341" lon="6.68333">
        <ele>380.5</ele>
        <time>2014-10-12T09:24:33.000Z</time>
      </trkpt>
      <trkpt lat="47.44344" lon="6.68333">
        <ele>380.7</ele>
        <time>2014-10-12T09:24:34.000Z</time>
      </trkpt>
      <trkpt lat="47.44348" lon="6.68334">
        <ele>381</ele>
        <time>2014-10-12T09:24:35.000Z</time>
      </trkpt>
      <trkpt lat="47.44352" lon="6.68335">
        <ele>379.4</ele>
        <time>2014-10-12T09:24:36.000Z</time>
      </trkpt>
      <trkpt lat="47.44355" lon="6.68336">
        <ele>377.3</ele>
        <time>2014-10-12T09:24:37.000Z</time>
      </trkpt>
      <trkpt lat="47.44359" lon="6.68338">
        <ele>376.1</ele>
        <time>2014-10-12T09:24:38.000Z</time>
      </trkpt>
      <trkpt lat="47.44364" lon="6.68339">
        <ele>375.9</ele>
        <time>2014-10-12T09:24:39.000Z</time>
      </trkpt>
      <trkpt lat="47.44384" lon="6.68347">
        <ele>373.1</ele>
        <time>2014-10-12T09:24:40.000Z</time>
      </trkpt>
      <trkpt lat="47.44391" lon="6.6835">
        <ele>372.4</ele>
        <time>2014-10-12T09:24:41.000Z</time>
      </trkpt>
      <trkpt lat="47.44405" lon="6.68357">
        <ele>372.9</ele>
        <time>2014-10-12T09:24:42.000Z</time>
      </trkpt>
      <trkpt lat="47.44416" lon="6.68363">
        <ele>372.6</ele>
        <time>2014-10-12T09:24:43.000Z</time>
      </trkpt>
      <trkpt lat="47.44426" lon="6.68369">
        <ele>371.5</ele>
        <time>2014-10-12T09:24:44.000Z</time>
      </trkpt>
      <trkpt lat="47.44434" lon="6.68377">
        <ele>371.1</ele>
        <time>2014-10-12T09:24:45.000Z</time>
      </trkpt>
      <trkpt lat="47.44442" lon="6.68385">
        <ele>371.7</ele>
        <time>2014-10-12T09:24:46.000Z</time>
      </trkpt>
      <trkpt lat="47.4445" lon="6.68391">
        <ele>373.8</ele>
        <time>2014-10-12T09:24:47.000Z</time>
      </trkpt>
      <trkpt lat="47.44464" lon="6.68412">
        <ele>367.8</ele>
        <time>2014-10-12T09:24:51.000Z</time>
      </trkpt>
      <trkpt lat="47.44469" lon="6.68423">
        <ele>368.3</ele>
        <time>2014-10-12T09:24:52.000Z</time>
      </trkpt>
      <trkpt lat="47.4448" lon="6.68424">
        <ele>366.6</ele>
        <time>2014-10-12T09:24:53.000Z</time>
      </trkpt>
      <trkpt lat="47.44485" lon="6.6843">
        <ele>365.7</ele>
        <time>2014-10-12T09:24:54.000Z</time>
      </trkpt>
      <trkpt lat="47.44488" lon="6.68435">
        <ele>363.5</ele>
        <time>2014-10-12T09:24:55.000Z</time>
      </trkpt>
      <trkpt lat="47.44495" lon="6.6844">
        <ele>363.8</ele>
        <time>2014-10-12T09:24:56.000Z</time>
      </trkpt>
      <trkpt lat="47.44498" lon="6.68443">
        <ele>362.4</ele>
        <time>2014-10-12T09:24:57.000Z</time>
      </trkpt>
      <trkpt lat="47.44504" lon="6.68444">
        <ele>358.6</ele>
        <time>2014-10-12T09:24:58.000Z</time>
      </trkpt>
      <trkpt lat="47.44507" lon="6.68445">
        <ele>356.6</ele>
        <time>2014-10-12T09:24:59.000Z</time>
      </trkpt>
      <trkpt lat="47.4451" lon="6.68446">
        <ele>355.2</ele>
        <time>2014-10-12T09:25:00.000Z</time>
      </trkpt>
      <trkpt lat="47.44514" lon="6.68447">
        <ele>356.7</ele>
        <time>2014-10-12T09:25:01.000Z</time>
      </trkpt>
      <trkpt lat="47.44522" lon="6.6846">
        <ele>356.3</ele>
        <time>2014-10-12T09:25:02.000Z</time>
      </trkpt>
      <trkpt lat="47.44524" lon="6.68464">
        <ele>356</ele>
        <time>2014-10-12T09:25:03.000Z</time>
      </trkpt>
      <trkpt lat="47.44527" lon="6.68469">
        <ele>354.6</ele>
        <time>2014-10-12T09:25:04.000Z</time>
      </trkpt>
      <trkpt lat="47.44528" lon="6.68471">
        <ele>355</ele>
        <time>2014-10-12T09:25:05.000Z</time>
      </trkpt>
      <trkpt lat="47.4453" lon="6.68474">
        <ele>355.2</ele>
        <time>2014-10-12T09:25:06.000Z</time>
      </trkpt>
      <trkpt lat="47.44534" lon="6.68477">
        <ele>352.6</ele>
        <time>2014-10-12T09:25:08.000Z</time>
      </trkpt>
      <trkpt lat="47.44537" lon="6.68478">
        <ele>354</ele>
        <time>2014-10-12T09:25:09.000Z</time>
      </trkpt>
      <trkpt lat="47.44541" lon="6.68484">
        <ele>354</ele>
        <time>2014-10-12T09:25:10.000Z</time>
      </trkpt>
      <trkpt lat="47.44544" lon="6.68488">
        <ele>353.2</ele>
        <time>2014-10-12T09:25:11.000Z</time>
      </trkpt>
      <trkpt lat="47.44547" lon="6.68491">
        <ele>353.1</ele>
        <time>2014-10-12T09:25:12.000Z</time>
      </trkpt>
      <trkpt lat="47.4455" lon="6.68494">
        <ele>354.8</ele>
        <time>2014-10-12T09:25:13.000Z</time>
      </trkpt>
      <trkpt lat="47.44553" lon="6.68497">
        <ele>353.3</ele>
        <time>2014-10-12T09:25:14.000Z</time>
      </trkpt>
      <trkpt lat="47.44556" lon="6.68499">
        <ele>351.8</ele>
        <time>2014-10-12T09:25:15.000Z</time>
      </trkpt>
      <trkpt lat="47.44559" lon="6.68501">
        <ele>352.2</ele>
        <time>2014-10-12T09:25:16.000Z</time>
      </trkpt>
      <trkpt lat="47.44562" lon="6.68503">
        <ele>353.6</ele>
        <time>2014-10-12T09:25:17.000Z</time>
      </trkpt>
      <trkpt lat="47.44565" lon="6.68505">
        <ele>353.5</ele>
        <time>2014-10-12T09:25:18.000Z</time>
      </trkpt>
      <trkpt lat="47.44568" lon="6.68508">
        <ele>354.7</ele>
        <time>2014-10-12T09:25:19.000Z</time>
      </trkpt>
      <trkpt lat="47.44571" lon="6.68511">
        <ele>355.7</ele>
        <time>2014-10-12T09:25:20.000Z</time>
      </trkpt>
      <trkpt lat="47.44575" lon="6.68515">
        <ele>356.7</ele>
        <time>2014-10-12T09:25:21.000Z</time>
      </trkpt>
      <trkpt lat="47.44579" lon="6.68518">
        <ele>357.6</ele>
        <time>2014-10-12T09:25:22.000Z</time>
      </trkpt>
      <trkpt lat="47.44583" lon="6.68522">
        <ele>357.7</ele>
        <time>2014-10-12T09:25:23.000Z</time>
      </trkpt>
      <trkpt lat="47.44588" lon="6.68526">
        <ele>357.7</ele>
        <time>2014-10-12T09:25:24.000Z</time>
      </trkpt>
      <trkpt lat="47.44593" lon="6.6853">
        <ele>358.6</ele>
        <time>2014-10-12T09:25:25.000Z</time>
      </trkpt>
      <trkpt lat="47.44597" lon="6.68535">
        <ele>360.3</ele>
        <time>2014-10-12T09:25:26.000Z</time>
      </trkpt>
      <trkpt lat="47.446" lon="6.68537">
        <ele>361</ele>
        <time>2014-10-12T09:25:26.998Z</time>
      </trkpt>
      <trkpt lat="47.44616" lon="6.68548">
        <ele>364</ele>
        <time>2014-10-12T09:25:28.000Z</time>
      </trkpt>
      <trkpt lat="47.44619" lon="6.68551">
        <ele>363.7</ele>
        <time>2014-10-12T09:25:29.000Z</time>
      </trkpt>
      <trkpt lat="47.44622" lon="6.68553">
        <ele>362.8</ele>
        <time>2014-10-12T09:25:30.000Z</time>
      </trkpt>
      <trkpt lat="47.44624" lon="6.68557">
        <ele>361.7</ele>
        <time>2014-10-12T09:25:31.000Z</time>
      </trkpt>
      <trkpt lat="47.44626" lon="6.6856">
        <ele>361.3</ele>
        <time>2014-10-12T09:25:32.000Z</time>
      </trkpt>
      <trkpt lat="47.44628" lon="6.68563">
        <ele>361</ele>
        <time>2014-10-12T09:25:33.000Z</time>
      </trkpt>
      <trkpt lat="47.44631" lon="6.68566">
        <ele>360.8</ele>
        <time>2014-10-12T09:25:34.000Z</time>
      </trkpt>
      <trkpt lat="47.44634" lon="6.68569">
        <ele>360.9</ele>
        <time>2014-10-12T09:25:35.000Z</time>
      </trkpt>
      <trkpt lat="47.44637" lon="6.68573">
        <ele>360.5</ele>
        <time>2014-10-12T09:25:36.000Z</time>
      </trkpt>
      <trkpt lat="47.4464" lon="6.68575">
        <ele>360.5</ele>
        <time>2014-10-12T09:25:37.000Z</time>
      </trkpt>
      <trkpt lat="47.44642" lon="6.68579">
        <ele>360</ele>
        <time>2014-10-12T09:25:38.000Z</time>
      </trkpt>
      <trkpt lat="47.44646" lon="6.68583">
        <ele>358.3</ele>
        <time>2014-10-12T09:25:39.000Z</time>
      </trkpt>
      <trkpt lat="47.4465" lon="6.68587">
        <ele>357.2</ele>
        <time>2014-10-12T09:25:40.000Z</time>
      </trkpt>
      <trkpt lat="47.44651" lon="6.68592">
        <ele>361.5</ele>
        <time>2014-10-12T09:25:41.000Z</time>
      </trkpt>
      <trkpt lat="47.44652" lon="6.68596">
        <ele>362.2</ele>
        <time>2014-10-12T09:25:42.000Z</time>
      </trkpt>
      <trkpt lat="47.44654" lon="6.68601">
        <ele>363.4</ele>
        <time>2014-10-12T09:25:44.000Z</time>
      </trkpt>
      <trkpt lat="47.44655" lon="6.68603">
        <ele>363.3</ele>
        <time>2014-10-12T09:25:45.000Z</time>
      </trkpt>
      <trkpt lat="47.44658" lon="6.68605">
        <ele>360.6</ele>
        <time>2014-10-12T09:25:47.000Z</time>
      </trkpt>
      <trkpt lat="47.44662" lon="6.6861">
        <ele>356.3</ele>
        <time>2014-10-12T09:25:51.000Z</time>
      </trkpt>
      <trkpt lat="47.44662" lon="6.68613">
        <ele>356.2</ele>
        <time>2014-10-12T09:25:52.000Z</time>
      </trkpt>
      <trkpt lat="47.44663" lon="6.68617">
        <ele>355.8</ele>
        <time>2014-10-12T09:25:53.000Z</time>
      </trkpt>
      <trkpt lat="47.44663" lon="6.68622">
        <ele>354.8</ele>
        <time>2014-10-12T09:25:54.000Z</time>
      </trkpt>
      <trkpt lat="47.44664" lon="6.68627">
        <ele>354.1</ele>
        <time>2014-10-12T09:25:55.000Z</time>
      </trkpt>
      <trkpt lat="47.44666" lon="6.68632">
        <ele>352.6</ele>
        <time>2014-10-12T09:25:56.000Z</time>
      </trkpt>
      <trkpt lat="47.44668" lon="6.68637">
        <ele>352.2</ele>
        <time>2014-10-12T09:25:57.000Z</time>
      </trkpt>
      <trkpt lat="47.44671" lon="6.68641">
        <ele>351.8</ele>
        <time>2014-10-12T09:25:58.000Z</time>
      </trkpt>
      <trkpt lat="47.44673" lon="6.68645">
        <ele>344.3</ele>
        <time>2014-10-12T09:25:59.000Z</time>
      </trkpt>
      <trkpt lat="47.44675" lon="6.68649">
        <ele>343.3</ele>
        <time>2014-10-12T09:26:00.000Z</time>
      </trkpt>
      <trkpt lat="47.44677" lon="6.68653">
        <ele>342.2</ele>
        <time>2014-10-12T09:26:01.000Z</time>
      </trkpt>
      <trkpt lat="47.44678" lon="6.68659">
        <ele>341.1</ele>
        <time>2014-10-12T09:26:02.000Z</time>
      </trkpt>
      <trkpt lat="47.4468" lon="6.68665">
        <ele>340.7</ele>
        <time>2014-10-12T09:26:03.000Z</time>
      </trkpt>
      <trkpt lat="47.44682" lon="6.68671">
        <ele>340.7</ele>
        <time>2014-10-12T09:26:04.000Z</time>
      </trkpt>
      <trkpt lat="47.44684" lon="6.68675">
        <ele>340.5</ele>
        <time>2014-10-12T09:26:05.000Z</time>
      </trkpt>
      <trkpt lat="47.44687" lon="6.6868">
        <ele>340</ele>
        <time>2014-10-12T09:26:06.000Z</time>
      </trkpt>
      <trkpt lat="47.44691" lon="6.68681">
        <ele>334.3</ele>
        <time>2014-10-12T09:26:07.000Z</time>
      </trkpt>
      <trkpt lat="47.44695" lon="6.68682">
        <ele>335</ele>
        <time>2014-10-12T09:26:08.000Z</time>
      </trkpt>
      <trkpt lat="47.44699" lon="6.68683">
        <ele>334.2</ele>
        <time>2014-10-12T09:26:09.000Z</time>
      </trkpt>
      <trkpt lat="47.44703" lon="6.68682">
        <ele>333</ele>
        <time>2014-10-12T09:26:10.000Z</time>
      </trkpt>
      <trkpt lat="47.44707" lon="6.68683">
        <ele>329.3</ele>
        <time>2014-10-12T09:26:11.000Z</time>
      </trkpt>
      <trkpt lat="47.4471" lon="6.68685">
        <ele>327.5</ele>
        <time>2014-10-12T09:26:12.000Z</time>
      </trkpt>
      <trkpt lat="47.44712" lon="6.68686">
        <ele>326.8</ele>
        <time>2014-10-12T09:26:13.000Z</time>
      </trkpt>
      <trkpt lat="47.44716" lon="6.6869">
        <ele>325.1</ele>
        <time>2014-10-12T09:26:15.000Z</time>
      </trkpt>
      <trkpt lat="47.44717" lon="6.68693">
        <ele>324.9</ele>
        <time>2014-10-12T09:26:16.000Z</time>
      </trkpt>
      <trkpt lat="47.44719" lon="6.68697">
        <ele>318.9</ele>
        <time>2014-10-12T09:26:17.000Z</time>
      </trkpt>
      <trkpt lat="47.4472" lon="6.68701">
        <ele>317.2</ele>
        <time>2014-10-12T09:26:18.000Z</time>
      </trkpt>
      <trkpt lat="47.44722" lon="6.68705">
        <ele>315.9</ele>
        <time>2014-10-12T09:26:19.000Z</time>
      </trkpt>
      <trkpt lat="47.44723" lon="6.68709">
        <ele>315.1</ele>
        <time>2014-10-12T09:26:20.000Z</time>
      </trkpt>
      <trkpt lat="47.44725" lon="6.68713">
        <ele>313.9</ele>
        <time>2014-10-12T09:26:21.000Z</time>
      </trkpt>
      <trkpt lat="47.44728" lon="6.68718">
        <ele>313</ele>
        <time>2014-10-12T09:26:22.000Z</time>
      </trkpt>
      <trkpt lat="47.44731" lon="6.68722">
        <ele>313.6</ele>
        <time>2014-10-12T09:26:23.000Z</time>
      </trkpt>
      <trkpt lat="47.44734" lon="6.68726">
        <ele>313.5</ele>
        <time>2014-10-12T09:26:24.000Z</time>
      </trkpt>
      <trkpt lat="47.44738" lon="6.6873">
        <ele>313.2</ele>
        <time>2014-10-12T09:26:25.000Z</time>
      </trkpt>
      <trkpt lat="47.44742" lon="6.68734">
        <ele>313.8</ele>
        <time>2014-10-12T09:26:26.000Z</time>
      </trkpt>
      <trkpt lat="47.44746" lon="6.68738">
        <ele>314.7</ele>
        <time>2014-10-12T09:26:27.000Z</time>
      </trkpt>
      <trkpt lat="47.44751" lon="6.68742">
        <ele>314.2</ele>
        <time>2014-10-12T09:26:28.000Z</time>
      </trkpt>
      <trkpt lat="47.44755" lon="6.68747">
        <ele>314.6</ele>
        <time>2014-10-12T09:26:29.000Z</time>
      </trkpt>
      <trkpt lat="47.44759" lon="6.68751">
        <ele>314.3</ele>
        <time>2014-10-12T09:26:30.000Z</time>
      </trkpt>
      <trkpt lat="47.44762" lon="6.68755">
        <ele>312.6</ele>
        <time>2014-10-12T09:26:31.000Z</time>
      </trkpt>
      <trkpt lat="47.44765" lon="6.68758">
        <ele>312.5</ele>
        <time>2014-10-12T09:26:32.000Z</time>
      </trkpt>
      <trkpt lat="47.44767" lon="6.68761">
        <ele>311.5</ele>
        <time>2014-10-12T09:26:33.000Z</time>
      </trkpt>
      <trkpt lat="47.4477" lon="6.68764">
        <ele>309.4</ele>
        <time>2014-10-12T09:26:34.000Z</time>
      </trkpt>
      <trkpt lat="47.44772" lon="6.68765">
        <ele>307.9</ele>
        <time>2014-10-12T09:26:35.000Z</time>
      </trkpt>
      <trkpt lat="47.44774" lon="6.68767">
        <ele>306</ele>
        <time>2014-10-12T09:26:36.000Z</time>
      </trkpt>
      <trkpt lat="47.44777" lon="6.68769">
        <ele>305.3</ele>
        <time>2014-10-12T09:26:37.000Z</time>
      </trkpt>
      <trkpt lat="47.4478" lon="6.6877">
        <ele>304.9</ele>
        <time>2014-10-12T09:26:38.000Z</time>
      </trkpt>
      <trkpt lat="47.44784" lon="6.68772">
        <ele>302.7</ele>
        <time>2014-10-12T09:26:39.000Z</time>
      </trkpt>
      <trkpt lat="47.44788" lon="6.68773">
        <ele>301.7</ele>
        <time>2014-10-12T09:26:40.000Z</time>
      </trkpt>
      <trkpt lat="47.44792" lon="6.68774">
        <ele>300.1</ele>
        <time>2014-10-12T09:26:41.000Z</time>
      </trkpt>
      <trkpt lat="47.44794" lon="6.68776">
        <ele>298.5</ele>
        <time>2014-10-12T09:26:42.000Z</time>
      </trkpt>
      <trkpt lat="47.44797" lon="6.68777">
        <ele>296.9</ele>
        <time>2014-10-12T09:26:43.000Z</time>
      </trkpt>
      <trkpt lat="47.44799" lon="6.68779">
        <ele>295.5</ele>
        <time>2014-10-12T09:26:44.000Z</time>
      </trkpt>
      <trkpt lat="47.44802" lon="6.6878">
        <ele>297.5</ele>
        <time>2014-10-12T09:26:45.000Z</time>
      </trkpt>
      <trkpt lat="47.44804" lon="6.6878">
        <ele>297.2</ele>
        <time>2014-10-12T09:26:46.000Z</time>
      </trkpt>
      <trkpt lat="47.44807" lon="6.68781">
        <ele>295.9</ele>
        <time>2014-10-12T09:26:47.000Z</time>
      </trkpt>
      <trkpt lat="47.44815" lon="6.68784">
        <ele>296.8</ele>
        <time>2014-10-12T09:26:50.000Z</time>
      </trkpt>
      <trkpt lat="47.44818" lon="6.68784">
        <ele>296.5</ele>
        <time>2014-10-12T09:26:51.000Z</time>
      </trkpt>
      <trkpt lat="47.44821" lon="6.68786">
        <ele>297.4</ele>
        <time>2014-10-12T09:26:52.000Z</time>
      </trkpt>
      <trkpt lat="47.44823" lon="6.68788">
        <ele>296.1</ele>
        <time>2014-10-12T09:26:53.000Z</time>
      </trkpt>
      <trkpt lat="47.44825" lon="6.68789">
        <ele>296.8</ele>
        <time>2014-10-12T09:26:54.000Z</time>
      </trkpt>
      <trkpt lat="47.44828" lon="6.68791">
        <ele>298.4</ele>
        <time>2014-10-12T09:26:55.000Z</time>
      </trkpt>
      <trkpt lat="47.4483" lon="6.68793">
        <ele>299.8</ele>
        <time>2014-10-12T09:26:56.000Z</time>
      </trkpt>
      <trkpt lat="47.44832" lon="6.68795">
        <ele>300</ele>
        <time>2014-10-12T09:26:57.000Z</time>
      </trkpt>
      <trkpt lat="47.44834" lon="6.68797">
        <ele>300.2</ele>
        <time>2014-10-12T09:26:58.000Z</time>
      </trkpt>
      <trkpt lat="47.44836" lon="6.68799">
        <ele>301.7</ele>
        <time>2014-10-12T09:26:59.000Z</time>
      </trkpt>
      <trkpt lat="47.44839" lon="6.68802">
        <ele>303.1</ele>
        <time>2014-10-12T09:27:00.000Z</time>
      </trkpt>
      <trkpt lat="47.44841" lon="6.68804">
        <ele>303.3</ele>
        <time>2014-10-12T09:27:01.000Z</time>
      </trkpt>
      <trkpt lat="47.44844" lon="6.68807">
        <ele>302.3</ele>
        <time>2014-10-12T09:27:02.000Z</time>
      </trkpt>
      <trkpt lat="47.44846" lon="6.6881">
        <ele>302.2</ele>
        <time>2014-10-12T09:27:03.000Z</time>
      </trkpt>
      <trkpt lat="47.44847" lon="6.68812">
        <ele>301.7</ele>
        <time>2014-10-12T09:27:04.000Z</time>
      </trkpt>
      <trkpt lat="47.44842" lon="6.68813">
        <ele>307.2</ele>
        <time>2014-10-12T09:27:19.000Z</time>
      </trkpt>
      <trkpt lat="47.44842" lon="6.68813">
        <ele>307.3</ele>
        <time>2014-10-12T09:27:20.000Z</time>
      </trkpt>
      <trkpt lat="47.44837" lon="6.68812">
        <ele>310.8</ele>
        <time>2014-10-12T09:27:26.000Z</time>
      </trkpt>
      <trkpt lat="47.44836" lon="6.68813">
        <ele>312.2</ele>
        <time>2014-10-12T09:27:27.000Z</time>
      </trkpt>
      <trkpt lat="47.44835" lon="6.68818">
        <ele>313.1</ele>
        <time>2014-10-12T09:27:30.000Z</time>
      </trkpt>
      <trkpt lat="47.44835" lon="6.6882">
        <ele>312.6</ele>
        <time>2014-10-12T09:27:31.000Z</time>
      </trkpt>
      <trkpt lat="47.44838" lon="6.68825">
        <ele>313.8</ele>
        <time>2014-10-12T09:27:34.000Z</time>
      </trkpt>
      <trkpt lat="47.44839" lon="6.68826">
        <ele>313.8</ele>
        <time>2014-10-12T09:27:35.000Z</time>
      </trkpt>
      <trkpt lat="47.44842" lon="6.6883">
        <ele>313.1</ele>
        <time>2014-10-12T09:27:39.000Z</time>
      </trkpt>
      <trkpt lat="47.44843" lon="6.68831">
        <ele>313.6</ele>
        <time>2014-10-12T09:27:40.000Z</time>
      </trkpt>
      <trkpt lat="47.44844" lon="6.68837">
        <ele>313.9</ele>
        <time>2014-10-12T09:27:45.000Z</time>
      </trkpt>
      <trkpt lat="47.44845" lon="6.68837">
        <ele>313.6</ele>
        <time>2014-10-12T09:27:46.000Z</time>
      </trkpt>
      <trkpt lat="47.44848" lon="6.68842">
        <ele>311.3</ele>
        <time>2014-10-12T09:27:52.000Z</time>
      </trkpt>
      <trkpt lat="47.44848" lon="6.68844">
        <ele>309.1</ele>
        <time>2014-10-12T09:27:53.000Z</time>
      </trkpt>
      <trkpt lat="47.44849" lon="6.68849">
        <ele>309.9</ele>
        <time>2014-10-12T09:27:56.000Z</time>
      </trkpt>
      <trkpt lat="47.4485" lon="6.68851">
        <ele>310</ele>
        <time>2014-10-12T09:27:57.000Z</time>
      </trkpt>
      <trkpt lat="47.44852" lon="6.68855">
        <ele>309</ele>
        <time>2014-10-12T09:27:59.000Z</time>
      </trkpt>
      <trkpt lat="47.44853" lon="6.68857">
        <ele>310.1</ele>
        <time>2014-10-12T09:28:00.000Z</time>
      </trkpt>
      <trkpt lat="47.44855" lon="6.68861">
        <ele>309.6</ele>
        <time>2014-10-12T09:28:02.000Z</time>
      </trkpt>
      <trkpt lat="47.44856" lon="6.68863">
        <ele>309.3</ele>
        <time>2014-10-12T09:28:03.000Z</time>
      </trkpt>
      <trkpt lat="47.44858" lon="6.68867">
        <ele>308.5</ele>
        <time>2014-10-12T09:28:05.000Z</time>
      </trkpt>
      <trkpt lat="47.44859" lon="6.68869">
        <ele>307.8</ele>
        <time>2014-10-12T09:28:06.000Z</time>
      </trkpt>
      <trkpt lat="47.44861" lon="6.68872">
        <ele>307.2</ele>
        <time>2014-10-12T09:28:08.000Z</time>
      </trkpt>
      <trkpt lat="47.44862" lon="6.68874">
        <ele>304.9</ele>
        <time>2014-10-12T09:28:09.000Z</time>
      </trkpt>
      <trkpt lat="47.44864" lon="6.68879">
        <ele>301</ele>
        <time>2014-10-12T09:28:12.000Z</time>
      </trkpt>
      <trkpt lat="47.44865" lon="6.6888">
        <ele>301.5</ele>
        <time>2014-10-12T09:28:13.000Z</time>
      </trkpt>
      <trkpt lat="47.44866" lon="6.68884">
        <ele>300.1</ele>
        <time>2014-10-12T09:28:15.000Z</time>
      </trkpt>
      <trkpt lat="47.44867" lon="6.68886">
        <ele>301.1</ele>
        <time>2014-10-12T09:28:16.000Z</time>
      </trkpt>
      <trkpt lat="47.44868" lon="6.6889">
        <ele>301.5</ele>
        <time>2014-10-12T09:28:18.000Z</time>
      </trkpt>
      <trkpt lat="47.44869" lon="6.68892">
        <ele>301.8</ele>
        <time>2014-10-12T09:28:19.000Z</time>
      </trkpt>
      <trkpt lat="47.44871" lon="6.68897">
        <ele>300.1</ele>
        <time>2014-10-12T09:28:22.000Z</time>
      </trkpt>
      <trkpt lat="47.44872" lon="6.68898">
        <ele>299</ele>
        <time>2014-10-12T09:28:23.000Z</time>
      </trkpt>
      <trkpt lat="47.44872" lon="6.68904">
        <ele>297.3</ele>
        <time>2014-10-12T09:28:27.000Z</time>
      </trkpt>
      <trkpt lat="47.44873" lon="6.68905">
        <ele>298.5</ele>
        <time>2014-10-12T09:28:28.000Z</time>
      </trkpt>
      <trkpt lat="47.44875" lon="6.68908">
        <ele>299.3</ele>
        <time>2014-10-12T09:28:30.000Z</time>
      </trkpt>
      <trkpt lat="47.44876" lon="6.6891">
        <ele>299.5</ele>
        <time>2014-10-12T09:28:31.000Z</time>
      </trkpt>
      <trkpt lat="47.44879" lon="6.68914">
        <ele>295.6</ele>
        <time>2014-10-12T09:28:34.000Z</time>
      </trkpt>
      <trkpt lat="47.4488" lon="6.68915">
        <ele>295</ele>
        <time>2014-10-12T09:28:35.000Z</time>
      </trkpt>
      <trkpt lat="47.44882" lon="6.68919">
        <ele>293.7</ele>
        <time>2014-10-12T09:28:38.000Z</time>
      </trkpt>
      <trkpt lat="47.44882" lon="6.68922">
        <ele>294</ele>
        <time>2014-10-12T09:28:39.000Z</time>
      </trkpt>
      <trkpt lat="47.44884" lon="6.68927">
        <ele>294.9</ele>
        <time>2014-10-12T09:28:43.000Z</time>
      </trkpt>
      <trkpt lat="47.44884" lon="6.68928">
        <ele>295.2</ele>
        <time>2014-10-12T09:28:44.000Z</time>
      </trkpt>
      <trkpt lat="47.44885" lon="6.68933">
        <ele>295.2</ele>
        <time>2014-10-12T09:28:47.000Z</time>
      </trkpt>
      <trkpt lat="47.4489" lon="6.68944">
        <ele>290</ele>
        <time>2014-10-12T09:28:55.000Z</time>
      </trkpt>
      <trkpt lat="47.44892" lon="6.68949">
        <ele>293.6</ele>
        <time>2014-10-12T09:28:58.000Z</time>
      </trkpt>
      <trkpt lat="47.44893" lon="6.68951">
        <ele>293.7</ele>
        <time>2014-10-12T09:28:59.000Z</time>
      </trkpt>
      <trkpt lat="47.44893" lon="6.68956">
        <ele>291.9</ele>
        <time>2014-10-12T09:29:02.000Z</time>
      </trkpt>
      <trkpt lat="47.44893" lon="6.68958">
        <ele>291.3</ele>
        <time>2014-10-12T09:29:03.000Z</time>
      </trkpt>
      <trkpt lat="47.44896" lon="6.68962">
        <ele>292.7</ele>
        <time>2014-10-12T09:29:06.000Z</time>
      </trkpt>
      <trkpt lat="47.44898" lon="6.68963">
        <ele>292.8</ele>
        <time>2014-10-12T09:29:07.000Z</time>
      </trkpt>
      <trkpt lat="47.449" lon="6.68966">
        <ele>293.9</ele>
        <time>2014-10-12T09:29:09.000Z</time>
      </trkpt>
      <trkpt lat="47.44901" lon="6.68968">
        <ele>291.8</ele>
        <time>2014-10-12T09:29:10.000Z</time>
      </trkpt>
      <trkpt lat="47.44904" lon="6.68972">
        <ele>287.7</ele>
        <time>2014-10-12T09:29:13.000Z</time>
      </trkpt>
      <trkpt lat="47.44905" lon="6.68974">
        <ele>287.2</ele>
        <time>2014-10-12T09:29:14.000Z</time>
      </trkpt>
      <trkpt lat="47.44906" lon="6.68977">
        <ele>288.6</ele>
        <time>2014-10-12T09:29:16.000Z</time>
      </trkpt>
      <trkpt lat="47.44908" lon="6.68979">
        <ele>289.1</ele>
        <time>2014-10-12T09:29:17.000Z</time>
      </trkpt>
      <trkpt lat="47.4491" lon="6.68982">
        <ele>285.8</ele>
        <time>2014-10-12T09:29:19.000Z</time>
      </trkpt>
      <trkpt lat="47.44911" lon="6.68983">
        <ele>286.1</ele>
        <time>2014-10-12T09:29:20.000Z</time>
      </trkpt>
      <trkpt lat="47.44914" lon="6.68986">
        <ele>287.4</ele>
        <time>2014-10-12T09:29:23.000Z</time>
      </trkpt>
      <trkpt lat="47.44915" lon="6.68987">
        <ele>284.8</ele>
        <time>2014-10-12T09:29:24.000Z</time>
      </trkpt>
      <trkpt lat="47.44915" lon="6.68993">
        <ele>281.7</ele>
        <time>2014-10-12T09:29:28.000Z</time>
      </trkpt>
      <trkpt lat="47.44915" lon="6.68994">
        <ele>281.4</ele>
        <time>2014-10-12T09:29:29.000Z</time>
      </trkpt>
      <trkpt lat="47.44918" lon="6.68998">
        <ele>283.7</ele>
        <time>2014-10-12T09:29:32.000Z</time>
      </trkpt>
      <trkpt lat="47.44919" lon="6.69">
        <ele>284</ele>
        <time>2014-10-12T09:29:33.000Z</time>
      </trkpt>
      <trkpt lat="47.44921" lon="6.69005">
        <ele>285.5</ele>
        <time>2014-10-12T09:29:35.000Z</time>
      </trkpt>
      <trkpt lat="47.44922" lon="6.69007">
        <ele>287</ele>
        <time>2014-10-12T09:29:36.000Z</time>
      </trkpt>
      <trkpt lat="47.44923" lon="6.6901">
        <ele>287.7</ele>
        <time>2014-10-12T09:29:37.000Z</time>
      </trkpt>
      <trkpt lat="47.44925" lon="6.69013">
        <ele>289.9</ele>
        <time>2014-10-12T09:29:38.000Z</time>
      </trkpt>
      <trkpt lat="47.44927" lon="6.69016">
        <ele>290</ele>
        <time>2014-10-12T09:29:39.000Z</time>
      </trkpt>
      <trkpt lat="47.44929" lon="6.69019">
        <ele>291.8</ele>
        <time>2014-10-12T09:29:40.000Z</time>
      </trkpt>
      <trkpt lat="47.4493" lon="6.69022">
        <ele>291.3</ele>
        <time>2014-10-12T09:29:41.000Z</time>
      </trkpt>
      <trkpt lat="47.44932" lon="6.69025">
        <ele>292.3</ele>
        <time>2014-10-12T09:29:42.000Z</time>
      </trkpt>
      <trkpt lat="47.44933" lon="6.69028">
        <ele>292.9</ele>
        <time>2014-10-12T09:29:43.000Z</time>
      </trkpt>
      <trkpt lat="47.44934" lon="6.69031">
        <ele>292.2</ele>
        <time>2014-10-12T09:29:44.000Z</time>
      </trkpt>
      <trkpt lat="47.44936" lon="6.69037">
        <ele>293.3</ele>
        <time>2014-10-12T09:29:46.000Z</time>
      </trkpt>
      <trkpt lat="47.44937" lon="6.6904">
        <ele>293.7</ele>
        <time>2014-10-12T09:29:47.000Z</time>
      </trkpt>
      <trkpt lat="47.4494" lon="6.69047">
        <ele>294.4</ele>
        <time>2014-10-12T09:29:51.000Z</time>
      </trkpt>
      <trkpt lat="47.44941" lon="6.69052">
        <ele>289.1</ele>
        <time>2014-10-12T09:29:53.000Z</time>
      </trkpt>
      <trkpt lat="47.44941" lon="6.69054">
        <ele>289</ele>
        <time>2014-10-12T09:29:54.000Z</time>
      </trkpt>
      <trkpt lat="47.44942" lon="6.69059">
        <ele>285.7</ele>
        <time>2014-10-12T09:29:58.000Z</time>
      </trkpt>
      <trkpt lat="47.44942" lon="6.69061">
        <ele>285.6</ele>
        <time>2014-10-12T09:29:59.000Z</time>
      </trkpt>
      <trkpt lat="47.44941" lon="6.69066">
        <ele>286</ele>
        <time>2014-10-12T09:30:01.000Z</time>
      </trkpt>
      <trkpt lat="47.44941" lon="6.69069">
        <ele>287.1</ele>
        <time>2014-10-12T09:30:02.000Z</time>
      </trkpt>
      <trkpt lat="47.44942" lon="6.69073">
        <ele>287.9</ele>
        <time>2014-10-12T09:30:04.000Z</time>
      </trkpt>
      <trkpt lat="47.44943" lon="6.69075">
        <ele>288.5</ele>
        <time>2014-10-12T09:30:05.000Z</time>
      </trkpt>
      <trkpt lat="47.44944" lon="6.6908">
        <ele>288.2</ele>
        <time>2014-10-12T09:30:07.000Z</time>
      </trkpt>
      <trkpt lat="47.44945" lon="6.69083">
        <ele>289</ele>
        <time>2014-10-12T09:30:08.000Z</time>
      </trkpt>
      <trkpt lat="47.44946" lon="6.69088">
        <ele>290.5</ele>
        <time>2014-10-12T09:30:10.000Z</time>
      </trkpt>
      <trkpt lat="47.44946" lon="6.6909">
        <ele>291.2</ele>
        <time>2014-10-12T09:30:11.000Z</time>
      </trkpt>
      <trkpt lat="47.44948" lon="6.69094">
        <ele>290.3</ele>
        <time>2014-10-12T09:30:13.000Z</time>
      </trkpt>
      <trkpt lat="47.44949" lon="6.69096">
        <ele>290.6</ele>
        <time>2014-10-12T09:30:14.000Z</time>
      </trkpt>
      <trkpt lat="47.44951" lon="6.69099">
        <ele>291.4</ele>
        <time>2014-10-12T09:30:16.000Z</time>
      </trkpt>
      <trkpt lat="47.44952" lon="6.691">
        <ele>291</ele>
        <time>2014-10-12T09:30:17.000Z</time>
      </trkpt>
      <trkpt lat="47.44954" lon="6.69105">
        <ele>291.9</ele>
        <time>2014-10-12T09:30:20.000Z</time>
      </trkpt>
      <trkpt lat="47.44955" lon="6.69106">
        <ele>292.1</ele>
        <time>2014-10-12T09:30:21.000Z</time>
      </trkpt>
      <trkpt lat="47.44957" lon="6.69111">
        <ele>292.2</ele>
        <time>2014-10-12T09:30:24.000Z</time>
      </trkpt>
      <trkpt lat="47.44957" lon="6.69112">
        <ele>292.5</ele>
        <time>2014-10-12T09:30:25.000Z</time>
      </trkpt>
      <trkpt lat="47.44959" lon="6.69117">
        <ele>291.8</ele>
        <time>2014-10-12T09:30:29.000Z</time>
      </trkpt>
      <trkpt lat="47.4496" lon="6.69118">
        <ele>290.6</ele>
        <time>2014-10-12T09:30:30.000Z</time>
      </trkpt>
      <trkpt lat="47.4496" lon="6.69124">
        <ele>289.7</ele>
        <time>2014-10-12T09:30:36.000Z</time>
      </trkpt>
      <trkpt lat="47.44961" lon="6.69125">
        <ele>289.5</ele>
        <time>2014-10-12T09:30:37.000Z</time>
      </trkpt>
      <trkpt lat="47.44963" lon="6.69131">
        <ele>289.4</ele>
        <time>2014-10-12T09:30:42.000Z</time>
      </trkpt>
      <trkpt lat="47.44963" lon="6.69132">
        <ele>290</ele>
        <time>2014-10-12T09:30:43.000Z</time>
      </trkpt>
      <trkpt lat="47.44964" lon="6.69137">
        <ele>293</ele>
        <time>2014-10-12T09:30:46.000Z</time>
      </trkpt>
      <trkpt lat="47.44965" lon="6.69139">
        <ele>293.2</ele>
        <time>2014-10-12T09:30:47.000Z</time>
      </trkpt>
      <trkpt lat="47.44965" lon="6.69145">
        <ele>293</ele>
        <time>2014-10-12T09:30:51.000Z</time>
      </trkpt>
      <trkpt lat="47.44965" lon="6.69147">
        <ele>294.1</ele>
        <time>2014-10-12T09:30:52.000Z</time>
      </trkpt>
      <trkpt lat="47.44968" lon="6.69152">
        <ele>294.1</ele>
        <time>2014-10-12T09:30:55.000Z</time>
      </trkpt>
      <trkpt lat="47.44968" lon="6.69154">
        <ele>292.8</ele>
        <time>2014-10-12T09:30:56.000Z</time>
      </trkpt>
      <trkpt lat="47.44969" lon="6.6916">
        <ele>289.2</ele>
        <time>2014-10-12T09:31:01.000Z</time>
      </trkpt>
      <trkpt lat="47.44969" lon="6.69161">
        <ele>289</ele>
        <time>2014-10-12T09:31:02.000Z</time>
      </trkpt>
      <trkpt lat="47.44972" lon="6.69165">
        <ele>291.1</ele>
        <time>2014-10-12T09:31:06.000Z</time>
      </trkpt>
      <trkpt lat="47.44972" lon="6.69166">
        <ele>291.5</ele>
        <time>2014-10-12T09:31:07.000Z</time>
      </trkpt>
      <trkpt lat="47.44975" lon="6.69169">
        <ele>292.8</ele>
        <time>2014-10-12T09:31:10.000Z</time>
      </trkpt>
      <trkpt lat="47.44976" lon="6.69169">
        <ele>293.3</ele>
        <time>2014-10-12T09:31:11.000Z</time>
      </trkpt>
      <trkpt lat="47.44978" lon="6.69174">
        <ele>295.2</ele>
        <time>2014-10-12T09:31:17.000Z</time>
      </trkpt>
      <trkpt lat="47.44978" lon="6.69175">
        <ele>294.9</ele>
        <time>2014-10-12T09:31:18.000Z</time>
      </trkpt>
      <trkpt lat="47.44978" lon="6.69181">
        <ele>292.2</ele>
        <time>2014-10-12T09:31:24.000Z</time>
      </trkpt>
      <trkpt lat="47.44978" lon="6.69183">
        <ele>291.7</ele>
        <time>2014-10-12T09:31:25.000Z</time>
      </trkpt>
      <trkpt lat="47.44977" lon="6.69189">
        <ele>288.5</ele>
        <time>2014-10-12T09:31:31.000Z</time>
      </trkpt>
      <trkpt lat="47.44976" lon="6.6919">
        <ele>288.4</ele>
        <time>2014-10-12T09:31:32.000Z</time>
      </trkpt>
      <trkpt lat="47.44976" lon="6.69195">
        <ele>288.9</ele>
        <time>2014-10-12T09:31:36.000Z</time>
      </trkpt>
      <trkpt lat="47.44975" lon="6.69197">
        <ele>288.8</ele>
        <time>2014-10-12T09:31:37.000Z</time>
      </trkpt>
      <trkpt lat="47.44974" lon="6.69203">
        <ele>287</ele>
        <time>2014-10-12T09:31:42.000Z</time>
      </trkpt>
      <trkpt lat="47.44974" lon="6.69204">
        <ele>287.4</ele>
        <time>2014-10-12T09:31:43.000Z</time>
      </trkpt>
      <trkpt lat="47.44975" lon="6.69207">
        <ele>290.3</ele>
        <time>2014-10-12T09:31:47.000Z</time>
      </trkpt>
      <trkpt lat="47.44976" lon="6.69211">
        <ele>289.9</ele>
        <time>2014-10-12T09:31:51.000Z</time>
      </trkpt>
      <trkpt lat="47.44978" lon="6.69216">
        <ele>293.1</ele>
        <time>2014-10-12T09:31:55.000Z</time>
      </trkpt>
      <trkpt lat="47.44978" lon="6.69217">
        <ele>294.2</ele>
        <time>2014-10-12T09:31:56.000Z</time>
      </trkpt>
      <trkpt lat="47.44979" lon="6.69222">
        <ele>297.4</ele>
        <time>2014-10-12T09:31:59.000Z</time>
      </trkpt>
      <trkpt lat="47.4498" lon="6.69223">
        <ele>298.4</ele>
        <time>2014-10-12T09:32:00.000Z</time>
      </trkpt>
      <trkpt lat="47.44982" lon="6.69228">
        <ele>301.5</ele>
        <time>2014-10-12T09:32:04.000Z</time>
      </trkpt>
      <trkpt lat="47.44983" lon="6.6923">
        <ele>302.2</ele>
        <time>2014-10-12T09:32:05.000Z</time>
      </trkpt>
      <trkpt lat="47.44984" lon="6.69236">
        <ele>305.1</ele>
        <time>2014-10-12T09:32:09.000Z</time>
      </trkpt>
      <trkpt lat="47.44984" lon="6.69238">
        <ele>305</ele>
        <time>2014-10-12T09:32:10.000Z</time>
      </trkpt>
      <trkpt lat="47.44987" lon="6.69243">
        <ele>305.9</ele>
        <time>2014-10-12T09:32:12.000Z</time>
      </trkpt>
      <trkpt lat="47.44988" lon="6.69244">
        <ele>306.2</ele>
        <time>2014-10-12T09:32:13.000Z</time>
      </trkpt>
      <trkpt lat="47.44989" lon="6.6925">
        <ele>310</ele>
        <time>2014-10-12T09:32:18.000Z</time>
      </trkpt>
      <trkpt lat="47.44989" lon="6.69251">
        <ele>311.4</ele>
        <time>2014-10-12T09:32:19.000Z</time>
      </trkpt>
      <trkpt lat="47.4499" lon="6.69257">
        <ele>313.8</ele>
        <time>2014-10-12T09:32:23.000Z</time>
      </trkpt>
      <trkpt lat="47.4499" lon="6.69258">
        <ele>314.7</ele>
        <time>2014-10-12T09:32:24.000Z</time>
      </trkpt>
      <trkpt lat="47.4499" lon="6.69264">
        <ele>317</ele>
        <time>2014-10-12T09:32:28.000Z</time>
      </trkpt>
      <trkpt lat="47.44991" lon="6.69266">
        <ele>317.4</ele>
        <time>2014-10-12T09:32:29.000Z</time>
      </trkpt>
      <trkpt lat="47.44991" lon="6.69271">
        <ele>321</ele>
        <time>2014-10-12T09:32:32.000Z</time>
      </trkpt>
      <trkpt lat="47.44992" lon="6.69273">
        <ele>320.6</ele>
        <time>2014-10-12T09:32:33.000Z</time>
      </trkpt>
      <trkpt lat="47.44993" lon="6.69277">
        <ele>321.3</ele>
        <time>2014-10-12T09:32:35.000Z</time>
      </trkpt>
      <trkpt lat="47.44993" lon="6.69279">
        <ele>322.8</ele>
        <time>2014-10-12T09:32:36.000Z</time>
      </trkpt>
      <trkpt lat="47.44994" lon="6.69284">
        <ele>322.5</ele>
        <time>2014-10-12T09:32:38.000Z</time>
      </trkpt>
      <trkpt lat="47.44994" lon="6.69286">
        <ele>320.2</ele>
        <time>2014-10-12T09:32:39.000Z</time>
      </trkpt>
      <trkpt lat="47.44995" lon="6.69291">
        <ele>321.6</ele>
        <time>2014-10-12T09:32:42.000Z</time>
      </trkpt>
      <trkpt lat="47.44995" lon="6.69294">
        <ele>321.5</ele>
        <time>2014-10-12T09:32:43.000Z</time>
      </trkpt>
      <trkpt lat="47.44994" lon="6.69298">
        <ele>322.4</ele>
        <time>2014-10-12T09:32:47.000Z</time>
      </trkpt>
      <trkpt lat="47.44993" lon="6.69303">
        <ele>326.3</ele>
        <time>2014-10-12T09:32:50.000Z</time>
      </trkpt>
      <trkpt lat="47.44992" lon="6.69309">
        <ele>329.3</ele>
        <time>2014-10-12T09:32:52.000Z</time>
      </trkpt>
      <trkpt lat="47.44991" lon="6.69311">
        <ele>330.6</ele>
        <time>2014-10-12T09:32:53.000Z</time>
      </trkpt>
      <trkpt lat="47.44991" lon="6.69317">
        <ele>332</ele>
        <time>2014-10-12T09:32:55.000Z</time>
      </trkpt>
      <trkpt lat="47.44991" lon="6.69318">
        <ele>331.5</ele>
        <time>2014-10-12T09:32:56.000Z</time>
      </trkpt>
      <trkpt lat="47.4499" lon="6.69323">
        <ele>332.5</ele>
        <time>2014-10-12T09:32:59.000Z</time>
      </trkpt>
      <trkpt lat="47.4499" lon="6.69325">
        <ele>332.1</ele>
        <time>2014-10-12T09:33:00.000Z</time>
      </trkpt>
      <trkpt lat="47.4499" lon="6.69331">
        <ele>335.1</ele>
        <time>2014-10-12T09:33:03.000Z</time>
      </trkpt>
      <trkpt lat="47.4499" lon="6.69334">
        <ele>336</ele>
        <time>2014-10-12T09:33:04.000Z</time>
      </trkpt>
      <trkpt lat="47.44989" lon="6.69339">
        <ele>340.1</ele>
        <time>2014-10-12T09:33:06.000Z</time>
      </trkpt>
      <trkpt lat="47.44989" lon="6.69341">
        <ele>340.9</ele>
        <time>2014-10-12T09:33:07.000Z</time>
      </trkpt>
      <trkpt lat="47.44989" lon="6.69346">
        <ele>345.5</ele>
        <time>2014-10-12T09:33:09.000Z</time>
      </trkpt>
      <trkpt lat="47.44988" lon="6.69348">
        <ele>347</ele>
        <time>2014-10-12T09:33:10.000Z</time>
      </trkpt>
      <trkpt lat="47.44988" lon="6.69353">
        <ele>347.9</ele>
        <time>2014-10-12T09:33:13.000Z</time>
      </trkpt>
      <trkpt lat="47.44988" lon="6.69354">
        <ele>348</ele>
        <time>2014-10-12T09:33:14.000Z</time>
      </trkpt>
      <trkpt lat="47.44989" lon="6.6936">
        <ele>351</ele>
        <time>2014-10-12T09:33:17.000Z</time>
      </trkpt>
      <trkpt lat="47.44989" lon="6.69361">
        <ele>351.7</ele>
        <time>2014-10-12T09:33:18.000Z</time>
      </trkpt>
      <trkpt lat="47.44988" lon="6.69368">
        <ele>357.8</ele>
        <time>2014-10-12T09:33:29.000Z</time>
      </trkpt>
      <trkpt lat="47.44988" lon="6.69368">
        <ele>358.2</ele>
        <time>2014-10-12T09:33:30.000Z</time>
      </trkpt>
      <trkpt lat="47.44987" lon="6.69374">
        <ele>364.7</ele>
        <time>2014-10-12T09:33:38.000Z</time>
      </trkpt>
      <trkpt lat="47.44987" lon="6.69375">
        <ele>365.9</ele>
        <time>2014-10-12T09:33:39.000Z</time>
      </trkpt>
      <trkpt lat="47.44987" lon="6.69381">
        <ele>371.9</ele>
        <time>2014-10-12T09:34:00.000Z</time>
      </trkpt>
      <trkpt lat="47.44988" lon="6.69382">
        <ele>373.2</ele>
        <time>2014-10-12T09:34:01.000Z</time>
      </trkpt>
      <trkpt lat="47.44987" lon="6.69387">
        <ele>377.1</ele>
        <time>2014-10-12T09:34:06.000Z</time>
      </trkpt>
      <trkpt lat="47.44987" lon="6.69388">
        <ele>377.5</ele>
        <time>2014-10-12T09:34:07.000Z</time>
      </trkpt>
      <trkpt lat="47.44985" lon="6.69394">
        <ele>380.6</ele>
        <time>2014-10-12T09:34:12.000Z</time>
      </trkpt>
      <trkpt lat="47.44985" lon="6.69395">
        <ele>380.8</ele>
        <time>2014-10-12T09:34:13.000Z</time>
      </trkpt>
      <trkpt lat="47.44982" lon="6.694">
        <ele>383</ele>
        <time>2014-10-12T09:34:33.000Z</time>
      </trkpt>
      <trkpt lat="47.44982" lon="6.694">
        <ele>383.2</ele>
        <time>2014-10-12T09:34:34.000Z</time>
      </trkpt>
      <trkpt lat="47.44979" lon="6.69402">
        <ele>334.8</ele>
        <time>2014-10-12T09:36:53.000Z</time>
      </trkpt>
      <trkpt lat="47.44977" lon="6.69405">
        <ele>335.5</ele>
        <time>2014-10-12T09:36:54.000Z</time>
      </trkpt>
      <trkpt lat="47.44976" lon="6.69411">
        <ele>337.3</ele>
        <time>2014-10-12T09:36:56.000Z</time>
      </trkpt>
      <trkpt lat="47.44976" lon="6.69414">
        <ele>338.3</ele>
        <time>2014-10-12T09:36:57.000Z</time>
      </trkpt>
      <trkpt lat="47.44974" lon="6.69419">
        <ele>339.9</ele>
        <time>2014-10-12T09:37:00.000Z</time>
      </trkpt>
      <trkpt lat="47.44973" lon="6.69421">
        <ele>340.8</ele>
        <time>2014-10-12T09:37:01.000Z</time>
      </trkpt>
      <trkpt lat="47.44969" lon="6.69424">
        <ele>342.4</ele>
        <time>2014-10-12T09:37:15.000Z</time>
      </trkpt>
      <trkpt lat="47.44969" lon="6.69424">
        <ele>342.4</ele>
        <time>2014-10-12T09:37:16.000Z</time>
      </trkpt>
      <trkpt lat="47.44968" lon="6.69429">
        <ele>354</ele>
        <time>2014-10-12T09:37:21.000Z</time>
      </trkpt>
      <trkpt lat="47.44967" lon="6.69431">
        <ele>353.8</ele>
        <time>2014-10-12T09:37:22.000Z</time>
      </trkpt>
      <trkpt lat="47.44967" lon="6.69438">
        <ele>352.6</ele>
        <time>2014-10-12T09:37:25.000Z</time>
      </trkpt>
      <trkpt lat="47.44967" lon="6.6944">
        <ele>354.7</ele>
        <time>2014-10-12T09:37:26.000Z</time>
      </trkpt>
      <trkpt lat="47.44966" lon="6.69444">
        <ele>353.9</ele>
        <time>2014-10-12T09:37:29.000Z</time>
      </trkpt>
      <trkpt lat="47.44966" lon="6.69446">
        <ele>355</ele>
        <time>2014-10-12T09:37:30.000Z</time>
      </trkpt>
      <trkpt lat="47.44965" lon="6.69451">
        <ele>357.9</ele>
        <time>2014-10-12T09:37:32.000Z</time>
      </trkpt>
      <trkpt lat="47.44964" lon="6.69453">
        <ele>359.8</ele>
        <time>2014-10-12T09:37:33.000Z</time>
      </trkpt>
      <trkpt lat="47.44962" lon="6.69457">
        <ele>362.3</ele>
        <time>2014-10-12T09:37:35.000Z</time>
      </trkpt>
      <trkpt lat="47.4496" lon="6.69459">
        <ele>363.6</ele>
        <time>2014-10-12T09:37:36.000Z</time>
      </trkpt>
      <trkpt lat="47.44958" lon="6.69463">
        <ele>366</ele>
        <time>2014-10-12T09:37:38.000Z</time>
      </trkpt>
      <trkpt lat="47.44957" lon="6.69465">
        <ele>365.3</ele>
        <time>2014-10-12T09:37:39.000Z</time>
      </trkpt>
      <trkpt lat="47.44954" lon="6.69467">
        <ele>367.5</ele>
        <time>2014-10-12T09:37:41.000Z</time>
      </trkpt>
      <trkpt lat="47.44952" lon="6.69469">
        <ele>368.7</ele>
        <time>2014-10-12T09:37:42.000Z</time>
      </trkpt>
      <trkpt lat="47.4495" lon="6.69473">
        <ele>369</ele>
        <time>2014-10-12T09:37:45.000Z</time>
      </trkpt>
      <trkpt lat="47.44948" lon="6.69475">
        <ele>369.5</ele>
        <time>2014-10-12T09:37:46.000Z</time>
      </trkpt>
      <trkpt lat="47.44947" lon="6.6948">
        <ele>369.8</ele>
        <time>2014-10-12T09:37:51.000Z</time>
      </trkpt>
      <trkpt lat="47.44946" lon="6.69481">
        <ele>370.3</ele>
        <time>2014-10-12T09:37:52.000Z</time>
      </trkpt>
      <trkpt lat="47.44944" lon="6.69486">
        <ele>369.2</ele>
        <time>2014-10-12T09:37:55.001Z</time>
      </trkpt>
      <trkpt lat="47.44944" lon="6.69489">
        <ele>371.9</ele>
        <time>2014-10-12T09:37:56.000Z</time>
      </trkpt>
      <trkpt lat="47.44943" lon="6.69494">
        <ele>375.3</ele>
        <time>2014-10-12T09:37:57.999Z</time>
      </trkpt>
      <trkpt lat="47.44943" lon="6.69497">
        <ele>375.8</ele>
        <time>2014-10-12T09:37:59.000Z</time>
      </trkpt>
      <trkpt lat="47.44942" lon="6.69502">
        <ele>376.2</ele>
        <time>2014-10-12T09:38:01.000Z</time>
      </trkpt>
      <trkpt lat="47.44942" lon="6.69504">
        <ele>374.4</ele>
        <time>2014-10-12T09:38:02.000Z</time>
      </trkpt>
      <trkpt lat="47.44939" lon="6.69509">
        <ele>370.3</ele>
        <time>2014-10-12T09:38:06.000Z</time>
      </trkpt>
      <trkpt lat="47.44938" lon="6.6951">
        <ele>371.5</ele>
        <time>2014-10-12T09:38:07.000Z</time>
      </trkpt>
      <trkpt lat="47.44935" lon="6.69514">
        <ele>365.9</ele>
        <time>2014-10-12T09:38:11.000Z</time>
      </trkpt>
      <trkpt lat="47.44934" lon="6.69515">
        <ele>366.6</ele>
        <time>2014-10-12T09:38:12.000Z</time>
      </trkpt>
      <trkpt lat="47.44931" lon="6.69519">
        <ele>365.5</ele>
        <time>2014-10-12T09:38:17.000Z</time>
      </trkpt>
      <trkpt lat="47.4493" lon="6.69519">
        <ele>365.5</ele>
        <time>2014-10-12T09:38:18.000Z</time>
      </trkpt>
      <trkpt lat="47.44926" lon="6.69522">
        <ele>365.4</ele>
        <time>2014-10-12T09:38:23.000Z</time>
      </trkpt>
      <trkpt lat="47.44926" lon="6.69523">
        <ele>363.8</ele>
        <time>2014-10-12T09:38:24.000Z</time>
      </trkpt>
      <trkpt lat="47.44926" lon="6.69529">
        <ele>360.5</ele>
        <time>2014-10-12T09:38:33.000Z</time>
      </trkpt>
      <trkpt lat="47.44925" lon="6.6953">
        <ele>360.8</ele>
        <time>2014-10-12T09:38:34.000Z</time>
      </trkpt>
      <trkpt lat="47.44922" lon="6.69533">
        <ele>362.2</ele>
        <time>2014-10-12T09:38:36.000Z</time>
      </trkpt>
      <trkpt lat="47.44921" lon="6.69535">
        <ele>361.8</ele>
        <time>2014-10-12T09:38:37.000Z</time>
      </trkpt>
      <trkpt lat="47.44919" lon="6.6954">
        <ele>361.5</ele>
        <time>2014-10-12T09:38:39.000Z</time>
      </trkpt>
      <trkpt lat="47.44919" lon="6.69542">
        <ele>362.7</ele>
        <time>2014-10-12T09:38:40.000Z</time>
      </trkpt>
      <trkpt lat="47.44921" lon="6.69548">
        <ele>362.1</ele>
        <time>2014-10-12T09:38:43.000Z</time>
      </trkpt>
      <trkpt lat="47.44921" lon="6.69551">
        <ele>362.6</ele>
        <time>2014-10-12T09:38:44.000Z</time>
      </trkpt>
      <trkpt lat="47.44923" lon="6.69553">
        <ele>364</ele>
        <time>2014-10-12T09:38:47.000Z</time>
      </trkpt>
      <trkpt lat="47.44927" lon="6.69562">
        <ele>364.1</ele>
        <time>2014-10-12T09:38:55.000Z</time>
      </trkpt>
      <trkpt lat="47.44928" lon="6.69566">
        <ele>361.6</ele>
        <time>2014-10-12T09:38:58.000Z</time>
      </trkpt>
      <trkpt lat="47.44929" lon="6.69568">
        <ele>363</ele>
        <time>2014-10-12T09:38:59.000Z</time>
      </trkpt>
      <trkpt lat="47.44931" lon="6.69572">
        <ele>363.6</ele>
        <time>2014-10-12T09:39:02.000Z</time>
      </trkpt>
      <trkpt lat="47.44932" lon="6.69574">
        <ele>362.6</ele>
        <time>2014-10-12T09:39:03.000Z</time>
      </trkpt>
      <trkpt lat="47.44933" lon="6.6958">
        <ele>363</ele>
        <time>2014-10-12T09:39:06.000Z</time>
      </trkpt>
      <trkpt lat="47.44934" lon="6.69581">
        <ele>363.9</ele>
        <time>2014-10-12T09:39:07.000Z</time>
      </trkpt>
      <trkpt lat="47.44937" lon="6.69584">
        <ele>370</ele>
        <time>2014-10-12T09:39:12.000Z</time>
      </trkpt>
      <trkpt lat="47.44938" lon="6.69585">
        <ele>370.2</ele>
        <time>2014-10-12T09:39:13.000Z</time>
      </trkpt>
      <trkpt lat="47.4494" lon="6.6959">
        <ele>371.3</ele>
        <time>2014-10-12T09:39:18.000Z</time>
      </trkpt>
      <trkpt lat="47.4494" lon="6.69591">
        <ele>373</ele>
        <time>2014-10-12T09:39:19.000Z</time>
      </trkpt>
      <trkpt lat="47.44943" lon="6.69596">
        <ele>374.6</ele>
        <time>2014-10-12T09:39:22.000Z</time>
      </trkpt>
      <trkpt lat="47.44943" lon="6.69598">
        <ele>374.5</ele>
        <time>2014-10-12T09:39:23.000Z</time>
      </trkpt>
      <trkpt lat="47.44945" lon="6.69603">
        <ele>376.3</ele>
        <time>2014-10-12T09:39:27.000Z</time>
      </trkpt>
      <trkpt lat="47.44947" lon="6.69604">
        <ele>378.5</ele>
        <time>2014-10-12T09:39:28.000Z</time>
      </trkpt>
      <trkpt lat="47.4495" lon="6.69606">
        <ele>382.3</ele>
        <time>2014-10-12T09:39:31.000Z</time>
      </trkpt>
      <trkpt lat="47.44951" lon="6.69607">
        <ele>381.3</ele>
        <time>2014-10-12T09:39:32.000Z</time>
      </trkpt>
      <trkpt lat="47.44953" lon="6.6961">
        <ele>379.9</ele>
        <time>2014-10-12T09:39:35.000Z</time>
      </trkpt>
      <trkpt lat="47.44954" lon="6.69612">
        <ele>379.6</ele>
        <time>2014-10-12T09:39:36.000Z</time>
      </trkpt>
      <trkpt lat="47.44956" lon="6.69615">
        <ele>382.1</ele>
        <time>2014-10-12T09:39:38.000Z</time>
      </trkpt>
      <trkpt lat="47.44957" lon="6.69617">
        <ele>383.4</ele>
        <time>2014-10-12T09:39:39.000Z</time>
      </trkpt>
      <trkpt lat="47.4496" lon="6.69622">
        <ele>383.5</ele>
        <time>2014-10-12T09:39:42.000Z</time>
      </trkpt>
      <trkpt lat="47.4496" lon="6.69623">
        <ele>383.5</ele>
        <time>2014-10-12T09:39:43.000Z</time>
      </trkpt>
      <trkpt lat="47.44962" lon="6.69628">
        <ele>383.3</ele>
        <time>2014-10-12T09:39:47.000Z</time>
      </trkpt>
      <trkpt lat="47.44962" lon="6.69631">
        <ele>383.1</ele>
        <time>2014-10-12T09:39:50.000Z</time>
      </trkpt>
      <trkpt lat="47.44963" lon="6.69635">
        <ele>384.2</ele>
        <time>2014-10-12T09:39:52.000Z</time>
      </trkpt>
      <trkpt lat="47.44964" lon="6.69638">
        <ele>386.1</ele>
        <time>2014-10-12T09:39:53.000Z</time>
      </trkpt>
      <trkpt lat="47.44966" lon="6.69643">
        <ele>389.1</ele>
        <time>2014-10-12T09:39:55.000Z</time>
      </trkpt>
      <trkpt lat="47.44968" lon="6.69645">
        <ele>390.2</ele>
        <time>2014-10-12T09:39:56.000Z</time>
      </trkpt>
      <trkpt lat="47.44971" lon="6.6965">
        <ele>393.3</ele>
        <time>2014-10-12T09:39:58.000Z</time>
      </trkpt>
      <trkpt lat="47.44972" lon="6.69652">
        <ele>394.2</ele>
        <time>2014-10-12T09:39:59.000Z</time>
      </trkpt>
      <trkpt lat="47.44974" lon="6.69654">
        <ele>394.8</ele>
        <time>2014-10-12T09:40:00.000Z</time>
      </trkpt>
      <trkpt lat="47.44976" lon="6.69656">
        <ele>396</ele>
        <time>2014-10-12T09:40:01.000Z</time>
      </trkpt>
      <trkpt lat="47.44978" lon="6.6966">
        <ele>397.8</ele>
        <time>2014-10-12T09:40:03.000Z</time>
      </trkpt>
      <trkpt lat="47.44979" lon="6.69662">
        <ele>397.8</ele>
        <time>2014-10-12T09:40:04.000Z</time>
      </trkpt>
      <trkpt lat="47.4498" lon="6.69667">
        <ele>396.9</ele>
        <time>2014-10-12T09:40:06.000Z</time>
      </trkpt>
      <trkpt lat="47.4498" lon="6.69669">
        <ele>397.9</ele>
        <time>2014-10-12T09:40:07.000Z</time>
      </trkpt>
      <trkpt lat="47.44982" lon="6.69673">
        <ele>399.3</ele>
        <time>2014-10-12T09:40:08.000Z</time>
      </trkpt>
      <trkpt lat="47.44983" lon="6.69676">
        <ele>399.6</ele>
        <time>2014-10-12T09:40:09.000Z</time>
      </trkpt>
      <trkpt lat="47.44984" lon="6.69682">
        <ele>400.5</ele>
        <time>2014-10-12T09:40:11.000Z</time>
      </trkpt>
      <trkpt lat="47.44984" lon="6.69684">
        <ele>400</ele>
        <time>2014-10-12T09:40:12.000Z</time>
      </trkpt>
      <trkpt lat="47.44986" lon="6.69689">
        <ele>401.7</ele>
        <time>2014-10-12T09:40:15.000Z</time>
      </trkpt>
      <trkpt lat="47.44988" lon="6.69692">
        <ele>401.2</ele>
        <time>2014-10-12T09:40:16.000Z</time>
      </trkpt>
      <trkpt lat="47.44989" lon="6.69694">
        <ele>400.7</ele>
        <time>2014-10-12T09:40:17.000Z</time>
      </trkpt>
      <trkpt lat="47.44991" lon="6.69697">
        <ele>401.2</ele>
        <time>2014-10-12T09:40:18.000Z</time>
      </trkpt>
      <trkpt lat="47.44992" lon="6.69702">
        <ele>401.6</ele>
        <time>2014-10-12T09:40:21.000Z</time>
      </trkpt>
      <trkpt lat="47.44992" lon="6.69704">
        <ele>402.8</ele>
        <time>2014-10-12T09:40:22.000Z</time>
      </trkpt>
      <trkpt lat="47.44993" lon="6.69708">
        <ele>402.5</ele>
        <time>2014-10-12T09:40:24.000Z</time>
      </trkpt>
      <trkpt lat="47.44994" lon="6.6971">
        <ele>403.3</ele>
        <time>2014-10-12T09:40:25.000Z</time>
      </trkpt>
      <trkpt lat="47.44995" lon="6.69715">
        <ele>404</ele>
        <time>2014-10-12T09:40:27.000Z</time>
      </trkpt>
      <trkpt lat="47.44996" lon="6.69717">
        <ele>404.5</ele>
        <time>2014-10-12T09:40:28.000Z</time>
      </trkpt>
      <trkpt lat="47.44998" lon="6.69723">
        <ele>405.4</ele>
        <time>2014-10-12T09:40:31.000Z</time>
      </trkpt>
      <trkpt lat="47.44998" lon="6.69725">
        <ele>405.6</ele>
        <time>2014-10-12T09:40:32.000Z</time>
      </trkpt>
      <trkpt lat="47.44997" lon="6.6973">
        <ele>408</ele>
        <time>2014-10-12T09:40:34.000Z</time>
      </trkpt>
      <trkpt lat="47.44997" lon="6.69733">
        <ele>408.4</ele>
        <time>2014-10-12T09:40:35.000Z</time>
      </trkpt>
      <trkpt lat="47.44998" lon="6.69736">
        <ele>407.1</ele>
        <time>2014-10-12T09:40:36.000Z</time>
      </trkpt>
      <trkpt lat="47.44999" lon="6.69739">
        <ele>407.5</ele>
        <time>2014-10-12T09:40:37.000Z</time>
      </trkpt>
      <trkpt lat="47.45" lon="6.69743">
        <ele>407.7</ele>
        <time>2014-10-12T09:40:38.000Z</time>
      </trkpt>
      <trkpt lat="47.45001" lon="6.69746">
        <ele>406.3</ele>
        <time>2014-10-12T09:40:39.000Z</time>
      </trkpt>
      <trkpt lat="47.45002" lon="6.69749">
        <ele>407.6</ele>
        <time>2014-10-12T09:40:40.000Z</time>
      </trkpt>
      <trkpt lat="47.45003" lon="6.69752">
        <ele>408</ele>
        <time>2014-10-12T09:40:41.000Z</time>
      </trkpt>
      <trkpt lat="47.45005" lon="6.69755">
        <ele>408.1</ele>
        <time>2014-10-12T09:40:42.000Z</time>
      </trkpt>
      <trkpt lat="47.45006" lon="6.69758">
        <ele>408.7</ele>
        <time>2014-10-12T09:40:43.000Z</time>
      </trkpt>
      <trkpt lat="47.45007" lon="6.69761">
        <ele>407.4</ele>
        <time>2014-10-12T09:40:44.000Z</time>
      </trkpt>
      <trkpt lat="47.45008" lon="6.69764">
        <ele>407.9</ele>
        <time>2014-10-12T09:40:45.000Z</time>
      </trkpt>
      <trkpt lat="47.45009" lon="6.69767">
        <ele>408</ele>
        <time>2014-10-12T09:40:46.000Z</time>
      </trkpt>
      <trkpt lat="47.4501" lon="6.69771">
        <ele>408.7</ele>
        <time>2014-10-12T09:40:47.000Z</time>
      </trkpt>
      <trkpt lat="47.45013" lon="6.69779">
        <ele>407.1</ele>
        <time>2014-10-12T09:40:50.000Z</time>
      </trkpt>
      <trkpt lat="47.45014" lon="6.69782">
        <ele>408.1</ele>
        <time>2014-10-12T09:40:51.000Z</time>
      </trkpt>
      <trkpt lat="47.45015" lon="6.69786">
        <ele>408.5</ele>
        <time>2014-10-12T09:40:52.000Z</time>
      </trkpt>
      <trkpt lat="47.45016" lon="6.69788">
        <ele>408.4</ele>
        <time>2014-10-12T09:40:53.084Z</time>
      </trkpt>
      <trkpt lat="47.45019" lon="6.69793">
        <ele>410.8</ele>
        <time>2014-10-12T09:40:54.000Z</time>
      </trkpt>
      <trkpt lat="47.45021" lon="6.69797">
        <ele>411</ele>
        <time>2014-10-12T09:40:55.000Z</time>
      </trkpt>
      <trkpt lat="47.45023" lon="6.69801">
        <ele>410.2</ele>
        <time>2014-10-12T09:40:56.000Z</time>
      </trkpt>
      <trkpt lat="47.45024" lon="6.69805">
        <ele>410.3</ele>
        <time>2014-10-12T09:40:57.000Z</time>
      </trkpt>
      <trkpt lat="47.45026" lon="6.69808">
        <ele>410.8</ele>
        <time>2014-10-12T09:40:58.000Z</time>
      </trkpt>
      <trkpt lat="47.45028" lon="6.69812">
        <ele>411.4</ele>
        <time>2014-10-12T09:40:59.000Z</time>
      </trkpt>
      <trkpt lat="47.4503" lon="6.69815">
        <ele>411.2</ele>
        <time>2014-10-12T09:41:00.000Z</time>
      </trkpt>
      <trkpt lat="47.45031" lon="6.69817">
        <ele>411.2</ele>
        <time>2014-10-12T09:41:01.000Z</time>
      </trkpt>
      <trkpt lat="47.45033" lon="6.6982">
        <ele>411.6</ele>
        <time>2014-10-12T09:41:02.000Z</time>
      </trkpt>
      <trkpt lat="47.45035" lon="6.69822">
        <ele>411.9</ele>
        <time>2014-10-12T09:41:03.000Z</time>
      </trkpt>
      <trkpt lat="47.45037" lon="6.69825">
        <ele>411.1</ele>
        <time>2014-10-12T09:41:04.000Z</time>
      </trkpt>
      <trkpt lat="47.45039" lon="6.69828">
        <ele>410.3</ele>
        <time>2014-10-12T09:41:05.000Z</time>
      </trkpt>
      <trkpt lat="47.4504" lon="6.6983">
        <ele>410.3</ele>
        <time>2014-10-12T09:41:06.000Z</time>
      </trkpt>
      <trkpt lat="47.45042" lon="6.69833">
        <ele>409.8</ele>
        <time>2014-10-12T09:41:07.000Z</time>
      </trkpt>
      <trkpt lat="47.45043" lon="6.69836">
        <ele>410</ele>
        <time>2014-10-12T09:41:08.000Z</time>
      </trkpt>
      <trkpt lat="47.45045" lon="6.69839">
        <ele>408.1</ele>
        <time>2014-10-12T09:41:09.000Z</time>
      </trkpt>
      <trkpt lat="47.45046" lon="6.69842">
        <ele>408.4</ele>
        <time>2014-10-12T09:41:10.000Z</time>
      </trkpt>
      <trkpt lat="47.45048" lon="6.69848">
        <ele>409.5</ele>
        <time>2014-10-12T09:41:12.000Z</time>
      </trkpt>
      <trkpt lat="47.45049" lon="6.6985">
        <ele>413.7</ele>
        <time>2014-10-12T09:41:13.000Z</time>
      </trkpt>
      <trkpt lat="47.4505" lon="6.69853">
        <ele>414.7</ele>
        <time>2014-10-12T09:41:14.000Z</time>
      </trkpt>
      <trkpt lat="47.45051" lon="6.69856">
        <ele>415.3</ele>
        <time>2014-10-12T09:41:15.000Z</time>
      </trkpt>
      <trkpt lat="47.45052" lon="6.69859">
        <ele>415.9</ele>
        <time>2014-10-12T09:41:16.000Z</time>
      </trkpt>
      <trkpt lat="47.45054" lon="6.69861">
        <ele>416.1</ele>
        <time>2014-10-12T09:41:17.000Z</time>
      </trkpt>
      <trkpt lat="47.45056" lon="6.69866">
        <ele>413.7</ele>
        <time>2014-10-12T09:41:19.000Z</time>
      </trkpt>
      <trkpt lat="47.45057" lon="6.69867">
        <ele>412.7</ele>
        <time>2014-10-12T09:41:20.000Z</time>
      </trkpt>
      <trkpt lat="47.45059" lon="6.69871">
        <ele>413.9</ele>
        <time>2014-10-12T09:41:22.000Z</time>
      </trkpt>
      <trkpt lat="47.4506" lon="6.69874">
        <ele>413.3</ele>
        <time>2014-10-12T09:41:23.000Z</time>
      </trkpt>
      <trkpt lat="47.45062" lon="6.6988">
        <ele>412.6</ele>
        <time>2014-10-12T09:41:25.000Z</time>
      </trkpt>
      <trkpt lat="47.45063" lon="6.69882">
        <ele>411.9</ele>
        <time>2014-10-12T09:41:26.000Z</time>
      </trkpt>
      <trkpt lat="47.45065" lon="6.69887">
        <ele>413.5</ele>
        <time>2014-10-12T09:41:28.000Z</time>
      </trkpt>
      <trkpt lat="47.45066" lon="6.6989">
        <ele>414.4</ele>
        <time>2014-10-12T09:41:29.000Z</time>
      </trkpt>
      <trkpt lat="47.45068" lon="6.69895">
        <ele>416.1</ele>
        <time>2014-10-12T09:41:31.000Z</time>
      </trkpt>
      <trkpt lat="47.45069" lon="6.69898">
        <ele>417</ele>
        <time>2014-10-12T09:41:32.000Z</time>
      </trkpt>
      <trkpt lat="47.45071" lon="6.69903">
        <ele>418.3</ele>
        <time>2014-10-12T09:41:34.000Z</time>
      </trkpt>
      <trkpt lat="47.45072" lon="6.69906">
        <ele>419.4</ele>
        <time>2014-10-12T09:41:35.000Z</time>
      </trkpt>
      <trkpt lat="47.45073" lon="6.69909">
        <ele>420.1</ele>
        <time>2014-10-12T09:41:36.000Z</time>
      </trkpt>
      <trkpt lat="47.45075" lon="6.69912">
        <ele>421.2</ele>
        <time>2014-10-12T09:41:37.000Z</time>
      </trkpt>
      <trkpt lat="47.45076" lon="6.69914">
        <ele>421.6</ele>
        <time>2014-10-12T09:41:38.000Z</time>
      </trkpt>
      <trkpt lat="47.45078" lon="6.69917">
        <ele>422.6</ele>
        <time>2014-10-12T09:41:39.000Z</time>
      </trkpt>
      <trkpt lat="47.4508" lon="6.69921">
        <ele>422.3</ele>
        <time>2014-10-12T09:41:40.000Z</time>
      </trkpt>
      <trkpt lat="47.45082" lon="6.69924">
        <ele>422.1</ele>
        <time>2014-10-12T09:41:41.000Z</time>
      </trkpt>
      <trkpt lat="47.45085" lon="6.69927">
        <ele>421.2</ele>
        <time>2014-10-12T09:41:42.000Z</time>
      </trkpt>
      <trkpt lat="47.45087" lon="6.69929">
        <ele>418.9</ele>
        <time>2014-10-12T09:41:43.000Z</time>
      </trkpt>
      <trkpt lat="47.45088" lon="6.69932">
        <ele>418.3</ele>
        <time>2014-10-12T09:41:44.000Z</time>
      </trkpt>
      <trkpt lat="47.4509" lon="6.69934">
        <ele>418.4</ele>
        <time>2014-10-12T09:41:45.000Z</time>
      </trkpt>
      <trkpt lat="47.45091" lon="6.69936">
        <ele>419.2</ele>
        <time>2014-10-12T09:41:46.000Z</time>
      </trkpt>
      <trkpt lat="47.45093" lon="6.69938">
        <ele>418.4</ele>
        <time>2014-10-12T09:41:47.000Z</time>
      </trkpt>
      <trkpt lat="47.45102" lon="6.6996">
        <ele>371.9</ele>
        <time>2014-10-12T09:41:55.000Z</time>
      </trkpt>
      <trkpt lat="47.45102" lon="6.69964">
        <ele>375.2</ele>
        <time>2014-10-12T09:41:56.000Z</time>
      </trkpt>
      <trkpt lat="47.45103" lon="6.69968">
        <ele>377.8</ele>
        <time>2014-10-12T09:41:57.000Z</time>
      </trkpt>
      <trkpt lat="47.45104" lon="6.69972">
        <ele>379.6</ele>
        <time>2014-10-12T09:41:58.000Z</time>
      </trkpt>
      <trkpt lat="47.45106" lon="6.69976">
        <ele>380.3</ele>
        <time>2014-10-12T09:41:59.000Z</time>
      </trkpt>
      <trkpt lat="47.45108" lon="6.69979">
        <ele>381.7</ele>
        <time>2014-10-12T09:42:00.000Z</time>
      </trkpt>
      <trkpt lat="47.4511" lon="6.69982">
        <ele>384.9</ele>
        <time>2014-10-12T09:42:01.000Z</time>
      </trkpt>
      <trkpt lat="47.45111" lon="6.69985">
        <ele>385.9</ele>
        <time>2014-10-12T09:42:02.000Z</time>
      </trkpt>
      <trkpt lat="47.45112" lon="6.69988">
        <ele>385.5</ele>
        <time>2014-10-12T09:42:03.000Z</time>
      </trkpt>
      <trkpt lat="47.45114" lon="6.69991">
        <ele>386.7</ele>
        <time>2014-10-12T09:42:04.000Z</time>
      </trkpt>
      <trkpt lat="47.45115" lon="6.69993">
        <ele>388.3</ele>
        <time>2014-10-12T09:42:05.000Z</time>
      </trkpt>
      <trkpt lat="47.45117" lon="6.69996">
        <ele>388</ele>
        <time>2014-10-12T09:42:06.000Z</time>
      </trkpt>
      <trkpt lat="47.45119" lon="6.69998">
        <ele>388.1</ele>
        <time>2014-10-12T09:42:07.000Z</time>
      </trkpt>
      <trkpt lat="47.45121" lon="6.70003">
        <ele>388.9</ele>
        <time>2014-10-12T09:42:09.000Z</time>
      </trkpt>
      <trkpt lat="47.45122" lon="6.70005">
        <ele>388.6</ele>
        <time>2014-10-12T09:42:10.000Z</time>
      </trkpt>
      <trkpt lat="47.45124" lon="6.70011">
        <ele>393.9</ele>
        <time>2014-10-12T09:42:12.000Z</time>
      </trkpt>
      <trkpt lat="47.45124" lon="6.70014">
        <ele>394.5</ele>
        <time>2014-10-12T09:42:13.000Z</time>
      </trkpt>
      <trkpt lat="47.45125" lon="6.70019">
        <ele>396.7</ele>
        <time>2014-10-12T09:42:15.000Z</time>
      </trkpt>
      <trkpt lat="47.45125" lon="6.70021">
        <ele>397.6</ele>
        <time>2014-10-12T09:42:16.000Z</time>
      </trkpt>
      <trkpt lat="47.45127" lon="6.70027">
        <ele>399.8</ele>
        <time>2014-10-12T09:42:20.000Z</time>
      </trkpt>
      <trkpt lat="47.45127" lon="6.70029">
        <ele>400</ele>
        <time>2014-10-12T09:42:21.000Z</time>
      </trkpt>
      <trkpt lat="47.45126" lon="6.70033">
        <ele>402.6</ele>
        <time>2014-10-12T09:42:23.000Z</time>
      </trkpt>
      <trkpt lat="47.45126" lon="6.70036">
        <ele>403.3</ele>
        <time>2014-10-12T09:42:24.000Z</time>
      </trkpt>
      <trkpt lat="47.45125" lon="6.7004">
        <ele>404.2</ele>
        <time>2014-10-12T09:42:26.000Z</time>
      </trkpt>
      <trkpt lat="47.45124" lon="6.70042">
        <ele>404.3</ele>
        <time>2014-10-12T09:42:27.000Z</time>
      </trkpt>
      <trkpt lat="47.45124" lon="6.70047">
        <ele>405.5</ele>
        <time>2014-10-12T09:42:29.000Z</time>
      </trkpt>
      <trkpt lat="47.45123" lon="6.70049">
        <ele>406</ele>
        <time>2014-10-12T09:42:30.000Z</time>
      </trkpt>
      <trkpt lat="47.45124" lon="6.70055">
        <ele>405.6</ele>
        <time>2014-10-12T09:42:34.000Z</time>
      </trkpt>
      <trkpt lat="47.45124" lon="6.70056">
        <ele>405.9</ele>
        <time>2014-10-12T09:42:35.000Z</time>
      </trkpt>
      <trkpt lat="47.45123" lon="6.70062">
        <ele>404.8</ele>
        <time>2014-10-12T09:42:43.000Z</time>
      </trkpt>
      <trkpt lat="47.45123" lon="6.70063">
        <ele>404.4</ele>
        <time>2014-10-12T09:42:44.000Z</time>
      </trkpt>
      <trkpt lat="47.45122" lon="6.70066">
        <ele>405.3</ele>
        <time>2014-10-12T09:42:47.000Z</time>
      </trkpt>
      <trkpt lat="47.4512" lon="6.70069">
        <ele>405.2</ele>
        <time>2014-10-12T09:42:50.000Z</time>
      </trkpt>
      <trkpt lat="47.45119" lon="6.70073">
        <ele>407.3</ele>
        <time>2014-10-12T09:42:52.000Z</time>
      </trkpt>
      <trkpt lat="47.45119" lon="6.70075">
        <ele>408.3</ele>
        <time>2014-10-12T09:42:53.000Z</time>
      </trkpt>
      <trkpt lat="47.45118" lon="6.7008">
        <ele>409.5</ele>
        <time>2014-10-12T09:42:55.000Z</time>
      </trkpt>
      <trkpt lat="47.45118" lon="6.70083">
        <ele>410.1</ele>
        <time>2014-10-12T09:42:56.000Z</time>
      </trkpt>
      <trkpt lat="47.45118" lon="6.70089">
        <ele>413.3</ele>
        <time>2014-10-12T09:43:01.000Z</time>
      </trkpt>
      <trkpt lat="47.45118" lon="6.7009">
        <ele>414.3</ele>
        <time>2014-10-12T09:43:02.000Z</time>
      </trkpt>
      <trkpt lat="47.45121" lon="6.70085">
        <ele>333.8</ele>
        <time>2014-10-12T09:46:03.000Z</time>
      </trkpt>
      <trkpt lat="47.45122" lon="6.70084">
        <ele>334.9</ele>
        <time>2014-10-12T09:46:04.000Z</time>
      </trkpt>
      <trkpt lat="47.45123" lon="6.70078">
        <ele>361.3</ele>
        <time>2014-10-12T09:48:09.000Z</time>
      </trkpt>
      <trkpt lat="47.45124" lon="6.70078">
        <ele>362.7</ele>
        <time>2014-10-12T09:48:10.000Z</time>
      </trkpt>
      <trkpt lat="47.45124" lon="6.70073">
        <ele>365</ele>
        <time>2014-10-12T09:48:13.000Z</time>
      </trkpt>
      <trkpt lat="47.45124" lon="6.7007">
        <ele>365.8</ele>
        <time>2014-10-12T09:48:14.000Z</time>
      </trkpt>
      <trkpt lat="47.45123" lon="6.70067">
        <ele>366.9</ele>
        <time>2014-10-12T09:48:15.000Z</time>
      </trkpt>
      <trkpt lat="47.45122" lon="6.70063">
        <ele>369.3</ele>
        <time>2014-10-12T09:48:16.000Z</time>
      </trkpt>
      <trkpt lat="47.45122" lon="6.70059">
        <ele>368.9</ele>
        <time>2014-10-12T09:48:17.000Z</time>
      </trkpt>
      <trkpt lat="47.45123" lon="6.70054">
        <ele>372.5</ele>
        <time>2014-10-12T09:48:18.000Z</time>
      </trkpt>
      <trkpt lat="47.45124" lon="6.70049">
        <ele>373.6</ele>
        <time>2014-10-12T09:48:19.000Z</time>
      </trkpt>
      <trkpt lat="47.45125" lon="6.70044">
        <ele>374.3</ele>
        <time>2014-10-12T09:48:20.000Z</time>
      </trkpt>
      <trkpt lat="47.45125" lon="6.70049">
        <ele>401.6</ele>
        <time>2014-10-12T09:48:39.000Z</time>
      </trkpt>
      <trkpt lat="47.45124" lon="6.70052">
        <ele>402.9</ele>
        <time>2014-10-12T09:48:40.000Z</time>
      </trkpt>
      <trkpt lat="47.45123" lon="6.70056">
        <ele>404.6</ele>
        <time>2014-10-12T09:48:42.000Z</time>
      </trkpt>
      <trkpt lat="47.45123" lon="6.70058">
        <ele>405.5</ele>
        <time>2014-10-12T09:48:43.000Z</time>
      </trkpt>
      <trkpt lat="47.45122" lon="6.70064">
        <ele>407.8</ele>
        <time>2014-10-12T09:48:46.000Z</time>
      </trkpt>
      <trkpt lat="47.45122" lon="6.70066">
        <ele>408</ele>
        <time>2014-10-12T09:48:47.000Z</time>
      </trkpt>
      <trkpt lat="47.45124" lon="6.70071">
        <ele>403.1</ele>
        <time>2014-10-12T09:48:57.000Z</time>
      </trkpt>
      <trkpt lat="47.45124" lon="6.70072">
        <ele>405.4</ele>
        <time>2014-10-12T09:48:58.000Z</time>
      </trkpt>
      <trkpt lat="47.45125" lon="6.70078">
        <ele>408.1</ele>
        <time>2014-10-12T09:49:04.000Z</time>
      </trkpt>
      <trkpt lat="47.45126" lon="6.70078">
        <ele>410.5</ele>
        <time>2014-10-12T09:49:05.000Z</time>
      </trkpt>
      <trkpt lat="47.45129" lon="6.70081">
        <ele>411.7</ele>
        <time>2014-10-12T09:49:08.000Z</time>
      </trkpt>
      <trkpt lat="47.4513" lon="6.70082">
        <ele>411.4</ele>
        <time>2014-10-12T09:49:08.999Z</time>
      </trkpt>
      <trkpt lat="47.45132" lon="6.70087">
        <ele>415.7</ele>
        <time>2014-10-12T09:49:13.000Z</time>
      </trkpt>
      <trkpt lat="47.45132" lon="6.70088">
        <ele>415.6</ele>
        <time>2014-10-12T09:49:14.000Z</time>
      </trkpt>
      <trkpt lat="47.45135" lon="6.70091">
        <ele>418.6</ele>
        <time>2014-10-12T09:49:18.000Z</time>
      </trkpt>
      <trkpt lat="47.45136" lon="6.70091">
        <ele>419.9</ele>
        <time>2014-10-12T09:49:19.000Z</time>
      </trkpt>
      <trkpt lat="47.45139" lon="6.70093">
        <ele>423.5</ele>
        <time>2014-10-12T09:49:22.000Z</time>
      </trkpt>
      <trkpt lat="47.45141" lon="6.70093">
        <ele>425.2</ele>
        <time>2014-10-12T09:49:23.000Z</time>
      </trkpt>
      <trkpt lat="47.45144" lon="6.70093">
        <ele>428.2</ele>
        <time>2014-10-12T09:49:26.000Z</time>
      </trkpt>
      <trkpt lat="47.45145" lon="6.70094">
        <ele>425.8</ele>
        <time>2014-10-12T09:49:27.000Z</time>
      </trkpt>
      <trkpt lat="47.45149" lon="6.70097">
        <ele>425.3</ele>
        <time>2014-10-12T09:49:31.000Z</time>
      </trkpt>
      <trkpt lat="47.45149" lon="6.70099">
        <ele>425.4</ele>
        <time>2014-10-12T09:49:32.000Z</time>
      </trkpt>
      <trkpt lat="47.45152" lon="6.70101">
        <ele>425.8</ele>
        <time>2014-10-12T09:49:34.000Z</time>
      </trkpt>
      <trkpt lat="47.45154" lon="6.70103">
        <ele>426</ele>
        <time>2014-10-12T09:49:35.000Z</time>
      </trkpt>
      <trkpt lat="47.45157" lon="6.70104">
        <ele>429.5</ele>
        <time>2014-10-12T09:49:36.000Z</time>
      </trkpt>
      <trkpt lat="47.4516" lon="6.70107">
        <ele>430.2</ele>
        <time>2014-10-12T09:49:37.000Z</time>
      </trkpt>
      <trkpt lat="47.45163" lon="6.70109">
        <ele>430.8</ele>
        <time>2014-10-12T09:49:38.000Z</time>
      </trkpt>
      <trkpt lat="47.45166" lon="6.70113">
        <ele>428.2</ele>
        <time>2014-10-12T09:49:39.000Z</time>
      </trkpt>
      <trkpt lat="47.45168" lon="6.70116">
        <ele>427.8</ele>
        <time>2014-10-12T09:49:40.000Z</time>
      </trkpt>
      <trkpt lat="47.45171" lon="6.70119">
        <ele>425.9</ele>
        <time>2014-10-12T09:49:41.000Z</time>
      </trkpt>
      <trkpt lat="47.45173" lon="6.70122">
        <ele>424.3</ele>
        <time>2014-10-12T09:49:42.000Z</time>
      </trkpt>
      <trkpt lat="47.45176" lon="6.70124">
        <ele>421.8</ele>
        <time>2014-10-12T09:49:43.000Z</time>
      </trkpt>
      <trkpt lat="47.45188" lon="6.70131">
        <ele>421.1</ele>
        <time>2014-10-12T09:49:44.000Z</time>
      </trkpt>
      <trkpt lat="47.45196" lon="6.70133">
        <ele>421.7</ele>
        <time>2014-10-12T09:49:45.000Z</time>
      </trkpt>
      <trkpt lat="47.45203" lon="6.70134">
        <ele>419.6</ele>
        <time>2014-10-12T09:49:46.000Z</time>
      </trkpt>
      <trkpt lat="47.4521" lon="6.70137">
        <ele>418.4</ele>
        <time>2014-10-12T09:49:47.000Z</time>
      </trkpt>
      <trkpt lat="47.45226" lon="6.70138">
        <ele>413.7</ele>
        <time>2014-10-12T09:49:50.000Z</time>
      </trkpt>
      <trkpt lat="47.45234" lon="6.70144">
        <ele>412.8</ele>
        <time>2014-10-12T09:49:51.000Z</time>
      </trkpt>
      <trkpt lat="47.45242" lon="6.70148">
        <ele>412</ele>
        <time>2014-10-12T09:49:52.000Z</time>
      </trkpt>
      <trkpt lat="47.45249" lon="6.70154">
        <ele>411.7</ele>
        <time>2014-10-12T09:49:53.000Z</time>
      </trkpt>
      <trkpt lat="47.45257" lon="6.70159">
        <ele>411.2</ele>
        <time>2014-10-12T09:49:54.000Z</time>
      </trkpt>
      <trkpt lat="47.45265" lon="6.70164">
        <ele>412.1</ele>
        <time>2014-10-12T09:49:55.000Z</time>
      </trkpt>
      <trkpt lat="47.45269" lon="6.70166">
        <ele>413</ele>
        <time>2014-10-12T09:49:57.000Z</time>
      </trkpt>
      <trkpt lat="47.4527" lon="6.70167">
        <ele>413.5</ele>
        <time>2014-10-12T09:49:58.000Z</time>
      </trkpt>
      <trkpt lat="47.45266" lon="6.70165">
        <ele>408.8</ele>
        <time>2014-10-12T09:50:07.000Z</time>
      </trkpt>
      <trkpt lat="47.45265" lon="6.70164">
        <ele>408.3</ele>
        <time>2014-10-12T09:50:08.000Z</time>
      </trkpt>
      <trkpt lat="47.45267" lon="6.70169">
        <ele>407.1</ele>
        <time>2014-10-12T09:50:29.000Z</time>
      </trkpt>
      <trkpt lat="47.45267" lon="6.70171">
        <ele>407</ele>
        <time>2014-10-12T09:50:30.000Z</time>
      </trkpt>
      <trkpt lat="47.45268" lon="6.70177">
        <ele>407.9</ele>
        <time>2014-10-12T09:50:33.000Z</time>
      </trkpt>
      <trkpt lat="47.45268" lon="6.70179">
        <ele>407.4</ele>
        <time>2014-10-12T09:50:34.000Z</time>
      </trkpt>
      <trkpt lat="47.45269" lon="6.70184">
        <ele>408</ele>
        <time>2014-10-12T09:50:36.000Z</time>
      </trkpt>
      <trkpt lat="47.45269" lon="6.70186">
        <ele>408.5</ele>
        <time>2014-10-12T09:50:37.000Z</time>
      </trkpt>
      <trkpt lat="47.45271" lon="6.70193">
        <ele>407.4</ele>
        <time>2014-10-12T09:50:40.000Z</time>
      </trkpt>
      <trkpt lat="47.45271" lon="6.70195">
        <ele>407.4</ele>
        <time>2014-10-12T09:50:41.000Z</time>
      </trkpt>
      <trkpt lat="47.45271" lon="6.702">
        <ele>403</ele>
        <time>2014-10-12T09:50:46.000Z</time>
      </trkpt>
      <trkpt lat="47.45271" lon="6.70201">
        <ele>402.5</ele>
        <time>2014-10-12T09:50:47.000Z</time>
      </trkpt>
      <trkpt lat="47.45278" lon="6.70211">
        <ele>397.8</ele>
        <time>2014-10-12T09:50:55.000Z</time>
      </trkpt>
      <trkpt lat="47.4528" lon="6.70216">
        <ele>399.2</ele>
        <time>2014-10-12T09:50:57.000Z</time>
      </trkpt>
      <trkpt lat="47.45281" lon="6.70217">
        <ele>392.1</ele>
        <time>2014-10-12T09:50:58.000Z</time>
      </trkpt>
      <trkpt lat="47.45284" lon="6.70221">
        <ele>392.2</ele>
        <time>2014-10-12T09:51:01.000Z</time>
      </trkpt>
      <trkpt lat="47.45285" lon="6.70223">
        <ele>392.4</ele>
        <time>2014-10-12T09:51:02.000Z</time>
      </trkpt>
      <trkpt lat="47.45286" lon="6.70228">
        <ele>393.4</ele>
        <time>2014-10-12T09:51:04.000Z</time>
      </trkpt>
      <trkpt lat="47.45287" lon="6.70231">
        <ele>392.7</ele>
        <time>2014-10-12T09:51:05.000Z</time>
      </trkpt>
      <trkpt lat="47.45287" lon="6.70235">
        <ele>393.1</ele>
        <time>2014-10-12T09:51:07.000Z</time>
      </trkpt>
      <trkpt lat="47.45287" lon="6.70237">
        <ele>393.7</ele>
        <time>2014-10-12T09:51:08.000Z</time>
      </trkpt>
      <trkpt lat="47.45288" lon="6.70242">
        <ele>394.6</ele>
        <time>2014-10-12T09:51:10.000Z</time>
      </trkpt>
      <trkpt lat="47.45288" lon="6.70244">
        <ele>393.2</ele>
        <time>2014-10-12T09:51:11.000Z</time>
      </trkpt>
      <trkpt lat="47.45288" lon="6.70251">
        <ele>392.8</ele>
        <time>2014-10-12T09:51:14.000Z</time>
      </trkpt>
      <trkpt lat="47.45288" lon="6.70253">
        <ele>392.8</ele>
        <time>2014-10-12T09:51:15.000Z</time>
      </trkpt>
      <trkpt lat="47.4529" lon="6.70258">
        <ele>392.5</ele>
        <time>2014-10-12T09:51:17.000Z</time>
      </trkpt>
      <trkpt lat="47.4529" lon="6.7026">
        <ele>391.4</ele>
        <time>2014-10-12T09:51:18.000Z</time>
      </trkpt>
      <trkpt lat="47.4529" lon="6.70265">
        <ele>392.5</ele>
        <time>2014-10-12T09:51:21.000Z</time>
      </trkpt>
      <trkpt lat="47.4529" lon="6.70267">
        <ele>393.6</ele>
        <time>2014-10-12T09:51:22.000Z</time>
      </trkpt>
      <trkpt lat="47.4529" lon="6.70272">
        <ele>393.8</ele>
        <time>2014-10-12T09:51:25.000Z</time>
      </trkpt>
      <trkpt lat="47.4529" lon="6.70274">
        <ele>394.3</ele>
        <time>2014-10-12T09:51:26.000Z</time>
      </trkpt>
      <trkpt lat="47.45291" lon="6.7028">
        <ele>394.8</ele>
        <time>2014-10-12T09:51:29.000Z</time>
      </trkpt>
      <trkpt lat="47.45291" lon="6.70282">
        <ele>395.7</ele>
        <time>2014-10-12T09:51:30.000Z</time>
      </trkpt>
      <trkpt lat="47.45292" lon="6.70288">
        <ele>395.5</ele>
        <time>2014-10-12T09:51:32.000Z</time>
      </trkpt>
      <trkpt lat="47.45292" lon="6.70291">
        <ele>396.4</ele>
        <time>2014-10-12T09:51:33.000Z</time>
      </trkpt>
      <trkpt lat="47.45292" lon="6.70297">
        <ele>395.3</ele>
        <time>2014-10-12T09:51:35.000Z</time>
      </trkpt>
      <trkpt lat="47.45292" lon="6.70301">
        <ele>395.8</ele>
        <time>2014-10-12T09:51:36.000Z</time>
      </trkpt>
      <trkpt lat="47.45292" lon="6.70307">
        <ele>396.2</ele>
        <time>2014-10-12T09:51:38.000Z</time>
      </trkpt>
      <trkpt lat="47.45291" lon="6.7031">
        <ele>397.1</ele>
        <time>2014-10-12T09:51:39.000Z</time>
      </trkpt>
      <trkpt lat="47.4529" lon="6.70316">
        <ele>396.5</ele>
        <time>2014-10-12T09:51:41.000Z</time>
      </trkpt>
      <trkpt lat="47.45289" lon="6.70318">
        <ele>397</ele>
        <time>2014-10-12T09:51:42.000Z</time>
      </trkpt>
      <trkpt lat="47.45289" lon="6.70323">
        <ele>398.5</ele>
        <time>2014-10-12T09:51:44.000Z</time>
      </trkpt>
      <trkpt lat="47.45289" lon="6.70326">
        <ele>398.9</ele>
        <time>2014-10-12T09:51:45.000Z</time>
      </trkpt>
      <trkpt lat="47.45291" lon="6.70332">
        <ele>396.2</ele>
        <time>2014-10-12T09:51:55.000Z</time>
      </trkpt>
      <trkpt lat="47.45291" lon="6.70334">
        <ele>396.4</ele>
        <time>2014-10-12T09:51:56.000Z</time>
      </trkpt>
      <trkpt lat="47.45291" lon="6.7034">
        <ele>396.9</ele>
        <time>2014-10-12T09:52:01.000Z</time>
      </trkpt>
      <trkpt lat="47.45291" lon="6.70341">
        <ele>397</ele>
        <time>2014-10-12T09:52:02.000Z</time>
      </trkpt>
      <trkpt lat="47.45291" lon="6.70346">
        <ele>396.3</ele>
        <time>2014-10-12T09:52:06.000Z</time>
      </trkpt>
      <trkpt lat="47.45291" lon="6.70349">
        <ele>396.5</ele>
        <time>2014-10-12T09:52:07.000Z</time>
      </trkpt>
      <trkpt lat="47.4529" lon="6.70355">
        <ele>398</ele>
        <time>2014-10-12T09:52:10.000Z</time>
      </trkpt>
      <trkpt lat="47.4529" lon="6.70356">
        <ele>398.5</ele>
        <time>2014-10-12T09:52:11.000Z</time>
      </trkpt>
      <trkpt lat="47.45288" lon="6.70362">
        <ele>400.8</ele>
        <time>2014-10-12T09:52:14.000Z</time>
      </trkpt>
      <trkpt lat="47.45287" lon="6.70363">
        <ele>401.8</ele>
        <time>2014-10-12T09:52:15.000Z</time>
      </trkpt>
      <trkpt lat="47.45285" lon="6.70367">
        <ele>404.1</ele>
        <time>2014-10-12T09:52:18.000Z</time>
      </trkpt>
      <trkpt lat="47.45284" lon="6.70369">
        <ele>404.5</ele>
        <time>2014-10-12T09:52:19.000Z</time>
      </trkpt>
      <trkpt lat="47.45281" lon="6.70374">
        <ele>406.8</ele>
        <time>2014-10-12T09:52:22.000Z</time>
      </trkpt>
      <trkpt lat="47.4528" lon="6.70376">
        <ele>406.7</ele>
        <time>2014-10-12T09:52:23.000Z</time>
      </trkpt>
      <trkpt lat="47.45277" lon="6.70379">
        <ele>408.8</ele>
        <time>2014-10-12T09:52:25.000Z</time>
      </trkpt>
      <trkpt lat="47.45276" lon="6.70381">
        <ele>410</ele>
        <time>2014-10-12T09:52:26.000Z</time>
      </trkpt>
      <trkpt lat="47.45273" lon="6.70385">
        <ele>410.4</ele>
        <time>2014-10-12T09:52:28.000Z</time>
      </trkpt>
      <trkpt lat="47.45272" lon="6.70386">
        <ele>409</ele>
        <time>2014-10-12T09:52:29.000Z</time>
      </trkpt>
      <trkpt lat="47.45268" lon="6.7039">
        <ele>406.3</ele>
        <time>2014-10-12T09:52:32.000Z</time>
      </trkpt>
      <trkpt lat="47.45267" lon="6.70392">
        <ele>406.8</ele>
        <time>2014-10-12T09:52:33.000Z</time>
      </trkpt>
      <trkpt lat="47.45265" lon="6.70396">
        <ele>409.2</ele>
        <time>2014-10-12T09:52:36.000Z</time>
      </trkpt>
      <trkpt lat="47.45264" lon="6.70398">
        <ele>410.2</ele>
        <time>2014-10-12T09:52:37.000Z</time>
      </trkpt>
      <trkpt lat="47.45262" lon="6.70401">
        <ele>411.4</ele>
        <time>2014-10-12T09:52:39.000Z</time>
      </trkpt>
      <trkpt lat="47.45261" lon="6.70402">
        <ele>411.9</ele>
        <time>2014-10-12T09:52:40.000Z</time>
      </trkpt>
      <trkpt lat="47.45258" lon="6.70405">
        <ele>414.7</ele>
        <time>2014-10-12T09:52:42.000Z</time>
      </trkpt>
      <trkpt lat="47.45256" lon="6.70406">
        <ele>415</ele>
        <time>2014-10-12T09:52:43.000Z</time>
      </trkpt>
      <trkpt lat="47.45252" lon="6.7041">
        <ele>415.4</ele>
        <time>2014-10-12T09:52:45.000Z</time>
      </trkpt>
      <trkpt lat="47.45251" lon="6.70411">
        <ele>416</ele>
        <time>2014-10-12T09:52:46.000Z</time>
      </trkpt>
      <trkpt lat="47.45249" lon="6.70412">
        <ele>417.8</ele>
        <time>2014-10-12T09:52:47.000Z</time>
      </trkpt>
      <trkpt lat="47.45241" lon="6.7042">
        <ele>415.7</ele>
        <time>2014-10-12T09:52:55.000Z</time>
      </trkpt>
      <trkpt lat="47.45239" lon="6.70426">
        <ele>412.5</ele>
        <time>2014-10-12T09:52:58.000Z</time>
      </trkpt>
      <trkpt lat="47.45238" lon="6.70427">
        <ele>413.4</ele>
        <time>2014-10-12T09:52:59.000Z</time>
      </trkpt>
      <trkpt lat="47.45235" lon="6.70431">
        <ele>414.9</ele>
        <time>2014-10-12T09:53:01.000Z</time>
      </trkpt>
      <trkpt lat="47.45235" lon="6.70432">
        <ele>415.3</ele>
        <time>2014-10-12T09:53:02.000Z</time>
      </trkpt>
      <trkpt lat="47.45232" lon="6.70435">
        <ele>417.2</ele>
        <time>2014-10-12T09:53:45.998Z</time>
      </trkpt>
      <trkpt lat="47.45231" lon="6.70437">
        <ele>419.5</ele>
        <time>2014-10-12T09:53:47.000Z</time>
      </trkpt>
      <trkpt lat="47.45228" lon="6.70438">
        <ele>411.8</ele>
        <time>2014-10-12T09:53:50.000Z</time>
      </trkpt>
      <trkpt lat="47.45227" lon="6.7044">
        <ele>412.3</ele>
        <time>2014-10-12T09:53:51.000Z</time>
      </trkpt>
      <trkpt lat="47.45224" lon="6.70443">
        <ele>412.2</ele>
        <time>2014-10-12T09:53:53.000Z</time>
      </trkpt>
      <trkpt lat="47.45222" lon="6.70446">
        <ele>412.8</ele>
        <time>2014-10-12T09:53:54.000Z</time>
      </trkpt>
      <trkpt lat="47.4522" lon="6.70449">
        <ele>409.6</ele>
        <time>2014-10-12T09:53:56.000Z</time>
      </trkpt>
      <trkpt lat="47.45218" lon="6.70452">
        <ele>410.3</ele>
        <time>2014-10-12T09:53:57.000Z</time>
      </trkpt>
      <trkpt lat="47.45217" lon="6.70454">
        <ele>408.6</ele>
        <time>2014-10-12T09:53:58.000Z</time>
      </trkpt>
      <trkpt lat="47.45216" lon="6.70458">
        <ele>408.2</ele>
        <time>2014-10-12T09:53:59.000Z</time>
      </trkpt>
      <trkpt lat="47.45213" lon="6.70461">
        <ele>404</ele>
        <time>2014-10-12T09:54:01.000Z</time>
      </trkpt>
      <trkpt lat="47.45212" lon="6.70462">
        <ele>404.6</ele>
        <time>2014-10-12T09:54:02.000Z</time>
      </trkpt>
      <trkpt lat="47.45208" lon="6.70464">
        <ele>403.3</ele>
        <time>2014-10-12T09:54:04.000Z</time>
      </trkpt>
      <trkpt lat="47.45206" lon="6.70466">
        <ele>403.6</ele>
        <time>2014-10-12T09:54:05.000Z</time>
      </trkpt>
      <trkpt lat="47.45204" lon="6.70468">
        <ele>403.7</ele>
        <time>2014-10-12T09:54:06.000Z</time>
      </trkpt>
      <trkpt lat="47.45201" lon="6.70471">
        <ele>403.8</ele>
        <time>2014-10-12T09:54:07.000Z</time>
      </trkpt>
      <trkpt lat="47.45197" lon="6.70474">
        <ele>403.4</ele>
        <time>2014-10-12T09:54:08.000Z</time>
      </trkpt>
      <trkpt lat="47.45193" lon="6.70477">
        <ele>403</ele>
        <time>2014-10-12T09:54:09.000Z</time>
      </trkpt>
      <trkpt lat="47.45189" lon="6.70479">
        <ele>403.1</ele>
        <time>2014-10-12T09:54:10.000Z</time>
      </trkpt>
      <trkpt lat="47.45184" lon="6.70481">
        <ele>403.7</ele>
        <time>2014-10-12T09:54:11.000Z</time>
      </trkpt>
      <trkpt lat="47.45179" lon="6.70484">
        <ele>403.3</ele>
        <time>2014-10-12T09:54:12.000Z</time>
      </trkpt>
      <trkpt lat="47.45174" lon="6.70486">
        <ele>402.8</ele>
        <time>2014-10-12T09:54:13.000Z</time>
      </trkpt>
      <trkpt lat="47.45168" lon="6.70488">
        <ele>402.4</ele>
        <time>2014-10-12T09:54:14.000Z</time>
      </trkpt>
      <trkpt lat="47.45164" lon="6.70491">
        <ele>402.2</ele>
        <time>2014-10-12T09:54:15.000Z</time>
      </trkpt>
      <trkpt lat="47.4516" lon="6.70495">
        <ele>401.9</ele>
        <time>2014-10-12T09:54:16.000Z</time>
      </trkpt>
      <trkpt lat="47.45155" lon="6.705">
        <ele>401.8</ele>
        <time>2014-10-12T09:54:17.000Z</time>
      </trkpt>
      <trkpt lat="47.4515" lon="6.70504">
        <ele>402</ele>
        <time>2014-10-12T09:54:18.000Z</time>
      </trkpt>
      <trkpt lat="47.45146" lon="6.70509">
        <ele>401.9</ele>
        <time>2014-10-12T09:54:19.000Z</time>
      </trkpt>
      <trkpt lat="47.45141" lon="6.70514">
        <ele>401.6</ele>
        <time>2014-10-12T09:54:20.000Z</time>
      </trkpt>
      <trkpt lat="47.45136" lon="6.70517">
        <ele>400.1</ele>
        <time>2014-10-12T09:54:21.000Z</time>
      </trkpt>
      <trkpt lat="47.45131" lon="6.7052">
        <ele>402.1</ele>
        <time>2014-10-12T09:54:22.000Z</time>
      </trkpt>
      <trkpt lat="47.45126" lon="6.70522">
        <ele>402.1</ele>
        <time>2014-10-12T09:54:23.000Z</time>
      </trkpt>
      <trkpt lat="47.45121" lon="6.70525">
        <ele>401.4</ele>
        <time>2014-10-12T09:54:24.000Z</time>
      </trkpt>
      <trkpt lat="47.45116" lon="6.70528">
        <ele>402.3</ele>
        <time>2014-10-12T09:54:25.000Z</time>
      </trkpt>
      <trkpt lat="47.45113" lon="6.7053">
        <ele>400.3</ele>
        <time>2014-10-12T09:54:26.000Z</time>
      </trkpt>
      <trkpt lat="47.45109" lon="6.70534">
        <ele>399.8</ele>
        <time>2014-10-12T09:54:27.000Z</time>
      </trkpt>
      <trkpt lat="47.45101" lon="6.70548">
        <ele>396.7</ele>
        <time>2014-10-12T09:54:28.000Z</time>
      </trkpt>
      <trkpt lat="47.45095" lon="6.70554">
        <ele>397.2</ele>
        <time>2014-10-12T09:54:29.000Z</time>
      </trkpt>
      <trkpt lat="47.45092" lon="6.70559">
        <ele>397.7</ele>
        <time>2014-10-12T09:54:30.000Z</time>
      </trkpt>
      <trkpt lat="47.45095" lon="6.70573">
        <ele>399.6</ele>
        <time>2014-10-12T09:54:31.000Z</time>
      </trkpt>
      <trkpt lat="47.45093" lon="6.70582">
        <ele>399.6</ele>
        <time>2014-10-12T09:54:32.000Z</time>
      </trkpt>
      <trkpt lat="47.45087" lon="6.70587">
        <ele>401.1</ele>
        <time>2014-10-12T09:54:33.000Z</time>
      </trkpt>
      <trkpt lat="47.45082" lon="6.70592">
        <ele>402.4</ele>
        <time>2014-10-12T09:54:34.000Z</time>
      </trkpt>
      <trkpt lat="47.4508" lon="6.70593">
        <ele>400.9</ele>
        <time>2014-10-12T09:54:36.000Z</time>
      </trkpt>
      <trkpt lat="47.45078" lon="6.70597">
        <ele>401</ele>
        <time>2014-10-12T09:54:37.000Z</time>
      </trkpt>
      <trkpt lat="47.45077" lon="6.706">
        <ele>401.4</ele>
        <time>2014-10-12T09:54:38.000Z</time>
      </trkpt>
      <trkpt lat="47.45079" lon="6.70603">
        <ele>398.4</ele>
        <time>2014-10-12T09:54:39.000Z</time>
      </trkpt>
      <trkpt lat="47.45079" lon="6.70608">
        <ele>398</ele>
        <time>2014-10-12T09:54:41.000Z</time>
      </trkpt>
      <trkpt lat="47.4508" lon="6.70611">
        <ele>398.6</ele>
        <time>2014-10-12T09:54:42.000Z</time>
      </trkpt>
      <trkpt lat="47.45081" lon="6.70616">
        <ele>401.9</ele>
        <time>2014-10-12T09:54:58.000Z</time>
      </trkpt>
      <trkpt lat="47.4508" lon="6.70617">
        <ele>401.7</ele>
        <time>2014-10-12T09:54:59.000Z</time>
      </trkpt>
      <trkpt lat="47.45077" lon="6.70622">
        <ele>402.6</ele>
        <time>2014-10-12T09:55:06.000Z</time>
      </trkpt>
      <trkpt lat="47.45077" lon="6.70623">
        <ele>402.9</ele>
        <time>2014-10-12T09:55:07.000Z</time>
      </trkpt>
      <trkpt lat="47.45073" lon="6.70626">
        <ele>409</ele>
        <time>2014-10-12T09:56:09.000Z</time>
      </trkpt>
      <trkpt lat="47.45073" lon="6.70626">
        <ele>409</ele>
        <time>2014-10-12T09:56:10.000Z</time>
      </trkpt>
      <trkpt lat="47.45069" lon="6.70629">
        <ele>406.4</ele>
        <time>2014-10-12T09:56:46.000Z</time>
      </trkpt>
      <trkpt lat="47.45068" lon="6.70629">
        <ele>406.4</ele>
        <time>2014-10-12T09:56:47.000Z</time>
      </trkpt>
      <trkpt lat="47.45064" lon="6.70632">
        <ele>359</ele>
        <time>2014-10-12T09:56:58.000Z</time>
      </trkpt>
      <trkpt lat="47.45063" lon="6.70632">
        <ele>359.1</ele>
        <time>2014-10-12T09:56:59.000Z</time>
      </trkpt>
      <trkpt lat="47.4506" lon="6.70632">
        <ele>359.7</ele>
        <time>2014-10-12T09:57:05.000Z</time>
      </trkpt>
      <trkpt lat="47.45058" lon="6.70632">
        <ele>360.4</ele>
        <time>2014-10-12T09:57:06.000Z</time>
      </trkpt>
      <trkpt lat="47.45056" lon="6.70632">
        <ele>361</ele>
        <time>2014-10-12T09:57:07.000Z</time>
      </trkpt>
      <trkpt lat="47.45053" lon="6.70631">
        <ele>361.1</ele>
        <time>2014-10-12T09:57:08.000Z</time>
      </trkpt>
      <trkpt lat="47.45051" lon="6.7063">
        <ele>361.2</ele>
        <time>2014-10-12T09:57:09.000Z</time>
      </trkpt>
      <trkpt lat="47.45048" lon="6.70629">
        <ele>361.3</ele>
        <time>2014-10-12T09:57:10.000Z</time>
      </trkpt>
      <trkpt lat="47.45046" lon="6.70628">
        <ele>361.5</ele>
        <time>2014-10-12T09:57:11.000Z</time>
      </trkpt>
      <trkpt lat="47.45043" lon="6.70627">
        <ele>362.6</ele>
        <time>2014-10-12T09:57:12.000Z</time>
      </trkpt>
      <trkpt lat="47.45041" lon="6.70624">
        <ele>357.9</ele>
        <time>2014-10-12T09:57:13.000Z</time>
      </trkpt>
      <trkpt lat="47.45039" lon="6.70621">
        <ele>358.3</ele>
        <time>2014-10-12T09:57:14.000Z</time>
      </trkpt>
      <trkpt lat="47.45036" lon="6.70618">
        <ele>358.8</ele>
        <time>2014-10-12T09:57:15.000Z</time>
      </trkpt>
      <trkpt lat="47.45033" lon="6.70615">
        <ele>359.1</ele>
        <time>2014-10-12T09:57:16.000Z</time>
      </trkpt>
      <trkpt lat="47.45029" lon="6.70613">
        <ele>359.4</ele>
        <time>2014-10-12T09:57:17.000Z</time>
      </trkpt>
      <trkpt lat="47.45026" lon="6.70612">
        <ele>360.4</ele>
        <time>2014-10-12T09:57:18.000Z</time>
      </trkpt>
      <trkpt lat="47.45022" lon="6.7061">
        <ele>358</ele>
        <time>2014-10-12T09:57:19.000Z</time>
      </trkpt>
      <trkpt lat="47.4502" lon="6.7061">
        <ele>357.6</ele>
        <time>2014-10-12T09:57:20.000Z</time>
      </trkpt>
      <trkpt lat="47.45017" lon="6.70611">
        <ele>358.4</ele>
        <time>2014-10-12T09:57:21.000Z</time>
      </trkpt>
      <trkpt lat="47.45014" lon="6.70612">
        <ele>360.1</ele>
        <time>2014-10-12T09:57:22.000Z</time>
      </trkpt>
      <trkpt lat="47.45011" lon="6.70613">
        <ele>361.7</ele>
        <time>2014-10-12T09:57:23.000Z</time>
      </trkpt>
      <trkpt lat="47.45007" lon="6.70613">
        <ele>359.8</ele>
        <time>2014-10-12T09:57:24.000Z</time>
      </trkpt>
      <trkpt lat="47.45003" lon="6.70614">
        <ele>358.5</ele>
        <time>2014-10-12T09:57:25.000Z</time>
      </trkpt>
      <trkpt lat="47.44999" lon="6.70614">
        <ele>357.6</ele>
        <time>2014-10-12T09:57:26.000Z</time>
      </trkpt>
      <trkpt lat="47.44996" lon="6.70615">
        <ele>358.3</ele>
        <time>2014-10-12T09:57:27.000Z</time>
      </trkpt>
      <trkpt lat="47.44994" lon="6.70616">
        <ele>355.6</ele>
        <time>2014-10-12T09:57:28.000Z</time>
      </trkpt>
      <trkpt lat="47.44991" lon="6.70618">
        <ele>355.6</ele>
        <time>2014-10-12T09:57:30.000Z</time>
      </trkpt>
      <trkpt lat="47.44989" lon="6.7062">
        <ele>353.6</ele>
        <time>2014-10-12T09:57:31.000Z</time>
      </trkpt>
      <trkpt lat="47.44986" lon="6.70624">
        <ele>350.4</ele>
        <time>2014-10-12T09:57:34.000Z</time>
      </trkpt>
      <trkpt lat="47.44985" lon="6.70625">
        <ele>350.5</ele>
        <time>2014-10-12T09:57:35.000Z</time>
      </trkpt>
      <trkpt lat="47.44983" lon="6.70628">
        <ele>351.4</ele>
        <time>2014-10-12T09:57:37.000Z</time>
      </trkpt>
      <trkpt lat="47.44982" lon="6.7063">
        <ele>352.1</ele>
        <time>2014-10-12T09:57:38.000Z</time>
      </trkpt>
      <trkpt lat="47.44978" lon="6.70633">
        <ele>351</ele>
        <time>2014-10-12T09:57:41.000Z</time>
      </trkpt>
      <trkpt lat="47.44977" lon="6.70634">
        <ele>351.9</ele>
        <time>2014-10-12T09:57:42.000Z</time>
      </trkpt>
      <trkpt lat="47.44974" lon="6.70637">
        <ele>353.3</ele>
        <time>2014-10-12T09:57:45.000Z</time>
      </trkpt>
      <trkpt lat="47.44973" lon="6.70638">
        <ele>353.7</ele>
        <time>2014-10-12T09:57:46.000Z</time>
      </trkpt>
      <trkpt lat="47.44971" lon="6.70643">
        <ele>353.1</ele>
        <time>2014-10-12T09:57:55.000Z</time>
      </trkpt>
      <trkpt lat="47.4497" lon="6.70644">
        <ele>352.4</ele>
        <time>2014-10-12T09:57:56.000Z</time>
      </trkpt>
      <trkpt lat="47.44967" lon="6.70648">
        <ele>354.7</ele>
        <time>2014-10-12T09:57:58.000Z</time>
      </trkpt>
      <trkpt lat="47.44966" lon="6.70649">
        <ele>350.5</ele>
        <time>2014-10-12T09:57:59.000Z</time>
      </trkpt>
      <trkpt lat="47.44965" lon="6.70654">
        <ele>350.5</ele>
        <time>2014-10-12T09:58:01.000Z</time>
      </trkpt>
      <trkpt lat="47.44965" lon="6.70656">
        <ele>351.3</ele>
        <time>2014-10-12T09:58:02.000Z</time>
      </trkpt>
      <trkpt lat="47.44963" lon="6.70661">
        <ele>349.9</ele>
        <time>2014-10-12T09:58:05.000Z</time>
      </trkpt>
      <trkpt lat="47.44962" lon="6.70663">
        <ele>349.9</ele>
        <time>2014-10-12T09:58:06.000Z</time>
      </trkpt>
      <trkpt lat="47.4496" lon="6.70668">
        <ele>351.6</ele>
        <time>2014-10-12T09:58:10.000Z</time>
      </trkpt>
      <trkpt lat="47.44958" lon="6.70669">
        <ele>353.4</ele>
        <time>2014-10-12T09:58:11.000Z</time>
      </trkpt>
      <trkpt lat="47.44955" lon="6.70674">
        <ele>358.2</ele>
        <time>2014-10-12T09:58:16.000Z</time>
      </trkpt>
      <trkpt lat="47.44954" lon="6.70675">
        <ele>359.7</ele>
        <time>2014-10-12T09:58:17.000Z</time>
      </trkpt>
      <trkpt lat="47.44951" lon="6.70678">
        <ele>360.2</ele>
        <time>2014-10-12T09:58:20.000Z</time>
      </trkpt>
      <trkpt lat="47.44951" lon="6.7068">
        <ele>353.8</ele>
        <time>2014-10-12T09:58:21.000Z</time>
      </trkpt>
      <trkpt lat="47.4495" lon="6.70686">
        <ele>349.5</ele>
        <time>2014-10-12T09:58:25.000Z</time>
      </trkpt>
      <trkpt lat="47.4495" lon="6.70687">
        <ele>351.1</ele>
        <time>2014-10-12T09:58:26.000Z</time>
      </trkpt>
      <trkpt lat="47.44946" lon="6.70689">
        <ele>351</ele>
        <time>2014-10-12T09:58:29.000Z</time>
      </trkpt>
      <trkpt lat="47.44943" lon="6.70689">
        <ele>350.9</ele>
        <time>2014-10-12T09:58:30.000Z</time>
      </trkpt>
      <trkpt lat="47.44939" lon="6.7069">
        <ele>352.6</ele>
        <time>2014-10-12T09:58:32.000Z</time>
      </trkpt>
      <trkpt lat="47.44938" lon="6.70692">
        <ele>353.6</ele>
        <time>2014-10-12T09:58:33.000Z</time>
      </trkpt>
      <trkpt lat="47.44935" lon="6.70696">
        <ele>355.1</ele>
        <time>2014-10-12T09:58:36.000Z</time>
      </trkpt>
      <trkpt lat="47.44934" lon="6.70697">
        <ele>355.9</ele>
        <time>2014-10-12T09:58:37.000Z</time>
      </trkpt>
      <trkpt lat="47.44932" lon="6.70702">
        <ele>359.1</ele>
        <time>2014-10-12T09:58:39.000Z</time>
      </trkpt>
      <trkpt lat="47.44931" lon="6.70706">
        <ele>360.2</ele>
        <time>2014-10-12T09:58:40.000Z</time>
      </trkpt>
      <trkpt lat="47.4493" lon="6.70711">
        <ele>360.9</ele>
        <time>2014-10-12T09:58:42.000Z</time>
      </trkpt>
      <trkpt lat="47.44929" lon="6.70714">
        <ele>362.7</ele>
        <time>2014-10-12T09:58:43.000Z</time>
      </trkpt>
      <trkpt lat="47.44928" lon="6.70719">
        <ele>361.4</ele>
        <time>2014-10-12T09:58:45.000Z</time>
      </trkpt>
      <trkpt lat="47.44927" lon="6.70721">
        <ele>363.3</ele>
        <time>2014-10-12T09:58:46.000Z</time>
      </trkpt>
      <trkpt lat="47.44927" lon="6.70724">
        <ele>359</ele>
        <time>2014-10-12T09:58:47.000Z</time>
      </trkpt>
      <trkpt lat="47.44924" lon="6.70737">
        <ele>352.4</ele>
        <time>2014-10-12T09:58:53.000Z</time>
      </trkpt>
      <trkpt lat="47.44922" lon="6.70742">
        <ele>349.6</ele>
        <time>2014-10-12T09:58:56.000Z</time>
      </trkpt>
      <trkpt lat="47.44922" lon="6.70743">
        <ele>349.8</ele>
        <time>2014-10-12T09:58:57.000Z</time>
      </trkpt>
      <trkpt lat="47.44919" lon="6.70746">
        <ele>352.3</ele>
        <time>2014-10-12T09:58:59.000Z</time>
      </trkpt>
      <trkpt lat="47.44917" lon="6.70748">
        <ele>352.2</ele>
        <time>2014-10-12T09:59:00.000Z</time>
      </trkpt>
      <trkpt lat="47.44915" lon="6.7075">
        <ele>352.1</ele>
        <time>2014-10-12T09:59:01.000Z</time>
      </trkpt>
      <trkpt lat="47.44913" lon="6.70752">
        <ele>352.6</ele>
        <time>2014-10-12T09:59:02.000Z</time>
      </trkpt>
      <trkpt lat="47.44911" lon="6.70755">
        <ele>352.8</ele>
        <time>2014-10-12T09:59:03.000Z</time>
      </trkpt>
      <trkpt lat="47.44909" lon="6.70757">
        <ele>354.4</ele>
        <time>2014-10-12T09:59:04.000Z</time>
      </trkpt>
      <trkpt lat="47.44907" lon="6.7076">
        <ele>355.4</ele>
        <time>2014-10-12T09:59:05.000Z</time>
      </trkpt>
      <trkpt lat="47.44904" lon="6.70764">
        <ele>357.3</ele>
        <time>2014-10-12T09:59:06.000Z</time>
      </trkpt>
      <trkpt lat="47.44902" lon="6.70767">
        <ele>359.8</ele>
        <time>2014-10-12T09:59:07.000Z</time>
      </trkpt>
      <trkpt lat="47.449" lon="6.70769">
        <ele>361.2</ele>
        <time>2014-10-12T09:59:08.000Z</time>
      </trkpt>
      <trkpt lat="47.44898" lon="6.70772">
        <ele>361.7</ele>
        <time>2014-10-12T09:59:09.000Z</time>
      </trkpt>
      <trkpt lat="47.44896" lon="6.70774">
        <ele>363</ele>
        <time>2014-10-12T09:59:10.000Z</time>
      </trkpt>
      <trkpt lat="47.44893" lon="6.70777">
        <ele>364</ele>
        <time>2014-10-12T09:59:11.000Z</time>
      </trkpt>
      <trkpt lat="47.44891" lon="6.70779">
        <ele>365</ele>
        <time>2014-10-12T09:59:12.000Z</time>
      </trkpt>
      <trkpt lat="47.44889" lon="6.70782">
        <ele>365</ele>
        <time>2014-10-12T09:59:13.000Z</time>
      </trkpt>
      <trkpt lat="47.44887" lon="6.70784">
        <ele>365.1</ele>
        <time>2014-10-12T09:59:14.000Z</time>
      </trkpt>
      <trkpt lat="47.44885" lon="6.70786">
        <ele>369.2</ele>
        <time>2014-10-12T09:59:15.000Z</time>
      </trkpt>
      <trkpt lat="47.44883" lon="6.70789">
        <ele>371.4</ele>
        <time>2014-10-12T09:59:16.000Z</time>
      </trkpt>
      <trkpt lat="47.4488" lon="6.70792">
        <ele>369.7</ele>
        <time>2014-10-12T09:59:17.000Z</time>
      </trkpt>
      <trkpt lat="47.44878" lon="6.70794">
        <ele>370.8</ele>
        <time>2014-10-12T09:59:18.000Z</time>
      </trkpt>
      <trkpt lat="47.44876" lon="6.70796">
        <ele>371.4</ele>
        <time>2014-10-12T09:59:19.000Z</time>
      </trkpt>
      <trkpt lat="47.44874" lon="6.70798">
        <ele>372.5</ele>
        <time>2014-10-12T09:59:20.000Z</time>
      </trkpt>
      <trkpt lat="47.44871" lon="6.708">
        <ele>373.3</ele>
        <time>2014-10-12T09:59:21.000Z</time>
      </trkpt>
      <trkpt lat="47.44869" lon="6.70802">
        <ele>375.7</ele>
        <time>2014-10-12T09:59:22.000Z</time>
      </trkpt>
      <trkpt lat="47.44867" lon="6.70804">
        <ele>377.1</ele>
        <time>2014-10-12T09:59:23.000Z</time>
      </trkpt>
      <trkpt lat="47.44865" lon="6.70806">
        <ele>377.3</ele>
        <time>2014-10-12T09:59:24.000Z</time>
      </trkpt>
      <trkpt lat="47.44861" lon="6.70809">
        <ele>379.8</ele>
        <time>2014-10-12T09:59:26.000Z</time>
      </trkpt>
      <trkpt lat="47.4486" lon="6.70811">
        <ele>378.9</ele>
        <time>2014-10-12T09:59:27.000Z</time>
      </trkpt>
      <trkpt lat="47.44857" lon="6.70813">
        <ele>379.1</ele>
        <time>2014-10-12T09:59:29.000Z</time>
      </trkpt>
      <trkpt lat="47.44855" lon="6.70814">
        <ele>378.3</ele>
        <time>2014-10-12T09:59:30.000Z</time>
      </trkpt>
      <trkpt lat="47.4485" lon="6.70814">
        <ele>376</ele>
        <time>2014-10-12T09:59:32.000Z</time>
      </trkpt>
      <trkpt lat="47.44848" lon="6.70815">
        <ele>377.5</ele>
        <time>2014-10-12T09:59:33.000Z</time>
      </trkpt>
      <trkpt lat="47.44846" lon="6.70817">
        <ele>379.3</ele>
        <time>2014-10-12T09:59:35.000Z</time>
      </trkpt>
      <trkpt lat="47.44844" lon="6.70819">
        <ele>378.4</ele>
        <time>2014-10-12T09:59:36.000Z</time>
      </trkpt>
      <trkpt lat="47.44842" lon="6.70823">
        <ele>375.2</ele>
        <time>2014-10-12T09:59:38.000Z</time>
      </trkpt>
      <trkpt lat="47.4484" lon="6.70824">
        <ele>375.8</ele>
        <time>2014-10-12T09:59:39.000Z</time>
      </trkpt>
      <trkpt lat="47.44838" lon="6.70829">
        <ele>379</ele>
        <time>2014-10-12T09:59:42.000Z</time>
      </trkpt>
      <trkpt lat="47.44837" lon="6.70831">
        <ele>379.8</ele>
        <time>2014-10-12T09:59:43.000Z</time>
      </trkpt>
      <trkpt lat="47.44836" lon="6.70836">
        <ele>379.5</ele>
        <time>2014-10-12T09:59:46.000Z</time>
      </trkpt>
      <trkpt lat="47.44836" lon="6.70838">
        <ele>378.8</ele>
        <time>2014-10-12T09:59:47.000Z</time>
      </trkpt>
      <trkpt lat="47.44836" lon="6.70843">
        <ele>378</ele>
        <time>2014-10-12T09:59:50.000Z</time>
      </trkpt>
      <trkpt lat="47.44835" lon="6.70845">
        <ele>379.1</ele>
        <time>2014-10-12T09:59:51.000Z</time>
      </trkpt>
      <trkpt lat="47.44832" lon="6.7085">
        <ele>377.6</ele>
        <time>2014-10-12T09:59:53.000Z</time>
      </trkpt>
      <trkpt lat="47.44831" lon="6.70852">
        <ele>377.5</ele>
        <time>2014-10-12T09:59:54.000Z</time>
      </trkpt>
      <trkpt lat="47.44828" lon="6.70857">
        <ele>375.5</ele>
        <time>2014-10-12T09:59:56.000Z</time>
      </trkpt>
      <trkpt lat="47.44826" lon="6.70859">
        <ele>375</ele>
        <time>2014-10-12T09:59:57.000Z</time>
      </trkpt>
      <trkpt lat="47.44822" lon="6.70862">
        <ele>373.2</ele>
        <time>2014-10-12T09:59:59.000Z</time>
      </trkpt>
      <trkpt lat="47.44821" lon="6.70864">
        <ele>373.1</ele>
        <time>2014-10-12T10:00:00.000Z</time>
      </trkpt>
      <trkpt lat="47.44819" lon="6.70867">
        <ele>373.6</ele>
        <time>2014-10-12T10:00:01.000Z</time>
      </trkpt>
      <trkpt lat="47.44818" lon="6.7087">
        <ele>374.8</ele>
        <time>2014-10-12T10:00:02.000Z</time>
      </trkpt>
      <trkpt lat="47.44816" lon="6.70875">
        <ele>377.4</ele>
        <time>2014-10-12T10:00:04.000Z</time>
      </trkpt>
      <trkpt lat="47.44815" lon="6.70877">
        <ele>376.9</ele>
        <time>2014-10-12T10:00:05.000Z</time>
      </trkpt>
      <trkpt lat="47.44812" lon="6.70881">
        <ele>375.2</ele>
        <time>2014-10-12T10:00:07.000Z</time>
      </trkpt>
      <trkpt lat="47.44811" lon="6.70883">
        <ele>372.4</ele>
        <time>2014-10-12T10:00:08.000Z</time>
      </trkpt>
      <trkpt lat="47.44811" lon="6.70885">
        <ele>373.1</ele>
        <time>2014-10-12T10:00:09.000Z</time>
      </trkpt>
      <trkpt lat="47.44808" lon="6.70889">
        <ele>373.9</ele>
        <time>2014-10-12T10:00:10.000Z</time>
      </trkpt>
      <trkpt lat="47.44805" lon="6.70893">
        <ele>375.2</ele>
        <time>2014-10-12T10:00:13.000Z</time>
      </trkpt>
      <trkpt lat="47.44804" lon="6.70894">
        <ele>376</ele>
        <time>2014-10-12T10:00:14.000Z</time>
      </trkpt>
      <trkpt lat="47.44801" lon="6.70898">
        <ele>382.1</ele>
        <time>2014-10-12T10:00:53.000Z</time>
      </trkpt>
      <trkpt lat="47.44801" lon="6.70899">
        <ele>382</ele>
        <time>2014-10-12T10:00:54.000Z</time>
      </trkpt>
      <trkpt lat="47.44798" lon="6.70904">
        <ele>385.7</ele>
        <time>2014-10-12T10:00:56.000Z</time>
      </trkpt>
      <trkpt lat="47.44797" lon="6.70906">
        <ele>387.2</ele>
        <time>2014-10-12T10:00:57.000Z</time>
      </trkpt>
      <trkpt lat="47.44795" lon="6.70901">
        <ele>409.5</ele>
        <time>2014-10-12T10:01:15.000Z</time>
      </trkpt>
      <trkpt lat="47.44795" lon="6.709">
        <ele>411.2</ele>
        <time>2014-10-12T10:01:16.000Z</time>
      </trkpt>
      <trkpt lat="47.44797" lon="6.70895">
        <ele>413.3</ele>
        <time>2014-10-12T10:01:19.000Z</time>
      </trkpt>
      <trkpt lat="47.44797" lon="6.70893">
        <ele>409.3</ele>
        <time>2014-10-12T10:01:20.000Z</time>
      </trkpt>
      <trkpt lat="47.44798" lon="6.70889">
        <ele>404.2</ele>
        <time>2014-10-12T10:01:23.939Z</time>
      </trkpt>
      <trkpt lat="47.448" lon="6.70887">
        <ele>404</ele>
        <time>2014-10-12T10:01:24.928Z</time>
      </trkpt>
      <trkpt lat="47.44802" lon="6.70881">
        <ele>399.6</ele>
        <time>2014-10-12T10:01:27.000Z</time>
      </trkpt>
      <trkpt lat="47.44803" lon="6.70879">
        <ele>398.3</ele>
        <time>2014-10-12T10:01:28.000Z</time>
      </trkpt>
      <trkpt lat="47.44806" lon="6.70875">
        <ele>397.2</ele>
        <time>2014-10-12T10:01:29.998Z</time>
      </trkpt>
      <trkpt lat="47.44807" lon="6.70873">
        <ele>397.8</ele>
        <time>2014-10-12T10:01:30.936Z</time>
      </trkpt>
      <trkpt lat="47.44808" lon="6.70871">
        <ele>398.1</ele>
        <time>2014-10-12T10:01:31.938Z</time>
      </trkpt>
      <trkpt lat="47.44811" lon="6.70868">
        <ele>398.5</ele>
        <time>2014-10-12T10:01:33.000Z</time>
      </trkpt>
      <trkpt lat="47.44813" lon="6.70865">
        <ele>398.2</ele>
        <time>2014-10-12T10:01:34.000Z</time>
      </trkpt>
      <trkpt lat="47.44815" lon="6.70861">
        <ele>398.5</ele>
        <time>2014-10-12T10:01:35.000Z</time>
      </trkpt>
      <trkpt lat="47.44817" lon="6.70858">
        <ele>398.5</ele>
        <time>2014-10-12T10:01:36.000Z</time>
      </trkpt>
      <trkpt lat="47.44818" lon="6.70855">
        <ele>397.9</ele>
        <time>2014-10-12T10:01:37.042Z</time>
      </trkpt>
      <trkpt lat="47.44821" lon="6.70849">
        <ele>400</ele>
        <time>2014-10-12T10:01:38.000Z</time>
      </trkpt>
      <trkpt lat="47.44823" lon="6.70845">
        <ele>400.9</ele>
        <time>2014-10-12T10:01:39.000Z</time>
      </trkpt>
      <trkpt lat="47.44826" lon="6.70841">
        <ele>402.2</ele>
        <time>2014-10-12T10:01:40.000Z</time>
      </trkpt>
      <trkpt lat="47.44829" lon="6.70838">
        <ele>403.6</ele>
        <time>2014-10-12T10:01:41.000Z</time>
      </trkpt>
      <trkpt lat="47.44833" lon="6.70834">
        <ele>404</ele>
        <time>2014-10-12T10:01:42.000Z</time>
      </trkpt>
      <trkpt lat="47.44835" lon="6.70832">
        <ele>404.2</ele>
        <time>2014-10-12T10:01:42.998Z</time>
      </trkpt>
      <trkpt lat="47.44838" lon="6.70829">
        <ele>404.4</ele>
        <time>2014-10-12T10:01:43.930Z</time>
      </trkpt>
      <trkpt lat="47.44843" lon="6.70825">
        <ele>405.5</ele>
        <time>2014-10-12T10:01:45.000Z</time>
      </trkpt>
      <trkpt lat="47.44845" lon="6.70822">
        <ele>405.5</ele>
        <time>2014-10-12T10:01:45.998Z</time>
      </trkpt>
      <trkpt lat="47.44847" lon="6.70818">
        <ele>404.1</ele>
        <time>2014-10-12T10:01:47.000Z</time>
      </trkpt>
      <trkpt lat="47.4485" lon="6.7081">
        <ele>402.7</ele>
        <time>2014-10-12T10:01:50.000Z</time>
      </trkpt>
      <trkpt lat="47.44851" lon="6.70807">
        <ele>402.8</ele>
        <time>2014-10-12T10:01:51.000Z</time>
      </trkpt>
      <trkpt lat="47.44853" lon="6.70804">
        <ele>402.4</ele>
        <time>2014-10-12T10:01:52.000Z</time>
      </trkpt>
      <trkpt lat="47.44853" lon="6.70802">
        <ele>402.3</ele>
        <time>2014-10-12T10:01:53.048Z</time>
      </trkpt>
      <trkpt lat="47.44856" lon="6.70798">
        <ele>401.3</ele>
        <time>2014-10-12T10:01:54.000Z</time>
      </trkpt>
      <trkpt lat="47.44859" lon="6.70795">
        <ele>401.1</ele>
        <time>2014-10-12T10:01:55.000Z</time>
      </trkpt>
      <trkpt lat="47.44861" lon="6.70792">
        <ele>401.3</ele>
        <time>2014-10-12T10:01:56.000Z</time>
      </trkpt>
      <trkpt lat="47.44864" lon="6.7079">
        <ele>401.5</ele>
        <time>2014-10-12T10:01:57.000Z</time>
      </trkpt>
      <trkpt lat="47.44867" lon="6.70787">
        <ele>401</ele>
        <time>2014-10-12T10:01:58.000Z</time>
      </trkpt>
      <trkpt lat="47.44868" lon="6.70785">
        <ele>400.8</ele>
        <time>2014-10-12T10:01:58.998Z</time>
      </trkpt>
      <trkpt lat="47.44871" lon="6.70782">
        <ele>400.3</ele>
        <time>2014-10-12T10:02:00.000Z</time>
      </trkpt>
      <trkpt lat="47.44873" lon="6.7078">
        <ele>398.1</ele>
        <time>2014-10-12T10:02:01.000Z</time>
      </trkpt>
      <trkpt lat="47.44876" lon="6.70779">
        <ele>396.6</ele>
        <time>2014-10-12T10:02:02.000Z</time>
      </trkpt>
      <trkpt lat="47.44877" lon="6.70778">
        <ele>395.2</ele>
        <time>2014-10-12T10:02:02.999Z</time>
      </trkpt>
      <trkpt lat="47.4488" lon="6.70775">
        <ele>397.5</ele>
        <time>2014-10-12T10:02:03.986Z</time>
      </trkpt>
      <trkpt lat="47.44883" lon="6.70771">
        <ele>397.4</ele>
        <time>2014-10-12T10:02:05.000Z</time>
      </trkpt>
      <trkpt lat="47.44886" lon="6.70767">
        <ele>398.1</ele>
        <time>2014-10-12T10:02:06.000Z</time>
      </trkpt>
      <trkpt lat="47.44889" lon="6.70762">
        <ele>399</ele>
        <time>2014-10-12T10:02:07.000Z</time>
      </trkpt>
      <trkpt lat="47.44891" lon="6.70758">
        <ele>396.5</ele>
        <time>2014-10-12T10:02:08.000Z</time>
      </trkpt>
      <trkpt lat="47.44892" lon="6.70754">
        <ele>392.1</ele>
        <time>2014-10-12T10:02:09.000Z</time>
      </trkpt>
      <trkpt lat="47.44892" lon="6.70748">
        <ele>391.6</ele>
        <time>2014-10-12T10:02:10.937Z</time>
      </trkpt>
      <trkpt lat="47.44892" lon="6.70745">
        <ele>391</ele>
        <time>2014-10-12T10:02:11.986Z</time>
      </trkpt>
      <trkpt lat="47.44894" lon="6.70741">
        <ele>391.4</ele>
        <time>2014-10-12T10:02:13.000Z</time>
      </trkpt>
      <trkpt lat="47.44895" lon="6.70738">
        <ele>391.4</ele>
        <time>2014-10-12T10:02:14.000Z</time>
      </trkpt>
      <trkpt lat="47.44896" lon="6.70734">
        <ele>387.9</ele>
        <time>2014-10-12T10:02:15.000Z</time>
      </trkpt>
      <trkpt lat="47.44897" lon="6.7073">
        <ele>386.2</ele>
        <time>2014-10-12T10:02:16.000Z</time>
      </trkpt>
      <trkpt lat="47.44897" lon="6.70727">
        <ele>384.8</ele>
        <time>2014-10-12T10:02:16.998Z</time>
      </trkpt>
      <trkpt lat="47.44897" lon="6.70721">
        <ele>386.5</ele>
        <time>2014-10-12T10:02:18.000Z</time>
      </trkpt>
      <trkpt lat="47.44898" lon="6.70715">
        <ele>383.5</ele>
        <time>2014-10-12T10:02:20.000Z</time>
      </trkpt>
      <trkpt lat="47.449" lon="6.70714">
        <ele>380.6</ele>
        <time>2014-10-12T10:02:21.000Z</time>
      </trkpt>
      <trkpt lat="47.44903" lon="6.70711">
        <ele>373.7</ele>
        <time>2014-10-12T10:02:26.000Z</time>
      </trkpt>
      <trkpt lat="47.44904" lon="6.70709">
        <ele>372.4</ele>
        <time>2014-10-12T10:02:27.000Z</time>
      </trkpt>
      <trkpt lat="47.44907" lon="6.70707">
        <ele>372.3</ele>
        <time>2014-10-12T10:02:30.047Z</time>
      </trkpt>
      <trkpt lat="47.44907" lon="6.70705">
        <ele>374.3</ele>
        <time>2014-10-12T10:02:31.000Z</time>
      </trkpt>
      <trkpt lat="47.44909" lon="6.707">
        <ele>375.1</ele>
        <time>2014-10-12T10:02:34.000Z</time>
      </trkpt>
      <trkpt lat="47.44909" lon="6.70698">
        <ele>374.9</ele>
        <time>2014-10-12T10:02:35.000Z</time>
      </trkpt>
      <trkpt lat="47.44912" lon="6.70694">
        <ele>371.2</ele>
        <time>2014-10-12T10:02:37.000Z</time>
      </trkpt>
      <trkpt lat="47.44913" lon="6.70693">
        <ele>371.1</ele>
        <time>2014-10-12T10:02:38.000Z</time>
      </trkpt>
      <trkpt lat="47.44916" lon="6.7069">
        <ele>372.1</ele>
        <time>2014-10-12T10:02:40.000Z</time>
      </trkpt>
      <trkpt lat="47.44917" lon="6.70689">
        <ele>372.5</ele>
        <time>2014-10-12T10:02:41.000Z</time>
      </trkpt>
      <trkpt lat="47.4492" lon="6.70686">
        <ele>374.7</ele>
        <time>2014-10-12T10:02:43.000Z</time>
      </trkpt>
      <trkpt lat="47.44922" lon="6.70685">
        <ele>375.4</ele>
        <time>2014-10-12T10:02:44.000Z</time>
      </trkpt>
      <trkpt lat="47.44924" lon="6.7068">
        <ele>376.6</ele>
        <time>2014-10-12T10:02:46.000Z</time>
      </trkpt>
      <trkpt lat="47.44925" lon="6.70678">
        <ele>376.8</ele>
        <time>2014-10-12T10:02:47.000Z</time>
      </trkpt>
      <trkpt lat="47.44927" lon="6.70668">
        <ele>371.7</ele>
        <time>2014-10-12T10:02:51.000Z</time>
      </trkpt>
      <trkpt lat="47.44928" lon="6.70663">
        <ele>371.2</ele>
        <time>2014-10-12T10:02:52.000Z</time>
      </trkpt>
      <trkpt lat="47.44929" lon="6.70658">
        <ele>371.7</ele>
        <time>2014-10-12T10:02:53.000Z</time>
      </trkpt>
      <trkpt lat="47.4493" lon="6.70654">
        <ele>371.1</ele>
        <time>2014-10-12T10:02:54.000Z</time>
      </trkpt>
      <trkpt lat="47.44932" lon="6.70651">
        <ele>370</ele>
        <time>2014-10-12T10:02:55.000Z</time>
      </trkpt>
      <trkpt lat="47.44934" lon="6.70648">
        <ele>367.4</ele>
        <time>2014-10-12T10:02:56.000Z</time>
      </trkpt>
      <trkpt lat="47.44936" lon="6.70646">
        <ele>369.1</ele>
        <time>2014-10-12T10:02:57.000Z</time>
      </trkpt>
      <trkpt lat="47.44939" lon="6.70643">
        <ele>367.5</ele>
        <time>2014-10-12T10:02:59.000Z</time>
      </trkpt>
      <trkpt lat="47.44941" lon="6.70642">
        <ele>366.3</ele>
        <time>2014-10-12T10:03:00.000Z</time>
      </trkpt>
      <trkpt lat="47.44944" lon="6.70639">
        <ele>366.8</ele>
        <time>2014-10-12T10:03:02.998Z</time>
      </trkpt>
      <trkpt lat="47.44946" lon="6.70638">
        <ele>364.1</ele>
        <time>2014-10-12T10:03:03.996Z</time>
      </trkpt>
      <trkpt lat="47.44949" lon="6.70634">
        <ele>375.8</ele>
        <time>2014-10-12T10:03:06.000Z</time>
      </trkpt>
      <trkpt lat="47.4495" lon="6.70633">
        <ele>377</ele>
        <time>2014-10-12T10:03:07.000Z</time>
      </trkpt>
      <trkpt lat="47.44953" lon="6.70632">
        <ele>375.3</ele>
        <time>2014-10-12T10:03:10.046Z</time>
      </trkpt>
      <trkpt lat="47.44955" lon="6.70631">
        <ele>378.1</ele>
        <time>2014-10-12T10:03:11.000Z</time>
      </trkpt>
      <trkpt lat="47.44958" lon="6.7063">
        <ele>378.4</ele>
        <time>2014-10-12T10:03:13.000Z</time>
      </trkpt>
      <trkpt lat="47.44959" lon="6.7063">
        <ele>379.5</ele>
        <time>2014-10-12T10:03:14.000Z</time>
      </trkpt>
      <trkpt lat="47.44963" lon="6.7063">
        <ele>378.2</ele>
        <time>2014-10-12T10:03:15.998Z</time>
      </trkpt>
      <trkpt lat="47.44967" lon="6.7063">
        <ele>379.9</ele>
        <time>2014-10-12T10:03:17.000Z</time>
      </trkpt>
      <trkpt lat="47.44972" lon="6.70632">
        <ele>375.2</ele>
        <time>2014-10-12T10:03:19.000Z</time>
      </trkpt>
      <trkpt lat="47.44973" lon="6.70633">
        <ele>374.4</ele>
        <time>2014-10-12T10:03:20.000Z</time>
      </trkpt>
      <trkpt lat="47.44976" lon="6.70636">
        <ele>371</ele>
        <time>2014-10-12T10:03:23.995Z</time>
      </trkpt>
      <trkpt lat="47.44978" lon="6.70638">
        <ele>372.9</ele>
        <time>2014-10-12T10:03:25.000Z</time>
      </trkpt>
      <trkpt lat="47.44982" lon="6.70639">
        <ele>371.7</ele>
        <time>2014-10-12T10:03:27.000Z</time>
      </trkpt>
      <trkpt lat="47.44985" lon="6.7064">
        <ele>372.2</ele>
        <time>2014-10-12T10:03:28.000Z</time>
      </trkpt>
      <trkpt lat="47.44988" lon="6.70641">
        <ele>369.8</ele>
        <time>2014-10-12T10:03:30.047Z</time>
      </trkpt>
      <trkpt lat="47.44992" lon="6.7064">
        <ele>372.8</ele>
        <time>2014-10-12T10:03:31.000Z</time>
      </trkpt>
      <trkpt lat="47.44993" lon="6.70636">
        <ele>379.8</ele>
        <time>2014-10-12T10:03:33.000Z</time>
      </trkpt>
      <trkpt lat="47.44994" lon="6.70634">
        <ele>380.7</ele>
        <time>2014-10-12T10:03:34.000Z</time>
      </trkpt>
      <trkpt lat="47.44997" lon="6.70632">
        <ele>384.7</ele>
        <time>2014-10-12T10:03:36.943Z</time>
      </trkpt>
      <trkpt lat="47.45" lon="6.70633">
        <ele>383.1</ele>
        <time>2014-10-12T10:03:37.992Z</time>
      </trkpt>
      <trkpt lat="47.45004" lon="6.70636">
        <ele>383.2</ele>
        <time>2014-10-12T10:03:39.000Z</time>
      </trkpt>
      <trkpt lat="47.45008" lon="6.70639">
        <ele>380.7</ele>
        <time>2014-10-12T10:03:41.000Z</time>
      </trkpt>
      <trkpt lat="47.45009" lon="6.70641">
        <ele>381.9</ele>
        <time>2014-10-12T10:03:42.000Z</time>
      </trkpt>
      <trkpt lat="47.45011" lon="6.70643">
        <ele>379.2</ele>
        <time>2014-10-12T10:03:43.933Z</time>
      </trkpt>
      <trkpt lat="47.45016" lon="6.70643">
        <ele>380.1</ele>
        <time>2014-10-12T10:03:44.936Z</time>
      </trkpt>
      <trkpt lat="47.45021" lon="6.70643">
        <ele>380.3</ele>
        <time>2014-10-12T10:03:46.000Z</time>
      </trkpt>
      <trkpt lat="47.45022" lon="6.70642">
        <ele>380.2</ele>
        <time>2014-10-12T10:03:47.000Z</time>
      </trkpt>
      <trkpt lat="47.45025" lon="6.70638">
        <ele>378.3</ele>
        <time>2014-10-12T10:03:50.000Z</time>
      </trkpt>
      <trkpt lat="47.45029" lon="6.70634">
        <ele>379.2</ele>
        <time>2014-10-12T10:03:52.000Z</time>
      </trkpt>
      <trkpt lat="47.45029" lon="6.70633">
        <ele>379.2</ele>
        <time>2014-10-12T10:03:52.998Z</time>
      </trkpt>
      <trkpt lat="47.45034" lon="6.70632">
        <ele>380</ele>
        <time>2014-10-12T10:03:54.000Z</time>
      </trkpt>
      <trkpt lat="47.45037" lon="6.7063">
        <ele>379.7</ele>
        <time>2014-10-12T10:03:55.000Z</time>
      </trkpt>
      <trkpt lat="47.45038" lon="6.70629">
        <ele>380.5</ele>
        <time>2014-10-12T10:03:55.998Z</time>
      </trkpt>
      <trkpt lat="47.45041" lon="6.70628">
        <ele>377.2</ele>
        <time>2014-10-12T10:03:57.000Z</time>
      </trkpt>
      <trkpt lat="47.45045" lon="6.70628">
        <ele>374.8</ele>
        <time>2014-10-12T10:03:59.000Z</time>
      </trkpt>
      <trkpt lat="47.45047" lon="6.70628">
        <ele>374.5</ele>
        <time>2014-10-12T10:04:00.000Z</time>
      </trkpt>
      <trkpt lat="47.4505" lon="6.70626">
        <ele>369.1</ele>
        <time>2014-10-12T10:04:03.000Z</time>
      </trkpt>
      <trkpt lat="47.45052" lon="6.70626">
        <ele>369.8</ele>
        <time>2014-10-12T10:04:04.000Z</time>
      </trkpt>
      <trkpt lat="47.45056" lon="6.70625">
        <ele>370.7</ele>
        <time>2014-10-12T10:04:06.000Z</time>
      </trkpt>
      <trkpt lat="47.45058" lon="6.70625">
        <ele>370.6</ele>
        <time>2014-10-12T10:04:07.000Z</time>
      </trkpt>
      <trkpt lat="47.45062" lon="6.70623">
        <ele>371.9</ele>
        <time>2014-10-12T10:04:09.000Z</time>
      </trkpt>
      <trkpt lat="47.45064" lon="6.70623">
        <ele>372</ele>
        <time>2014-10-12T10:04:10.000Z</time>
      </trkpt>
      <trkpt lat="47.45068" lon="6.70621">
        <ele>368.7</ele>
        <time>2014-10-12T10:04:14.000Z</time>
      </trkpt>
      <trkpt lat="47.45071" lon="6.7062">
        <ele>370.7</ele>
        <time>2014-10-12T10:04:15.000Z</time>
      </trkpt>
      <trkpt lat="47.45073" lon="6.70619">
        <ele>372</ele>
        <time>2014-10-12T10:04:16.000Z</time>
      </trkpt>
      <trkpt lat="47.45075" lon="6.70619">
        <ele>372.9</ele>
        <time>2014-10-12T10:04:16.989Z</time>
      </trkpt>
      <trkpt lat="47.45079" lon="6.70617">
        <ele>372.5</ele>
        <time>2014-10-12T10:04:18.000Z</time>
      </trkpt>
      <trkpt lat="47.45082" lon="6.70615">
        <ele>374.3</ele>
        <time>2014-10-12T10:04:19.000Z</time>
      </trkpt>
      <trkpt lat="47.45084" lon="6.70614">
        <ele>376</ele>
        <time>2014-10-12T10:04:20.000Z</time>
      </trkpt>
      <trkpt lat="47.45087" lon="6.70612">
        <ele>377.2</ele>
        <time>2014-10-12T10:04:21.000Z</time>
      </trkpt>
      <trkpt lat="47.4509" lon="6.7061">
        <ele>379.7</ele>
        <time>2014-10-12T10:04:23.000Z</time>
      </trkpt>
      <trkpt lat="47.45092" lon="6.70609">
        <ele>381.3</ele>
        <time>2014-10-12T10:04:24.000Z</time>
      </trkpt>
      <trkpt lat="47.45094" lon="6.70606">
        <ele>381.1</ele>
        <time>2014-10-12T10:04:25.998Z</time>
      </trkpt>
      <trkpt lat="47.45097" lon="6.70603">
        <ele>382.7</ele>
        <time>2014-10-12T10:04:27.000Z</time>
      </trkpt>
      <trkpt lat="47.45101" lon="6.70601">
        <ele>384.1</ele>
        <time>2014-10-12T10:04:31.000Z</time>
      </trkpt>
      <trkpt lat="47.45103" lon="6.70602">
        <ele>384.4</ele>
        <time>2014-10-12T10:04:32.000Z</time>
      </trkpt>
      <trkpt lat="47.45105" lon="6.70602">
        <ele>383.4</ele>
        <time>2014-10-12T10:04:33.000Z</time>
      </trkpt>
      <trkpt lat="47.45107" lon="6.70603">
        <ele>383.1</ele>
        <time>2014-10-12T10:04:34.000Z</time>
      </trkpt>
      <trkpt lat="47.45111" lon="6.70602">
        <ele>386.4</ele>
        <time>2014-10-12T10:04:36.000Z</time>
      </trkpt>
      <trkpt lat="47.45112" lon="6.70602">
        <ele>386</ele>
        <time>2014-10-12T10:04:37.000Z</time>
      </trkpt>
      <trkpt lat="47.45114" lon="6.70603">
        <ele>386</ele>
        <time>2014-10-12T10:04:38.938Z</time>
      </trkpt>
      <trkpt lat="47.45129" lon="6.70598">
        <ele>378.4</ele>
        <time>2014-10-12T10:04:40.000Z</time>
      </trkpt>
      <trkpt lat="47.45132" lon="6.70599">
        <ele>377</ele>
        <time>2014-10-12T10:04:41.000Z</time>
      </trkpt>
      <trkpt lat="47.45136" lon="6.70601">
        <ele>377</ele>
        <time>2014-10-12T10:04:42.000Z</time>
      </trkpt>
      <trkpt lat="47.45139" lon="6.70602">
        <ele>376.1</ele>
        <time>2014-10-12T10:04:42.998Z</time>
      </trkpt>
      <trkpt lat="47.45144" lon="6.70603">
        <ele>373.5</ele>
        <time>2014-10-12T10:04:43.939Z</time>
      </trkpt>
      <trkpt lat="47.45149" lon="6.70605">
        <ele>372.6</ele>
        <time>2014-10-12T10:04:44.936Z</time>
      </trkpt>
      <trkpt lat="47.45153" lon="6.70606">
        <ele>373</ele>
        <time>2014-10-12T10:04:45.938Z</time>
      </trkpt>
      <trkpt lat="47.45159" lon="6.70608">
        <ele>373.7</ele>
        <time>2014-10-12T10:04:47.000Z</time>
      </trkpt>
      <trkpt lat="47.45186" lon="6.70616">
        <ele>379.2</ele>
        <time>2014-10-12T10:04:51.000Z</time>
      </trkpt>
      <trkpt lat="47.45192" lon="6.70621">
        <ele>379.1</ele>
        <time>2014-10-12T10:04:52.000Z</time>
      </trkpt>
      <trkpt lat="47.45197" lon="6.70623">
        <ele>378.5</ele>
        <time>2014-10-12T10:04:53.000Z</time>
      </trkpt>
      <trkpt lat="47.45203" lon="6.70626">
        <ele>380.3</ele>
        <time>2014-10-12T10:04:54.000Z</time>
      </trkpt>
      <trkpt lat="47.45206" lon="6.70628">
        <ele>380.1</ele>
        <time>2014-10-12T10:04:55.000Z</time>
      </trkpt>
      <trkpt lat="47.4521" lon="6.70633">
        <ele>381.1</ele>
        <time>2014-10-12T10:04:56.000Z</time>
      </trkpt>
      <trkpt lat="47.45214" lon="6.70637">
        <ele>379.5</ele>
        <time>2014-10-12T10:04:57.000Z</time>
      </trkpt>
      <trkpt lat="47.45218" lon="6.70642">
        <ele>377.3</ele>
        <time>2014-10-12T10:04:58.000Z</time>
      </trkpt>
      <trkpt lat="47.45221" lon="6.70645">
        <ele>376.1</ele>
        <time>2014-10-12T10:04:59.000Z</time>
      </trkpt>
      <trkpt lat="47.45225" lon="6.7065">
        <ele>379.8</ele>
        <time>2014-10-12T10:05:00.000Z</time>
      </trkpt>
      <trkpt lat="47.45228" lon="6.70654">
        <ele>380</ele>
        <time>2014-10-12T10:05:01.000Z</time>
      </trkpt>
      <trkpt lat="47.45231" lon="6.70657">
        <ele>376.3</ele>
        <time>2014-10-12T10:05:02.000Z</time>
      </trkpt>
      <trkpt lat="47.45233" lon="6.70659">
        <ele>373.2</ele>
        <time>2014-10-12T10:05:03.000Z</time>
      </trkpt>
      <trkpt lat="47.45236" lon="6.7066">
        <ele>371.5</ele>
        <time>2014-10-12T10:05:04.000Z</time>
      </trkpt>
      <trkpt lat="47.45239" lon="6.70661">
        <ele>370.8</ele>
        <time>2014-10-12T10:05:05.000Z</time>
      </trkpt>
      <trkpt lat="47.45242" lon="6.70663">
        <ele>369.9</ele>
        <time>2014-10-12T10:05:06.000Z</time>
      </trkpt>
      <trkpt lat="47.45245" lon="6.70666">
        <ele>369.7</ele>
        <time>2014-10-12T10:05:07.000Z</time>
      </trkpt>
      <trkpt lat="47.45249" lon="6.70669">
        <ele>369.5</ele>
        <time>2014-10-12T10:05:08.000Z</time>
      </trkpt>
      <trkpt lat="47.45254" lon="6.70689">
        <ele>368.2</ele>
        <time>2014-10-12T10:05:09.000Z</time>
      </trkpt>
      <trkpt lat="47.45261" lon="6.70692">
        <ele>362.9</ele>
        <time>2014-10-12T10:05:10.000Z</time>
      </trkpt>
      <trkpt lat="47.45263" lon="6.70697">
        <ele>362.1</ele>
        <time>2014-10-12T10:05:11.000Z</time>
      </trkpt>
      <trkpt lat="47.45267" lon="6.70701">
        <ele>361.7</ele>
        <time>2014-10-12T10:05:12.000Z</time>
      </trkpt>
      <trkpt lat="47.45269" lon="6.70705">
        <ele>360.2</ele>
        <time>2014-10-12T10:05:13.000Z</time>
      </trkpt>
      <trkpt lat="47.45272" lon="6.70709">
        <ele>357.6</ele>
        <time>2014-10-12T10:05:14.000Z</time>
      </trkpt>
      <trkpt lat="47.45275" lon="6.70712">
        <ele>351.9</ele>
        <time>2014-10-12T10:05:16.000Z</time>
      </trkpt>
      <trkpt lat="47.45276" lon="6.70714">
        <ele>349.2</ele>
        <time>2014-10-12T10:05:17.000Z</time>
      </trkpt>
      <trkpt lat="47.45275" lon="6.70718">
        <ele>340.5</ele>
        <time>2014-10-12T10:05:20.000Z</time>
      </trkpt>
      <trkpt lat="47.45274" lon="6.70721">
        <ele>340.3</ele>
        <time>2014-10-12T10:05:21.000Z</time>
      </trkpt>
      <trkpt lat="47.45275" lon="6.70724">
        <ele>342.2</ele>
        <time>2014-10-12T10:05:22.000Z</time>
      </trkpt>
      <trkpt lat="47.45277" lon="6.70727">
        <ele>342.5</ele>
        <time>2014-10-12T10:05:23.000Z</time>
      </trkpt>
      <trkpt lat="47.4528" lon="6.70731">
        <ele>341.9</ele>
        <time>2014-10-12T10:05:24.000Z</time>
      </trkpt>
      <trkpt lat="47.45293" lon="6.70756">
        <ele>343.8</ele>
        <time>2014-10-12T10:05:25.000Z</time>
      </trkpt>
      <trkpt lat="47.45295" lon="6.70765">
        <ele>343.7</ele>
        <time>2014-10-12T10:05:26.000Z</time>
      </trkpt>
      <trkpt lat="47.45298" lon="6.70773">
        <ele>343.8</ele>
        <time>2014-10-12T10:05:27.000Z</time>
      </trkpt>
      <trkpt lat="47.45299" lon="6.70779">
        <ele>343.5</ele>
        <time>2014-10-12T10:05:28.000Z</time>
      </trkpt>
      <trkpt lat="47.45302" lon="6.70786">
        <ele>342.5</ele>
        <time>2014-10-12T10:05:29.000Z</time>
      </trkpt>
      <trkpt lat="47.45309" lon="6.70788">
        <ele>343.9</ele>
        <time>2014-10-12T10:05:30.000Z</time>
      </trkpt>
      <trkpt lat="47.45315" lon="6.70792">
        <ele>344.9</ele>
        <time>2014-10-12T10:05:31.000Z</time>
      </trkpt>
      <trkpt lat="47.45323" lon="6.70796">
        <ele>346.3</ele>
        <time>2014-10-12T10:05:32.000Z</time>
      </trkpt>
      <trkpt lat="47.4533" lon="6.70799">
        <ele>347</ele>
        <time>2014-10-12T10:05:33.000Z</time>
      </trkpt>
      <trkpt lat="47.45338" lon="6.70805">
        <ele>347.3</ele>
        <time>2014-10-12T10:05:34.000Z</time>
      </trkpt>
      <trkpt lat="47.45343" lon="6.70809">
        <ele>347.7</ele>
        <time>2014-10-12T10:05:35.000Z</time>
      </trkpt>
      <trkpt lat="47.45349" lon="6.70814">
        <ele>348.7</ele>
        <time>2014-10-12T10:05:36.000Z</time>
      </trkpt>
      <trkpt lat="47.45353" lon="6.7082">
        <ele>348.8</ele>
        <time>2014-10-12T10:05:37.000Z</time>
      </trkpt>
      <trkpt lat="47.45358" lon="6.70823">
        <ele>349.5</ele>
        <time>2014-10-12T10:05:38.000Z</time>
      </trkpt>
      <trkpt lat="47.45362" lon="6.70825">
        <ele>347.7</ele>
        <time>2014-10-12T10:05:39.000Z</time>
      </trkpt>
      <trkpt lat="47.45365" lon="6.70828">
        <ele>346.8</ele>
        <time>2014-10-12T10:05:40.000Z</time>
      </trkpt>
      <trkpt lat="47.45368" lon="6.70831">
        <ele>345.5</ele>
        <time>2014-10-12T10:05:41.000Z</time>
      </trkpt>
      <trkpt lat="47.45371" lon="6.70834">
        <ele>346.4</ele>
        <time>2014-10-12T10:05:42.000Z</time>
      </trkpt>
      <trkpt lat="47.45373" lon="6.70838">
        <ele>346</ele>
        <time>2014-10-12T10:05:43.000Z</time>
      </trkpt>
      <trkpt lat="47.45376" lon="6.70843">
        <ele>346.3</ele>
        <time>2014-10-12T10:05:44.000Z</time>
      </trkpt>
      <trkpt lat="47.45379" lon="6.70849">
        <ele>344</ele>
        <time>2014-10-12T10:05:45.000Z</time>
      </trkpt>
      <trkpt lat="47.45381" lon="6.70855">
        <ele>342.8</ele>
        <time>2014-10-12T10:05:46.000Z</time>
      </trkpt>
      <trkpt lat="47.45383" lon="6.7086">
        <ele>343</ele>
        <time>2014-10-12T10:05:47.000Z</time>
      </trkpt>
      <trkpt lat="47.4539" lon="6.70877">
        <ele>341.2</ele>
        <time>2014-10-12T10:05:52.000Z</time>
      </trkpt>
      <trkpt lat="47.45391" lon="6.70882">
        <ele>340.1</ele>
        <time>2014-10-12T10:05:53.000Z</time>
      </trkpt>
      <trkpt lat="47.45392" lon="6.70887">
        <ele>340.9</ele>
        <time>2014-10-12T10:05:54.000Z</time>
      </trkpt>
      <trkpt lat="47.45393" lon="6.70893">
        <ele>342</ele>
        <time>2014-10-12T10:05:55.000Z</time>
      </trkpt>
      <trkpt lat="47.45395" lon="6.70899">
        <ele>343.3</ele>
        <time>2014-10-12T10:05:56.000Z</time>
      </trkpt>
      <trkpt lat="47.45398" lon="6.70904">
        <ele>342.3</ele>
        <time>2014-10-12T10:05:57.000Z</time>
      </trkpt>
      <trkpt lat="47.454" lon="6.7091">
        <ele>340.9</ele>
        <time>2014-10-12T10:05:58.000Z</time>
      </trkpt>
      <trkpt lat="47.45403" lon="6.70916">
        <ele>341</ele>
        <time>2014-10-12T10:05:59.000Z</time>
      </trkpt>
      <trkpt lat="47.45407" lon="6.70922">
        <ele>341.6</ele>
        <time>2014-10-12T10:06:00.000Z</time>
      </trkpt>
      <trkpt lat="47.4541" lon="6.70927">
        <ele>341.4</ele>
        <time>2014-10-12T10:06:01.000Z</time>
      </trkpt>
      <trkpt lat="47.45415" lon="6.70933">
        <ele>341.7</ele>
        <time>2014-10-12T10:06:02.000Z</time>
      </trkpt>
      <trkpt lat="47.4542" lon="6.70939">
        <ele>342.1</ele>
        <time>2014-10-12T10:06:03.000Z</time>
      </trkpt>
      <trkpt lat="47.45438" lon="6.70959">
        <ele>341.5</ele>
        <time>2014-10-12T10:06:04.000Z</time>
      </trkpt>
      <trkpt lat="47.45444" lon="6.70968">
        <ele>341.7</ele>
        <time>2014-10-12T10:06:05.000Z</time>
      </trkpt>
      <trkpt lat="47.45449" lon="6.70974">
        <ele>342.7</ele>
        <time>2014-10-12T10:06:06.000Z</time>
      </trkpt>
      <trkpt lat="47.45453" lon="6.70982">
        <ele>342</ele>
        <time>2014-10-12T10:06:07.000Z</time>
      </trkpt>
      <trkpt lat="47.45456" lon="6.7099">
        <ele>344.7</ele>
        <time>2014-10-12T10:06:08.000Z</time>
      </trkpt>
      <trkpt lat="47.45459" lon="6.70992">
        <ele>344.6</ele>
        <time>2014-10-12T10:06:08.998Z</time>
      </trkpt>
      <trkpt lat="47.45461" lon="6.71003">
        <ele>347.4</ele>
        <time>2014-10-12T10:06:10.000Z</time>
      </trkpt>
      <trkpt lat="47.45464" lon="6.7101">
        <ele>347.6</ele>
        <time>2014-10-12T10:06:11.000Z</time>
      </trkpt>
      <trkpt lat="47.45466" lon="6.71017">
        <ele>349.4</ele>
        <time>2014-10-12T10:06:12.000Z</time>
      </trkpt>
      <trkpt lat="47.45469" lon="6.71024">
        <ele>350.1</ele>
        <time>2014-10-12T10:06:13.000Z</time>
      </trkpt>
      <trkpt lat="47.4547" lon="6.71027">
        <ele>347.1</ele>
        <time>2014-10-12T10:06:14.000Z</time>
      </trkpt>
      <trkpt lat="47.45471" lon="6.7103">
        <ele>345.9</ele>
        <time>2014-10-12T10:06:15.000Z</time>
      </trkpt>
      <trkpt lat="47.45473" lon="6.71035">
        <ele>346.9</ele>
        <time>2014-10-12T10:06:17.000Z</time>
      </trkpt>
      <trkpt lat="47.45475" lon="6.71038">
        <ele>349.3</ele>
        <time>2014-10-12T10:06:18.000Z</time>
      </trkpt>
      <trkpt lat="47.45476" lon="6.71041">
        <ele>350.8</ele>
        <time>2014-10-12T10:06:19.000Z</time>
      </trkpt>
      <trkpt lat="47.45478" lon="6.71044">
        <ele>354.1</ele>
        <time>2014-10-12T10:06:20.000Z</time>
      </trkpt>
      <trkpt lat="47.45479" lon="6.71048">
        <ele>353.8</ele>
        <time>2014-10-12T10:06:21.000Z</time>
      </trkpt>
      <trkpt lat="47.4548" lon="6.71052">
        <ele>353.5</ele>
        <time>2014-10-12T10:06:22.000Z</time>
      </trkpt>
      <trkpt lat="47.45481" lon="6.71056">
        <ele>353.8</ele>
        <time>2014-10-12T10:06:23.000Z</time>
      </trkpt>
      <trkpt lat="47.45483" lon="6.71059">
        <ele>353.4</ele>
        <time>2014-10-12T10:06:24.000Z</time>
      </trkpt>
      <trkpt lat="47.45485" lon="6.71062">
        <ele>355</ele>
        <time>2014-10-12T10:06:25.000Z</time>
      </trkpt>
      <trkpt lat="47.45486" lon="6.71065">
        <ele>354.4</ele>
        <time>2014-10-12T10:06:26.000Z</time>
      </trkpt>
      <trkpt lat="47.45488" lon="6.71067">
        <ele>355</ele>
        <time>2014-10-12T10:06:27.000Z</time>
      </trkpt>
      <trkpt lat="47.4549" lon="6.71069">
        <ele>355</ele>
        <time>2014-10-12T10:06:28.000Z</time>
      </trkpt>
      <trkpt lat="47.45493" lon="6.71071">
        <ele>354.8</ele>
        <time>2014-10-12T10:06:30.047Z</time>
      </trkpt>
      <trkpt lat="47.45495" lon="6.71077">
        <ele>356.7</ele>
        <time>2014-10-12T10:06:31.000Z</time>
      </trkpt>
      <trkpt lat="47.45498" lon="6.71082">
        <ele>355.8</ele>
        <time>2014-10-12T10:06:35.000Z</time>
      </trkpt>
      <trkpt lat="47.45499" lon="6.71083">
        <ele>354.9</ele>
        <time>2014-10-12T10:06:36.000Z</time>
      </trkpt>
      <trkpt lat="47.45503" lon="6.71084">
        <ele>357.5</ele>
        <time>2014-10-12T10:06:39.000Z</time>
      </trkpt>
      <trkpt lat="47.45504" lon="6.71085">
        <ele>356.3</ele>
        <time>2014-10-12T10:06:40.000Z</time>
      </trkpt>
      <trkpt lat="47.45507" lon="6.71086">
        <ele>355.4</ele>
        <time>2014-10-12T10:06:41.000Z</time>
      </trkpt>
      <trkpt lat="47.45509" lon="6.71087">
        <ele>355.2</ele>
        <time>2014-10-12T10:06:42.000Z</time>
      </trkpt>
      <trkpt lat="47.45513" lon="6.71089">
        <ele>358.5</ele>
        <time>2014-10-12T10:06:44.000Z</time>
      </trkpt>
      <trkpt lat="47.45514" lon="6.7109">
        <ele>357.5</ele>
        <time>2014-10-12T10:06:45.000Z</time>
      </trkpt>
      <trkpt lat="47.45517" lon="6.71094">
        <ele>358</ele>
        <time>2014-10-12T10:06:47.000Z</time>
      </trkpt>
      <trkpt lat="47.45523" lon="6.71102">
        <ele>360.3</ele>
        <time>2014-10-12T10:06:51.000Z</time>
      </trkpt>
      <trkpt lat="47.45526" lon="6.71104">
        <ele>361.3</ele>
        <time>2014-10-12T10:06:52.000Z</time>
      </trkpt>
      <trkpt lat="47.45528" lon="6.71106">
        <ele>361.4</ele>
        <time>2014-10-12T10:06:53.018Z</time>
      </trkpt>
      <trkpt lat="47.45535" lon="6.7111">
        <ele>362.6</ele>
        <time>2014-10-12T10:06:54.000Z</time>
      </trkpt>
      <trkpt lat="47.4554" lon="6.71114">
        <ele>363.6</ele>
        <time>2014-10-12T10:06:55.000Z</time>
      </trkpt>
      <trkpt lat="47.45546" lon="6.71117">
        <ele>363.6</ele>
        <time>2014-10-12T10:06:56.000Z</time>
      </trkpt>
      <trkpt lat="47.45551" lon="6.71119">
        <ele>363.5</ele>
        <time>2014-10-12T10:06:57.000Z</time>
      </trkpt>
      <trkpt lat="47.45557" lon="6.71122">
        <ele>365.9</ele>
        <time>2014-10-12T10:06:58.000Z</time>
      </trkpt>
      <trkpt lat="47.45573" lon="6.71132">
        <ele>364.1</ele>
        <time>2014-10-12T10:06:59.000Z</time>
      </trkpt>
      <trkpt lat="47.45581" lon="6.71134">
        <ele>364.7</ele>
        <time>2014-10-12T10:07:00.000Z</time>
      </trkpt>
      <trkpt lat="47.45584" lon="6.71135">
        <ele>362</ele>
        <time>2014-10-12T10:07:01.000Z</time>
      </trkpt>
      <trkpt lat="47.45589" lon="6.71137">
        <ele>361.5</ele>
        <time>2014-10-12T10:07:02.000Z</time>
      </trkpt>
      <trkpt lat="47.45592" lon="6.71138">
        <ele>360.4</ele>
        <time>2014-10-12T10:07:02.988Z</time>
      </trkpt>
      <trkpt lat="47.45596" lon="6.7114">
        <ele>360.1</ele>
        <time>2014-10-12T10:07:04.000Z</time>
      </trkpt>
      <trkpt lat="47.45599" lon="6.71141">
        <ele>359.6</ele>
        <time>2014-10-12T10:07:04.999Z</time>
      </trkpt>
      <trkpt lat="47.45603" lon="6.7114">
        <ele>359.8</ele>
        <time>2014-10-12T10:07:05.937Z</time>
      </trkpt>
      <trkpt lat="47.45622" lon="6.71138">
        <ele>353</ele>
        <time>2014-10-12T10:07:07.000Z</time>
      </trkpt>
      <trkpt lat="47.45629" lon="6.71136">
        <ele>351.6</ele>
        <time>2014-10-12T10:07:08.000Z</time>
      </trkpt>
      <trkpt lat="47.45636" lon="6.71134">
        <ele>351.9</ele>
        <time>2014-10-12T10:07:09.000Z</time>
      </trkpt>
      <trkpt lat="47.45642" lon="6.71133">
        <ele>351.9</ele>
        <time>2014-10-12T10:07:09.999Z</time>
      </trkpt>
      <trkpt lat="47.45647" lon="6.71129">
        <ele>351.4</ele>
        <time>2014-10-12T10:07:11.000Z</time>
      </trkpt>
      <trkpt lat="47.4565" lon="6.71127">
        <ele>351.9</ele>
        <time>2014-10-12T10:07:11.998Z</time>
      </trkpt>
      <trkpt lat="47.45652" lon="6.71125">
        <ele>347.6</ele>
        <time>2014-10-12T10:07:13.000Z</time>
      </trkpt>
      <trkpt lat="47.45655" lon="6.71124">
        <ele>346.2</ele>
        <time>2014-10-12T10:07:14.000Z</time>
      </trkpt>
      <trkpt lat="47.45659" lon="6.7112">
        <ele>343</ele>
        <time>2014-10-12T10:07:15.000Z</time>
      </trkpt>
      <trkpt lat="47.45661" lon="6.71118">
        <ele>341.3</ele>
        <time>2014-10-12T10:07:15.998Z</time>
      </trkpt>
      <trkpt lat="47.45664" lon="6.71115">
        <ele>340.4</ele>
        <time>2014-10-12T10:07:16.930Z</time>
      </trkpt>
      <trkpt lat="47.45669" lon="6.71113">
        <ele>340.2</ele>
        <time>2014-10-12T10:07:17.938Z</time>
      </trkpt>
      <trkpt lat="47.4567" lon="6.71111">
        <ele>337.9</ele>
        <time>2014-10-12T10:07:18.962Z</time>
      </trkpt>
      <trkpt lat="47.45675" lon="6.71107">
        <ele>338.2</ele>
        <time>2014-10-12T10:07:20.000Z</time>
      </trkpt>
      <trkpt lat="47.45678" lon="6.71104">
        <ele>337.4</ele>
        <time>2014-10-12T10:07:21.000Z</time>
      </trkpt>
      <trkpt lat="47.45687" lon="6.71099">
        <ele>336.7</ele>
        <time>2014-10-12T10:07:22.000Z</time>
      </trkpt>
      <trkpt lat="47.45691" lon="6.71096">
        <ele>335.8</ele>
        <time>2014-10-12T10:07:22.981Z</time>
      </trkpt>
      <trkpt lat="47.45695" lon="6.71088">
        <ele>335.2</ele>
        <time>2014-10-12T10:07:24.000Z</time>
      </trkpt>
      <trkpt lat="47.45697" lon="6.71084">
        <ele>334.1</ele>
        <time>2014-10-12T10:07:24.981Z</time>
      </trkpt>
      <trkpt lat="47.45702" lon="6.71081">
        <ele>334.3</ele>
        <time>2014-10-12T10:07:25.931Z</time>
      </trkpt>
      <trkpt lat="47.45708" lon="6.71075">
        <ele>333.7</ele>
        <time>2014-10-12T10:07:27.000Z</time>
      </trkpt>
      <trkpt lat="47.45712" lon="6.7107">
        <ele>333.3</ele>
        <time>2014-10-12T10:07:28.000Z</time>
      </trkpt>
      <trkpt lat="47.45716" lon="6.71067">
        <ele>332.8</ele>
        <time>2014-10-12T10:07:28.998Z</time>
      </trkpt>
      <trkpt lat="47.45719" lon="6.71062">
        <ele>333.5</ele>
        <time>2014-10-12T10:07:29.938Z</time>
      </trkpt>
      <trkpt lat="47.45722" lon="6.71057">
        <ele>333.9</ele>
        <time>2014-10-12T10:07:31.000Z</time>
      </trkpt>
      <trkpt lat="47.45725" lon="6.71053">
        <ele>333.6</ele>
        <time>2014-10-12T10:07:32.000Z</time>
      </trkpt>
      <trkpt lat="47.45728" lon="6.7105">
        <ele>333.5</ele>
        <time>2014-10-12T10:07:32.998Z</time>
      </trkpt>
      <trkpt lat="47.45735" lon="6.71042">
        <ele>335.7</ele>
        <time>2014-10-12T10:07:34.000Z</time>
      </trkpt>
      <trkpt lat="47.4574" lon="6.71037">
        <ele>337.1</ele>
        <time>2014-10-12T10:07:35.000Z</time>
      </trkpt>
      <trkpt lat="47.45742" lon="6.71033">
        <ele>337.4</ele>
        <time>2014-10-12T10:07:35.998Z</time>
      </trkpt>
      <trkpt lat="47.45748" lon="6.7103">
        <ele>339.1</ele>
        <time>2014-10-12T10:07:37.000Z</time>
      </trkpt>
      <trkpt lat="47.4575" lon="6.71026">
        <ele>339.2</ele>
        <time>2014-10-12T10:07:37.998Z</time>
      </trkpt>
      <trkpt lat="47.45759" lon="6.71025">
        <ele>336.3</ele>
        <time>2014-10-12T10:07:39.000Z</time>
      </trkpt>
      <trkpt lat="47.45764" lon="6.71022">
        <ele>335.3</ele>
        <time>2014-10-12T10:07:40.000Z</time>
      </trkpt>
      <trkpt lat="47.45767" lon="6.71019">
        <ele>334.1</ele>
        <time>2014-10-12T10:07:40.998Z</time>
      </trkpt>
      <trkpt lat="47.45776" lon="6.71014">
        <ele>337.4</ele>
        <time>2014-10-12T10:07:42.000Z</time>
      </trkpt>
      <trkpt lat="47.45781" lon="6.71008">
        <ele>338.2</ele>
        <time>2014-10-12T10:07:43.000Z</time>
      </trkpt>
      <trkpt lat="47.45785" lon="6.71004">
        <ele>338.1</ele>
        <time>2014-10-12T10:07:43.998Z</time>
      </trkpt>
      <trkpt lat="47.45795" lon="6.71001">
        <ele>340</ele>
        <time>2014-10-12T10:07:45.000Z</time>
      </trkpt>
      <trkpt lat="47.45803" lon="6.70993">
        <ele>342.7</ele>
        <time>2014-10-12T10:07:46.000Z</time>
      </trkpt>
      <trkpt lat="47.45812" lon="6.70985">
        <ele>345.1</ele>
        <time>2014-10-12T10:07:47.000Z</time>
      </trkpt>
      <trkpt lat="47.45828" lon="6.70972">
        <ele>344.5</ele>
        <time>2014-10-12T10:07:50.000Z</time>
      </trkpt>
      <trkpt lat="47.45835" lon="6.70963">
        <ele>343.9</ele>
        <time>2014-10-12T10:07:51.000Z</time>
      </trkpt>
      <trkpt lat="47.45841" lon="6.70956">
        <ele>342.7</ele>
        <time>2014-10-12T10:07:52.000Z</time>
      </trkpt>
      <trkpt lat="47.45847" lon="6.70949">
        <ele>341.7</ele>
        <time>2014-10-12T10:07:53.000Z</time>
      </trkpt>
      <trkpt lat="47.4585" lon="6.70941">
        <ele>342.4</ele>
        <time>2014-10-12T10:07:54.000Z</time>
      </trkpt>
      <trkpt lat="47.45852" lon="6.70933">
        <ele>341.7</ele>
        <time>2014-10-12T10:07:55.000Z</time>
      </trkpt>
      <trkpt lat="47.45854" lon="6.70927">
        <ele>341.5</ele>
        <time>2014-10-12T10:07:56.000Z</time>
      </trkpt>
      <trkpt lat="47.45856" lon="6.70919">
        <ele>342.1</ele>
        <time>2014-10-12T10:07:57.000Z</time>
      </trkpt>
      <trkpt lat="47.45858" lon="6.70914">
        <ele>340.4</ele>
        <time>2014-10-12T10:07:58.000Z</time>
      </trkpt>
      <trkpt lat="47.45858" lon="6.70907">
        <ele>339.1</ele>
        <time>2014-10-12T10:07:59.000Z</time>
      </trkpt>
      <trkpt lat="47.45858" lon="6.70901">
        <ele>338.3</ele>
        <time>2014-10-12T10:08:00.000Z</time>
      </trkpt>
      <trkpt lat="47.4586" lon="6.70895">
        <ele>340.3</ele>
        <time>2014-10-12T10:08:01.000Z</time>
      </trkpt>
      <trkpt lat="47.45861" lon="6.70889">
        <ele>341.5</ele>
        <time>2014-10-12T10:08:02.000Z</time>
      </trkpt>
      <trkpt lat="47.45863" lon="6.70883">
        <ele>341.2</ele>
        <time>2014-10-12T10:08:03.000Z</time>
      </trkpt>
      <trkpt lat="47.45864" lon="6.70876">
        <ele>341.7</ele>
        <time>2014-10-12T10:08:04.000Z</time>
      </trkpt>
      <trkpt lat="47.45865" lon="6.7087">
        <ele>341.5</ele>
        <time>2014-10-12T10:08:05.000Z</time>
      </trkpt>
      <trkpt lat="47.45866" lon="6.70863">
        <ele>342.3</ele>
        <time>2014-10-12T10:08:06.000Z</time>
      </trkpt>
      <trkpt lat="47.45867" lon="6.70857">
        <ele>343.1</ele>
        <time>2014-10-12T10:08:07.000Z</time>
      </trkpt>
      <trkpt lat="47.45867" lon="6.70852">
        <ele>343.5</ele>
        <time>2014-10-12T10:08:08.000Z</time>
      </trkpt>
      <trkpt lat="47.45868" lon="6.7085">
        <ele>343.9</ele>
        <time>2014-10-12T10:08:09.000Z</time>
      </trkpt>
      <trkpt lat="47.4587" lon="6.70845">
        <ele>344.5</ele>
        <time>2014-10-12T10:08:10.000Z</time>
      </trkpt>
      <trkpt lat="47.45871" lon="6.70839">
        <ele>344</ele>
        <time>2014-10-12T10:08:11.000Z</time>
      </trkpt>
      <trkpt lat="47.45871" lon="6.70835">
        <ele>344.1</ele>
        <time>2014-10-12T10:08:12.000Z</time>
      </trkpt>
      <trkpt lat="47.45872" lon="6.70829">
        <ele>341.4</ele>
        <time>2014-10-12T10:08:14.000Z</time>
      </trkpt>
      <trkpt lat="47.45873" lon="6.70825">
        <ele>342.1</ele>
        <time>2014-10-12T10:08:15.000Z</time>
      </trkpt>
      <trkpt lat="47.45873" lon="6.7082">
        <ele>342.4</ele>
        <time>2014-10-12T10:08:16.000Z</time>
      </trkpt>
      <trkpt lat="47.45874" lon="6.70814">
        <ele>342.7</ele>
        <time>2014-10-12T10:08:17.000Z</time>
      </trkpt>
      <trkpt lat="47.45874" lon="6.70809">
        <ele>342.2</ele>
        <time>2014-10-12T10:08:18.000Z</time>
      </trkpt>
      <trkpt lat="47.45874" lon="6.70804">
        <ele>342.1</ele>
        <time>2014-10-12T10:08:19.000Z</time>
      </trkpt>
      <trkpt lat="47.45874" lon="6.70799">
        <ele>344.2</ele>
        <time>2014-10-12T10:08:20.000Z</time>
      </trkpt>
      <trkpt lat="47.45874" lon="6.70793">
        <ele>344.7</ele>
        <time>2014-10-12T10:08:21.000Z</time>
      </trkpt>
      <trkpt lat="47.45874" lon="6.70789">
        <ele>342.6</ele>
        <time>2014-10-12T10:08:22.000Z</time>
      </trkpt>
      <trkpt lat="47.45874" lon="6.70786">
        <ele>341.8</ele>
        <time>2014-10-12T10:08:23.000Z</time>
      </trkpt>
      <trkpt lat="47.45873" lon="6.70782">
        <ele>341.2</ele>
        <time>2014-10-12T10:08:25.000Z</time>
      </trkpt>
      <trkpt lat="47.45873" lon="6.70779">
        <ele>339.2</ele>
        <time>2014-10-12T10:08:26.000Z</time>
      </trkpt>
      <trkpt lat="47.45873" lon="6.70776">
        <ele>338.9</ele>
        <time>2014-10-12T10:08:27.000Z</time>
      </trkpt>
      <trkpt lat="47.45873" lon="6.70773">
        <ele>338.7</ele>
        <time>2014-10-12T10:08:28.000Z</time>
      </trkpt>
      <trkpt lat="47.45873" lon="6.70768">
        <ele>337.9</ele>
        <time>2014-10-12T10:08:29.000Z</time>
      </trkpt>
      <trkpt lat="47.45873" lon="6.70764">
        <ele>336.8</ele>
        <time>2014-10-12T10:08:30.000Z</time>
      </trkpt>
      <trkpt lat="47.45873" lon="6.70759">
        <ele>336.6</ele>
        <time>2014-10-12T10:08:31.000Z</time>
      </trkpt>
      <trkpt lat="47.45873" lon="6.70754">
        <ele>336.3</ele>
        <time>2014-10-12T10:08:32.000Z</time>
      </trkpt>
      <trkpt lat="47.45872" lon="6.70748">
        <ele>336.4</ele>
        <time>2014-10-12T10:08:33.000Z</time>
      </trkpt>
      <trkpt lat="47.45872" lon="6.70743">
        <ele>335.2</ele>
        <time>2014-10-12T10:08:34.000Z</time>
      </trkpt>
      <trkpt lat="47.45871" lon="6.70739">
        <ele>334.8</ele>
        <time>2014-10-12T10:08:35.000Z</time>
      </trkpt>
      <trkpt lat="47.45871" lon="6.70735">
        <ele>333.9</ele>
        <time>2014-10-12T10:08:36.000Z</time>
      </trkpt>
      <trkpt lat="47.45871" lon="6.70728">
        <ele>330.6</ele>
        <time>2014-10-12T10:08:38.000Z</time>
      </trkpt>
      <trkpt lat="47.4587" lon="6.70725">
        <ele>330.1</ele>
        <time>2014-10-12T10:08:39.000Z</time>
      </trkpt>
      <trkpt lat="47.4587" lon="6.70719">
        <ele>330.2</ele>
        <time>2014-10-12T10:08:41.000Z</time>
      </trkpt>
      <trkpt lat="47.45869" lon="6.70716">
        <ele>330</ele>
        <time>2014-10-12T10:08:42.000Z</time>
      </trkpt>
      <trkpt lat="47.45868" lon="6.7071">
        <ele>330.9</ele>
        <time>2014-10-12T10:08:44.000Z</time>
      </trkpt>
      <trkpt lat="47.45868" lon="6.70706">
        <ele>331.5</ele>
        <time>2014-10-12T10:08:45.000Z</time>
      </trkpt>
      <trkpt lat="47.45867" lon="6.70703">
        <ele>330</ele>
        <time>2014-10-12T10:08:46.000Z</time>
      </trkpt>
      <trkpt lat="47.45866" lon="6.70699">
        <ele>330.3</ele>
        <time>2014-10-12T10:08:47.000Z</time>
      </trkpt>
      <trkpt lat="47.45864" lon="6.70689">
        <ele>329.3</ele>
        <time>2014-10-12T10:08:50.000Z</time>
      </trkpt>
      <trkpt lat="47.45863" lon="6.70685">
        <ele>327.5</ele>
        <time>2014-10-12T10:08:51.000Z</time>
      </trkpt>
      <trkpt lat="47.45862" lon="6.70682">
        <ele>326.2</ele>
        <time>2014-10-12T10:08:52.000Z</time>
      </trkpt>
      <trkpt lat="47.45862" lon="6.70678">
        <ele>325.5</ele>
        <time>2014-10-12T10:08:53.000Z</time>
      </trkpt>
      <trkpt lat="47.45861" lon="6.70675">
        <ele>325.4</ele>
        <time>2014-10-12T10:08:54.000Z</time>
      </trkpt>
      <trkpt lat="47.4586" lon="6.70672">
        <ele>325</ele>
        <time>2014-10-12T10:08:55.000Z</time>
      </trkpt>
      <trkpt lat="47.45859" lon="6.70668">
        <ele>324.5</ele>
        <time>2014-10-12T10:08:56.000Z</time>
      </trkpt>
      <trkpt lat="47.45858" lon="6.70663">
        <ele>324.8</ele>
        <time>2014-10-12T10:08:58.000Z</time>
      </trkpt>
      <trkpt lat="47.45858" lon="6.7066">
        <ele>325.9</ele>
        <time>2014-10-12T10:08:59.000Z</time>
      </trkpt>
      <trkpt lat="47.45858" lon="6.70654">
        <ele>327.4</ele>
        <time>2014-10-12T10:09:04.000Z</time>
      </trkpt>
      <trkpt lat="47.45858" lon="6.70653">
        <ele>328.7</ele>
        <time>2014-10-12T10:09:05.000Z</time>
      </trkpt>
      <trkpt lat="47.45858" lon="6.70647">
        <ele>331.6</ele>
        <time>2014-10-12T10:09:08.000Z</time>
      </trkpt>
      <trkpt lat="47.45858" lon="6.70646">
        <ele>332.6</ele>
        <time>2014-10-12T10:09:09.000Z</time>
      </trkpt>
      <trkpt lat="47.45857" lon="6.7064">
        <ele>336</ele>
        <time>2014-10-12T10:09:13.000Z</time>
      </trkpt>
      <trkpt lat="47.45857" lon="6.70639">
        <ele>336.7</ele>
        <time>2014-10-12T10:09:14.000Z</time>
      </trkpt>
      <trkpt lat="47.45856" lon="6.70632">
        <ele>338.6</ele>
        <time>2014-10-12T10:09:29.000Z</time>
      </trkpt>
      <trkpt lat="47.45856" lon="6.70632">
        <ele>339.1</ele>
        <time>2014-10-12T10:09:30.000Z</time>
      </trkpt>
      <trkpt lat="47.45856" lon="6.70625">
        <ele>340.7</ele>
        <time>2014-10-12T10:10:36.000Z</time>
      </trkpt>
      <trkpt lat="47.45857" lon="6.70623">
        <ele>339.9</ele>
        <time>2014-10-12T10:10:37.000Z</time>
      </trkpt>
      <trkpt lat="47.45858" lon="6.70619">
        <ele>339.8</ele>
        <time>2014-10-12T10:10:38.000Z</time>
      </trkpt>
      <trkpt lat="47.4586" lon="6.70614">
        <ele>340</ele>
        <time>2014-10-12T10:10:39.000Z</time>
      </trkpt>
      <trkpt lat="47.45864" lon="6.70601">
        <ele>339.9</ele>
        <time>2014-10-12T10:10:40.000Z</time>
      </trkpt>
      <trkpt lat="47.45867" lon="6.70589">
        <ele>339.1</ele>
        <time>2014-10-12T10:10:41.000Z</time>
      </trkpt>
      <trkpt lat="47.4587" lon="6.70578">
        <ele>338</ele>
        <time>2014-10-12T10:10:42.000Z</time>
      </trkpt>
      <trkpt lat="47.45872" lon="6.70566">
        <ele>337.7</ele>
        <time>2014-10-12T10:10:43.000Z</time>
      </trkpt>
      <trkpt lat="47.45875" lon="6.70554">
        <ele>337.7</ele>
        <time>2014-10-12T10:10:44.000Z</time>
      </trkpt>
      <trkpt lat="47.45877" lon="6.70542">
        <ele>336.6</ele>
        <time>2014-10-12T10:10:45.000Z</time>
      </trkpt>
      <trkpt lat="47.4588" lon="6.7053">
        <ele>334</ele>
        <time>2014-10-12T10:10:46.000Z</time>
      </trkpt>
      <trkpt lat="47.45882" lon="6.70518">
        <ele>332.2</ele>
        <time>2014-10-12T10:10:47.000Z</time>
      </trkpt>
      <trkpt lat="47.45886" lon="6.70488">
        <ele>329.4</ele>
        <time>2014-10-12T10:10:50.000Z</time>
      </trkpt>
      <trkpt lat="47.45882" lon="6.70478">
        <ele>326.3</ele>
        <time>2014-10-12T10:10:51.000Z</time>
      </trkpt>
      <trkpt lat="47.4588" lon="6.70467">
        <ele>325.1</ele>
        <time>2014-10-12T10:10:52.000Z</time>
      </trkpt>
      <trkpt lat="47.45878" lon="6.70457">
        <ele>325.4</ele>
        <time>2014-10-12T10:10:53.000Z</time>
      </trkpt>
      <trkpt lat="47.45875" lon="6.70447">
        <ele>325.1</ele>
        <time>2014-10-12T10:10:54.000Z</time>
      </trkpt>
      <trkpt lat="47.45872" lon="6.70435">
        <ele>324.5</ele>
        <time>2014-10-12T10:10:55.000Z</time>
      </trkpt>
      <trkpt lat="47.4587" lon="6.70422">
        <ele>324</ele>
        <time>2014-10-12T10:10:56.000Z</time>
      </trkpt>
      <trkpt lat="47.45863" lon="6.7041">
        <ele>323.8</ele>
        <time>2014-10-12T10:10:57.000Z</time>
      </trkpt>
      <trkpt lat="47.45861" lon="6.70395">
        <ele>323.2</ele>
        <time>2014-10-12T10:10:58.000Z</time>
      </trkpt>
      <trkpt lat="47.45857" lon="6.70383">
        <ele>322.4</ele>
        <time>2014-10-12T10:10:59.000Z</time>
      </trkpt>
      <trkpt lat="47.45853" lon="6.7037">
        <ele>322.3</ele>
        <time>2014-10-12T10:11:00.000Z</time>
      </trkpt>
      <trkpt lat="47.4585" lon="6.7036">
        <ele>321.9</ele>
        <time>2014-10-12T10:11:01.000Z</time>
      </trkpt>
      <trkpt lat="47.45848" lon="6.70352">
        <ele>321.8</ele>
        <time>2014-10-12T10:11:02.000Z</time>
      </trkpt>
      <trkpt lat="47.45845" lon="6.70344">
        <ele>321.6</ele>
        <time>2014-10-12T10:11:03.000Z</time>
      </trkpt>
      <trkpt lat="47.45841" lon="6.70336">
        <ele>321.5</ele>
        <time>2014-10-12T10:11:04.000Z</time>
      </trkpt>
      <trkpt lat="47.4584" lon="6.70328">
        <ele>321.5</ele>
        <time>2014-10-12T10:11:05.000Z</time>
      </trkpt>
      <trkpt lat="47.45836" lon="6.70322">
        <ele>321.2</ele>
        <time>2014-10-12T10:11:06.000Z</time>
      </trkpt>
      <trkpt lat="47.45833" lon="6.70315">
        <ele>321.1</ele>
        <time>2014-10-12T10:11:07.000Z</time>
      </trkpt>
      <trkpt lat="47.45829" lon="6.70309">
        <ele>321.2</ele>
        <time>2014-10-12T10:11:08.000Z</time>
      </trkpt>
      <trkpt lat="47.45825" lon="6.70305">
        <ele>320.9</ele>
        <time>2014-10-12T10:11:09.000Z</time>
      </trkpt>
      <trkpt lat="47.45822" lon="6.70287">
        <ele>323.3</ele>
        <time>2014-10-12T10:11:10.000Z</time>
      </trkpt>
      <trkpt lat="47.45817" lon="6.70279">
        <ele>323.2</ele>
        <time>2014-10-12T10:11:11.000Z</time>
      </trkpt>
      <trkpt lat="47.45811" lon="6.70271">
        <ele>323.1</ele>
        <time>2014-10-12T10:11:12.000Z</time>
      </trkpt>
      <trkpt lat="47.45809" lon="6.70263">
        <ele>323.2</ele>
        <time>2014-10-12T10:11:13.000Z</time>
      </trkpt>
      <trkpt lat="47.45807" lon="6.70255">
        <ele>324.5</ele>
        <time>2014-10-12T10:11:14.000Z</time>
      </trkpt>
      <trkpt lat="47.45804" lon="6.7025">
        <ele>324</ele>
        <time>2014-10-12T10:11:15.000Z</time>
      </trkpt>
      <trkpt lat="47.458" lon="6.7024">
        <ele>327.7</ele>
        <time>2014-10-12T10:11:16.000Z</time>
      </trkpt>
      <trkpt lat="47.45797" lon="6.70232">
        <ele>327.4</ele>
        <time>2014-10-12T10:11:17.000Z</time>
      </trkpt>
      <trkpt lat="47.45795" lon="6.70228">
        <ele>328.7</ele>
        <time>2014-10-12T10:11:18.000Z</time>
      </trkpt>
      <trkpt lat="47.45793" lon="6.70223">
        <ele>327.9</ele>
        <time>2014-10-12T10:11:19.000Z</time>
      </trkpt>
      <trkpt lat="47.4579" lon="6.70219">
        <ele>326.9</ele>
        <time>2014-10-12T10:11:21.000Z</time>
      </trkpt>
      <trkpt lat="47.45789" lon="6.70217">
        <ele>325.9</ele>
        <time>2014-10-12T10:11:22.000Z</time>
      </trkpt>
      <trkpt lat="47.45785" lon="6.70211">
        <ele>325.5</ele>
        <time>2014-10-12T10:11:23.000Z</time>
      </trkpt>
      <trkpt lat="47.45779" lon="6.70204">
        <ele>325.5</ele>
        <time>2014-10-12T10:11:24.000Z</time>
      </trkpt>
      <trkpt lat="47.45774" lon="6.70191">
        <ele>326</ele>
        <time>2014-10-12T10:11:25.000Z</time>
      </trkpt>
      <trkpt lat="47.4577" lon="6.70183">
        <ele>326.7</ele>
        <time>2014-10-12T10:11:26.000Z</time>
      </trkpt>
      <trkpt lat="47.45767" lon="6.70176">
        <ele>326.3</ele>
        <time>2014-10-12T10:11:27.000Z</time>
      </trkpt>
      <trkpt lat="47.45764" lon="6.7017">
        <ele>326.8</ele>
        <time>2014-10-12T10:11:28.000Z</time>
      </trkpt>
      <trkpt lat="47.4576" lon="6.70161">
        <ele>326.7</ele>
        <time>2014-10-12T10:11:29.000Z</time>
      </trkpt>
      <trkpt lat="47.45757" lon="6.70155">
        <ele>326.9</ele>
        <time>2014-10-12T10:11:30.000Z</time>
      </trkpt>
      <trkpt lat="47.45755" lon="6.70149">
        <ele>325.7</ele>
        <time>2014-10-12T10:11:31.000Z</time>
      </trkpt>
      <trkpt lat="47.45752" lon="6.70142">
        <ele>325.2</ele>
        <time>2014-10-12T10:11:32.000Z</time>
      </trkpt>
      <trkpt lat="47.4575" lon="6.70135">
        <ele>324.8</ele>
        <time>2014-10-12T10:11:33.000Z</time>
      </trkpt>
      <trkpt lat="47.45748" lon="6.70128">
        <ele>325.4</ele>
        <time>2014-10-12T10:11:34.000Z</time>
      </trkpt>
      <trkpt lat="47.45746" lon="6.7012">
        <ele>325.5</ele>
        <time>2014-10-12T10:11:35.000Z</time>
      </trkpt>
      <trkpt lat="47.45745" lon="6.70116">
        <ele>325</ele>
        <time>2014-10-12T10:11:36.000Z</time>
      </trkpt>
      <trkpt lat="47.45744" lon="6.70109">
        <ele>324.8</ele>
        <time>2014-10-12T10:11:37.000Z</time>
      </trkpt>
      <trkpt lat="47.45743" lon="6.70102">
        <ele>323.9</ele>
        <time>2014-10-12T10:11:38.000Z</time>
      </trkpt>
      <trkpt lat="47.4574" lon="6.70093">
        <ele>323.9</ele>
        <time>2014-10-12T10:11:39.000Z</time>
      </trkpt>
      <trkpt lat="47.45738" lon="6.70084">
        <ele>325</ele>
        <time>2014-10-12T10:11:40.000Z</time>
      </trkpt>
      <trkpt lat="47.45737" lon="6.70077">
        <ele>325.9</ele>
        <time>2014-10-12T10:11:41.000Z</time>
      </trkpt>
      <trkpt lat="47.45735" lon="6.70068">
        <ele>327</ele>
        <time>2014-10-12T10:11:42.000Z</time>
      </trkpt>
      <trkpt lat="47.45733" lon="6.70061">
        <ele>327.6</ele>
        <time>2014-10-12T10:11:43.000Z</time>
      </trkpt>
      <trkpt lat="47.45732" lon="6.70054">
        <ele>327.5</ele>
        <time>2014-10-12T10:11:44.000Z</time>
      </trkpt>
      <trkpt lat="47.4573" lon="6.70047">
        <ele>327.3</ele>
        <time>2014-10-12T10:11:45.000Z</time>
      </trkpt>
      <trkpt lat="47.45729" lon="6.70039">
        <ele>327.6</ele>
        <time>2014-10-12T10:11:46.000Z</time>
      </trkpt>
      <trkpt lat="47.45728" lon="6.70031">
        <ele>327.6</ele>
        <time>2014-10-12T10:11:47.000Z</time>
      </trkpt>
      <trkpt lat="47.45714" lon="6.69976">
        <ele>327.4</ele>
        <time>2014-10-12T10:11:55.000Z</time>
      </trkpt>
      <trkpt lat="47.4571" lon="6.69966">
        <ele>327.4</ele>
        <time>2014-10-12T10:11:56.000Z</time>
      </trkpt>
      <trkpt lat="47.45707" lon="6.69958">
        <ele>327.2</ele>
        <time>2014-10-12T10:11:57.000Z</time>
      </trkpt>
      <trkpt lat="47.45705" lon="6.69951">
        <ele>326.8</ele>
        <time>2014-10-12T10:11:58.000Z</time>
      </trkpt>
      <trkpt lat="47.45702" lon="6.69944">
        <ele>326.6</ele>
        <time>2014-10-12T10:11:59.000Z</time>
      </trkpt>
      <trkpt lat="47.457" lon="6.69937">
        <ele>327</ele>
        <time>2014-10-12T10:12:00.000Z</time>
      </trkpt>
      <trkpt lat="47.45698" lon="6.6993">
        <ele>327.8</ele>
        <time>2014-10-12T10:12:01.000Z</time>
      </trkpt>
      <trkpt lat="47.45696" lon="6.69924">
        <ele>327.8</ele>
        <time>2014-10-12T10:12:02.000Z</time>
      </trkpt>
      <trkpt lat="47.45694" lon="6.69917">
        <ele>328</ele>
        <time>2014-10-12T10:12:03.000Z</time>
      </trkpt>
      <trkpt lat="47.45693" lon="6.69908">
        <ele>329.3</ele>
        <time>2014-10-12T10:12:04.000Z</time>
      </trkpt>
      <trkpt lat="47.45689" lon="6.69902">
        <ele>328.9</ele>
        <time>2014-10-12T10:12:05.000Z</time>
      </trkpt>
      <trkpt lat="47.45686" lon="6.69895">
        <ele>328.5</ele>
        <time>2014-10-12T10:12:06.000Z</time>
      </trkpt>
      <trkpt lat="47.45683" lon="6.69888">
        <ele>328.7</ele>
        <time>2014-10-12T10:12:07.000Z</time>
      </trkpt>
      <trkpt lat="47.4568" lon="6.69881">
        <ele>328.7</ele>
        <time>2014-10-12T10:12:08.000Z</time>
      </trkpt>
      <trkpt lat="47.45677" lon="6.69874">
        <ele>328.5</ele>
        <time>2014-10-12T10:12:09.000Z</time>
      </trkpt>
      <trkpt lat="47.45673" lon="6.69866">
        <ele>328.4</ele>
        <time>2014-10-12T10:12:10.000Z</time>
      </trkpt>
      <trkpt lat="47.4567" lon="6.69859">
        <ele>328.8</ele>
        <time>2014-10-12T10:12:11.000Z</time>
      </trkpt>
      <trkpt lat="47.45666" lon="6.69852">
        <ele>329.2</ele>
        <time>2014-10-12T10:12:12.000Z</time>
      </trkpt>
      <trkpt lat="47.45662" lon="6.69846">
        <ele>327.3</ele>
        <time>2014-10-12T10:12:13.000Z</time>
      </trkpt>
      <trkpt lat="47.45658" lon="6.69839">
        <ele>326.7</ele>
        <time>2014-10-12T10:12:14.000Z</time>
      </trkpt>
      <trkpt lat="47.45655" lon="6.69833">
        <ele>326.9</ele>
        <time>2014-10-12T10:12:15.000Z</time>
      </trkpt>
      <trkpt lat="47.45651" lon="6.69826">
        <ele>326.8</ele>
        <time>2014-10-12T10:12:16.000Z</time>
      </trkpt>
      <trkpt lat="47.45648" lon="6.69818">
        <ele>326.2</ele>
        <time>2014-10-12T10:12:17.000Z</time>
      </trkpt>
      <trkpt lat="47.45645" lon="6.69811">
        <ele>326.3</ele>
        <time>2014-10-12T10:12:18.000Z</time>
      </trkpt>
      <trkpt lat="47.45641" lon="6.69805">
        <ele>326</ele>
        <time>2014-10-12T10:12:19.000Z</time>
      </trkpt>
      <trkpt lat="47.45637" lon="6.69799">
        <ele>325.8</ele>
        <time>2014-10-12T10:12:20.000Z</time>
      </trkpt>
      <trkpt lat="47.45634" lon="6.69792">
        <ele>325.9</ele>
        <time>2014-10-12T10:12:21.000Z</time>
      </trkpt>
      <trkpt lat="47.4563" lon="6.69787">
        <ele>325.8</ele>
        <time>2014-10-12T10:12:22.000Z</time>
      </trkpt>
      <trkpt lat="47.45626" lon="6.69782">
        <ele>325.3</ele>
        <time>2014-10-12T10:12:23.000Z</time>
      </trkpt>
      <trkpt lat="47.45621" lon="6.69777">
        <ele>325.1</ele>
        <time>2014-10-12T10:12:24.000Z</time>
      </trkpt>
      <trkpt lat="47.45617" lon="6.69773">
        <ele>325.5</ele>
        <time>2014-10-12T10:12:25.000Z</time>
      </trkpt>
      <trkpt lat="47.45613" lon="6.69769">
        <ele>325.2</ele>
        <time>2014-10-12T10:12:26.000Z</time>
      </trkpt>
      <trkpt lat="47.45609" lon="6.69766">
        <ele>324.9</ele>
        <time>2014-10-12T10:12:27.000Z</time>
      </trkpt>
      <trkpt lat="47.45607" lon="6.69763">
        <ele>324.9</ele>
        <time>2014-10-12T10:12:28.000Z</time>
      </trkpt>
      <trkpt lat="47.45605" lon="6.69758">
        <ele>324.8</ele>
        <time>2014-10-12T10:12:30.000Z</time>
      </trkpt>
      <trkpt lat="47.45603" lon="6.69756">
        <ele>325</ele>
        <time>2014-10-12T10:12:31.000Z</time>
      </trkpt>
      <trkpt lat="47.45601" lon="6.69755">
        <ele>325</ele>
        <time>2014-10-12T10:12:32.000Z</time>
      </trkpt>
      <trkpt lat="47.45599" lon="6.69753">
        <ele>324.8</ele>
        <time>2014-10-12T10:12:33.000Z</time>
      </trkpt>
      <trkpt lat="47.45597" lon="6.69753">
        <ele>325.1</ele>
        <time>2014-10-12T10:12:34.000Z</time>
      </trkpt>
      <trkpt lat="47.45593" lon="6.6975">
        <ele>324.5</ele>
        <time>2014-10-12T10:12:35.000Z</time>
      </trkpt>
      <trkpt lat="47.4559" lon="6.69748">
        <ele>324.8</ele>
        <time>2014-10-12T10:12:36.000Z</time>
      </trkpt>
      <trkpt lat="47.45587" lon="6.69746">
        <ele>324.5</ele>
        <time>2014-10-12T10:12:37.000Z</time>
      </trkpt>
      <trkpt lat="47.45585" lon="6.69744">
        <ele>324.8</ele>
        <time>2014-10-12T10:12:38.000Z</time>
      </trkpt>
      <trkpt lat="47.45583" lon="6.69742">
        <ele>324.8</ele>
        <time>2014-10-12T10:12:39.000Z</time>
      </trkpt>
      <trkpt lat="47.45581" lon="6.6974">
        <ele>324.4</ele>
        <time>2014-10-12T10:12:40.000Z</time>
      </trkpt>
      <trkpt lat="47.45578" lon="6.69737">
        <ele>324.7</ele>
        <time>2014-10-12T10:12:41.000Z</time>
      </trkpt>
      <trkpt lat="47.45574" lon="6.69735">
        <ele>325.1</ele>
        <time>2014-10-12T10:12:42.000Z</time>
      </trkpt>
      <trkpt lat="47.45571" lon="6.69732">
        <ele>324.5</ele>
        <time>2014-10-12T10:12:43.000Z</time>
      </trkpt>
      <trkpt lat="47.45567" lon="6.69729">
        <ele>324.2</ele>
        <time>2014-10-12T10:12:44.000Z</time>
      </trkpt>
      <trkpt lat="47.45564" lon="6.69727">
        <ele>323.5</ele>
        <time>2014-10-12T10:12:45.000Z</time>
      </trkpt>
      <trkpt lat="47.4556" lon="6.69724">
        <ele>323</ele>
        <time>2014-10-12T10:12:46.000Z</time>
      </trkpt>
      <trkpt lat="47.45556" lon="6.6972">
        <ele>321.9</ele>
        <time>2014-10-12T10:12:47.000Z</time>
      </trkpt>
      <trkpt lat="47.45543" lon="6.69709">
        <ele>322.7</ele>
        <time>2014-10-12T10:12:50.000Z</time>
      </trkpt>
      <trkpt lat="47.45537" lon="6.69705">
        <ele>322.6</ele>
        <time>2014-10-12T10:12:51.000Z</time>
      </trkpt>
      <trkpt lat="47.4553" lon="6.69699">
        <ele>322.4</ele>
        <time>2014-10-12T10:12:52.000Z</time>
      </trkpt>
      <trkpt lat="47.45525" lon="6.69694">
        <ele>322.3</ele>
        <time>2014-10-12T10:12:52.999Z</time>
      </trkpt>
      <trkpt lat="47.45518" lon="6.69687">
        <ele>322.6</ele>
        <time>2014-10-12T10:12:54.000Z</time>
      </trkpt>
      <trkpt lat="47.45513" lon="6.69681">
        <ele>322.8</ele>
        <time>2014-10-12T10:12:54.998Z</time>
      </trkpt>
      <trkpt lat="47.45507" lon="6.69677">
        <ele>321.4</ele>
        <time>2014-10-12T10:12:56.000Z</time>
      </trkpt>
      <trkpt lat="47.45502" lon="6.69672">
        <ele>320.6</ele>
        <time>2014-10-12T10:12:57.000Z</time>
      </trkpt>
      <trkpt lat="47.45496" lon="6.69667">
        <ele>320</ele>
        <time>2014-10-12T10:12:58.000Z</time>
      </trkpt>
      <trkpt lat="47.45491" lon="6.69663">
        <ele>319.9</ele>
        <time>2014-10-12T10:12:59.000Z</time>
      </trkpt>
      <trkpt lat="47.45486" lon="6.69657">
        <ele>319.6</ele>
        <time>2014-10-12T10:12:59.999Z</time>
      </trkpt>
      <trkpt lat="47.45481" lon="6.69651">
        <ele>320</ele>
        <time>2014-10-12T10:13:01.000Z</time>
      </trkpt>
      <trkpt lat="47.45476" lon="6.69645">
        <ele>320</ele>
        <time>2014-10-12T10:13:01.999Z</time>
      </trkpt>
      <trkpt lat="47.45471" lon="6.69639">
        <ele>319.4</ele>
        <time>2014-10-12T10:13:03.000Z</time>
      </trkpt>
      <trkpt lat="47.45467" lon="6.69632">
        <ele>319</ele>
        <time>2014-10-12T10:13:03.998Z</time>
      </trkpt>
      <trkpt lat="47.45461" lon="6.69625">
        <ele>320.1</ele>
        <time>2014-10-12T10:13:05.000Z</time>
      </trkpt>
      <trkpt lat="47.45457" lon="6.69618">
        <ele>323.1</ele>
        <time>2014-10-12T10:13:06.000Z</time>
      </trkpt>
      <trkpt lat="47.45453" lon="6.69611">
        <ele>325</ele>
        <time>2014-10-12T10:13:06.998Z</time>
      </trkpt>
      <trkpt lat="47.45449" lon="6.69606">
        <ele>324.2</ele>
        <time>2014-10-12T10:13:08.000Z</time>
      </trkpt>
      <trkpt lat="47.45445" lon="6.69599">
        <ele>324.9</ele>
        <time>2014-10-12T10:13:08.999Z</time>
      </trkpt>
      <trkpt lat="47.4544" lon="6.69593">
        <ele>322.9</ele>
        <time>2014-10-12T10:13:10.000Z</time>
      </trkpt>
      <trkpt lat="47.45436" lon="6.69587">
        <ele>322.5</ele>
        <time>2014-10-12T10:13:10.999Z</time>
      </trkpt>
      <trkpt lat="47.45431" lon="6.69581">
        <ele>323.9</ele>
        <time>2014-10-12T10:13:12.000Z</time>
      </trkpt>
      <trkpt lat="47.45427" lon="6.69575">
        <ele>322.5</ele>
        <time>2014-10-12T10:13:13.000Z</time>
      </trkpt>
      <trkpt lat="47.45422" lon="6.69569">
        <ele>321.7</ele>
        <time>2014-10-12T10:13:14.000Z</time>
      </trkpt>
      <trkpt lat="47.45418" lon="6.69562">
        <ele>320.7</ele>
        <time>2014-10-12T10:13:15.000Z</time>
      </trkpt>
      <trkpt lat="47.45413" lon="6.69557">
        <ele>320</ele>
        <time>2014-10-12T10:13:15.998Z</time>
      </trkpt>
      <trkpt lat="47.45409" lon="6.69551">
        <ele>321.4</ele>
        <time>2014-10-12T10:13:17.000Z</time>
      </trkpt>
      <trkpt lat="47.45405" lon="6.69546">
        <ele>321.5</ele>
        <time>2014-10-12T10:13:17.999Z</time>
      </trkpt>
      <trkpt lat="47.45401" lon="6.69542">
        <ele>323.9</ele>
        <time>2014-10-12T10:13:19.000Z</time>
      </trkpt>
      <trkpt lat="47.45397" lon="6.69537">
        <ele>326.3</ele>
        <time>2014-10-12T10:13:20.032Z</time>
      </trkpt>
      <trkpt lat="47.45393" lon="6.6953">
        <ele>324.8</ele>
        <time>2014-10-12T10:13:21.000Z</time>
      </trkpt>
      <trkpt lat="47.45389" lon="6.69524">
        <ele>324</ele>
        <time>2014-10-12T10:13:22.000Z</time>
      </trkpt>
      <trkpt lat="47.45384" lon="6.69518">
        <ele>323.8</ele>
        <time>2014-10-12T10:13:22.998Z</time>
      </trkpt>
      <trkpt lat="47.4538" lon="6.69512">
        <ele>323.4</ele>
        <time>2014-10-12T10:13:24.000Z</time>
      </trkpt>
      <trkpt lat="47.45376" lon="6.69507">
        <ele>323.2</ele>
        <time>2014-10-12T10:13:24.999Z</time>
      </trkpt>
      <trkpt lat="47.4537" lon="6.69502">
        <ele>320.6</ele>
        <time>2014-10-12T10:13:26.000Z</time>
      </trkpt>
      <trkpt lat="47.45365" lon="6.69496">
        <ele>320</ele>
        <time>2014-10-12T10:13:26.998Z</time>
      </trkpt>
      <trkpt lat="47.45362" lon="6.69492">
        <ele>318.4</ele>
        <time>2014-10-12T10:13:28.000Z</time>
      </trkpt>
      <trkpt lat="47.45356" lon="6.69485">
        <ele>318.3</ele>
        <time>2014-10-12T10:13:29.000Z</time>
      </trkpt>
      <trkpt lat="47.45352" lon="6.69479">
        <ele>317.9</ele>
        <time>2014-10-12T10:13:30.000Z</time>
      </trkpt>
      <trkpt lat="47.45347" lon="6.69472">
        <ele>317</ele>
        <time>2014-10-12T10:13:31.000Z</time>
      </trkpt>
      <trkpt lat="47.45343" lon="6.69466">
        <ele>316</ele>
        <time>2014-10-12T10:13:31.998Z</time>
      </trkpt>
      <trkpt lat="47.45339" lon="6.69458">
        <ele>316.4</ele>
        <time>2014-10-12T10:13:33.000Z</time>
      </trkpt>
      <trkpt lat="47.45335" lon="6.69451">
        <ele>316.1</ele>
        <time>2014-10-12T10:13:33.998Z</time>
      </trkpt>
      <trkpt lat="47.4533" lon="6.69444">
        <ele>316.4</ele>
        <time>2014-10-12T10:13:35.000Z</time>
      </trkpt>
      <trkpt lat="47.45326" lon="6.69437">
        <ele>316.4</ele>
        <time>2014-10-12T10:13:35.997Z</time>
      </trkpt>
      <trkpt lat="47.45323" lon="6.69431">
        <ele>317</ele>
        <time>2014-10-12T10:13:37.000Z</time>
      </trkpt>
      <trkpt lat="47.4532" lon="6.69424">
        <ele>317.4</ele>
        <time>2014-10-12T10:13:38.000Z</time>
      </trkpt>
      <trkpt lat="47.45316" lon="6.69417">
        <ele>317.7</ele>
        <time>2014-10-12T10:13:38.998Z</time>
      </trkpt>
      <trkpt lat="47.45313" lon="6.69409">
        <ele>317.3</ele>
        <time>2014-10-12T10:13:40.000Z</time>
      </trkpt>
      <trkpt lat="47.45309" lon="6.69402">
        <ele>317.1</ele>
        <time>2014-10-12T10:13:40.998Z</time>
      </trkpt>
      <trkpt lat="47.45305" lon="6.69394">
        <ele>317.1</ele>
        <time>2014-10-12T10:13:42.000Z</time>
      </trkpt>
      <trkpt lat="47.45302" lon="6.69386">
        <ele>316.9</ele>
        <time>2014-10-12T10:13:42.998Z</time>
      </trkpt>
      <trkpt lat="47.45298" lon="6.69379">
        <ele>316.9</ele>
        <time>2014-10-12T10:13:44.000Z</time>
      </trkpt>
      <trkpt lat="47.45294" lon="6.69371">
        <ele>316.6</ele>
        <time>2014-10-12T10:13:45.000Z</time>
      </trkpt>
      <trkpt lat="47.45291" lon="6.69364">
        <ele>316.3</ele>
        <time>2014-10-12T10:13:46.000Z</time>
      </trkpt>
      <trkpt lat="47.45286" lon="6.69357">
        <ele>316.3</ele>
        <time>2014-10-12T10:13:47.000Z</time>
      </trkpt>
      <trkpt lat="47.45278" lon="6.6934">
        <ele>316.3</ele>
        <time>2014-10-12T10:13:50.000Z</time>
      </trkpt>
      <trkpt lat="47.45275" lon="6.69334">
        <ele>315.8</ele>
        <time>2014-10-12T10:13:51.000Z</time>
      </trkpt>
      <trkpt lat="47.45273" lon="6.69327">
        <ele>315.7</ele>
        <time>2014-10-12T10:13:52.000Z</time>
      </trkpt>
      <trkpt lat="47.45269" lon="6.69322">
        <ele>315.6</ele>
        <time>2014-10-12T10:13:53.000Z</time>
      </trkpt>
      <trkpt lat="47.45267" lon="6.69316">
        <ele>316.5</ele>
        <time>2014-10-12T10:13:54.000Z</time>
      </trkpt>
      <trkpt lat="47.45264" lon="6.6931">
        <ele>317.8</ele>
        <time>2014-10-12T10:13:55.000Z</time>
      </trkpt>
      <trkpt lat="47.45261" lon="6.69304">
        <ele>317.7</ele>
        <time>2014-10-12T10:13:56.000Z</time>
      </trkpt>
      <trkpt lat="47.45258" lon="6.69299">
        <ele>317.6</ele>
        <time>2014-10-12T10:13:57.000Z</time>
      </trkpt>
      <trkpt lat="47.45255" lon="6.69293">
        <ele>317.5</ele>
        <time>2014-10-12T10:13:58.000Z</time>
      </trkpt>
      <trkpt lat="47.45252" lon="6.69288">
        <ele>316.9</ele>
        <time>2014-10-12T10:13:59.000Z</time>
      </trkpt>
      <trkpt lat="47.45249" lon="6.69282">
        <ele>317.7</ele>
        <time>2014-10-12T10:14:00.000Z</time>
      </trkpt>
      <trkpt lat="47.45246" lon="6.69275">
        <ele>317.8</ele>
        <time>2014-10-12T10:14:01.000Z</time>
      </trkpt>
      <trkpt lat="47.45243" lon="6.6927">
        <ele>316.3</ele>
        <time>2014-10-12T10:14:02.000Z</time>
      </trkpt>
      <trkpt lat="47.45242" lon="6.69265">
        <ele>316</ele>
        <time>2014-10-12T10:14:03.000Z</time>
      </trkpt>
      <trkpt lat="47.45239" lon="6.6926">
        <ele>316.2</ele>
        <time>2014-10-12T10:14:04.000Z</time>
      </trkpt>
      <trkpt lat="47.45237" lon="6.69255">
        <ele>316.4</ele>
        <time>2014-10-12T10:14:05.000Z</time>
      </trkpt>
      <trkpt lat="47.45235" lon="6.6925">
        <ele>317.5</ele>
        <time>2014-10-12T10:14:06.000Z</time>
      </trkpt>
      <trkpt lat="47.45233" lon="6.69245">
        <ele>316.7</ele>
        <time>2014-10-12T10:14:07.000Z</time>
      </trkpt>
      <trkpt lat="47.45231" lon="6.69241">
        <ele>316</ele>
        <time>2014-10-12T10:14:08.000Z</time>
      </trkpt>
      <trkpt lat="47.45229" lon="6.69236">
        <ele>315.7</ele>
        <time>2014-10-12T10:14:09.000Z</time>
      </trkpt>
      <trkpt lat="47.45227" lon="6.69231">
        <ele>315.8</ele>
        <time>2014-10-12T10:14:10.000Z</time>
      </trkpt>
      <trkpt lat="47.45224" lon="6.69227">
        <ele>316.8</ele>
        <time>2014-10-12T10:14:11.000Z</time>
      </trkpt>
      <trkpt lat="47.45222" lon="6.69223">
        <ele>316.3</ele>
        <time>2014-10-12T10:14:12.000Z</time>
      </trkpt>
      <trkpt lat="47.4522" lon="6.69218">
        <ele>316.2</ele>
        <time>2014-10-12T10:14:13.000Z</time>
      </trkpt>
      <trkpt lat="47.45218" lon="6.69214">
        <ele>316.1</ele>
        <time>2014-10-12T10:14:14.000Z</time>
      </trkpt>
      <trkpt lat="47.45214" lon="6.69207">
        <ele>315.7</ele>
        <time>2014-10-12T10:14:15.000Z</time>
      </trkpt>
      <trkpt lat="47.45211" lon="6.69201">
        <ele>315.2</ele>
        <time>2014-10-12T10:14:16.000Z</time>
      </trkpt>
      <trkpt lat="47.45209" lon="6.69193">
        <ele>315</ele>
        <time>2014-10-12T10:14:17.000Z</time>
      </trkpt>
      <trkpt lat="47.45206" lon="6.69187">
        <ele>315</ele>
        <time>2014-10-12T10:14:18.000Z</time>
      </trkpt>
      <trkpt lat="47.45203" lon="6.69179">
        <ele>314.2</ele>
        <time>2014-10-12T10:14:19.000Z</time>
      </trkpt>
      <trkpt lat="47.452" lon="6.69172">
        <ele>314.4</ele>
        <time>2014-10-12T10:14:20.000Z</time>
      </trkpt>
      <trkpt lat="47.45197" lon="6.69165">
        <ele>314.4</ele>
        <time>2014-10-12T10:14:21.000Z</time>
      </trkpt>
      <trkpt lat="47.45194" lon="6.69157">
        <ele>314.3</ele>
        <time>2014-10-12T10:14:22.000Z</time>
      </trkpt>
      <trkpt lat="47.4519" lon="6.69149">
        <ele>313.3</ele>
        <time>2014-10-12T10:14:23.000Z</time>
      </trkpt>
      <trkpt lat="47.45186" lon="6.69142">
        <ele>312</ele>
        <time>2014-10-12T10:14:24.000Z</time>
      </trkpt>
      <trkpt lat="47.45184" lon="6.69134">
        <ele>310.6</ele>
        <time>2014-10-12T10:14:25.000Z</time>
      </trkpt>
      <trkpt lat="47.45185" lon="6.69127">
        <ele>310.3</ele>
        <time>2014-10-12T10:14:26.000Z</time>
      </trkpt>
      <trkpt lat="47.45192" lon="6.69124">
        <ele>311.3</ele>
        <time>2014-10-12T10:14:27.000Z</time>
      </trkpt>
      <trkpt lat="47.45197" lon="6.6912">
        <ele>312</ele>
        <time>2014-10-12T10:14:28.000Z</time>
      </trkpt>
      <trkpt lat="47.45202" lon="6.69115">
        <ele>313</ele>
        <time>2014-10-12T10:14:29.000Z</time>
      </trkpt>
      <trkpt lat="47.45207" lon="6.6911">
        <ele>312.5</ele>
        <time>2014-10-12T10:14:30.000Z</time>
      </trkpt>
      <trkpt lat="47.45212" lon="6.69105">
        <ele>311.7</ele>
        <time>2014-10-12T10:14:31.000Z</time>
      </trkpt>
      <trkpt lat="47.45216" lon="6.69099">
        <ele>311.3</ele>
        <time>2014-10-12T10:14:32.000Z</time>
      </trkpt>
      <trkpt lat="47.45221" lon="6.69093">
        <ele>310.9</ele>
        <time>2014-10-12T10:14:33.000Z</time>
      </trkpt>
      <trkpt lat="47.45226" lon="6.69087">
        <ele>310.5</ele>
        <time>2014-10-12T10:14:34.000Z</time>
      </trkpt>
      <trkpt lat="47.4523" lon="6.69083">
        <ele>310.4</ele>
        <time>2014-10-12T10:14:35.000Z</time>
      </trkpt>
      <trkpt lat="47.45235" lon="6.69077">
        <ele>310.5</ele>
        <time>2014-10-12T10:14:36.000Z</time>
      </trkpt>
      <trkpt lat="47.4524" lon="6.69073">
        <ele>310.7</ele>
        <time>2014-10-12T10:14:37.000Z</time>
      </trkpt>
      <trkpt lat="47.45244" lon="6.69067">
        <ele>311</ele>
        <time>2014-10-12T10:14:38.000Z</time>
      </trkpt>
      <trkpt lat="47.45249" lon="6.69063">
        <ele>311.6</ele>
        <time>2014-10-12T10:14:39.000Z</time>
      </trkpt>
      <trkpt lat="47.45252" lon="6.69058">
        <ele>311.3</ele>
        <time>2014-10-12T10:14:40.000Z</time>
      </trkpt>
      <trkpt lat="47.45257" lon="6.69054">
        <ele>311.4</ele>
        <time>2014-10-12T10:14:41.000Z</time>
      </trkpt>
      <trkpt lat="47.45261" lon="6.6905">
        <ele>311.6</ele>
        <time>2014-10-12T10:14:42.000Z</time>
      </trkpt>
      <trkpt lat="47.45265" lon="6.69048">
        <ele>311.3</ele>
        <time>2014-10-12T10:14:43.000Z</time>
      </trkpt>
      <trkpt lat="47.45271" lon="6.69044">
        <ele>311.5</ele>
        <time>2014-10-12T10:14:44.000Z</time>
      </trkpt>
      <trkpt lat="47.45276" lon="6.69042">
        <ele>311.9</ele>
        <time>2014-10-12T10:14:45.000Z</time>
      </trkpt>
      <trkpt lat="47.45281" lon="6.69039">
        <ele>311.9</ele>
        <time>2014-10-12T10:14:46.000Z</time>
      </trkpt>
      <trkpt lat="47.45286" lon="6.69036">
        <ele>312.7</ele>
        <time>2014-10-12T10:14:47.000Z</time>
      </trkpt>
      <trkpt lat="47.45297" lon="6.69032">
        <ele>312.4</ele>
        <time>2014-10-12T10:14:50.000Z</time>
      </trkpt>
      <trkpt lat="47.45303" lon="6.69029">
        <ele>312</ele>
        <time>2014-10-12T10:14:51.000Z</time>
      </trkpt>
      <trkpt lat="47.45307" lon="6.69025">
        <ele>310.1</ele>
        <time>2014-10-12T10:14:52.000Z</time>
      </trkpt>
      <trkpt lat="47.45313" lon="6.69022">
        <ele>310.6</ele>
        <time>2014-10-12T10:14:53.000Z</time>
      </trkpt>
      <trkpt lat="47.45316" lon="6.69021">
        <ele>308.3</ele>
        <time>2014-10-12T10:14:54.000Z</time>
      </trkpt>
      <trkpt lat="47.45321" lon="6.6902">
        <ele>307.6</ele>
        <time>2014-10-12T10:14:55.000Z</time>
      </trkpt>
      <trkpt lat="47.45325" lon="6.69018">
        <ele>306.3</ele>
        <time>2014-10-12T10:14:56.000Z</time>
      </trkpt>
      <trkpt lat="47.4533" lon="6.69015">
        <ele>306.6</ele>
        <time>2014-10-12T10:14:57.000Z</time>
      </trkpt>
      <trkpt lat="47.45335" lon="6.69013">
        <ele>306.7</ele>
        <time>2014-10-12T10:14:58.000Z</time>
      </trkpt>
      <trkpt lat="47.45339" lon="6.69011">
        <ele>307.4</ele>
        <time>2014-10-12T10:14:59.000Z</time>
      </trkpt>
      <trkpt lat="47.45344" lon="6.69008">
        <ele>307.7</ele>
        <time>2014-10-12T10:15:00.000Z</time>
      </trkpt>
      <trkpt lat="47.45349" lon="6.69006">
        <ele>307.5</ele>
        <time>2014-10-12T10:15:01.060Z</time>
      </trkpt>
      <trkpt lat="47.45355" lon="6.69001">
        <ele>308.6</ele>
        <time>2014-10-12T10:15:02.000Z</time>
      </trkpt>
      <trkpt lat="47.45361" lon="6.68996">
        <ele>310.6</ele>
        <time>2014-10-12T10:15:03.000Z</time>
      </trkpt>
      <trkpt lat="47.45366" lon="6.68992">
        <ele>311.4</ele>
        <time>2014-10-12T10:15:04.000Z</time>
      </trkpt>
      <trkpt lat="47.4537" lon="6.68988">
        <ele>311.7</ele>
        <time>2014-10-12T10:15:05.000Z</time>
      </trkpt>
      <trkpt lat="47.45375" lon="6.68983">
        <ele>312</ele>
        <time>2014-10-12T10:15:06.000Z</time>
      </trkpt>
      <trkpt lat="47.4538" lon="6.68979">
        <ele>311.2</ele>
        <time>2014-10-12T10:15:07.000Z</time>
      </trkpt>
      <trkpt lat="47.45385" lon="6.68975">
        <ele>311.2</ele>
        <time>2014-10-12T10:15:08.000Z</time>
      </trkpt>
      <trkpt lat="47.45389" lon="6.68971">
        <ele>311.5</ele>
        <time>2014-10-12T10:15:09.000Z</time>
      </trkpt>
      <trkpt lat="47.45394" lon="6.68968">
        <ele>311.6</ele>
        <time>2014-10-12T10:15:09.982Z</time>
      </trkpt>
      <trkpt lat="47.45398" lon="6.68965">
        <ele>311.2</ele>
        <time>2014-10-12T10:15:11.000Z</time>
      </trkpt>
      <trkpt lat="47.45402" lon="6.68962">
        <ele>310.2</ele>
        <time>2014-10-12T10:15:12.000Z</time>
      </trkpt>
      <trkpt lat="47.45406" lon="6.68958">
        <ele>309.6</ele>
        <time>2014-10-12T10:15:13.000Z</time>
      </trkpt>
      <trkpt lat="47.4541" lon="6.68955">
        <ele>309.4</ele>
        <time>2014-10-12T10:15:14.000Z</time>
      </trkpt>
      <trkpt lat="47.45415" lon="6.68951">
        <ele>309</ele>
        <time>2014-10-12T10:15:15.000Z</time>
      </trkpt>
      <trkpt lat="47.45418" lon="6.6895">
        <ele>309.2</ele>
        <time>2014-10-12T10:15:16.000Z</time>
      </trkpt>
      <trkpt lat="47.45423" lon="6.68944">
        <ele>309.2</ele>
        <time>2014-10-12T10:15:17.000Z</time>
      </trkpt>
      <trkpt lat="47.45427" lon="6.68941">
        <ele>309.2</ele>
        <time>2014-10-12T10:15:18.000Z</time>
      </trkpt>
      <trkpt lat="47.45431" lon="6.68937">
        <ele>309.3</ele>
        <time>2014-10-12T10:15:18.999Z</time>
      </trkpt>
      <trkpt lat="47.45435" lon="6.68931">
        <ele>310.6</ele>
        <time>2014-10-12T10:15:20.000Z</time>
      </trkpt>
      <trkpt lat="47.45438" lon="6.68925">
        <ele>308.9</ele>
        <time>2014-10-12T10:15:21.000Z</time>
      </trkpt>
      <trkpt lat="47.45442" lon="6.6892">
        <ele>308</ele>
        <time>2014-10-12T10:15:22.000Z</time>
      </trkpt>
      <trkpt lat="47.45447" lon="6.68917">
        <ele>308</ele>
        <time>2014-10-12T10:15:23.000Z</time>
      </trkpt>
      <trkpt lat="47.45445" lon="6.68922">
        <ele>302.7</ele>
        <time>2014-10-12T10:15:24.000Z</time>
      </trkpt>
      <trkpt lat="47.45447" lon="6.68923">
        <ele>301.5</ele>
        <time>2014-10-12T10:15:25.000Z</time>
      </trkpt>
      <trkpt lat="47.45452" lon="6.68919">
        <ele>301.1</ele>
        <time>2014-10-12T10:15:26.000Z</time>
      </trkpt>
      <trkpt lat="47.45456" lon="6.68916">
        <ele>300.9</ele>
        <time>2014-10-12T10:15:27.000Z</time>
      </trkpt>
      <trkpt lat="47.45461" lon="6.68911">
        <ele>301.2</ele>
        <time>2014-10-12T10:15:28.000Z</time>
      </trkpt>
      <trkpt lat="47.45466" lon="6.68909">
        <ele>300.5</ele>
        <time>2014-10-12T10:15:29.000Z</time>
      </trkpt>
      <trkpt lat="47.45471" lon="6.68907">
        <ele>299.7</ele>
        <time>2014-10-12T10:15:30.000Z</time>
      </trkpt>
      <trkpt lat="47.45476" lon="6.68905">
        <ele>299.3</ele>
        <time>2014-10-12T10:15:31.000Z</time>
      </trkpt>
      <trkpt lat="47.45478" lon="6.68899">
        <ele>298.1</ele>
        <time>2014-10-12T10:15:32.000Z</time>
      </trkpt>
      <trkpt lat="47.45482" lon="6.68895">
        <ele>297.8</ele>
        <time>2014-10-12T10:15:33.000Z</time>
      </trkpt>
      <trkpt lat="47.45486" lon="6.6889">
        <ele>297.7</ele>
        <time>2014-10-12T10:15:34.000Z</time>
      </trkpt>
      <trkpt lat="47.4549" lon="6.68885">
        <ele>298.8</ele>
        <time>2014-10-12T10:15:35.000Z</time>
      </trkpt>
      <trkpt lat="47.45493" lon="6.68882">
        <ele>299.1</ele>
        <time>2014-10-12T10:15:35.999Z</time>
      </trkpt>
      <trkpt lat="47.45496" lon="6.68879">
        <ele>296.1</ele>
        <time>2014-10-12T10:15:37.000Z</time>
      </trkpt>
      <trkpt lat="47.45498" lon="6.68876">
        <ele>294.3</ele>
        <time>2014-10-12T10:15:38.000Z</time>
      </trkpt>
      <trkpt lat="47.45501" lon="6.68873">
        <ele>293.8</ele>
        <time>2014-10-12T10:15:39.000Z</time>
      </trkpt>
      <trkpt lat="47.45504" lon="6.68871">
        <ele>294.4</ele>
        <time>2014-10-12T10:15:40.000Z</time>
      </trkpt>
      <trkpt lat="47.45507" lon="6.68868">
        <ele>296</ele>
        <time>2014-10-12T10:15:41.000Z</time>
      </trkpt>
      <trkpt lat="47.4551" lon="6.68865">
        <ele>296.9</ele>
        <time>2014-10-12T10:15:42.000Z</time>
      </trkpt>
      <trkpt lat="47.45513" lon="6.68864">
        <ele>297.7</ele>
        <time>2014-10-12T10:15:43.000Z</time>
      </trkpt>
      <trkpt lat="47.45515" lon="6.68864">
        <ele>298.4</ele>
        <time>2014-10-12T10:15:44.000Z</time>
      </trkpt>
      <trkpt lat="47.45519" lon="6.68865">
        <ele>300.5</ele>
        <time>2014-10-12T10:15:45.000Z</time>
      </trkpt>
      <trkpt lat="47.45522" lon="6.68868">
        <ele>303</ele>
        <time>2014-10-12T10:15:46.000Z</time>
      </trkpt>
      <trkpt lat="47.45524" lon="6.68871">
        <ele>304.4</ele>
        <time>2014-10-12T10:15:47.000Z</time>
      </trkpt>
      <trkpt lat="47.4553" lon="6.68878">
        <ele>305.1</ele>
        <time>2014-10-12T10:15:50.000Z</time>
      </trkpt>
      <trkpt lat="47.45532" lon="6.68881">
        <ele>305.6</ele>
        <time>2014-10-12T10:15:51.000Z</time>
      </trkpt>
      <trkpt lat="47.45534" lon="6.68883">
        <ele>306.1</ele>
        <time>2014-10-12T10:15:52.000Z</time>
      </trkpt>
      <trkpt lat="47.45537" lon="6.68887">
        <ele>308.1</ele>
        <time>2014-10-12T10:15:53.000Z</time>
      </trkpt>
      <trkpt lat="47.45541" lon="6.68891">
        <ele>309.1</ele>
        <time>2014-10-12T10:15:54.000Z</time>
      </trkpt>
      <trkpt lat="47.45544" lon="6.68894">
        <ele>308</ele>
        <time>2014-10-12T10:15:55.000Z</time>
      </trkpt>
      <trkpt lat="47.45548" lon="6.68896">
        <ele>307.4</ele>
        <time>2014-10-12T10:15:56.000Z</time>
      </trkpt>
      <trkpt lat="47.45551" lon="6.68899">
        <ele>310.5</ele>
        <time>2014-10-12T10:15:57.000Z</time>
      </trkpt>
      <trkpt lat="47.45555" lon="6.68902">
        <ele>311.4</ele>
        <time>2014-10-12T10:15:58.000Z</time>
      </trkpt>
      <trkpt lat="47.45558" lon="6.68905">
        <ele>311.3</ele>
        <time>2014-10-12T10:15:59.000Z</time>
      </trkpt>
      <trkpt lat="47.45561" lon="6.68909">
        <ele>311.9</ele>
        <time>2014-10-12T10:16:00.000Z</time>
      </trkpt>
      <trkpt lat="47.45564" lon="6.68912">
        <ele>312.5</ele>
        <time>2014-10-12T10:16:01.000Z</time>
      </trkpt>
      <trkpt lat="47.45567" lon="6.68914">
        <ele>313.1</ele>
        <time>2014-10-12T10:16:02.000Z</time>
      </trkpt>
      <trkpt lat="47.4557" lon="6.68917">
        <ele>313</ele>
        <time>2014-10-12T10:16:03.000Z</time>
      </trkpt>
      <trkpt lat="47.45573" lon="6.68919">
        <ele>314.1</ele>
        <time>2014-10-12T10:16:04.000Z</time>
      </trkpt>
      <trkpt lat="47.45576" lon="6.68921">
        <ele>313.9</ele>
        <time>2014-10-12T10:16:05.000Z</time>
      </trkpt>
      <trkpt lat="47.45579" lon="6.68924">
        <ele>313</ele>
        <time>2014-10-12T10:16:06.000Z</time>
      </trkpt>
      <trkpt lat="47.45582" lon="6.68927">
        <ele>312.5</ele>
        <time>2014-10-12T10:16:07.000Z</time>
      </trkpt>
      <trkpt lat="47.45586" lon="6.68931">
        <ele>313.9</ele>
        <time>2014-10-12T10:16:08.000Z</time>
      </trkpt>
      <trkpt lat="47.45589" lon="6.68934">
        <ele>314.3</ele>
        <time>2014-10-12T10:16:09.000Z</time>
      </trkpt>
      <trkpt lat="47.45593" lon="6.68937">
        <ele>314</ele>
        <time>2014-10-12T10:16:10.000Z</time>
      </trkpt>
      <trkpt lat="47.45596" lon="6.6894">
        <ele>313.5</ele>
        <time>2014-10-12T10:16:11.000Z</time>
      </trkpt>
      <trkpt lat="47.45599" lon="6.68943">
        <ele>313</ele>
        <time>2014-10-12T10:16:12.000Z</time>
      </trkpt>
      <trkpt lat="47.45601" lon="6.68946">
        <ele>313.6</ele>
        <time>2014-10-12T10:16:13.000Z</time>
      </trkpt>
      <trkpt lat="47.45604" lon="6.68949">
        <ele>313.8</ele>
        <time>2014-10-12T10:16:14.000Z</time>
      </trkpt>
      <trkpt lat="47.45607" lon="6.68952">
        <ele>313.3</ele>
        <time>2014-10-12T10:16:15.000Z</time>
      </trkpt>
      <trkpt lat="47.4561" lon="6.68956">
        <ele>313.5</ele>
        <time>2014-10-12T10:16:16.000Z</time>
      </trkpt>
      <trkpt lat="47.45613" lon="6.68959">
        <ele>313.1</ele>
        <time>2014-10-12T10:16:17.000Z</time>
      </trkpt>
      <trkpt lat="47.45615" lon="6.68963">
        <ele>312.3</ele>
        <time>2014-10-12T10:16:18.000Z</time>
      </trkpt>
      <trkpt lat="47.45618" lon="6.68967">
        <ele>313.3</ele>
        <time>2014-10-12T10:16:19.000Z</time>
      </trkpt>
      <trkpt lat="47.45621" lon="6.6897">
        <ele>314.9</ele>
        <time>2014-10-12T10:16:20.000Z</time>
      </trkpt>
      <trkpt lat="47.45625" lon="6.68973">
        <ele>315.5</ele>
        <time>2014-10-12T10:16:21.000Z</time>
      </trkpt>
      <trkpt lat="47.45628" lon="6.68976">
        <ele>315.7</ele>
        <time>2014-10-12T10:16:22.000Z</time>
      </trkpt>
      <trkpt lat="47.45631" lon="6.68979">
        <ele>315.6</ele>
        <time>2014-10-12T10:16:23.000Z</time>
      </trkpt>
      <trkpt lat="47.45635" lon="6.68982">
        <ele>315.7</ele>
        <time>2014-10-12T10:16:24.000Z</time>
      </trkpt>
      <trkpt lat="47.45638" lon="6.68985">
        <ele>314.9</ele>
        <time>2014-10-12T10:16:25.000Z</time>
      </trkpt>
      <trkpt lat="47.45641" lon="6.68988">
        <ele>315.1</ele>
        <time>2014-10-12T10:16:26.000Z</time>
      </trkpt>
      <trkpt lat="47.45645" lon="6.68992">
        <ele>314</ele>
        <time>2014-10-12T10:16:27.000Z</time>
      </trkpt>
      <trkpt lat="47.45648" lon="6.68995">
        <ele>313.2</ele>
        <time>2014-10-12T10:16:28.000Z</time>
      </trkpt>
      <trkpt lat="47.45651" lon="6.68999">
        <ele>312.6</ele>
        <time>2014-10-12T10:16:29.000Z</time>
      </trkpt>
      <trkpt lat="47.45654" lon="6.69003">
        <ele>311.3</ele>
        <time>2014-10-12T10:16:30.000Z</time>
      </trkpt>
      <trkpt lat="47.45657" lon="6.69006">
        <ele>311.8</ele>
        <time>2014-10-12T10:16:31.000Z</time>
      </trkpt>
      <trkpt lat="47.4566" lon="6.6901">
        <ele>311.5</ele>
        <time>2014-10-12T10:16:32.000Z</time>
      </trkpt>
      <trkpt lat="47.45662" lon="6.69013">
        <ele>313.1</ele>
        <time>2014-10-12T10:16:33.000Z</time>
      </trkpt>
      <trkpt lat="47.45665" lon="6.69016">
        <ele>313.3</ele>
        <time>2014-10-12T10:16:34.000Z</time>
      </trkpt>
      <trkpt lat="47.45668" lon="6.6902">
        <ele>313.2</ele>
        <time>2014-10-12T10:16:35.000Z</time>
      </trkpt>
      <trkpt lat="47.45671" lon="6.69023">
        <ele>312.5</ele>
        <time>2014-10-12T10:16:36.000Z</time>
      </trkpt>
      <trkpt lat="47.45674" lon="6.69026">
        <ele>312.7</ele>
        <time>2014-10-12T10:16:37.000Z</time>
      </trkpt>
      <trkpt lat="47.45677" lon="6.69029">
        <ele>312.4</ele>
        <time>2014-10-12T10:16:38.000Z</time>
      </trkpt>
      <trkpt lat="47.4568" lon="6.69032">
        <ele>312.5</ele>
        <time>2014-10-12T10:16:38.999Z</time>
      </trkpt>
      <trkpt lat="47.45683" lon="6.69036">
        <ele>312.1</ele>
        <time>2014-10-12T10:16:40.000Z</time>
      </trkpt>
      <trkpt lat="47.45685" lon="6.69039">
        <ele>312</ele>
        <time>2014-10-12T10:16:41.000Z</time>
      </trkpt>
      <trkpt lat="47.45688" lon="6.69043">
        <ele>311.6</ele>
        <time>2014-10-12T10:16:42.000Z</time>
      </trkpt>
      <trkpt lat="47.45691" lon="6.69046">
        <ele>311.3</ele>
        <time>2014-10-12T10:16:43.000Z</time>
      </trkpt>
      <trkpt lat="47.45694" lon="6.69049">
        <ele>311.2</ele>
        <time>2014-10-12T10:16:44.000Z</time>
      </trkpt>
      <trkpt lat="47.45696" lon="6.69052">
        <ele>311.1</ele>
        <time>2014-10-12T10:16:45.000Z</time>
      </trkpt>
      <trkpt lat="47.45699" lon="6.69055">
        <ele>310.6</ele>
        <time>2014-10-12T10:16:46.000Z</time>
      </trkpt>
      <trkpt lat="47.45702" lon="6.69059">
        <ele>310.8</ele>
        <time>2014-10-12T10:16:47.000Z</time>
      </trkpt>
      <trkpt lat="47.45705" lon="6.69062">
        <ele>310.9</ele>
        <time>2014-10-12T10:16:48.000Z</time>
      </trkpt>
      <trkpt lat="47.45713" lon="6.69071">
        <ele>311.9</ele>
        <time>2014-10-12T10:16:51.000Z</time>
      </trkpt>
      <trkpt lat="47.45716" lon="6.69073">
        <ele>310.8</ele>
        <time>2014-10-12T10:16:52.000Z</time>
      </trkpt>
      <trkpt lat="47.45718" lon="6.69076">
        <ele>310.5</ele>
        <time>2014-10-12T10:16:53.000Z</time>
      </trkpt>
      <trkpt lat="47.45721" lon="6.69079">
        <ele>310.1</ele>
        <time>2014-10-12T10:16:54.000Z</time>
      </trkpt>
      <trkpt lat="47.45724" lon="6.69082">
        <ele>311.5</ele>
        <time>2014-10-12T10:16:55.000Z</time>
      </trkpt>
      <trkpt lat="47.45727" lon="6.69085">
        <ele>312.1</ele>
        <time>2014-10-12T10:16:56.000Z</time>
      </trkpt>
      <trkpt lat="47.45731" lon="6.69089">
        <ele>312.2</ele>
        <time>2014-10-12T10:16:57.000Z</time>
      </trkpt>
      <trkpt lat="47.45734" lon="6.69092">
        <ele>312.4</ele>
        <time>2014-10-12T10:16:58.000Z</time>
      </trkpt>
      <trkpt lat="47.45737" lon="6.69095">
        <ele>311.8</ele>
        <time>2014-10-12T10:16:59.000Z</time>
      </trkpt>
      <trkpt lat="47.4574" lon="6.69099">
        <ele>311.7</ele>
        <time>2014-10-12T10:17:00.000Z</time>
      </trkpt>
      <trkpt lat="47.45743" lon="6.69102">
        <ele>311.9</ele>
        <time>2014-10-12T10:17:01.000Z</time>
      </trkpt>
      <trkpt lat="47.45745" lon="6.69106">
        <ele>311.9</ele>
        <time>2014-10-12T10:17:02.000Z</time>
      </trkpt>
      <trkpt lat="47.45748" lon="6.69109">
        <ele>311.8</ele>
        <time>2014-10-12T10:17:03.000Z</time>
      </trkpt>
      <trkpt lat="47.45751" lon="6.69112">
        <ele>312.3</ele>
        <time>2014-10-12T10:17:04.000Z</time>
      </trkpt>
      <trkpt lat="47.45754" lon="6.69115">
        <ele>312.8</ele>
        <time>2014-10-12T10:17:05.000Z</time>
      </trkpt>
      <trkpt lat="47.45757" lon="6.69118">
        <ele>312.7</ele>
        <time>2014-10-12T10:17:06.000Z</time>
      </trkpt>
      <trkpt lat="47.4576" lon="6.69121">
        <ele>312.6</ele>
        <time>2014-10-12T10:17:07.000Z</time>
      </trkpt>
      <trkpt lat="47.45763" lon="6.69125">
        <ele>312.1</ele>
        <time>2014-10-12T10:17:08.000Z</time>
      </trkpt>
      <trkpt lat="47.45766" lon="6.69128">
        <ele>312.3</ele>
        <time>2014-10-12T10:17:09.000Z</time>
      </trkpt>
      <trkpt lat="47.45769" lon="6.69131">
        <ele>312.6</ele>
        <time>2014-10-12T10:17:10.000Z</time>
      </trkpt>
      <trkpt lat="47.45771" lon="6.69135">
        <ele>311.8</ele>
        <time>2014-10-12T10:17:11.000Z</time>
      </trkpt>
      <trkpt lat="47.45775" lon="6.69138">
        <ele>311.4</ele>
        <time>2014-10-12T10:17:12.000Z</time>
      </trkpt>
      <trkpt lat="47.45778" lon="6.69141">
        <ele>311.2</ele>
        <time>2014-10-12T10:17:13.000Z</time>
      </trkpt>
      <trkpt lat="47.4578" lon="6.69144">
        <ele>310.5</ele>
        <time>2014-10-12T10:17:14.000Z</time>
      </trkpt>
      <trkpt lat="47.45783" lon="6.69147">
        <ele>310.9</ele>
        <time>2014-10-12T10:17:15.000Z</time>
      </trkpt>
      <trkpt lat="47.45786" lon="6.6915">
        <ele>310.9</ele>
        <time>2014-10-12T10:17:16.000Z</time>
      </trkpt>
      <trkpt lat="47.45789" lon="6.69153">
        <ele>311.2</ele>
        <time>2014-10-12T10:17:17.000Z</time>
      </trkpt>
      <trkpt lat="47.45792" lon="6.69156">
        <ele>311.6</ele>
        <time>2014-10-12T10:17:18.000Z</time>
      </trkpt>
      <trkpt lat="47.45795" lon="6.6916">
        <ele>312.2</ele>
        <time>2014-10-12T10:17:19.000Z</time>
      </trkpt>
      <trkpt lat="47.45798" lon="6.69163">
        <ele>312.4</ele>
        <time>2014-10-12T10:17:20.000Z</time>
      </trkpt>
      <trkpt lat="47.45801" lon="6.69166">
        <ele>312.9</ele>
        <time>2014-10-12T10:17:21.000Z</time>
      </trkpt>
      <trkpt lat="47.45804" lon="6.69169">
        <ele>313.7</ele>
        <time>2014-10-12T10:17:22.000Z</time>
      </trkpt>
      <trkpt lat="47.45807" lon="6.69172">
        <ele>313.6</ele>
        <time>2014-10-12T10:17:23.000Z</time>
      </trkpt>
      <trkpt lat="47.4581" lon="6.69176">
        <ele>313.4</ele>
        <time>2014-10-12T10:17:24.000Z</time>
      </trkpt>
      <trkpt lat="47.45813" lon="6.69179">
        <ele>313.1</ele>
        <time>2014-10-12T10:17:25.000Z</time>
      </trkpt>
      <trkpt lat="47.45816" lon="6.69183">
        <ele>313.1</ele>
        <time>2014-10-12T10:17:26.000Z</time>
      </trkpt>
      <trkpt lat="47.45819" lon="6.69186">
        <ele>313.1</ele>
        <time>2014-10-12T10:17:27.000Z</time>
      </trkpt>
      <trkpt lat="47.45822" lon="6.69189">
        <ele>313</ele>
        <time>2014-10-12T10:17:28.000Z</time>
      </trkpt>
      <trkpt lat="47.45825" lon="6.69192">
        <ele>313.5</ele>
        <time>2014-10-12T10:17:29.000Z</time>
      </trkpt>
      <trkpt lat="47.45828" lon="6.69195">
        <ele>313.9</ele>
        <time>2014-10-12T10:17:30.000Z</time>
      </trkpt>
      <trkpt lat="47.45831" lon="6.69199">
        <ele>314</ele>
        <time>2014-10-12T10:17:31.000Z</time>
      </trkpt>
      <trkpt lat="47.45833" lon="6.69201">
        <ele>314.2</ele>
        <time>2014-10-12T10:17:32.000Z</time>
      </trkpt>
      <trkpt lat="47.45836" lon="6.69204">
        <ele>314.1</ele>
        <time>2014-10-12T10:17:33.000Z</time>
      </trkpt>
      <trkpt lat="47.45839" lon="6.69207">
        <ele>313.8</ele>
        <time>2014-10-12T10:17:34.000Z</time>
      </trkpt>
      <trkpt lat="47.45841" lon="6.6921">
        <ele>313</ele>
        <time>2014-10-12T10:17:35.000Z</time>
      </trkpt>
      <trkpt lat="47.45844" lon="6.69213">
        <ele>312.2</ele>
        <time>2014-10-12T10:17:36.000Z</time>
      </trkpt>
      <trkpt lat="47.45847" lon="6.69215">
        <ele>311.5</ele>
        <time>2014-10-12T10:17:37.000Z</time>
      </trkpt>
      <trkpt lat="47.4585" lon="6.69219">
        <ele>310.6</ele>
        <time>2014-10-12T10:17:38.000Z</time>
      </trkpt>
      <trkpt lat="47.45852" lon="6.69222">
        <ele>309.9</ele>
        <time>2014-10-12T10:17:39.000Z</time>
      </trkpt>
      <trkpt lat="47.45855" lon="6.69225">
        <ele>309.7</ele>
        <time>2014-10-12T10:17:40.000Z</time>
      </trkpt>
      <trkpt lat="47.45858" lon="6.69229">
        <ele>309.5</ele>
        <time>2014-10-12T10:17:41.000Z</time>
      </trkpt>
      <trkpt lat="47.45861" lon="6.69232">
        <ele>309</ele>
        <time>2014-10-12T10:17:42.000Z</time>
      </trkpt>
      <trkpt lat="47.45864" lon="6.69235">
        <ele>310.4</ele>
        <time>2014-10-12T10:17:43.000Z</time>
      </trkpt>
      <trkpt lat="47.45867" lon="6.69239">
        <ele>310.8</ele>
        <time>2014-10-12T10:17:44.000Z</time>
      </trkpt>
      <trkpt lat="47.4587" lon="6.69242">
        <ele>310.6</ele>
        <time>2014-10-12T10:17:45.000Z</time>
      </trkpt>
      <trkpt lat="47.45873" lon="6.69245">
        <ele>311.6</ele>
        <time>2014-10-12T10:17:46.000Z</time>
      </trkpt>
      <trkpt lat="47.45876" lon="6.69248">
        <ele>312.7</ele>
        <time>2014-10-12T10:17:47.000Z</time>
      </trkpt>
      <trkpt lat="47.45884" lon="6.69258">
        <ele>313.6</ele>
        <time>2014-10-12T10:17:50.000Z</time>
      </trkpt>
      <trkpt lat="47.45887" lon="6.6926">
        <ele>312.8</ele>
        <time>2014-10-12T10:17:51.000Z</time>
      </trkpt>
      <trkpt lat="47.4589" lon="6.69264">
        <ele>314</ele>
        <time>2014-10-12T10:17:52.000Z</time>
      </trkpt>
      <trkpt lat="47.45893" lon="6.69267">
        <ele>313.4</ele>
        <time>2014-10-12T10:17:53.000Z</time>
      </trkpt>
      <trkpt lat="47.45895" lon="6.69269">
        <ele>312.9</ele>
        <time>2014-10-12T10:17:54.000Z</time>
      </trkpt>
      <trkpt lat="47.45898" lon="6.69272">
        <ele>313.6</ele>
        <time>2014-10-12T10:17:55.000Z</time>
      </trkpt>
      <trkpt lat="47.45901" lon="6.69275">
        <ele>313.6</ele>
        <time>2014-10-12T10:17:56.000Z</time>
      </trkpt>
      <trkpt lat="47.45904" lon="6.69278">
        <ele>310.6</ele>
        <time>2014-10-12T10:17:57.000Z</time>
      </trkpt>
      <trkpt lat="47.45907" lon="6.69281">
        <ele>309.6</ele>
        <time>2014-10-12T10:17:58.000Z</time>
      </trkpt>
      <trkpt lat="47.4591" lon="6.69285">
        <ele>311.2</ele>
        <time>2014-10-12T10:17:59.000Z</time>
      </trkpt>
      <trkpt lat="47.45913" lon="6.69288">
        <ele>311.1</ele>
        <time>2014-10-12T10:18:00.000Z</time>
      </trkpt>
      <trkpt lat="47.45916" lon="6.69291">
        <ele>311.1</ele>
        <time>2014-10-12T10:18:01.000Z</time>
      </trkpt>
      <trkpt lat="47.45919" lon="6.69295">
        <ele>310.8</ele>
        <time>2014-10-12T10:18:02.000Z</time>
      </trkpt>
      <trkpt lat="47.45923" lon="6.69298">
        <ele>310.8</ele>
        <time>2014-10-12T10:18:03.000Z</time>
      </trkpt>
      <trkpt lat="47.45926" lon="6.69302">
        <ele>311.3</ele>
        <time>2014-10-12T10:18:04.000Z</time>
      </trkpt>
      <trkpt lat="47.45929" lon="6.69305">
        <ele>311.3</ele>
        <time>2014-10-12T10:18:05.000Z</time>
      </trkpt>
      <trkpt lat="47.45932" lon="6.69308">
        <ele>310.8</ele>
        <time>2014-10-12T10:18:06.000Z</time>
      </trkpt>
      <trkpt lat="47.45935" lon="6.69312">
        <ele>311</ele>
        <time>2014-10-12T10:18:07.000Z</time>
      </trkpt>
      <trkpt lat="47.45938" lon="6.69315">
        <ele>310.9</ele>
        <time>2014-10-12T10:18:08.000Z</time>
      </trkpt>
      <trkpt lat="47.4594" lon="6.69318">
        <ele>310.5</ele>
        <time>2014-10-12T10:18:09.000Z</time>
      </trkpt>
      <trkpt lat="47.45943" lon="6.69321">
        <ele>311</ele>
        <time>2014-10-12T10:18:10.000Z</time>
      </trkpt>
      <trkpt lat="47.45945" lon="6.69324">
        <ele>310.8</ele>
        <time>2014-10-12T10:18:11.000Z</time>
      </trkpt>
      <trkpt lat="47.45948" lon="6.69327">
        <ele>310.5</ele>
        <time>2014-10-12T10:18:12.000Z</time>
      </trkpt>
      <trkpt lat="47.45951" lon="6.6933">
        <ele>310.9</ele>
        <time>2014-10-12T10:18:13.000Z</time>
      </trkpt>
      <trkpt lat="47.45953" lon="6.69333">
        <ele>310.1</ele>
        <time>2014-10-12T10:18:14.000Z</time>
      </trkpt>
      <trkpt lat="47.45956" lon="6.69336">
        <ele>310.3</ele>
        <time>2014-10-12T10:18:15.000Z</time>
      </trkpt>
      <trkpt lat="47.4596" lon="6.6934">
        <ele>311.2</ele>
        <time>2014-10-12T10:18:16.000Z</time>
      </trkpt>
      <trkpt lat="47.45963" lon="6.69343">
        <ele>310.6</ele>
        <time>2014-10-12T10:18:17.000Z</time>
      </trkpt>
      <trkpt lat="47.45965" lon="6.69346">
        <ele>310.5</ele>
        <time>2014-10-12T10:18:18.000Z</time>
      </trkpt>
      <trkpt lat="47.45968" lon="6.6935">
        <ele>310.1</ele>
        <time>2014-10-12T10:18:19.000Z</time>
      </trkpt>
      <trkpt lat="47.45971" lon="6.69353">
        <ele>309.6</ele>
        <time>2014-10-12T10:18:20.000Z</time>
      </trkpt>
      <trkpt lat="47.45973" lon="6.69356">
        <ele>309.4</ele>
        <time>2014-10-12T10:18:21.000Z</time>
      </trkpt>
      <trkpt lat="47.45976" lon="6.69359">
        <ele>309.2</ele>
        <time>2014-10-12T10:18:22.000Z</time>
      </trkpt>
      <trkpt lat="47.45979" lon="6.69362">
        <ele>309.1</ele>
        <time>2014-10-12T10:18:23.000Z</time>
      </trkpt>
      <trkpt lat="47.45982" lon="6.69365">
        <ele>309.2</ele>
        <time>2014-10-12T10:18:24.000Z</time>
      </trkpt>
      <trkpt lat="47.45985" lon="6.69368">
        <ele>309</ele>
        <time>2014-10-12T10:18:25.000Z</time>
      </trkpt>
      <trkpt lat="47.45988" lon="6.69371">
        <ele>309.7</ele>
        <time>2014-10-12T10:18:26.000Z</time>
      </trkpt>
      <trkpt lat="47.45991" lon="6.69374">
        <ele>309.4</ele>
        <time>2014-10-12T10:18:27.000Z</time>
      </trkpt>
      <trkpt lat="47.45994" lon="6.69378">
        <ele>309.3</ele>
        <time>2014-10-12T10:18:28.000Z</time>
      </trkpt>
      <trkpt lat="47.45997" lon="6.69381">
        <ele>309.9</ele>
        <time>2014-10-12T10:18:29.000Z</time>
      </trkpt>
      <trkpt lat="47.46" lon="6.69385">
        <ele>310.2</ele>
        <time>2014-10-12T10:18:30.000Z</time>
      </trkpt>
      <trkpt lat="47.46003" lon="6.69388">
        <ele>310.3</ele>
        <time>2014-10-12T10:18:31.000Z</time>
      </trkpt>
      <trkpt lat="47.46006" lon="6.69391">
        <ele>310.2</ele>
        <time>2014-10-12T10:18:32.000Z</time>
      </trkpt>
      <trkpt lat="47.46009" lon="6.69395">
        <ele>310.7</ele>
        <time>2014-10-12T10:18:33.000Z</time>
      </trkpt>
      <trkpt lat="47.46013" lon="6.69398">
        <ele>311.6</ele>
        <time>2014-10-12T10:18:34.000Z</time>
      </trkpt>
      <trkpt lat="47.46016" lon="6.69401">
        <ele>312.3</ele>
        <time>2014-10-12T10:18:35.000Z</time>
      </trkpt>
      <trkpt lat="47.46019" lon="6.69404">
        <ele>312.3</ele>
        <time>2014-10-12T10:18:36.000Z</time>
      </trkpt>
      <trkpt lat="47.46022" lon="6.69407">
        <ele>312.1</ele>
        <time>2014-10-12T10:18:37.000Z</time>
      </trkpt>
      <trkpt lat="47.46025" lon="6.6941">
        <ele>312.4</ele>
        <time>2014-10-12T10:18:38.000Z</time>
      </trkpt>
      <trkpt lat="47.46028" lon="6.69413">
        <ele>312.7</ele>
        <time>2014-10-12T10:18:39.000Z</time>
      </trkpt>
      <trkpt lat="47.46031" lon="6.69416">
        <ele>312.7</ele>
        <time>2014-10-12T10:18:40.000Z</time>
      </trkpt>
      <trkpt lat="47.46034" lon="6.6942">
        <ele>313</ele>
        <time>2014-10-12T10:18:41.000Z</time>
      </trkpt>
      <trkpt lat="47.46037" lon="6.69423">
        <ele>313</ele>
        <time>2014-10-12T10:18:42.000Z</time>
      </trkpt>
      <trkpt lat="47.4604" lon="6.69427">
        <ele>312.7</ele>
        <time>2014-10-12T10:18:43.000Z</time>
      </trkpt>
      <trkpt lat="47.46043" lon="6.6943">
        <ele>313</ele>
        <time>2014-10-12T10:18:44.000Z</time>
      </trkpt>
      <trkpt lat="47.46046" lon="6.69434">
        <ele>313.2</ele>
        <time>2014-10-12T10:18:45.000Z</time>
      </trkpt>
      <trkpt lat="47.46049" lon="6.69438">
        <ele>314.8</ele>
        <time>2014-10-12T10:18:46.000Z</time>
      </trkpt>
      <trkpt lat="47.46052" lon="6.69441">
        <ele>315.2</ele>
        <time>2014-10-12T10:18:47.000Z</time>
      </trkpt>
      <trkpt lat="47.46079" lon="6.6947">
        <ele>314.3</ele>
        <time>2014-10-12T10:18:56.000Z</time>
      </trkpt>
      <trkpt lat="47.46081" lon="6.69473">
        <ele>314.3</ele>
        <time>2014-10-12T10:18:57.000Z</time>
      </trkpt>
      <trkpt lat="47.46084" lon="6.69476">
        <ele>316.9</ele>
        <time>2014-10-12T10:18:58.000Z</time>
      </trkpt>
      <trkpt lat="47.46086" lon="6.69479">
        <ele>316.5</ele>
        <time>2014-10-12T10:18:59.000Z</time>
      </trkpt>
      <trkpt lat="47.46089" lon="6.69482">
        <ele>316.3</ele>
        <time>2014-10-12T10:19:00.000Z</time>
      </trkpt>
      <trkpt lat="47.46092" lon="6.69485">
        <ele>314.9</ele>
        <time>2014-10-12T10:19:01.000Z</time>
      </trkpt>
      <trkpt lat="47.46094" lon="6.69488">
        <ele>313.7</ele>
        <time>2014-10-12T10:19:02.000Z</time>
      </trkpt>
      <trkpt lat="47.46097" lon="6.69491">
        <ele>313.5</ele>
        <time>2014-10-12T10:19:03.000Z</time>
      </trkpt>
      <trkpt lat="47.461" lon="6.69494">
        <ele>314.7</ele>
        <time>2014-10-12T10:19:04.000Z</time>
      </trkpt>
      <trkpt lat="47.46102" lon="6.69498">
        <ele>314.6</ele>
        <time>2014-10-12T10:19:05.000Z</time>
      </trkpt>
      <trkpt lat="47.46105" lon="6.69501">
        <ele>315.1</ele>
        <time>2014-10-12T10:19:06.000Z</time>
      </trkpt>
      <trkpt lat="47.46108" lon="6.69504">
        <ele>314.7</ele>
        <time>2014-10-12T10:19:07.000Z</time>
      </trkpt>
      <trkpt lat="47.4611" lon="6.69507">
        <ele>314.7</ele>
        <time>2014-10-12T10:19:08.000Z</time>
      </trkpt>
      <trkpt lat="47.46113" lon="6.69509">
        <ele>314.5</ele>
        <time>2014-10-12T10:19:09.000Z</time>
      </trkpt>
      <trkpt lat="47.46115" lon="6.69512">
        <ele>314.5</ele>
        <time>2014-10-12T10:19:10.000Z</time>
      </trkpt>
      <trkpt lat="47.46118" lon="6.69515">
        <ele>316.6</ele>
        <time>2014-10-12T10:19:11.000Z</time>
      </trkpt>
      <trkpt lat="47.46121" lon="6.69518">
        <ele>314.6</ele>
        <time>2014-10-12T10:19:12.000Z</time>
      </trkpt>
      <trkpt lat="47.46124" lon="6.69522">
        <ele>313.5</ele>
        <time>2014-10-12T10:19:13.000Z</time>
      </trkpt>
      <trkpt lat="47.46127" lon="6.69526">
        <ele>312.9</ele>
        <time>2014-10-12T10:19:14.000Z</time>
      </trkpt>
      <trkpt lat="47.46129" lon="6.6953">
        <ele>312.6</ele>
        <time>2014-10-12T10:19:15.000Z</time>
      </trkpt>
      <trkpt lat="47.46132" lon="6.69534">
        <ele>313</ele>
        <time>2014-10-12T10:19:16.000Z</time>
      </trkpt>
      <trkpt lat="47.46135" lon="6.69538">
        <ele>313</ele>
        <time>2014-10-12T10:19:17.000Z</time>
      </trkpt>
      <trkpt lat="47.46139" lon="6.69542">
        <ele>313.2</ele>
        <time>2014-10-12T10:19:18.000Z</time>
      </trkpt>
      <trkpt lat="47.46142" lon="6.69547">
        <ele>313.2</ele>
        <time>2014-10-12T10:19:19.000Z</time>
      </trkpt>
      <trkpt lat="47.46144" lon="6.69551">
        <ele>314.3</ele>
        <time>2014-10-12T10:19:20.000Z</time>
      </trkpt>
      <trkpt lat="47.46147" lon="6.69556">
        <ele>313.9</ele>
        <time>2014-10-12T10:19:21.000Z</time>
      </trkpt>
      <trkpt lat="47.4615" lon="6.6956">
        <ele>313.1</ele>
        <time>2014-10-12T10:19:22.000Z</time>
      </trkpt>
      <trkpt lat="47.46154" lon="6.69564">
        <ele>314</ele>
        <time>2014-10-12T10:19:23.000Z</time>
      </trkpt>
      <trkpt lat="47.46157" lon="6.69568">
        <ele>314.4</ele>
        <time>2014-10-12T10:19:24.000Z</time>
      </trkpt>
      <trkpt lat="47.4616" lon="6.69572">
        <ele>314.2</ele>
        <time>2014-10-12T10:19:25.000Z</time>
      </trkpt>
      <trkpt lat="47.46163" lon="6.69576">
        <ele>314.9</ele>
        <time>2014-10-12T10:19:26.000Z</time>
      </trkpt>
      <trkpt lat="47.46165" lon="6.69579">
        <ele>314.7</ele>
        <time>2014-10-12T10:19:27.000Z</time>
      </trkpt>
      <trkpt lat="47.46167" lon="6.69583">
        <ele>315</ele>
        <time>2014-10-12T10:19:28.000Z</time>
      </trkpt>
      <trkpt lat="47.46168" lon="6.69586">
        <ele>315.2</ele>
        <time>2014-10-12T10:19:29.000Z</time>
      </trkpt>
      <trkpt lat="47.4617" lon="6.69589">
        <ele>315.5</ele>
        <time>2014-10-12T10:19:30.000Z</time>
      </trkpt>
      <trkpt lat="47.46172" lon="6.69593">
        <ele>315.7</ele>
        <time>2014-10-12T10:19:31.000Z</time>
      </trkpt>
      <trkpt lat="47.46174" lon="6.69596">
        <ele>315.2</ele>
        <time>2014-10-12T10:19:32.000Z</time>
      </trkpt>
      <trkpt lat="47.46177" lon="6.696">
        <ele>315.7</ele>
        <time>2014-10-12T10:19:33.000Z</time>
      </trkpt>
      <trkpt lat="47.46178" lon="6.69604">
        <ele>315.9</ele>
        <time>2014-10-12T10:19:34.000Z</time>
      </trkpt>
      <trkpt lat="47.46179" lon="6.69608">
        <ele>316.2</ele>
        <time>2014-10-12T10:19:35.000Z</time>
      </trkpt>
      <trkpt lat="47.4618" lon="6.69611">
        <ele>316.1</ele>
        <time>2014-10-12T10:19:36.000Z</time>
      </trkpt>
      <trkpt lat="47.46181" lon="6.69617">
        <ele>315.8</ele>
        <time>2014-10-12T10:19:38.000Z</time>
      </trkpt>
      <trkpt lat="47.46182" lon="6.6962">
        <ele>315.8</ele>
        <time>2014-10-12T10:19:39.000Z</time>
      </trkpt>
      <trkpt lat="47.46184" lon="6.69625">
        <ele>317.2</ele>
        <time>2014-10-12T10:19:41.000Z</time>
      </trkpt>
      <trkpt lat="47.46186" lon="6.69627">
        <ele>318.3</ele>
        <time>2014-10-12T10:19:42.000Z</time>
      </trkpt>
      <trkpt lat="47.46189" lon="6.6963">
        <ele>316.9</ele>
        <time>2014-10-12T10:19:45.000Z</time>
      </trkpt>
      <trkpt lat="47.4619" lon="6.69631">
        <ele>316.4</ele>
        <time>2014-10-12T10:19:46.000Z</time>
      </trkpt>
      <trkpt lat="47.46194" lon="6.69629">
        <ele>312.5</ele>
        <time>2014-10-12T10:22:00.000Z</time>
      </trkpt>
      <trkpt lat="47.46195" lon="6.69628">
        <ele>311.9</ele>
        <time>2014-10-12T10:22:01.000Z</time>
      </trkpt>
      <trkpt lat="47.46194" lon="6.69624">
        <ele>311.5</ele>
        <time>2014-10-12T10:22:02.000Z</time>
      </trkpt>
      <trkpt lat="47.46193" lon="6.6962">
        <ele>311.6</ele>
        <time>2014-10-12T10:22:03.000Z</time>
      </trkpt>
      <trkpt lat="47.46191" lon="6.69615">
        <ele>312.2</ele>
        <time>2014-10-12T10:22:04.000Z</time>
      </trkpt>
      <trkpt lat="47.46189" lon="6.69609">
        <ele>312.7</ele>
        <time>2014-10-12T10:22:05.000Z</time>
      </trkpt>
      <trkpt lat="47.46187" lon="6.69604">
        <ele>313.1</ele>
        <time>2014-10-12T10:22:06.000Z</time>
      </trkpt>
      <trkpt lat="47.46185" lon="6.69599">
        <ele>313.3</ele>
        <time>2014-10-12T10:22:07.000Z</time>
      </trkpt>
      <trkpt lat="47.46184" lon="6.69594">
        <ele>312.9</ele>
        <time>2014-10-12T10:22:08.000Z</time>
      </trkpt>
      <trkpt lat="47.46182" lon="6.69588">
        <ele>313.2</ele>
        <time>2014-10-12T10:22:09.000Z</time>
      </trkpt>
      <trkpt lat="47.46181" lon="6.69582">
        <ele>313.1</ele>
        <time>2014-10-12T10:22:10.000Z</time>
      </trkpt>
      <trkpt lat="47.4618" lon="6.69576">
        <ele>312.4</ele>
        <time>2014-10-12T10:22:11.000Z</time>
      </trkpt>
      <trkpt lat="47.46179" lon="6.6957">
        <ele>311.7</ele>
        <time>2014-10-12T10:22:12.000Z</time>
      </trkpt>
      <trkpt lat="47.46178" lon="6.69565">
        <ele>311.8</ele>
        <time>2014-10-12T10:22:13.000Z</time>
      </trkpt>
      <trkpt lat="47.46177" lon="6.6956">
        <ele>311.8</ele>
        <time>2014-10-12T10:22:14.000Z</time>
      </trkpt>
      <trkpt lat="47.46177" lon="6.69556">
        <ele>311.5</ele>
        <time>2014-10-12T10:22:15.000Z</time>
      </trkpt>
      <trkpt lat="47.4618" lon="6.69552">
        <ele>306.2</ele>
        <time>2014-10-12T10:22:17.000Z</time>
      </trkpt>
      <trkpt lat="47.46184" lon="6.69554">
        <ele>304.2</ele>
        <time>2014-10-12T10:22:18.000Z</time>
      </trkpt>
      <trkpt lat="47.46198" lon="6.6957">
        <ele>304.8</ele>
        <time>2014-10-12T10:22:19.000Z</time>
      </trkpt>
      <trkpt lat="47.46203" lon="6.69574">
        <ele>304.5</ele>
        <time>2014-10-12T10:22:20.000Z</time>
      </trkpt>
      <trkpt lat="47.46207" lon="6.6958">
        <ele>304.9</ele>
        <time>2014-10-12T10:22:21.000Z</time>
      </trkpt>
      <trkpt lat="47.4621" lon="6.69585">
        <ele>305.2</ele>
        <time>2014-10-12T10:22:22.000Z</time>
      </trkpt>
      <trkpt lat="47.46214" lon="6.69591">
        <ele>305.4</ele>
        <time>2014-10-12T10:22:23.000Z</time>
      </trkpt>
      <trkpt lat="47.46217" lon="6.69596">
        <ele>305.6</ele>
        <time>2014-10-12T10:22:24.000Z</time>
      </trkpt>
      <trkpt lat="47.46223" lon="6.69603">
        <ele>304.9</ele>
        <time>2014-10-12T10:22:25.000Z</time>
      </trkpt>
      <trkpt lat="47.46227" lon="6.69611">
        <ele>306.1</ele>
        <time>2014-10-12T10:22:26.000Z</time>
      </trkpt>
      <trkpt lat="47.46232" lon="6.69618">
        <ele>307.2</ele>
        <time>2014-10-12T10:22:27.000Z</time>
      </trkpt>
      <trkpt lat="47.46237" lon="6.69624">
        <ele>308.3</ele>
        <time>2014-10-12T10:22:28.000Z</time>
      </trkpt>
      <trkpt lat="47.46241" lon="6.69627">
        <ele>306.7</ele>
        <time>2014-10-12T10:22:29.000Z</time>
      </trkpt>
      <trkpt lat="47.46245" lon="6.69634">
        <ele>306.4</ele>
        <time>2014-10-12T10:22:30.000Z</time>
      </trkpt>
      <trkpt lat="47.46248" lon="6.69641">
        <ele>306.4</ele>
        <time>2014-10-12T10:22:31.000Z</time>
      </trkpt>
      <trkpt lat="47.46252" lon="6.69647">
        <ele>306.8</ele>
        <time>2014-10-12T10:22:32.000Z</time>
      </trkpt>
      <trkpt lat="47.46255" lon="6.69652">
        <ele>307.4</ele>
        <time>2014-10-12T10:22:33.000Z</time>
      </trkpt>
      <trkpt lat="47.46258" lon="6.69657">
        <ele>307</ele>
        <time>2014-10-12T10:22:34.000Z</time>
      </trkpt>
      <trkpt lat="47.46261" lon="6.69664">
        <ele>306.7</ele>
        <time>2014-10-12T10:22:35.000Z</time>
      </trkpt>
      <trkpt lat="47.46264" lon="6.69671">
        <ele>307.7</ele>
        <time>2014-10-12T10:22:36.000Z</time>
      </trkpt>
      <trkpt lat="47.46267" lon="6.69677">
        <ele>308.1</ele>
        <time>2014-10-12T10:22:37.000Z</time>
      </trkpt>
      <trkpt lat="47.4627" lon="6.69683">
        <ele>308.1</ele>
        <time>2014-10-12T10:22:38.000Z</time>
      </trkpt>
      <trkpt lat="47.46273" lon="6.69689">
        <ele>308</ele>
        <time>2014-10-12T10:22:39.000Z</time>
      </trkpt>
      <trkpt lat="47.46277" lon="6.69694">
        <ele>308.2</ele>
        <time>2014-10-12T10:22:40.000Z</time>
      </trkpt>
      <trkpt lat="47.4628" lon="6.69699">
        <ele>308.2</ele>
        <time>2014-10-12T10:22:41.000Z</time>
      </trkpt>
      <trkpt lat="47.46283" lon="6.69705">
        <ele>308.5</ele>
        <time>2014-10-12T10:22:42.000Z</time>
      </trkpt>
      <trkpt lat="47.46286" lon="6.69712">
        <ele>309.3</ele>
        <time>2014-10-12T10:22:43.000Z</time>
      </trkpt>
      <trkpt lat="47.46289" lon="6.69717">
        <ele>308.7</ele>
        <time>2014-10-12T10:22:44.000Z</time>
      </trkpt>
      <trkpt lat="47.46291" lon="6.69719">
        <ele>306.3</ele>
        <time>2014-10-12T10:22:45.000Z</time>
      </trkpt>
      <trkpt lat="47.46294" lon="6.69724">
        <ele>306.2</ele>
        <time>2014-10-12T10:22:46.000Z</time>
      </trkpt>
      <trkpt lat="47.46297" lon="6.69728">
        <ele>306</ele>
        <time>2014-10-12T10:22:47.000Z</time>
      </trkpt>
      <trkpt lat="47.46305" lon="6.6974">
        <ele>305.7</ele>
        <time>2014-10-12T10:22:50.000Z</time>
      </trkpt>
      <trkpt lat="47.46309" lon="6.69746">
        <ele>308</ele>
        <time>2014-10-12T10:22:51.000Z</time>
      </trkpt>
      <trkpt lat="47.46312" lon="6.6975">
        <ele>307.7</ele>
        <time>2014-10-12T10:22:52.000Z</time>
      </trkpt>
      <trkpt lat="47.46316" lon="6.69755">
        <ele>307.9</ele>
        <time>2014-10-12T10:22:53.000Z</time>
      </trkpt>
      <trkpt lat="47.46319" lon="6.69757">
        <ele>307.6</ele>
        <time>2014-10-12T10:22:54.000Z</time>
      </trkpt>
      <trkpt lat="47.46322" lon="6.69761">
        <ele>308</ele>
        <time>2014-10-12T10:22:55.000Z</time>
      </trkpt>
      <trkpt lat="47.46325" lon="6.69768">
        <ele>307.5</ele>
        <time>2014-10-12T10:22:56.000Z</time>
      </trkpt>
      <trkpt lat="47.4633" lon="6.69772">
        <ele>306.9</ele>
        <time>2014-10-12T10:22:57.000Z</time>
      </trkpt>
      <trkpt lat="47.46335" lon="6.69775">
        <ele>306.8</ele>
        <time>2014-10-12T10:22:58.000Z</time>
      </trkpt>
      <trkpt lat="47.46338" lon="6.69779">
        <ele>306.7</ele>
        <time>2014-10-12T10:22:59.000Z</time>
      </trkpt>
      <trkpt lat="47.46342" lon="6.69783">
        <ele>307</ele>
        <time>2014-10-12T10:23:00.000Z</time>
      </trkpt>
      <trkpt lat="47.46345" lon="6.69786">
        <ele>308.1</ele>
        <time>2014-10-12T10:23:01.000Z</time>
      </trkpt>
      <trkpt lat="47.46348" lon="6.69789">
        <ele>308.4</ele>
        <time>2014-10-12T10:23:02.000Z</time>
      </trkpt>
      <trkpt lat="47.46351" lon="6.69791">
        <ele>308.2</ele>
        <time>2014-10-12T10:23:03.000Z</time>
      </trkpt>
      <trkpt lat="47.46354" lon="6.69794">
        <ele>306</ele>
        <time>2014-10-12T10:23:04.000Z</time>
      </trkpt>
      <trkpt lat="47.46357" lon="6.69797">
        <ele>304.9</ele>
        <time>2014-10-12T10:23:05.000Z</time>
      </trkpt>
      <trkpt lat="47.4636" lon="6.69799">
        <ele>304.6</ele>
        <time>2014-10-12T10:23:06.000Z</time>
      </trkpt>
      <trkpt lat="47.46363" lon="6.69802">
        <ele>305</ele>
        <time>2014-10-12T10:23:07.000Z</time>
      </trkpt>
      <trkpt lat="47.46365" lon="6.69804">
        <ele>305.1</ele>
        <time>2014-10-12T10:23:08.000Z</time>
      </trkpt>
      <trkpt lat="47.46369" lon="6.69806">
        <ele>304.7</ele>
        <time>2014-10-12T10:23:09.000Z</time>
      </trkpt>
      <trkpt lat="47.46372" lon="6.69808">
        <ele>305.3</ele>
        <time>2014-10-12T10:23:10.000Z</time>
      </trkpt>
      <trkpt lat="47.46376" lon="6.6981">
        <ele>306</ele>
        <time>2014-10-12T10:23:11.000Z</time>
      </trkpt>
      <trkpt lat="47.4638" lon="6.69812">
        <ele>306.2</ele>
        <time>2014-10-12T10:23:12.000Z</time>
      </trkpt>
      <trkpt lat="47.46384" lon="6.69815">
        <ele>306.1</ele>
        <time>2014-10-12T10:23:13.000Z</time>
      </trkpt>
      <trkpt lat="47.46388" lon="6.69818">
        <ele>307.3</ele>
        <time>2014-10-12T10:23:14.000Z</time>
      </trkpt>
      <trkpt lat="47.46392" lon="6.69821">
        <ele>308.2</ele>
        <time>2014-10-12T10:23:15.000Z</time>
      </trkpt>
      <trkpt lat="47.46396" lon="6.69824">
        <ele>308.7</ele>
        <time>2014-10-12T10:23:16.000Z</time>
      </trkpt>
      <trkpt lat="47.46399" lon="6.69827">
        <ele>309.9</ele>
        <time>2014-10-12T10:23:17.000Z</time>
      </trkpt>
      <trkpt lat="47.46403" lon="6.6983">
        <ele>309.9</ele>
        <time>2014-10-12T10:23:18.000Z</time>
      </trkpt>
      <trkpt lat="47.46406" lon="6.69833">
        <ele>309.8</ele>
        <time>2014-10-12T10:23:19.000Z</time>
      </trkpt>
      <trkpt lat="47.4641" lon="6.69836">
        <ele>307.6</ele>
        <time>2014-10-12T10:23:20.000Z</time>
      </trkpt>
      <trkpt lat="47.46414" lon="6.69839">
        <ele>308.2</ele>
        <time>2014-10-12T10:23:21.000Z</time>
      </trkpt>
      <trkpt lat="47.46418" lon="6.69841">
        <ele>308.9</ele>
        <time>2014-10-12T10:23:22.000Z</time>
      </trkpt>
      <trkpt lat="47.46421" lon="6.69844">
        <ele>310.4</ele>
        <time>2014-10-12T10:23:23.000Z</time>
      </trkpt>
      <trkpt lat="47.46424" lon="6.69847">
        <ele>309.4</ele>
        <time>2014-10-12T10:23:24.000Z</time>
      </trkpt>
      <trkpt lat="47.46428" lon="6.6985">
        <ele>309.6</ele>
        <time>2014-10-12T10:23:25.000Z</time>
      </trkpt>
      <trkpt lat="47.46431" lon="6.69854">
        <ele>309.8</ele>
        <time>2014-10-12T10:23:26.000Z</time>
      </trkpt>
      <trkpt lat="47.46435" lon="6.69857">
        <ele>310.1</ele>
        <time>2014-10-12T10:23:27.000Z</time>
      </trkpt>
      <trkpt lat="47.46439" lon="6.6986">
        <ele>311.4</ele>
        <time>2014-10-12T10:23:28.000Z</time>
      </trkpt>
      <trkpt lat="47.46442" lon="6.69863">
        <ele>312</ele>
        <time>2014-10-12T10:23:29.000Z</time>
      </trkpt>
      <trkpt lat="47.46446" lon="6.69866">
        <ele>312.2</ele>
        <time>2014-10-12T10:23:30.000Z</time>
      </trkpt>
      <trkpt lat="47.4645" lon="6.69868">
        <ele>312.3</ele>
        <time>2014-10-12T10:23:31.000Z</time>
      </trkpt>
      <trkpt lat="47.46454" lon="6.6987">
        <ele>313</ele>
        <time>2014-10-12T10:23:32.000Z</time>
      </trkpt>
      <trkpt lat="47.46458" lon="6.69872">
        <ele>314.3</ele>
        <time>2014-10-12T10:23:33.000Z</time>
      </trkpt>
      <trkpt lat="47.46462" lon="6.69872">
        <ele>313.8</ele>
        <time>2014-10-12T10:23:34.000Z</time>
      </trkpt>
      <trkpt lat="47.46466" lon="6.6987">
        <ele>314.2</ele>
        <time>2014-10-12T10:23:35.000Z</time>
      </trkpt>
      <trkpt lat="47.46469" lon="6.69868">
        <ele>314.3</ele>
        <time>2014-10-12T10:23:36.000Z</time>
      </trkpt>
      <trkpt lat="47.46472" lon="6.69865">
        <ele>313.9</ele>
        <time>2014-10-12T10:23:37.000Z</time>
      </trkpt>
      <trkpt lat="47.46474" lon="6.6986">
        <ele>313.3</ele>
        <time>2014-10-12T10:23:44.000Z</time>
      </trkpt>
      <trkpt lat="47.46475" lon="6.6986">
        <ele>313.7</ele>
        <time>2014-10-12T10:23:45.000Z</time>
      </trkpt>
      <trkpt lat="47.46479" lon="6.69858">
        <ele>310.2</ele>
        <time>2014-10-12T10:23:54.000Z</time>
      </trkpt>
      <trkpt lat="47.4648" lon="6.69857">
        <ele>309.8</ele>
        <time>2014-10-12T10:23:55.000Z</time>
      </trkpt>
      <trkpt lat="47.46483" lon="6.69854">
        <ele>309.9</ele>
        <time>2014-10-12T10:23:57.000Z</time>
      </trkpt>
      <trkpt lat="47.46484" lon="6.69853">
        <ele>309.2</ele>
        <time>2014-10-12T10:23:58.000Z</time>
      </trkpt>
      <trkpt lat="47.46487" lon="6.69848">
        <ele>307.6</ele>
        <time>2014-10-12T10:24:00.000Z</time>
      </trkpt>
      <trkpt lat="47.46489" lon="6.69846">
        <ele>307.6</ele>
        <time>2014-10-12T10:24:01.000Z</time>
      </trkpt>
      <trkpt lat="47.4649" lon="6.69844">
        <ele>307.6</ele>
        <time>2014-10-12T10:24:02.000Z</time>
      </trkpt>
      <trkpt lat="47.46492" lon="6.69841">
        <ele>307.9</ele>
        <time>2014-10-12T10:24:03.000Z</time>
      </trkpt>
      <trkpt lat="47.46494" lon="6.69839">
        <ele>308.5</ele>
        <time>2014-10-12T10:24:04.000Z</time>
      </trkpt>
      <trkpt lat="47.46496" lon="6.69836">
        <ele>308</ele>
        <time>2014-10-12T10:24:05.000Z</time>
      </trkpt>
      <trkpt lat="47.46498" lon="6.69834">
        <ele>307.8</ele>
        <time>2014-10-12T10:24:06.000Z</time>
      </trkpt>
      <trkpt lat="47.465" lon="6.69831">
        <ele>307.3</ele>
        <time>2014-10-12T10:24:07.000Z</time>
      </trkpt>
      <trkpt lat="47.46502" lon="6.69829">
        <ele>307.7</ele>
        <time>2014-10-12T10:24:08.000Z</time>
      </trkpt>
      <trkpt lat="47.46504" lon="6.69826">
        <ele>307</ele>
        <time>2014-10-12T10:24:09.000Z</time>
      </trkpt>
      <trkpt lat="47.46506" lon="6.69824">
        <ele>307.3</ele>
        <time>2014-10-12T10:24:10.000Z</time>
      </trkpt>
      <trkpt lat="47.46509" lon="6.69821">
        <ele>307.6</ele>
        <time>2014-10-12T10:24:11.000Z</time>
      </trkpt>
      <trkpt lat="47.46511" lon="6.69819">
        <ele>307.4</ele>
        <time>2014-10-12T10:24:12.000Z</time>
      </trkpt>
      <trkpt lat="47.46514" lon="6.69816">
        <ele>307.7</ele>
        <time>2014-10-12T10:24:13.000Z</time>
      </trkpt>
      <trkpt lat="47.46516" lon="6.69814">
        <ele>308.6</ele>
        <time>2014-10-12T10:24:14.000Z</time>
      </trkpt>
      <trkpt lat="47.46519" lon="6.69811">
        <ele>309.1</ele>
        <time>2014-10-12T10:24:15.000Z</time>
      </trkpt>
      <trkpt lat="47.46522" lon="6.69808">
        <ele>309.1</ele>
        <time>2014-10-12T10:24:16.000Z</time>
      </trkpt>
      <trkpt lat="47.46524" lon="6.69806">
        <ele>309.3</ele>
        <time>2014-10-12T10:24:17.000Z</time>
      </trkpt>
      <trkpt lat="47.46527" lon="6.69803">
        <ele>309.2</ele>
        <time>2014-10-12T10:24:18.000Z</time>
      </trkpt>
      <trkpt lat="47.46529" lon="6.69801">
        <ele>308.8</ele>
        <time>2014-10-12T10:24:19.000Z</time>
      </trkpt>
      <trkpt lat="47.46532" lon="6.69799">
        <ele>308.3</ele>
        <time>2014-10-12T10:24:20.000Z</time>
      </trkpt>
      <trkpt lat="47.46534" lon="6.69796">
        <ele>306.3</ele>
        <time>2014-10-12T10:24:21.000Z</time>
      </trkpt>
      <trkpt lat="47.46537" lon="6.69794">
        <ele>305.2</ele>
        <time>2014-10-12T10:24:22.000Z</time>
      </trkpt>
      <trkpt lat="47.46539" lon="6.69792">
        <ele>304</ele>
        <time>2014-10-12T10:24:23.000Z</time>
      </trkpt>
      <trkpt lat="47.46541" lon="6.69789">
        <ele>303.9</ele>
        <time>2014-10-12T10:24:24.000Z</time>
      </trkpt>
      <trkpt lat="47.46543" lon="6.69787">
        <ele>303.8</ele>
        <time>2014-10-12T10:24:25.000Z</time>
      </trkpt>
      <trkpt lat="47.46546" lon="6.69784">
        <ele>303.1</ele>
        <time>2014-10-12T10:24:26.000Z</time>
      </trkpt>
      <trkpt lat="47.46548" lon="6.69782">
        <ele>302.5</ele>
        <time>2014-10-12T10:24:27.000Z</time>
      </trkpt>
      <trkpt lat="47.46551" lon="6.69779">
        <ele>302.4</ele>
        <time>2014-10-12T10:24:28.000Z</time>
      </trkpt>
      <trkpt lat="47.46553" lon="6.69776">
        <ele>301.9</ele>
        <time>2014-10-12T10:24:29.000Z</time>
      </trkpt>
      <trkpt lat="47.46556" lon="6.69773">
        <ele>301.4</ele>
        <time>2014-10-12T10:24:30.000Z</time>
      </trkpt>
      <trkpt lat="47.46558" lon="6.69771">
        <ele>301.3</ele>
        <time>2014-10-12T10:24:31.000Z</time>
      </trkpt>
      <trkpt lat="47.4656" lon="6.69768">
        <ele>301.6</ele>
        <time>2014-10-12T10:24:32.000Z</time>
      </trkpt>
      <trkpt lat="47.46562" lon="6.69765">
        <ele>301.8</ele>
        <time>2014-10-12T10:24:33.000Z</time>
      </trkpt>
      <trkpt lat="47.46564" lon="6.69762">
        <ele>301.8</ele>
        <time>2014-10-12T10:24:34.000Z</time>
      </trkpt>
      <trkpt lat="47.46566" lon="6.69758">
        <ele>301.9</ele>
        <time>2014-10-12T10:24:35.000Z</time>
      </trkpt>
      <trkpt lat="47.46568" lon="6.69755">
        <ele>302</ele>
        <time>2014-10-12T10:24:36.000Z</time>
      </trkpt>
      <trkpt lat="47.46569" lon="6.69753">
        <ele>301.7</ele>
        <time>2014-10-12T10:24:36.998Z</time>
      </trkpt>
      <trkpt lat="47.46572" lon="6.6975">
        <ele>303.9</ele>
        <time>2014-10-12T10:24:38.000Z</time>
      </trkpt>
      <trkpt lat="47.46575" lon="6.69748">
        <ele>304.4</ele>
        <time>2014-10-12T10:24:39.000Z</time>
      </trkpt>
      <trkpt lat="47.46577" lon="6.69747">
        <ele>304.7</ele>
        <time>2014-10-12T10:24:40.000Z</time>
      </trkpt>
      <trkpt lat="47.4658" lon="6.69747">
        <ele>304.4</ele>
        <time>2014-10-12T10:24:41.000Z</time>
      </trkpt>
      <trkpt lat="47.46584" lon="6.69746">
        <ele>304.3</ele>
        <time>2014-10-12T10:24:42.000Z</time>
      </trkpt>
      <trkpt lat="47.46588" lon="6.69746">
        <ele>305</ele>
        <time>2014-10-12T10:24:43.000Z</time>
      </trkpt>
      <trkpt lat="47.46592" lon="6.69746">
        <ele>304.6</ele>
        <time>2014-10-12T10:24:44.000Z</time>
      </trkpt>
      <trkpt lat="47.46595" lon="6.69747">
        <ele>305.3</ele>
        <time>2014-10-12T10:24:45.000Z</time>
      </trkpt>
      <trkpt lat="47.46599" lon="6.69747">
        <ele>305.7</ele>
        <time>2014-10-12T10:24:46.000Z</time>
      </trkpt>
      <trkpt lat="47.46603" lon="6.69747">
        <ele>305.3</ele>
        <time>2014-10-12T10:24:47.000Z</time>
      </trkpt>
      <trkpt lat="47.46612" lon="6.69749">
        <ele>304.2</ele>
        <time>2014-10-12T10:24:50.000Z</time>
      </trkpt>
      <trkpt lat="47.46616" lon="6.69749">
        <ele>304.4</ele>
        <time>2014-10-12T10:24:51.000Z</time>
      </trkpt>
      <trkpt lat="47.46619" lon="6.69749">
        <ele>304.3</ele>
        <time>2014-10-12T10:24:52.000Z</time>
      </trkpt>
      <trkpt lat="47.46622" lon="6.69749">
        <ele>304.5</ele>
        <time>2014-10-12T10:24:53.000Z</time>
      </trkpt>
      <trkpt lat="47.46626" lon="6.69749">
        <ele>305</ele>
        <time>2014-10-12T10:24:54.000Z</time>
      </trkpt>
      <trkpt lat="47.46629" lon="6.69748">
        <ele>307.1</ele>
        <time>2014-10-12T10:24:55.000Z</time>
      </trkpt>
      <trkpt lat="47.46631" lon="6.69748">
        <ele>307.5</ele>
        <time>2014-10-12T10:24:56.000Z</time>
      </trkpt>
      <trkpt lat="47.46636" lon="6.69748">
        <ele>308.9</ele>
        <time>2014-10-12T10:25:05.000Z</time>
      </trkpt>
      <trkpt lat="47.46636" lon="6.69748">
        <ele>309.2</ele>
        <time>2014-10-12T10:25:06.000Z</time>
      </trkpt>
      <trkpt lat="47.46641" lon="6.69747">
        <ele>312</ele>
        <time>2014-10-12T10:25:12.000Z</time>
      </trkpt>
      <trkpt lat="47.46641" lon="6.69748">
        <ele>310.8</ele>
        <time>2014-10-12T10:25:13.000Z</time>
      </trkpt>
      <trkpt lat="47.46644" lon="6.69746">
        <ele>308.9</ele>
        <time>2014-10-12T10:25:18.000Z</time>
      </trkpt>
      <trkpt lat="47.46645" lon="6.69744">
        <ele>308.8</ele>
        <time>2014-10-12T10:25:19.000Z</time>
      </trkpt>
      <trkpt lat="47.46648" lon="6.6974">
        <ele>309.4</ele>
        <time>2014-10-12T10:25:21.000Z</time>
      </trkpt>
      <trkpt lat="47.4665" lon="6.69738">
        <ele>310.9</ele>
        <time>2014-10-12T10:25:22.000Z</time>
      </trkpt>
      <trkpt lat="47.46652" lon="6.69736">
        <ele>311</ele>
        <time>2014-10-12T10:25:23.000Z</time>
      </trkpt>
      <trkpt lat="47.46654" lon="6.69735">
        <ele>311.8</ele>
        <time>2014-10-12T10:25:24.000Z</time>
      </trkpt>
      <trkpt lat="47.46656" lon="6.69733">
        <ele>313</ele>
        <time>2014-10-12T10:25:25.000Z</time>
      </trkpt>
      <trkpt lat="47.4666" lon="6.69733">
        <ele>312.8</ele>
        <time>2014-10-12T10:25:26.000Z</time>
      </trkpt>
      <trkpt lat="47.46664" lon="6.69732">
        <ele>311.6</ele>
        <time>2014-10-12T10:25:28.000Z</time>
      </trkpt>
      <trkpt lat="47.46666" lon="6.69731">
        <ele>311.5</ele>
        <time>2014-10-12T10:25:29.000Z</time>
      </trkpt>
      <trkpt lat="47.46668" lon="6.69731">
        <ele>311.7</ele>
        <time>2014-10-12T10:25:30.000Z</time>
      </trkpt>
      <trkpt lat="47.4667" lon="6.69732">
        <ele>312.6</ele>
        <time>2014-10-12T10:25:31.000Z</time>
      </trkpt>
      <trkpt lat="47.46673" lon="6.69732">
        <ele>312.6</ele>
        <time>2014-10-12T10:25:32.000Z</time>
      </trkpt>
      <trkpt lat="47.46677" lon="6.69732">
        <ele>313.3</ele>
        <time>2014-10-12T10:25:33.000Z</time>
      </trkpt>
      <trkpt lat="47.4668" lon="6.69732">
        <ele>313.6</ele>
        <time>2014-10-12T10:25:34.000Z</time>
      </trkpt>
      <trkpt lat="47.46683" lon="6.69733">
        <ele>314.9</ele>
        <time>2014-10-12T10:25:35.000Z</time>
      </trkpt>
      <trkpt lat="47.46686" lon="6.69733">
        <ele>315</ele>
        <time>2014-10-12T10:25:36.000Z</time>
      </trkpt>
      <trkpt lat="47.46689" lon="6.69734">
        <ele>315.3</ele>
        <time>2014-10-12T10:25:37.000Z</time>
      </trkpt>
      <trkpt lat="47.46692" lon="6.69736">
        <ele>315.4</ele>
        <time>2014-10-12T10:25:38.000Z</time>
      </trkpt>
      <trkpt lat="47.46694" lon="6.69738">
        <ele>314.7</ele>
        <time>2014-10-12T10:25:39.000Z</time>
      </trkpt>
      <trkpt lat="47.46696" lon="6.69741">
        <ele>314.7</ele>
        <time>2014-10-12T10:25:40.000Z</time>
      </trkpt>
      <trkpt lat="47.46698" lon="6.69745">
        <ele>314.6</ele>
        <time>2014-10-12T10:25:41.000Z</time>
      </trkpt>
      <trkpt lat="47.467" lon="6.6975">
        <ele>314.6</ele>
        <time>2014-10-12T10:25:42.000Z</time>
      </trkpt>
      <trkpt lat="47.46703" lon="6.69756">
        <ele>314.4</ele>
        <time>2014-10-12T10:25:43.000Z</time>
      </trkpt>
      <trkpt lat="47.46705" lon="6.69761">
        <ele>314</ele>
        <time>2014-10-12T10:25:44.000Z</time>
      </trkpt>
      <trkpt lat="47.46708" lon="6.69767">
        <ele>313.5</ele>
        <time>2014-10-12T10:25:45.000Z</time>
      </trkpt>
      <trkpt lat="47.46711" lon="6.69771">
        <ele>313.3</ele>
        <time>2014-10-12T10:25:46.000Z</time>
      </trkpt>
      <trkpt lat="47.46714" lon="6.69776">
        <ele>313.7</ele>
        <time>2014-10-12T10:25:47.000Z</time>
      </trkpt>
      <trkpt lat="47.46716" lon="6.69781">
        <ele>314.5</ele>
        <time>2014-10-12T10:25:48.000Z</time>
      </trkpt>
      <trkpt lat="47.46722" lon="6.69794">
        <ele>314.4</ele>
        <time>2014-10-12T10:25:51.000Z</time>
      </trkpt>
      <trkpt lat="47.46724" lon="6.69799">
        <ele>313.9</ele>
        <time>2014-10-12T10:25:52.000Z</time>
      </trkpt>
      <trkpt lat="47.46727" lon="6.69803">
        <ele>314.2</ele>
        <time>2014-10-12T10:25:53.000Z</time>
      </trkpt>
      <trkpt lat="47.46729" lon="6.69807">
        <ele>313.9</ele>
        <time>2014-10-12T10:25:54.000Z</time>
      </trkpt>
      <trkpt lat="47.46731" lon="6.69812">
        <ele>313.4</ele>
        <time>2014-10-12T10:25:55.000Z</time>
      </trkpt>
      <trkpt lat="47.46733" lon="6.69817">
        <ele>313.3</ele>
        <time>2014-10-12T10:25:56.000Z</time>
      </trkpt>
      <trkpt lat="47.46735" lon="6.69821">
        <ele>313.3</ele>
        <time>2014-10-12T10:25:57.000Z</time>
      </trkpt>
      <trkpt lat="47.46737" lon="6.69826">
        <ele>313.2</ele>
        <time>2014-10-12T10:25:58.000Z</time>
      </trkpt>
      <trkpt lat="47.46739" lon="6.6983">
        <ele>313.2</ele>
        <time>2014-10-12T10:25:59.000Z</time>
      </trkpt>
      <trkpt lat="47.46741" lon="6.69835">
        <ele>313.7</ele>
        <time>2014-10-12T10:26:00.000Z</time>
      </trkpt>
      <trkpt lat="47.46743" lon="6.69839">
        <ele>314.4</ele>
        <time>2014-10-12T10:26:01.000Z</time>
      </trkpt>
      <trkpt lat="47.46745" lon="6.69844">
        <ele>314</ele>
        <time>2014-10-12T10:26:02.000Z</time>
      </trkpt>
      <trkpt lat="47.46747" lon="6.69848">
        <ele>313.9</ele>
        <time>2014-10-12T10:26:03.000Z</time>
      </trkpt>
      <trkpt lat="47.46749" lon="6.69852">
        <ele>313.3</ele>
        <time>2014-10-12T10:26:04.000Z</time>
      </trkpt>
      <trkpt lat="47.46751" lon="6.69855">
        <ele>313.8</ele>
        <time>2014-10-12T10:26:05.000Z</time>
      </trkpt>
      <trkpt lat="47.46752" lon="6.69859">
        <ele>313.7</ele>
        <time>2014-10-12T10:26:06.000Z</time>
      </trkpt>
      <trkpt lat="47.46753" lon="6.69863">
        <ele>313.7</ele>
        <time>2014-10-12T10:26:07.000Z</time>
      </trkpt>
      <trkpt lat="47.46754" lon="6.69867">
        <ele>313.7</ele>
        <time>2014-10-12T10:26:08.000Z</time>
      </trkpt>
      <trkpt lat="47.46756" lon="6.69869">
        <ele>313.8</ele>
        <time>2014-10-12T10:26:09.000Z</time>
      </trkpt>
      <trkpt lat="47.4676" lon="6.69869">
        <ele>313.1</ele>
        <time>2014-10-12T10:26:11.000Z</time>
      </trkpt>
      <trkpt lat="47.46763" lon="6.69866">
        <ele>314.6</ele>
        <time>2014-10-12T10:26:12.000Z</time>
      </trkpt>
      <trkpt lat="47.46765" lon="6.69864">
        <ele>313.7</ele>
        <time>2014-10-12T10:26:13.000Z</time>
      </trkpt>
      <trkpt lat="47.46767" lon="6.69861">
        <ele>313.1</ele>
        <time>2014-10-12T10:26:14.000Z</time>
      </trkpt>
      <trkpt lat="47.4677" lon="6.69858">
        <ele>313.3</ele>
        <time>2014-10-12T10:26:16.000Z</time>
      </trkpt>
      <trkpt lat="47.46772" lon="6.69857">
        <ele>313.3</ele>
        <time>2014-10-12T10:26:17.000Z</time>
      </trkpt>
      <trkpt lat="47.46776" lon="6.69854">
        <ele>313.1</ele>
        <time>2014-10-12T10:26:19.000Z</time>
      </trkpt>
      <trkpt lat="47.46778" lon="6.69854">
        <ele>313.7</ele>
        <time>2014-10-12T10:26:20.000Z</time>
      </trkpt>
      <trkpt lat="47.46782" lon="6.69853">
        <ele>313.2</ele>
        <time>2014-10-12T10:26:22.000Z</time>
      </trkpt>
      <trkpt lat="47.46784" lon="6.69852">
        <ele>313.4</ele>
        <time>2014-10-12T10:26:23.000Z</time>
      </trkpt>
      <trkpt lat="47.46787" lon="6.69852">
        <ele>313.1</ele>
        <time>2014-10-12T10:26:24.000Z</time>
      </trkpt>
      <trkpt lat="47.46789" lon="6.69851">
        <ele>313.6</ele>
        <time>2014-10-12T10:26:25.000Z</time>
      </trkpt>
      <trkpt lat="47.46793" lon="6.6985">
        <ele>313</ele>
        <time>2014-10-12T10:26:27.000Z</time>
      </trkpt>
      <trkpt lat="47.46794" lon="6.69849">
        <ele>312.9</ele>
        <time>2014-10-12T10:26:28.000Z</time>
      </trkpt>
      <trkpt lat="47.46798" lon="6.69848">
        <ele>311.4</ele>
        <time>2014-10-12T10:26:30.000Z</time>
      </trkpt>
      <trkpt lat="47.46799" lon="6.69848">
        <ele>312.6</ele>
        <time>2014-10-12T10:26:31.000Z</time>
      </trkpt>
      <trkpt lat="47.46804" lon="6.69847">
        <ele>312.9</ele>
        <time>2014-10-12T10:26:33.000Z</time>
      </trkpt>
      <trkpt lat="47.46806" lon="6.69847">
        <ele>311.9</ele>
        <time>2014-10-12T10:26:34.000Z</time>
      </trkpt>
      <trkpt lat="47.4681" lon="6.69847">
        <ele>313.5</ele>
        <time>2014-10-12T10:26:36.000Z</time>
      </trkpt>
      <trkpt lat="47.46812" lon="6.69846">
        <ele>311.8</ele>
        <time>2014-10-12T10:26:37.000Z</time>
      </trkpt>
      <trkpt lat="47.46815" lon="6.69844">
        <ele>312.2</ele>
        <time>2014-10-12T10:26:39.000Z</time>
      </trkpt>
      <trkpt lat="47.46817" lon="6.69844">
        <ele>312.2</ele>
        <time>2014-10-12T10:26:40.000Z</time>
      </trkpt>
      <trkpt lat="47.4682" lon="6.69843">
        <ele>312.9</ele>
        <time>2014-10-12T10:26:42.000Z</time>
      </trkpt>
      <trkpt lat="47.46822" lon="6.69842">
        <ele>311.7</ele>
        <time>2014-10-12T10:26:43.000Z</time>
      </trkpt>
      <trkpt lat="47.46826" lon="6.69842">
        <ele>311.8</ele>
        <time>2014-10-12T10:26:45.000Z</time>
      </trkpt>
      <trkpt lat="47.46827" lon="6.69841">
        <ele>311.1</ele>
        <time>2014-10-12T10:26:46.000Z</time>
      </trkpt>
      <trkpt lat="47.46831" lon="6.69841">
        <ele>309</ele>
        <time>2014-10-12T10:26:48.000Z</time>
      </trkpt>
      <trkpt lat="47.46837" lon="6.69842">
        <ele>306.8</ele>
        <time>2014-10-12T10:26:51.000Z</time>
      </trkpt>
      <trkpt lat="47.46841" lon="6.69842">
        <ele>306.7</ele>
        <time>2014-10-12T10:26:53.000Z</time>
      </trkpt>
      <trkpt lat="47.46843" lon="6.69842">
        <ele>305</ele>
        <time>2014-10-12T10:26:54.000Z</time>
      </trkpt>
      <trkpt lat="47.46846" lon="6.69842">
        <ele>304.2</ele>
        <time>2014-10-12T10:26:55.999Z</time>
      </trkpt>
      <trkpt lat="47.46849" lon="6.69842">
        <ele>304.7</ele>
        <time>2014-10-12T10:26:57.000Z</time>
      </trkpt>
      <trkpt lat="47.46853" lon="6.69842">
        <ele>303.4</ele>
        <time>2014-10-12T10:26:59.000Z</time>
      </trkpt>
      <trkpt lat="47.46855" lon="6.69842">
        <ele>302.6</ele>
        <time>2014-10-12T10:27:00.000Z</time>
      </trkpt>
      <trkpt lat="47.46859" lon="6.69843">
        <ele>305.5</ele>
        <time>2014-10-12T10:27:02.000Z</time>
      </trkpt>
      <trkpt lat="47.46861" lon="6.69843">
        <ele>306.4</ele>
        <time>2014-10-12T10:27:03.000Z</time>
      </trkpt>
      <trkpt lat="47.46863" lon="6.69844">
        <ele>307.2</ele>
        <time>2014-10-12T10:27:04.000Z</time>
      </trkpt>
      <trkpt lat="47.46866" lon="6.69845">
        <ele>307.8</ele>
        <time>2014-10-12T10:27:05.000Z</time>
      </trkpt>
      <trkpt lat="47.46868" lon="6.69847">
        <ele>309.2</ele>
        <time>2014-10-12T10:27:06.000Z</time>
      </trkpt>
      <trkpt lat="47.46871" lon="6.69849">
        <ele>306.4</ele>
        <time>2014-10-12T10:27:07.000Z</time>
      </trkpt>
      <trkpt lat="47.46873" lon="6.69851">
        <ele>305.4</ele>
        <time>2014-10-12T10:27:08.000Z</time>
      </trkpt>
      <trkpt lat="47.46875" lon="6.69852">
        <ele>305.9</ele>
        <time>2014-10-12T10:27:09.000Z</time>
      </trkpt>
      <trkpt lat="47.46879" lon="6.69855">
        <ele>305.1</ele>
        <time>2014-10-12T10:27:11.000Z</time>
      </trkpt>
      <trkpt lat="47.46881" lon="6.69857">
        <ele>303.8</ele>
        <time>2014-10-12T10:27:12.000Z</time>
      </trkpt>
      <trkpt lat="47.46884" lon="6.6986">
        <ele>303.1</ele>
        <time>2014-10-12T10:27:13.000Z</time>
      </trkpt>
      <trkpt lat="47.46886" lon="6.69863">
        <ele>303</ele>
        <time>2014-10-12T10:27:14.000Z</time>
      </trkpt>
      <trkpt lat="47.46889" lon="6.69865">
        <ele>301.8</ele>
        <time>2014-10-12T10:27:15.000Z</time>
      </trkpt>
      <trkpt lat="47.46892" lon="6.69867">
        <ele>300.3</ele>
        <time>2014-10-12T10:27:16.000Z</time>
      </trkpt>
      <trkpt lat="47.46895" lon="6.6987">
        <ele>299.5</ele>
        <time>2014-10-12T10:27:17.000Z</time>
      </trkpt>
      <trkpt lat="47.46898" lon="6.69873">
        <ele>299.4</ele>
        <time>2014-10-12T10:27:18.000Z</time>
      </trkpt>
      <trkpt lat="47.46901" lon="6.69876">
        <ele>298.3</ele>
        <time>2014-10-12T10:27:19.000Z</time>
      </trkpt>
      <trkpt lat="47.46905" lon="6.69879">
        <ele>298</ele>
        <time>2014-10-12T10:27:20.000Z</time>
      </trkpt>
      <trkpt lat="47.46908" lon="6.69881">
        <ele>297.1</ele>
        <time>2014-10-12T10:27:21.000Z</time>
      </trkpt>
      <trkpt lat="47.46911" lon="6.69883">
        <ele>297.3</ele>
        <time>2014-10-12T10:27:22.000Z</time>
      </trkpt>
      <trkpt lat="47.46913" lon="6.69885">
        <ele>294</ele>
        <time>2014-10-12T10:27:23.000Z</time>
      </trkpt>
      <trkpt lat="47.46915" lon="6.69887">
        <ele>293.1</ele>
        <time>2014-10-12T10:27:24.000Z</time>
      </trkpt>
      <trkpt lat="47.46919" lon="6.6989">
        <ele>288.1</ele>
        <time>2014-10-12T10:27:26.000Z</time>
      </trkpt>
      <trkpt lat="47.4692" lon="6.69891">
        <ele>287.6</ele>
        <time>2014-10-12T10:27:27.000Z</time>
      </trkpt>
      <trkpt lat="47.46923" lon="6.69893">
        <ele>288.7</ele>
        <time>2014-10-12T10:27:28.000Z</time>
      </trkpt>
      <trkpt lat="47.46925" lon="6.69894">
        <ele>287.5</ele>
        <time>2014-10-12T10:27:29.000Z</time>
      </trkpt>
      <trkpt lat="47.46929" lon="6.69896">
        <ele>287.3</ele>
        <time>2014-10-12T10:27:30.000Z</time>
      </trkpt>
      <trkpt lat="47.46932" lon="6.69897">
        <ele>287.2</ele>
        <time>2014-10-12T10:27:31.000Z</time>
      </trkpt>
      <trkpt lat="47.46935" lon="6.69899">
        <ele>286.9</ele>
        <time>2014-10-12T10:27:32.000Z</time>
      </trkpt>
      <trkpt lat="47.46938" lon="6.69902">
        <ele>286.7</ele>
        <time>2014-10-12T10:27:33.000Z</time>
      </trkpt>
      <trkpt lat="47.46942" lon="6.69904">
        <ele>286.9</ele>
        <time>2014-10-12T10:27:34.000Z</time>
      </trkpt>
      <trkpt lat="47.46945" lon="6.69906">
        <ele>285.1</ele>
        <time>2014-10-12T10:27:35.000Z</time>
      </trkpt>
      <trkpt lat="47.46948" lon="6.69907">
        <ele>284.2</ele>
        <time>2014-10-12T10:27:36.000Z</time>
      </trkpt>
      <trkpt lat="47.46951" lon="6.69908">
        <ele>283.5</ele>
        <time>2014-10-12T10:27:37.000Z</time>
      </trkpt>
      <trkpt lat="47.46953" lon="6.69909">
        <ele>283.6</ele>
        <time>2014-10-12T10:27:38.000Z</time>
      </trkpt>
      <trkpt lat="47.46956" lon="6.69911">
        <ele>282.7</ele>
        <time>2014-10-12T10:27:39.000Z</time>
      </trkpt>
      <trkpt lat="47.46958" lon="6.69913">
        <ele>282.9</ele>
        <time>2014-10-12T10:27:40.000Z</time>
      </trkpt>
      <trkpt lat="47.46961" lon="6.69916">
        <ele>282.8</ele>
        <time>2014-10-12T10:27:41.000Z</time>
      </trkpt>
      <trkpt lat="47.46963" lon="6.69918">
        <ele>276.4</ele>
        <time>2014-10-12T10:27:42.000Z</time>
      </trkpt>
      <trkpt lat="47.46965" lon="6.69919">
        <ele>274.9</ele>
        <time>2014-10-12T10:27:43.000Z</time>
      </trkpt>
      <trkpt lat="47.46968" lon="6.69921">
        <ele>275.8</ele>
        <time>2014-10-12T10:27:44.000Z</time>
      </trkpt>
      <trkpt lat="47.46972" lon="6.69922">
        <ele>275.1</ele>
        <time>2014-10-12T10:27:45.000Z</time>
      </trkpt>
      <trkpt lat="47.46975" lon="6.69924">
        <ele>272</ele>
        <time>2014-10-12T10:27:46.000Z</time>
      </trkpt>
      <trkpt lat="47.46979" lon="6.69926">
        <ele>273.8</ele>
        <time>2014-10-12T10:27:47.000Z</time>
      </trkpt>
      <trkpt lat="47.46992" lon="6.69935">
        <ele>270.7</ele>
        <time>2014-10-12T10:27:51.000Z</time>
      </trkpt>
      <trkpt lat="47.46995" lon="6.69937">
        <ele>272.3</ele>
        <time>2014-10-12T10:27:52.000Z</time>
      </trkpt>
      <trkpt lat="47.46998" lon="6.69939">
        <ele>270</ele>
        <time>2014-10-12T10:27:53.000Z</time>
      </trkpt>
      <trkpt lat="47.47" lon="6.69942">
        <ele>268.5</ele>
        <time>2014-10-12T10:27:54.000Z</time>
      </trkpt>
      <trkpt lat="47.47002" lon="6.69944">
        <ele>267.4</ele>
        <time>2014-10-12T10:27:55.000Z</time>
      </trkpt>
      <trkpt lat="47.47004" lon="6.69947">
        <ele>266.2</ele>
        <time>2014-10-12T10:27:56.000Z</time>
      </trkpt>
      <trkpt lat="47.47006" lon="6.69948">
        <ele>265</ele>
        <time>2014-10-12T10:27:57.000Z</time>
      </trkpt>
      <trkpt lat="47.4701" lon="6.6995">
        <ele>260.3</ele>
        <time>2014-10-12T10:27:59.000Z</time>
      </trkpt>
      <trkpt lat="47.47011" lon="6.6995">
        <ele>259.4</ele>
        <time>2014-10-12T10:28:00.000Z</time>
      </trkpt>
      <trkpt lat="47.47013" lon="6.69951">
        <ele>259.7</ele>
        <time>2014-10-12T10:28:02.000Z</time>
      </trkpt>
      <trkpt lat="47.47015" lon="6.69951">
        <ele>260</ele>
        <time>2014-10-12T10:28:03.000Z</time>
      </trkpt>
      <trkpt lat="47.47018" lon="6.69952">
        <ele>260.1</ele>
        <time>2014-10-12T10:28:04.000Z</time>
      </trkpt>
      <trkpt lat="47.4702" lon="6.69954">
        <ele>259.5</ele>
        <time>2014-10-12T10:28:05.000Z</time>
      </trkpt>
      <trkpt lat="47.47023" lon="6.69956">
        <ele>257.9</ele>
        <time>2014-10-12T10:28:06.000Z</time>
      </trkpt>
      <trkpt lat="47.47026" lon="6.69959">
        <ele>258</ele>
        <time>2014-10-12T10:28:07.000Z</time>
      </trkpt>
      <trkpt lat="47.47029" lon="6.69962">
        <ele>259</ele>
        <time>2014-10-12T10:28:08.000Z</time>
      </trkpt>
      <trkpt lat="47.47032" lon="6.69965">
        <ele>259.7</ele>
        <time>2014-10-12T10:28:09.000Z</time>
      </trkpt>
      <trkpt lat="47.47035" lon="6.69967">
        <ele>260.3</ele>
        <time>2014-10-12T10:28:10.000Z</time>
      </trkpt>
      <trkpt lat="47.47038" lon="6.6997">
        <ele>260.5</ele>
        <time>2014-10-12T10:28:11.000Z</time>
      </trkpt>
      <trkpt lat="47.47042" lon="6.69972">
        <ele>261.1</ele>
        <time>2014-10-12T10:28:12.000Z</time>
      </trkpt>
      <trkpt lat="47.47045" lon="6.69975">
        <ele>261.5</ele>
        <time>2014-10-12T10:28:13.000Z</time>
      </trkpt>
      <trkpt lat="47.47048" lon="6.69977">
        <ele>261.4</ele>
        <time>2014-10-12T10:28:14.000Z</time>
      </trkpt>
      <trkpt lat="47.47052" lon="6.6998">
        <ele>262.3</ele>
        <time>2014-10-12T10:28:15.000Z</time>
      </trkpt>
      <trkpt lat="47.47055" lon="6.69983">
        <ele>261.3</ele>
        <time>2014-10-12T10:28:16.000Z</time>
      </trkpt>
      <trkpt lat="47.47058" lon="6.69985">
        <ele>261.3</ele>
        <time>2014-10-12T10:28:17.000Z</time>
      </trkpt>
      <trkpt lat="47.47061" lon="6.69989">
        <ele>263.7</ele>
        <time>2014-10-12T10:28:18.000Z</time>
      </trkpt>
      <trkpt lat="47.47065" lon="6.69993">
        <ele>263.6</ele>
        <time>2014-10-12T10:28:19.000Z</time>
      </trkpt>
      <trkpt lat="47.47069" lon="6.69996">
        <ele>263.4</ele>
        <time>2014-10-12T10:28:20.000Z</time>
      </trkpt>
      <trkpt lat="47.47073" lon="6.70001">
        <ele>263.8</ele>
        <time>2014-10-12T10:28:21.000Z</time>
      </trkpt>
      <trkpt lat="47.47078" lon="6.70004">
        <ele>263.6</ele>
        <time>2014-10-12T10:28:22.000Z</time>
      </trkpt>
      <trkpt lat="47.4709" lon="6.70012">
        <ele>264</ele>
        <time>2014-10-12T10:28:23.000Z</time>
      </trkpt>
      <trkpt lat="47.47095" lon="6.70015">
        <ele>264.3</ele>
        <time>2014-10-12T10:28:24.000Z</time>
      </trkpt>
      <trkpt lat="47.47099" lon="6.7002">
        <ele>265</ele>
        <time>2014-10-12T10:28:25.000Z</time>
      </trkpt>
      <trkpt lat="47.47103" lon="6.70025">
        <ele>265.3</ele>
        <time>2014-10-12T10:28:26.000Z</time>
      </trkpt>
      <trkpt lat="47.47106" lon="6.70033">
        <ele>264.7</ele>
        <time>2014-10-12T10:28:27.000Z</time>
      </trkpt>
      <trkpt lat="47.47111" lon="6.70038">
        <ele>265.4</ele>
        <time>2014-10-12T10:28:28.000Z</time>
      </trkpt>
      <trkpt lat="47.47116" lon="6.70043">
        <ele>266</ele>
        <time>2014-10-12T10:28:29.000Z</time>
      </trkpt>
      <trkpt lat="47.47121" lon="6.70048">
        <ele>266.3</ele>
        <time>2014-10-12T10:28:30.000Z</time>
      </trkpt>
      <trkpt lat="47.47129" lon="6.70055">
        <ele>266.7</ele>
        <time>2014-10-12T10:28:31.000Z</time>
      </trkpt>
      <trkpt lat="47.47134" lon="6.70061">
        <ele>265.7</ele>
        <time>2014-10-12T10:28:32.000Z</time>
      </trkpt>
      <trkpt lat="47.4714" lon="6.70068">
        <ele>265.8</ele>
        <time>2014-10-12T10:28:33.000Z</time>
      </trkpt>
      <trkpt lat="47.47146" lon="6.70074">
        <ele>266.7</ele>
        <time>2014-10-12T10:28:34.000Z</time>
      </trkpt>
      <trkpt lat="47.47152" lon="6.7008">
        <ele>268.1</ele>
        <time>2014-10-12T10:28:35.000Z</time>
      </trkpt>
      <trkpt lat="47.47157" lon="6.70085">
        <ele>268.8</ele>
        <time>2014-10-12T10:28:36.000Z</time>
      </trkpt>
      <trkpt lat="47.47162" lon="6.70088">
        <ele>269.8</ele>
        <time>2014-10-12T10:28:37.000Z</time>
      </trkpt>
      <trkpt lat="47.47165" lon="6.70092">
        <ele>269.9</ele>
        <time>2014-10-12T10:28:38.000Z</time>
      </trkpt>
      <trkpt lat="47.47167" lon="6.70095">
        <ele>270.2</ele>
        <time>2014-10-12T10:28:39.000Z</time>
      </trkpt>
      <trkpt lat="47.47171" lon="6.70098">
        <ele>270.3</ele>
        <time>2014-10-12T10:28:40.000Z</time>
      </trkpt>
      <trkpt lat="47.47174" lon="6.701">
        <ele>270</ele>
        <time>2014-10-12T10:28:41.000Z</time>
      </trkpt>
      <trkpt lat="47.47177" lon="6.70103">
        <ele>270.2</ele>
        <time>2014-10-12T10:28:42.000Z</time>
      </trkpt>
      <trkpt lat="47.4718" lon="6.70105">
        <ele>268.3</ele>
        <time>2014-10-12T10:28:43.000Z</time>
      </trkpt>
      <trkpt lat="47.47183" lon="6.70104">
        <ele>267.8</ele>
        <time>2014-10-12T10:28:44.000Z</time>
      </trkpt>
      <trkpt lat="47.47187" lon="6.70107">
        <ele>268</ele>
        <time>2014-10-12T10:28:45.000Z</time>
      </trkpt>
      <trkpt lat="47.47188" lon="6.70111">
        <ele>266.7</ele>
        <time>2014-10-12T10:28:46.000Z</time>
      </trkpt>
      <trkpt lat="47.4719" lon="6.70112">
        <ele>265.5</ele>
        <time>2014-10-12T10:28:47.000Z</time>
      </trkpt>
      <trkpt lat="47.47193" lon="6.70114">
        <ele>265.7</ele>
        <time>2014-10-12T10:28:48.000Z</time>
      </trkpt>
      <trkpt lat="47.47222" lon="6.70143">
        <ele>267.1</ele>
        <time>2014-10-12T10:28:57.000Z</time>
      </trkpt>
      <trkpt lat="47.47226" lon="6.70146">
        <ele>266.4</ele>
        <time>2014-10-12T10:28:58.000Z</time>
      </trkpt>
      <trkpt lat="47.4723" lon="6.70149">
        <ele>265.9</ele>
        <time>2014-10-12T10:28:59.000Z</time>
      </trkpt>
      <trkpt lat="47.47234" lon="6.70152">
        <ele>265.7</ele>
        <time>2014-10-12T10:29:00.000Z</time>
      </trkpt>
      <trkpt lat="47.47238" lon="6.70155">
        <ele>266</ele>
        <time>2014-10-12T10:29:01.000Z</time>
      </trkpt>
      <trkpt lat="47.47242" lon="6.70158">
        <ele>266.1</ele>
        <time>2014-10-12T10:29:02.000Z</time>
      </trkpt>
      <trkpt lat="47.47246" lon="6.70162">
        <ele>265.4</ele>
        <time>2014-10-12T10:29:03.000Z</time>
      </trkpt>
      <trkpt lat="47.4725" lon="6.70166">
        <ele>264.9</ele>
        <time>2014-10-12T10:29:04.000Z</time>
      </trkpt>
      <trkpt lat="47.47253" lon="6.7017">
        <ele>264.9</ele>
        <time>2014-10-12T10:29:05.000Z</time>
      </trkpt>
      <trkpt lat="47.47256" lon="6.70176">
        <ele>265</ele>
        <time>2014-10-12T10:29:06.000Z</time>
      </trkpt>
      <trkpt lat="47.47259" lon="6.70181">
        <ele>266.1</ele>
        <time>2014-10-12T10:29:07.000Z</time>
      </trkpt>
      <trkpt lat="47.47262" lon="6.70186">
        <ele>267.2</ele>
        <time>2014-10-12T10:29:08.000Z</time>
      </trkpt>
      <trkpt lat="47.47266" lon="6.7019">
        <ele>269.2</ele>
        <time>2014-10-12T10:29:09.000Z</time>
      </trkpt>
      <trkpt lat="47.47274" lon="6.70196">
        <ele>272.8</ele>
        <time>2014-10-12T10:29:10.000Z</time>
      </trkpt>
      <trkpt lat="47.4728" lon="6.70199">
        <ele>275.2</ele>
        <time>2014-10-12T10:29:11.000Z</time>
      </trkpt>
      <trkpt lat="47.47284" lon="6.70203">
        <ele>276.8</ele>
        <time>2014-10-12T10:29:12.000Z</time>
      </trkpt>
      <trkpt lat="47.47288" lon="6.70206">
        <ele>278.2</ele>
        <time>2014-10-12T10:29:13.000Z</time>
      </trkpt>
      <trkpt lat="47.47291" lon="6.7021">
        <ele>279</ele>
        <time>2014-10-12T10:29:14.000Z</time>
      </trkpt>
      <trkpt lat="47.47293" lon="6.70211">
        <ele>278.7</ele>
        <time>2014-10-12T10:29:15.000Z</time>
      </trkpt>
      <trkpt lat="47.47295" lon="6.70214">
        <ele>279.5</ele>
        <time>2014-10-12T10:29:16.000Z</time>
      </trkpt>
      <trkpt lat="47.47297" lon="6.70216">
        <ele>279.9</ele>
        <time>2014-10-12T10:29:17.000Z</time>
      </trkpt>
      <trkpt lat="47.47299" lon="6.70217">
        <ele>280.7</ele>
        <time>2014-10-12T10:29:18.000Z</time>
      </trkpt>
      <trkpt lat="47.47302" lon="6.7022">
        <ele>282.4</ele>
        <time>2014-10-12T10:29:19.000Z</time>
      </trkpt>
      <trkpt lat="47.47302" lon="6.70224">
        <ele>282</ele>
        <time>2014-10-12T10:29:20.000Z</time>
      </trkpt>
      <trkpt lat="47.47304" lon="6.70226">
        <ele>280.9</ele>
        <time>2014-10-12T10:29:21.000Z</time>
      </trkpt>
      <trkpt lat="47.47307" lon="6.70229">
        <ele>279.6</ele>
        <time>2014-10-12T10:29:23.000Z</time>
      </trkpt>
      <trkpt lat="47.47309" lon="6.7023">
        <ele>280.7</ele>
        <time>2014-10-12T10:29:24.000Z</time>
      </trkpt>
      <trkpt lat="47.47311" lon="6.70233">
        <ele>281.2</ele>
        <time>2014-10-12T10:29:25.000Z</time>
      </trkpt>
      <trkpt lat="47.47312" lon="6.70236">
        <ele>281.1</ele>
        <time>2014-10-12T10:29:26.000Z</time>
      </trkpt>
      <trkpt lat="47.47314" lon="6.7024">
        <ele>282.2</ele>
        <time>2014-10-12T10:29:27.000Z</time>
      </trkpt>
      <trkpt lat="47.47316" lon="6.70243">
        <ele>282.5</ele>
        <time>2014-10-12T10:29:28.000Z</time>
      </trkpt>
      <trkpt lat="47.47317" lon="6.70245">
        <ele>282.6</ele>
        <time>2014-10-12T10:29:29.000Z</time>
      </trkpt>
      <trkpt lat="47.4732" lon="6.70247">
        <ele>284.6</ele>
        <time>2014-10-12T10:29:30.000Z</time>
      </trkpt>
      <trkpt lat="47.47322" lon="6.70248">
        <ele>285.6</ele>
        <time>2014-10-12T10:29:31.000Z</time>
      </trkpt>
      <trkpt lat="47.47325" lon="6.70249">
        <ele>286.3</ele>
        <time>2014-10-12T10:29:32.000Z</time>
      </trkpt>
      <trkpt lat="47.47327" lon="6.70251">
        <ele>286.7</ele>
        <time>2014-10-12T10:29:33.000Z</time>
      </trkpt>
      <trkpt lat="47.47329" lon="6.70252">
        <ele>285.5</ele>
        <time>2014-10-12T10:29:34.000Z</time>
      </trkpt>
      <trkpt lat="47.47331" lon="6.70254">
        <ele>285.9</ele>
        <time>2014-10-12T10:29:35.000Z</time>
      </trkpt>
      <trkpt lat="47.47333" lon="6.70256">
        <ele>287</ele>
        <time>2014-10-12T10:29:36.000Z</time>
      </trkpt>
      <trkpt lat="47.47335" lon="6.70258">
        <ele>286.7</ele>
        <time>2014-10-12T10:29:37.000Z</time>
      </trkpt>
      <trkpt lat="47.47337" lon="6.70261">
        <ele>286.8</ele>
        <time>2014-10-12T10:29:38.000Z</time>
      </trkpt>
      <trkpt lat="47.47339" lon="6.70263">
        <ele>286.7</ele>
        <time>2014-10-12T10:29:39.000Z</time>
      </trkpt>
      <trkpt lat="47.47341" lon="6.70265">
        <ele>286.3</ele>
        <time>2014-10-12T10:29:40.000Z</time>
      </trkpt>
      <trkpt lat="47.47345" lon="6.70267">
        <ele>285.8</ele>
        <time>2014-10-12T10:29:42.000Z</time>
      </trkpt>
      <trkpt lat="47.47347" lon="6.70268">
        <ele>285.8</ele>
        <time>2014-10-12T10:29:43.000Z</time>
      </trkpt>
      <trkpt lat="47.47351" lon="6.70272">
        <ele>284.3</ele>
        <time>2014-10-12T10:29:45.000Z</time>
      </trkpt>
      <trkpt lat="47.47353" lon="6.70273">
        <ele>284.7</ele>
        <time>2014-10-12T10:29:46.000Z</time>
      </trkpt>
      <trkpt lat="47.47355" lon="6.70275">
        <ele>285.5</ele>
        <time>2014-10-12T10:29:47.000Z</time>
      </trkpt>
      <trkpt lat="47.47357" lon="6.70278">
        <ele>285.7</ele>
        <time>2014-10-12T10:29:48.000Z</time>
      </trkpt>
      <trkpt lat="47.47363" lon="6.70284">
        <ele>286</ele>
        <time>2014-10-12T10:29:51.000Z</time>
      </trkpt>
      <trkpt lat="47.47364" lon="6.70287">
        <ele>286.7</ele>
        <time>2014-10-12T10:29:52.000Z</time>
      </trkpt>
      <trkpt lat="47.47366" lon="6.70289">
        <ele>286.2</ele>
        <time>2014-10-12T10:29:53.000Z</time>
      </trkpt>
      <trkpt lat="47.4737" lon="6.70293">
        <ele>285.9</ele>
        <time>2014-10-12T10:29:55.000Z</time>
      </trkpt>
      <trkpt lat="47.47371" lon="6.70295">
        <ele>285.2</ele>
        <time>2014-10-12T10:29:56.000Z</time>
      </trkpt>
      <trkpt lat="47.47373" lon="6.70298">
        <ele>284.8</ele>
        <time>2014-10-12T10:29:57.000Z</time>
      </trkpt>
      <trkpt lat="47.47374" lon="6.70301">
        <ele>284.8</ele>
        <time>2014-10-12T10:29:58.000Z</time>
      </trkpt>
      <trkpt lat="47.47377" lon="6.70304">
        <ele>286.6</ele>
        <time>2014-10-12T10:29:59.000Z</time>
      </trkpt>
      <trkpt lat="47.47379" lon="6.70307">
        <ele>287.3</ele>
        <time>2014-10-12T10:30:00.000Z</time>
      </trkpt>
      <trkpt lat="47.47381" lon="6.7031">
        <ele>287</ele>
        <time>2014-10-12T10:30:01.000Z</time>
      </trkpt>
      <trkpt lat="47.47384" lon="6.70313">
        <ele>286.8</ele>
        <time>2014-10-12T10:30:02.000Z</time>
      </trkpt>
      <trkpt lat="47.47386" lon="6.70315">
        <ele>286.9</ele>
        <time>2014-10-12T10:30:03.000Z</time>
      </trkpt>
      <trkpt lat="47.47388" lon="6.70318">
        <ele>286.5</ele>
        <time>2014-10-12T10:30:04.000Z</time>
      </trkpt>
      <trkpt lat="47.4739" lon="6.70321">
        <ele>286.7</ele>
        <time>2014-10-12T10:30:05.000Z</time>
      </trkpt>
      <trkpt lat="47.47393" lon="6.70324">
        <ele>287.2</ele>
        <time>2014-10-12T10:30:06.000Z</time>
      </trkpt>
      <trkpt lat="47.47395" lon="6.70328">
        <ele>288</ele>
        <time>2014-10-12T10:30:07.000Z</time>
      </trkpt>
      <trkpt lat="47.47397" lon="6.70333">
        <ele>288.7</ele>
        <time>2014-10-12T10:30:08.000Z</time>
      </trkpt>
      <trkpt lat="47.474" lon="6.70337">
        <ele>290.4</ele>
        <time>2014-10-12T10:30:09.000Z</time>
      </trkpt>
      <trkpt lat="47.47402" lon="6.70341">
        <ele>289.9</ele>
        <time>2014-10-12T10:30:10.000Z</time>
      </trkpt>
      <trkpt lat="47.47404" lon="6.70345">
        <ele>289.3</ele>
        <time>2014-10-12T10:30:11.000Z</time>
      </trkpt>
      <trkpt lat="47.47406" lon="6.70348">
        <ele>289.4</ele>
        <time>2014-10-12T10:30:12.000Z</time>
      </trkpt>
      <trkpt lat="47.47409" lon="6.7035">
        <ele>288.7</ele>
        <time>2014-10-12T10:30:13.000Z</time>
      </trkpt>
      <trkpt lat="47.47411" lon="6.70352">
        <ele>288.5</ele>
        <time>2014-10-12T10:30:14.000Z</time>
      </trkpt>
      <trkpt lat="47.47413" lon="6.70353">
        <ele>288.1</ele>
        <time>2014-10-12T10:30:15.000Z</time>
      </trkpt>
      <trkpt lat="47.47416" lon="6.70354">
        <ele>287</ele>
        <time>2014-10-12T10:30:16.000Z</time>
      </trkpt>
      <trkpt lat="47.47418" lon="6.70355">
        <ele>286.4</ele>
        <time>2014-10-12T10:30:17.000Z</time>
      </trkpt>
      <trkpt lat="47.4742" lon="6.70357">
        <ele>285.8</ele>
        <time>2014-10-12T10:30:18.000Z</time>
      </trkpt>
      <trkpt lat="47.47422" lon="6.70359">
        <ele>285.8</ele>
        <time>2014-10-12T10:30:19.000Z</time>
      </trkpt>
      <trkpt lat="47.47424" lon="6.70361">
        <ele>285.5</ele>
        <time>2014-10-12T10:30:20.000Z</time>
      </trkpt>
      <trkpt lat="47.47426" lon="6.70364">
        <ele>285.8</ele>
        <time>2014-10-12T10:30:21.000Z</time>
      </trkpt>
      <trkpt lat="47.47429" lon="6.70367">
        <ele>285.8</ele>
        <time>2014-10-12T10:30:22.000Z</time>
      </trkpt>
      <trkpt lat="47.47431" lon="6.70371">
        <ele>285.9</ele>
        <time>2014-10-12T10:30:23.000Z</time>
      </trkpt>
      <trkpt lat="47.47433" lon="6.70374">
        <ele>286.1</ele>
        <time>2014-10-12T10:30:24.000Z</time>
      </trkpt>
      <trkpt lat="47.47435" lon="6.70376">
        <ele>285.6</ele>
        <time>2014-10-12T10:30:25.000Z</time>
      </trkpt>
      <trkpt lat="47.47438" lon="6.70378">
        <ele>285.8</ele>
        <time>2014-10-12T10:30:26.000Z</time>
      </trkpt>
      <trkpt lat="47.4744" lon="6.7038">
        <ele>285.6</ele>
        <time>2014-10-12T10:30:27.000Z</time>
      </trkpt>
      <trkpt lat="47.47443" lon="6.70382">
        <ele>285.5</ele>
        <time>2014-10-12T10:30:28.000Z</time>
      </trkpt>
      <trkpt lat="47.47445" lon="6.70383">
        <ele>285.7</ele>
        <time>2014-10-12T10:30:29.000Z</time>
      </trkpt>
      <trkpt lat="47.47447" lon="6.70385">
        <ele>285</ele>
        <time>2014-10-12T10:30:30.000Z</time>
      </trkpt>
      <trkpt lat="47.4745" lon="6.70387">
        <ele>285</ele>
        <time>2014-10-12T10:30:31.000Z</time>
      </trkpt>
      <trkpt lat="47.47452" lon="6.70389">
        <ele>284.9</ele>
        <time>2014-10-12T10:30:32.000Z</time>
      </trkpt>
      <trkpt lat="47.47454" lon="6.70392">
        <ele>284.5</ele>
        <time>2014-10-12T10:30:33.000Z</time>
      </trkpt>
      <trkpt lat="47.47456" lon="6.70396">
        <ele>284.4</ele>
        <time>2014-10-12T10:30:34.000Z</time>
      </trkpt>
      <trkpt lat="47.47458" lon="6.70399">
        <ele>283.8</ele>
        <time>2014-10-12T10:30:35.000Z</time>
      </trkpt>
      <trkpt lat="47.4746" lon="6.70402">
        <ele>282.9</ele>
        <time>2014-10-12T10:30:36.000Z</time>
      </trkpt>
      <trkpt lat="47.47461" lon="6.70406">
        <ele>283.5</ele>
        <time>2014-10-12T10:30:37.000Z</time>
      </trkpt>
      <trkpt lat="47.47464" lon="6.70408">
        <ele>283.2</ele>
        <time>2014-10-12T10:30:38.000Z</time>
      </trkpt>
      <trkpt lat="47.47466" lon="6.70411">
        <ele>280.8</ele>
        <time>2014-10-12T10:30:39.000Z</time>
      </trkpt>
      <trkpt lat="47.47468" lon="6.70414">
        <ele>279.9</ele>
        <time>2014-10-12T10:30:40.000Z</time>
      </trkpt>
      <trkpt lat="47.4747" lon="6.70417">
        <ele>277</ele>
        <time>2014-10-12T10:30:41.000Z</time>
      </trkpt>
      <trkpt lat="47.47473" lon="6.70421">
        <ele>276.3</ele>
        <time>2014-10-12T10:30:42.000Z</time>
      </trkpt>
      <trkpt lat="47.47476" lon="6.70425">
        <ele>275.9</ele>
        <time>2014-10-12T10:30:43.000Z</time>
      </trkpt>
      <trkpt lat="47.47479" lon="6.70429">
        <ele>275</ele>
        <time>2014-10-12T10:30:44.000Z</time>
      </trkpt>
      <trkpt lat="47.47482" lon="6.70433">
        <ele>275.9</ele>
        <time>2014-10-12T10:30:45.000Z</time>
      </trkpt>
      <trkpt lat="47.47486" lon="6.70438">
        <ele>277.2</ele>
        <time>2014-10-12T10:30:46.000Z</time>
      </trkpt>
      <trkpt lat="47.4749" lon="6.70442">
        <ele>277.1</ele>
        <time>2014-10-12T10:30:47.000Z</time>
      </trkpt>
      <trkpt lat="47.475" lon="6.70454">
        <ele>276.6</ele>
        <time>2014-10-12T10:30:50.000Z</time>
      </trkpt>
      <trkpt lat="47.47503" lon="6.70457">
        <ele>277.4</ele>
        <time>2014-10-12T10:30:51.000Z</time>
      </trkpt>
      <trkpt lat="47.47507" lon="6.7046">
        <ele>278.7</ele>
        <time>2014-10-12T10:30:52.000Z</time>
      </trkpt>
      <trkpt lat="47.47511" lon="6.70463">
        <ele>279</ele>
        <time>2014-10-12T10:30:53.000Z</time>
      </trkpt>
      <trkpt lat="47.47514" lon="6.70467">
        <ele>280.5</ele>
        <time>2014-10-12T10:30:54.000Z</time>
      </trkpt>
      <trkpt lat="47.47517" lon="6.70471">
        <ele>281.9</ele>
        <time>2014-10-12T10:30:55.000Z</time>
      </trkpt>
      <trkpt lat="47.4752" lon="6.70474">
        <ele>281.6</ele>
        <time>2014-10-12T10:30:56.000Z</time>
      </trkpt>
      <trkpt lat="47.47523" lon="6.70477">
        <ele>282.1</ele>
        <time>2014-10-12T10:30:57.000Z</time>
      </trkpt>
      <trkpt lat="47.47526" lon="6.70479">
        <ele>282.2</ele>
        <time>2014-10-12T10:30:58.000Z</time>
      </trkpt>
      <trkpt lat="47.47528" lon="6.70482">
        <ele>282.6</ele>
        <time>2014-10-12T10:30:59.000Z</time>
      </trkpt>
      <trkpt lat="47.47531" lon="6.70484">
        <ele>284.2</ele>
        <time>2014-10-12T10:31:00.000Z</time>
      </trkpt>
      <trkpt lat="47.47534" lon="6.70488">
        <ele>284</ele>
        <time>2014-10-12T10:31:01.000Z</time>
      </trkpt>
      <trkpt lat="47.47536" lon="6.70491">
        <ele>284.8</ele>
        <time>2014-10-12T10:31:02.000Z</time>
      </trkpt>
      <trkpt lat="47.47539" lon="6.70494">
        <ele>285.1</ele>
        <time>2014-10-12T10:31:03.000Z</time>
      </trkpt>
      <trkpt lat="47.47542" lon="6.70498">
        <ele>285.6</ele>
        <time>2014-10-12T10:31:04.000Z</time>
      </trkpt>
      <trkpt lat="47.47545" lon="6.70501">
        <ele>285.7</ele>
        <time>2014-10-12T10:31:05.000Z</time>
      </trkpt>
      <trkpt lat="47.47548" lon="6.70505">
        <ele>287.1</ele>
        <time>2014-10-12T10:31:06.000Z</time>
      </trkpt>
      <trkpt lat="47.47552" lon="6.70509">
        <ele>287.7</ele>
        <time>2014-10-12T10:31:07.000Z</time>
      </trkpt>
      <trkpt lat="47.47555" lon="6.70513">
        <ele>288</ele>
        <time>2014-10-12T10:31:08.000Z</time>
      </trkpt>
      <trkpt lat="47.47559" lon="6.70518">
        <ele>287.3</ele>
        <time>2014-10-12T10:31:09.000Z</time>
      </trkpt>
      <trkpt lat="47.47562" lon="6.70523">
        <ele>286.8</ele>
        <time>2014-10-12T10:31:10.000Z</time>
      </trkpt>
      <trkpt lat="47.47565" lon="6.70528">
        <ele>287.7</ele>
        <time>2014-10-12T10:31:11.000Z</time>
      </trkpt>
      <trkpt lat="47.47569" lon="6.70533">
        <ele>290.6</ele>
        <time>2014-10-12T10:31:12.000Z</time>
      </trkpt>
      <trkpt lat="47.47572" lon="6.70539">
        <ele>291.9</ele>
        <time>2014-10-12T10:31:13.000Z</time>
      </trkpt>
      <trkpt lat="47.47576" lon="6.70545">
        <ele>291.4</ele>
        <time>2014-10-12T10:31:14.000Z</time>
      </trkpt>
      <trkpt lat="47.4758" lon="6.70551">
        <ele>291.5</ele>
        <time>2014-10-12T10:31:15.000Z</time>
      </trkpt>
      <trkpt lat="47.47583" lon="6.70556">
        <ele>292.6</ele>
        <time>2014-10-12T10:31:16.000Z</time>
      </trkpt>
      <trkpt lat="47.47586" lon="6.70562">
        <ele>293.5</ele>
        <time>2014-10-12T10:31:17.000Z</time>
      </trkpt>
      <trkpt lat="47.47588" lon="6.70567">
        <ele>293.8</ele>
        <time>2014-10-12T10:31:18.000Z</time>
      </trkpt>
      <trkpt lat="47.4759" lon="6.70571">
        <ele>295.6</ele>
        <time>2014-10-12T10:31:19.000Z</time>
      </trkpt>
      <trkpt lat="47.47592" lon="6.70575">
        <ele>297.9</ele>
        <time>2014-10-12T10:31:20.000Z</time>
      </trkpt>
      <trkpt lat="47.47594" lon="6.70579">
        <ele>300</ele>
        <time>2014-10-12T10:31:21.000Z</time>
      </trkpt>
      <trkpt lat="47.47597" lon="6.70582">
        <ele>300.7</ele>
        <time>2014-10-12T10:31:22.000Z</time>
      </trkpt>
      <trkpt lat="47.47599" lon="6.70585">
        <ele>301.4</ele>
        <time>2014-10-12T10:31:23.000Z</time>
      </trkpt>
      <trkpt lat="47.476" lon="6.70588">
        <ele>303</ele>
        <time>2014-10-12T10:31:24.000Z</time>
      </trkpt>
      <trkpt lat="47.47602" lon="6.70591">
        <ele>304.5</ele>
        <time>2014-10-12T10:31:25.000Z</time>
      </trkpt>
      <trkpt lat="47.47604" lon="6.70594">
        <ele>305.7</ele>
        <time>2014-10-12T10:31:26.000Z</time>
      </trkpt>
      <trkpt lat="47.47605" lon="6.70597">
        <ele>306.2</ele>
        <time>2014-10-12T10:31:27.000Z</time>
      </trkpt>
      <trkpt lat="47.47605" lon="6.706">
        <ele>307.9</ele>
        <time>2014-10-12T10:31:28.000Z</time>
      </trkpt>
      <trkpt lat="47.47606" lon="6.70603">
        <ele>309.8</ele>
        <time>2014-10-12T10:31:29.000Z</time>
      </trkpt>
      <trkpt lat="47.47606" lon="6.70606">
        <ele>311.1</ele>
        <time>2014-10-12T10:31:30.000Z</time>
      </trkpt>
      <trkpt lat="47.47607" lon="6.7061">
        <ele>313.1</ele>
        <time>2014-10-12T10:31:31.000Z</time>
      </trkpt>
      <trkpt lat="47.47609" lon="6.70613">
        <ele>314.9</ele>
        <time>2014-10-12T10:31:32.000Z</time>
      </trkpt>
      <trkpt lat="47.4761" lon="6.70616">
        <ele>316.2</ele>
        <time>2014-10-12T10:31:33.000Z</time>
      </trkpt>
      <trkpt lat="47.47614" lon="6.7062">
        <ele>318</ele>
        <time>2014-10-12T10:31:35.000Z</time>
      </trkpt>
      <trkpt lat="47.47615" lon="6.70621">
        <ele>319.2</ele>
        <time>2014-10-12T10:31:36.000Z</time>
      </trkpt>
      <trkpt lat="47.47619" lon="6.70621">
        <ele>320.1</ele>
        <time>2014-10-12T10:31:39.000Z</time>
      </trkpt>
      <trkpt lat="47.47621" lon="6.7062">
        <ele>320.5</ele>
        <time>2014-10-12T10:31:40.000Z</time>
      </trkpt>
      <trkpt lat="47.47623" lon="6.70618">
        <ele>320.8</ele>
        <time>2014-10-12T10:31:41.000Z</time>
      </trkpt>
      <trkpt lat="47.47625" lon="6.70617">
        <ele>320.9</ele>
        <time>2014-10-12T10:31:42.000Z</time>
      </trkpt>
      <trkpt lat="47.47628" lon="6.70615">
        <ele>321.1</ele>
        <time>2014-10-12T10:31:43.000Z</time>
      </trkpt>
      <trkpt lat="47.4763" lon="6.70613">
        <ele>321.4</ele>
        <time>2014-10-12T10:31:44.000Z</time>
      </trkpt>
      <trkpt lat="47.47633" lon="6.7061">
        <ele>321.8</ele>
        <time>2014-10-12T10:31:45.000Z</time>
      </trkpt>
      <trkpt lat="47.47636" lon="6.70608">
        <ele>321.9</ele>
        <time>2014-10-12T10:31:46.000Z</time>
      </trkpt>
      <trkpt lat="47.47639" lon="6.70605">
        <ele>322.5</ele>
        <time>2014-10-12T10:31:47.000Z</time>
      </trkpt>
      <trkpt lat="47.47646" lon="6.70598">
        <ele>322.4</ele>
        <time>2014-10-12T10:31:50.000Z</time>
      </trkpt>
      <trkpt lat="47.47648" lon="6.70596">
        <ele>321.4</ele>
        <time>2014-10-12T10:31:51.000Z</time>
      </trkpt>
      <trkpt lat="47.47649" lon="6.70594">
        <ele>322</ele>
        <time>2014-10-12T10:31:52.000Z</time>
      </trkpt>
      <trkpt lat="47.47651" lon="6.70592">
        <ele>322.7</ele>
        <time>2014-10-12T10:31:53.000Z</time>
      </trkpt>
      <trkpt lat="47.47654" lon="6.7059">
        <ele>323.2</ele>
        <time>2014-10-12T10:31:54.000Z</time>
      </trkpt>
      <trkpt lat="47.47656" lon="6.70588">
        <ele>323.3</ele>
        <time>2014-10-12T10:31:55.000Z</time>
      </trkpt>
      <trkpt lat="47.47658" lon="6.70586">
        <ele>323</ele>
        <time>2014-10-12T10:31:56.000Z</time>
      </trkpt>
      <trkpt lat="47.47659" lon="6.70583">
        <ele>322.8</ele>
        <time>2014-10-12T10:31:57.000Z</time>
      </trkpt>
      <trkpt lat="47.47661" lon="6.70581">
        <ele>322.5</ele>
        <time>2014-10-12T10:31:58.000Z</time>
      </trkpt>
      <trkpt lat="47.47663" lon="6.70579">
        <ele>322.7</ele>
        <time>2014-10-12T10:31:59.000Z</time>
      </trkpt>
      <trkpt lat="47.47665" lon="6.70577">
        <ele>322.6</ele>
        <time>2014-10-12T10:31:59.999Z</time>
      </trkpt>
      <trkpt lat="47.47667" lon="6.70574">
        <ele>322.2</ele>
        <time>2014-10-12T10:32:01.000Z</time>
      </trkpt>
      <trkpt lat="47.47669" lon="6.70571">
        <ele>322.3</ele>
        <time>2014-10-12T10:32:02.000Z</time>
      </trkpt>
      <trkpt lat="47.47671" lon="6.70569">
        <ele>322.2</ele>
        <time>2014-10-12T10:32:03.000Z</time>
      </trkpt>
      <trkpt lat="47.47673" lon="6.70566">
        <ele>322.3</ele>
        <time>2014-10-12T10:32:04.000Z</time>
      </trkpt>
      <trkpt lat="47.47675" lon="6.70563">
        <ele>322.5</ele>
        <time>2014-10-12T10:32:05.000Z</time>
      </trkpt>
      <trkpt lat="47.47678" lon="6.70561">
        <ele>322.7</ele>
        <time>2014-10-12T10:32:06.000Z</time>
      </trkpt>
      <trkpt lat="47.4768" lon="6.70558">
        <ele>322.7</ele>
        <time>2014-10-12T10:32:07.000Z</time>
      </trkpt>
      <trkpt lat="47.47682" lon="6.70555">
        <ele>322.6</ele>
        <time>2014-10-12T10:32:08.000Z</time>
      </trkpt>
      <trkpt lat="47.47684" lon="6.70553">
        <ele>322.9</ele>
        <time>2014-10-12T10:32:09.000Z</time>
      </trkpt>
      <trkpt lat="47.47686" lon="6.70551">
        <ele>323</ele>
        <time>2014-10-12T10:32:10.000Z</time>
      </trkpt>
      <trkpt lat="47.47689" lon="6.70547">
        <ele>322.4</ele>
        <time>2014-10-12T10:32:12.000Z</time>
      </trkpt>
      <trkpt lat="47.47691" lon="6.70546">
        <ele>322.3</ele>
        <time>2014-10-12T10:32:13.000Z</time>
      </trkpt>
      <trkpt lat="47.47694" lon="6.70542">
        <ele>322.4</ele>
        <time>2014-10-12T10:32:15.000Z</time>
      </trkpt>
      <trkpt lat="47.47695" lon="6.70539">
        <ele>322.4</ele>
        <time>2014-10-12T10:32:16.000Z</time>
      </trkpt>
      <trkpt lat="47.47698" lon="6.70537">
        <ele>322.7</ele>
        <time>2014-10-12T10:32:17.000Z</time>
      </trkpt>
      <trkpt lat="47.477" lon="6.70535">
        <ele>323.1</ele>
        <time>2014-10-12T10:32:18.000Z</time>
      </trkpt>
      <trkpt lat="47.47703" lon="6.70532">
        <ele>323.1</ele>
        <time>2014-10-12T10:32:19.000Z</time>
      </trkpt>
      <trkpt lat="47.47705" lon="6.70529">
        <ele>322.5</ele>
        <time>2014-10-12T10:32:20.000Z</time>
      </trkpt>
      <trkpt lat="47.47708" lon="6.70527">
        <ele>322.7</ele>
        <time>2014-10-12T10:32:21.000Z</time>
      </trkpt>
      <trkpt lat="47.4771" lon="6.70525">
        <ele>322.3</ele>
        <time>2014-10-12T10:32:22.000Z</time>
      </trkpt>
      <trkpt lat="47.47712" lon="6.70522">
        <ele>322</ele>
        <time>2014-10-12T10:32:23.000Z</time>
      </trkpt>
      <trkpt lat="47.47713" lon="6.7052">
        <ele>321.5</ele>
        <time>2014-10-12T10:32:24.000Z</time>
      </trkpt>
      <trkpt lat="47.47715" lon="6.70517">
        <ele>321.4</ele>
        <time>2014-10-12T10:32:25.000Z</time>
      </trkpt>
      <trkpt lat="47.47716" lon="6.70515">
        <ele>321.5</ele>
        <time>2014-10-12T10:32:26.000Z</time>
      </trkpt>
      <trkpt lat="47.47719" lon="6.70511">
        <ele>321.7</ele>
        <time>2014-10-12T10:32:28.000Z</time>
      </trkpt>
      <trkpt lat="47.47721" lon="6.70509">
        <ele>321.9</ele>
        <time>2014-10-12T10:32:29.000Z</time>
      </trkpt>
      <trkpt lat="47.47724" lon="6.70507">
        <ele>322.2</ele>
        <time>2014-10-12T10:32:33.000Z</time>
      </trkpt>
      <trkpt lat="47.47725" lon="6.70506">
        <ele>322</ele>
        <time>2014-10-12T10:32:34.000Z</time>
      </trkpt>
      <trkpt lat="47.47728" lon="6.70504">
        <ele>322.5</ele>
        <time>2014-10-12T10:32:36.000Z</time>
      </trkpt>
      <trkpt lat="47.47729" lon="6.70502">
        <ele>322.2</ele>
        <time>2014-10-12T10:32:37.000Z</time>
      </trkpt>
      <trkpt lat="47.47732" lon="6.70499">
        <ele>322.1</ele>
        <time>2014-10-12T10:32:39.000Z</time>
      </trkpt>
      <trkpt lat="47.47735" lon="6.70498">
        <ele>322.3</ele>
        <time>2014-10-12T10:32:40.000Z</time>
      </trkpt>
      <trkpt lat="47.47737" lon="6.70496">
        <ele>322.9</ele>
        <time>2014-10-12T10:32:41.000Z</time>
      </trkpt>
      <trkpt lat="47.47739" lon="6.70495">
        <ele>323.2</ele>
        <time>2014-10-12T10:32:42.000Z</time>
      </trkpt>
      <trkpt lat="47.47741" lon="6.70493">
        <ele>324.4</ele>
        <time>2014-10-12T10:32:43.000Z</time>
      </trkpt>
      <trkpt lat="47.47743" lon="6.70492">
        <ele>324.4</ele>
        <time>2014-10-12T10:32:44.000Z</time>
      </trkpt>
      <trkpt lat="47.47747" lon="6.70491">
        <ele>323.7</ele>
        <time>2014-10-12T10:32:46.000Z</time>
      </trkpt>
      <trkpt lat="47.47748" lon="6.70491">
        <ele>323.5</ele>
        <time>2014-10-12T10:32:47.000Z</time>
      </trkpt>
      <trkpt lat="47.47752" lon="6.70492">
        <ele>324.5</ele>
        <time>2014-10-12T10:32:50.000Z</time>
      </trkpt>
      <trkpt lat="47.47753" lon="6.70492">
        <ele>324.5</ele>
        <time>2014-10-12T10:32:51.000Z</time>
      </trkpt>
      <trkpt lat="47.47757" lon="6.70496">
        <ele>325.7</ele>
        <time>2014-10-12T10:35:11.000Z</time>
      </trkpt>
      <trkpt lat="47.47757" lon="6.70496">
        <ele>325.7</ele>
        <time>2014-10-12T10:35:12.000Z</time>
      </trkpt>
      <trkpt lat="47.47761" lon="6.70498">
        <ele>328.3</ele>
        <time>2014-10-12T10:38:10.000Z</time>
      </trkpt>
      <trkpt lat="47.47761" lon="6.70498">
        <ele>328.2</ele>
        <time>2014-10-12T10:38:11.000Z</time>
      </trkpt>
      <trkpt lat="47.47765" lon="6.70501">
        <ele>327.5</ele>
        <time>2014-10-12T10:38:15.000Z</time>
      </trkpt>
      <trkpt lat="47.47766" lon="6.70503">
        <ele>327</ele>
        <time>2014-10-12T10:38:16.000Z</time>
      </trkpt>
      <trkpt lat="47.47767" lon="6.70508">
        <ele>327.2</ele>
        <time>2014-10-12T10:38:18.000Z</time>
      </trkpt>
      <trkpt lat="47.47768" lon="6.70512">
        <ele>327.7</ele>
        <time>2014-10-12T10:38:19.000Z</time>
      </trkpt>
      <trkpt lat="47.47768" lon="6.70517">
        <ele>327.3</ele>
        <time>2014-10-12T10:38:20.000Z</time>
      </trkpt>
      <trkpt lat="47.47769" lon="6.70523">
        <ele>327</ele>
        <time>2014-10-12T10:38:21.000Z</time>
      </trkpt>
      <trkpt lat="47.47771" lon="6.7053">
        <ele>326.6</ele>
        <time>2014-10-12T10:38:22.000Z</time>
      </trkpt>
      <trkpt lat="47.47772" lon="6.70537">
        <ele>326.4</ele>
        <time>2014-10-12T10:38:23.000Z</time>
      </trkpt>
      <trkpt lat="47.47773" lon="6.70544">
        <ele>326.9</ele>
        <time>2014-10-12T10:38:24.000Z</time>
      </trkpt>
      <trkpt lat="47.47774" lon="6.70551">
        <ele>326.8</ele>
        <time>2014-10-12T10:38:25.000Z</time>
      </trkpt>
      <trkpt lat="47.47775" lon="6.70557">
        <ele>326.7</ele>
        <time>2014-10-12T10:38:26.000Z</time>
      </trkpt>
      <trkpt lat="47.47776" lon="6.70563">
        <ele>326.8</ele>
        <time>2014-10-12T10:38:27.000Z</time>
      </trkpt>
      <trkpt lat="47.47778" lon="6.7057">
        <ele>327.5</ele>
        <time>2014-10-12T10:38:28.000Z</time>
      </trkpt>
      <trkpt lat="47.47779" lon="6.70576">
        <ele>328.4</ele>
        <time>2014-10-12T10:38:29.000Z</time>
      </trkpt>
      <trkpt lat="47.4778" lon="6.70582">
        <ele>328.7</ele>
        <time>2014-10-12T10:38:30.000Z</time>
      </trkpt>
      <trkpt lat="47.47781" lon="6.70588">
        <ele>328.6</ele>
        <time>2014-10-12T10:38:31.000Z</time>
      </trkpt>
      <trkpt lat="47.47782" lon="6.70593">
        <ele>329.5</ele>
        <time>2014-10-12T10:38:32.000Z</time>
      </trkpt>
      <trkpt lat="47.47783" lon="6.70599">
        <ele>329.7</ele>
        <time>2014-10-12T10:38:33.000Z</time>
      </trkpt>
      <trkpt lat="47.47784" lon="6.70604">
        <ele>330.6</ele>
        <time>2014-10-12T10:38:34.000Z</time>
      </trkpt>
      <trkpt lat="47.47785" lon="6.7061">
        <ele>330.3</ele>
        <time>2014-10-12T10:38:35.000Z</time>
      </trkpt>
      <trkpt lat="47.47786" lon="6.70616">
        <ele>330.4</ele>
        <time>2014-10-12T10:38:36.000Z</time>
      </trkpt>
      <trkpt lat="47.47787" lon="6.70621">
        <ele>330.2</ele>
        <time>2014-10-12T10:38:37.000Z</time>
      </trkpt>
      <trkpt lat="47.47787" lon="6.70626">
        <ele>330.4</ele>
        <time>2014-10-12T10:38:38.000Z</time>
      </trkpt>
      <trkpt lat="47.47788" lon="6.70631">
        <ele>330.9</ele>
        <time>2014-10-12T10:38:39.000Z</time>
      </trkpt>
      <trkpt lat="47.47789" lon="6.70636">
        <ele>331.6</ele>
        <time>2014-10-12T10:38:40.000Z</time>
      </trkpt>
      <trkpt lat="47.47789" lon="6.7064">
        <ele>331.7</ele>
        <time>2014-10-12T10:38:41.000Z</time>
      </trkpt>
      <trkpt lat="47.4779" lon="6.70645">
        <ele>332.3</ele>
        <time>2014-10-12T10:38:42.000Z</time>
      </trkpt>
      <trkpt lat="47.47791" lon="6.7065">
        <ele>332.4</ele>
        <time>2014-10-12T10:38:43.000Z</time>
      </trkpt>
      <trkpt lat="47.47792" lon="6.70654">
        <ele>332.2</ele>
        <time>2014-10-12T10:38:44.000Z</time>
      </trkpt>
      <trkpt lat="47.47793" lon="6.70659">
        <ele>332.1</ele>
        <time>2014-10-12T10:38:45.000Z</time>
      </trkpt>
      <trkpt lat="47.47794" lon="6.70663">
        <ele>331.9</ele>
        <time>2014-10-12T10:38:46.000Z</time>
      </trkpt>
      <trkpt lat="47.47795" lon="6.70667">
        <ele>331.4</ele>
        <time>2014-10-12T10:38:47.000Z</time>
      </trkpt>
      <trkpt lat="47.47798" lon="6.7068">
        <ele>331.8</ele>
        <time>2014-10-12T10:38:50.000Z</time>
      </trkpt>
      <trkpt lat="47.47799" lon="6.70685">
        <ele>333.2</ele>
        <time>2014-10-12T10:38:51.000Z</time>
      </trkpt>
      <trkpt lat="47.478" lon="6.70689">
        <ele>333.2</ele>
        <time>2014-10-12T10:38:52.000Z</time>
      </trkpt>
      <trkpt lat="47.47801" lon="6.70694">
        <ele>333.4</ele>
        <time>2014-10-12T10:38:53.000Z</time>
      </trkpt>
      <trkpt lat="47.47801" lon="6.70699">
        <ele>333.9</ele>
        <time>2014-10-12T10:38:54.000Z</time>
      </trkpt>
      <trkpt lat="47.47802" lon="6.70704">
        <ele>334.1</ele>
        <time>2014-10-12T10:38:55.000Z</time>
      </trkpt>
      <trkpt lat="47.47803" lon="6.70709">
        <ele>334.4</ele>
        <time>2014-10-12T10:38:56.000Z</time>
      </trkpt>
      <trkpt lat="47.47804" lon="6.70714">
        <ele>334.4</ele>
        <time>2014-10-12T10:38:57.000Z</time>
      </trkpt>
      <trkpt lat="47.47805" lon="6.70718">
        <ele>334.7</ele>
        <time>2014-10-12T10:38:58.000Z</time>
      </trkpt>
      <trkpt lat="47.47806" lon="6.70723">
        <ele>334.9</ele>
        <time>2014-10-12T10:38:59.000Z</time>
      </trkpt>
      <trkpt lat="47.47806" lon="6.70728">
        <ele>335.9</ele>
        <time>2014-10-12T10:39:00.000Z</time>
      </trkpt>
      <trkpt lat="47.47807" lon="6.70733">
        <ele>336.1</ele>
        <time>2014-10-12T10:39:01.000Z</time>
      </trkpt>
      <trkpt lat="47.47808" lon="6.70738">
        <ele>336.7</ele>
        <time>2014-10-12T10:39:02.000Z</time>
      </trkpt>
      <trkpt lat="47.47809" lon="6.70742">
        <ele>337.2</ele>
        <time>2014-10-12T10:39:03.000Z</time>
      </trkpt>
      <trkpt lat="47.4781" lon="6.70747">
        <ele>337.6</ele>
        <time>2014-10-12T10:39:04.000Z</time>
      </trkpt>
      <trkpt lat="47.4781" lon="6.70752">
        <ele>337.7</ele>
        <time>2014-10-12T10:39:05.000Z</time>
      </trkpt>
      <trkpt lat="47.47811" lon="6.70757">
        <ele>337.6</ele>
        <time>2014-10-12T10:39:06.000Z</time>
      </trkpt>
      <trkpt lat="47.47812" lon="6.70762">
        <ele>337.5</ele>
        <time>2014-10-12T10:39:07.000Z</time>
      </trkpt>
      <trkpt lat="47.47813" lon="6.70767">
        <ele>337.6</ele>
        <time>2014-10-12T10:39:08.000Z</time>
      </trkpt>
      <trkpt lat="47.47814" lon="6.70773">
        <ele>337.2</ele>
        <time>2014-10-12T10:39:09.000Z</time>
      </trkpt>
      <trkpt lat="47.47815" lon="6.70778">
        <ele>337.4</ele>
        <time>2014-10-12T10:39:10.000Z</time>
      </trkpt>
      <trkpt lat="47.47815" lon="6.70783">
        <ele>337.6</ele>
        <time>2014-10-12T10:39:11.000Z</time>
      </trkpt>
      <trkpt lat="47.47816" lon="6.70788">
        <ele>338</ele>
        <time>2014-10-12T10:39:12.000Z</time>
      </trkpt>
      <trkpt lat="47.47817" lon="6.70792">
        <ele>338.2</ele>
        <time>2014-10-12T10:39:13.000Z</time>
      </trkpt>
      <trkpt lat="47.47818" lon="6.70797">
        <ele>337.9</ele>
        <time>2014-10-12T10:39:14.000Z</time>
      </trkpt>
      <trkpt lat="47.47819" lon="6.70802">
        <ele>338.2</ele>
        <time>2014-10-12T10:39:15.000Z</time>
      </trkpt>
      <trkpt lat="47.4782" lon="6.70807">
        <ele>338.2</ele>
        <time>2014-10-12T10:39:16.000Z</time>
      </trkpt>
      <trkpt lat="47.47821" lon="6.70812">
        <ele>338.2</ele>
        <time>2014-10-12T10:39:17.000Z</time>
      </trkpt>
      <trkpt lat="47.47822" lon="6.70817">
        <ele>338.2</ele>
        <time>2014-10-12T10:39:18.000Z</time>
      </trkpt>
      <trkpt lat="47.47823" lon="6.70822">
        <ele>338.2</ele>
        <time>2014-10-12T10:39:19.000Z</time>
      </trkpt>
      <trkpt lat="47.47824" lon="6.70828">
        <ele>338.2</ele>
        <time>2014-10-12T10:39:20.000Z</time>
      </trkpt>
      <trkpt lat="47.47825" lon="6.70833">
        <ele>337.7</ele>
        <time>2014-10-12T10:39:21.000Z</time>
      </trkpt>
      <trkpt lat="47.47826" lon="6.70838">
        <ele>337.7</ele>
        <time>2014-10-12T10:39:22.000Z</time>
      </trkpt>
      <trkpt lat="47.47827" lon="6.70844">
        <ele>337.7</ele>
        <time>2014-10-12T10:39:23.000Z</time>
      </trkpt>
      <trkpt lat="47.47828" lon="6.7085">
        <ele>337.6</ele>
        <time>2014-10-12T10:39:24.000Z</time>
      </trkpt>
      <trkpt lat="47.47829" lon="6.70855">
        <ele>337.2</ele>
        <time>2014-10-12T10:39:25.000Z</time>
      </trkpt>
      <trkpt lat="47.4783" lon="6.70861">
        <ele>337</ele>
        <time>2014-10-12T10:39:26.000Z</time>
      </trkpt>
      <trkpt lat="47.47831" lon="6.70867">
        <ele>336.8</ele>
        <time>2014-10-12T10:39:27.000Z</time>
      </trkpt>
      <trkpt lat="47.47832" lon="6.70874">
        <ele>337</ele>
        <time>2014-10-12T10:39:28.000Z</time>
      </trkpt>
      <trkpt lat="47.47833" lon="6.7088">
        <ele>336.8</ele>
        <time>2014-10-12T10:39:29.000Z</time>
      </trkpt>
      <trkpt lat="47.47834" lon="6.70886">
        <ele>336.9</ele>
        <time>2014-10-12T10:39:30.000Z</time>
      </trkpt>
      <trkpt lat="47.47835" lon="6.70894">
        <ele>336.9</ele>
        <time>2014-10-12T10:39:31.000Z</time>
      </trkpt>
      <trkpt lat="47.47836" lon="6.709">
        <ele>336.8</ele>
        <time>2014-10-12T10:39:32.000Z</time>
      </trkpt>
      <trkpt lat="47.47837" lon="6.70907">
        <ele>336.9</ele>
        <time>2014-10-12T10:39:33.000Z</time>
      </trkpt>
      <trkpt lat="47.47839" lon="6.70913">
        <ele>337</ele>
        <time>2014-10-12T10:39:34.000Z</time>
      </trkpt>
      <trkpt lat="47.4784" lon="6.70919">
        <ele>337.2</ele>
        <time>2014-10-12T10:39:35.000Z</time>
      </trkpt>
      <trkpt lat="47.4784" lon="6.70924">
        <ele>337</ele>
        <time>2014-10-12T10:39:36.000Z</time>
      </trkpt>
      <trkpt lat="47.47841" lon="6.7093">
        <ele>336.9</ele>
        <time>2014-10-12T10:39:37.000Z</time>
      </trkpt>
      <trkpt lat="47.47842" lon="6.70935">
        <ele>337</ele>
        <time>2014-10-12T10:39:38.000Z</time>
      </trkpt>
      <trkpt lat="47.47843" lon="6.70941">
        <ele>337.3</ele>
        <time>2014-10-12T10:39:39.000Z</time>
      </trkpt>
      <trkpt lat="47.47844" lon="6.70946">
        <ele>337.6</ele>
        <time>2014-10-12T10:39:40.000Z</time>
      </trkpt>
      <trkpt lat="47.47845" lon="6.70951">
        <ele>337.5</ele>
        <time>2014-10-12T10:39:41.000Z</time>
      </trkpt>
      <trkpt lat="47.47846" lon="6.70956">
        <ele>338.6</ele>
        <time>2014-10-12T10:39:42.000Z</time>
      </trkpt>
      <trkpt lat="47.47847" lon="6.70961">
        <ele>338.8</ele>
        <time>2014-10-12T10:39:43.000Z</time>
      </trkpt>
      <trkpt lat="47.47849" lon="6.70966">
        <ele>338.6</ele>
        <time>2014-10-12T10:39:44.000Z</time>
      </trkpt>
      <trkpt lat="47.4785" lon="6.70971">
        <ele>338.8</ele>
        <time>2014-10-12T10:39:45.000Z</time>
      </trkpt>
      <trkpt lat="47.47852" lon="6.70976">
        <ele>340.4</ele>
        <time>2014-10-12T10:39:46.000Z</time>
      </trkpt>
      <trkpt lat="47.47853" lon="6.70981">
        <ele>340.4</ele>
        <time>2014-10-12T10:39:47.000Z</time>
      </trkpt>
      <trkpt lat="47.47854" lon="6.70987">
        <ele>339.9</ele>
        <time>2014-10-12T10:39:48.000Z</time>
      </trkpt>
      <trkpt lat="47.47857" lon="6.71003">
        <ele>339.1</ele>
        <time>2014-10-12T10:39:51.000Z</time>
      </trkpt>
      <trkpt lat="47.4786" lon="6.71007">
        <ele>339.3</ele>
        <time>2014-10-12T10:39:52.000Z</time>
      </trkpt>
      <trkpt lat="47.47863" lon="6.7101">
        <ele>338.9</ele>
        <time>2014-10-12T10:39:53.000Z</time>
      </trkpt>
      <trkpt lat="47.47866" lon="6.71012">
        <ele>338.5</ele>
        <time>2014-10-12T10:39:54.000Z</time>
      </trkpt>
      <trkpt lat="47.4787" lon="6.71013">
        <ele>338.4</ele>
        <time>2014-10-12T10:39:55.000Z</time>
      </trkpt>
      <trkpt lat="47.47873" lon="6.71011">
        <ele>338.8</ele>
        <time>2014-10-12T10:39:56.000Z</time>
      </trkpt>
      <trkpt lat="47.47877" lon="6.71008">
        <ele>338.7</ele>
        <time>2014-10-12T10:39:57.000Z</time>
      </trkpt>
      <trkpt lat="47.4788" lon="6.71005">
        <ele>338.3</ele>
        <time>2014-10-12T10:39:58.000Z</time>
      </trkpt>
      <trkpt lat="47.47883" lon="6.71002">
        <ele>338.3</ele>
        <time>2014-10-12T10:39:59.000Z</time>
      </trkpt>
      <trkpt lat="47.47887" lon="6.70999">
        <ele>337.5</ele>
        <time>2014-10-12T10:40:00.000Z</time>
      </trkpt>
      <trkpt lat="47.4789" lon="6.70996">
        <ele>337.1</ele>
        <time>2014-10-12T10:40:01.000Z</time>
      </trkpt>
      <trkpt lat="47.47894" lon="6.70993">
        <ele>336.5</ele>
        <time>2014-10-12T10:40:02.000Z</time>
      </trkpt>
      <trkpt lat="47.47898" lon="6.7099">
        <ele>337.4</ele>
        <time>2014-10-12T10:40:03.000Z</time>
      </trkpt>
      <trkpt lat="47.47901" lon="6.70988">
        <ele>337.7</ele>
        <time>2014-10-12T10:40:04.000Z</time>
      </trkpt>
      <trkpt lat="47.47904" lon="6.70985">
        <ele>337.2</ele>
        <time>2014-10-12T10:40:05.000Z</time>
      </trkpt>
      <trkpt lat="47.47908" lon="6.70983">
        <ele>337.2</ele>
        <time>2014-10-12T10:40:06.000Z</time>
      </trkpt>
      <trkpt lat="47.47911" lon="6.7098">
        <ele>337.9</ele>
        <time>2014-10-12T10:40:07.000Z</time>
      </trkpt>
      <trkpt lat="47.47914" lon="6.70977">
        <ele>337.8</ele>
        <time>2014-10-12T10:40:08.000Z</time>
      </trkpt>
      <trkpt lat="47.47917" lon="6.70975">
        <ele>337.7</ele>
        <time>2014-10-12T10:40:09.000Z</time>
      </trkpt>
      <trkpt lat="47.47919" lon="6.70973">
        <ele>338.2</ele>
        <time>2014-10-12T10:40:10.000Z</time>
      </trkpt>
      <trkpt lat="47.47922" lon="6.70971">
        <ele>338.5</ele>
        <time>2014-10-12T10:40:11.000Z</time>
      </trkpt>
      <trkpt lat="47.47925" lon="6.70968">
        <ele>339.1</ele>
        <time>2014-10-12T10:40:12.000Z</time>
      </trkpt>
      <trkpt lat="47.47927" lon="6.70967">
        <ele>339.4</ele>
        <time>2014-10-12T10:40:13.000Z</time>
      </trkpt>
      <trkpt lat="47.4793" lon="6.70965">
        <ele>339.1</ele>
        <time>2014-10-12T10:40:14.000Z</time>
      </trkpt>
      <trkpt lat="47.47932" lon="6.70963">
        <ele>339.3</ele>
        <time>2014-10-12T10:40:15.000Z</time>
      </trkpt>
      <trkpt lat="47.47935" lon="6.70961">
        <ele>339.5</ele>
        <time>2014-10-12T10:40:16.000Z</time>
      </trkpt>
      <trkpt lat="47.47937" lon="6.7096">
        <ele>340.1</ele>
        <time>2014-10-12T10:40:17.000Z</time>
      </trkpt>
      <trkpt lat="47.47939" lon="6.70958">
        <ele>340.8</ele>
        <time>2014-10-12T10:40:18.000Z</time>
      </trkpt>
      <trkpt lat="47.47941" lon="6.70957">
        <ele>340.6</ele>
        <time>2014-10-12T10:40:19.000Z</time>
      </trkpt>
      <trkpt lat="47.47945" lon="6.70954">
        <ele>341.1</ele>
        <time>2014-10-12T10:40:21.000Z</time>
      </trkpt>
      <trkpt lat="47.47947" lon="6.70953">
        <ele>341.2</ele>
        <time>2014-10-12T10:40:22.000Z</time>
      </trkpt>
      <trkpt lat="47.47951" lon="6.70951">
        <ele>342.3</ele>
        <time>2014-10-12T10:40:23.999Z</time>
      </trkpt>
      <trkpt lat="47.47954" lon="6.70949">
        <ele>342.8</ele>
        <time>2014-10-12T10:40:25.000Z</time>
      </trkpt>
      <trkpt lat="47.47956" lon="6.70947">
        <ele>342.2</ele>
        <time>2014-10-12T10:40:26.000Z</time>
      </trkpt>
      <trkpt lat="47.47958" lon="6.70945">
        <ele>343.3</ele>
        <time>2014-10-12T10:40:27.000Z</time>
      </trkpt>
      <trkpt lat="47.47961" lon="6.70943">
        <ele>343.6</ele>
        <time>2014-10-12T10:40:28.000Z</time>
      </trkpt>
      <trkpt lat="47.47963" lon="6.70942">
        <ele>343.9</ele>
        <time>2014-10-12T10:40:29.000Z</time>
      </trkpt>
      <trkpt lat="47.47966" lon="6.7094">
        <ele>343.8</ele>
        <time>2014-10-12T10:40:30.000Z</time>
      </trkpt>
      <trkpt lat="47.47968" lon="6.70938">
        <ele>343.9</ele>
        <time>2014-10-12T10:40:31.000Z</time>
      </trkpt>
      <trkpt lat="47.47971" lon="6.70937">
        <ele>342.8</ele>
        <time>2014-10-12T10:40:32.000Z</time>
      </trkpt>
      <trkpt lat="47.47973" lon="6.70935">
        <ele>342.5</ele>
        <time>2014-10-12T10:40:33.000Z</time>
      </trkpt>
      <trkpt lat="47.47975" lon="6.70934">
        <ele>342.1</ele>
        <time>2014-10-12T10:40:34.000Z</time>
      </trkpt>
      <trkpt lat="47.47977" lon="6.70932">
        <ele>342.6</ele>
        <time>2014-10-12T10:40:35.000Z</time>
      </trkpt>
      <trkpt lat="47.4798" lon="6.7093">
        <ele>343.7</ele>
        <time>2014-10-12T10:40:36.000Z</time>
      </trkpt>
      <trkpt lat="47.47983" lon="6.70928">
        <ele>343.7</ele>
        <time>2014-10-12T10:40:37.000Z</time>
      </trkpt>
      <trkpt lat="47.47986" lon="6.70926">
        <ele>343.9</ele>
        <time>2014-10-12T10:40:38.000Z</time>
      </trkpt>
      <trkpt lat="47.47989" lon="6.70924">
        <ele>344</ele>
        <time>2014-10-12T10:40:39.000Z</time>
      </trkpt>
      <trkpt lat="47.47991" lon="6.70923">
        <ele>344.2</ele>
        <time>2014-10-12T10:40:40.000Z</time>
      </trkpt>
      <trkpt lat="47.47994" lon="6.70921">
        <ele>344.2</ele>
        <time>2014-10-12T10:40:41.000Z</time>
      </trkpt>
      <trkpt lat="47.47996" lon="6.70919">
        <ele>344.2</ele>
        <time>2014-10-12T10:40:42.000Z</time>
      </trkpt>
      <trkpt lat="47.47998" lon="6.70918">
        <ele>344.2</ele>
        <time>2014-10-12T10:40:43.000Z</time>
      </trkpt>
      <trkpt lat="47.48001" lon="6.70916">
        <ele>343.9</ele>
        <time>2014-10-12T10:40:44.000Z</time>
      </trkpt>
      <trkpt lat="47.48003" lon="6.70915">
        <ele>343.4</ele>
        <time>2014-10-12T10:40:45.000Z</time>
      </trkpt>
      <trkpt lat="47.48005" lon="6.70913">
        <ele>343.1</ele>
        <time>2014-10-12T10:40:46.000Z</time>
      </trkpt>
      <trkpt lat="47.48008" lon="6.70911">
        <ele>342.2</ele>
        <time>2014-10-12T10:40:47.000Z</time>
      </trkpt>
      <trkpt lat="47.4801" lon="6.7091">
        <ele>342</ele>
        <time>2014-10-12T10:40:48.067Z</time>
      </trkpt>
      <trkpt lat="47.48029" lon="6.70895">
        <ele>341</ele>
        <time>2014-10-12T10:40:56.000Z</time>
      </trkpt>
      <trkpt lat="47.48033" lon="6.70893">
        <ele>340.8</ele>
        <time>2014-10-12T10:40:58.000Z</time>
      </trkpt>
      <trkpt lat="47.48036" lon="6.70892">
        <ele>340.5</ele>
        <time>2014-10-12T10:40:59.000Z</time>
      </trkpt>
      <trkpt lat="47.48039" lon="6.7089">
        <ele>340.6</ele>
        <time>2014-10-12T10:41:00.000Z</time>
      </trkpt>
      <trkpt lat="47.48042" lon="6.70888">
        <ele>340.8</ele>
        <time>2014-10-12T10:41:01.000Z</time>
      </trkpt>
      <trkpt lat="47.48044" lon="6.70886">
        <ele>341.4</ele>
        <time>2014-10-12T10:41:02.000Z</time>
      </trkpt>
      <trkpt lat="47.48047" lon="6.70884">
        <ele>342.3</ele>
        <time>2014-10-12T10:41:03.000Z</time>
      </trkpt>
      <trkpt lat="47.4805" lon="6.70883">
        <ele>342.5</ele>
        <time>2014-10-12T10:41:04.000Z</time>
      </trkpt>
      <trkpt lat="47.48052" lon="6.70881">
        <ele>342.3</ele>
        <time>2014-10-12T10:41:05.000Z</time>
      </trkpt>
      <trkpt lat="47.48055" lon="6.70879">
        <ele>341.8</ele>
        <time>2014-10-12T10:41:06.000Z</time>
      </trkpt>
      <trkpt lat="47.48058" lon="6.70877">
        <ele>341.5</ele>
        <time>2014-10-12T10:41:07.000Z</time>
      </trkpt>
      <trkpt lat="47.4806" lon="6.70875">
        <ele>341.8</ele>
        <time>2014-10-12T10:41:08.000Z</time>
      </trkpt>
      <trkpt lat="47.48063" lon="6.70873">
        <ele>341.6</ele>
        <time>2014-10-12T10:41:09.000Z</time>
      </trkpt>
      <trkpt lat="47.48065" lon="6.70871">
        <ele>341.6</ele>
        <time>2014-10-12T10:41:10.000Z</time>
      </trkpt>
      <trkpt lat="47.48068" lon="6.7087">
        <ele>341.7</ele>
        <time>2014-10-12T10:41:11.000Z</time>
      </trkpt>
      <trkpt lat="47.4807" lon="6.70868">
        <ele>341.7</ele>
        <time>2014-10-12T10:41:12.000Z</time>
      </trkpt>
      <trkpt lat="47.48072" lon="6.70866">
        <ele>341.7</ele>
        <time>2014-10-12T10:41:13.000Z</time>
      </trkpt>
      <trkpt lat="47.48075" lon="6.70864">
        <ele>341.2</ele>
        <time>2014-10-12T10:41:14.000Z</time>
      </trkpt>
      <trkpt lat="47.48077" lon="6.70862">
        <ele>341</ele>
        <time>2014-10-12T10:41:15.000Z</time>
      </trkpt>
      <trkpt lat="47.48079" lon="6.70861">
        <ele>341.4</ele>
        <time>2014-10-12T10:41:16.000Z</time>
      </trkpt>
      <trkpt lat="47.48082" lon="6.70859">
        <ele>341.9</ele>
        <time>2014-10-12T10:41:17.000Z</time>
      </trkpt>
      <trkpt lat="47.48084" lon="6.70858">
        <ele>342.2</ele>
        <time>2014-10-12T10:41:18.000Z</time>
      </trkpt>
      <trkpt lat="47.48087" lon="6.70856">
        <ele>342.3</ele>
        <time>2014-10-12T10:41:19.000Z</time>
      </trkpt>
      <trkpt lat="47.4809" lon="6.70855">
        <ele>342.2</ele>
        <time>2014-10-12T10:41:20.000Z</time>
      </trkpt>
      <trkpt lat="47.48092" lon="6.70853">
        <ele>342.4</ele>
        <time>2014-10-12T10:41:21.000Z</time>
      </trkpt>
      <trkpt lat="47.48095" lon="6.70852">
        <ele>342.8</ele>
        <time>2014-10-12T10:41:22.000Z</time>
      </trkpt>
      <trkpt lat="47.48097" lon="6.70851">
        <ele>342.9</ele>
        <time>2014-10-12T10:41:23.000Z</time>
      </trkpt>
      <trkpt lat="47.481" lon="6.7085">
        <ele>343.5</ele>
        <time>2014-10-12T10:41:24.000Z</time>
      </trkpt>
      <trkpt lat="47.48102" lon="6.70849">
        <ele>343.7</ele>
        <time>2014-10-12T10:41:25.000Z</time>
      </trkpt>
      <trkpt lat="47.48104" lon="6.70847">
        <ele>344.4</ele>
        <time>2014-10-12T10:41:26.000Z</time>
      </trkpt>
      <trkpt lat="47.48107" lon="6.70846">
        <ele>344.7</ele>
        <time>2014-10-12T10:41:27.000Z</time>
      </trkpt>
      <trkpt lat="47.48109" lon="6.70845">
        <ele>344.6</ele>
        <time>2014-10-12T10:41:28.000Z</time>
      </trkpt>
      <trkpt lat="47.48112" lon="6.70844">
        <ele>344.4</ele>
        <time>2014-10-12T10:41:29.000Z</time>
      </trkpt>
      <trkpt lat="47.48114" lon="6.70843">
        <ele>344.9</ele>
        <time>2014-10-12T10:41:30.000Z</time>
      </trkpt>
      <trkpt lat="47.48116" lon="6.70842">
        <ele>345.4</ele>
        <time>2014-10-12T10:41:31.000Z</time>
      </trkpt>
      <trkpt lat="47.48119" lon="6.70841">
        <ele>346.1</ele>
        <time>2014-10-12T10:41:32.000Z</time>
      </trkpt>
      <trkpt lat="47.48121" lon="6.70841">
        <ele>346.1</ele>
        <time>2014-10-12T10:41:33.000Z</time>
      </trkpt>
      <trkpt lat="47.48124" lon="6.7084">
        <ele>346.3</ele>
        <time>2014-10-12T10:41:34.000Z</time>
      </trkpt>
      <trkpt lat="47.48126" lon="6.70839">
        <ele>346.6</ele>
        <time>2014-10-12T10:41:35.000Z</time>
      </trkpt>
      <trkpt lat="47.48128" lon="6.70839">
        <ele>346.4</ele>
        <time>2014-10-12T10:41:36.000Z</time>
      </trkpt>
      <trkpt lat="47.48131" lon="6.70838">
        <ele>347.1</ele>
        <time>2014-10-12T10:41:37.000Z</time>
      </trkpt>
      <trkpt lat="47.48133" lon="6.70837">
        <ele>346.7</ele>
        <time>2014-10-12T10:41:38.000Z</time>
      </trkpt>
      <trkpt lat="47.48136" lon="6.70836">
        <ele>346.7</ele>
        <time>2014-10-12T10:41:39.000Z</time>
      </trkpt>
      <trkpt lat="47.48138" lon="6.70836">
        <ele>346.9</ele>
        <time>2014-10-12T10:41:40.000Z</time>
      </trkpt>
      <trkpt lat="47.4814" lon="6.70835">
        <ele>347.1</ele>
        <time>2014-10-12T10:41:41.000Z</time>
      </trkpt>
      <trkpt lat="47.48143" lon="6.70834">
        <ele>347.7</ele>
        <time>2014-10-12T10:41:42.000Z</time>
      </trkpt>
      <trkpt lat="47.48145" lon="6.70833">
        <ele>348.5</ele>
        <time>2014-10-12T10:41:43.000Z</time>
      </trkpt>
      <trkpt lat="47.48147" lon="6.70833">
        <ele>348.7</ele>
        <time>2014-10-12T10:41:44.000Z</time>
      </trkpt>
      <trkpt lat="47.48149" lon="6.70832">
        <ele>348.7</ele>
        <time>2014-10-12T10:41:45.000Z</time>
      </trkpt>
      <trkpt lat="47.48151" lon="6.70832">
        <ele>348.1</ele>
        <time>2014-10-12T10:41:46.000Z</time>
      </trkpt>
      <trkpt lat="47.48154" lon="6.70831">
        <ele>348</ele>
        <time>2014-10-12T10:41:47.000Z</time>
      </trkpt>
      <trkpt lat="47.4816" lon="6.7083">
        <ele>348</ele>
        <time>2014-10-12T10:41:50.000Z</time>
      </trkpt>
      <trkpt lat="47.48163" lon="6.70828">
        <ele>349.8</ele>
        <time>2014-10-12T10:41:52.000Z</time>
      </trkpt>
      <trkpt lat="47.48165" lon="6.70826">
        <ele>350.1</ele>
        <time>2014-10-12T10:41:53.000Z</time>
      </trkpt>
      <trkpt lat="47.48169" lon="6.70824">
        <ele>351.6</ele>
        <time>2014-10-12T10:41:55.000Z</time>
      </trkpt>
      <trkpt lat="47.48171" lon="6.70823">
        <ele>351.8</ele>
        <time>2014-10-12T10:41:56.000Z</time>
      </trkpt>
      <trkpt lat="47.48173" lon="6.70822">
        <ele>351.8</ele>
        <time>2014-10-12T10:41:57.000Z</time>
      </trkpt>
      <trkpt lat="47.48175" lon="6.70821">
        <ele>352</ele>
        <time>2014-10-12T10:41:58.000Z</time>
      </trkpt>
      <trkpt lat="47.48179" lon="6.70819">
        <ele>352.6</ele>
        <time>2014-10-12T10:42:00.000Z</time>
      </trkpt>
      <trkpt lat="47.48181" lon="6.70818">
        <ele>352.7</ele>
        <time>2014-10-12T10:42:01.000Z</time>
      </trkpt>
      <trkpt lat="47.48185" lon="6.70816">
        <ele>352.6</ele>
        <time>2014-10-12T10:42:03.000Z</time>
      </trkpt>
      <trkpt lat="47.48187" lon="6.70816">
        <ele>352.5</ele>
        <time>2014-10-12T10:42:04.000Z</time>
      </trkpt>
      <trkpt lat="47.4819" lon="6.70814">
        <ele>352.5</ele>
        <time>2014-10-12T10:42:06.000Z</time>
      </trkpt>
      <trkpt lat="47.48192" lon="6.70813">
        <ele>352.4</ele>
        <time>2014-10-12T10:42:07.000Z</time>
      </trkpt>
      <trkpt lat="47.48196" lon="6.70811">
        <ele>352.6</ele>
        <time>2014-10-12T10:42:09.000Z</time>
      </trkpt>
      <trkpt lat="47.48198" lon="6.70811">
        <ele>352.8</ele>
        <time>2014-10-12T10:42:10.000Z</time>
      </trkpt>
      <trkpt lat="47.48202" lon="6.70809">
        <ele>353.1</ele>
        <time>2014-10-12T10:42:12.000Z</time>
      </trkpt>
      <trkpt lat="47.48203" lon="6.70808">
        <ele>353.6</ele>
        <time>2014-10-12T10:42:13.000Z</time>
      </trkpt>
      <trkpt lat="47.48208" lon="6.70806">
        <ele>354</ele>
        <time>2014-10-12T10:42:15.000Z</time>
      </trkpt>
      <trkpt lat="47.4821" lon="6.70805">
        <ele>354.1</ele>
        <time>2014-10-12T10:42:16.000Z</time>
      </trkpt>
      <trkpt lat="47.48212" lon="6.70804">
        <ele>354.1</ele>
        <time>2014-10-12T10:42:17.000Z</time>
      </trkpt>
      <trkpt lat="47.48214" lon="6.70803">
        <ele>354.2</ele>
        <time>2014-10-12T10:42:18.000Z</time>
      </trkpt>
      <trkpt lat="47.48218" lon="6.70802">
        <ele>354.4</ele>
        <time>2014-10-12T10:42:20.000Z</time>
      </trkpt>
      <trkpt lat="47.4822" lon="6.70801">
        <ele>354.7</ele>
        <time>2014-10-12T10:42:21.000Z</time>
      </trkpt>
      <trkpt lat="47.48224" lon="6.708">
        <ele>354.6</ele>
        <time>2014-10-12T10:42:23.000Z</time>
      </trkpt>
      <trkpt lat="47.48227" lon="6.70799">
        <ele>354.8</ele>
        <time>2014-10-12T10:42:24.000Z</time>
      </trkpt>
      <trkpt lat="47.48231" lon="6.70798">
        <ele>355.1</ele>
        <time>2014-10-12T10:42:26.000Z</time>
      </trkpt>
      <trkpt lat="47.48232" lon="6.70797">
        <ele>354.9</ele>
        <time>2014-10-12T10:42:27.000Z</time>
      </trkpt>
      <trkpt lat="47.48236" lon="6.70796">
        <ele>355.1</ele>
        <time>2014-10-12T10:42:29.000Z</time>
      </trkpt>
      <trkpt lat="47.48238" lon="6.70796">
        <ele>355.6</ele>
        <time>2014-10-12T10:42:30.000Z</time>
      </trkpt>
      <trkpt lat="47.48241" lon="6.70796">
        <ele>355.9</ele>
        <time>2014-10-12T10:42:31.000Z</time>
      </trkpt>
      <trkpt lat="47.48243" lon="6.70795">
        <ele>356.1</ele>
        <time>2014-10-12T10:42:31.997Z</time>
      </trkpt>
      <trkpt lat="47.48246" lon="6.70795">
        <ele>357.1</ele>
        <time>2014-10-12T10:42:33.000Z</time>
      </trkpt>
      <trkpt lat="47.48248" lon="6.70794">
        <ele>357.2</ele>
        <time>2014-10-12T10:42:34.000Z</time>
      </trkpt>
      <trkpt lat="47.48251" lon="6.70792">
        <ele>356.6</ele>
        <time>2014-10-12T10:42:36.000Z</time>
      </trkpt>
      <trkpt lat="47.48253" lon="6.70791">
        <ele>356.6</ele>
        <time>2014-10-12T10:42:37.000Z</time>
      </trkpt>
      <trkpt lat="47.48256" lon="6.70789">
        <ele>356.5</ele>
        <time>2014-10-12T10:42:39.000Z</time>
      </trkpt>
      <trkpt lat="47.48258" lon="6.70788">
        <ele>356.4</ele>
        <time>2014-10-12T10:42:40.000Z</time>
      </trkpt>
      <trkpt lat="47.4826" lon="6.70787">
        <ele>356.7</ele>
        <time>2014-10-12T10:42:41.000Z</time>
      </trkpt>
      <trkpt lat="47.48263" lon="6.70786">
        <ele>356.4</ele>
        <time>2014-10-12T10:42:42.000Z</time>
      </trkpt>
      <trkpt lat="47.48265" lon="6.70785">
        <ele>356.4</ele>
        <time>2014-10-12T10:42:43.000Z</time>
      </trkpt>
      <trkpt lat="47.48268" lon="6.70783">
        <ele>356.3</ele>
        <time>2014-10-12T10:42:44.000Z</time>
      </trkpt>
      <trkpt lat="47.48271" lon="6.70782">
        <ele>356.3</ele>
        <time>2014-10-12T10:42:45.000Z</time>
      </trkpt>
      <trkpt lat="47.48273" lon="6.70781">
        <ele>356.4</ele>
        <time>2014-10-12T10:42:46.000Z</time>
      </trkpt>
      <trkpt lat="47.48276" lon="6.7078">
        <ele>356.5</ele>
        <time>2014-10-12T10:42:47.000Z</time>
      </trkpt>
      <trkpt lat="47.48293" lon="6.70768">
        <ele>356.2</ele>
        <time>2014-10-12T10:42:55.005Z</time>
      </trkpt>
      <trkpt lat="47.48298" lon="6.70766">
        <ele>356.7</ele>
        <time>2014-10-12T10:42:57.000Z</time>
      </trkpt>
      <trkpt lat="47.483" lon="6.70764">
        <ele>357</ele>
        <time>2014-10-12T10:42:58.000Z</time>
      </trkpt>
      <trkpt lat="47.48302" lon="6.70764">
        <ele>357.1</ele>
        <time>2014-10-12T10:42:59.000Z</time>
      </trkpt>
      <trkpt lat="47.48307" lon="6.70762">
        <ele>357.4</ele>
        <time>2014-10-12T10:43:01.000Z</time>
      </trkpt>
      <trkpt lat="47.48309" lon="6.70761">
        <ele>357.8</ele>
        <time>2014-10-12T10:43:02.000Z</time>
      </trkpt>
      <trkpt lat="47.48311" lon="6.7076">
        <ele>357.8</ele>
        <time>2014-10-12T10:43:03.000Z</time>
      </trkpt>
      <trkpt lat="47.48314" lon="6.70759">
        <ele>357.8</ele>
        <time>2014-10-12T10:43:04.000Z</time>
      </trkpt>
      <trkpt lat="47.48316" lon="6.70758">
        <ele>357.7</ele>
        <time>2014-10-12T10:43:05.000Z</time>
      </trkpt>
      <trkpt lat="47.48319" lon="6.70757">
        <ele>358</ele>
        <time>2014-10-12T10:43:06.000Z</time>
      </trkpt>
      <trkpt lat="47.48321" lon="6.70757">
        <ele>358.4</ele>
        <time>2014-10-12T10:43:07.000Z</time>
      </trkpt>
      <trkpt lat="47.48323" lon="6.70756">
        <ele>358.2</ele>
        <time>2014-10-12T10:43:08.000Z</time>
      </trkpt>
      <trkpt lat="47.48326" lon="6.70755">
        <ele>357.6</ele>
        <time>2014-10-12T10:43:09.000Z</time>
      </trkpt>
      <trkpt lat="47.48328" lon="6.70754">
        <ele>357.8</ele>
        <time>2014-10-12T10:43:10.000Z</time>
      </trkpt>
      <trkpt lat="47.4833" lon="6.70753">
        <ele>357.8</ele>
        <time>2014-10-12T10:43:11.000Z</time>
      </trkpt>
      <trkpt lat="47.48333" lon="6.70752">
        <ele>357.7</ele>
        <time>2014-10-12T10:43:12.000Z</time>
      </trkpt>
      <trkpt lat="47.48335" lon="6.70751">
        <ele>357.9</ele>
        <time>2014-10-12T10:43:13.000Z</time>
      </trkpt>
      <trkpt lat="47.48337" lon="6.7075">
        <ele>358.2</ele>
        <time>2014-10-12T10:43:14.000Z</time>
      </trkpt>
      <trkpt lat="47.48339" lon="6.70749">
        <ele>358.4</ele>
        <time>2014-10-12T10:43:15.000Z</time>
      </trkpt>
      <trkpt lat="47.48342" lon="6.70748">
        <ele>358.2</ele>
        <time>2014-10-12T10:43:16.000Z</time>
      </trkpt>
      <trkpt lat="47.48344" lon="6.70747">
        <ele>358.6</ele>
        <time>2014-10-12T10:43:17.000Z</time>
      </trkpt>
      <trkpt lat="47.48346" lon="6.70746">
        <ele>359.4</ele>
        <time>2014-10-12T10:43:18.000Z</time>
      </trkpt>
      <trkpt lat="47.4835" lon="6.70744">
        <ele>359.9</ele>
        <time>2014-10-12T10:43:20.000Z</time>
      </trkpt>
      <trkpt lat="47.48352" lon="6.70743">
        <ele>359.8</ele>
        <time>2014-10-12T10:43:21.000Z</time>
      </trkpt>
      <trkpt lat="47.48354" lon="6.70742">
        <ele>360.8</ele>
        <time>2014-10-12T10:43:22.000Z</time>
      </trkpt>
      <trkpt lat="47.48357" lon="6.70741">
        <ele>360.9</ele>
        <time>2014-10-12T10:43:23.000Z</time>
      </trkpt>
      <trkpt lat="47.48359" lon="6.7074">
        <ele>361.8</ele>
        <time>2014-10-12T10:43:24.000Z</time>
      </trkpt>
      <trkpt lat="47.48361" lon="6.70739">
        <ele>362.4</ele>
        <time>2014-10-12T10:43:25.000Z</time>
      </trkpt>
      <trkpt lat="47.48365" lon="6.70737">
        <ele>362.6</ele>
        <time>2014-10-12T10:43:27.000Z</time>
      </trkpt>
      <trkpt lat="47.48368" lon="6.70737">
        <ele>362.7</ele>
        <time>2014-10-12T10:43:28.000Z</time>
      </trkpt>
      <trkpt lat="47.48372" lon="6.70736">
        <ele>362.9</ele>
        <time>2014-10-12T10:43:29.998Z</time>
      </trkpt>
      <trkpt lat="47.48373" lon="6.70735">
        <ele>362.4</ele>
        <time>2014-10-12T10:43:31.000Z</time>
      </trkpt>
      <trkpt lat="47.48377" lon="6.70734">
        <ele>362.1</ele>
        <time>2014-10-12T10:43:34.000Z</time>
      </trkpt>
      <trkpt lat="47.48378" lon="6.70735">
        <ele>361</ele>
        <time>2014-10-12T10:43:35.000Z</time>
      </trkpt>
      <trkpt lat="47.48381" lon="6.70734">
        <ele>361.6</ele>
        <time>2014-10-12T10:43:37.000Z</time>
      </trkpt>
      <trkpt lat="47.48383" lon="6.70734">
        <ele>361.4</ele>
        <time>2014-10-12T10:43:38.000Z</time>
      </trkpt>
      <trkpt lat="47.48387" lon="6.70732">
        <ele>361.1</ele>
        <time>2014-10-12T10:43:41.000Z</time>
      </trkpt>
      <trkpt lat="47.48388" lon="6.70731">
        <ele>361</ele>
        <time>2014-10-12T10:43:42.000Z</time>
      </trkpt>
      <trkpt lat="47.48391" lon="6.7073">
        <ele>360.9</ele>
        <time>2014-10-12T10:43:45.000Z</time>
      </trkpt>
      <trkpt lat="47.48393" lon="6.70729">
        <ele>361.3</ele>
        <time>2014-10-12T10:43:46.000Z</time>
      </trkpt>
      <trkpt lat="47.48395" lon="6.70728">
        <ele>360.9</ele>
        <time>2014-10-12T10:43:48.000Z</time>
      </trkpt>
      <trkpt lat="47.48401" lon="6.70731">
        <ele>362.1</ele>
        <time>2014-10-12T10:43:56.000Z</time>
      </trkpt>
      <trkpt lat="47.48403" lon="6.70726">
        <ele>362.2</ele>
        <time>2014-10-12T10:44:10.000Z</time>
      </trkpt>
      <trkpt lat="47.48404" lon="6.70725">
        <ele>361.9</ele>
        <time>2014-10-12T10:44:11.000Z</time>
      </trkpt>
      <trkpt lat="47.48408" lon="6.70723">
        <ele>361.2</ele>
        <time>2014-10-12T10:44:16.000Z</time>
      </trkpt>
      <trkpt lat="47.48409" lon="6.70722">
        <ele>361.7</ele>
        <time>2014-10-12T10:44:17.000Z</time>
      </trkpt>
      <trkpt lat="47.48413" lon="6.70722">
        <ele>361.1</ele>
        <time>2014-10-12T10:44:20.000Z</time>
      </trkpt>
      <trkpt lat="47.48414" lon="6.70722">
        <ele>361.4</ele>
        <time>2014-10-12T10:44:21.000Z</time>
      </trkpt>
      <trkpt lat="47.48418" lon="6.70721">
        <ele>361.7</ele>
        <time>2014-10-12T10:44:25.000Z</time>
      </trkpt>
      <trkpt lat="47.48418" lon="6.7072">
        <ele>362.2</ele>
        <time>2014-10-12T10:44:26.000Z</time>
      </trkpt>
      <trkpt lat="47.48422" lon="6.70716">
        <ele>364</ele>
        <time>2014-10-12T10:44:39.000Z</time>
      </trkpt>
      <trkpt lat="47.48422" lon="6.70716">
        <ele>363.7</ele>
        <time>2014-10-12T10:44:40.000Z</time>
      </trkpt>
      <trkpt lat="47.48426" lon="6.70713">
        <ele>364.6</ele>
        <time>2014-10-12T10:44:47.000Z</time>
      </trkpt>
      <trkpt lat="47.48427" lon="6.70713">
        <ele>365.3</ele>
        <time>2014-10-12T10:44:50.000Z</time>
      </trkpt>
      <trkpt lat="47.4843" lon="6.70709">
        <ele>365.3</ele>
        <time>2014-10-12T10:44:57.000Z</time>
      </trkpt>
      <trkpt lat="47.48431" lon="6.70709">
        <ele>364.5</ele>
        <time>2014-10-12T10:44:58.000Z</time>
      </trkpt>
      <trkpt lat="47.48435" lon="6.70706">
        <ele>364.3</ele>
        <time>2014-10-12T10:45:07.000Z</time>
      </trkpt>
      <trkpt lat="47.48435" lon="6.70706">
        <ele>364.4</ele>
        <time>2014-10-12T10:45:08.000Z</time>
      </trkpt>
      <trkpt lat="47.4844" lon="6.70705">
        <ele>363.6</ele>
        <time>2014-10-12T10:45:18.000Z</time>
      </trkpt>
      <trkpt lat="47.4844" lon="6.70705">
        <ele>363.9</ele>
        <time>2014-10-12T10:45:19.000Z</time>
      </trkpt>
      <trkpt lat="47.48444" lon="6.70705">
        <ele>363.6</ele>
        <time>2014-10-12T10:45:33.000Z</time>
      </trkpt>
      <trkpt lat="47.48445" lon="6.70705">
        <ele>363.6</ele>
        <time>2014-10-12T10:45:34.000Z</time>
      </trkpt>
      <trkpt lat="47.48449" lon="6.70702">
        <ele>364.6</ele>
        <time>2014-10-12T10:45:40.000Z</time>
      </trkpt>
      <trkpt lat="47.48449" lon="6.70701">
        <ele>365.1</ele>
        <time>2014-10-12T10:45:41.000Z</time>
      </trkpt>
      <trkpt lat="47.48453" lon="6.70698">
        <ele>364.7</ele>
        <time>2014-10-12T10:45:50.000Z</time>
      </trkpt>
      <trkpt lat="47.48454" lon="6.70697">
        <ele>364.7</ele>
        <time>2014-10-12T10:45:51.000Z</time>
      </trkpt>
      <trkpt lat="47.48457" lon="6.70696">
        <ele>364.7</ele>
        <time>2014-10-12T10:45:57.000Z</time>
      </trkpt>
      <trkpt lat="47.48458" lon="6.70695">
        <ele>365.9</ele>
        <time>2014-10-12T10:45:58.000Z</time>
      </trkpt>
      <trkpt lat="47.48462" lon="6.70692">
        <ele>363.7</ele>
        <time>2014-10-12T10:46:11.000Z</time>
      </trkpt>
      <trkpt lat="47.48462" lon="6.70691">
        <ele>363.6</ele>
        <time>2014-10-12T10:46:12.000Z</time>
      </trkpt>
      <trkpt lat="47.48464" lon="6.70687">
        <ele>363.2</ele>
        <time>2014-10-12T10:46:16.000Z</time>
      </trkpt>
      <trkpt lat="47.48465" lon="6.70686">
        <ele>362.9</ele>
        <time>2014-10-12T10:46:17.000Z</time>
      </trkpt>
      <trkpt lat="47.4847" lon="6.70685">
        <ele>363.1</ele>
        <time>2014-10-12T10:46:22.000Z</time>
      </trkpt>
      <trkpt lat="47.4847" lon="6.70685">
        <ele>363.3</ele>
        <time>2014-10-12T10:46:23.000Z</time>
      </trkpt>
      <trkpt lat="47.48474" lon="6.70684">
        <ele>363.3</ele>
        <time>2014-10-12T10:46:27.000Z</time>
      </trkpt>
      <trkpt lat="47.48475" lon="6.70683">
        <ele>364</ele>
        <time>2014-10-12T10:46:28.000Z</time>
      </trkpt>
      <trkpt lat="47.48478" lon="6.70682">
        <ele>364.6</ele>
        <time>2014-10-12T10:46:30.000Z</time>
      </trkpt>
      <trkpt lat="47.4848" lon="6.70681">
        <ele>364.6</ele>
        <time>2014-10-12T10:46:31.000Z</time>
      </trkpt>
      <trkpt lat="47.48484" lon="6.70678">
        <ele>365.1</ele>
        <time>2014-10-12T10:46:33.000Z</time>
      </trkpt>
      <trkpt lat="47.48486" lon="6.70677">
        <ele>365.6</ele>
        <time>2014-10-12T10:46:34.000Z</time>
      </trkpt>
      <trkpt lat="47.4849" lon="6.70676">
        <ele>366.1</ele>
        <time>2014-10-12T10:46:36.000Z</time>
      </trkpt>
      <trkpt lat="47.48491" lon="6.70675">
        <ele>365.6</ele>
        <time>2014-10-12T10:46:37.000Z</time>
      </trkpt>
      <trkpt lat="47.48495" lon="6.70674">
        <ele>364.9</ele>
        <time>2014-10-12T10:46:40.000Z</time>
      </trkpt>
      <trkpt lat="47.48497" lon="6.70673">
        <ele>365.5</ele>
        <time>2014-10-12T10:46:41.000Z</time>
      </trkpt>
      <trkpt lat="47.48501" lon="6.70672">
        <ele>366.2</ele>
        <time>2014-10-12T10:46:43.000Z</time>
      </trkpt>
      <trkpt lat="47.48502" lon="6.70671">
        <ele>366.2</ele>
        <time>2014-10-12T10:46:44.000Z</time>
      </trkpt>
      <trkpt lat="47.48506" lon="6.7067">
        <ele>366.4</ele>
        <time>2014-10-12T10:46:46.000Z</time>
      </trkpt>
      <trkpt lat="47.48507" lon="6.70669">
        <ele>366.6</ele>
        <time>2014-10-12T10:46:47.000Z</time>
      </trkpt>
      <trkpt lat="47.48511" lon="6.70669">
        <ele>366</ele>
        <time>2014-10-12T10:46:50.000Z</time>
      </trkpt>
      <trkpt lat="47.48512" lon="6.70668">
        <ele>366.3</ele>
        <time>2014-10-12T10:46:51.000Z</time>
      </trkpt>
      <trkpt lat="47.48515" lon="6.70667">
        <ele>364.5</ele>
        <time>2014-10-12T10:46:53.000Z</time>
      </trkpt>
      <trkpt lat="47.48517" lon="6.70666">
        <ele>365.4</ele>
        <time>2014-10-12T10:46:54.000Z</time>
      </trkpt>
      <trkpt lat="47.4852" lon="6.70663">
        <ele>366.4</ele>
        <time>2014-10-12T10:46:56.000Z</time>
      </trkpt>
      <trkpt lat="47.48522" lon="6.70663">
        <ele>366.5</ele>
        <time>2014-10-12T10:46:57.000Z</time>
      </trkpt>
      <trkpt lat="47.48526" lon="6.70661">
        <ele>366.7</ele>
        <time>2014-10-12T10:46:59.000Z</time>
      </trkpt>
      <trkpt lat="47.48527" lon="6.70661">
        <ele>366.6</ele>
        <time>2014-10-12T10:47:00.000Z</time>
      </trkpt>
      <trkpt lat="47.4853" lon="6.7066">
        <ele>366.5</ele>
        <time>2014-10-12T10:47:02.000Z</time>
      </trkpt>
      <trkpt lat="47.48532" lon="6.7066">
        <ele>367.3</ele>
        <time>2014-10-12T10:47:03.000Z</time>
      </trkpt>
      <trkpt lat="47.48536" lon="6.70659">
        <ele>367.5</ele>
        <time>2014-10-12T10:47:06.000Z</time>
      </trkpt>
      <trkpt lat="47.48537" lon="6.70658">
        <ele>367</ele>
        <time>2014-10-12T10:47:07.000Z</time>
      </trkpt>
      <trkpt lat="47.4854" lon="6.70654">
        <ele>366.5</ele>
        <time>2014-10-12T10:47:11.000Z</time>
      </trkpt>
      <trkpt lat="47.4854" lon="6.70652">
        <ele>366.1</ele>
        <time>2014-10-12T10:47:12.000Z</time>
      </trkpt>
      <trkpt lat="47.48542" lon="6.70646">
        <ele>364.7</ele>
        <time>2014-10-12T10:47:15.000Z</time>
      </trkpt>
      <trkpt lat="47.48543" lon="6.70645">
        <ele>365.1</ele>
        <time>2014-10-12T10:47:16.000Z</time>
      </trkpt>
      <trkpt lat="47.48545" lon="6.70639">
        <ele>365.8</ele>
        <time>2014-10-12T10:47:19.000Z</time>
      </trkpt>
      <trkpt lat="47.48546" lon="6.70636">
        <ele>367.4</ele>
        <time>2014-10-12T10:47:20.000Z</time>
      </trkpt>
      <trkpt lat="47.48546" lon="6.7063">
        <ele>367.6</ele>
        <time>2014-10-12T10:47:22.000Z</time>
      </trkpt>
      <trkpt lat="47.48546" lon="6.70627">
        <ele>367.6</ele>
        <time>2014-10-12T10:47:23.000Z</time>
      </trkpt>
      <trkpt lat="47.48545" lon="6.70623">
        <ele>368</ele>
        <time>2014-10-12T10:47:24.000Z</time>
      </trkpt>
      <trkpt lat="47.48545" lon="6.7062">
        <ele>368.3</ele>
        <time>2014-10-12T10:47:25.000Z</time>
      </trkpt>
      <trkpt lat="47.48545" lon="6.70616">
        <ele>368.5</ele>
        <time>2014-10-12T10:47:26.000Z</time>
      </trkpt>
      <trkpt lat="47.48545" lon="6.70613">
        <ele>368.9</ele>
        <time>2014-10-12T10:47:27.000Z</time>
      </trkpt>
      <trkpt lat="47.48545" lon="6.70609">
        <ele>370.3</ele>
        <time>2014-10-12T10:47:28.000Z</time>
      </trkpt>
      <trkpt lat="47.48545" lon="6.70604">
        <ele>371.6</ele>
        <time>2014-10-12T10:47:29.000Z</time>
      </trkpt>
      <trkpt lat="47.48545" lon="6.706">
        <ele>372.3</ele>
        <time>2014-10-12T10:47:30.000Z</time>
      </trkpt>
      <trkpt lat="47.48544" lon="6.70596">
        <ele>372.7</ele>
        <time>2014-10-12T10:47:31.000Z</time>
      </trkpt>
      <trkpt lat="47.48544" lon="6.70592">
        <ele>373.4</ele>
        <time>2014-10-12T10:47:32.000Z</time>
      </trkpt>
      <trkpt lat="47.48544" lon="6.70588">
        <ele>374.1</ele>
        <time>2014-10-12T10:47:32.998Z</time>
      </trkpt>
      <trkpt lat="47.48546" lon="6.70583">
        <ele>373.3</ele>
        <time>2014-10-12T10:47:35.000Z</time>
      </trkpt>
      <trkpt lat="47.48546" lon="6.70582">
        <ele>372.6</ele>
        <time>2014-10-12T10:47:36.000Z</time>
      </trkpt>
      <trkpt lat="47.48548" lon="6.70578">
        <ele>372.2</ele>
        <time>2014-10-12T10:47:38.000Z</time>
      </trkpt>
      <trkpt lat="47.48548" lon="6.70575">
        <ele>371.2</ele>
        <time>2014-10-12T10:47:39.000Z</time>
      </trkpt>
      <trkpt lat="47.48547" lon="6.70572">
        <ele>371.4</ele>
        <time>2014-10-12T10:47:40.000Z</time>
      </trkpt>
      <trkpt lat="47.48547" lon="6.70568">
        <ele>371.2</ele>
        <time>2014-10-12T10:47:41.000Z</time>
      </trkpt>
      <trkpt lat="47.48546" lon="6.70564">
        <ele>371.5</ele>
        <time>2014-10-12T10:47:42.000Z</time>
      </trkpt>
      <trkpt lat="47.48545" lon="6.7056">
        <ele>372.1</ele>
        <time>2014-10-12T10:47:43.000Z</time>
      </trkpt>
      <trkpt lat="47.48544" lon="6.70556">
        <ele>372.7</ele>
        <time>2014-10-12T10:47:44.000Z</time>
      </trkpt>
      <trkpt lat="47.48544" lon="6.70552">
        <ele>373.1</ele>
        <time>2014-10-12T10:47:45.000Z</time>
      </trkpt>
      <trkpt lat="47.48544" lon="6.70545">
        <ele>372.4</ele>
        <time>2014-10-12T10:47:47.000Z</time>
      </trkpt>
      <trkpt lat="47.48547" lon="6.70541">
        <ele>369.2</ele>
        <time>2014-10-12T10:47:50.000Z</time>
      </trkpt>
      <trkpt lat="47.4855" lon="6.70541">
        <ele>369.2</ele>
        <time>2014-10-12T10:47:52.000Z</time>
      </trkpt>
      <trkpt lat="47.48551" lon="6.70541">
        <ele>369.7</ele>
        <time>2014-10-12T10:47:53.000Z</time>
      </trkpt>
      <trkpt lat="47.48556" lon="6.70542">
        <ele>369</ele>
        <time>2014-10-12T10:47:55.000Z</time>
      </trkpt>
      <trkpt lat="47.48558" lon="6.70542">
        <ele>369</ele>
        <time>2014-10-12T10:47:56.000Z</time>
      </trkpt>
      <trkpt lat="47.48562" lon="6.70542">
        <ele>369.7</ele>
        <time>2014-10-12T10:47:58.000Z</time>
      </trkpt>
      <trkpt lat="47.48563" lon="6.70543">
        <ele>369.6</ele>
        <time>2014-10-12T10:47:59.000Z</time>
      </trkpt>
      <trkpt lat="47.48567" lon="6.70543">
        <ele>370.5</ele>
        <time>2014-10-12T10:48:01.000Z</time>
      </trkpt>
      <trkpt lat="47.48569" lon="6.70543">
        <ele>370.6</ele>
        <time>2014-10-12T10:48:02.000Z</time>
      </trkpt>
      <trkpt lat="47.48573" lon="6.70543">
        <ele>371.4</ele>
        <time>2014-10-12T10:48:04.000Z</time>
      </trkpt>
      <trkpt lat="47.48575" lon="6.70543">
        <ele>371.5</ele>
        <time>2014-10-12T10:48:05.000Z</time>
      </trkpt>
      <trkpt lat="47.48579" lon="6.70542">
        <ele>371.7</ele>
        <time>2014-10-12T10:48:07.000Z</time>
      </trkpt>
      <trkpt lat="47.48581" lon="6.70542">
        <ele>371.5</ele>
        <time>2014-10-12T10:48:08.000Z</time>
      </trkpt>
      <trkpt lat="47.48585" lon="6.70542">
        <ele>371.4</ele>
        <time>2014-10-12T10:48:10.000Z</time>
      </trkpt>
      <trkpt lat="47.48587" lon="6.70543">
        <ele>372</ele>
        <time>2014-10-12T10:48:11.000Z</time>
      </trkpt>
      <trkpt lat="47.4859" lon="6.70544">
        <ele>372.1</ele>
        <time>2014-10-12T10:48:13.000Z</time>
      </trkpt>
      <trkpt lat="47.48592" lon="6.70545">
        <ele>372</ele>
        <time>2014-10-12T10:48:14.000Z</time>
      </trkpt>
      <trkpt lat="47.48595" lon="6.70549">
        <ele>373.2</ele>
        <time>2014-10-12T10:48:16.000Z</time>
      </trkpt>
      <trkpt lat="47.48596" lon="6.70551">
        <ele>373.6</ele>
        <time>2014-10-12T10:48:17.000Z</time>
      </trkpt>
      <trkpt lat="47.48597" lon="6.70557">
        <ele>374.4</ele>
        <time>2014-10-12T10:48:19.000Z</time>
      </trkpt>
      <trkpt lat="47.48597" lon="6.70559">
        <ele>375.3</ele>
        <time>2014-10-12T10:48:20.000Z</time>
      </trkpt>
      <trkpt lat="47.48597" lon="6.70564">
        <ele>374.2</ele>
        <time>2014-10-12T10:49:11.000Z</time>
      </trkpt>
      <trkpt lat="47.48597" lon="6.70566">
        <ele>374.4</ele>
        <time>2014-10-12T10:49:12.000Z</time>
      </trkpt>
      <trkpt lat="47.48598" lon="6.70571">
        <ele>373.1</ele>
        <time>2014-10-12T10:49:14.000Z</time>
      </trkpt>
      <trkpt lat="47.48599" lon="6.70574">
        <ele>373.2</ele>
        <time>2014-10-12T10:49:15.000Z</time>
      </trkpt>
      <trkpt lat="47.48599" lon="6.70577">
        <ele>372.7</ele>
        <time>2014-10-12T10:49:16.000Z</time>
      </trkpt>
      <trkpt lat="47.486" lon="6.70581">
        <ele>372.4</ele>
        <time>2014-10-12T10:49:17.000Z</time>
      </trkpt>
      <trkpt lat="47.48601" lon="6.70585">
        <ele>372.4</ele>
        <time>2014-10-12T10:49:18.000Z</time>
      </trkpt>
      <trkpt lat="47.48601" lon="6.70589">
        <ele>373.5</ele>
        <time>2014-10-12T10:49:19.000Z</time>
      </trkpt>
      <trkpt lat="47.48602" lon="6.70593">
        <ele>374.2</ele>
        <time>2014-10-12T10:49:20.000Z</time>
      </trkpt>
      <trkpt lat="47.48603" lon="6.70596">
        <ele>374.5</ele>
        <time>2014-10-12T10:49:21.000Z</time>
      </trkpt>
      <trkpt lat="47.48603" lon="6.706">
        <ele>373.7</ele>
        <time>2014-10-12T10:49:22.000Z</time>
      </trkpt>
      <trkpt lat="47.48604" lon="6.70604">
        <ele>373.9</ele>
        <time>2014-10-12T10:49:23.000Z</time>
      </trkpt>
      <trkpt lat="47.48604" lon="6.70608">
        <ele>374.4</ele>
        <time>2014-10-12T10:49:24.000Z</time>
      </trkpt>
      <trkpt lat="47.48605" lon="6.70612">
        <ele>374.9</ele>
        <time>2014-10-12T10:49:25.000Z</time>
      </trkpt>
      <trkpt lat="47.48605" lon="6.70617">
        <ele>375.1</ele>
        <time>2014-10-12T10:49:26.000Z</time>
      </trkpt>
      <trkpt lat="47.48605" lon="6.70622">
        <ele>375</ele>
        <time>2014-10-12T10:49:27.000Z</time>
      </trkpt>
      <trkpt lat="47.48606" lon="6.70626">
        <ele>375.3</ele>
        <time>2014-10-12T10:49:28.000Z</time>
      </trkpt>
      <trkpt lat="47.48607" lon="6.7063">
        <ele>375.7</ele>
        <time>2014-10-12T10:49:29.000Z</time>
      </trkpt>
      <trkpt lat="47.48607" lon="6.70634">
        <ele>376.1</ele>
        <time>2014-10-12T10:49:30.000Z</time>
      </trkpt>
      <trkpt lat="47.48608" lon="6.70639">
        <ele>376.5</ele>
        <time>2014-10-12T10:49:31.000Z</time>
      </trkpt>
      <trkpt lat="47.48609" lon="6.70644">
        <ele>376.7</ele>
        <time>2014-10-12T10:49:32.000Z</time>
      </trkpt>
      <trkpt lat="47.48609" lon="6.70648">
        <ele>377</ele>
        <time>2014-10-12T10:49:33.000Z</time>
      </trkpt>
      <trkpt lat="47.4861" lon="6.70654">
        <ele>377.4</ele>
        <time>2014-10-12T10:49:34.000Z</time>
      </trkpt>
      <trkpt lat="47.48611" lon="6.70659">
        <ele>377.4</ele>
        <time>2014-10-12T10:49:35.000Z</time>
      </trkpt>
      <trkpt lat="47.48611" lon="6.70664">
        <ele>379</ele>
        <time>2014-10-12T10:49:36.000Z</time>
      </trkpt>
      <trkpt lat="47.48612" lon="6.70669">
        <ele>379.4</ele>
        <time>2014-10-12T10:49:37.000Z</time>
      </trkpt>
      <trkpt lat="47.48613" lon="6.70674">
        <ele>379.7</ele>
        <time>2014-10-12T10:49:38.000Z</time>
      </trkpt>
      <trkpt lat="47.48613" lon="6.70679">
        <ele>379.9</ele>
        <time>2014-10-12T10:49:39.000Z</time>
      </trkpt>
      <trkpt lat="47.48614" lon="6.70684">
        <ele>380.1</ele>
        <time>2014-10-12T10:49:40.000Z</time>
      </trkpt>
      <trkpt lat="47.48615" lon="6.70689">
        <ele>379.8</ele>
        <time>2014-10-12T10:49:41.000Z</time>
      </trkpt>
      <trkpt lat="47.48615" lon="6.70694">
        <ele>380</ele>
        <time>2014-10-12T10:49:42.000Z</time>
      </trkpt>
      <trkpt lat="47.48616" lon="6.70699">
        <ele>380.1</ele>
        <time>2014-10-12T10:49:43.000Z</time>
      </trkpt>
      <trkpt lat="47.48616" lon="6.70704">
        <ele>381</ele>
        <time>2014-10-12T10:49:44.000Z</time>
      </trkpt>
      <trkpt lat="47.48617" lon="6.70708">
        <ele>381.6</ele>
        <time>2014-10-12T10:49:45.000Z</time>
      </trkpt>
      <trkpt lat="47.48617" lon="6.70713">
        <ele>381.8</ele>
        <time>2014-10-12T10:49:46.000Z</time>
      </trkpt>
      <trkpt lat="47.48618" lon="6.70717">
        <ele>382</ele>
        <time>2014-10-12T10:49:47.000Z</time>
      </trkpt>
      <trkpt lat="47.48618" lon="6.70722">
        <ele>381.8</ele>
        <time>2014-10-12T10:49:48.000Z</time>
      </trkpt>
      <trkpt lat="47.4862" lon="6.70737">
        <ele>382.7</ele>
        <time>2014-10-12T10:49:51.000Z</time>
      </trkpt>
      <trkpt lat="47.4862" lon="6.70742">
        <ele>383</ele>
        <time>2014-10-12T10:49:52.000Z</time>
      </trkpt>
      <trkpt lat="47.48621" lon="6.70748">
        <ele>382.1</ele>
        <time>2014-10-12T10:49:53.000Z</time>
      </trkpt>
      <trkpt lat="47.48621" lon="6.70753">
        <ele>381.9</ele>
        <time>2014-10-12T10:49:54.000Z</time>
      </trkpt>
      <trkpt lat="47.48622" lon="6.70759">
        <ele>381.9</ele>
        <time>2014-10-12T10:49:55.000Z</time>
      </trkpt>
      <trkpt lat="47.48623" lon="6.70764">
        <ele>381.6</ele>
        <time>2014-10-12T10:49:56.000Z</time>
      </trkpt>
      <trkpt lat="47.48623" lon="6.70769">
        <ele>381.5</ele>
        <time>2014-10-12T10:49:57.000Z</time>
      </trkpt>
      <trkpt lat="47.48624" lon="6.70774">
        <ele>381.9</ele>
        <time>2014-10-12T10:49:58.000Z</time>
      </trkpt>
      <trkpt lat="47.48625" lon="6.7078">
        <ele>382</ele>
        <time>2014-10-12T10:49:59.000Z</time>
      </trkpt>
      <trkpt lat="47.48626" lon="6.70785">
        <ele>381.6</ele>
        <time>2014-10-12T10:50:00.000Z</time>
      </trkpt>
      <trkpt lat="47.48626" lon="6.7079">
        <ele>381.7</ele>
        <time>2014-10-12T10:50:01.000Z</time>
      </trkpt>
      <trkpt lat="47.48627" lon="6.70795">
        <ele>381.7</ele>
        <time>2014-10-12T10:50:02.000Z</time>
      </trkpt>
      <trkpt lat="47.48628" lon="6.708">
        <ele>381.6</ele>
        <time>2014-10-12T10:50:03.000Z</time>
      </trkpt>
      <trkpt lat="47.48629" lon="6.70806">
        <ele>381.2</ele>
        <time>2014-10-12T10:50:04.000Z</time>
      </trkpt>
      <trkpt lat="47.48629" lon="6.70811">
        <ele>381.2</ele>
        <time>2014-10-12T10:50:05.000Z</time>
      </trkpt>
      <trkpt lat="47.4863" lon="6.70816">
        <ele>380.5</ele>
        <time>2014-10-12T10:50:06.000Z</time>
      </trkpt>
      <trkpt lat="47.48631" lon="6.70821">
        <ele>380.2</ele>
        <time>2014-10-12T10:50:07.000Z</time>
      </trkpt>
      <trkpt lat="47.48631" lon="6.70827">
        <ele>380</ele>
        <time>2014-10-12T10:50:08.000Z</time>
      </trkpt>
      <trkpt lat="47.48631" lon="6.70832">
        <ele>380</ele>
        <time>2014-10-12T10:50:09.000Z</time>
      </trkpt>
      <trkpt lat="47.48632" lon="6.70838">
        <ele>380.1</ele>
        <time>2014-10-12T10:50:10.000Z</time>
      </trkpt>
      <trkpt lat="47.48632" lon="6.70844">
        <ele>380.3</ele>
        <time>2014-10-12T10:50:11.000Z</time>
      </trkpt>
      <trkpt lat="47.48633" lon="6.70849">
        <ele>379.8</ele>
        <time>2014-10-12T10:50:12.000Z</time>
      </trkpt>
      <trkpt lat="47.48635" lon="6.70855">
        <ele>379.7</ele>
        <time>2014-10-12T10:50:13.000Z</time>
      </trkpt>
      <trkpt lat="47.48637" lon="6.7086">
        <ele>379.7</ele>
        <time>2014-10-12T10:50:14.000Z</time>
      </trkpt>
      <trkpt lat="47.48638" lon="6.70865">
        <ele>379.8</ele>
        <time>2014-10-12T10:50:15.000Z</time>
      </trkpt>
      <trkpt lat="47.4864" lon="6.7087">
        <ele>380</ele>
        <time>2014-10-12T10:50:16.000Z</time>
      </trkpt>
      <trkpt lat="47.48642" lon="6.70875">
        <ele>379.7</ele>
        <time>2014-10-12T10:50:17.000Z</time>
      </trkpt>
      <trkpt lat="47.48644" lon="6.7088">
        <ele>379.7</ele>
        <time>2014-10-12T10:50:18.000Z</time>
      </trkpt>
      <trkpt lat="47.48645" lon="6.70885">
        <ele>379.7</ele>
        <time>2014-10-12T10:50:19.000Z</time>
      </trkpt>
      <trkpt lat="47.48646" lon="6.70889">
        <ele>379.8</ele>
        <time>2014-10-12T10:50:20.000Z</time>
      </trkpt>
      <trkpt lat="47.48647" lon="6.70894">
        <ele>379.9</ele>
        <time>2014-10-12T10:50:21.000Z</time>
      </trkpt>
      <trkpt lat="47.48649" lon="6.70899">
        <ele>379.4</ele>
        <time>2014-10-12T10:50:22.000Z</time>
      </trkpt>
      <trkpt lat="47.48651" lon="6.70903">
        <ele>379.3</ele>
        <time>2014-10-12T10:50:23.000Z</time>
      </trkpt>
      <trkpt lat="47.48653" lon="6.70908">
        <ele>379.4</ele>
        <time>2014-10-12T10:50:24.000Z</time>
      </trkpt>
      <trkpt lat="47.48655" lon="6.70913">
        <ele>379.3</ele>
        <time>2014-10-12T10:50:25.000Z</time>
      </trkpt>
      <trkpt lat="47.48657" lon="6.70919">
        <ele>379.4</ele>
        <time>2014-10-12T10:50:26.000Z</time>
      </trkpt>
      <trkpt lat="47.48658" lon="6.70924">
        <ele>379.5</ele>
        <time>2014-10-12T10:50:27.000Z</time>
      </trkpt>
      <trkpt lat="47.4866" lon="6.70929">
        <ele>380.1</ele>
        <time>2014-10-12T10:50:28.000Z</time>
      </trkpt>
      <trkpt lat="47.48662" lon="6.70934">
        <ele>380.7</ele>
        <time>2014-10-12T10:50:29.000Z</time>
      </trkpt>
      <trkpt lat="47.48663" lon="6.70939">
        <ele>380.6</ele>
        <time>2014-10-12T10:50:30.000Z</time>
      </trkpt>
      <trkpt lat="47.48665" lon="6.70943">
        <ele>380.3</ele>
        <time>2014-10-12T10:50:31.000Z</time>
      </trkpt>
      <trkpt lat="47.48667" lon="6.70947">
        <ele>380.5</ele>
        <time>2014-10-12T10:50:32.000Z</time>
      </trkpt>
      <trkpt lat="47.48669" lon="6.70952">
        <ele>380.6</ele>
        <time>2014-10-12T10:50:33.000Z</time>
      </trkpt>
      <trkpt lat="47.48671" lon="6.70957">
        <ele>380.4</ele>
        <time>2014-10-12T10:50:34.000Z</time>
      </trkpt>
      <trkpt lat="47.48672" lon="6.70962">
        <ele>380.6</ele>
        <time>2014-10-12T10:50:35.000Z</time>
      </trkpt>
      <trkpt lat="47.48674" lon="6.70967">
        <ele>380.7</ele>
        <time>2014-10-12T10:50:36.000Z</time>
      </trkpt>
      <trkpt lat="47.48676" lon="6.70972">
        <ele>380.7</ele>
        <time>2014-10-12T10:50:37.000Z</time>
      </trkpt>
      <trkpt lat="47.48678" lon="6.70978">
        <ele>380.9</ele>
        <time>2014-10-12T10:50:38.000Z</time>
      </trkpt>
      <trkpt lat="47.4868" lon="6.70983">
        <ele>381.2</ele>
        <time>2014-10-12T10:50:39.000Z</time>
      </trkpt>
      <trkpt lat="47.48682" lon="6.70988">
        <ele>381.5</ele>
        <time>2014-10-12T10:50:40.000Z</time>
      </trkpt>
      <trkpt lat="47.48684" lon="6.70993">
        <ele>381.7</ele>
        <time>2014-10-12T10:50:41.000Z</time>
      </trkpt>
      <trkpt lat="47.48685" lon="6.70998">
        <ele>380.1</ele>
        <time>2014-10-12T10:50:42.000Z</time>
      </trkpt>
      <trkpt lat="47.48686" lon="6.71003">
        <ele>380.8</ele>
        <time>2014-10-12T10:50:43.000Z</time>
      </trkpt>
      <trkpt lat="47.48687" lon="6.71008">
        <ele>380.6</ele>
        <time>2014-10-12T10:50:44.000Z</time>
      </trkpt>
      <trkpt lat="47.48689" lon="6.71012">
        <ele>380.2</ele>
        <time>2014-10-12T10:50:45.000Z</time>
      </trkpt>
      <trkpt lat="47.4869" lon="6.71017">
        <ele>380</ele>
        <time>2014-10-12T10:50:46.000Z</time>
      </trkpt>
      <trkpt lat="47.48691" lon="6.71022">
        <ele>380.3</ele>
        <time>2014-10-12T10:50:47.000Z</time>
      </trkpt>
      <trkpt lat="47.48692" lon="6.71027">
        <ele>380.2</ele>
        <time>2014-10-12T10:50:48.000Z</time>
      </trkpt>
      <trkpt lat="47.487" lon="6.71076">
        <ele>380</ele>
        <time>2014-10-12T10:50:56.000Z</time>
      </trkpt>
      <trkpt lat="47.48701" lon="6.71086">
        <ele>380.6</ele>
        <time>2014-10-12T10:50:57.000Z</time>
      </trkpt>
      <trkpt lat="47.48702" lon="6.71093">
        <ele>380.5</ele>
        <time>2014-10-12T10:50:58.000Z</time>
      </trkpt>
      <trkpt lat="47.48703" lon="6.711">
        <ele>380.3</ele>
        <time>2014-10-12T10:50:59.000Z</time>
      </trkpt>
      <trkpt lat="47.48704" lon="6.71107">
        <ele>380.5</ele>
        <time>2014-10-12T10:51:00.000Z</time>
      </trkpt>
      <trkpt lat="47.48704" lon="6.71114">
        <ele>380.2</ele>
        <time>2014-10-12T10:51:01.000Z</time>
      </trkpt>
      <trkpt lat="47.48705" lon="6.71121">
        <ele>380.5</ele>
        <time>2014-10-12T10:51:02.000Z</time>
      </trkpt>
      <trkpt lat="47.48705" lon="6.71128">
        <ele>380.4</ele>
        <time>2014-10-12T10:51:03.000Z</time>
      </trkpt>
      <trkpt lat="47.48706" lon="6.71135">
        <ele>380.5</ele>
        <time>2014-10-12T10:51:04.000Z</time>
      </trkpt>
      <trkpt lat="47.48706" lon="6.71142">
        <ele>380.4</ele>
        <time>2014-10-12T10:51:05.000Z</time>
      </trkpt>
      <trkpt lat="47.48707" lon="6.71149">
        <ele>380.4</ele>
        <time>2014-10-12T10:51:06.000Z</time>
      </trkpt>
      <trkpt lat="47.48708" lon="6.71155">
        <ele>380.5</ele>
        <time>2014-10-12T10:51:07.000Z</time>
      </trkpt>
      <trkpt lat="47.48708" lon="6.71162">
        <ele>379.9</ele>
        <time>2014-10-12T10:51:08.000Z</time>
      </trkpt>
      <trkpt lat="47.48709" lon="6.71169">
        <ele>380</ele>
        <time>2014-10-12T10:51:09.000Z</time>
      </trkpt>
      <trkpt lat="47.48709" lon="6.71176">
        <ele>380.1</ele>
        <time>2014-10-12T10:51:10.000Z</time>
      </trkpt>
      <trkpt lat="47.48709" lon="6.71183">
        <ele>380.3</ele>
        <time>2014-10-12T10:51:11.000Z</time>
      </trkpt>
      <trkpt lat="47.4871" lon="6.71189">
        <ele>380.1</ele>
        <time>2014-10-12T10:51:12.000Z</time>
      </trkpt>
      <trkpt lat="47.4871" lon="6.71196">
        <ele>380.3</ele>
        <time>2014-10-12T10:51:13.000Z</time>
      </trkpt>
      <trkpt lat="47.48709" lon="6.71203">
        <ele>379.7</ele>
        <time>2014-10-12T10:51:14.000Z</time>
      </trkpt>
      <trkpt lat="47.48708" lon="6.7121">
        <ele>379.1</ele>
        <time>2014-10-12T10:51:15.000Z</time>
      </trkpt>
      <trkpt lat="47.48708" lon="6.71218">
        <ele>379.1</ele>
        <time>2014-10-12T10:51:16.000Z</time>
      </trkpt>
      <trkpt lat="47.48707" lon="6.71225">
        <ele>378.9</ele>
        <time>2014-10-12T10:51:17.000Z</time>
      </trkpt>
      <trkpt lat="47.48706" lon="6.71232">
        <ele>378.6</ele>
        <time>2014-10-12T10:51:18.000Z</time>
      </trkpt>
      <trkpt lat="47.48704" lon="6.71239">
        <ele>378.2</ele>
        <time>2014-10-12T10:51:19.000Z</time>
      </trkpt>
      <trkpt lat="47.48703" lon="6.71247">
        <ele>378</ele>
        <time>2014-10-12T10:51:20.000Z</time>
      </trkpt>
      <trkpt lat="47.48701" lon="6.71254">
        <ele>377.5</ele>
        <time>2014-10-12T10:51:21.000Z</time>
      </trkpt>
      <trkpt lat="47.487" lon="6.71261">
        <ele>377.2</ele>
        <time>2014-10-12T10:51:22.000Z</time>
      </trkpt>
      <trkpt lat="47.48698" lon="6.71269">
        <ele>377.1</ele>
        <time>2014-10-12T10:51:23.000Z</time>
      </trkpt>
      <trkpt lat="47.48696" lon="6.71276">
        <ele>376.7</ele>
        <time>2014-10-12T10:51:24.000Z</time>
      </trkpt>
      <trkpt lat="47.48695" lon="6.71285">
        <ele>376.6</ele>
        <time>2014-10-12T10:51:25.000Z</time>
      </trkpt>
      <trkpt lat="47.48693" lon="6.71292">
        <ele>376.3</ele>
        <time>2014-10-12T10:51:26.000Z</time>
      </trkpt>
      <trkpt lat="47.4869" lon="6.71299">
        <ele>376</ele>
        <time>2014-10-12T10:51:27.000Z</time>
      </trkpt>
      <trkpt lat="47.48688" lon="6.71307">
        <ele>376.2</ele>
        <time>2014-10-12T10:51:28.000Z</time>
      </trkpt>
      <trkpt lat="47.48686" lon="6.71314">
        <ele>375.9</ele>
        <time>2014-10-12T10:51:29.000Z</time>
      </trkpt>
      <trkpt lat="47.48684" lon="6.71321">
        <ele>375.9</ele>
        <time>2014-10-12T10:51:30.000Z</time>
      </trkpt>
      <trkpt lat="47.48681" lon="6.71328">
        <ele>375.5</ele>
        <time>2014-10-12T10:51:31.000Z</time>
      </trkpt>
      <trkpt lat="47.48679" lon="6.71335">
        <ele>375.1</ele>
        <time>2014-10-12T10:51:32.000Z</time>
      </trkpt>
      <trkpt lat="47.48676" lon="6.71342">
        <ele>374.8</ele>
        <time>2014-10-12T10:51:33.000Z</time>
      </trkpt>
      <trkpt lat="47.48673" lon="6.71349">
        <ele>374.6</ele>
        <time>2014-10-12T10:51:34.000Z</time>
      </trkpt>
      <trkpt lat="47.48671" lon="6.71357">
        <ele>374.4</ele>
        <time>2014-10-12T10:51:35.000Z</time>
      </trkpt>
      <trkpt lat="47.48668" lon="6.71364">
        <ele>374.6</ele>
        <time>2014-10-12T10:51:36.000Z</time>
      </trkpt>
      <trkpt lat="47.48664" lon="6.71371">
        <ele>374.9</ele>
        <time>2014-10-12T10:51:37.000Z</time>
      </trkpt>
      <trkpt lat="47.48661" lon="6.71377">
        <ele>374.4</ele>
        <time>2014-10-12T10:51:38.000Z</time>
      </trkpt>
      <trkpt lat="47.48658" lon="6.71384">
        <ele>374.2</ele>
        <time>2014-10-12T10:51:39.000Z</time>
      </trkpt>
      <trkpt lat="47.48654" lon="6.71391">
        <ele>374.1</ele>
        <time>2014-10-12T10:51:40.000Z</time>
      </trkpt>
      <trkpt lat="47.48651" lon="6.71398">
        <ele>373.9</ele>
        <time>2014-10-12T10:51:41.000Z</time>
      </trkpt>
      <trkpt lat="47.48648" lon="6.71406">
        <ele>372.6</ele>
        <time>2014-10-12T10:51:42.000Z</time>
      </trkpt>
      <trkpt lat="47.48645" lon="6.71414">
        <ele>371.9</ele>
        <time>2014-10-12T10:51:43.000Z</time>
      </trkpt>
      <trkpt lat="47.48642" lon="6.71421">
        <ele>372.2</ele>
        <time>2014-10-12T10:51:44.000Z</time>
      </trkpt>
      <trkpt lat="47.48639" lon="6.71428">
        <ele>372.3</ele>
        <time>2014-10-12T10:51:45.000Z</time>
      </trkpt>
      <trkpt lat="47.48637" lon="6.71435">
        <ele>372.3</ele>
        <time>2014-10-12T10:51:46.000Z</time>
      </trkpt>
      <trkpt lat="47.48634" lon="6.71442">
        <ele>372.2</ele>
        <time>2014-10-12T10:51:47.000Z</time>
      </trkpt>
      <trkpt lat="47.48632" lon="6.71454">
        <ele>371.4</ele>
        <time>2014-10-12T10:51:50.000Z</time>
      </trkpt>
      <trkpt lat="47.48633" lon="6.71457">
        <ele>371.5</ele>
        <time>2014-10-12T10:51:51.000Z</time>
      </trkpt>
      <trkpt lat="47.48635" lon="6.7146">
        <ele>371.5</ele>
        <time>2014-10-12T10:51:52.000Z</time>
      </trkpt>
      <trkpt lat="47.4864" lon="6.7146">
        <ele>371.4</ele>
        <time>2014-10-12T10:51:55.000Z</time>
      </trkpt>
      <trkpt lat="47.48641" lon="6.71458">
        <ele>370.7</ele>
        <time>2014-10-12T10:51:56.000Z</time>
      </trkpt>
      <trkpt lat="47.48645" lon="6.71456">
        <ele>371</ele>
        <time>2014-10-12T10:51:57.000Z</time>
      </trkpt>
      <trkpt lat="47.48647" lon="6.71455">
        <ele>370.8</ele>
        <time>2014-10-12T10:51:58.000Z</time>
      </trkpt>
      <trkpt lat="47.48649" lon="6.71453">
        <ele>371.3</ele>
        <time>2014-10-12T10:51:59.000Z</time>
      </trkpt>
      <trkpt lat="47.48651" lon="6.71452">
        <ele>371.7</ele>
        <time>2014-10-12T10:52:00.000Z</time>
      </trkpt>
      <trkpt lat="47.48653" lon="6.7145">
        <ele>371</ele>
        <time>2014-10-12T10:52:01.000Z</time>
      </trkpt>
      <trkpt lat="47.48655" lon="6.71449">
        <ele>371</ele>
        <time>2014-10-12T10:52:02.000Z</time>
      </trkpt>
      <trkpt lat="47.48659" lon="6.71445">
        <ele>371.4</ele>
        <time>2014-10-12T10:52:04.000Z</time>
      </trkpt>
      <trkpt lat="47.48661" lon="6.71444">
        <ele>371.2</ele>
        <time>2014-10-12T10:52:05.000Z</time>
      </trkpt>
      <trkpt lat="47.48663" lon="6.71443">
        <ele>371.5</ele>
        <time>2014-10-12T10:52:06.000Z</time>
      </trkpt>
      <trkpt lat="47.48665" lon="6.71441">
        <ele>371.5</ele>
        <time>2014-10-12T10:52:07.000Z</time>
      </trkpt>
      <trkpt lat="47.48668" lon="6.7144">
        <ele>372</ele>
        <time>2014-10-12T10:52:08.000Z</time>
      </trkpt>
      <trkpt lat="47.4867" lon="6.71438">
        <ele>372.2</ele>
        <time>2014-10-12T10:52:09.000Z</time>
      </trkpt>
      <trkpt lat="47.48673" lon="6.71437">
        <ele>373.5</ele>
        <time>2014-10-12T10:52:10.000Z</time>
      </trkpt>
      <trkpt lat="47.48676" lon="6.71436">
        <ele>374.1</ele>
        <time>2014-10-12T10:52:11.000Z</time>
      </trkpt>
      <trkpt lat="47.48679" lon="6.71434">
        <ele>374.4</ele>
        <time>2014-10-12T10:52:12.000Z</time>
      </trkpt>
      <trkpt lat="47.48681" lon="6.71433">
        <ele>374.5</ele>
        <time>2014-10-12T10:52:13.000Z</time>
      </trkpt>
      <trkpt lat="47.48684" lon="6.71432">
        <ele>374.1</ele>
        <time>2014-10-12T10:52:14.000Z</time>
      </trkpt>
      <trkpt lat="47.48687" lon="6.71431">
        <ele>374.4</ele>
        <time>2014-10-12T10:52:15.000Z</time>
      </trkpt>
      <trkpt lat="47.48689" lon="6.71429">
        <ele>375</ele>
        <time>2014-10-12T10:52:16.000Z</time>
      </trkpt>
      <trkpt lat="47.48691" lon="6.71428">
        <ele>374.6</ele>
        <time>2014-10-12T10:52:17.000Z</time>
      </trkpt>
      <trkpt lat="47.48694" lon="6.71426">
        <ele>374.9</ele>
        <time>2014-10-12T10:52:18.000Z</time>
      </trkpt>
      <trkpt lat="47.48696" lon="6.71425">
        <ele>375.4</ele>
        <time>2014-10-12T10:52:19.000Z</time>
      </trkpt>
      <trkpt lat="47.48698" lon="6.71423">
        <ele>376</ele>
        <time>2014-10-12T10:52:20.000Z</time>
      </trkpt>
      <trkpt lat="47.48701" lon="6.71422">
        <ele>375.9</ele>
        <time>2014-10-12T10:52:21.000Z</time>
      </trkpt>
      <trkpt lat="47.48703" lon="6.71421">
        <ele>376</ele>
        <time>2014-10-12T10:52:22.000Z</time>
      </trkpt>
      <trkpt lat="47.48705" lon="6.71419">
        <ele>375.7</ele>
        <time>2014-10-12T10:52:23.000Z</time>
      </trkpt>
      <trkpt lat="47.48708" lon="6.71418">
        <ele>376.8</ele>
        <time>2014-10-12T10:52:24.000Z</time>
      </trkpt>
      <trkpt lat="47.48711" lon="6.71417">
        <ele>376.5</ele>
        <time>2014-10-12T10:52:25.000Z</time>
      </trkpt>
      <trkpt lat="47.48713" lon="6.71415">
        <ele>376.9</ele>
        <time>2014-10-12T10:52:26.000Z</time>
      </trkpt>
      <trkpt lat="47.48716" lon="6.71414">
        <ele>376.8</ele>
        <time>2014-10-12T10:52:27.000Z</time>
      </trkpt>
      <trkpt lat="47.48719" lon="6.71412">
        <ele>376.8</ele>
        <time>2014-10-12T10:52:28.000Z</time>
      </trkpt>
      <trkpt lat="47.48721" lon="6.71411">
        <ele>376.7</ele>
        <time>2014-10-12T10:52:29.000Z</time>
      </trkpt>
      <trkpt lat="47.48723" lon="6.71409">
        <ele>376.8</ele>
        <time>2014-10-12T10:52:30.000Z</time>
      </trkpt>
      <trkpt lat="47.48726" lon="6.71408">
        <ele>376.9</ele>
        <time>2014-10-12T10:52:31.000Z</time>
      </trkpt>
      <trkpt lat="47.48728" lon="6.71406">
        <ele>376.6</ele>
        <time>2014-10-12T10:52:32.000Z</time>
      </trkpt>
      <trkpt lat="47.4873" lon="6.71405">
        <ele>376.9</ele>
        <time>2014-10-12T10:52:33.000Z</time>
      </trkpt>
      <trkpt lat="47.48733" lon="6.71403">
        <ele>377.7</ele>
        <time>2014-10-12T10:52:34.000Z</time>
      </trkpt>
      <trkpt lat="47.48735" lon="6.71402">
        <ele>378</ele>
        <time>2014-10-12T10:52:35.000Z</time>
      </trkpt>
      <trkpt lat="47.48737" lon="6.714">
        <ele>377.1</ele>
        <time>2014-10-12T10:52:36.000Z</time>
      </trkpt>
      <trkpt lat="47.4874" lon="6.71399">
        <ele>378.4</ele>
        <time>2014-10-12T10:52:37.000Z</time>
      </trkpt>
      <trkpt lat="47.48742" lon="6.71397">
        <ele>378.2</ele>
        <time>2014-10-12T10:52:38.000Z</time>
      </trkpt>
      <trkpt lat="47.48745" lon="6.71396">
        <ele>378.3</ele>
        <time>2014-10-12T10:52:39.000Z</time>
      </trkpt>
      <trkpt lat="47.48748" lon="6.71395">
        <ele>378.7</ele>
        <time>2014-10-12T10:52:40.000Z</time>
      </trkpt>
      <trkpt lat="47.48751" lon="6.71394">
        <ele>378.7</ele>
        <time>2014-10-12T10:52:41.000Z</time>
      </trkpt>
      <trkpt lat="47.48753" lon="6.71392">
        <ele>378.4</ele>
        <time>2014-10-12T10:52:42.000Z</time>
      </trkpt>
      <trkpt lat="47.48755" lon="6.71391">
        <ele>378.4</ele>
        <time>2014-10-12T10:52:43.000Z</time>
      </trkpt>
      <trkpt lat="47.48759" lon="6.71389">
        <ele>378.6</ele>
        <time>2014-10-12T10:52:45.000Z</time>
      </trkpt>
      <trkpt lat="47.48761" lon="6.71387">
        <ele>378.6</ele>
        <time>2014-10-12T10:52:46.000Z</time>
      </trkpt>
      <trkpt lat="47.48763" lon="6.71386">
        <ele>378.8</ele>
        <time>2014-10-12T10:52:47.000Z</time>
      </trkpt>
      <trkpt lat="47.48768" lon="6.71384">
        <ele>379.5</ele>
        <time>2014-10-12T10:52:50.000Z</time>
      </trkpt>
      <trkpt lat="47.48771" lon="6.71382">
        <ele>379.9</ele>
        <time>2014-10-12T10:52:51.000Z</time>
      </trkpt>
      <trkpt lat="47.48773" lon="6.71381">
        <ele>380.4</ele>
        <time>2014-10-12T10:52:52.000Z</time>
      </trkpt>
      <trkpt lat="47.48775" lon="6.71379">
        <ele>380.1</ele>
        <time>2014-10-12T10:52:53.000Z</time>
      </trkpt>
      <trkpt lat="47.48778" lon="6.71377">
        <ele>380.3</ele>
        <time>2014-10-12T10:52:54.000Z</time>
      </trkpt>
      <trkpt lat="47.48781" lon="6.71376">
        <ele>380.9</ele>
        <time>2014-10-12T10:52:55.000Z</time>
      </trkpt>
      <trkpt lat="47.48783" lon="6.71374">
        <ele>381.6</ele>
        <time>2014-10-12T10:52:56.000Z</time>
      </trkpt>
      <trkpt lat="47.48786" lon="6.71373">
        <ele>381.9</ele>
        <time>2014-10-12T10:52:57.000Z</time>
      </trkpt>
      <trkpt lat="47.48789" lon="6.71371">
        <ele>381.7</ele>
        <time>2014-10-12T10:52:58.000Z</time>
      </trkpt>
      <trkpt lat="47.48791" lon="6.7137">
        <ele>382.2</ele>
        <time>2014-10-12T10:52:59.000Z</time>
      </trkpt>
      <trkpt lat="47.48794" lon="6.71369">
        <ele>382.5</ele>
        <time>2014-10-12T10:53:00.000Z</time>
      </trkpt>
      <trkpt lat="47.48796" lon="6.71368">
        <ele>382.3</ele>
        <time>2014-10-12T10:53:01.000Z</time>
      </trkpt>
      <trkpt lat="47.48798" lon="6.71366">
        <ele>382.1</ele>
        <time>2014-10-12T10:53:02.000Z</time>
      </trkpt>
      <trkpt lat="47.488" lon="6.71365">
        <ele>382.3</ele>
        <time>2014-10-12T10:53:03.000Z</time>
      </trkpt>
      <trkpt lat="47.48803" lon="6.71363">
        <ele>382</ele>
        <time>2014-10-12T10:53:04.000Z</time>
      </trkpt>
      <trkpt lat="47.48805" lon="6.71362">
        <ele>381.9</ele>
        <time>2014-10-12T10:53:05.000Z</time>
      </trkpt>
      <trkpt lat="47.48807" lon="6.7136">
        <ele>382.1</ele>
        <time>2014-10-12T10:53:06.000Z</time>
      </trkpt>
      <trkpt lat="47.4881" lon="6.71359">
        <ele>382.1</ele>
        <time>2014-10-12T10:53:07.000Z</time>
      </trkpt>
      <trkpt lat="47.48812" lon="6.71358">
        <ele>381.8</ele>
        <time>2014-10-12T10:53:08.000Z</time>
      </trkpt>
      <trkpt lat="47.48814" lon="6.71356">
        <ele>381.7</ele>
        <time>2014-10-12T10:53:09.000Z</time>
      </trkpt>
      <trkpt lat="47.48817" lon="6.71355">
        <ele>382</ele>
        <time>2014-10-12T10:53:10.000Z</time>
      </trkpt>
      <trkpt lat="47.48819" lon="6.71353">
        <ele>382</ele>
        <time>2014-10-12T10:53:11.000Z</time>
      </trkpt>
      <trkpt lat="47.48822" lon="6.71352">
        <ele>382.6</ele>
        <time>2014-10-12T10:53:12.000Z</time>
      </trkpt>
      <trkpt lat="47.48824" lon="6.7135">
        <ele>382.7</ele>
        <time>2014-10-12T10:53:13.000Z</time>
      </trkpt>
      <trkpt lat="47.48826" lon="6.71349">
        <ele>382.2</ele>
        <time>2014-10-12T10:53:14.000Z</time>
      </trkpt>
      <trkpt lat="47.48829" lon="6.71348">
        <ele>382.8</ele>
        <time>2014-10-12T10:53:15.000Z</time>
      </trkpt>
      <trkpt lat="47.4883" lon="6.71347">
        <ele>382.9</ele>
        <time>2014-10-12T10:53:16.000Z</time>
      </trkpt>
      <trkpt lat="47.48834" lon="6.71345">
        <ele>382.9</ele>
        <time>2014-10-12T10:53:18.000Z</time>
      </trkpt>
      <trkpt lat="47.48836" lon="6.71344">
        <ele>382</ele>
        <time>2014-10-12T10:53:19.000Z</time>
      </trkpt>
      <trkpt lat="47.48839" lon="6.71342">
        <ele>382.3</ele>
        <time>2014-10-12T10:53:21.000Z</time>
      </trkpt>
      <trkpt lat="47.48841" lon="6.71341">
        <ele>382</ele>
        <time>2014-10-12T10:53:22.000Z</time>
      </trkpt>
      <trkpt lat="47.48845" lon="6.71339">
        <ele>381.4</ele>
        <time>2014-10-12T10:53:24.000Z</time>
      </trkpt>
      <trkpt lat="47.48848" lon="6.71339">
        <ele>381.7</ele>
        <time>2014-10-12T10:53:25.000Z</time>
      </trkpt>
      <trkpt lat="47.48852" lon="6.7134">
        <ele>382.6</ele>
        <time>2014-10-12T10:53:27.000Z</time>
      </trkpt>
      <trkpt lat="47.48853" lon="6.71341">
        <ele>382.1</ele>
        <time>2014-10-12T10:53:28.000Z</time>
      </trkpt>
      <trkpt lat="47.48856" lon="6.71343">
        <ele>382.8</ele>
        <time>2014-10-12T10:53:30.000Z</time>
      </trkpt>
      <trkpt lat="47.48858" lon="6.71345">
        <ele>383</ele>
        <time>2014-10-12T10:53:31.000Z</time>
      </trkpt>
      <trkpt lat="47.4886" lon="6.71348">
        <ele>383</ele>
        <time>2014-10-12T10:53:33.000Z</time>
      </trkpt>
      <trkpt lat="47.4886" lon="6.71351">
        <ele>382.7</ele>
        <time>2014-10-12T10:53:34.000Z</time>
      </trkpt>
      <trkpt lat="47.48861" lon="6.71357">
        <ele>382.9</ele>
        <time>2014-10-12T10:53:36.000Z</time>
      </trkpt>
      <trkpt lat="47.48861" lon="6.71361">
        <ele>382.8</ele>
        <time>2014-10-12T10:53:37.000Z</time>
      </trkpt>
      <trkpt lat="47.48862" lon="6.71365">
        <ele>382.7</ele>
        <time>2014-10-12T10:53:38.000Z</time>
      </trkpt>
      <trkpt lat="47.48862" lon="6.71368">
        <ele>382.8</ele>
        <time>2014-10-12T10:53:39.000Z</time>
      </trkpt>
      <trkpt lat="47.48863" lon="6.71371">
        <ele>383.1</ele>
        <time>2014-10-12T10:53:40.000Z</time>
      </trkpt>
      <trkpt lat="47.48864" lon="6.71375">
        <ele>382.9</ele>
        <time>2014-10-12T10:53:41.000Z</time>
      </trkpt>
      <trkpt lat="47.48864" lon="6.71378">
        <ele>383.5</ele>
        <time>2014-10-12T10:53:42.000Z</time>
      </trkpt>
      <trkpt lat="47.48865" lon="6.71382">
        <ele>383.6</ele>
        <time>2014-10-12T10:53:43.000Z</time>
      </trkpt>
      <trkpt lat="47.48866" lon="6.71385">
        <ele>383.5</ele>
        <time>2014-10-12T10:53:44.000Z</time>
      </trkpt>
      <trkpt lat="47.48867" lon="6.71389">
        <ele>383.9</ele>
        <time>2014-10-12T10:53:45.000Z</time>
      </trkpt>
      <trkpt lat="47.48868" lon="6.71392">
        <ele>383.6</ele>
        <time>2014-10-12T10:53:46.000Z</time>
      </trkpt>
      <trkpt lat="47.48868" lon="6.71396">
        <ele>383.7</ele>
        <time>2014-10-12T10:53:47.000Z</time>
      </trkpt>
      <trkpt lat="47.48871" lon="6.71407">
        <ele>383.8</ele>
        <time>2014-10-12T10:53:50.000Z</time>
      </trkpt>
      <trkpt lat="47.48871" lon="6.71411">
        <ele>383.7</ele>
        <time>2014-10-12T10:53:51.000Z</time>
      </trkpt>
      <trkpt lat="47.48872" lon="6.71415">
        <ele>383.5</ele>
        <time>2014-10-12T10:53:52.000Z</time>
      </trkpt>
      <trkpt lat="47.48872" lon="6.71419">
        <ele>383.6</ele>
        <time>2014-10-12T10:53:53.000Z</time>
      </trkpt>
      <trkpt lat="47.48873" lon="6.71423">
        <ele>383.7</ele>
        <time>2014-10-12T10:53:54.000Z</time>
      </trkpt>
      <trkpt lat="47.48873" lon="6.71427">
        <ele>384.5</ele>
        <time>2014-10-12T10:53:55.000Z</time>
      </trkpt>
      <trkpt lat="47.48874" lon="6.71431">
        <ele>385</ele>
        <time>2014-10-12T10:53:56.000Z</time>
      </trkpt>
      <trkpt lat="47.48874" lon="6.71436">
        <ele>384.9</ele>
        <time>2014-10-12T10:53:57.000Z</time>
      </trkpt>
      <trkpt lat="47.48874" lon="6.7144">
        <ele>385</ele>
        <time>2014-10-12T10:53:58.000Z</time>
      </trkpt>
      <trkpt lat="47.48875" lon="6.71443">
        <ele>385.1</ele>
        <time>2014-10-12T10:53:59.000Z</time>
      </trkpt>
      <trkpt lat="47.48876" lon="6.71447">
        <ele>385.1</ele>
        <time>2014-10-12T10:54:00.000Z</time>
      </trkpt>
      <trkpt lat="47.48877" lon="6.71451">
        <ele>385.3</ele>
        <time>2014-10-12T10:54:01.000Z</time>
      </trkpt>
      <trkpt lat="47.48878" lon="6.71455">
        <ele>385</ele>
        <time>2014-10-12T10:54:02.000Z</time>
      </trkpt>
      <trkpt lat="47.48879" lon="6.71459">
        <ele>385</ele>
        <time>2014-10-12T10:54:03.000Z</time>
      </trkpt>
      <trkpt lat="47.4888" lon="6.71462">
        <ele>385.1</ele>
        <time>2014-10-12T10:54:04.000Z</time>
      </trkpt>
      <trkpt lat="47.48881" lon="6.71466">
        <ele>384.5</ele>
        <time>2014-10-12T10:54:05.000Z</time>
      </trkpt>
      <trkpt lat="47.48881" lon="6.7147">
        <ele>384.7</ele>
        <time>2014-10-12T10:54:06.000Z</time>
      </trkpt>
      <trkpt lat="47.48882" lon="6.71474">
        <ele>384.3</ele>
        <time>2014-10-12T10:54:07.000Z</time>
      </trkpt>
      <trkpt lat="47.48882" lon="6.71477">
        <ele>385.3</ele>
        <time>2014-10-12T10:54:08.000Z</time>
      </trkpt>
      <trkpt lat="47.48883" lon="6.71481">
        <ele>385.2</ele>
        <time>2014-10-12T10:54:09.000Z</time>
      </trkpt>
      <trkpt lat="47.48884" lon="6.71485">
        <ele>385.2</ele>
        <time>2014-10-12T10:54:10.000Z</time>
      </trkpt>
      <trkpt lat="47.48885" lon="6.71489">
        <ele>385.5</ele>
        <time>2014-10-12T10:54:11.000Z</time>
      </trkpt>
      <trkpt lat="47.48886" lon="6.71493">
        <ele>384.9</ele>
        <time>2014-10-12T10:54:12.000Z</time>
      </trkpt>
      <trkpt lat="47.48886" lon="6.71497">
        <ele>384.7</ele>
        <time>2014-10-12T10:54:13.000Z</time>
      </trkpt>
      <trkpt lat="47.48887" lon="6.71502">
        <ele>384.4</ele>
        <time>2014-10-12T10:54:14.000Z</time>
      </trkpt>
      <trkpt lat="47.48888" lon="6.71506">
        <ele>384.7</ele>
        <time>2014-10-12T10:54:15.000Z</time>
      </trkpt>
      <trkpt lat="47.48889" lon="6.7151">
        <ele>384.5</ele>
        <time>2014-10-12T10:54:16.000Z</time>
      </trkpt>
      <trkpt lat="47.4889" lon="6.71514">
        <ele>384.7</ele>
        <time>2014-10-12T10:54:17.000Z</time>
      </trkpt>
      <trkpt lat="47.48891" lon="6.71517">
        <ele>384.9</ele>
        <time>2014-10-12T10:54:18.000Z</time>
      </trkpt>
      <trkpt lat="47.48892" lon="6.71521">
        <ele>384.6</ele>
        <time>2014-10-12T10:54:19.000Z</time>
      </trkpt>
      <trkpt lat="47.48893" lon="6.71525">
        <ele>384.6</ele>
        <time>2014-10-12T10:54:20.000Z</time>
      </trkpt>
      <trkpt lat="47.48894" lon="6.71528">
        <ele>384.9</ele>
        <time>2014-10-12T10:54:21.000Z</time>
      </trkpt>
      <trkpt lat="47.48895" lon="6.71532">
        <ele>384.9</ele>
        <time>2014-10-12T10:54:22.000Z</time>
      </trkpt>
      <trkpt lat="47.48895" lon="6.71535">
        <ele>384.3</ele>
        <time>2014-10-12T10:54:23.000Z</time>
      </trkpt>
      <trkpt lat="47.48896" lon="6.71538">
        <ele>384.2</ele>
        <time>2014-10-12T10:54:24.000Z</time>
      </trkpt>
      <trkpt lat="47.48897" lon="6.71544">
        <ele>383.8</ele>
        <time>2014-10-12T10:54:26.000Z</time>
      </trkpt>
      <trkpt lat="47.48898" lon="6.71547">
        <ele>383.2</ele>
        <time>2014-10-12T10:54:27.000Z</time>
      </trkpt>
      <trkpt lat="47.48899" lon="6.7155">
        <ele>382.7</ele>
        <time>2014-10-12T10:54:28.000Z</time>
      </trkpt>
      <trkpt lat="47.489" lon="6.71553">
        <ele>382.5</ele>
        <time>2014-10-12T10:54:29.000Z</time>
      </trkpt>
      <trkpt lat="47.48901" lon="6.71556">
        <ele>382</ele>
        <time>2014-10-12T10:54:30.000Z</time>
      </trkpt>
      <trkpt lat="47.48903" lon="6.7156">
        <ele>382.5</ele>
        <time>2014-10-12T10:54:31.000Z</time>
      </trkpt>
      <trkpt lat="47.48904" lon="6.71563">
        <ele>383</ele>
        <time>2014-10-12T10:54:32.000Z</time>
      </trkpt>
      <trkpt lat="47.48905" lon="6.71566">
        <ele>383.4</ele>
        <time>2014-10-12T10:54:33.000Z</time>
      </trkpt>
      <trkpt lat="47.48906" lon="6.71569">
        <ele>383.5</ele>
        <time>2014-10-12T10:54:34.000Z</time>
      </trkpt>
      <trkpt lat="47.48907" lon="6.71572">
        <ele>383.7</ele>
        <time>2014-10-12T10:54:35.000Z</time>
      </trkpt>
      <trkpt lat="47.48908" lon="6.71575">
        <ele>383.7</ele>
        <time>2014-10-12T10:54:36.000Z</time>
      </trkpt>
      <trkpt lat="47.48909" lon="6.71578">
        <ele>384.1</ele>
        <time>2014-10-12T10:54:37.000Z</time>
      </trkpt>
      <trkpt lat="47.4891" lon="6.71584">
        <ele>384.9</ele>
        <time>2014-10-12T10:54:39.000Z</time>
      </trkpt>
      <trkpt lat="47.4891" lon="6.71587">
        <ele>385.1</ele>
        <time>2014-10-12T10:54:40.000Z</time>
      </trkpt>
      <trkpt lat="47.48911" lon="6.71593">
        <ele>385.8</ele>
        <time>2014-10-12T10:54:42.000Z</time>
      </trkpt>
      <trkpt lat="47.48912" lon="6.71597">
        <ele>384.9</ele>
        <time>2014-10-12T10:54:43.000Z</time>
      </trkpt>
      <trkpt lat="47.48913" lon="6.716">
        <ele>385.8</ele>
        <time>2014-10-12T10:54:44.000Z</time>
      </trkpt>
      <trkpt lat="47.48913" lon="6.71604">
        <ele>386</ele>
        <time>2014-10-12T10:54:45.000Z</time>
      </trkpt>
      <trkpt lat="47.48914" lon="6.71607">
        <ele>386.9</ele>
        <time>2014-10-12T10:54:46.000Z</time>
      </trkpt>
      <trkpt lat="47.48915" lon="6.7161">
        <ele>387.2</ele>
        <time>2014-10-12T10:54:47.000Z</time>
      </trkpt>
      <trkpt lat="47.48916" lon="6.71614">
        <ele>386.8</ele>
        <time>2014-10-12T10:54:48.000Z</time>
      </trkpt>
      <trkpt lat="47.48918" lon="6.71623">
        <ele>387</ele>
        <time>2014-10-12T10:54:51.000Z</time>
      </trkpt>
      <trkpt lat="47.48919" lon="6.71627">
        <ele>387</ele>
        <time>2014-10-12T10:54:52.000Z</time>
      </trkpt>
      <trkpt lat="47.4892" lon="6.7163">
        <ele>386.9</ele>
        <time>2014-10-12T10:54:53.000Z</time>
      </trkpt>
      <trkpt lat="47.48921" lon="6.71635">
        <ele>386.8</ele>
        <time>2014-10-12T10:54:54.000Z</time>
      </trkpt>
      <trkpt lat="47.48922" lon="6.71639">
        <ele>386.6</ele>
        <time>2014-10-12T10:54:55.000Z</time>
      </trkpt>
      <trkpt lat="47.48922" lon="6.71643">
        <ele>386.8</ele>
        <time>2014-10-12T10:54:56.000Z</time>
      </trkpt>
      <trkpt lat="47.48923" lon="6.71647">
        <ele>387.6</ele>
        <time>2014-10-12T10:54:57.000Z</time>
      </trkpt>
      <trkpt lat="47.48924" lon="6.71652">
        <ele>388</ele>
        <time>2014-10-12T10:54:58.000Z</time>
      </trkpt>
      <trkpt lat="47.48925" lon="6.71656">
        <ele>388.1</ele>
        <time>2014-10-12T10:54:59.000Z</time>
      </trkpt>
      <trkpt lat="47.48925" lon="6.7166">
        <ele>388.2</ele>
        <time>2014-10-12T10:55:00.000Z</time>
      </trkpt>
      <trkpt lat="47.48926" lon="6.71664">
        <ele>387.1</ele>
        <time>2014-10-12T10:55:01.000Z</time>
      </trkpt>
      <trkpt lat="47.48927" lon="6.71669">
        <ele>386.6</ele>
        <time>2014-10-12T10:55:02.000Z</time>
      </trkpt>
      <trkpt lat="47.48927" lon="6.71673">
        <ele>385.9</ele>
        <time>2014-10-12T10:55:03.000Z</time>
      </trkpt>
      <trkpt lat="47.48928" lon="6.71678">
        <ele>386.5</ele>
        <time>2014-10-12T10:55:04.000Z</time>
      </trkpt>
      <trkpt lat="47.48929" lon="6.71683">
        <ele>387</ele>
        <time>2014-10-12T10:55:05.000Z</time>
      </trkpt>
      <trkpt lat="47.4893" lon="6.71688">
        <ele>386.8</ele>
        <time>2014-10-12T10:55:06.000Z</time>
      </trkpt>
      <trkpt lat="47.48931" lon="6.71692">
        <ele>386.6</ele>
        <time>2014-10-12T10:55:07.000Z</time>
      </trkpt>
      <trkpt lat="47.48931" lon="6.71697">
        <ele>386.3</ele>
        <time>2014-10-12T10:55:08.000Z</time>
      </trkpt>
      <trkpt lat="47.48932" lon="6.71701">
        <ele>386.2</ele>
        <time>2014-10-12T10:55:09.000Z</time>
      </trkpt>
      <trkpt lat="47.48932" lon="6.71706">
        <ele>386.2</ele>
        <time>2014-10-12T10:55:10.000Z</time>
      </trkpt>
      <trkpt lat="47.48933" lon="6.71711">
        <ele>385.5</ele>
        <time>2014-10-12T10:55:11.000Z</time>
      </trkpt>
      <trkpt lat="47.48933" lon="6.71716">
        <ele>384.9</ele>
        <time>2014-10-12T10:55:12.000Z</time>
      </trkpt>
      <trkpt lat="47.48933" lon="6.7172">
        <ele>385.1</ele>
        <time>2014-10-12T10:55:13.000Z</time>
      </trkpt>
      <trkpt lat="47.48932" lon="6.71725">
        <ele>384.9</ele>
        <time>2014-10-12T10:55:14.000Z</time>
      </trkpt>
      <trkpt lat="47.48931" lon="6.71731">
        <ele>384.5</ele>
        <time>2014-10-12T10:55:15.000Z</time>
      </trkpt>
      <trkpt lat="47.4893" lon="6.71736">
        <ele>384.4</ele>
        <time>2014-10-12T10:55:16.000Z</time>
      </trkpt>
      <trkpt lat="47.48929" lon="6.71741">
        <ele>385.4</ele>
        <time>2014-10-12T10:55:17.000Z</time>
      </trkpt>
      <trkpt lat="47.48928" lon="6.71747">
        <ele>385.8</ele>
        <time>2014-10-12T10:55:18.000Z</time>
      </trkpt>
      <trkpt lat="47.48927" lon="6.71752">
        <ele>385.4</ele>
        <time>2014-10-12T10:55:19.000Z</time>
      </trkpt>
      <trkpt lat="47.48926" lon="6.71758">
        <ele>385</ele>
        <time>2014-10-12T10:55:20.000Z</time>
      </trkpt>
      <trkpt lat="47.48925" lon="6.71764">
        <ele>384.1</ele>
        <time>2014-10-12T10:55:21.000Z</time>
      </trkpt>
      <trkpt lat="47.48925" lon="6.7177">
        <ele>383.4</ele>
        <time>2014-10-12T10:55:22.000Z</time>
      </trkpt>
      <trkpt lat="47.48925" lon="6.71776">
        <ele>383.8</ele>
        <time>2014-10-12T10:55:23.000Z</time>
      </trkpt>
      <trkpt lat="47.48925" lon="6.71783">
        <ele>383.4</ele>
        <time>2014-10-12T10:55:24.000Z</time>
      </trkpt>
      <trkpt lat="47.48926" lon="6.71788">
        <ele>382.9</ele>
        <time>2014-10-12T10:55:25.000Z</time>
      </trkpt>
      <trkpt lat="47.48927" lon="6.71794">
        <ele>383.5</ele>
        <time>2014-10-12T10:55:26.000Z</time>
      </trkpt>
      <trkpt lat="47.48928" lon="6.71799">
        <ele>383.1</ele>
        <time>2014-10-12T10:55:27.000Z</time>
      </trkpt>
      <trkpt lat="47.4893" lon="6.71803">
        <ele>382.6</ele>
        <time>2014-10-12T10:55:28.000Z</time>
      </trkpt>
      <trkpt lat="47.48931" lon="6.71808">
        <ele>382.8</ele>
        <time>2014-10-12T10:55:29.000Z</time>
      </trkpt>
      <trkpt lat="47.48932" lon="6.71812">
        <ele>383.3</ele>
        <time>2014-10-12T10:55:30.000Z</time>
      </trkpt>
      <trkpt lat="47.48933" lon="6.71816">
        <ele>383.7</ele>
        <time>2014-10-12T10:55:31.000Z</time>
      </trkpt>
      <trkpt lat="47.48933" lon="6.7182">
        <ele>384</ele>
        <time>2014-10-12T10:55:32.000Z</time>
      </trkpt>
      <trkpt lat="47.48934" lon="6.71824">
        <ele>384.5</ele>
        <time>2014-10-12T10:55:33.000Z</time>
      </trkpt>
      <trkpt lat="47.48935" lon="6.71828">
        <ele>384.7</ele>
        <time>2014-10-12T10:55:34.000Z</time>
      </trkpt>
      <trkpt lat="47.48936" lon="6.71832">
        <ele>383.7</ele>
        <time>2014-10-12T10:55:35.000Z</time>
      </trkpt>
      <trkpt lat="47.48937" lon="6.71837">
        <ele>383.7</ele>
        <time>2014-10-12T10:55:36.000Z</time>
      </trkpt>
      <trkpt lat="47.48937" lon="6.71841">
        <ele>383.4</ele>
        <time>2014-10-12T10:55:37.000Z</time>
      </trkpt>
      <trkpt lat="47.48938" lon="6.71846">
        <ele>383.6</ele>
        <time>2014-10-12T10:55:38.000Z</time>
      </trkpt>
      <trkpt lat="47.48939" lon="6.7185">
        <ele>383.6</ele>
        <time>2014-10-12T10:55:39.000Z</time>
      </trkpt>
      <trkpt lat="47.4894" lon="6.71854">
        <ele>383.4</ele>
        <time>2014-10-12T10:55:40.000Z</time>
      </trkpt>
      <trkpt lat="47.48941" lon="6.71857">
        <ele>383</ele>
        <time>2014-10-12T10:55:41.000Z</time>
      </trkpt>
      <trkpt lat="47.48942" lon="6.71861">
        <ele>382.1</ele>
        <time>2014-10-12T10:55:42.000Z</time>
      </trkpt>
      <trkpt lat="47.48942" lon="6.71864">
        <ele>382.1</ele>
        <time>2014-10-12T10:55:43.000Z</time>
      </trkpt>
      <trkpt lat="47.48944" lon="6.7187">
        <ele>382.8</ele>
        <time>2014-10-12T10:55:45.000Z</time>
      </trkpt>
      <trkpt lat="47.48944" lon="6.71872">
        <ele>382.7</ele>
        <time>2014-10-12T10:55:46.000Z</time>
      </trkpt>
      <trkpt lat="47.48944" lon="6.71874">
        <ele>382.8</ele>
        <time>2014-10-12T10:55:47.000Z</time>
      </trkpt>
      <trkpt lat="47.48945" lon="6.71881">
        <ele>382.1</ele>
        <time>2014-10-12T10:55:50.000Z</time>
      </trkpt>
      <trkpt lat="47.48945" lon="6.71884">
        <ele>382.6</ele>
        <time>2014-10-12T10:55:51.000Z</time>
      </trkpt>
      <trkpt lat="47.48946" lon="6.71887">
        <ele>380.9</ele>
        <time>2014-10-12T10:55:52.000Z</time>
      </trkpt>
      <trkpt lat="47.48946" lon="6.71891">
        <ele>381</ele>
        <time>2014-10-12T10:55:53.000Z</time>
      </trkpt>
      <trkpt lat="47.48947" lon="6.71895">
        <ele>381.7</ele>
        <time>2014-10-12T10:55:54.000Z</time>
      </trkpt>
      <trkpt lat="47.48947" lon="6.71899">
        <ele>380.9</ele>
        <time>2014-10-12T10:55:55.000Z</time>
      </trkpt>
      <trkpt lat="47.48947" lon="6.71903">
        <ele>380.7</ele>
        <time>2014-10-12T10:55:56.000Z</time>
      </trkpt>
      <trkpt lat="47.48948" lon="6.71908">
        <ele>380.3</ele>
        <time>2014-10-12T10:55:57.000Z</time>
      </trkpt>
      <trkpt lat="47.48948" lon="6.71913">
        <ele>380.2</ele>
        <time>2014-10-12T10:55:58.000Z</time>
      </trkpt>
      <trkpt lat="47.48949" lon="6.71918">
        <ele>379.9</ele>
        <time>2014-10-12T10:55:59.000Z</time>
      </trkpt>
      <trkpt lat="47.4895" lon="6.71923">
        <ele>380</ele>
        <time>2014-10-12T10:56:00.000Z</time>
      </trkpt>
      <trkpt lat="47.48951" lon="6.71928">
        <ele>380.3</ele>
        <time>2014-10-12T10:56:01.000Z</time>
      </trkpt>
      <trkpt lat="47.48951" lon="6.71933">
        <ele>380</ele>
        <time>2014-10-12T10:56:02.000Z</time>
      </trkpt>
      <trkpt lat="47.48952" lon="6.71938">
        <ele>380.6</ele>
        <time>2014-10-12T10:56:03.000Z</time>
      </trkpt>
      <trkpt lat="47.48952" lon="6.71944">
        <ele>380.5</ele>
        <time>2014-10-12T10:56:04.000Z</time>
      </trkpt>
      <trkpt lat="47.48953" lon="6.71949">
        <ele>380.5</ele>
        <time>2014-10-12T10:56:05.000Z</time>
      </trkpt>
      <trkpt lat="47.48953" lon="6.71954">
        <ele>380.4</ele>
        <time>2014-10-12T10:56:06.000Z</time>
      </trkpt>
      <trkpt lat="47.48954" lon="6.71959">
        <ele>381.3</ele>
        <time>2014-10-12T10:56:07.000Z</time>
      </trkpt>
      <trkpt lat="47.48954" lon="6.71963">
        <ele>381.5</ele>
        <time>2014-10-12T10:56:08.000Z</time>
      </trkpt>
      <trkpt lat="47.48955" lon="6.71967">
        <ele>381.7</ele>
        <time>2014-10-12T10:56:09.000Z</time>
      </trkpt>
      <trkpt lat="47.48955" lon="6.71972">
        <ele>381.6</ele>
        <time>2014-10-12T10:56:10.000Z</time>
      </trkpt>
      <trkpt lat="47.48955" lon="6.71976">
        <ele>381.2</ele>
        <time>2014-10-12T10:56:11.000Z</time>
      </trkpt>
      <trkpt lat="47.48955" lon="6.7198">
        <ele>380.8</ele>
        <time>2014-10-12T10:56:12.000Z</time>
      </trkpt>
      <trkpt lat="47.48956" lon="6.71984">
        <ele>380.1</ele>
        <time>2014-10-12T10:56:13.000Z</time>
      </trkpt>
      <trkpt lat="47.48956" lon="6.71988">
        <ele>379.2</ele>
        <time>2014-10-12T10:56:14.000Z</time>
      </trkpt>
      <trkpt lat="47.48956" lon="6.71993">
        <ele>378.9</ele>
        <time>2014-10-12T10:56:15.000Z</time>
      </trkpt>
      <trkpt lat="47.48957" lon="6.71996">
        <ele>378.6</ele>
        <time>2014-10-12T10:56:16.000Z</time>
      </trkpt>
      <trkpt lat="47.48957" lon="6.72">
        <ele>378.8</ele>
        <time>2014-10-12T10:56:17.000Z</time>
      </trkpt>
      <trkpt lat="47.48957" lon="6.72003">
        <ele>379.3</ele>
        <time>2014-10-12T10:56:18.000Z</time>
      </trkpt>
      <trkpt lat="47.48958" lon="6.72008">
        <ele>378</ele>
        <time>2014-10-12T10:56:20.000Z</time>
      </trkpt>
      <trkpt lat="47.48958" lon="6.7201">
        <ele>379.3</ele>
        <time>2014-10-12T10:56:21.000Z</time>
      </trkpt>
      <trkpt lat="47.48959" lon="6.72015">
        <ele>379.6</ele>
        <time>2014-10-12T10:56:25.000Z</time>
      </trkpt>
      <trkpt lat="47.4896" lon="6.72017">
        <ele>379.6</ele>
        <time>2014-10-12T10:56:26.000Z</time>
      </trkpt>
      <trkpt lat="47.48959" lon="6.72023">
        <ele>379</ele>
        <time>2014-10-12T10:57:15.000Z</time>
      </trkpt>
      <trkpt lat="47.48959" lon="6.72023">
        <ele>378.9</ele>
        <time>2014-10-12T10:57:16.000Z</time>
      </trkpt>
      <trkpt lat="47.48959" lon="6.72028">
        <ele>379.7</ele>
        <time>2014-10-12T10:57:18.000Z</time>
      </trkpt>
      <trkpt lat="47.4896" lon="6.72031">
        <ele>379.6</ele>
        <time>2014-10-12T10:57:19.000Z</time>
      </trkpt>
      <trkpt lat="47.4896" lon="6.72035">
        <ele>380.2</ele>
        <time>2014-10-12T10:57:20.000Z</time>
      </trkpt>
      <trkpt lat="47.48961" lon="6.72039">
        <ele>380.2</ele>
        <time>2014-10-12T10:57:21.000Z</time>
      </trkpt>
      <trkpt lat="47.48962" lon="6.72043">
        <ele>379.8</ele>
        <time>2014-10-12T10:57:22.000Z</time>
      </trkpt>
      <trkpt lat="47.48962" lon="6.72046">
        <ele>378.4</ele>
        <time>2014-10-12T10:57:23.000Z</time>
      </trkpt>
      <trkpt lat="47.48964" lon="6.72052">
        <ele>378.2</ele>
        <time>2014-10-12T10:57:25.000Z</time>
      </trkpt>
      <trkpt lat="47.48964" lon="6.72055">
        <ele>378.3</ele>
        <time>2014-10-12T10:57:26.000Z</time>
      </trkpt>
      <trkpt lat="47.48964" lon="6.72059">
        <ele>378.6</ele>
        <time>2014-10-12T10:57:27.000Z</time>
      </trkpt>
      <trkpt lat="47.48965" lon="6.72062">
        <ele>383.3</ele>
        <time>2014-10-12T10:57:28.000Z</time>
      </trkpt>
      <trkpt lat="47.48966" lon="6.72065">
        <ele>384.7</ele>
        <time>2014-10-12T10:57:29.000Z</time>
      </trkpt>
      <trkpt lat="47.48967" lon="6.72068">
        <ele>385.3</ele>
        <time>2014-10-12T10:57:30.000Z</time>
      </trkpt>
      <trkpt lat="47.48967" lon="6.72072">
        <ele>385.3</ele>
        <time>2014-10-12T10:57:31.000Z</time>
      </trkpt>
      <trkpt lat="47.48968" lon="6.72076">
        <ele>385.6</ele>
        <time>2014-10-12T10:57:32.000Z</time>
      </trkpt>
      <trkpt lat="47.48969" lon="6.7208">
        <ele>385.3</ele>
        <time>2014-10-12T10:57:33.000Z</time>
      </trkpt>
      <trkpt lat="47.4897" lon="6.72085">
        <ele>384.3</ele>
        <time>2014-10-12T10:57:34.000Z</time>
      </trkpt>
      <trkpt lat="47.48971" lon="6.7209">
        <ele>383.5</ele>
        <time>2014-10-12T10:57:35.000Z</time>
      </trkpt>
      <trkpt lat="47.48972" lon="6.72094">
        <ele>382.9</ele>
        <time>2014-10-12T10:57:36.000Z</time>
      </trkpt>
      <trkpt lat="47.48972" lon="6.72099">
        <ele>382.1</ele>
        <time>2014-10-12T10:57:37.000Z</time>
      </trkpt>
      <trkpt lat="47.48973" lon="6.72104">
        <ele>382</ele>
        <time>2014-10-12T10:57:38.000Z</time>
      </trkpt>
      <trkpt lat="47.48974" lon="6.72108">
        <ele>382</ele>
        <time>2014-10-12T10:57:39.000Z</time>
      </trkpt>
      <trkpt lat="47.48974" lon="6.72113">
        <ele>382.2</ele>
        <time>2014-10-12T10:57:40.000Z</time>
      </trkpt>
      <trkpt lat="47.48975" lon="6.72118">
        <ele>382.5</ele>
        <time>2014-10-12T10:57:41.000Z</time>
      </trkpt>
      <trkpt lat="47.48975" lon="6.72122">
        <ele>382.3</ele>
        <time>2014-10-12T10:57:42.000Z</time>
      </trkpt>
      <trkpt lat="47.48976" lon="6.72126">
        <ele>381.9</ele>
        <time>2014-10-12T10:57:43.000Z</time>
      </trkpt>
      <trkpt lat="47.48976" lon="6.7213">
        <ele>381.7</ele>
        <time>2014-10-12T10:57:44.000Z</time>
      </trkpt>
      <trkpt lat="47.48977" lon="6.72134">
        <ele>381.6</ele>
        <time>2014-10-12T10:57:45.000Z</time>
      </trkpt>
      <trkpt lat="47.48978" lon="6.72139">
        <ele>381.3</ele>
        <time>2014-10-12T10:57:46.000Z</time>
      </trkpt>
      <trkpt lat="47.48978" lon="6.72143">
        <ele>381</ele>
        <time>2014-10-12T10:57:47.000Z</time>
      </trkpt>
      <trkpt lat="47.48981" lon="6.72156">
        <ele>380.1</ele>
        <time>2014-10-12T10:57:50.000Z</time>
      </trkpt>
      <trkpt lat="47.48981" lon="6.7216">
        <ele>380.1</ele>
        <time>2014-10-12T10:57:51.000Z</time>
      </trkpt>
      <trkpt lat="47.48982" lon="6.72166">
        <ele>379</ele>
        <time>2014-10-12T10:57:52.000Z</time>
      </trkpt>
      <trkpt lat="47.48983" lon="6.72172">
        <ele>378.4</ele>
        <time>2014-10-12T10:57:53.000Z</time>
      </trkpt>
      <trkpt lat="47.48983" lon="6.72178">
        <ele>378</ele>
        <time>2014-10-12T10:57:54.000Z</time>
      </trkpt>
      <trkpt lat="47.48984" lon="6.72185">
        <ele>377.3</ele>
        <time>2014-10-12T10:57:55.000Z</time>
      </trkpt>
      <trkpt lat="47.48984" lon="6.72192">
        <ele>377.6</ele>
        <time>2014-10-12T10:57:56.000Z</time>
      </trkpt>
      <trkpt lat="47.48985" lon="6.72198">
        <ele>378.1</ele>
        <time>2014-10-12T10:57:57.000Z</time>
      </trkpt>
      <trkpt lat="47.48986" lon="6.72204">
        <ele>378.8</ele>
        <time>2014-10-12T10:57:58.000Z</time>
      </trkpt>
      <trkpt lat="47.48986" lon="6.72209">
        <ele>379.3</ele>
        <time>2014-10-12T10:57:59.000Z</time>
      </trkpt>
      <trkpt lat="47.48986" lon="6.72213">
        <ele>378.8</ele>
        <time>2014-10-12T10:58:00.000Z</time>
      </trkpt>
      <trkpt lat="47.48987" lon="6.72218">
        <ele>379.8</ele>
        <time>2014-10-12T10:58:01.000Z</time>
      </trkpt>
      <trkpt lat="47.48987" lon="6.72222">
        <ele>380.2</ele>
        <time>2014-10-12T10:58:02.000Z</time>
      </trkpt>
      <trkpt lat="47.48988" lon="6.72226">
        <ele>379.5</ele>
        <time>2014-10-12T10:58:03.000Z</time>
      </trkpt>
      <trkpt lat="47.4899" lon="6.7223">
        <ele>379</ele>
        <time>2014-10-12T10:58:04.000Z</time>
      </trkpt>
      <trkpt lat="47.48991" lon="6.72234">
        <ele>378.6</ele>
        <time>2014-10-12T10:58:05.000Z</time>
      </trkpt>
      <trkpt lat="47.48993" lon="6.72237">
        <ele>378.7</ele>
        <time>2014-10-12T10:58:06.000Z</time>
      </trkpt>
      <trkpt lat="47.48994" lon="6.72241">
        <ele>379.5</ele>
        <time>2014-10-12T10:58:07.000Z</time>
      </trkpt>
      <trkpt lat="47.48994" lon="6.72244">
        <ele>380</ele>
        <time>2014-10-12T10:58:08.000Z</time>
      </trkpt>
      <trkpt lat="47.48995" lon="6.72248">
        <ele>380</ele>
        <time>2014-10-12T10:58:09.000Z</time>
      </trkpt>
      <trkpt lat="47.48996" lon="6.72251">
        <ele>380</ele>
        <time>2014-10-12T10:58:10.000Z</time>
      </trkpt>
      <trkpt lat="47.48996" lon="6.72255">
        <ele>380.1</ele>
        <time>2014-10-12T10:58:11.000Z</time>
      </trkpt>
      <trkpt lat="47.48997" lon="6.72259">
        <ele>380.1</ele>
        <time>2014-10-12T10:58:12.000Z</time>
      </trkpt>
      <trkpt lat="47.48997" lon="6.72263">
        <ele>380</ele>
        <time>2014-10-12T10:58:13.000Z</time>
      </trkpt>
      <trkpt lat="47.48997" lon="6.72267">
        <ele>379.7</ele>
        <time>2014-10-12T10:58:14.000Z</time>
      </trkpt>
      <trkpt lat="47.48997" lon="6.72271">
        <ele>379.2</ele>
        <time>2014-10-12T10:58:15.000Z</time>
      </trkpt>
      <trkpt lat="47.48997" lon="6.72275">
        <ele>378.9</ele>
        <time>2014-10-12T10:58:16.000Z</time>
      </trkpt>
      <trkpt lat="47.48997" lon="6.72279">
        <ele>380.2</ele>
        <time>2014-10-12T10:58:17.000Z</time>
      </trkpt>
      <trkpt lat="47.48998" lon="6.72283">
        <ele>379.9</ele>
        <time>2014-10-12T10:58:18.000Z</time>
      </trkpt>
      <trkpt lat="47.48999" lon="6.72286">
        <ele>380.7</ele>
        <time>2014-10-12T10:58:19.000Z</time>
      </trkpt>
      <trkpt lat="47.48999" lon="6.7229">
        <ele>381</ele>
        <time>2014-10-12T10:58:20.000Z</time>
      </trkpt>
      <trkpt lat="47.49" lon="6.72294">
        <ele>381.3</ele>
        <time>2014-10-12T10:58:21.000Z</time>
      </trkpt>
      <trkpt lat="47.49" lon="6.72298">
        <ele>381.4</ele>
        <time>2014-10-12T10:58:22.000Z</time>
      </trkpt>
      <trkpt lat="47.49001" lon="6.72302">
        <ele>381.3</ele>
        <time>2014-10-12T10:58:23.000Z</time>
      </trkpt>
      <trkpt lat="47.49002" lon="6.72306">
        <ele>381.5</ele>
        <time>2014-10-12T10:58:24.000Z</time>
      </trkpt>
      <trkpt lat="47.49003" lon="6.7231">
        <ele>381.3</ele>
        <time>2014-10-12T10:58:25.000Z</time>
      </trkpt>
      <trkpt lat="47.49003" lon="6.72314">
        <ele>380.4</ele>
        <time>2014-10-12T10:58:26.000Z</time>
      </trkpt>
      <trkpt lat="47.49004" lon="6.72318">
        <ele>380.5</ele>
        <time>2014-10-12T10:58:27.000Z</time>
      </trkpt>
      <trkpt lat="47.49005" lon="6.72321">
        <ele>380.5</ele>
        <time>2014-10-12T10:58:28.000Z</time>
      </trkpt>
      <trkpt lat="47.49005" lon="6.72325">
        <ele>381</ele>
        <time>2014-10-12T10:58:29.000Z</time>
      </trkpt>
      <trkpt lat="47.49005" lon="6.72329">
        <ele>381.3</ele>
        <time>2014-10-12T10:58:30.000Z</time>
      </trkpt>
      <trkpt lat="47.49006" lon="6.72333">
        <ele>380.9</ele>
        <time>2014-10-12T10:58:31.000Z</time>
      </trkpt>
      <trkpt lat="47.49006" lon="6.72336">
        <ele>381</ele>
        <time>2014-10-12T10:58:32.000Z</time>
      </trkpt>
      <trkpt lat="47.49007" lon="6.72342">
        <ele>380.5</ele>
        <time>2014-10-12T10:58:34.000Z</time>
      </trkpt>
      <trkpt lat="47.49007" lon="6.72345">
        <ele>380.3</ele>
        <time>2014-10-12T10:58:35.000Z</time>
      </trkpt>
      <trkpt lat="47.49007" lon="6.72349">
        <ele>380.1</ele>
        <time>2014-10-12T10:58:36.000Z</time>
      </trkpt>
      <trkpt lat="47.49008" lon="6.72353">
        <ele>379.7</ele>
        <time>2014-10-12T10:58:37.000Z</time>
      </trkpt>
      <trkpt lat="47.49008" lon="6.72357">
        <ele>379.3</ele>
        <time>2014-10-12T10:58:38.000Z</time>
      </trkpt>
      <trkpt lat="47.49009" lon="6.72361">
        <ele>378.9</ele>
        <time>2014-10-12T10:58:39.000Z</time>
      </trkpt>
      <trkpt lat="47.49009" lon="6.72364">
        <ele>379.2</ele>
        <time>2014-10-12T10:58:40.000Z</time>
      </trkpt>
      <trkpt lat="47.4901" lon="6.72368">
        <ele>378.8</ele>
        <time>2014-10-12T10:58:41.000Z</time>
      </trkpt>
      <trkpt lat="47.49011" lon="6.72371">
        <ele>378.7</ele>
        <time>2014-10-12T10:58:42.000Z</time>
      </trkpt>
      <trkpt lat="47.49011" lon="6.72375">
        <ele>378.7</ele>
        <time>2014-10-12T10:58:43.000Z</time>
      </trkpt>
      <trkpt lat="47.49012" lon="6.72378">
        <ele>378.7</ele>
        <time>2014-10-12T10:58:44.000Z</time>
      </trkpt>
      <trkpt lat="47.49012" lon="6.72382">
        <ele>379.5</ele>
        <time>2014-10-12T10:58:45.000Z</time>
      </trkpt>
      <trkpt lat="47.49012" lon="6.72386">
        <ele>379.6</ele>
        <time>2014-10-12T10:58:46.000Z</time>
      </trkpt>
      <trkpt lat="47.49012" lon="6.7239">
        <ele>380.2</ele>
        <time>2014-10-12T10:58:47.000Z</time>
      </trkpt>
      <trkpt lat="47.49016" lon="6.7242">
        <ele>380.4</ele>
        <time>2014-10-12T10:58:56.000Z</time>
      </trkpt>
      <trkpt lat="47.49017" lon="6.72424">
        <ele>380.6</ele>
        <time>2014-10-12T10:58:57.000Z</time>
      </trkpt>
      <trkpt lat="47.49017" lon="6.72427">
        <ele>381.1</ele>
        <time>2014-10-12T10:58:58.000Z</time>
      </trkpt>
      <trkpt lat="47.49018" lon="6.72431">
        <ele>382</ele>
        <time>2014-10-12T10:58:59.000Z</time>
      </trkpt>
      <trkpt lat="47.49018" lon="6.72435">
        <ele>383.8</ele>
        <time>2014-10-12T10:59:00.000Z</time>
      </trkpt>
      <trkpt lat="47.49019" lon="6.72439">
        <ele>384.5</ele>
        <time>2014-10-12T10:59:01.000Z</time>
      </trkpt>
      <trkpt lat="47.4902" lon="6.72443">
        <ele>384.2</ele>
        <time>2014-10-12T10:59:02.000Z</time>
      </trkpt>
      <trkpt lat="47.4902" lon="6.72447">
        <ele>383.4</ele>
        <time>2014-10-12T10:59:03.000Z</time>
      </trkpt>
      <trkpt lat="47.49021" lon="6.7245">
        <ele>382.8</ele>
        <time>2014-10-12T10:59:04.000Z</time>
      </trkpt>
      <trkpt lat="47.49023" lon="6.72454">
        <ele>382</ele>
        <time>2014-10-12T10:59:05.000Z</time>
      </trkpt>
      <trkpt lat="47.49024" lon="6.72457">
        <ele>381.9</ele>
        <time>2014-10-12T10:59:06.000Z</time>
      </trkpt>
      <trkpt lat="47.49024" lon="6.7246">
        <ele>381.3</ele>
        <time>2014-10-12T10:59:07.000Z</time>
      </trkpt>
      <trkpt lat="47.49025" lon="6.72464">
        <ele>381.2</ele>
        <time>2014-10-12T10:59:08.000Z</time>
      </trkpt>
      <trkpt lat="47.49025" lon="6.72467">
        <ele>380.9</ele>
        <time>2014-10-12T10:59:09.000Z</time>
      </trkpt>
      <trkpt lat="47.49026" lon="6.72472">
        <ele>385.3</ele>
        <time>2014-10-12T10:59:10.000Z</time>
      </trkpt>
      <trkpt lat="47.49027" lon="6.72476">
        <ele>386.1</ele>
        <time>2014-10-12T10:59:11.000Z</time>
      </trkpt>
      <trkpt lat="47.49028" lon="6.7248">
        <ele>384.1</ele>
        <time>2014-10-12T10:59:12.000Z</time>
      </trkpt>
      <trkpt lat="47.49028" lon="6.72485">
        <ele>384.3</ele>
        <time>2014-10-12T10:59:13.000Z</time>
      </trkpt>
      <trkpt lat="47.49029" lon="6.72489">
        <ele>385.1</ele>
        <time>2014-10-12T10:59:14.000Z</time>
      </trkpt>
      <trkpt lat="47.4903" lon="6.72494">
        <ele>385.9</ele>
        <time>2014-10-12T10:59:15.000Z</time>
      </trkpt>
      <trkpt lat="47.49031" lon="6.72499">
        <ele>386.1</ele>
        <time>2014-10-12T10:59:16.000Z</time>
      </trkpt>
      <trkpt lat="47.49032" lon="6.72504">
        <ele>386.2</ele>
        <time>2014-10-12T10:59:17.000Z</time>
      </trkpt>
      <trkpt lat="47.49033" lon="6.72508">
        <ele>385.5</ele>
        <time>2014-10-12T10:59:18.000Z</time>
      </trkpt>
      <trkpt lat="47.49034" lon="6.72512">
        <ele>385.1</ele>
        <time>2014-10-12T10:59:19.000Z</time>
      </trkpt>
      <trkpt lat="47.49034" lon="6.72516">
        <ele>384.2</ele>
        <time>2014-10-12T10:59:20.000Z</time>
      </trkpt>
      <trkpt lat="47.49034" lon="6.7252">
        <ele>383.1</ele>
        <time>2014-10-12T10:59:21.000Z</time>
      </trkpt>
      <trkpt lat="47.49035" lon="6.72524">
        <ele>383.6</ele>
        <time>2014-10-12T10:59:22.000Z</time>
      </trkpt>
      <trkpt lat="47.49035" lon="6.72528">
        <ele>383.2</ele>
        <time>2014-10-12T10:59:23.000Z</time>
      </trkpt>
      <trkpt lat="47.49035" lon="6.72532">
        <ele>383.1</ele>
        <time>2014-10-12T10:59:24.000Z</time>
      </trkpt>
      <trkpt lat="47.49035" lon="6.72535">
        <ele>383.6</ele>
        <time>2014-10-12T10:59:25.000Z</time>
      </trkpt>
      <trkpt lat="47.49036" lon="6.72539">
        <ele>383.4</ele>
        <time>2014-10-12T10:59:26.000Z</time>
      </trkpt>
      <trkpt lat="47.49036" lon="6.72543">
        <ele>383.2</ele>
        <time>2014-10-12T10:59:27.000Z</time>
      </trkpt>
      <trkpt lat="47.49036" lon="6.72548">
        <ele>384</ele>
        <time>2014-10-12T10:59:28.000Z</time>
      </trkpt>
      <trkpt lat="47.49036" lon="6.72551">
        <ele>383.4</ele>
        <time>2014-10-12T10:59:29.000Z</time>
      </trkpt>
      <trkpt lat="47.49036" lon="6.72555">
        <ele>384</ele>
        <time>2014-10-12T10:59:30.000Z</time>
      </trkpt>
      <trkpt lat="47.49037" lon="6.72559">
        <ele>384.5</ele>
        <time>2014-10-12T10:59:31.000Z</time>
      </trkpt>
      <trkpt lat="47.49037" lon="6.72563">
        <ele>384.5</ele>
        <time>2014-10-12T10:59:32.000Z</time>
      </trkpt>
      <trkpt lat="47.49038" lon="6.72567">
        <ele>384.5</ele>
        <time>2014-10-12T10:59:33.000Z</time>
      </trkpt>
      <trkpt lat="47.49039" lon="6.72571">
        <ele>384.3</ele>
        <time>2014-10-12T10:59:34.000Z</time>
      </trkpt>
      <trkpt lat="47.4904" lon="6.72576">
        <ele>383.9</ele>
        <time>2014-10-12T10:59:35.000Z</time>
      </trkpt>
      <trkpt lat="47.4904" lon="6.7258">
        <ele>383.5</ele>
        <time>2014-10-12T10:59:36.000Z</time>
      </trkpt>
      <trkpt lat="47.49041" lon="6.72585">
        <ele>383.6</ele>
        <time>2014-10-12T10:59:37.000Z</time>
      </trkpt>
      <trkpt lat="47.49041" lon="6.72589">
        <ele>383.4</ele>
        <time>2014-10-12T10:59:38.000Z</time>
      </trkpt>
      <trkpt lat="47.49042" lon="6.72593">
        <ele>383.2</ele>
        <time>2014-10-12T10:59:39.000Z</time>
      </trkpt>
      <trkpt lat="47.49042" lon="6.72597">
        <ele>383.5</ele>
        <time>2014-10-12T10:59:40.000Z</time>
      </trkpt>
      <trkpt lat="47.49043" lon="6.72601">
        <ele>384.2</ele>
        <time>2014-10-12T10:59:41.000Z</time>
      </trkpt>
      <trkpt lat="47.49044" lon="6.72605">
        <ele>384.1</ele>
        <time>2014-10-12T10:59:42.000Z</time>
      </trkpt>
      <trkpt lat="47.49044" lon="6.72609">
        <ele>384.1</ele>
        <time>2014-10-12T10:59:43.000Z</time>
      </trkpt>
      <trkpt lat="47.49045" lon="6.72614">
        <ele>384.6</ele>
        <time>2014-10-12T10:59:44.000Z</time>
      </trkpt>
      <trkpt lat="47.49046" lon="6.72618">
        <ele>385</ele>
        <time>2014-10-12T10:59:45.000Z</time>
      </trkpt>
      <trkpt lat="47.49046" lon="6.72622">
        <ele>385.2</ele>
        <time>2014-10-12T10:59:46.000Z</time>
      </trkpt>
      <trkpt lat="47.49047" lon="6.72625">
        <ele>384.5</ele>
        <time>2014-10-12T10:59:47.000Z</time>
      </trkpt>
      <trkpt lat="47.49048" lon="6.72629">
        <ele>385.7</ele>
        <time>2014-10-12T10:59:48.000Z</time>
      </trkpt>
      <trkpt lat="47.49049" lon="6.72639">
        <ele>386.8</ele>
        <time>2014-10-12T10:59:51.000Z</time>
      </trkpt>
      <trkpt lat="47.49049" lon="6.72642">
        <ele>386.5</ele>
        <time>2014-10-12T10:59:52.000Z</time>
      </trkpt>
      <trkpt lat="47.49049" lon="6.72646">
        <ele>386.3</ele>
        <time>2014-10-12T10:59:53.000Z</time>
      </trkpt>
      <trkpt lat="47.4905" lon="6.7265">
        <ele>387.9</ele>
        <time>2014-10-12T10:59:54.000Z</time>
      </trkpt>
      <trkpt lat="47.49051" lon="6.72654">
        <ele>387.3</ele>
        <time>2014-10-12T10:59:55.000Z</time>
      </trkpt>
      <trkpt lat="47.49052" lon="6.72658">
        <ele>386.8</ele>
        <time>2014-10-12T10:59:56.000Z</time>
      </trkpt>
      <trkpt lat="47.49053" lon="6.72662">
        <ele>385.8</ele>
        <time>2014-10-12T10:59:57.000Z</time>
      </trkpt>
      <trkpt lat="47.49053" lon="6.72666">
        <ele>385.5</ele>
        <time>2014-10-12T10:59:58.000Z</time>
      </trkpt>
      <trkpt lat="47.49054" lon="6.72671">
        <ele>385</ele>
        <time>2014-10-12T10:59:59.000Z</time>
      </trkpt>
      <trkpt lat="47.49055" lon="6.72676">
        <ele>385.2</ele>
        <time>2014-10-12T11:00:00.000Z</time>
      </trkpt>
      <trkpt lat="47.49055" lon="6.7268">
        <ele>384.6</ele>
        <time>2014-10-12T11:00:01.000Z</time>
      </trkpt>
      <trkpt lat="47.49056" lon="6.72684">
        <ele>386.6</ele>
        <time>2014-10-12T11:00:02.000Z</time>
      </trkpt>
      <trkpt lat="47.49057" lon="6.72688">
        <ele>387.4</ele>
        <time>2014-10-12T11:00:03.000Z</time>
      </trkpt>
      <trkpt lat="47.49057" lon="6.72691">
        <ele>387.3</ele>
        <time>2014-10-12T11:00:04.000Z</time>
      </trkpt>
      <trkpt lat="47.49058" lon="6.72695">
        <ele>387.1</ele>
        <time>2014-10-12T11:00:05.000Z</time>
      </trkpt>
      <trkpt lat="47.49059" lon="6.72698">
        <ele>390.2</ele>
        <time>2014-10-12T11:00:06.000Z</time>
      </trkpt>
      <trkpt lat="47.4906" lon="6.72702">
        <ele>391.3</ele>
        <time>2014-10-12T11:00:07.000Z</time>
      </trkpt>
      <trkpt lat="47.4906" lon="6.72706">
        <ele>391.3</ele>
        <time>2014-10-12T11:00:08.000Z</time>
      </trkpt>
      <trkpt lat="47.4906" lon="6.7271">
        <ele>391.6</ele>
        <time>2014-10-12T11:00:09.000Z</time>
      </trkpt>
      <trkpt lat="47.49061" lon="6.72715">
        <ele>389.2</ele>
        <time>2014-10-12T11:00:10.000Z</time>
      </trkpt>
      <trkpt lat="47.49061" lon="6.7272">
        <ele>387.7</ele>
        <time>2014-10-12T11:00:11.000Z</time>
      </trkpt>
      <trkpt lat="47.49061" lon="6.72725">
        <ele>389</ele>
        <time>2014-10-12T11:00:12.000Z</time>
      </trkpt>
      <trkpt lat="47.49062" lon="6.7273">
        <ele>388.7</ele>
        <time>2014-10-12T11:00:13.000Z</time>
      </trkpt>
      <trkpt lat="47.49063" lon="6.72734">
        <ele>388.8</ele>
        <time>2014-10-12T11:00:14.000Z</time>
      </trkpt>
      <trkpt lat="47.49063" lon="6.72738">
        <ele>388.7</ele>
        <time>2014-10-12T11:00:15.000Z</time>
      </trkpt>
      <trkpt lat="47.49064" lon="6.72743">
        <ele>387.9</ele>
        <time>2014-10-12T11:00:16.000Z</time>
      </trkpt>
      <trkpt lat="47.49065" lon="6.72747">
        <ele>387.8</ele>
        <time>2014-10-12T11:00:17.000Z</time>
      </trkpt>
      <trkpt lat="47.49066" lon="6.72751">
        <ele>387.3</ele>
        <time>2014-10-12T11:00:18.000Z</time>
      </trkpt>
      <trkpt lat="47.49067" lon="6.72756">
        <ele>387.1</ele>
        <time>2014-10-12T11:00:19.000Z</time>
      </trkpt>
      <trkpt lat="47.49067" lon="6.7276">
        <ele>386.7</ele>
        <time>2014-10-12T11:00:20.000Z</time>
      </trkpt>
      <trkpt lat="47.49068" lon="6.72764">
        <ele>386.2</ele>
        <time>2014-10-12T11:00:21.000Z</time>
      </trkpt>
      <trkpt lat="47.49069" lon="6.72768">
        <ele>385.8</ele>
        <time>2014-10-12T11:00:22.000Z</time>
      </trkpt>
      <trkpt lat="47.49069" lon="6.72772">
        <ele>385.6</ele>
        <time>2014-10-12T11:00:23.000Z</time>
      </trkpt>
      <trkpt lat="47.4907" lon="6.72776">
        <ele>384.8</ele>
        <time>2014-10-12T11:00:24.000Z</time>
      </trkpt>
      <trkpt lat="47.4907" lon="6.7278">
        <ele>386.1</ele>
        <time>2014-10-12T11:00:25.000Z</time>
      </trkpt>
      <trkpt lat="47.49071" lon="6.72785">
        <ele>386.2</ele>
        <time>2014-10-12T11:00:26.000Z</time>
      </trkpt>
      <trkpt lat="47.49072" lon="6.7279">
        <ele>386.9</ele>
        <time>2014-10-12T11:00:27.000Z</time>
      </trkpt>
      <trkpt lat="47.49073" lon="6.72795">
        <ele>387.2</ele>
        <time>2014-10-12T11:00:28.000Z</time>
      </trkpt>
      <trkpt lat="47.49074" lon="6.728">
        <ele>389.5</ele>
        <time>2014-10-12T11:00:29.000Z</time>
      </trkpt>
      <trkpt lat="47.49075" lon="6.72805">
        <ele>389.3</ele>
        <time>2014-10-12T11:00:30.000Z</time>
      </trkpt>
      <trkpt lat="47.49077" lon="6.72809">
        <ele>388.2</ele>
        <time>2014-10-12T11:00:31.000Z</time>
      </trkpt>
      <trkpt lat="47.49079" lon="6.72813">
        <ele>386.3</ele>
        <time>2014-10-12T11:00:32.000Z</time>
      </trkpt>
      <trkpt lat="47.49081" lon="6.72816">
        <ele>387.2</ele>
        <time>2014-10-12T11:00:33.000Z</time>
      </trkpt>
      <trkpt lat="47.49083" lon="6.7282">
        <ele>385.2</ele>
        <time>2014-10-12T11:00:35.000Z</time>
      </trkpt>
      <trkpt lat="47.49084" lon="6.72821">
        <ele>383.2</ele>
        <time>2014-10-12T11:00:36.000Z</time>
      </trkpt>
      <trkpt lat="47.49087" lon="6.72824">
        <ele>381.3</ele>
        <time>2014-10-12T11:00:38.000Z</time>
      </trkpt>
      <trkpt lat="47.49088" lon="6.72826">
        <ele>380</ele>
        <time>2014-10-12T11:00:39.000Z</time>
      </trkpt>
      <trkpt lat="47.49087" lon="6.72829">
        <ele>379.5</ele>
        <time>2014-10-12T11:00:40.000Z</time>
      </trkpt>
      <trkpt lat="47.49086" lon="6.72832">
        <ele>378.3</ele>
        <time>2014-10-12T11:00:41.000Z</time>
      </trkpt>
      <trkpt lat="47.49084" lon="6.72836">
        <ele>377.7</ele>
        <time>2014-10-12T11:00:42.000Z</time>
      </trkpt>
      <trkpt lat="47.49081" lon="6.7284">
        <ele>375.6</ele>
        <time>2014-10-12T11:00:43.000Z</time>
      </trkpt>
      <trkpt lat="47.49079" lon="6.72845">
        <ele>372.5</ele>
        <time>2014-10-12T11:00:44.000Z</time>
      </trkpt>
      <trkpt lat="47.49078" lon="6.7285">
        <ele>370.8</ele>
        <time>2014-10-12T11:00:45.000Z</time>
      </trkpt>
      <trkpt lat="47.49075" lon="6.72855">
        <ele>371.6</ele>
        <time>2014-10-12T11:00:46.000Z</time>
      </trkpt>
      <trkpt lat="47.49072" lon="6.7286">
        <ele>370.9</ele>
        <time>2014-10-12T11:00:47.000Z</time>
      </trkpt>
      <trkpt lat="47.49063" lon="6.72871">
        <ele>369.3</ele>
        <time>2014-10-12T11:00:50.000Z</time>
      </trkpt>
      <trkpt lat="47.4906" lon="6.72875">
        <ele>369.9</ele>
        <time>2014-10-12T11:00:51.000Z</time>
      </trkpt>
      <trkpt lat="47.49058" lon="6.72878">
        <ele>368.6</ele>
        <time>2014-10-12T11:00:52.000Z</time>
      </trkpt>
      <trkpt lat="47.49056" lon="6.72881">
        <ele>368.6</ele>
        <time>2014-10-12T11:00:53.000Z</time>
      </trkpt>
      <trkpt lat="47.49054" lon="6.72885">
        <ele>368.2</ele>
        <time>2014-10-12T11:00:54.000Z</time>
      </trkpt>
      <trkpt lat="47.49053" lon="6.72888">
        <ele>368.2</ele>
        <time>2014-10-12T11:00:55.000Z</time>
      </trkpt>
      <trkpt lat="47.49051" lon="6.72891">
        <ele>366.5</ele>
        <time>2014-10-12T11:00:56.000Z</time>
      </trkpt>
      <trkpt lat="47.49049" lon="6.72895">
        <ele>365.7</ele>
        <time>2014-10-12T11:00:57.000Z</time>
      </trkpt>
      <trkpt lat="47.49048" lon="6.72898">
        <ele>365.2</ele>
        <time>2014-10-12T11:00:58.000Z</time>
      </trkpt>
      <trkpt lat="47.49046" lon="6.72903">
        <ele>365.1</ele>
        <time>2014-10-12T11:00:59.000Z</time>
      </trkpt>
      <trkpt lat="47.49045" lon="6.72906">
        <ele>364.5</ele>
        <time>2014-10-12T11:01:00.000Z</time>
      </trkpt>
      <trkpt lat="47.49044" lon="6.7291">
        <ele>362.7</ele>
        <time>2014-10-12T11:01:01.000Z</time>
      </trkpt>
      <trkpt lat="47.49044" lon="6.72914">
        <ele>363.3</ele>
        <time>2014-10-12T11:01:02.000Z</time>
      </trkpt>
      <trkpt lat="47.49043" lon="6.72918">
        <ele>366.2</ele>
        <time>2014-10-12T11:01:03.000Z</time>
      </trkpt>
      <trkpt lat="47.49042" lon="6.72923">
        <ele>364.6</ele>
        <time>2014-10-12T11:01:04.000Z</time>
      </trkpt>
      <trkpt lat="47.49041" lon="6.72928">
        <ele>364.3</ele>
        <time>2014-10-12T11:01:05.000Z</time>
      </trkpt>
      <trkpt lat="47.49039" lon="6.72933">
        <ele>364.7</ele>
        <time>2014-10-12T11:01:06.000Z</time>
      </trkpt>
      <trkpt lat="47.49038" lon="6.72937">
        <ele>365.1</ele>
        <time>2014-10-12T11:01:07.000Z</time>
      </trkpt>
      <trkpt lat="47.49037" lon="6.72941">
        <ele>365.2</ele>
        <time>2014-10-12T11:01:08.000Z</time>
      </trkpt>
      <trkpt lat="47.49035" lon="6.72945">
        <ele>366.8</ele>
        <time>2014-10-12T11:01:09.000Z</time>
      </trkpt>
      <trkpt lat="47.49034" lon="6.7295">
        <ele>367.3</ele>
        <time>2014-10-12T11:01:10.000Z</time>
      </trkpt>
      <trkpt lat="47.49032" lon="6.72954">
        <ele>368</ele>
        <time>2014-10-12T11:01:11.000Z</time>
      </trkpt>
      <trkpt lat="47.4903" lon="6.72959">
        <ele>369.4</ele>
        <time>2014-10-12T11:01:12.000Z</time>
      </trkpt>
      <trkpt lat="47.49028" lon="6.72965">
        <ele>370</ele>
        <time>2014-10-12T11:01:13.000Z</time>
      </trkpt>
      <trkpt lat="47.49027" lon="6.7297">
        <ele>371.6</ele>
        <time>2014-10-12T11:01:14.000Z</time>
      </trkpt>
      <trkpt lat="47.49025" lon="6.72975">
        <ele>372.5</ele>
        <time>2014-10-12T11:01:15.000Z</time>
      </trkpt>
      <trkpt lat="47.49024" lon="6.7298">
        <ele>372.5</ele>
        <time>2014-10-12T11:01:16.000Z</time>
      </trkpt>
      <trkpt lat="47.49023" lon="6.72985">
        <ele>372.5</ele>
        <time>2014-10-12T11:01:17.000Z</time>
      </trkpt>
      <trkpt lat="47.49023" lon="6.72989">
        <ele>373.2</ele>
        <time>2014-10-12T11:01:18.000Z</time>
      </trkpt>
      <trkpt lat="47.49021" lon="6.72994">
        <ele>373.4</ele>
        <time>2014-10-12T11:01:20.000Z</time>
      </trkpt>
      <trkpt lat="47.49021" lon="6.72996">
        <ele>374.6</ele>
        <time>2014-10-12T11:01:21.000Z</time>
      </trkpt>
      <trkpt lat="47.49024" lon="6.73">
        <ele>377.5</ele>
        <time>2014-10-12T11:01:25.000Z</time>
      </trkpt>
      <trkpt lat="47.49025" lon="6.73001">
        <ele>377.6</ele>
        <time>2014-10-12T11:01:26.000Z</time>
      </trkpt>
      <trkpt lat="47.49028" lon="6.73003">
        <ele>378.4</ele>
        <time>2014-10-12T11:01:32.000Z</time>
      </trkpt>
      <trkpt lat="47.49029" lon="6.73003">
        <ele>378.8</ele>
        <time>2014-10-12T11:01:33.000Z</time>
      </trkpt>
      <trkpt lat="47.49033" lon="6.73002">
        <ele>379.7</ele>
        <time>2014-10-12T11:01:38.000Z</time>
      </trkpt>
      <trkpt lat="47.49034" lon="6.73001">
        <ele>380.1</ele>
        <time>2014-10-12T11:01:39.000Z</time>
      </trkpt>
      <trkpt lat="47.49037" lon="6.72997">
        <ele>380</ele>
        <time>2014-10-12T11:01:43.000Z</time>
      </trkpt>
      <trkpt lat="47.49037" lon="6.72996">
        <ele>379.9</ele>
        <time>2014-10-12T11:01:44.000Z</time>
      </trkpt>
      <trkpt lat="47.4904" lon="6.72998">
        <ele>379.8</ele>
        <time>2014-10-12T11:01:47.000Z</time>
      </trkpt>
      <trkpt lat="47.49042" lon="6.73">
        <ele>380.2</ele>
        <time>2014-10-12T11:01:50.000Z</time>
      </trkpt>
      <trkpt lat="47.49045" lon="6.72999">
        <ele>379.5</ele>
        <time>2014-10-12T11:01:53.000Z</time>
      </trkpt>
      <trkpt lat="47.49047" lon="6.72999">
        <ele>379.4</ele>
        <time>2014-10-12T11:01:54.000Z</time>
      </trkpt>
      <trkpt lat="47.4905" lon="6.72998">
        <ele>379.1</ele>
        <time>2014-10-12T11:01:56.000Z</time>
      </trkpt>
      <trkpt lat="47.49051" lon="6.72998">
        <ele>379.4</ele>
        <time>2014-10-12T11:01:57.000Z</time>
      </trkpt>
      <trkpt lat="47.49055" lon="6.72997">
        <ele>380.3</ele>
        <time>2014-10-12T11:01:59.000Z</time>
      </trkpt>
      <trkpt lat="47.49056" lon="6.72996">
        <ele>380.5</ele>
        <time>2014-10-12T11:02:00.000Z</time>
      </trkpt>
      <trkpt lat="47.4906" lon="6.72994">
        <ele>380.4</ele>
        <time>2014-10-12T11:02:02.000Z</time>
      </trkpt>
      <trkpt lat="47.49062" lon="6.72994">
        <ele>380</ele>
        <time>2014-10-12T11:02:03.000Z</time>
      </trkpt>
      <trkpt lat="47.49064" lon="6.72993">
        <ele>379.9</ele>
        <time>2014-10-12T11:02:04.000Z</time>
      </trkpt>
      <trkpt lat="47.49067" lon="6.72993">
        <ele>380.4</ele>
        <time>2014-10-12T11:02:05.000Z</time>
      </trkpt>
      <trkpt lat="47.49069" lon="6.72992">
        <ele>380.2</ele>
        <time>2014-10-12T11:02:06.000Z</time>
      </trkpt>
      <trkpt lat="47.49071" lon="6.72991">
        <ele>380.8</ele>
        <time>2014-10-12T11:02:07.000Z</time>
      </trkpt>
      <trkpt lat="47.49075" lon="6.7299">
        <ele>380.6</ele>
        <time>2014-10-12T11:02:09.000Z</time>
      </trkpt>
      <trkpt lat="47.49077" lon="6.72989">
        <ele>381.1</ele>
        <time>2014-10-12T11:02:10.000Z</time>
      </trkpt>
      <trkpt lat="47.4908" lon="6.72988">
        <ele>380.7</ele>
        <time>2014-10-12T11:02:12.000Z</time>
      </trkpt>
      <trkpt lat="47.49082" lon="6.72987">
        <ele>381</ele>
        <time>2014-10-12T11:02:13.000Z</time>
      </trkpt>
      <trkpt lat="47.49086" lon="6.72985">
        <ele>382.2</ele>
        <time>2014-10-12T11:02:15.000Z</time>
      </trkpt>
      <trkpt lat="47.49088" lon="6.72984">
        <ele>382.8</ele>
        <time>2014-10-12T11:02:16.000Z</time>
      </trkpt>
      <trkpt lat="47.49091" lon="6.72982">
        <ele>383.4</ele>
        <time>2014-10-12T11:02:18.000Z</time>
      </trkpt>
      <trkpt lat="47.49093" lon="6.72982">
        <ele>383.9</ele>
        <time>2014-10-12T11:02:19.000Z</time>
      </trkpt>
      <trkpt lat="47.49097" lon="6.72982">
        <ele>384.8</ele>
        <time>2014-10-12T11:02:21.000Z</time>
      </trkpt>
      <trkpt lat="47.49098" lon="6.72981">
        <ele>384.9</ele>
        <time>2014-10-12T11:02:22.000Z</time>
      </trkpt>
      <trkpt lat="47.49102" lon="6.7298">
        <ele>386.2</ele>
        <time>2014-10-12T11:02:24.000Z</time>
      </trkpt>
      <trkpt lat="47.49104" lon="6.72979">
        <ele>386.2</ele>
        <time>2014-10-12T11:02:25.000Z</time>
      </trkpt>
      <trkpt lat="47.49108" lon="6.7298">
        <ele>386.9</ele>
        <time>2014-10-12T11:02:27.000Z</time>
      </trkpt>
      <trkpt lat="47.49109" lon="6.72981">
        <ele>386.6</ele>
        <time>2014-10-12T11:02:28.000Z</time>
      </trkpt>
      <trkpt lat="47.49112" lon="6.72983">
        <ele>386</ele>
        <time>2014-10-12T11:02:30.000Z</time>
      </trkpt>
      <trkpt lat="47.49114" lon="6.72982">
        <ele>385.9</ele>
        <time>2014-10-12T11:02:31.000Z</time>
      </trkpt>
      <trkpt lat="47.49118" lon="6.72979">
        <ele>385.3</ele>
        <time>2014-10-12T11:02:33.000Z</time>
      </trkpt>
      <trkpt lat="47.49119" lon="6.72978">
        <ele>385.1</ele>
        <time>2014-10-12T11:02:34.000Z</time>
      </trkpt>
      <trkpt lat="47.49123" lon="6.72976">
        <ele>386.7</ele>
        <time>2014-10-12T11:02:36.000Z</time>
      </trkpt>
      <trkpt lat="47.49125" lon="6.72976">
        <ele>386.8</ele>
        <time>2014-10-12T11:02:37.000Z</time>
      </trkpt>
      <trkpt lat="47.49128" lon="6.72976">
        <ele>388.4</ele>
        <time>2014-10-12T11:02:39.000Z</time>
      </trkpt>
      <trkpt lat="47.4913" lon="6.72975">
        <ele>388.6</ele>
        <time>2014-10-12T11:02:40.000Z</time>
      </trkpt>
      <trkpt lat="47.49134" lon="6.72974">
        <ele>385.2</ele>
        <time>2014-10-12T11:02:42.000Z</time>
      </trkpt>
      <trkpt lat="47.49136" lon="6.72973">
        <ele>385.4</ele>
        <time>2014-10-12T11:02:43.000Z</time>
      </trkpt>
      <trkpt lat="47.49139" lon="6.72973">
        <ele>384.8</ele>
        <time>2014-10-12T11:02:45.000Z</time>
      </trkpt>
      <trkpt lat="47.49141" lon="6.72973">
        <ele>384.2</ele>
        <time>2014-10-12T11:02:46.000Z</time>
      </trkpt>
      <trkpt lat="47.49142" lon="6.72973">
        <ele>383.8</ele>
        <time>2014-10-12T11:02:47.000Z</time>
      </trkpt>
      <trkpt lat="47.49147" lon="6.72973">
        <ele>383.6</ele>
        <time>2014-10-12T11:02:50.000Z</time>
      </trkpt>
      <trkpt lat="47.4915" lon="6.72969">
        <ele>379.4</ele>
        <time>2014-10-12T11:02:54.000Z</time>
      </trkpt>
      <trkpt lat="47.49151" lon="6.72967">
        <ele>379.6</ele>
        <time>2014-10-12T11:02:55.000Z</time>
      </trkpt>
      <trkpt lat="47.49154" lon="6.72964">
        <ele>380.4</ele>
        <time>2014-10-12T11:02:59.000Z</time>
      </trkpt>
      <trkpt lat="47.49155" lon="6.72964">
        <ele>382.5</ele>
        <time>2014-10-12T11:03:00.000Z</time>
      </trkpt>
      <trkpt lat="47.49159" lon="6.72963">
        <ele>384.4</ele>
        <time>2014-10-12T11:03:03.000Z</time>
      </trkpt>
      <trkpt lat="47.4916" lon="6.72964">
        <ele>384.6</ele>
        <time>2014-10-12T11:03:04.000Z</time>
      </trkpt>
      <trkpt lat="47.49164" lon="6.72963">
        <ele>385.9</ele>
        <time>2014-10-12T11:03:07.000Z</time>
      </trkpt>
      <trkpt lat="47.49166" lon="6.72963">
        <ele>386</ele>
        <time>2014-10-12T11:03:08.000Z</time>
      </trkpt>
      <trkpt lat="47.4917" lon="6.72963">
        <ele>387.6</ele>
        <time>2014-10-12T11:03:12.000Z</time>
      </trkpt>
      <trkpt lat="47.4917" lon="6.72963">
        <ele>387.2</ele>
        <time>2014-10-12T11:03:13.000Z</time>
      </trkpt>
      <trkpt lat="47.49174" lon="6.7296">
        <ele>389.7</ele>
        <time>2014-10-12T11:03:18.000Z</time>
      </trkpt>
      <trkpt lat="47.49175" lon="6.7296">
        <ele>389</ele>
        <time>2014-10-12T11:03:19.000Z</time>
      </trkpt>
      <trkpt lat="47.49178" lon="6.72959">
        <ele>389.3</ele>
        <time>2014-10-12T11:03:22.000Z</time>
      </trkpt>
      <trkpt lat="47.49179" lon="6.72958">
        <ele>389.1</ele>
        <time>2014-10-12T11:03:23.000Z</time>
      </trkpt>
      <trkpt lat="47.49183" lon="6.72956">
        <ele>389.1</ele>
        <time>2014-10-12T11:03:27.000Z</time>
      </trkpt>
      <trkpt lat="47.49184" lon="6.72956">
        <ele>389</ele>
        <time>2014-10-12T11:03:28.000Z</time>
      </trkpt>
      <trkpt lat="47.49187" lon="6.7296">
        <ele>389.3</ele>
        <time>2014-10-12T11:04:31.000Z</time>
      </trkpt>
      <trkpt lat="47.49188" lon="6.7296">
        <ele>389.9</ele>
        <time>2014-10-12T11:04:32.000Z</time>
      </trkpt>
      <trkpt lat="47.4919" lon="6.72963">
        <ele>388.6</ele>
        <time>2014-10-12T11:04:38.000Z</time>
      </trkpt>
      <trkpt lat="47.4919" lon="6.72966">
        <ele>392.5</ele>
        <time>2014-10-12T11:04:39.000Z</time>
      </trkpt>
      <trkpt lat="47.4919" lon="6.72969">
        <ele>394.1</ele>
        <time>2014-10-12T11:04:40.000Z</time>
      </trkpt>
      <trkpt lat="47.49191" lon="6.72973">
        <ele>394.8</ele>
        <time>2014-10-12T11:04:41.000Z</time>
      </trkpt>
      <trkpt lat="47.49191" lon="6.72977">
        <ele>395.3</ele>
        <time>2014-10-12T11:04:42.000Z</time>
      </trkpt>
      <trkpt lat="47.49192" lon="6.72981">
        <ele>397.4</ele>
        <time>2014-10-12T11:04:43.000Z</time>
      </trkpt>
      <trkpt lat="47.49192" lon="6.72985">
        <ele>397.9</ele>
        <time>2014-10-12T11:04:44.000Z</time>
      </trkpt>
      <trkpt lat="47.49193" lon="6.72989">
        <ele>397.7</ele>
        <time>2014-10-12T11:04:45.000Z</time>
      </trkpt>
      <trkpt lat="47.49192" lon="6.72994">
        <ele>394.4</ele>
        <time>2014-10-12T11:04:47.000Z</time>
      </trkpt>
      <trkpt lat="47.49191" lon="6.73001">
        <ele>392.3</ele>
        <time>2014-10-12T11:04:50.000Z</time>
      </trkpt>
      <trkpt lat="47.49191" lon="6.73004">
        <ele>395.8</ele>
        <time>2014-10-12T11:04:51.000Z</time>
      </trkpt>
      <trkpt lat="47.49191" lon="6.73008">
        <ele>396.1</ele>
        <time>2014-10-12T11:04:52.000Z</time>
      </trkpt>
      <trkpt lat="47.49192" lon="6.73013">
        <ele>396.8</ele>
        <time>2014-10-12T11:04:53.000Z</time>
      </trkpt>
      <trkpt lat="47.49193" lon="6.73018">
        <ele>397.8</ele>
        <time>2014-10-12T11:04:54.000Z</time>
      </trkpt>
      <trkpt lat="47.49194" lon="6.73023">
        <ele>398.5</ele>
        <time>2014-10-12T11:04:55.000Z</time>
      </trkpt>
      <trkpt lat="47.49195" lon="6.73028">
        <ele>398.6</ele>
        <time>2014-10-12T11:04:56.000Z</time>
      </trkpt>
      <trkpt lat="47.49196" lon="6.73034">
        <ele>396.8</ele>
        <time>2014-10-12T11:04:57.000Z</time>
      </trkpt>
      <trkpt lat="47.49196" lon="6.7304">
        <ele>395.9</ele>
        <time>2014-10-12T11:04:58.000Z</time>
      </trkpt>
      <trkpt lat="47.49195" lon="6.73046">
        <ele>397.3</ele>
        <time>2014-10-12T11:04:59.000Z</time>
      </trkpt>
      <trkpt lat="47.49191" lon="6.73059">
        <ele>394.4</ele>
        <time>2014-10-12T11:05:00.000Z</time>
      </trkpt>
      <trkpt lat="47.49191" lon="6.73066">
        <ele>393.9</ele>
        <time>2014-10-12T11:05:01.000Z</time>
      </trkpt>
      <trkpt lat="47.4919" lon="6.73072">
        <ele>391.2</ele>
        <time>2014-10-12T11:05:02.000Z</time>
      </trkpt>
      <trkpt lat="47.49189" lon="6.73081">
        <ele>391.6</ele>
        <time>2014-10-12T11:05:03.000Z</time>
      </trkpt>
      <trkpt lat="47.49192" lon="6.7308">
        <ele>392.6</ele>
        <time>2014-10-12T11:05:04.000Z</time>
      </trkpt>
      <trkpt lat="47.49194" lon="6.73083">
        <ele>392.5</ele>
        <time>2014-10-12T11:05:05.000Z</time>
      </trkpt>
      <trkpt lat="47.49195" lon="6.73088">
        <ele>392.4</ele>
        <time>2014-10-12T11:05:07.000Z</time>
      </trkpt>
      <trkpt lat="47.49194" lon="6.73092">
        <ele>392.5</ele>
        <time>2014-10-12T11:05:08.000Z</time>
      </trkpt>
      <trkpt lat="47.49192" lon="6.73097">
        <ele>393.5</ele>
        <time>2014-10-12T11:05:09.000Z</time>
      </trkpt>
      <trkpt lat="47.49191" lon="6.731">
        <ele>392.5</ele>
        <time>2014-10-12T11:05:10.000Z</time>
      </trkpt>
      <trkpt lat="47.49189" lon="6.73103">
        <ele>390.8</ele>
        <time>2014-10-12T11:05:11.000Z</time>
      </trkpt>
      <trkpt lat="47.49179" lon="6.73124">
        <ele>390.4</ele>
        <time>2014-10-12T11:05:12.000Z</time>
      </trkpt>
      <trkpt lat="47.49174" lon="6.73134">
        <ele>390.2</ele>
        <time>2014-10-12T11:05:13.000Z</time>
      </trkpt>
      <trkpt lat="47.4917" lon="6.73142">
        <ele>388.9</ele>
        <time>2014-10-12T11:05:14.000Z</time>
      </trkpt>
      <trkpt lat="47.49164" lon="6.7315">
        <ele>387.8</ele>
        <time>2014-10-12T11:05:15.000Z</time>
      </trkpt>
      <trkpt lat="47.49156" lon="6.73162">
        <ele>386.3</ele>
        <time>2014-10-12T11:05:16.000Z</time>
      </trkpt>
      <trkpt lat="47.4915" lon="6.73175">
        <ele>386.4</ele>
        <time>2014-10-12T11:05:17.000Z</time>
      </trkpt>
      <trkpt lat="47.49145" lon="6.73188">
        <ele>386.5</ele>
        <time>2014-10-12T11:05:18.000Z</time>
      </trkpt>
      <trkpt lat="47.49141" lon="6.73202">
        <ele>387.2</ele>
        <time>2014-10-12T11:05:19.000Z</time>
      </trkpt>
      <trkpt lat="47.49139" lon="6.73218">
        <ele>388.4</ele>
        <time>2014-10-12T11:05:20.000Z</time>
      </trkpt>
      <trkpt lat="47.49136" lon="6.73231">
        <ele>387.6</ele>
        <time>2014-10-12T11:05:21.000Z</time>
      </trkpt>
      <trkpt lat="47.49135" lon="6.73242">
        <ele>386.5</ele>
        <time>2014-10-12T11:05:22.000Z</time>
      </trkpt>
      <trkpt lat="47.49133" lon="6.73254">
        <ele>386</ele>
        <time>2014-10-12T11:05:23.000Z</time>
      </trkpt>
      <trkpt lat="47.49132" lon="6.73267">
        <ele>385.6</ele>
        <time>2014-10-12T11:05:24.000Z</time>
      </trkpt>
      <trkpt lat="47.49126" lon="6.73285">
        <ele>385.4</ele>
        <time>2014-10-12T11:05:25.000Z</time>
      </trkpt>
      <trkpt lat="47.49124" lon="6.73299">
        <ele>384.7</ele>
        <time>2014-10-12T11:05:26.000Z</time>
      </trkpt>
      <trkpt lat="47.49122" lon="6.73304">
        <ele>382.1</ele>
        <time>2014-10-12T11:05:27.000Z</time>
      </trkpt>
      <trkpt lat="47.49118" lon="6.73315">
        <ele>382</ele>
        <time>2014-10-12T11:05:28.000Z</time>
      </trkpt>
      <trkpt lat="47.4911" lon="6.73326">
        <ele>385</ele>
        <time>2014-10-12T11:05:29.000Z</time>
      </trkpt>
      <trkpt lat="47.49104" lon="6.73334">
        <ele>383</ele>
        <time>2014-10-12T11:05:30.000Z</time>
      </trkpt>
      <trkpt lat="47.491" lon="6.7334">
        <ele>383.9</ele>
        <time>2014-10-12T11:05:31.000Z</time>
      </trkpt>
      <trkpt lat="47.49095" lon="6.73348">
        <ele>382.7</ele>
        <time>2014-10-12T11:05:32.000Z</time>
      </trkpt>
      <trkpt lat="47.4909" lon="6.73356">
        <ele>382.3</ele>
        <time>2014-10-12T11:05:33.000Z</time>
      </trkpt>
      <trkpt lat="47.49082" lon="6.73367">
        <ele>385.5</ele>
        <time>2014-10-12T11:05:34.000Z</time>
      </trkpt>
      <trkpt lat="47.49075" lon="6.73378">
        <ele>386.7</ele>
        <time>2014-10-12T11:05:35.000Z</time>
      </trkpt>
      <trkpt lat="47.4907" lon="6.7339">
        <ele>387.2</ele>
        <time>2014-10-12T11:05:36.000Z</time>
      </trkpt>
      <trkpt lat="47.49067" lon="6.73401">
        <ele>384.9</ele>
        <time>2014-10-12T11:05:37.000Z</time>
      </trkpt>
      <trkpt lat="47.49064" lon="6.73413">
        <ele>383.4</ele>
        <time>2014-10-12T11:05:38.000Z</time>
      </trkpt>
      <trkpt lat="47.49059" lon="6.73426">
        <ele>383.9</ele>
        <time>2014-10-12T11:05:39.000Z</time>
      </trkpt>
      <trkpt lat="47.49055" lon="6.73437">
        <ele>385.4</ele>
        <time>2014-10-12T11:05:40.000Z</time>
      </trkpt>
      <trkpt lat="47.49051" lon="6.73447">
        <ele>385.9</ele>
        <time>2014-10-12T11:05:41.000Z</time>
      </trkpt>
      <trkpt lat="47.49048" lon="6.73456">
        <ele>384.9</ele>
        <time>2014-10-12T11:05:42.000Z</time>
      </trkpt>
      <trkpt lat="47.49045" lon="6.73463">
        <ele>383.9</ele>
        <time>2014-10-12T11:05:43.000Z</time>
      </trkpt>
      <trkpt lat="47.49043" lon="6.7347">
        <ele>385.1</ele>
        <time>2014-10-12T11:05:44.000Z</time>
      </trkpt>
      <trkpt lat="47.49038" lon="6.73477">
        <ele>384.2</ele>
        <time>2014-10-12T11:05:45.000Z</time>
      </trkpt>
      <trkpt lat="47.49033" lon="6.73483">
        <ele>383.6</ele>
        <time>2014-10-12T11:05:46.000Z</time>
      </trkpt>
      <trkpt lat="47.49026" lon="6.73485">
        <ele>381.7</ele>
        <time>2014-10-12T11:05:47.000Z</time>
      </trkpt>
      <trkpt lat="47.49013" lon="6.73495">
        <ele>378.9</ele>
        <time>2014-10-12T11:05:50.000Z</time>
      </trkpt>
      <trkpt lat="47.49008" lon="6.73501">
        <ele>379.8</ele>
        <time>2014-10-12T11:05:51.000Z</time>
      </trkpt>
      <trkpt lat="47.49003" lon="6.73502">
        <ele>379.1</ele>
        <time>2014-10-12T11:05:52.000Z</time>
      </trkpt>
      <trkpt lat="47.48997" lon="6.73507">
        <ele>379.1</ele>
        <time>2014-10-12T11:05:53.000Z</time>
      </trkpt>
      <trkpt lat="47.48991" lon="6.7351">
        <ele>379</ele>
        <time>2014-10-12T11:05:54.000Z</time>
      </trkpt>
      <trkpt lat="47.48985" lon="6.73515">
        <ele>379.3</ele>
        <time>2014-10-12T11:05:55.000Z</time>
      </trkpt>
      <trkpt lat="47.48978" lon="6.73517">
        <ele>379.1</ele>
        <time>2014-10-12T11:05:56.000Z</time>
      </trkpt>
      <trkpt lat="47.48971" lon="6.73521">
        <ele>378.3</ele>
        <time>2014-10-12T11:05:57.000Z</time>
      </trkpt>
      <trkpt lat="47.48966" lon="6.73526">
        <ele>378.5</ele>
        <time>2014-10-12T11:05:58.000Z</time>
      </trkpt>
      <trkpt lat="47.48961" lon="6.73531">
        <ele>378.5</ele>
        <time>2014-10-12T11:05:59.000Z</time>
      </trkpt>
      <trkpt lat="47.48958" lon="6.73539">
        <ele>377</ele>
        <time>2014-10-12T11:06:00.000Z</time>
      </trkpt>
      <trkpt lat="47.48953" lon="6.73546">
        <ele>377.9</ele>
        <time>2014-10-12T11:06:01.000Z</time>
      </trkpt>
      <trkpt lat="47.48947" lon="6.7355">
        <ele>377.3</ele>
        <time>2014-10-12T11:06:02.000Z</time>
      </trkpt>
      <trkpt lat="47.48944" lon="6.73555">
        <ele>376.2</ele>
        <time>2014-10-12T11:06:03.000Z</time>
      </trkpt>
      <trkpt lat="47.48939" lon="6.73558">
        <ele>375.1</ele>
        <time>2014-10-12T11:06:04.000Z</time>
      </trkpt>
      <trkpt lat="47.48935" lon="6.73565">
        <ele>376.2</ele>
        <time>2014-10-12T11:06:05.000Z</time>
      </trkpt>
      <trkpt lat="47.48931" lon="6.7357">
        <ele>377.1</ele>
        <time>2014-10-12T11:06:06.000Z</time>
      </trkpt>
      <trkpt lat="47.48926" lon="6.73574">
        <ele>376.8</ele>
        <time>2014-10-12T11:06:07.000Z</time>
      </trkpt>
      <trkpt lat="47.48921" lon="6.73579">
        <ele>376.2</ele>
        <time>2014-10-12T11:06:08.000Z</time>
      </trkpt>
      <trkpt lat="47.48917" lon="6.73585">
        <ele>374.9</ele>
        <time>2014-10-12T11:06:09.000Z</time>
      </trkpt>
      <trkpt lat="47.48913" lon="6.73591">
        <ele>374.7</ele>
        <time>2014-10-12T11:06:10.000Z</time>
      </trkpt>
      <trkpt lat="47.48908" lon="6.73597">
        <ele>374.7</ele>
        <time>2014-10-12T11:06:11.000Z</time>
      </trkpt>
      <trkpt lat="47.48902" lon="6.736">
        <ele>374.9</ele>
        <time>2014-10-12T11:06:12.000Z</time>
      </trkpt>
      <trkpt lat="47.48897" lon="6.73603">
        <ele>374.5</ele>
        <time>2014-10-12T11:06:13.000Z</time>
      </trkpt>
      <trkpt lat="47.48894" lon="6.73606">
        <ele>374.4</ele>
        <time>2014-10-12T11:06:14.000Z</time>
      </trkpt>
      <trkpt lat="47.48892" lon="6.7361">
        <ele>374.7</ele>
        <time>2014-10-12T11:06:15.000Z</time>
      </trkpt>
      <trkpt lat="47.48889" lon="6.73615">
        <ele>374.5</ele>
        <time>2014-10-12T11:06:17.000Z</time>
      </trkpt>
      <trkpt lat="47.48891" lon="6.73617">
        <ele>375.3</ele>
        <time>2014-10-12T11:06:18.000Z</time>
      </trkpt>
      <trkpt lat="47.48893" lon="6.73621">
        <ele>375.2</ele>
        <time>2014-10-12T11:06:19.000Z</time>
      </trkpt>
      <trkpt lat="47.48899" lon="6.73622">
        <ele>376.5</ele>
        <time>2014-10-12T11:06:20.000Z</time>
      </trkpt>
      <trkpt lat="47.48902" lon="6.73624">
        <ele>373.9</ele>
        <time>2014-10-12T11:06:22.000Z</time>
      </trkpt>
      <trkpt lat="47.48906" lon="6.73626">
        <ele>373.1</ele>
        <time>2014-10-12T11:06:23.000Z</time>
      </trkpt>
      <trkpt lat="47.48909" lon="6.73627">
        <ele>371.6</ele>
        <time>2014-10-12T11:06:24.000Z</time>
      </trkpt>
      <trkpt lat="47.48914" lon="6.7363">
        <ele>373</ele>
        <time>2014-10-12T11:06:25.000Z</time>
      </trkpt>
      <trkpt lat="47.48918" lon="6.73631">
        <ele>372</ele>
        <time>2014-10-12T11:06:26.000Z</time>
      </trkpt>
      <trkpt lat="47.48922" lon="6.73633">
        <ele>371.5</ele>
        <time>2014-10-12T11:06:27.000Z</time>
      </trkpt>
      <trkpt lat="47.48928" lon="6.73635">
        <ele>371.5</ele>
        <time>2014-10-12T11:06:28.000Z</time>
      </trkpt>
      <trkpt lat="47.48934" lon="6.73637">
        <ele>371.3</ele>
        <time>2014-10-12T11:06:29.000Z</time>
      </trkpt>
      <trkpt lat="47.48939" lon="6.73638">
        <ele>372.6</ele>
        <time>2014-10-12T11:06:30.000Z</time>
      </trkpt>
      <trkpt lat="47.48943" lon="6.7364">
        <ele>372.7</ele>
        <time>2014-10-12T11:06:31.000Z</time>
      </trkpt>
      <trkpt lat="47.48948" lon="6.73641">
        <ele>373.3</ele>
        <time>2014-10-12T11:06:32.000Z</time>
      </trkpt>
      <trkpt lat="47.48951" lon="6.73644">
        <ele>372.9</ele>
        <time>2014-10-12T11:06:34.000Z</time>
      </trkpt>
      <trkpt lat="47.48952" lon="6.73645">
        <ele>372.5</ele>
        <time>2014-10-12T11:06:35.000Z</time>
      </trkpt>
      <trkpt lat="47.48954" lon="6.73646">
        <ele>372.9</ele>
        <time>2014-10-12T11:06:36.000Z</time>
      </trkpt>
      <trkpt lat="47.48957" lon="6.73647">
        <ele>372.6</ele>
        <time>2014-10-12T11:06:37.000Z</time>
      </trkpt>
      <trkpt lat="47.48959" lon="6.73649">
        <ele>372.3</ele>
        <time>2014-10-12T11:06:38.000Z</time>
      </trkpt>
      <trkpt lat="47.48963" lon="6.73649">
        <ele>372.5</ele>
        <time>2014-10-12T11:06:39.000Z</time>
      </trkpt>
      <trkpt lat="47.48967" lon="6.73651">
        <ele>372.6</ele>
        <time>2014-10-12T11:06:41.000Z</time>
      </trkpt>
      <trkpt lat="47.48969" lon="6.73652">
        <ele>371.9</ele>
        <time>2014-10-12T11:06:42.000Z</time>
      </trkpt>
      <trkpt lat="47.48971" lon="6.73653">
        <ele>371.6</ele>
        <time>2014-10-12T11:06:43.000Z</time>
      </trkpt>
      <trkpt lat="47.48974" lon="6.73655">
        <ele>370.6</ele>
        <time>2014-10-12T11:06:44.000Z</time>
      </trkpt>
      <trkpt lat="47.48977" lon="6.73657">
        <ele>369.6</ele>
        <time>2014-10-12T11:06:45.000Z</time>
      </trkpt>
      <trkpt lat="47.48981" lon="6.73658">
        <ele>367.5</ele>
        <time>2014-10-12T11:06:46.000Z</time>
      </trkpt>
      <trkpt lat="47.48985" lon="6.73659">
        <ele>365.4</ele>
        <time>2014-10-12T11:06:47.000Z</time>
      </trkpt>
      <trkpt lat="47.48993" lon="6.73661">
        <ele>362.6</ele>
        <time>2014-10-12T11:06:50.000Z</time>
      </trkpt>
      <trkpt lat="47.48997" lon="6.73662">
        <ele>362.6</ele>
        <time>2014-10-12T11:06:51.000Z</time>
      </trkpt>
      <trkpt lat="47.49002" lon="6.73663">
        <ele>362.1</ele>
        <time>2014-10-12T11:06:52.000Z</time>
      </trkpt>
      <trkpt lat="47.49008" lon="6.73664">
        <ele>362.3</ele>
        <time>2014-10-12T11:06:53.000Z</time>
      </trkpt>
      <trkpt lat="47.49013" lon="6.73665">
        <ele>362.9</ele>
        <time>2014-10-12T11:06:54.000Z</time>
      </trkpt>
      <trkpt lat="47.49019" lon="6.73667">
        <ele>363.6</ele>
        <time>2014-10-12T11:06:55.000Z</time>
      </trkpt>
      <trkpt lat="47.49025" lon="6.73669">
        <ele>363.1</ele>
        <time>2014-10-12T11:06:56.000Z</time>
      </trkpt>
      <trkpt lat="47.49031" lon="6.73672">
        <ele>361.7</ele>
        <time>2014-10-12T11:06:57.000Z</time>
      </trkpt>
      <trkpt lat="47.49049" lon="6.73682">
        <ele>360.6</ele>
        <time>2014-10-12T11:06:58.000Z</time>
      </trkpt>
      <trkpt lat="47.49056" lon="6.73686">
        <ele>360</ele>
        <time>2014-10-12T11:06:59.000Z</time>
      </trkpt>
      <trkpt lat="47.49062" lon="6.73692">
        <ele>356.8</ele>
        <time>2014-10-12T11:07:00.000Z</time>
      </trkpt>
      <trkpt lat="47.49069" lon="6.73696">
        <ele>354.7</ele>
        <time>2014-10-12T11:07:01.000Z</time>
      </trkpt>
      <trkpt lat="47.49077" lon="6.73701">
        <ele>355.2</ele>
        <time>2014-10-12T11:07:02.000Z</time>
      </trkpt>
      <trkpt lat="47.49085" lon="6.73706">
        <ele>353.7</ele>
        <time>2014-10-12T11:07:03.000Z</time>
      </trkpt>
      <trkpt lat="47.49092" lon="6.73711">
        <ele>352</ele>
        <time>2014-10-12T11:07:04.000Z</time>
      </trkpt>
      <trkpt lat="47.491" lon="6.73714">
        <ele>350.2</ele>
        <time>2014-10-12T11:07:05.000Z</time>
      </trkpt>
      <trkpt lat="47.49111" lon="6.73719">
        <ele>348.5</ele>
        <time>2014-10-12T11:07:06.000Z</time>
      </trkpt>
      <trkpt lat="47.49122" lon="6.73721">
        <ele>348.8</ele>
        <time>2014-10-12T11:07:07.000Z</time>
      </trkpt>
      <trkpt lat="47.49132" lon="6.73723">
        <ele>348.1</ele>
        <time>2014-10-12T11:07:08.000Z</time>
      </trkpt>
      <trkpt lat="47.49141" lon="6.73724">
        <ele>348.1</ele>
        <time>2014-10-12T11:07:09.000Z</time>
      </trkpt>
      <trkpt lat="47.49151" lon="6.73724">
        <ele>348.9</ele>
        <time>2014-10-12T11:07:10.000Z</time>
      </trkpt>
      <trkpt lat="47.49159" lon="6.73733">
        <ele>349.2</ele>
        <time>2014-10-12T11:07:11.000Z</time>
      </trkpt>
      <trkpt lat="47.49167" lon="6.73735">
        <ele>348.9</ele>
        <time>2014-10-12T11:07:12.000Z</time>
      </trkpt>
      <trkpt lat="47.49174" lon="6.73737">
        <ele>349.1</ele>
        <time>2014-10-12T11:07:13.000Z</time>
      </trkpt>
      <trkpt lat="47.49178" lon="6.73738">
        <ele>347.9</ele>
        <time>2014-10-12T11:07:14.000Z</time>
      </trkpt>
      <trkpt lat="47.49185" lon="6.73741">
        <ele>347.1</ele>
        <time>2014-10-12T11:07:15.000Z</time>
      </trkpt>
      <trkpt lat="47.49191" lon="6.73741">
        <ele>347.5</ele>
        <time>2014-10-12T11:07:16.000Z</time>
      </trkpt>
      <trkpt lat="47.49196" lon="6.73742">
        <ele>346.5</ele>
        <time>2014-10-12T11:07:17.000Z</time>
      </trkpt>
      <trkpt lat="47.49203" lon="6.73746">
        <ele>348.2</ele>
        <time>2014-10-12T11:07:18.000Z</time>
      </trkpt>
      <trkpt lat="47.4921" lon="6.73751">
        <ele>347.5</ele>
        <time>2014-10-12T11:07:19.000Z</time>
      </trkpt>
      <trkpt lat="47.49217" lon="6.73756">
        <ele>347.5</ele>
        <time>2014-10-12T11:07:20.000Z</time>
      </trkpt>
      <trkpt lat="47.49221" lon="6.73757">
        <ele>345.8</ele>
        <time>2014-10-12T11:07:21.000Z</time>
      </trkpt>
      <trkpt lat="47.49225" lon="6.73761">
        <ele>343.9</ele>
        <time>2014-10-12T11:07:22.000Z</time>
      </trkpt>
      <trkpt lat="47.49231" lon="6.73763">
        <ele>343.7</ele>
        <time>2014-10-12T11:07:23.000Z</time>
      </trkpt>
      <trkpt lat="47.49236" lon="6.73764">
        <ele>344</ele>
        <time>2014-10-12T11:07:24.000Z</time>
      </trkpt>
      <trkpt lat="47.49239" lon="6.73768">
        <ele>343.1</ele>
        <time>2014-10-12T11:07:25.000Z</time>
      </trkpt>
      <trkpt lat="47.49243" lon="6.73772">
        <ele>342.3</ele>
        <time>2014-10-12T11:07:26.000Z</time>
      </trkpt>
      <trkpt lat="47.49248" lon="6.7377">
        <ele>342.2</ele>
        <time>2014-10-12T11:07:27.000Z</time>
      </trkpt>
      <trkpt lat="47.49253" lon="6.73774">
        <ele>343.5</ele>
        <time>2014-10-12T11:07:28.000Z</time>
      </trkpt>
      <trkpt lat="47.49257" lon="6.73777">
        <ele>343.2</ele>
        <time>2014-10-12T11:07:29.000Z</time>
      </trkpt>
      <trkpt lat="47.49261" lon="6.73781">
        <ele>343.5</ele>
        <time>2014-10-12T11:07:30.000Z</time>
      </trkpt>
      <trkpt lat="47.49266" lon="6.73782">
        <ele>343.6</ele>
        <time>2014-10-12T11:07:31.000Z</time>
      </trkpt>
      <trkpt lat="47.49271" lon="6.73786">
        <ele>344.1</ele>
        <time>2014-10-12T11:07:32.000Z</time>
      </trkpt>
      <trkpt lat="47.49276" lon="6.73789">
        <ele>344.9</ele>
        <time>2014-10-12T11:07:33.000Z</time>
      </trkpt>
      <trkpt lat="47.4928" lon="6.7379">
        <ele>346.2</ele>
        <time>2014-10-12T11:07:34.000Z</time>
      </trkpt>
      <trkpt lat="47.49284" lon="6.73792">
        <ele>346.3</ele>
        <time>2014-10-12T11:07:35.000Z</time>
      </trkpt>
      <trkpt lat="47.49288" lon="6.73794">
        <ele>344.5</ele>
        <time>2014-10-12T11:07:36.000Z</time>
      </trkpt>
      <trkpt lat="47.49292" lon="6.73796">
        <ele>344.5</ele>
        <time>2014-10-12T11:07:37.000Z</time>
      </trkpt>
      <trkpt lat="47.49296" lon="6.73798">
        <ele>343.8</ele>
        <time>2014-10-12T11:07:38.000Z</time>
      </trkpt>
      <trkpt lat="47.493" lon="6.73801">
        <ele>344</ele>
        <time>2014-10-12T11:07:39.000Z</time>
      </trkpt>
      <trkpt lat="47.49308" lon="6.73806">
        <ele>343.2</ele>
        <time>2014-10-12T11:07:40.000Z</time>
      </trkpt>
      <trkpt lat="47.49312" lon="6.73809">
        <ele>342.7</ele>
        <time>2014-10-12T11:07:41.000Z</time>
      </trkpt>
      <trkpt lat="47.4931" lon="6.73818">
        <ele>340.2</ele>
        <time>2014-10-12T11:07:42.000Z</time>
      </trkpt>
      <trkpt lat="47.49314" lon="6.73823">
        <ele>340.2</ele>
        <time>2014-10-12T11:07:43.000Z</time>
      </trkpt>
      <trkpt lat="47.49319" lon="6.73827">
        <ele>339.4</ele>
        <time>2014-10-12T11:07:44.000Z</time>
      </trkpt>
      <trkpt lat="47.49322" lon="6.73831">
        <ele>340.4</ele>
        <time>2014-10-12T11:07:45.000Z</time>
      </trkpt>
      <trkpt lat="47.49325" lon="6.73837">
        <ele>340.9</ele>
        <time>2014-10-12T11:07:46.000Z</time>
      </trkpt>
      <trkpt lat="47.49328" lon="6.73845">
        <ele>340.9</ele>
        <time>2014-10-12T11:07:47.000Z</time>
      </trkpt>
      <trkpt lat="47.49334" lon="6.7386">
        <ele>337</ele>
        <time>2014-10-12T11:07:50.000Z</time>
      </trkpt>
      <trkpt lat="47.49336" lon="6.73864">
        <ele>336.2</ele>
        <time>2014-10-12T11:07:51.000Z</time>
      </trkpt>
      <trkpt lat="47.49337" lon="6.73866">
        <ele>331.1</ele>
        <time>2014-10-12T11:07:52.000Z</time>
      </trkpt>
      <trkpt lat="47.49337" lon="6.73872">
        <ele>331.3</ele>
        <time>2014-10-12T11:07:58.000Z</time>
      </trkpt>
      <trkpt lat="47.49338" lon="6.73873">
        <ele>331</ele>
        <time>2014-10-12T11:07:59.000Z</time>
      </trkpt>
      <trkpt lat="47.49339" lon="6.73876">
        <ele>331.6</ele>
        <time>2014-10-12T11:08:01.000Z</time>
      </trkpt>
      <trkpt lat="47.49341" lon="6.73878">
        <ele>330.9</ele>
        <time>2014-10-12T11:08:02.000Z</time>
      </trkpt>
      <trkpt lat="47.49343" lon="6.73882">
        <ele>333.3</ele>
        <time>2014-10-12T11:08:04.000Z</time>
      </trkpt>
      <trkpt lat="47.49345" lon="6.73884">
        <ele>333.1</ele>
        <time>2014-10-12T11:08:05.000Z</time>
      </trkpt>
      <trkpt lat="47.49346" lon="6.73887">
        <ele>333.3</ele>
        <time>2014-10-12T11:08:06.000Z</time>
      </trkpt>
      <trkpt lat="47.49348" lon="6.7389">
        <ele>334.7</ele>
        <time>2014-10-12T11:08:07.000Z</time>
      </trkpt>
      <trkpt lat="47.49351" lon="6.73893">
        <ele>335.9</ele>
        <time>2014-10-12T11:08:08.000Z</time>
      </trkpt>
      <trkpt lat="47.49353" lon="6.73896">
        <ele>335.4</ele>
        <time>2014-10-12T11:08:09.000Z</time>
      </trkpt>
      <trkpt lat="47.49355" lon="6.739">
        <ele>331.7</ele>
        <time>2014-10-12T11:08:10.000Z</time>
      </trkpt>
      <trkpt lat="47.49357" lon="6.73903">
        <ele>330</ele>
        <time>2014-10-12T11:08:11.000Z</time>
      </trkpt>
      <trkpt lat="47.4936" lon="6.73908">
        <ele>326.4</ele>
        <time>2014-10-12T11:08:13.000Z</time>
      </trkpt>
      <trkpt lat="47.4936" lon="6.73911">
        <ele>325.8</ele>
        <time>2014-10-12T11:08:14.000Z</time>
      </trkpt>
      <trkpt lat="47.4936" lon="6.73917">
        <ele>325.6</ele>
        <time>2014-10-12T11:08:17.000Z</time>
      </trkpt>
      <trkpt lat="47.4936" lon="6.73919">
        <ele>324.9</ele>
        <time>2014-10-12T11:08:18.000Z</time>
      </trkpt>
      <trkpt lat="47.49362" lon="6.73925">
        <ele>324.7</ele>
        <time>2014-10-12T11:08:20.000Z</time>
      </trkpt>
      <trkpt lat="47.49363" lon="6.73928">
        <ele>325.8</ele>
        <time>2014-10-12T11:08:21.000Z</time>
      </trkpt>
      <trkpt lat="47.49365" lon="6.73932">
        <ele>326</ele>
        <time>2014-10-12T11:08:22.000Z</time>
      </trkpt>
      <trkpt lat="47.49368" lon="6.73936">
        <ele>329.4</ele>
        <time>2014-10-12T11:08:23.000Z</time>
      </trkpt>
      <trkpt lat="47.4937" lon="6.73942">
        <ele>332.8</ele>
        <time>2014-10-12T11:08:24.000Z</time>
      </trkpt>
      <trkpt lat="47.49372" lon="6.73946">
        <ele>331.1</ele>
        <time>2014-10-12T11:08:25.000Z</time>
      </trkpt>
      <trkpt lat="47.49372" lon="6.7395">
        <ele>331.6</ele>
        <time>2014-10-12T11:08:26.000Z</time>
      </trkpt>
      <trkpt lat="47.49372" lon="6.73955">
        <ele>331.6</ele>
        <time>2014-10-12T11:08:28.000Z</time>
      </trkpt>
      <trkpt lat="47.49373" lon="6.73957">
        <ele>330.6</ele>
        <time>2014-10-12T11:08:29.000Z</time>
      </trkpt>
      <trkpt lat="47.49374" lon="6.7396">
        <ele>337.2</ele>
        <time>2014-10-12T11:08:30.000Z</time>
      </trkpt>
      <trkpt lat="47.49375" lon="6.73963">
        <ele>335.9</ele>
        <time>2014-10-12T11:08:31.000Z</time>
      </trkpt>
      <trkpt lat="47.49377" lon="6.73968">
        <ele>336.2</ele>
        <time>2014-10-12T11:08:32.000Z</time>
      </trkpt>
      <trkpt lat="47.4938" lon="6.73973">
        <ele>336.7</ele>
        <time>2014-10-12T11:08:33.000Z</time>
      </trkpt>
      <trkpt lat="47.49383" lon="6.73979">
        <ele>335.9</ele>
        <time>2014-10-12T11:08:34.000Z</time>
      </trkpt>
      <trkpt lat="47.49384" lon="6.73985">
        <ele>332.3</ele>
        <time>2014-10-12T11:08:35.000Z</time>
      </trkpt>
      <trkpt lat="47.49385" lon="6.73991">
        <ele>329.6</ele>
        <time>2014-10-12T11:08:36.000Z</time>
      </trkpt>
      <trkpt lat="47.49385" lon="6.73996">
        <ele>330.4</ele>
        <time>2014-10-12T11:08:37.000Z</time>
      </trkpt>
      <trkpt lat="47.49385" lon="6.74001">
        <ele>330.5</ele>
        <time>2014-10-12T11:08:38.000Z</time>
      </trkpt>
      <trkpt lat="47.49385" lon="6.74006">
        <ele>330.4</ele>
        <time>2014-10-12T11:08:39.000Z</time>
      </trkpt>
      <trkpt lat="47.49384" lon="6.7401">
        <ele>330.7</ele>
        <time>2014-10-12T11:08:40.000Z</time>
      </trkpt>
      <trkpt lat="47.49384" lon="6.74013">
        <ele>331.2</ele>
        <time>2014-10-12T11:08:41.000Z</time>
      </trkpt>
      <trkpt lat="47.49383" lon="6.74018">
        <ele>328</ele>
        <time>2014-10-12T11:08:42.000Z</time>
      </trkpt>
      <trkpt lat="47.49383" lon="6.74023">
        <ele>327.7</ele>
        <time>2014-10-12T11:08:43.000Z</time>
      </trkpt>
      <trkpt lat="47.49382" lon="6.74027">
        <ele>322.2</ele>
        <time>2014-10-12T11:08:44.000Z</time>
      </trkpt>
      <trkpt lat="47.49381" lon="6.74031">
        <ele>320.9</ele>
        <time>2014-10-12T11:08:45.000Z</time>
      </trkpt>
      <trkpt lat="47.49381" lon="6.74036">
        <ele>319.8</ele>
        <time>2014-10-12T11:08:46.000Z</time>
      </trkpt>
      <trkpt lat="47.49381" lon="6.74041">
        <ele>320.9</ele>
        <time>2014-10-12T11:08:47.000Z</time>
      </trkpt>
      <trkpt lat="47.4938" lon="6.74056">
        <ele>317.3</ele>
        <time>2014-10-12T11:08:51.000Z</time>
      </trkpt>
      <trkpt lat="47.49379" lon="6.7406">
        <ele>316.5</ele>
        <time>2014-10-12T11:08:52.000Z</time>
      </trkpt>
      <trkpt lat="47.49379" lon="6.74064">
        <ele>314.1</ele>
        <time>2014-10-12T11:08:53.000Z</time>
      </trkpt>
      <trkpt lat="47.49379" lon="6.74068">
        <ele>313.8</ele>
        <time>2014-10-12T11:08:54.000Z</time>
      </trkpt>
      <trkpt lat="47.49379" lon="6.74071">
        <ele>313.2</ele>
        <time>2014-10-12T11:08:55.000Z</time>
      </trkpt>
      <trkpt lat="47.49379" lon="6.74075">
        <ele>314.7</ele>
        <time>2014-10-12T11:08:56.000Z</time>
      </trkpt>
      <trkpt lat="47.49379" lon="6.7408">
        <ele>315.3</ele>
        <time>2014-10-12T11:08:57.000Z</time>
      </trkpt>
      <trkpt lat="47.49379" lon="6.74084">
        <ele>317.9</ele>
        <time>2014-10-12T11:08:58.000Z</time>
      </trkpt>
      <trkpt lat="47.4938" lon="6.74088">
        <ele>318.3</ele>
        <time>2014-10-12T11:08:59.000Z</time>
      </trkpt>
      <trkpt lat="47.4938" lon="6.74092">
        <ele>321.1</ele>
        <time>2014-10-12T11:09:00.000Z</time>
      </trkpt>
      <trkpt lat="47.4938" lon="6.74095">
        <ele>321.8</ele>
        <time>2014-10-12T11:09:01.000Z</time>
      </trkpt>
      <trkpt lat="47.4938" lon="6.741">
        <ele>324.9</ele>
        <time>2014-10-12T11:09:02.000Z</time>
      </trkpt>
      <trkpt lat="47.49381" lon="6.74104">
        <ele>328</ele>
        <time>2014-10-12T11:09:03.000Z</time>
      </trkpt>
      <trkpt lat="47.4938" lon="6.74108">
        <ele>325.1</ele>
        <time>2014-10-12T11:09:04.000Z</time>
      </trkpt>
      <trkpt lat="47.4938" lon="6.74112">
        <ele>324.5</ele>
        <time>2014-10-12T11:09:05.000Z</time>
      </trkpt>
      <trkpt lat="47.49379" lon="6.74116">
        <ele>325.7</ele>
        <time>2014-10-12T11:09:06.000Z</time>
      </trkpt>
      <trkpt lat="47.49378" lon="6.7412">
        <ele>327.5</ele>
        <time>2014-10-12T11:09:07.000Z</time>
      </trkpt>
      <trkpt lat="47.49377" lon="6.74125">
        <ele>329.4</ele>
        <time>2014-10-12T11:09:08.000Z</time>
      </trkpt>
      <trkpt lat="47.49377" lon="6.74128">
        <ele>331</ele>
        <time>2014-10-12T11:09:09.000Z</time>
      </trkpt>
      <trkpt lat="47.49377" lon="6.74132">
        <ele>331.1</ele>
        <time>2014-10-12T11:09:10.000Z</time>
      </trkpt>
      <trkpt lat="47.49375" lon="6.74135">
        <ele>329.3</ele>
        <time>2014-10-12T11:09:11.000Z</time>
      </trkpt>
      <trkpt lat="47.49373" lon="6.7414">
        <ele>330.5</ele>
        <time>2014-10-12T11:09:13.000Z</time>
      </trkpt>
      <trkpt lat="47.49373" lon="6.74143">
        <ele>330.4</ele>
        <time>2014-10-12T11:09:14.000Z</time>
      </trkpt>
      <trkpt lat="47.49372" lon="6.74148">
        <ele>332.1</ele>
        <time>2014-10-12T11:09:16.000Z</time>
      </trkpt>
      <trkpt lat="47.49372" lon="6.74152">
        <ele>333.1</ele>
        <time>2014-10-12T11:09:17.000Z</time>
      </trkpt>
      <trkpt lat="47.49372" lon="6.74155">
        <ele>334.8</ele>
        <time>2014-10-12T11:09:18.000Z</time>
      </trkpt>
      <trkpt lat="47.49372" lon="6.74158">
        <ele>333.3</ele>
        <time>2014-10-12T11:09:19.000Z</time>
      </trkpt>
      <trkpt lat="47.49372" lon="6.74162">
        <ele>334</ele>
        <time>2014-10-12T11:09:20.000Z</time>
      </trkpt>
      <trkpt lat="47.49372" lon="6.74166">
        <ele>336</ele>
        <time>2014-10-12T11:09:21.000Z</time>
      </trkpt>
      <trkpt lat="47.49371" lon="6.74172">
        <ele>338.2</ele>
        <time>2014-10-12T11:09:23.000Z</time>
      </trkpt>
      <trkpt lat="47.49371" lon="6.74175">
        <ele>338.7</ele>
        <time>2014-10-12T11:09:24.000Z</time>
      </trkpt>
      <trkpt lat="47.4937" lon="6.74179">
        <ele>338.1</ele>
        <time>2014-10-12T11:09:26.000Z</time>
      </trkpt>
      <trkpt lat="47.4937" lon="6.74182">
        <ele>336.9</ele>
        <time>2014-10-12T11:09:27.000Z</time>
      </trkpt>
      <trkpt lat="47.49371" lon="6.74186">
        <ele>335.3</ele>
        <time>2014-10-12T11:09:29.000Z</time>
      </trkpt>
      <trkpt lat="47.49371" lon="6.74189">
        <ele>334.9</ele>
        <time>2014-10-12T11:09:30.000Z</time>
      </trkpt>
      <trkpt lat="47.4937" lon="6.74193">
        <ele>336.4</ele>
        <time>2014-10-12T11:09:32.000Z</time>
      </trkpt>
      <trkpt lat="47.4937" lon="6.74196">
        <ele>339.6</ele>
        <time>2014-10-12T11:09:33.000Z</time>
      </trkpt>
      <trkpt lat="47.4937" lon="6.74202">
        <ele>335.9</ele>
        <time>2014-10-12T11:09:35.000Z</time>
      </trkpt>
      <trkpt lat="47.4937" lon="6.74205">
        <ele>333.2</ele>
        <time>2014-10-12T11:09:36.000Z</time>
      </trkpt>
      <trkpt lat="47.4937" lon="6.74209">
        <ele>331.7</ele>
        <time>2014-10-12T11:09:37.000Z</time>
      </trkpt>
      <trkpt lat="47.49369" lon="6.74212">
        <ele>333.5</ele>
        <time>2014-10-12T11:09:38.000Z</time>
      </trkpt>
      <trkpt lat="47.49368" lon="6.74216">
        <ele>334</ele>
        <time>2014-10-12T11:09:39.000Z</time>
      </trkpt>
      <trkpt lat="47.49368" lon="6.7422">
        <ele>334.2</ele>
        <time>2014-10-12T11:09:40.000Z</time>
      </trkpt>
      <trkpt lat="47.49367" lon="6.74225">
        <ele>337.8</ele>
        <time>2014-10-12T11:09:42.000Z</time>
      </trkpt>
      <trkpt lat="47.49367" lon="6.74228">
        <ele>337.7</ele>
        <time>2014-10-12T11:09:43.000Z</time>
      </trkpt>
      <trkpt lat="47.49367" lon="6.74234">
        <ele>337.6</ele>
        <time>2014-10-12T11:09:45.999Z</time>
      </trkpt>
      <trkpt lat="47.49367" lon="6.74239">
        <ele>340.5</ele>
        <time>2014-10-12T11:09:47.000Z</time>
      </trkpt>
      <trkpt lat="47.49369" lon="6.74259">
        <ele>345.7</ele>
        <time>2014-10-12T11:09:51.000Z</time>
      </trkpt>
      <trkpt lat="47.49369" lon="6.74265">
        <ele>345.9</ele>
        <time>2014-10-12T11:09:52.000Z</time>
      </trkpt>
      <trkpt lat="47.49369" lon="6.7427">
        <ele>346.6</ele>
        <time>2014-10-12T11:09:53.000Z</time>
      </trkpt>
      <trkpt lat="47.49369" lon="6.74274">
        <ele>348</ele>
        <time>2014-10-12T11:09:54.000Z</time>
      </trkpt>
      <trkpt lat="47.49369" lon="6.74279">
        <ele>349</ele>
        <time>2014-10-12T11:09:55.000Z</time>
      </trkpt>
      <trkpt lat="47.49369" lon="6.74283">
        <ele>349.4</ele>
        <time>2014-10-12T11:09:56.000Z</time>
      </trkpt>
      <trkpt lat="47.49368" lon="6.74286">
        <ele>348.6</ele>
        <time>2014-10-12T11:09:57.000Z</time>
      </trkpt>
      <trkpt lat="47.49367" lon="6.74292">
        <ele>348.5</ele>
        <time>2014-10-12T11:09:59.000Z</time>
      </trkpt>
      <trkpt lat="47.49367" lon="6.74295">
        <ele>346.8</ele>
        <time>2014-10-12T11:10:00.000Z</time>
      </trkpt>
      <trkpt lat="47.49366" lon="6.743">
        <ele>345.8</ele>
        <time>2014-10-12T11:10:02.000Z</time>
      </trkpt>
      <trkpt lat="47.49365" lon="6.74303">
        <ele>343.8</ele>
        <time>2014-10-12T11:10:03.000Z</time>
      </trkpt>
      <trkpt lat="47.49364" lon="6.74307">
        <ele>344.4</ele>
        <time>2014-10-12T11:10:04.000Z</time>
      </trkpt>
      <trkpt lat="47.49363" lon="6.7431">
        <ele>343.7</ele>
        <time>2014-10-12T11:10:05.000Z</time>
      </trkpt>
      <trkpt lat="47.49362" lon="6.74314">
        <ele>344</ele>
        <time>2014-10-12T11:10:06.000Z</time>
      </trkpt>
      <trkpt lat="47.49362" lon="6.74317">
        <ele>347</ele>
        <time>2014-10-12T11:10:07.000Z</time>
      </trkpt>
      <trkpt lat="47.49361" lon="6.74321">
        <ele>348.2</ele>
        <time>2014-10-12T11:10:08.000Z</time>
      </trkpt>
      <trkpt lat="47.49361" lon="6.74324">
        <ele>348.4</ele>
        <time>2014-10-12T11:10:09.000Z</time>
      </trkpt>
      <trkpt lat="47.4936" lon="6.74331">
        <ele>349</ele>
        <time>2014-10-12T11:10:11.000Z</time>
      </trkpt>
      <trkpt lat="47.4936" lon="6.74334">
        <ele>348.1</ele>
        <time>2014-10-12T11:10:12.000Z</time>
      </trkpt>
      <trkpt lat="47.4936" lon="6.74338">
        <ele>347.5</ele>
        <time>2014-10-12T11:10:13.000Z</time>
      </trkpt>
      <trkpt lat="47.49361" lon="6.74342">
        <ele>349.7</ele>
        <time>2014-10-12T11:10:14.000Z</time>
      </trkpt>
      <trkpt lat="47.49362" lon="6.74346">
        <ele>351.1</ele>
        <time>2014-10-12T11:10:15.000Z</time>
      </trkpt>
      <trkpt lat="47.49363" lon="6.74351">
        <ele>351</ele>
        <time>2014-10-12T11:10:16.000Z</time>
      </trkpt>
      <trkpt lat="47.49365" lon="6.74355">
        <ele>352.1</ele>
        <time>2014-10-12T11:10:17.000Z</time>
      </trkpt>
      <trkpt lat="47.49366" lon="6.74359">
        <ele>355.5</ele>
        <time>2014-10-12T11:10:18.000Z</time>
      </trkpt>
      <trkpt lat="47.49366" lon="6.74363">
        <ele>351.4</ele>
        <time>2014-10-12T11:10:19.000Z</time>
      </trkpt>
      <trkpt lat="47.49367" lon="6.74367">
        <ele>352.5</ele>
        <time>2014-10-12T11:10:20.000Z</time>
      </trkpt>
      <trkpt lat="47.49367" lon="6.74372">
        <ele>353.5</ele>
        <time>2014-10-12T11:10:21.000Z</time>
      </trkpt>
      <trkpt lat="47.49367" lon="6.74376">
        <ele>354.8</ele>
        <time>2014-10-12T11:10:22.000Z</time>
      </trkpt>
      <trkpt lat="47.49367" lon="6.7438">
        <ele>354.6</ele>
        <time>2014-10-12T11:10:23.000Z</time>
      </trkpt>
      <trkpt lat="47.49367" lon="6.74384">
        <ele>353.5</ele>
        <time>2014-10-12T11:10:24.000Z</time>
      </trkpt>
      <trkpt lat="47.49365" lon="6.74389">
        <ele>350.6</ele>
        <time>2014-10-12T11:10:26.000Z</time>
      </trkpt>
      <trkpt lat="47.49364" lon="6.74391">
        <ele>349.6</ele>
        <time>2014-10-12T11:10:27.000Z</time>
      </trkpt>
      <trkpt lat="47.49362" lon="6.74397">
        <ele>351.2</ele>
        <time>2014-10-12T11:10:30.000Z</time>
      </trkpt>
      <trkpt lat="47.49362" lon="6.74399">
        <ele>351.9</ele>
        <time>2014-10-12T11:10:31.000Z</time>
      </trkpt>
      <trkpt lat="47.49361" lon="6.74404">
        <ele>352.8</ele>
        <time>2014-10-12T11:10:33.000Z</time>
      </trkpt>
      <trkpt lat="47.4936" lon="6.74407">
        <ele>351.5</ele>
        <time>2014-10-12T11:10:34.000Z</time>
      </trkpt>
      <trkpt lat="47.49359" lon="6.74414">
        <ele>352.9</ele>
        <time>2014-10-12T11:10:36.000Z</time>
      </trkpt>
      <trkpt lat="47.49359" lon="6.74416">
        <ele>352.2</ele>
        <time>2014-10-12T11:10:37.000Z</time>
      </trkpt>
      <trkpt lat="47.49359" lon="6.7442">
        <ele>354</ele>
        <time>2014-10-12T11:10:38.000Z</time>
      </trkpt>
      <trkpt lat="47.49359" lon="6.74423">
        <ele>355.5</ele>
        <time>2014-10-12T11:10:39.000Z</time>
      </trkpt>
      <trkpt lat="47.49359" lon="6.74427">
        <ele>356.2</ele>
        <time>2014-10-12T11:10:40.000Z</time>
      </trkpt>
      <trkpt lat="47.49358" lon="6.74431">
        <ele>353.9</ele>
        <time>2014-10-12T11:10:41.000Z</time>
      </trkpt>
      <trkpt lat="47.49358" lon="6.74435">
        <ele>354.4</ele>
        <time>2014-10-12T11:10:42.000Z</time>
      </trkpt>
      <trkpt lat="47.49357" lon="6.74439">
        <ele>355.3</ele>
        <time>2014-10-12T11:10:43.000Z</time>
      </trkpt>
      <trkpt lat="47.49357" lon="6.74444">
        <ele>356.5</ele>
        <time>2014-10-12T11:10:44.000Z</time>
      </trkpt>
      <trkpt lat="47.49357" lon="6.74449">
        <ele>356.4</ele>
        <time>2014-10-12T11:10:45.000Z</time>
      </trkpt>
      <trkpt lat="47.49357" lon="6.74455">
        <ele>356.4</ele>
        <time>2014-10-12T11:10:46.000Z</time>
      </trkpt>
      <trkpt lat="47.49357" lon="6.7446">
        <ele>355.6</ele>
        <time>2014-10-12T11:10:47.000Z</time>
      </trkpt>
      <trkpt lat="47.49358" lon="6.74464">
        <ele>355.1</ele>
        <time>2014-10-12T11:10:48.000Z</time>
      </trkpt>
      <trkpt lat="47.49355" lon="6.74499">
        <ele>355.5</ele>
        <time>2014-10-12T11:10:57.000Z</time>
      </trkpt>
      <trkpt lat="47.49356" lon="6.74504">
        <ele>354.1</ele>
        <time>2014-10-12T11:10:59.000Z</time>
      </trkpt>
      <trkpt lat="47.49355" lon="6.74506">
        <ele>353</ele>
        <time>2014-10-12T11:11:00.000Z</time>
      </trkpt>
      <trkpt lat="47.49355" lon="6.74509">
        <ele>354.8</ele>
        <time>2014-10-12T11:11:01.000Z</time>
      </trkpt>
      <trkpt lat="47.49355" lon="6.74513">
        <ele>355.4</ele>
        <time>2014-10-12T11:11:02.000Z</time>
      </trkpt>
      <trkpt lat="47.49354" lon="6.74517">
        <ele>356.8</ele>
        <time>2014-10-12T11:11:03.000Z</time>
      </trkpt>
      <trkpt lat="47.49354" lon="6.7452">
        <ele>356.4</ele>
        <time>2014-10-12T11:11:04.000Z</time>
      </trkpt>
      <trkpt lat="47.49354" lon="6.74526">
        <ele>356.2</ele>
        <time>2014-10-12T11:11:06.000Z</time>
      </trkpt>
      <trkpt lat="47.49353" lon="6.7453">
        <ele>356.8</ele>
        <time>2014-10-12T11:11:07.000Z</time>
      </trkpt>
      <trkpt lat="47.49353" lon="6.74532">
        <ele>356.7</ele>
        <time>2014-10-12T11:11:08.000Z</time>
      </trkpt>
      <trkpt lat="47.49353" lon="6.74537">
        <ele>363.3</ele>
        <time>2014-10-12T11:11:09.000Z</time>
      </trkpt>
      <trkpt lat="47.49353" lon="6.74542">
        <ele>364.7</ele>
        <time>2014-10-12T11:11:10.000Z</time>
      </trkpt>
      <trkpt lat="47.49353" lon="6.74547">
        <ele>359.5</ele>
        <time>2014-10-12T11:11:11.000Z</time>
      </trkpt>
      <trkpt lat="47.49353" lon="6.74552">
        <ele>357.7</ele>
        <time>2014-10-12T11:11:12.000Z</time>
      </trkpt>
      <trkpt lat="47.49354" lon="6.74558">
        <ele>358.7</ele>
        <time>2014-10-12T11:11:13.000Z</time>
      </trkpt>
      <trkpt lat="47.49354" lon="6.74564">
        <ele>358.6</ele>
        <time>2014-10-12T11:11:14.000Z</time>
      </trkpt>
      <trkpt lat="47.49354" lon="6.74571">
        <ele>357.7</ele>
        <time>2014-10-12T11:11:15.000Z</time>
      </trkpt>
      <trkpt lat="47.49353" lon="6.74591">
        <ele>356.3</ele>
        <time>2014-10-12T11:11:16.000Z</time>
      </trkpt>
      <trkpt lat="47.49353" lon="6.74599">
        <ele>356.2</ele>
        <time>2014-10-12T11:11:17.000Z</time>
      </trkpt>
      <trkpt lat="47.49354" lon="6.74605">
        <ele>355.6</ele>
        <time>2014-10-12T11:11:18.000Z</time>
      </trkpt>
      <trkpt lat="47.49354" lon="6.74613">
        <ele>358.4</ele>
        <time>2014-10-12T11:11:19.000Z</time>
      </trkpt>
      <trkpt lat="47.49355" lon="6.7462">
        <ele>358.8</ele>
        <time>2014-10-12T11:11:20.000Z</time>
      </trkpt>
      <trkpt lat="47.49355" lon="6.74625">
        <ele>355.7</ele>
        <time>2014-10-12T11:11:21.000Z</time>
      </trkpt>
      <trkpt lat="47.49355" lon="6.7463">
        <ele>356.3</ele>
        <time>2014-10-12T11:11:22.000Z</time>
      </trkpt>
      <trkpt lat="47.49355" lon="6.74636">
        <ele>356.7</ele>
        <time>2014-10-12T11:11:24.000Z</time>
      </trkpt>
      <trkpt lat="47.49355" lon="6.74641">
        <ele>358.1</ele>
        <time>2014-10-12T11:11:25.000Z</time>
      </trkpt>
      <trkpt lat="47.49356" lon="6.74645">
        <ele>359</ele>
        <time>2014-10-12T11:11:26.000Z</time>
      </trkpt>
      <trkpt lat="47.49356" lon="6.74649">
        <ele>358.5</ele>
        <time>2014-10-12T11:11:27.000Z</time>
      </trkpt>
      <trkpt lat="47.49356" lon="6.74654">
        <ele>357.1</ele>
        <time>2014-10-12T11:11:29.000Z</time>
      </trkpt>
      <trkpt lat="47.49356" lon="6.74655">
        <ele>357.3</ele>
        <time>2014-10-12T11:11:30.000Z</time>
      </trkpt>
      <trkpt lat="47.49354" lon="6.74659">
        <ele>353.8</ele>
        <time>2014-10-12T11:11:33.000Z</time>
      </trkpt>
      <trkpt lat="47.49353" lon="6.7466">
        <ele>353.6</ele>
        <time>2014-10-12T11:11:34.000Z</time>
      </trkpt>
      <trkpt lat="47.4935" lon="6.74665">
        <ele>352.4</ele>
        <time>2014-10-12T11:11:41.000Z</time>
      </trkpt>
      <trkpt lat="47.4935" lon="6.74666">
        <ele>352.2</ele>
        <time>2014-10-12T11:11:42.000Z</time>
      </trkpt>
      <trkpt lat="47.4935" lon="6.74671">
        <ele>354</ele>
        <time>2014-10-12T11:11:47.000Z</time>
      </trkpt>
      <trkpt lat="47.49351" lon="6.74675">
        <ele>355.4</ele>
        <time>2014-10-12T11:11:50.000Z</time>
      </trkpt>
      <trkpt lat="47.49351" lon="6.7468">
        <ele>357.9</ele>
        <time>2014-10-12T11:11:52.000Z</time>
      </trkpt>
      <trkpt lat="47.49351" lon="6.74683">
        <ele>359.4</ele>
        <time>2014-10-12T11:11:53.000Z</time>
      </trkpt>
      <trkpt lat="47.4935" lon="6.7469">
        <ele>360.7</ele>
        <time>2014-10-12T11:11:54.000Z</time>
      </trkpt>
      <trkpt lat="47.49349" lon="6.74694">
        <ele>360.6</ele>
        <time>2014-10-12T11:11:55.000Z</time>
      </trkpt>
      <trkpt lat="47.49349" lon="6.74696">
        <ele>359.9</ele>
        <time>2014-10-12T11:11:56.000Z</time>
      </trkpt>
      <trkpt lat="47.49348" lon="6.747">
        <ele>354.5</ele>
        <time>2014-10-12T11:11:58.000Z</time>
      </trkpt>
      <trkpt lat="47.49347" lon="6.74702">
        <ele>352.8</ele>
        <time>2014-10-12T11:11:59.000Z</time>
      </trkpt>
      <trkpt lat="47.49347" lon="6.74706">
        <ele>351.8</ele>
        <time>2014-10-12T11:12:00.000Z</time>
      </trkpt>
      <trkpt lat="47.49347" lon="6.74709">
        <ele>351.7</ele>
        <time>2014-10-12T11:12:01.000Z</time>
      </trkpt>
      <trkpt lat="47.49346" lon="6.74717">
        <ele>352.6</ele>
        <time>2014-10-12T11:12:02.000Z</time>
      </trkpt>
      <trkpt lat="47.49347" lon="6.74723">
        <ele>354</ele>
        <time>2014-10-12T11:12:04.000Z</time>
      </trkpt>
      <trkpt lat="47.49347" lon="6.74727">
        <ele>355.1</ele>
        <time>2014-10-12T11:12:05.000Z</time>
      </trkpt>
      <trkpt lat="47.49347" lon="6.74731">
        <ele>355.8</ele>
        <time>2014-10-12T11:12:06.000Z</time>
      </trkpt>
      <trkpt lat="47.49347" lon="6.74736">
        <ele>356.6</ele>
        <time>2014-10-12T11:12:07.000Z</time>
      </trkpt>
      <trkpt lat="47.49346" lon="6.74742">
        <ele>356.8</ele>
        <time>2014-10-12T11:12:08.000Z</time>
      </trkpt>
      <trkpt lat="47.49346" lon="6.74749">
        <ele>355.7</ele>
        <time>2014-10-12T11:12:09.000Z</time>
      </trkpt>
      <trkpt lat="47.49345" lon="6.74756">
        <ele>355.7</ele>
        <time>2014-10-12T11:12:10.000Z</time>
      </trkpt>
      <trkpt lat="47.49345" lon="6.74762">
        <ele>355.8</ele>
        <time>2014-10-12T11:12:11.000Z</time>
      </trkpt>
      <trkpt lat="47.49345" lon="6.74768">
        <ele>356.5</ele>
        <time>2014-10-12T11:12:12.000Z</time>
      </trkpt>
      <trkpt lat="47.49344" lon="6.74773">
        <ele>356.3</ele>
        <time>2014-10-12T11:12:13.000Z</time>
      </trkpt>
      <trkpt lat="47.49343" lon="6.74778">
        <ele>356.4</ele>
        <time>2014-10-12T11:12:14.000Z</time>
      </trkpt>
      <trkpt lat="47.49343" lon="6.74783">
        <ele>357.3</ele>
        <time>2014-10-12T11:12:15.000Z</time>
      </trkpt>
      <trkpt lat="47.49343" lon="6.74788">
        <ele>354.7</ele>
        <time>2014-10-12T11:12:16.000Z</time>
      </trkpt>
      <trkpt lat="47.49343" lon="6.74794">
        <ele>358.3</ele>
        <time>2014-10-12T11:12:17.000Z</time>
      </trkpt>
      <trkpt lat="47.49344" lon="6.7481">
        <ele>356</ele>
        <time>2014-10-12T11:12:18.000Z</time>
      </trkpt>
      <trkpt lat="47.49344" lon="6.74816">
        <ele>356.2</ele>
        <time>2014-10-12T11:12:19.000Z</time>
      </trkpt>
      <trkpt lat="47.49345" lon="6.74821">
        <ele>355.8</ele>
        <time>2014-10-12T11:12:20.000Z</time>
      </trkpt>
      <trkpt lat="47.49347" lon="6.7484">
        <ele>354.9</ele>
        <time>2014-10-12T11:12:21.000Z</time>
      </trkpt>
      <trkpt lat="47.49348" lon="6.7485">
        <ele>354</ele>
        <time>2014-10-12T11:12:22.000Z</time>
      </trkpt>
      <trkpt lat="47.49349" lon="6.74858">
        <ele>354.2</ele>
        <time>2014-10-12T11:12:23.000Z</time>
      </trkpt>
      <trkpt lat="47.49351" lon="6.74857">
        <ele>352.4</ele>
        <time>2014-10-12T11:12:24.000Z</time>
      </trkpt>
      <trkpt lat="47.49352" lon="6.74863">
        <ele>352.8</ele>
        <time>2014-10-12T11:12:25.000Z</time>
      </trkpt>
      <trkpt lat="47.49353" lon="6.7487">
        <ele>353.4</ele>
        <time>2014-10-12T11:12:26.000Z</time>
      </trkpt>
      <trkpt lat="47.49353" lon="6.74875">
        <ele>353.3</ele>
        <time>2014-10-12T11:12:27.000Z</time>
      </trkpt>
      <trkpt lat="47.49352" lon="6.7488">
        <ele>350.8</ele>
        <time>2014-10-12T11:12:28.000Z</time>
      </trkpt>
      <trkpt lat="47.49351" lon="6.74886">
        <ele>350</ele>
        <time>2014-10-12T11:12:29.000Z</time>
      </trkpt>
      <trkpt lat="47.49351" lon="6.74891">
        <ele>349</ele>
        <time>2014-10-12T11:12:30.000Z</time>
      </trkpt>
      <trkpt lat="47.49351" lon="6.74895">
        <ele>349</ele>
        <time>2014-10-12T11:12:31.000Z</time>
      </trkpt>
      <trkpt lat="47.4935" lon="6.74901">
        <ele>348.4</ele>
        <time>2014-10-12T11:12:32.000Z</time>
      </trkpt>
      <trkpt lat="47.49349" lon="6.74906">
        <ele>348.9</ele>
        <time>2014-10-12T11:12:33.000Z</time>
      </trkpt>
      <trkpt lat="47.49349" lon="6.74911">
        <ele>349.1</ele>
        <time>2014-10-12T11:12:34.000Z</time>
      </trkpt>
      <trkpt lat="47.49348" lon="6.74916">
        <ele>345.3</ele>
        <time>2014-10-12T11:12:35.000Z</time>
      </trkpt>
      <trkpt lat="47.49348" lon="6.74922">
        <ele>344.2</ele>
        <time>2014-10-12T11:12:36.000Z</time>
      </trkpt>
      <trkpt lat="47.49349" lon="6.74928">
        <ele>342.7</ele>
        <time>2014-10-12T11:12:37.000Z</time>
      </trkpt>
      <trkpt lat="47.4935" lon="6.74934">
        <ele>342</ele>
        <time>2014-10-12T11:12:38.000Z</time>
      </trkpt>
      <trkpt lat="47.49351" lon="6.7494">
        <ele>340.3</ele>
        <time>2014-10-12T11:12:39.000Z</time>
      </trkpt>
      <trkpt lat="47.49352" lon="6.74945">
        <ele>339.4</ele>
        <time>2014-10-12T11:12:40.000Z</time>
      </trkpt>
      <trkpt lat="47.49352" lon="6.74949">
        <ele>338.3</ele>
        <time>2014-10-12T11:12:41.000Z</time>
      </trkpt>
      <trkpt lat="47.49344" lon="6.74962">
        <ele>335.3</ele>
        <time>2014-10-12T11:12:42.000Z</time>
      </trkpt>
      <trkpt lat="47.4934" lon="6.74967">
        <ele>334.8</ele>
        <time>2014-10-12T11:12:43.000Z</time>
      </trkpt>
      <trkpt lat="47.49338" lon="6.74968">
        <ele>334.6</ele>
        <time>2014-10-12T11:12:44.000Z</time>
      </trkpt>
      <trkpt lat="47.49335" lon="6.74972">
        <ele>335.1</ele>
        <time>2014-10-12T11:12:45.000Z</time>
      </trkpt>
      <trkpt lat="47.49332" lon="6.74974">
        <ele>333.2</ele>
        <time>2014-10-12T11:12:46.000Z</time>
      </trkpt>
      <trkpt lat="47.49328" lon="6.74978">
        <ele>332.3</ele>
        <time>2014-10-12T11:12:47.000Z</time>
      </trkpt>
      <trkpt lat="47.49318" lon="6.75002">
        <ele>331.6</ele>
        <time>2014-10-12T11:12:51.000Z</time>
      </trkpt>
      <trkpt lat="47.49316" lon="6.7501">
        <ele>332.5</ele>
        <time>2014-10-12T11:12:52.000Z</time>
      </trkpt>
      <trkpt lat="47.49315" lon="6.75017">
        <ele>333.6</ele>
        <time>2014-10-12T11:12:53.000Z</time>
      </trkpt>
      <trkpt lat="47.49314" lon="6.75024">
        <ele>334</ele>
        <time>2014-10-12T11:12:54.000Z</time>
      </trkpt>
      <trkpt lat="47.49314" lon="6.7503">
        <ele>335.2</ele>
        <time>2014-10-12T11:12:55.000Z</time>
      </trkpt>
      <trkpt lat="47.49316" lon="6.75038">
        <ele>338.5</ele>
        <time>2014-10-12T11:12:56.000Z</time>
      </trkpt>
      <trkpt lat="47.49316" lon="6.75046">
        <ele>339.3</ele>
        <time>2014-10-12T11:12:57.000Z</time>
      </trkpt>
      <trkpt lat="47.49315" lon="6.7505">
        <ele>337.8</ele>
        <time>2014-10-12T11:12:58.000Z</time>
      </trkpt>
      <trkpt lat="47.49315" lon="6.75057">
        <ele>339</ele>
        <time>2014-10-12T11:12:59.000Z</time>
      </trkpt>
      <trkpt lat="47.49316" lon="6.75063">
        <ele>339</ele>
        <time>2014-10-12T11:13:00.000Z</time>
      </trkpt>
      <trkpt lat="47.49317" lon="6.75068">
        <ele>339.4</ele>
        <time>2014-10-12T11:13:01.000Z</time>
      </trkpt>
      <trkpt lat="47.49317" lon="6.75073">
        <ele>340.1</ele>
        <time>2014-10-12T11:13:02.000Z</time>
      </trkpt>
      <trkpt lat="47.49317" lon="6.75079">
        <ele>340.7</ele>
        <time>2014-10-12T11:13:03.000Z</time>
      </trkpt>
      <trkpt lat="47.49318" lon="6.75084">
        <ele>341.5</ele>
        <time>2014-10-12T11:13:04.000Z</time>
      </trkpt>
      <trkpt lat="47.49317" lon="6.75089">
        <ele>341</ele>
        <time>2014-10-12T11:13:05.000Z</time>
      </trkpt>
      <trkpt lat="47.49317" lon="6.75095">
        <ele>340.6</ele>
        <time>2014-10-12T11:13:06.000Z</time>
      </trkpt>
      <trkpt lat="47.49317" lon="6.75101">
        <ele>340.3</ele>
        <time>2014-10-12T11:13:07.000Z</time>
      </trkpt>
      <trkpt lat="47.49316" lon="6.75107">
        <ele>340.7</ele>
        <time>2014-10-12T11:13:08.000Z</time>
      </trkpt>
      <trkpt lat="47.49315" lon="6.75113">
        <ele>340.7</ele>
        <time>2014-10-12T11:13:09.000Z</time>
      </trkpt>
      <trkpt lat="47.49315" lon="6.75119">
        <ele>339.5</ele>
        <time>2014-10-12T11:13:10.000Z</time>
      </trkpt>
      <trkpt lat="47.49315" lon="6.75124">
        <ele>339.4</ele>
        <time>2014-10-12T11:13:11.000Z</time>
      </trkpt>
      <trkpt lat="47.49316" lon="6.7513">
        <ele>341.5</ele>
        <time>2014-10-12T11:13:12.000Z</time>
      </trkpt>
      <trkpt lat="47.49316" lon="6.75136">
        <ele>341.7</ele>
        <time>2014-10-12T11:13:13.000Z</time>
      </trkpt>
      <trkpt lat="47.49317" lon="6.75144">
        <ele>341.7</ele>
        <time>2014-10-12T11:13:14.000Z</time>
      </trkpt>
      <trkpt lat="47.49318" lon="6.75151">
        <ele>341.7</ele>
        <time>2014-10-12T11:13:15.000Z</time>
      </trkpt>
      <trkpt lat="47.49318" lon="6.75159">
        <ele>340.9</ele>
        <time>2014-10-12T11:13:16.000Z</time>
      </trkpt>
      <trkpt lat="47.49318" lon="6.75165">
        <ele>340.6</ele>
        <time>2014-10-12T11:13:17.000Z</time>
      </trkpt>
      <trkpt lat="47.49317" lon="6.7517">
        <ele>340.3</ele>
        <time>2014-10-12T11:13:18.000Z</time>
      </trkpt>
      <trkpt lat="47.49317" lon="6.75175">
        <ele>340.4</ele>
        <time>2014-10-12T11:13:19.000Z</time>
      </trkpt>
      <trkpt lat="47.49316" lon="6.75181">
        <ele>339.8</ele>
        <time>2014-10-12T11:13:20.000Z</time>
      </trkpt>
      <trkpt lat="47.49315" lon="6.75188">
        <ele>339.8</ele>
        <time>2014-10-12T11:13:21.000Z</time>
      </trkpt>
      <trkpt lat="47.49315" lon="6.75195">
        <ele>339.9</ele>
        <time>2014-10-12T11:13:22.000Z</time>
      </trkpt>
      <trkpt lat="47.49314" lon="6.75203">
        <ele>341</ele>
        <time>2014-10-12T11:13:23.000Z</time>
      </trkpt>
      <trkpt lat="47.49313" lon="6.75211">
        <ele>341.2</ele>
        <time>2014-10-12T11:13:24.000Z</time>
      </trkpt>
      <trkpt lat="47.49312" lon="6.75217">
        <ele>341.8</ele>
        <time>2014-10-12T11:13:25.000Z</time>
      </trkpt>
      <trkpt lat="47.4931" lon="6.75222">
        <ele>342</ele>
        <time>2014-10-12T11:13:26.000Z</time>
      </trkpt>
      <trkpt lat="47.49309" lon="6.75227">
        <ele>342.6</ele>
        <time>2014-10-12T11:13:27.000Z</time>
      </trkpt>
      <trkpt lat="47.49307" lon="6.7523">
        <ele>342.6</ele>
        <time>2014-10-12T11:13:28.000Z</time>
      </trkpt>
      <trkpt lat="47.49306" lon="6.75234">
        <ele>342.7</ele>
        <time>2014-10-12T11:13:29.000Z</time>
      </trkpt>
      <trkpt lat="47.49306" lon="6.75239">
        <ele>343.5</ele>
        <time>2014-10-12T11:13:30.000Z</time>
      </trkpt>
      <trkpt lat="47.49306" lon="6.75243">
        <ele>343</ele>
        <time>2014-10-12T11:13:31.000Z</time>
      </trkpt>
      <trkpt lat="47.49306" lon="6.75247">
        <ele>343</ele>
        <time>2014-10-12T11:13:32.000Z</time>
      </trkpt>
      <trkpt lat="47.49306" lon="6.75251">
        <ele>343</ele>
        <time>2014-10-12T11:13:33.000Z</time>
      </trkpt>
      <trkpt lat="47.49306" lon="6.75255">
        <ele>342.9</ele>
        <time>2014-10-12T11:13:34.000Z</time>
      </trkpt>
      <trkpt lat="47.49307" lon="6.7526">
        <ele>343.1</ele>
        <time>2014-10-12T11:13:35.000Z</time>
      </trkpt>
      <trkpt lat="47.49308" lon="6.75264">
        <ele>343.4</ele>
        <time>2014-10-12T11:13:36.000Z</time>
      </trkpt>
      <trkpt lat="47.49309" lon="6.75269">
        <ele>340.3</ele>
        <time>2014-10-12T11:13:37.000Z</time>
      </trkpt>
      <trkpt lat="47.4931" lon="6.75275">
        <ele>339.7</ele>
        <time>2014-10-12T11:13:38.000Z</time>
      </trkpt>
      <trkpt lat="47.4931" lon="6.75281">
        <ele>341.8</ele>
        <time>2014-10-12T11:13:39.000Z</time>
      </trkpt>
      <trkpt lat="47.4931" lon="6.75287">
        <ele>343</ele>
        <time>2014-10-12T11:13:40.000Z</time>
      </trkpt>
      <trkpt lat="47.49309" lon="6.75292">
        <ele>343.3</ele>
        <time>2014-10-12T11:13:41.000Z</time>
      </trkpt>
      <trkpt lat="47.49308" lon="6.75296">
        <ele>343.7</ele>
        <time>2014-10-12T11:13:42.000Z</time>
      </trkpt>
      <trkpt lat="47.49309" lon="6.753">
        <ele>348.9</ele>
        <time>2014-10-12T11:13:43.000Z</time>
      </trkpt>
      <trkpt lat="47.49309" lon="6.75304">
        <ele>350.8</ele>
        <time>2014-10-12T11:13:44.000Z</time>
      </trkpt>
      <trkpt lat="47.4931" lon="6.75308">
        <ele>352.7</ele>
        <time>2014-10-12T11:13:45.000Z</time>
      </trkpt>
      <trkpt lat="47.4931" lon="6.75312">
        <ele>353.5</ele>
        <time>2014-10-12T11:13:46.000Z</time>
      </trkpt>
      <trkpt lat="47.4931" lon="6.75317">
        <ele>355.1</ele>
        <time>2014-10-12T11:13:47.000Z</time>
      </trkpt>
      <trkpt lat="47.49306" lon="6.75335">
        <ele>350.2</ele>
        <time>2014-10-12T11:13:51.000Z</time>
      </trkpt>
      <trkpt lat="47.49305" lon="6.75339">
        <ele>350.5</ele>
        <time>2014-10-12T11:13:52.000Z</time>
      </trkpt>
      <trkpt lat="47.49304" lon="6.75343">
        <ele>351</ele>
        <time>2014-10-12T11:13:53.000Z</time>
      </trkpt>
      <trkpt lat="47.49304" lon="6.75348">
        <ele>352</ele>
        <time>2014-10-12T11:13:54.000Z</time>
      </trkpt>
      <trkpt lat="47.49304" lon="6.75353">
        <ele>352.2</ele>
        <time>2014-10-12T11:13:55.000Z</time>
      </trkpt>
      <trkpt lat="47.49303" lon="6.75358">
        <ele>351.2</ele>
        <time>2014-10-12T11:13:56.000Z</time>
      </trkpt>
      <trkpt lat="47.49302" lon="6.75363">
        <ele>351.3</ele>
        <time>2014-10-12T11:13:57.000Z</time>
      </trkpt>
      <trkpt lat="47.49302" lon="6.75368">
        <ele>359.6</ele>
        <time>2014-10-12T11:13:58.000Z</time>
      </trkpt>
      <trkpt lat="47.49302" lon="6.75373">
        <ele>360.8</ele>
        <time>2014-10-12T11:13:59.000Z</time>
      </trkpt>
      <trkpt lat="47.49302" lon="6.75378">
        <ele>362.8</ele>
        <time>2014-10-12T11:14:00.000Z</time>
      </trkpt>
      <trkpt lat="47.49302" lon="6.75383">
        <ele>363.4</ele>
        <time>2014-10-12T11:14:01.000Z</time>
      </trkpt>
      <trkpt lat="47.49301" lon="6.75388">
        <ele>363.5</ele>
        <time>2014-10-12T11:14:02.000Z</time>
      </trkpt>
      <trkpt lat="47.493" lon="6.75392">
        <ele>363.3</ele>
        <time>2014-10-12T11:14:03.000Z</time>
      </trkpt>
      <trkpt lat="47.49299" lon="6.75397">
        <ele>362.8</ele>
        <time>2014-10-12T11:14:04.000Z</time>
      </trkpt>
      <trkpt lat="47.49298" lon="6.75401">
        <ele>362.7</ele>
        <time>2014-10-12T11:14:05.000Z</time>
      </trkpt>
      <trkpt lat="47.49296" lon="6.75405">
        <ele>362.5</ele>
        <time>2014-10-12T11:14:06.000Z</time>
      </trkpt>
      <trkpt lat="47.49295" lon="6.7541">
        <ele>362.5</ele>
        <time>2014-10-12T11:14:07.000Z</time>
      </trkpt>
      <trkpt lat="47.49293" lon="6.75415">
        <ele>361.8</ele>
        <time>2014-10-12T11:14:08.000Z</time>
      </trkpt>
      <trkpt lat="47.49292" lon="6.75419">
        <ele>365.9</ele>
        <time>2014-10-12T11:14:09.000Z</time>
      </trkpt>
      <trkpt lat="47.4929" lon="6.75423">
        <ele>364.4</ele>
        <time>2014-10-12T11:14:10.000Z</time>
      </trkpt>
      <trkpt lat="47.49288" lon="6.75427">
        <ele>364.3</ele>
        <time>2014-10-12T11:14:11.000Z</time>
      </trkpt>
      <trkpt lat="47.49286" lon="6.75432">
        <ele>361.6</ele>
        <time>2014-10-12T11:14:12.000Z</time>
      </trkpt>
      <trkpt lat="47.49284" lon="6.75437">
        <ele>360.3</ele>
        <time>2014-10-12T11:14:13.000Z</time>
      </trkpt>
      <trkpt lat="47.49282" lon="6.75442">
        <ele>359.1</ele>
        <time>2014-10-12T11:14:14.000Z</time>
      </trkpt>
      <trkpt lat="47.4928" lon="6.75448">
        <ele>356.8</ele>
        <time>2014-10-12T11:14:15.000Z</time>
      </trkpt>
      <trkpt lat="47.49277" lon="6.75453">
        <ele>354.9</ele>
        <time>2014-10-12T11:14:16.000Z</time>
      </trkpt>
      <trkpt lat="47.49275" lon="6.75458">
        <ele>354.8</ele>
        <time>2014-10-12T11:14:17.000Z</time>
      </trkpt>
      <trkpt lat="47.49272" lon="6.75464">
        <ele>351.6</ele>
        <time>2014-10-12T11:14:18.000Z</time>
      </trkpt>
      <trkpt lat="47.49269" lon="6.75471">
        <ele>349.4</ele>
        <time>2014-10-12T11:14:19.000Z</time>
      </trkpt>
      <trkpt lat="47.4926" lon="6.75492">
        <ele>348.8</ele>
        <time>2014-10-12T11:14:20.000Z</time>
      </trkpt>
      <trkpt lat="47.49257" lon="6.755">
        <ele>347.1</ele>
        <time>2014-10-12T11:14:21.000Z</time>
      </trkpt>
      <trkpt lat="47.49254" lon="6.75508">
        <ele>347.2</ele>
        <time>2014-10-12T11:14:22.000Z</time>
      </trkpt>
      <trkpt lat="47.49253" lon="6.75513">
        <ele>347.5</ele>
        <time>2014-10-12T11:14:23.000Z</time>
      </trkpt>
      <trkpt lat="47.4925" lon="6.75522">
        <ele>346.5</ele>
        <time>2014-10-12T11:14:24.000Z</time>
      </trkpt>
      <trkpt lat="47.49248" lon="6.75529">
        <ele>347</ele>
        <time>2014-10-12T11:14:25.000Z</time>
      </trkpt>
      <trkpt lat="47.49246" lon="6.75534">
        <ele>347.1</ele>
        <time>2014-10-12T11:14:26.000Z</time>
      </trkpt>
      <trkpt lat="47.49244" lon="6.75537">
        <ele>347</ele>
        <time>2014-10-12T11:14:27.000Z</time>
      </trkpt>
      <trkpt lat="47.49241" lon="6.75541">
        <ele>345.7</ele>
        <time>2014-10-12T11:14:28.000Z</time>
      </trkpt>
      <trkpt lat="47.49238" lon="6.75547">
        <ele>345.7</ele>
        <time>2014-10-12T11:14:29.000Z</time>
      </trkpt>
      <trkpt lat="47.49236" lon="6.75552">
        <ele>345.8</ele>
        <time>2014-10-12T11:14:30.000Z</time>
      </trkpt>
      <trkpt lat="47.49233" lon="6.75558">
        <ele>343.8</ele>
        <time>2014-10-12T11:14:31.000Z</time>
      </trkpt>
      <trkpt lat="47.4923" lon="6.75565">
        <ele>344.2</ele>
        <time>2014-10-12T11:14:32.000Z</time>
      </trkpt>
      <trkpt lat="47.49228" lon="6.75572">
        <ele>344.1</ele>
        <time>2014-10-12T11:14:33.000Z</time>
      </trkpt>
      <trkpt lat="47.49225" lon="6.75578">
        <ele>343.7</ele>
        <time>2014-10-12T11:14:34.000Z</time>
      </trkpt>
      <trkpt lat="47.49223" lon="6.75584">
        <ele>344.7</ele>
        <time>2014-10-12T11:14:35.000Z</time>
      </trkpt>
      <trkpt lat="47.49221" lon="6.7559">
        <ele>344.9</ele>
        <time>2014-10-12T11:14:36.000Z</time>
      </trkpt>
      <trkpt lat="47.49219" lon="6.75594">
        <ele>344.9</ele>
        <time>2014-10-12T11:14:37.000Z</time>
      </trkpt>
      <trkpt lat="47.49217" lon="6.75599">
        <ele>344.7</ele>
        <time>2014-10-12T11:14:38.000Z</time>
      </trkpt>
      <trkpt lat="47.49216" lon="6.75604">
        <ele>349.6</ele>
        <time>2014-10-12T11:14:39.000Z</time>
      </trkpt>
      <trkpt lat="47.49215" lon="6.75609">
        <ele>349.6</ele>
        <time>2014-10-12T11:14:40.000Z</time>
      </trkpt>
      <trkpt lat="47.49214" lon="6.75615">
        <ele>349.2</ele>
        <time>2014-10-12T11:14:41.000Z</time>
      </trkpt>
      <trkpt lat="47.49213" lon="6.75621">
        <ele>348.6</ele>
        <time>2014-10-12T11:14:42.000Z</time>
      </trkpt>
      <trkpt lat="47.49213" lon="6.75627">
        <ele>349.9</ele>
        <time>2014-10-12T11:14:43.000Z</time>
      </trkpt>
      <trkpt lat="47.49212" lon="6.75632">
        <ele>350</ele>
        <time>2014-10-12T11:14:44.000Z</time>
      </trkpt>
      <trkpt lat="47.4921" lon="6.7564">
        <ele>348.9</ele>
        <time>2014-10-12T11:14:45.000Z</time>
      </trkpt>
      <trkpt lat="47.49209" lon="6.75644">
        <ele>348.7</ele>
        <time>2014-10-12T11:14:46.000Z</time>
      </trkpt>
      <trkpt lat="47.49207" lon="6.75657">
        <ele>355.7</ele>
        <time>2014-10-12T11:14:47.000Z</time>
      </trkpt>
      <trkpt lat="47.49205" lon="6.75664">
        <ele>356</ele>
        <time>2014-10-12T11:14:48.000Z</time>
      </trkpt>
      <trkpt lat="47.49199" lon="6.75688">
        <ele>353.7</ele>
        <time>2014-10-12T11:14:53.000Z</time>
      </trkpt>
      <trkpt lat="47.49195" lon="6.75694">
        <ele>351.6</ele>
        <time>2014-10-12T11:14:54.000Z</time>
      </trkpt>
      <trkpt lat="47.49192" lon="6.75699">
        <ele>350.7</ele>
        <time>2014-10-12T11:14:55.000Z</time>
      </trkpt>
      <trkpt lat="47.49191" lon="6.75704">
        <ele>350.1</ele>
        <time>2014-10-12T11:14:56.000Z</time>
      </trkpt>
      <trkpt lat="47.4919" lon="6.75708">
        <ele>349.3</ele>
        <time>2014-10-12T11:14:57.000Z</time>
      </trkpt>
      <trkpt lat="47.49187" lon="6.75713">
        <ele>348.7</ele>
        <time>2014-10-12T11:14:58.000Z</time>
      </trkpt>
      <trkpt lat="47.49185" lon="6.75719">
        <ele>348.9</ele>
        <time>2014-10-12T11:14:59.000Z</time>
      </trkpt>
      <trkpt lat="47.49185" lon="6.75723">
        <ele>350</ele>
        <time>2014-10-12T11:15:00.000Z</time>
      </trkpt>
      <trkpt lat="47.49185" lon="6.75727">
        <ele>352.3</ele>
        <time>2014-10-12T11:15:01.000Z</time>
      </trkpt>
      <trkpt lat="47.49184" lon="6.75732">
        <ele>353.4</ele>
        <time>2014-10-12T11:15:02.000Z</time>
      </trkpt>
      <trkpt lat="47.49184" lon="6.75737">
        <ele>354.1</ele>
        <time>2014-10-12T11:15:03.000Z</time>
      </trkpt>
      <trkpt lat="47.49184" lon="6.75742">
        <ele>352.6</ele>
        <time>2014-10-12T11:15:04.000Z</time>
      </trkpt>
      <trkpt lat="47.49183" lon="6.75746">
        <ele>350.9</ele>
        <time>2014-10-12T11:15:05.000Z</time>
      </trkpt>
      <trkpt lat="47.49182" lon="6.75749">
        <ele>350.6</ele>
        <time>2014-10-12T11:15:06.000Z</time>
      </trkpt>
      <trkpt lat="47.49181" lon="6.75752">
        <ele>349.7</ele>
        <time>2014-10-12T11:15:07.000Z</time>
      </trkpt>
      <trkpt lat="47.4918" lon="6.75756">
        <ele>348.9</ele>
        <time>2014-10-12T11:15:08.000Z</time>
      </trkpt>
      <trkpt lat="47.49179" lon="6.75759">
        <ele>349.2</ele>
        <time>2014-10-12T11:15:09.000Z</time>
      </trkpt>
      <trkpt lat="47.49178" lon="6.75763">
        <ele>348.9</ele>
        <time>2014-10-12T11:15:10.000Z</time>
      </trkpt>
      <trkpt lat="47.49176" lon="6.75766">
        <ele>349.3</ele>
        <time>2014-10-12T11:15:11.000Z</time>
      </trkpt>
      <trkpt lat="47.49175" lon="6.75771">
        <ele>349.6</ele>
        <time>2014-10-12T11:15:12.000Z</time>
      </trkpt>
      <trkpt lat="47.49174" lon="6.75775">
        <ele>349.6</ele>
        <time>2014-10-12T11:15:13.000Z</time>
      </trkpt>
      <trkpt lat="47.49172" lon="6.7578">
        <ele>347.3</ele>
        <time>2014-10-12T11:15:14.000Z</time>
      </trkpt>
      <trkpt lat="47.4917" lon="6.75786">
        <ele>341.6</ele>
        <time>2014-10-12T11:15:15.000Z</time>
      </trkpt>
      <trkpt lat="47.49167" lon="6.75792">
        <ele>338.2</ele>
        <time>2014-10-12T11:15:16.000Z</time>
      </trkpt>
      <trkpt lat="47.49165" lon="6.75798">
        <ele>336.2</ele>
        <time>2014-10-12T11:15:17.000Z</time>
      </trkpt>
      <trkpt lat="47.49163" lon="6.75805">
        <ele>335</ele>
        <time>2014-10-12T11:15:18.000Z</time>
      </trkpt>
      <trkpt lat="47.4916" lon="6.75811">
        <ele>334.9</ele>
        <time>2014-10-12T11:15:19.000Z</time>
      </trkpt>
      <trkpt lat="47.49158" lon="6.75816">
        <ele>336.4</ele>
        <time>2014-10-12T11:15:20.000Z</time>
      </trkpt>
      <trkpt lat="47.4915" lon="6.75837">
        <ele>328.6</ele>
        <time>2014-10-12T11:15:21.000Z</time>
      </trkpt>
      <trkpt lat="47.49148" lon="6.75839">
        <ele>329.4</ele>
        <time>2014-10-12T11:15:22.000Z</time>
      </trkpt>
      <trkpt lat="47.49146" lon="6.75842">
        <ele>328.2</ele>
        <time>2014-10-12T11:15:23.000Z</time>
      </trkpt>
      <trkpt lat="47.49146" lon="6.7585">
        <ele>330</ele>
        <time>2014-10-12T11:15:24.000Z</time>
      </trkpt>
      <trkpt lat="47.49145" lon="6.75856">
        <ele>334.4</ele>
        <time>2014-10-12T11:15:27.000Z</time>
      </trkpt>
      <trkpt lat="47.49145" lon="6.75859">
        <ele>335.5</ele>
        <time>2014-10-12T11:15:28.000Z</time>
      </trkpt>
      <trkpt lat="47.49145" lon="6.75861">
        <ele>336.1</ele>
        <time>2014-10-12T11:15:29.000Z</time>
      </trkpt>
      <trkpt lat="47.49146" lon="6.75867">
        <ele>336.6</ele>
        <time>2014-10-12T11:15:30.000Z</time>
      </trkpt>
      <trkpt lat="47.49146" lon="6.75872">
        <ele>336.8</ele>
        <time>2014-10-12T11:15:31.000Z</time>
      </trkpt>
      <trkpt lat="47.49147" lon="6.75875">
        <ele>336.8</ele>
        <time>2014-10-12T11:15:32.000Z</time>
      </trkpt>
      <trkpt lat="47.49147" lon="6.7588">
        <ele>336.6</ele>
        <time>2014-10-12T11:15:33.000Z</time>
      </trkpt>
      <trkpt lat="47.49149" lon="6.75884">
        <ele>337.1</ele>
        <time>2014-10-12T11:15:34.000Z</time>
      </trkpt>
      <trkpt lat="47.4915" lon="6.75888">
        <ele>334.8</ele>
        <time>2014-10-12T11:15:35.000Z</time>
      </trkpt>
      <trkpt lat="47.49151" lon="6.75893">
        <ele>335.4</ele>
        <time>2014-10-12T11:15:36.000Z</time>
      </trkpt>
      <trkpt lat="47.49153" lon="6.75897">
        <ele>336.2</ele>
        <time>2014-10-12T11:15:37.000Z</time>
      </trkpt>
      <trkpt lat="47.49155" lon="6.759">
        <ele>336.4</ele>
        <time>2014-10-12T11:15:38.000Z</time>
      </trkpt>
      <trkpt lat="47.49156" lon="6.75903">
        <ele>335</ele>
        <time>2014-10-12T11:15:39.000Z</time>
      </trkpt>
      <trkpt lat="47.49157" lon="6.75907">
        <ele>334.3</ele>
        <time>2014-10-12T11:15:40.000Z</time>
      </trkpt>
      <trkpt lat="47.49157" lon="6.7591">
        <ele>334</ele>
        <time>2014-10-12T11:15:41.000Z</time>
      </trkpt>
      <trkpt lat="47.49156" lon="6.75914">
        <ele>333.8</ele>
        <time>2014-10-12T11:15:42.000Z</time>
      </trkpt>
      <trkpt lat="47.49155" lon="6.75918">
        <ele>334.7</ele>
        <time>2014-10-12T11:15:43.000Z</time>
      </trkpt>
      <trkpt lat="47.49154" lon="6.75922">
        <ele>334.9</ele>
        <time>2014-10-12T11:15:44.000Z</time>
      </trkpt>
      <trkpt lat="47.49154" lon="6.75927">
        <ele>335.1</ele>
        <time>2014-10-12T11:15:45.000Z</time>
      </trkpt>
      <trkpt lat="47.49153" lon="6.75931">
        <ele>335.3</ele>
        <time>2014-10-12T11:15:46.000Z</time>
      </trkpt>
      <trkpt lat="47.49153" lon="6.75935">
        <ele>335.8</ele>
        <time>2014-10-12T11:15:47.000Z</time>
      </trkpt>
      <trkpt lat="47.49149" lon="6.75956">
        <ele>332.2</ele>
        <time>2014-10-12T11:15:53.000Z</time>
      </trkpt>
      <trkpt lat="47.49148" lon="6.75959">
        <ele>332</ele>
        <time>2014-10-12T11:15:54.000Z</time>
      </trkpt>
      <trkpt lat="47.49148" lon="6.75964">
        <ele>333</ele>
        <time>2014-10-12T11:15:55.000Z</time>
      </trkpt>
      <trkpt lat="47.49148" lon="6.75968">
        <ele>340.8</ele>
        <time>2014-10-12T11:15:56.000Z</time>
      </trkpt>
      <trkpt lat="47.49149" lon="6.75974">
        <ele>342.1</ele>
        <time>2014-10-12T11:15:57.000Z</time>
      </trkpt>
      <trkpt lat="47.49151" lon="6.7598">
        <ele>342.6</ele>
        <time>2014-10-12T11:15:58.000Z</time>
      </trkpt>
      <trkpt lat="47.49152" lon="6.75986">
        <ele>342.9</ele>
        <time>2014-10-12T11:15:59.000Z</time>
      </trkpt>
      <trkpt lat="47.49153" lon="6.75994">
        <ele>343.3</ele>
        <time>2014-10-12T11:16:00.000Z</time>
      </trkpt>
      <trkpt lat="47.49153" lon="6.76001">
        <ele>342.4</ele>
        <time>2014-10-12T11:16:01.000Z</time>
      </trkpt>
      <trkpt lat="47.49155" lon="6.76008">
        <ele>343.3</ele>
        <time>2014-10-12T11:16:02.000Z</time>
      </trkpt>
      <trkpt lat="47.49156" lon="6.76015">
        <ele>343</ele>
        <time>2014-10-12T11:16:03.000Z</time>
      </trkpt>
      <trkpt lat="47.49157" lon="6.76021">
        <ele>342.9</ele>
        <time>2014-10-12T11:16:04.000Z</time>
      </trkpt>
      <trkpt lat="47.49159" lon="6.76027">
        <ele>342.6</ele>
        <time>2014-10-12T11:16:05.000Z</time>
      </trkpt>
      <trkpt lat="47.4916" lon="6.76032">
        <ele>342.5</ele>
        <time>2014-10-12T11:16:06.000Z</time>
      </trkpt>
      <trkpt lat="47.49161" lon="6.76037">
        <ele>342.4</ele>
        <time>2014-10-12T11:16:07.000Z</time>
      </trkpt>
      <trkpt lat="47.49161" lon="6.76042">
        <ele>342.1</ele>
        <time>2014-10-12T11:16:08.000Z</time>
      </trkpt>
      <trkpt lat="47.49162" lon="6.76047">
        <ele>341.7</ele>
        <time>2014-10-12T11:16:09.000Z</time>
      </trkpt>
      <trkpt lat="47.49162" lon="6.76052">
        <ele>341.5</ele>
        <time>2014-10-12T11:16:10.000Z</time>
      </trkpt>
      <trkpt lat="47.49163" lon="6.76058">
        <ele>341.6</ele>
        <time>2014-10-12T11:16:11.000Z</time>
      </trkpt>
      <trkpt lat="47.49164" lon="6.76063">
        <ele>341.4</ele>
        <time>2014-10-12T11:16:12.000Z</time>
      </trkpt>
      <trkpt lat="47.49164" lon="6.76069">
        <ele>341</ele>
        <time>2014-10-12T11:16:13.000Z</time>
      </trkpt>
      <trkpt lat="47.49164" lon="6.76075">
        <ele>338.5</ele>
        <time>2014-10-12T11:16:14.000Z</time>
      </trkpt>
      <trkpt lat="47.49164" lon="6.76081">
        <ele>337</ele>
        <time>2014-10-12T11:16:15.000Z</time>
      </trkpt>
      <trkpt lat="47.49164" lon="6.76087">
        <ele>337.5</ele>
        <time>2014-10-12T11:16:16.000Z</time>
      </trkpt>
      <trkpt lat="47.49165" lon="6.76093">
        <ele>338.5</ele>
        <time>2014-10-12T11:16:17.000Z</time>
      </trkpt>
      <trkpt lat="47.49166" lon="6.76095">
        <ele>337.9</ele>
        <time>2014-10-12T11:16:18.000Z</time>
      </trkpt>
      <trkpt lat="47.49168" lon="6.76097">
        <ele>337.2</ele>
        <time>2014-10-12T11:16:19.000Z</time>
      </trkpt>
      <trkpt lat="47.4917" lon="6.76099">
        <ele>336.9</ele>
        <time>2014-10-12T11:16:20.000Z</time>
      </trkpt>
      <trkpt lat="47.49172" lon="6.76099">
        <ele>336.3</ele>
        <time>2014-10-12T11:16:21.000Z</time>
      </trkpt>
      <trkpt lat="47.49175" lon="6.76101">
        <ele>337.2</ele>
        <time>2014-10-12T11:16:22.000Z</time>
      </trkpt>
      <trkpt lat="47.49177" lon="6.76102">
        <ele>337.2</ele>
        <time>2014-10-12T11:16:23.000Z</time>
      </trkpt>
      <trkpt lat="47.49178" lon="6.76105">
        <ele>338</ele>
        <time>2014-10-12T11:16:24.000Z</time>
      </trkpt>
      <trkpt lat="47.49179" lon="6.7611">
        <ele>339.1</ele>
        <time>2014-10-12T11:16:25.000Z</time>
      </trkpt>
      <trkpt lat="47.49172" lon="6.76141">
        <ele>336</ele>
        <time>2014-10-12T11:16:26.000Z</time>
      </trkpt>
      <trkpt lat="47.49171" lon="6.76148">
        <ele>336.1</ele>
        <time>2014-10-12T11:16:27.000Z</time>
      </trkpt>
      <trkpt lat="47.49172" lon="6.76153">
        <ele>337.4</ele>
        <time>2014-10-12T11:16:28.000Z</time>
      </trkpt>
      <trkpt lat="47.49172" lon="6.7616">
        <ele>338.4</ele>
        <time>2014-10-12T11:16:29.000Z</time>
      </trkpt>
      <trkpt lat="47.49172" lon="6.76166">
        <ele>338.5</ele>
        <time>2014-10-12T11:16:30.000Z</time>
      </trkpt>
      <trkpt lat="47.49172" lon="6.76173">
        <ele>337.8</ele>
        <time>2014-10-12T11:16:31.000Z</time>
      </trkpt>
      <trkpt lat="47.49172" lon="6.76181">
        <ele>337.8</ele>
        <time>2014-10-12T11:16:32.000Z</time>
      </trkpt>
      <trkpt lat="47.49171" lon="6.76189">
        <ele>337.7</ele>
        <time>2014-10-12T11:16:33.000Z</time>
      </trkpt>
      <trkpt lat="47.4917" lon="6.76199">
        <ele>335.6</ele>
        <time>2014-10-12T11:16:34.000Z</time>
      </trkpt>
      <trkpt lat="47.4917" lon="6.76209">
        <ele>337.1</ele>
        <time>2014-10-12T11:16:35.000Z</time>
      </trkpt>
      <trkpt lat="47.49169" lon="6.76218">
        <ele>337.4</ele>
        <time>2014-10-12T11:16:36.000Z</time>
      </trkpt>
      <trkpt lat="47.49169" lon="6.76229">
        <ele>335.5</ele>
        <time>2014-10-12T11:16:37.000Z</time>
      </trkpt>
      <trkpt lat="47.49167" lon="6.7626">
        <ele>335</ele>
        <time>2014-10-12T11:16:38.000Z</time>
      </trkpt>
      <trkpt lat="47.49166" lon="6.76274">
        <ele>334.4</ele>
        <time>2014-10-12T11:16:39.000Z</time>
      </trkpt>
      <trkpt lat="47.49166" lon="6.76286">
        <ele>335.2</ele>
        <time>2014-10-12T11:16:40.000Z</time>
      </trkpt>
      <trkpt lat="47.49164" lon="6.76301">
        <ele>333.4</ele>
        <time>2014-10-12T11:16:41.000Z</time>
      </trkpt>
      <trkpt lat="47.49164" lon="6.76315">
        <ele>333</ele>
        <time>2014-10-12T11:16:42.000Z</time>
      </trkpt>
      <trkpt lat="47.49163" lon="6.76328">
        <ele>333.5</ele>
        <time>2014-10-12T11:16:43.000Z</time>
      </trkpt>
      <trkpt lat="47.49163" lon="6.76339">
        <ele>333.2</ele>
        <time>2014-10-12T11:16:44.000Z</time>
      </trkpt>
      <trkpt lat="47.49162" lon="6.76351">
        <ele>333.6</ele>
        <time>2014-10-12T11:16:45.000Z</time>
      </trkpt>
      <trkpt lat="47.49162" lon="6.76361">
        <ele>332.8</ele>
        <time>2014-10-12T11:16:46.000Z</time>
      </trkpt>
      <trkpt lat="47.49162" lon="6.76373">
        <ele>331.6</ele>
        <time>2014-10-12T11:16:47.000Z</time>
      </trkpt>
      <trkpt lat="47.49164" lon="6.76481">
        <ele>321.4</ele>
        <time>2014-10-12T11:16:58.000Z</time>
      </trkpt>
      <trkpt lat="47.49164" lon="6.76491">
        <ele>320.7</ele>
        <time>2014-10-12T11:16:59.000Z</time>
      </trkpt>
      <trkpt lat="47.49166" lon="6.76504">
        <ele>322.4</ele>
        <time>2014-10-12T11:17:00.000Z</time>
      </trkpt>
      <trkpt lat="47.49167" lon="6.76513">
        <ele>321.5</ele>
        <time>2014-10-12T11:17:01.000Z</time>
      </trkpt>
      <trkpt lat="47.49168" lon="6.76522">
        <ele>321.1</ele>
        <time>2014-10-12T11:17:02.000Z</time>
      </trkpt>
      <trkpt lat="47.49169" lon="6.76534">
        <ele>320.8</ele>
        <time>2014-10-12T11:17:03.000Z</time>
      </trkpt>
      <trkpt lat="47.49169" lon="6.76547">
        <ele>320.6</ele>
        <time>2014-10-12T11:17:04.000Z</time>
      </trkpt>
      <trkpt lat="47.49169" lon="6.76559">
        <ele>320.6</ele>
        <time>2014-10-12T11:17:05.000Z</time>
      </trkpt>
      <trkpt lat="47.49168" lon="6.76572">
        <ele>320.7</ele>
        <time>2014-10-12T11:17:06.000Z</time>
      </trkpt>
      <trkpt lat="47.49167" lon="6.76584">
        <ele>325.4</ele>
        <time>2014-10-12T11:17:07.000Z</time>
      </trkpt>
      <trkpt lat="47.49167" lon="6.76599">
        <ele>325.3</ele>
        <time>2014-10-12T11:17:08.000Z</time>
      </trkpt>
      <trkpt lat="47.49167" lon="6.76615">
        <ele>325.5</ele>
        <time>2014-10-12T11:17:09.000Z</time>
      </trkpt>
      <trkpt lat="47.49166" lon="6.7663">
        <ele>325.1</ele>
        <time>2014-10-12T11:17:10.000Z</time>
      </trkpt>
      <trkpt lat="47.49166" lon="6.7664">
        <ele>324.6</ele>
        <time>2014-10-12T11:17:11.000Z</time>
      </trkpt>
      <trkpt lat="47.49165" lon="6.76651">
        <ele>323.8</ele>
        <time>2014-10-12T11:17:12.000Z</time>
      </trkpt>
      <trkpt lat="47.49164" lon="6.76669">
        <ele>323.1</ele>
        <time>2014-10-12T11:17:13.000Z</time>
      </trkpt>
      <trkpt lat="47.49162" lon="6.76683">
        <ele>322.3</ele>
        <time>2014-10-12T11:17:14.000Z</time>
      </trkpt>
      <trkpt lat="47.49161" lon="6.76698">
        <ele>322.6</ele>
        <time>2014-10-12T11:17:15.000Z</time>
      </trkpt>
      <trkpt lat="47.49159" lon="6.76712">
        <ele>322.4</ele>
        <time>2014-10-12T11:17:16.000Z</time>
      </trkpt>
      <trkpt lat="47.49158" lon="6.76722">
        <ele>319.8</ele>
        <time>2014-10-12T11:17:17.000Z</time>
      </trkpt>
      <trkpt lat="47.49157" lon="6.76736">
        <ele>318.2</ele>
        <time>2014-10-12T11:17:18.000Z</time>
      </trkpt>
      <trkpt lat="47.49156" lon="6.76748">
        <ele>317.4</ele>
        <time>2014-10-12T11:17:19.000Z</time>
      </trkpt>
      <trkpt lat="47.49155" lon="6.76761">
        <ele>317.3</ele>
        <time>2014-10-12T11:17:20.000Z</time>
      </trkpt>
      <trkpt lat="47.49153" lon="6.76773">
        <ele>317.1</ele>
        <time>2014-10-12T11:17:21.000Z</time>
      </trkpt>
      <trkpt lat="47.49155" lon="6.76789">
        <ele>321.4</ele>
        <time>2014-10-12T11:17:22.000Z</time>
      </trkpt>
      <trkpt lat="47.49155" lon="6.76804">
        <ele>321.3</ele>
        <time>2014-10-12T11:17:23.000Z</time>
      </trkpt>
      <trkpt lat="47.49155" lon="6.76817">
        <ele>320.7</ele>
        <time>2014-10-12T11:17:24.000Z</time>
      </trkpt>
      <trkpt lat="47.49153" lon="6.76828">
        <ele>321.4</ele>
        <time>2014-10-12T11:17:25.000Z</time>
      </trkpt>
      <trkpt lat="47.49152" lon="6.7684">
        <ele>321.6</ele>
        <time>2014-10-12T11:17:26.000Z</time>
      </trkpt>
      <trkpt lat="47.49148" lon="6.76853">
        <ele>318.4</ele>
        <time>2014-10-12T11:17:27.000Z</time>
      </trkpt>
      <trkpt lat="47.49147" lon="6.76867">
        <ele>317.3</ele>
        <time>2014-10-12T11:17:28.000Z</time>
      </trkpt>
      <trkpt lat="47.49146" lon="6.76881">
        <ele>317.4</ele>
        <time>2014-10-12T11:17:29.000Z</time>
      </trkpt>
      <trkpt lat="47.49146" lon="6.7689">
        <ele>316.2</ele>
        <time>2014-10-12T11:17:30.000Z</time>
      </trkpt>
      <trkpt lat="47.49146" lon="6.76899">
        <ele>316.1</ele>
        <time>2014-10-12T11:17:31.000Z</time>
      </trkpt>
      <trkpt lat="47.49146" lon="6.76908">
        <ele>316.6</ele>
        <time>2014-10-12T11:17:32.000Z</time>
      </trkpt>
      <trkpt lat="47.49146" lon="6.76916">
        <ele>316.5</ele>
        <time>2014-10-12T11:17:33.000Z</time>
      </trkpt>
      <trkpt lat="47.49146" lon="6.76924">
        <ele>316.4</ele>
        <time>2014-10-12T11:17:34.000Z</time>
      </trkpt>
      <trkpt lat="47.49145" lon="6.7693">
        <ele>317</ele>
        <time>2014-10-12T11:17:35.000Z</time>
      </trkpt>
      <trkpt lat="47.49145" lon="6.76937">
        <ele>317.5</ele>
        <time>2014-10-12T11:17:36.000Z</time>
      </trkpt>
      <trkpt lat="47.49145" lon="6.76944">
        <ele>317.5</ele>
        <time>2014-10-12T11:17:37.000Z</time>
      </trkpt>
      <trkpt lat="47.49145" lon="6.7695">
        <ele>317.9</ele>
        <time>2014-10-12T11:17:38.000Z</time>
      </trkpt>
      <trkpt lat="47.49145" lon="6.76955">
        <ele>318.5</ele>
        <time>2014-10-12T11:17:39.000Z</time>
      </trkpt>
      <trkpt lat="47.49145" lon="6.76959">
        <ele>318.8</ele>
        <time>2014-10-12T11:17:40.000Z</time>
      </trkpt>
      <trkpt lat="47.49146" lon="6.76964">
        <ele>319.1</ele>
        <time>2014-10-12T11:17:41.000Z</time>
      </trkpt>
      <trkpt lat="47.49147" lon="6.76974">
        <ele>319.9</ele>
        <time>2014-10-12T11:17:42.000Z</time>
      </trkpt>
      <trkpt lat="47.49147" lon="6.76981">
        <ele>319.6</ele>
        <time>2014-10-12T11:17:43.000Z</time>
      </trkpt>
      <trkpt lat="47.49148" lon="6.76987">
        <ele>320.7</ele>
        <time>2014-10-12T11:17:44.000Z</time>
      </trkpt>
      <trkpt lat="47.49149" lon="6.76994">
        <ele>320.4</ele>
        <time>2014-10-12T11:17:45.000Z</time>
      </trkpt>
      <trkpt lat="47.4915" lon="6.77">
        <ele>320.4</ele>
        <time>2014-10-12T11:17:46.000Z</time>
      </trkpt>
      <trkpt lat="47.49152" lon="6.77007">
        <ele>321</ele>
        <time>2014-10-12T11:17:47.000Z</time>
      </trkpt>
      <trkpt lat="47.49159" lon="6.77026">
        <ele>320.6</ele>
        <time>2014-10-12T11:17:50.000Z</time>
      </trkpt>
      <trkpt lat="47.49158" lon="6.77034">
        <ele>318.2</ele>
        <time>2014-10-12T11:17:51.000Z</time>
      </trkpt>
      <trkpt lat="47.4916" lon="6.77042">
        <ele>317.8</ele>
        <time>2014-10-12T11:17:52.000Z</time>
      </trkpt>
      <trkpt lat="47.49161" lon="6.7705">
        <ele>318.2</ele>
        <time>2014-10-12T11:17:53.000Z</time>
      </trkpt>
      <trkpt lat="47.49162" lon="6.77057">
        <ele>318.3</ele>
        <time>2014-10-12T11:17:54.000Z</time>
      </trkpt>
      <trkpt lat="47.49164" lon="6.77065">
        <ele>317.2</ele>
        <time>2014-10-12T11:17:55.000Z</time>
      </trkpt>
      <trkpt lat="47.49166" lon="6.77072">
        <ele>316.9</ele>
        <time>2014-10-12T11:17:56.000Z</time>
      </trkpt>
      <trkpt lat="47.49167" lon="6.77079">
        <ele>316.9</ele>
        <time>2014-10-12T11:17:57.000Z</time>
      </trkpt>
      <trkpt lat="47.49168" lon="6.77085">
        <ele>316.7</ele>
        <time>2014-10-12T11:17:58.000Z</time>
      </trkpt>
      <trkpt lat="47.4917" lon="6.77087">
        <ele>316</ele>
        <time>2014-10-12T11:17:59.000Z</time>
      </trkpt>
      <trkpt lat="47.4917" lon="6.77093">
        <ele>315.7</ele>
        <time>2014-10-12T11:18:00.000Z</time>
      </trkpt>
      <trkpt lat="47.49171" lon="6.77098">
        <ele>315.6</ele>
        <time>2014-10-12T11:18:01.000Z</time>
      </trkpt>
      <trkpt lat="47.49172" lon="6.77103">
        <ele>314.9</ele>
        <time>2014-10-12T11:18:02.000Z</time>
      </trkpt>
      <trkpt lat="47.49173" lon="6.77107">
        <ele>314.8</ele>
        <time>2014-10-12T11:18:03.000Z</time>
      </trkpt>
      <trkpt lat="47.49174" lon="6.77109">
        <ele>315.3</ele>
        <time>2014-10-12T11:18:04.000Z</time>
      </trkpt>
      <trkpt lat="47.49174" lon="6.77115">
        <ele>315.1</ele>
        <time>2014-10-12T11:18:05.000Z</time>
      </trkpt>
      <trkpt lat="47.49175" lon="6.77119">
        <ele>314.6</ele>
        <time>2014-10-12T11:18:06.000Z</time>
      </trkpt>
      <trkpt lat="47.49175" lon="6.77124">
        <ele>315</ele>
        <time>2014-10-12T11:18:07.000Z</time>
      </trkpt>
      <trkpt lat="47.49175" lon="6.7713">
        <ele>314.2</ele>
        <time>2014-10-12T11:18:09.000Z</time>
      </trkpt>
      <trkpt lat="47.49174" lon="6.7713">
        <ele>314.8</ele>
        <time>2014-10-12T11:18:10.000Z</time>
      </trkpt>
      <trkpt lat="47.49174" lon="6.77134">
        <ele>315.2</ele>
        <time>2014-10-12T11:18:15.000Z</time>
      </trkpt>
      <trkpt lat="47.49175" lon="6.77137">
        <ele>314.5</ele>
        <time>2014-10-12T11:18:16.000Z</time>
      </trkpt>
      <trkpt lat="47.49176" lon="6.77143">
        <ele>313.9</ele>
        <time>2014-10-12T11:18:18.000Z</time>
      </trkpt>
      <trkpt lat="47.49177" lon="6.77147">
        <ele>312.2</ele>
        <time>2014-10-12T11:18:19.000Z</time>
      </trkpt>
      <trkpt lat="47.49177" lon="6.77153">
        <ele>312.3</ele>
        <time>2014-10-12T11:18:20.000Z</time>
      </trkpt>
      <trkpt lat="47.49178" lon="6.77159">
        <ele>313.1</ele>
        <time>2014-10-12T11:18:21.000Z</time>
      </trkpt>
      <trkpt lat="47.49179" lon="6.77175">
        <ele>313.3</ele>
        <time>2014-10-12T11:18:22.000Z</time>
      </trkpt>
      <trkpt lat="47.49179" lon="6.77183">
        <ele>313</ele>
        <time>2014-10-12T11:18:23.000Z</time>
      </trkpt>
      <trkpt lat="47.49179" lon="6.77189">
        <ele>312.8</ele>
        <time>2014-10-12T11:18:24.000Z</time>
      </trkpt>
      <trkpt lat="47.4918" lon="6.77196">
        <ele>312.9</ele>
        <time>2014-10-12T11:18:25.000Z</time>
      </trkpt>
      <trkpt lat="47.49181" lon="6.77204">
        <ele>312.9</ele>
        <time>2014-10-12T11:18:26.000Z</time>
      </trkpt>
      <trkpt lat="47.49181" lon="6.7721">
        <ele>312.3</ele>
        <time>2014-10-12T11:18:27.000Z</time>
      </trkpt>
      <trkpt lat="47.49182" lon="6.77216">
        <ele>312.7</ele>
        <time>2014-10-12T11:18:28.000Z</time>
      </trkpt>
      <trkpt lat="47.49182" lon="6.77222">
        <ele>313.1</ele>
        <time>2014-10-12T11:18:29.000Z</time>
      </trkpt>
      <trkpt lat="47.49183" lon="6.77226">
        <ele>313.3</ele>
        <time>2014-10-12T11:18:30.000Z</time>
      </trkpt>
      <trkpt lat="47.49183" lon="6.77232">
        <ele>313.3</ele>
        <time>2014-10-12T11:18:31.000Z</time>
      </trkpt>
      <trkpt lat="47.49184" lon="6.77239">
        <ele>315.7</ele>
        <time>2014-10-12T11:18:32.000Z</time>
      </trkpt>
      <trkpt lat="47.49184" lon="6.77245">
        <ele>316.6</ele>
        <time>2014-10-12T11:18:33.000Z</time>
      </trkpt>
      <trkpt lat="47.49185" lon="6.77253">
        <ele>317.6</ele>
        <time>2014-10-12T11:18:34.000Z</time>
      </trkpt>
      <trkpt lat="47.49185" lon="6.7726">
        <ele>317.7</ele>
        <time>2014-10-12T11:18:35.000Z</time>
      </trkpt>
      <trkpt lat="47.49184" lon="6.77268">
        <ele>317.2</ele>
        <time>2014-10-12T11:18:36.000Z</time>
      </trkpt>
      <trkpt lat="47.49184" lon="6.77276">
        <ele>317.5</ele>
        <time>2014-10-12T11:18:37.000Z</time>
      </trkpt>
      <trkpt lat="47.49184" lon="6.77285">
        <ele>316.8</ele>
        <time>2014-10-12T11:18:38.000Z</time>
      </trkpt>
      <trkpt lat="47.49184" lon="6.77293">
        <ele>317.1</ele>
        <time>2014-10-12T11:18:39.000Z</time>
      </trkpt>
      <trkpt lat="47.49183" lon="6.77302">
        <ele>317.5</ele>
        <time>2014-10-12T11:18:40.000Z</time>
      </trkpt>
      <trkpt lat="47.49183" lon="6.7731">
        <ele>317.9</ele>
        <time>2014-10-12T11:18:41.000Z</time>
      </trkpt>
      <trkpt lat="47.49183" lon="6.77317">
        <ele>317.3</ele>
        <time>2014-10-12T11:18:42.000Z</time>
      </trkpt>
      <trkpt lat="47.49184" lon="6.77324">
        <ele>317.4</ele>
        <time>2014-10-12T11:18:43.000Z</time>
      </trkpt>
      <trkpt lat="47.49187" lon="6.7733">
        <ele>318</ele>
        <time>2014-10-12T11:18:44.000Z</time>
      </trkpt>
      <trkpt lat="47.49191" lon="6.77333">
        <ele>317.8</ele>
        <time>2014-10-12T11:18:45.000Z</time>
      </trkpt>
      <trkpt lat="47.49195" lon="6.77335">
        <ele>317.8</ele>
        <time>2014-10-12T11:18:46.000Z</time>
      </trkpt>
      <trkpt lat="47.49199" lon="6.77336">
        <ele>318.3</ele>
        <time>2014-10-12T11:18:47.000Z</time>
      </trkpt>
      <trkpt lat="47.49203" lon="6.77337">
        <ele>318.1</ele>
        <time>2014-10-12T11:18:48.000Z</time>
      </trkpt>
      <trkpt lat="47.49209" lon="6.77337">
        <ele>318.3</ele>
        <time>2014-10-12T11:18:49.000Z</time>
      </trkpt>
      <trkpt lat="47.49246" lon="6.77337">
        <ele>317.1</ele>
        <time>2014-10-12T11:18:57.000Z</time>
      </trkpt>
      <trkpt lat="47.49251" lon="6.77334">
        <ele>317.2</ele>
        <time>2014-10-12T11:18:58.000Z</time>
      </trkpt>
      <trkpt lat="47.49256" lon="6.7733">
        <ele>317.3</ele>
        <time>2014-10-12T11:18:59.000Z</time>
      </trkpt>
      <trkpt lat="47.49262" lon="6.77327">
        <ele>317.1</ele>
        <time>2014-10-12T11:19:00.000Z</time>
      </trkpt>
      <trkpt lat="47.49267" lon="6.77325">
        <ele>317.3</ele>
        <time>2014-10-12T11:19:01.000Z</time>
      </trkpt>
      <trkpt lat="47.49274" lon="6.77324">
        <ele>317.2</ele>
        <time>2014-10-12T11:19:02.000Z</time>
      </trkpt>
      <trkpt lat="47.4928" lon="6.77325">
        <ele>316.5</ele>
        <time>2014-10-12T11:19:03.000Z</time>
      </trkpt>
      <trkpt lat="47.49287" lon="6.77325">
        <ele>315.8</ele>
        <time>2014-10-12T11:19:04.000Z</time>
      </trkpt>
      <trkpt lat="47.49293" lon="6.77326">
        <ele>315.6</ele>
        <time>2014-10-12T11:19:05.000Z</time>
      </trkpt>
      <trkpt lat="47.49299" lon="6.77327">
        <ele>315.4</ele>
        <time>2014-10-12T11:19:06.000Z</time>
      </trkpt>
      <trkpt lat="47.49304" lon="6.77327">
        <ele>315.4</ele>
        <time>2014-10-12T11:19:07.000Z</time>
      </trkpt>
      <trkpt lat="47.49309" lon="6.77328">
        <ele>315.8</ele>
        <time>2014-10-12T11:19:08.000Z</time>
      </trkpt>
      <trkpt lat="47.49314" lon="6.77329">
        <ele>316</ele>
        <time>2014-10-12T11:19:09.000Z</time>
      </trkpt>
      <trkpt lat="47.49319" lon="6.7733">
        <ele>316</ele>
        <time>2014-10-12T11:19:10.000Z</time>
      </trkpt>
      <trkpt lat="47.49324" lon="6.77332">
        <ele>315.8</ele>
        <time>2014-10-12T11:19:11.000Z</time>
      </trkpt>
      <trkpt lat="47.49329" lon="6.77335">
        <ele>315.8</ele>
        <time>2014-10-12T11:19:12.000Z</time>
      </trkpt>
      <trkpt lat="47.49333" lon="6.7734">
        <ele>315.6</ele>
        <time>2014-10-12T11:19:13.000Z</time>
      </trkpt>
      <trkpt lat="47.49336" lon="6.77344">
        <ele>315.5</ele>
        <time>2014-10-12T11:19:14.000Z</time>
      </trkpt>
      <trkpt lat="47.49341" lon="6.77344">
        <ele>315.2</ele>
        <time>2014-10-12T11:19:15.000Z</time>
      </trkpt>
      <trkpt lat="47.49345" lon="6.77345">
        <ele>314.9</ele>
        <time>2014-10-12T11:19:16.000Z</time>
      </trkpt>
      <trkpt lat="47.4935" lon="6.77346">
        <ele>315.6</ele>
        <time>2014-10-12T11:19:17.000Z</time>
      </trkpt>
      <trkpt lat="47.49355" lon="6.77346">
        <ele>315.7</ele>
        <time>2014-10-12T11:19:18.000Z</time>
      </trkpt>
      <trkpt lat="47.49359" lon="6.77346">
        <ele>315.2</ele>
        <time>2014-10-12T11:19:19.000Z</time>
      </trkpt>
      <trkpt lat="47.49364" lon="6.77346">
        <ele>315.2</ele>
        <time>2014-10-12T11:19:20.000Z</time>
      </trkpt>
      <trkpt lat="47.49369" lon="6.77346">
        <ele>315.3</ele>
        <time>2014-10-12T11:19:21.000Z</time>
      </trkpt>
      <trkpt lat="47.49374" lon="6.77347">
        <ele>315</ele>
        <time>2014-10-12T11:19:22.000Z</time>
      </trkpt>
      <trkpt lat="47.49379" lon="6.77347">
        <ele>315.1</ele>
        <time>2014-10-12T11:19:23.000Z</time>
      </trkpt>
      <trkpt lat="47.49384" lon="6.77348">
        <ele>315.4</ele>
        <time>2014-10-12T11:19:24.000Z</time>
      </trkpt>
      <trkpt lat="47.49389" lon="6.77348">
        <ele>315.3</ele>
        <time>2014-10-12T11:19:25.000Z</time>
      </trkpt>
      <trkpt lat="47.49394" lon="6.77348">
        <ele>315</ele>
        <time>2014-10-12T11:19:26.000Z</time>
      </trkpt>
      <trkpt lat="47.49399" lon="6.77349">
        <ele>314.7</ele>
        <time>2014-10-12T11:19:27.000Z</time>
      </trkpt>
      <trkpt lat="47.49404" lon="6.7735">
        <ele>314.7</ele>
        <time>2014-10-12T11:19:28.000Z</time>
      </trkpt>
      <trkpt lat="47.49409" lon="6.77351">
        <ele>314.7</ele>
        <time>2014-10-12T11:19:29.000Z</time>
      </trkpt>
      <trkpt lat="47.49414" lon="6.77351">
        <ele>314.8</ele>
        <time>2014-10-12T11:19:30.000Z</time>
      </trkpt>
      <trkpt lat="47.49418" lon="6.77352">
        <ele>315</ele>
        <time>2014-10-12T11:19:31.000Z</time>
      </trkpt>
      <trkpt lat="47.49423" lon="6.77352">
        <ele>314.9</ele>
        <time>2014-10-12T11:19:32.000Z</time>
      </trkpt>
      <trkpt lat="47.49428" lon="6.77352">
        <ele>315.3</ele>
        <time>2014-10-12T11:19:33.000Z</time>
      </trkpt>
      <trkpt lat="47.49433" lon="6.77352">
        <ele>315.3</ele>
        <time>2014-10-12T11:19:34.000Z</time>
      </trkpt>
      <trkpt lat="47.49438" lon="6.77353">
        <ele>314.8</ele>
        <time>2014-10-12T11:19:35.000Z</time>
      </trkpt>
      <trkpt lat="47.49442" lon="6.77353">
        <ele>314.3</ele>
        <time>2014-10-12T11:19:36.000Z</time>
      </trkpt>
      <trkpt lat="47.49447" lon="6.77353">
        <ele>314.4</ele>
        <time>2014-10-12T11:19:37.000Z</time>
      </trkpt>
      <trkpt lat="47.49452" lon="6.77354">
        <ele>314.9</ele>
        <time>2014-10-12T11:19:38.000Z</time>
      </trkpt>
      <trkpt lat="47.49457" lon="6.77354">
        <ele>314.8</ele>
        <time>2014-10-12T11:19:39.000Z</time>
      </trkpt>
      <trkpt lat="47.49463" lon="6.77355">
        <ele>314.6</ele>
        <time>2014-10-12T11:19:40.000Z</time>
      </trkpt>
      <trkpt lat="47.49468" lon="6.77355">
        <ele>314.7</ele>
        <time>2014-10-12T11:19:41.000Z</time>
      </trkpt>
      <trkpt lat="47.49472" lon="6.77355">
        <ele>314.6</ele>
        <time>2014-10-12T11:19:42.000Z</time>
      </trkpt>
      <trkpt lat="47.49477" lon="6.77356">
        <ele>314.3</ele>
        <time>2014-10-12T11:19:43.000Z</time>
      </trkpt>
      <trkpt lat="47.49483" lon="6.77356">
        <ele>314</ele>
        <time>2014-10-12T11:19:44.000Z</time>
      </trkpt>
      <trkpt lat="47.49488" lon="6.77356">
        <ele>313.7</ele>
        <time>2014-10-12T11:19:45.000Z</time>
      </trkpt>
      <trkpt lat="47.49493" lon="6.77357">
        <ele>313.1</ele>
        <time>2014-10-12T11:19:46.000Z</time>
      </trkpt>
      <trkpt lat="47.49497" lon="6.77358">
        <ele>312.6</ele>
        <time>2014-10-12T11:19:47.000Z</time>
      </trkpt>
      <trkpt lat="47.49502" lon="6.77358">
        <ele>312.9</ele>
        <time>2014-10-12T11:19:48.000Z</time>
      </trkpt>
      <trkpt lat="47.49539" lon="6.7736">
        <ele>312.2</ele>
        <time>2014-10-12T11:19:56.000Z</time>
      </trkpt>
      <trkpt lat="47.49543" lon="6.77359">
        <ele>311.9</ele>
        <time>2014-10-12T11:19:57.000Z</time>
      </trkpt>
      <trkpt lat="47.49547" lon="6.77359">
        <ele>311.5</ele>
        <time>2014-10-12T11:19:58.000Z</time>
      </trkpt>
      <trkpt lat="47.49553" lon="6.77359">
        <ele>312.3</ele>
        <time>2014-10-12T11:19:59.000Z</time>
      </trkpt>
      <trkpt lat="47.49558" lon="6.7736">
        <ele>312.1</ele>
        <time>2014-10-12T11:20:00.000Z</time>
      </trkpt>
      <trkpt lat="47.49563" lon="6.7736">
        <ele>311.7</ele>
        <time>2014-10-12T11:20:01.000Z</time>
      </trkpt>
      <trkpt lat="47.49567" lon="6.7736">
        <ele>312.2</ele>
        <time>2014-10-12T11:20:02.000Z</time>
      </trkpt>
      <trkpt lat="47.49571" lon="6.7736">
        <ele>312.6</ele>
        <time>2014-10-12T11:20:03.000Z</time>
      </trkpt>
      <trkpt lat="47.49577" lon="6.7736">
        <ele>312</ele>
        <time>2014-10-12T11:20:04.000Z</time>
      </trkpt>
      <trkpt lat="47.49581" lon="6.77359">
        <ele>312.1</ele>
        <time>2014-10-12T11:20:05.000Z</time>
      </trkpt>
      <trkpt lat="47.49587" lon="6.77358">
        <ele>312.1</ele>
        <time>2014-10-12T11:20:06.000Z</time>
      </trkpt>
      <trkpt lat="47.49591" lon="6.77358">
        <ele>311.8</ele>
        <time>2014-10-12T11:20:07.000Z</time>
      </trkpt>
      <trkpt lat="47.49597" lon="6.77357">
        <ele>312.6</ele>
        <time>2014-10-12T11:20:08.000Z</time>
      </trkpt>
      <trkpt lat="47.49602" lon="6.77356">
        <ele>312.8</ele>
        <time>2014-10-12T11:20:09.000Z</time>
      </trkpt>
      <trkpt lat="47.49607" lon="6.77356">
        <ele>312.8</ele>
        <time>2014-10-12T11:20:10.000Z</time>
      </trkpt>
      <trkpt lat="47.49613" lon="6.77354">
        <ele>313.3</ele>
        <time>2014-10-12T11:20:11.000Z</time>
      </trkpt>
      <trkpt lat="47.49617" lon="6.77353">
        <ele>312.5</ele>
        <time>2014-10-12T11:20:12.000Z</time>
      </trkpt>
      <trkpt lat="47.49623" lon="6.77352">
        <ele>313</ele>
        <time>2014-10-12T11:20:13.000Z</time>
      </trkpt>
      <trkpt lat="47.49628" lon="6.77351">
        <ele>313</ele>
        <time>2014-10-12T11:20:14.000Z</time>
      </trkpt>
      <trkpt lat="47.49633" lon="6.77349">
        <ele>313.3</ele>
        <time>2014-10-12T11:20:15.000Z</time>
      </trkpt>
      <trkpt lat="47.49638" lon="6.77349">
        <ele>313.3</ele>
        <time>2014-10-12T11:20:16.000Z</time>
      </trkpt>
      <trkpt lat="47.49644" lon="6.77347">
        <ele>313.9</ele>
        <time>2014-10-12T11:20:17.000Z</time>
      </trkpt>
      <trkpt lat="47.4965" lon="6.77346">
        <ele>314.3</ele>
        <time>2014-10-12T11:20:18.000Z</time>
      </trkpt>
      <trkpt lat="47.49655" lon="6.77344">
        <ele>314.6</ele>
        <time>2014-10-12T11:20:19.000Z</time>
      </trkpt>
      <trkpt lat="47.4966" lon="6.77343">
        <ele>315</ele>
        <time>2014-10-12T11:20:20.000Z</time>
      </trkpt>
      <trkpt lat="47.49665" lon="6.77342">
        <ele>315.1</ele>
        <time>2014-10-12T11:20:21.000Z</time>
      </trkpt>
      <trkpt lat="47.4967" lon="6.77341">
        <ele>314.7</ele>
        <time>2014-10-12T11:20:22.000Z</time>
      </trkpt>
      <trkpt lat="47.49674" lon="6.77339">
        <ele>314.9</ele>
        <time>2014-10-12T11:20:23.000Z</time>
      </trkpt>
      <trkpt lat="47.4968" lon="6.77339">
        <ele>315.2</ele>
        <time>2014-10-12T11:20:24.000Z</time>
      </trkpt>
      <trkpt lat="47.49685" lon="6.77338">
        <ele>316.3</ele>
        <time>2014-10-12T11:20:25.000Z</time>
      </trkpt>
      <trkpt lat="47.49691" lon="6.77337">
        <ele>316.9</ele>
        <time>2014-10-12T11:20:26.000Z</time>
      </trkpt>
      <trkpt lat="47.49695" lon="6.77336">
        <ele>316.7</ele>
        <time>2014-10-12T11:20:27.000Z</time>
      </trkpt>
      <trkpt lat="47.497" lon="6.77335">
        <ele>316.3</ele>
        <time>2014-10-12T11:20:28.000Z</time>
      </trkpt>
      <trkpt lat="47.49704" lon="6.77333">
        <ele>316</ele>
        <time>2014-10-12T11:20:29.000Z</time>
      </trkpt>
      <trkpt lat="47.49709" lon="6.77331">
        <ele>316.4</ele>
        <time>2014-10-12T11:20:30.000Z</time>
      </trkpt>
      <trkpt lat="47.49713" lon="6.77331">
        <ele>316.7</ele>
        <time>2014-10-12T11:20:31.000Z</time>
      </trkpt>
      <trkpt lat="47.49717" lon="6.7733">
        <ele>316.1</ele>
        <time>2014-10-12T11:20:32.000Z</time>
      </trkpt>
      <trkpt lat="47.4972" lon="6.7733">
        <ele>316</ele>
        <time>2014-10-12T11:20:33.000Z</time>
      </trkpt>
      <trkpt lat="47.49723" lon="6.77328">
        <ele>315.6</ele>
        <time>2014-10-12T11:20:34.000Z</time>
      </trkpt>
      <trkpt lat="47.49727" lon="6.77327">
        <ele>315.7</ele>
        <time>2014-10-12T11:20:35.000Z</time>
      </trkpt>
      <trkpt lat="47.49729" lon="6.77325">
        <ele>315.5</ele>
        <time>2014-10-12T11:20:36.000Z</time>
      </trkpt>
      <trkpt lat="47.49731" lon="6.77323">
        <ele>315.2</ele>
        <time>2014-10-12T11:20:37.000Z</time>
      </trkpt>
      <trkpt lat="47.49735" lon="6.77322">
        <ele>314.6</ele>
        <time>2014-10-12T11:21:08.000Z</time>
      </trkpt>
      <trkpt lat="47.49736" lon="6.77321">
        <ele>314.5</ele>
        <time>2014-10-12T11:21:09.000Z</time>
      </trkpt>
      <trkpt lat="47.4974" lon="6.77318">
        <ele>314.9</ele>
        <time>2014-10-12T11:21:11.000Z</time>
      </trkpt>
      <trkpt lat="47.49743" lon="6.77316">
        <ele>314.5</ele>
        <time>2014-10-12T11:21:12.000Z</time>
      </trkpt>
      <trkpt lat="47.49746" lon="6.77314">
        <ele>314.8</ele>
        <time>2014-10-12T11:21:13.000Z</time>
      </trkpt>
      <trkpt lat="47.49749" lon="6.77313">
        <ele>314.9</ele>
        <time>2014-10-12T11:21:14.000Z</time>
      </trkpt>
      <trkpt lat="47.49752" lon="6.77311">
        <ele>314.6</ele>
        <time>2014-10-12T11:21:15.000Z</time>
      </trkpt>
      <trkpt lat="47.49756" lon="6.7731">
        <ele>314.1</ele>
        <time>2014-10-12T11:21:16.000Z</time>
      </trkpt>
      <trkpt lat="47.49759" lon="6.77309">
        <ele>314</ele>
        <time>2014-10-12T11:21:17.000Z</time>
      </trkpt>
      <trkpt lat="47.49763" lon="6.77309">
        <ele>314.6</ele>
        <time>2014-10-12T11:21:18.000Z</time>
      </trkpt>
      <trkpt lat="47.49767" lon="6.77308">
        <ele>314.3</ele>
        <time>2014-10-12T11:21:19.000Z</time>
      </trkpt>
      <trkpt lat="47.49772" lon="6.77308">
        <ele>314.1</ele>
        <time>2014-10-12T11:21:20.000Z</time>
      </trkpt>
      <trkpt lat="47.49777" lon="6.77308">
        <ele>314.2</ele>
        <time>2014-10-12T11:21:21.000Z</time>
      </trkpt>
      <trkpt lat="47.49786" lon="6.77309">
        <ele>314.8</ele>
        <time>2014-10-12T11:21:22.000Z</time>
      </trkpt>
      <trkpt lat="47.49791" lon="6.77308">
        <ele>315</ele>
        <time>2014-10-12T11:21:23.000Z</time>
      </trkpt>
      <trkpt lat="47.49797" lon="6.77307">
        <ele>316.5</ele>
        <time>2014-10-12T11:21:24.000Z</time>
      </trkpt>
      <trkpt lat="47.49803" lon="6.77307">
        <ele>318</ele>
        <time>2014-10-12T11:21:25.000Z</time>
      </trkpt>
      <trkpt lat="47.49808" lon="6.77305">
        <ele>317.5</ele>
        <time>2014-10-12T11:21:26.000Z</time>
      </trkpt>
      <trkpt lat="47.49812" lon="6.77304">
        <ele>316.1</ele>
        <time>2014-10-12T11:21:27.000Z</time>
      </trkpt>
      <trkpt lat="47.49816" lon="6.77302">
        <ele>315.3</ele>
        <time>2014-10-12T11:21:28.000Z</time>
      </trkpt>
      <trkpt lat="47.4982" lon="6.77301">
        <ele>315.2</ele>
        <time>2014-10-12T11:21:29.000Z</time>
      </trkpt>
      <trkpt lat="47.49827" lon="6.77301">
        <ele>316.8</ele>
        <time>2014-10-12T11:21:30.000Z</time>
      </trkpt>
      <trkpt lat="47.49832" lon="6.77302">
        <ele>317.4</ele>
        <time>2014-10-12T11:21:31.000Z</time>
      </trkpt>
      <trkpt lat="47.49837" lon="6.77301">
        <ele>317.3</ele>
        <time>2014-10-12T11:21:32.000Z</time>
      </trkpt>
      <trkpt lat="47.4984" lon="6.773">
        <ele>316.2</ele>
        <time>2014-10-12T11:21:33.000Z</time>
      </trkpt>
      <trkpt lat="47.49845" lon="6.773">
        <ele>315.5</ele>
        <time>2014-10-12T11:21:34.000Z</time>
      </trkpt>
      <trkpt lat="47.49849" lon="6.77299">
        <ele>315.7</ele>
        <time>2014-10-12T11:21:35.000Z</time>
      </trkpt>
      <trkpt lat="47.49856" lon="6.77299">
        <ele>316.9</ele>
        <time>2014-10-12T11:21:36.000Z</time>
      </trkpt>
      <trkpt lat="47.49862" lon="6.77298">
        <ele>317.6</ele>
        <time>2014-10-12T11:21:37.000Z</time>
      </trkpt>
      <trkpt lat="47.49867" lon="6.77296">
        <ele>316.9</ele>
        <time>2014-10-12T11:21:38.000Z</time>
      </trkpt>
      <trkpt lat="47.49872" lon="6.77296">
        <ele>317.1</ele>
        <time>2014-10-12T11:21:39.000Z</time>
      </trkpt>
      <trkpt lat="47.49877" lon="6.77296">
        <ele>317.2</ele>
        <time>2014-10-12T11:21:40.000Z</time>
      </trkpt>
      <trkpt lat="47.49882" lon="6.77294">
        <ele>316.8</ele>
        <time>2014-10-12T11:21:41.000Z</time>
      </trkpt>
      <trkpt lat="47.49884" lon="6.77291">
        <ele>315.1</ele>
        <time>2014-10-12T11:21:42.000Z</time>
      </trkpt>
      <trkpt lat="47.49887" lon="6.77289">
        <ele>314</ele>
        <time>2014-10-12T11:21:43.000Z</time>
      </trkpt>
      <trkpt lat="47.49892" lon="6.77288">
        <ele>314.8</ele>
        <time>2014-10-12T11:21:44.000Z</time>
      </trkpt>
      <trkpt lat="47.49896" lon="6.77286">
        <ele>314</ele>
        <time>2014-10-12T11:21:45.000Z</time>
      </trkpt>
      <trkpt lat="47.499" lon="6.77284">
        <ele>313.9</ele>
        <time>2014-10-12T11:21:46.000Z</time>
      </trkpt>
      <trkpt lat="47.49904" lon="6.77282">
        <ele>313.4</ele>
        <time>2014-10-12T11:21:47.000Z</time>
      </trkpt>
      <trkpt lat="47.49907" lon="6.77276">
        <ele>312.3</ele>
        <time>2014-10-12T11:21:50.000Z</time>
      </trkpt>
      <trkpt lat="47.49909" lon="6.77274">
        <ele>312.1</ele>
        <time>2014-10-12T11:21:51.000Z</time>
      </trkpt>
      <trkpt lat="47.49911" lon="6.77272">
        <ele>311.4</ele>
        <time>2014-10-12T11:21:52.000Z</time>
      </trkpt>
      <trkpt lat="47.49913" lon="6.7727">
        <ele>310.4</ele>
        <time>2014-10-12T11:21:53.000Z</time>
      </trkpt>
      <trkpt lat="47.49916" lon="6.77267">
        <ele>309.4</ele>
        <time>2014-10-12T11:21:54.000Z</time>
      </trkpt>
      <trkpt lat="47.49919" lon="6.77265">
        <ele>309</ele>
        <time>2014-10-12T11:21:55.000Z</time>
      </trkpt>
      <trkpt lat="47.49922" lon="6.77262">
        <ele>307.9</ele>
        <time>2014-10-12T11:21:56.000Z</time>
      </trkpt>
      <trkpt lat="47.49926" lon="6.7726">
        <ele>307.6</ele>
        <time>2014-10-12T11:21:57.000Z</time>
      </trkpt>
      <trkpt lat="47.4993" lon="6.77258">
        <ele>305.7</ele>
        <time>2014-10-12T11:21:58.000Z</time>
      </trkpt>
      <trkpt lat="47.49934" lon="6.77255">
        <ele>304.9</ele>
        <time>2014-10-12T11:21:59.000Z</time>
      </trkpt>
      <trkpt lat="47.49944" lon="6.77251">
        <ele>306.2</ele>
        <time>2014-10-12T11:22:00.000Z</time>
      </trkpt>
      <trkpt lat="47.4995" lon="6.77249">
        <ele>306.7</ele>
        <time>2014-10-12T11:22:01.000Z</time>
      </trkpt>
      <trkpt lat="47.49956" lon="6.77246">
        <ele>307.1</ele>
        <time>2014-10-12T11:22:02.000Z</time>
      </trkpt>
      <trkpt lat="47.49961" lon="6.77244">
        <ele>306.9</ele>
        <time>2014-10-12T11:22:03.000Z</time>
      </trkpt>
      <trkpt lat="47.49967" lon="6.77242">
        <ele>306.7</ele>
        <time>2014-10-12T11:22:04.000Z</time>
      </trkpt>
      <trkpt lat="47.49972" lon="6.77239">
        <ele>306.9</ele>
        <time>2014-10-12T11:22:05.000Z</time>
      </trkpt>
      <trkpt lat="47.49976" lon="6.77238">
        <ele>306.1</ele>
        <time>2014-10-12T11:22:06.000Z</time>
      </trkpt>
      <trkpt lat="47.49981" lon="6.77236">
        <ele>306.3</ele>
        <time>2014-10-12T11:22:07.000Z</time>
      </trkpt>
      <trkpt lat="47.49985" lon="6.77235">
        <ele>305.8</ele>
        <time>2014-10-12T11:22:08.000Z</time>
      </trkpt>
      <trkpt lat="47.49989" lon="6.77233">
        <ele>305.3</ele>
        <time>2014-10-12T11:22:09.000Z</time>
      </trkpt>
      <trkpt lat="47.49992" lon="6.77231">
        <ele>304.9</ele>
        <time>2014-10-12T11:22:10.000Z</time>
      </trkpt>
      <trkpt lat="47.49996" lon="6.77227">
        <ele>302.8</ele>
        <time>2014-10-12T11:22:12.000Z</time>
      </trkpt>
      <trkpt lat="47.49999" lon="6.77226">
        <ele>304.7</ele>
        <time>2014-10-12T11:22:13.000Z</time>
      </trkpt>
      <trkpt lat="47.50002" lon="6.77225">
        <ele>305.8</ele>
        <time>2014-10-12T11:22:14.000Z</time>
      </trkpt>
      <trkpt lat="47.50006" lon="6.77224">
        <ele>306.6</ele>
        <time>2014-10-12T11:22:15.000Z</time>
      </trkpt>
      <trkpt lat="47.5001" lon="6.77223">
        <ele>307</ele>
        <time>2014-10-12T11:22:16.000Z</time>
      </trkpt>
      <trkpt lat="47.50014" lon="6.77221">
        <ele>308.2</ele>
        <time>2014-10-12T11:22:17.000Z</time>
      </trkpt>
      <trkpt lat="47.50018" lon="6.77219">
        <ele>306.5</ele>
        <time>2014-10-12T11:22:18.000Z</time>
      </trkpt>
      <trkpt lat="47.50022" lon="6.77217">
        <ele>306.6</ele>
        <time>2014-10-12T11:22:19.000Z</time>
      </trkpt>
      <trkpt lat="47.50026" lon="6.77215">
        <ele>306.5</ele>
        <time>2014-10-12T11:22:20.000Z</time>
      </trkpt>
      <trkpt lat="47.50029" lon="6.77213">
        <ele>305.3</ele>
        <time>2014-10-12T11:22:21.000Z</time>
      </trkpt>
      <trkpt lat="47.50033" lon="6.77212">
        <ele>306.8</ele>
        <time>2014-10-12T11:22:22.000Z</time>
      </trkpt>
      <trkpt lat="47.50044" lon="6.7721">
        <ele>307.5</ele>
        <time>2014-10-12T11:22:23.000Z</time>
      </trkpt>
      <trkpt lat="47.5005" lon="6.77209">
        <ele>307.3</ele>
        <time>2014-10-12T11:22:24.000Z</time>
      </trkpt>
      <trkpt lat="47.50056" lon="6.77208">
        <ele>308.1</ele>
        <time>2014-10-12T11:22:25.000Z</time>
      </trkpt>
      <trkpt lat="47.50061" lon="6.77206">
        <ele>308.1</ele>
        <time>2014-10-12T11:22:26.000Z</time>
      </trkpt>
      <trkpt lat="47.50067" lon="6.77203">
        <ele>308.2</ele>
        <time>2014-10-12T11:22:27.000Z</time>
      </trkpt>
      <trkpt lat="47.50072" lon="6.77201">
        <ele>308.3</ele>
        <time>2014-10-12T11:22:28.000Z</time>
      </trkpt>
      <trkpt lat="47.50077" lon="6.77199">
        <ele>308.5</ele>
        <time>2014-10-12T11:22:29.000Z</time>
      </trkpt>
      <trkpt lat="47.50083" lon="6.77197">
        <ele>309.6</ele>
        <time>2014-10-12T11:22:30.000Z</time>
      </trkpt>
      <trkpt lat="47.50089" lon="6.77196">
        <ele>310.3</ele>
        <time>2014-10-12T11:22:31.000Z</time>
      </trkpt>
      <trkpt lat="47.50095" lon="6.77197">
        <ele>309.8</ele>
        <time>2014-10-12T11:22:32.000Z</time>
      </trkpt>
      <trkpt lat="47.50103" lon="6.77198">
        <ele>311</ele>
        <time>2014-10-12T11:22:33.000Z</time>
      </trkpt>
      <trkpt lat="47.50109" lon="6.772">
        <ele>311.5</ele>
        <time>2014-10-12T11:22:34.000Z</time>
      </trkpt>
      <trkpt lat="47.50115" lon="6.77201">
        <ele>311.4</ele>
        <time>2014-10-12T11:22:35.000Z</time>
      </trkpt>
      <trkpt lat="47.50122" lon="6.77203">
        <ele>311.6</ele>
        <time>2014-10-12T11:22:36.000Z</time>
      </trkpt>
      <trkpt lat="47.50129" lon="6.77204">
        <ele>311.3</ele>
        <time>2014-10-12T11:22:37.000Z</time>
      </trkpt>
      <trkpt lat="47.50135" lon="6.77206">
        <ele>311</ele>
        <time>2014-10-12T11:22:38.000Z</time>
      </trkpt>
      <trkpt lat="47.50141" lon="6.7721">
        <ele>311.5</ele>
        <time>2014-10-12T11:22:39.000Z</time>
      </trkpt>
      <trkpt lat="47.50146" lon="6.77214">
        <ele>311.5</ele>
        <time>2014-10-12T11:22:40.000Z</time>
      </trkpt>
      <trkpt lat="47.50151" lon="6.7722">
        <ele>311.8</ele>
        <time>2014-10-12T11:22:41.000Z</time>
      </trkpt>
      <trkpt lat="47.50156" lon="6.77224">
        <ele>312.2</ele>
        <time>2014-10-12T11:22:42.000Z</time>
      </trkpt>
      <trkpt lat="47.50161" lon="6.77228">
        <ele>312.1</ele>
        <time>2014-10-12T11:22:43.000Z</time>
      </trkpt>
      <trkpt lat="47.50165" lon="6.77233">
        <ele>311.5</ele>
        <time>2014-10-12T11:22:44.000Z</time>
      </trkpt>
      <trkpt lat="47.50169" lon="6.77237">
        <ele>311.5</ele>
        <time>2014-10-12T11:22:45.000Z</time>
      </trkpt>
      <trkpt lat="47.50174" lon="6.77241">
        <ele>311.7</ele>
        <time>2014-10-12T11:22:46.000Z</time>
      </trkpt>
      <trkpt lat="47.50179" lon="6.77245">
        <ele>312.1</ele>
        <time>2014-10-12T11:22:47.000Z</time>
      </trkpt>
      <trkpt lat="47.50218" lon="6.77276">
        <ele>312.8</ele>
        <time>2014-10-12T11:22:56.000Z</time>
      </trkpt>
      <trkpt lat="47.50223" lon="6.77281">
        <ele>313.5</ele>
        <time>2014-10-12T11:22:57.000Z</time>
      </trkpt>
      <trkpt lat="47.50228" lon="6.77283">
        <ele>314</ele>
        <time>2014-10-12T11:22:58.000Z</time>
      </trkpt>
      <trkpt lat="47.50233" lon="6.77285">
        <ele>313.7</ele>
        <time>2014-10-12T11:22:59.000Z</time>
      </trkpt>
      <trkpt lat="47.50238" lon="6.77289">
        <ele>314.6</ele>
        <time>2014-10-12T11:23:00.000Z</time>
      </trkpt>
      <trkpt lat="47.50241" lon="6.77292">
        <ele>313.7</ele>
        <time>2014-10-12T11:23:01.000Z</time>
      </trkpt>
      <trkpt lat="47.50245" lon="6.77295">
        <ele>313.7</ele>
        <time>2014-10-12T11:23:02.000Z</time>
      </trkpt>
      <trkpt lat="47.50251" lon="6.77297">
        <ele>314</ele>
        <time>2014-10-12T11:23:03.000Z</time>
      </trkpt>
      <trkpt lat="47.50255" lon="6.773">
        <ele>313.4</ele>
        <time>2014-10-12T11:23:04.000Z</time>
      </trkpt>
      <trkpt lat="47.5026" lon="6.77304">
        <ele>313.4</ele>
        <time>2014-10-12T11:23:05.000Z</time>
      </trkpt>
      <trkpt lat="47.50266" lon="6.77307">
        <ele>314.1</ele>
        <time>2014-10-12T11:23:06.000Z</time>
      </trkpt>
      <trkpt lat="47.5027" lon="6.7731">
        <ele>314.2</ele>
        <time>2014-10-12T11:23:07.000Z</time>
      </trkpt>
      <trkpt lat="47.50275" lon="6.77313">
        <ele>314.5</ele>
        <time>2014-10-12T11:23:08.000Z</time>
      </trkpt>
      <trkpt lat="47.5028" lon="6.77316">
        <ele>314.5</ele>
        <time>2014-10-12T11:23:09.000Z</time>
      </trkpt>
      <trkpt lat="47.50285" lon="6.77318">
        <ele>314.8</ele>
        <time>2014-10-12T11:23:10.000Z</time>
      </trkpt>
      <trkpt lat="47.50289" lon="6.77321">
        <ele>315.1</ele>
        <time>2014-10-12T11:23:11.000Z</time>
      </trkpt>
      <trkpt lat="47.50292" lon="6.77326">
        <ele>313.9</ele>
        <time>2014-10-12T11:23:12.000Z</time>
      </trkpt>
      <trkpt lat="47.50296" lon="6.7733">
        <ele>313.2</ele>
        <time>2014-10-12T11:23:13.000Z</time>
      </trkpt>
      <trkpt lat="47.50301" lon="6.77334">
        <ele>313.3</ele>
        <time>2014-10-12T11:23:14.000Z</time>
      </trkpt>
      <trkpt lat="47.50305" lon="6.77338">
        <ele>313.5</ele>
        <time>2014-10-12T11:23:15.000Z</time>
      </trkpt>
      <trkpt lat="47.5031" lon="6.77341">
        <ele>313.1</ele>
        <time>2014-10-12T11:23:16.000Z</time>
      </trkpt>
      <trkpt lat="47.50314" lon="6.77345">
        <ele>313.3</ele>
        <time>2014-10-12T11:23:17.000Z</time>
      </trkpt>
      <trkpt lat="47.50319" lon="6.77349">
        <ele>312.9</ele>
        <time>2014-10-12T11:23:18.000Z</time>
      </trkpt>
      <trkpt lat="47.50323" lon="6.77352">
        <ele>312.9</ele>
        <time>2014-10-12T11:23:19.000Z</time>
      </trkpt>
      <trkpt lat="47.50328" lon="6.77355">
        <ele>313.1</ele>
        <time>2014-10-12T11:23:20.000Z</time>
      </trkpt>
      <trkpt lat="47.50332" lon="6.77359">
        <ele>312.8</ele>
        <time>2014-10-12T11:23:21.000Z</time>
      </trkpt>
      <trkpt lat="47.50337" lon="6.77362">
        <ele>313.3</ele>
        <time>2014-10-12T11:23:22.000Z</time>
      </trkpt>
      <trkpt lat="47.50342" lon="6.77365">
        <ele>313.3</ele>
        <time>2014-10-12T11:23:23.000Z</time>
      </trkpt>
      <trkpt lat="47.50346" lon="6.77369">
        <ele>312.9</ele>
        <time>2014-10-12T11:23:24.000Z</time>
      </trkpt>
      <trkpt lat="47.50351" lon="6.77373">
        <ele>313.4</ele>
        <time>2014-10-12T11:23:25.000Z</time>
      </trkpt>
      <trkpt lat="47.50356" lon="6.77376">
        <ele>313.5</ele>
        <time>2014-10-12T11:23:26.000Z</time>
      </trkpt>
      <trkpt lat="47.5036" lon="6.7738">
        <ele>313.5</ele>
        <time>2014-10-12T11:23:27.000Z</time>
      </trkpt>
      <trkpt lat="47.50365" lon="6.77384">
        <ele>313.7</ele>
        <time>2014-10-12T11:23:28.000Z</time>
      </trkpt>
      <trkpt lat="47.50369" lon="6.77387">
        <ele>313.2</ele>
        <time>2014-10-12T11:23:29.000Z</time>
      </trkpt>
      <trkpt lat="47.50373" lon="6.7739">
        <ele>312.7</ele>
        <time>2014-10-12T11:23:30.000Z</time>
      </trkpt>
      <trkpt lat="47.50378" lon="6.77394">
        <ele>312.7</ele>
        <time>2014-10-12T11:23:31.000Z</time>
      </trkpt>
      <trkpt lat="47.50382" lon="6.77397">
        <ele>312.9</ele>
        <time>2014-10-12T11:23:32.000Z</time>
      </trkpt>
      <trkpt lat="47.50387" lon="6.774">
        <ele>312.9</ele>
        <time>2014-10-12T11:23:33.000Z</time>
      </trkpt>
      <trkpt lat="47.5039" lon="6.77404">
        <ele>312.7</ele>
        <time>2014-10-12T11:23:34.000Z</time>
      </trkpt>
      <trkpt lat="47.50395" lon="6.77408">
        <ele>313</ele>
        <time>2014-10-12T11:23:35.000Z</time>
      </trkpt>
      <trkpt lat="47.50399" lon="6.77411">
        <ele>313</ele>
        <time>2014-10-12T11:23:36.000Z</time>
      </trkpt>
      <trkpt lat="47.50403" lon="6.77415">
        <ele>312.3</ele>
        <time>2014-10-12T11:23:37.000Z</time>
      </trkpt>
      <trkpt lat="47.50407" lon="6.7742">
        <ele>312.1</ele>
        <time>2014-10-12T11:23:38.000Z</time>
      </trkpt>
      <trkpt lat="47.50411" lon="6.77424">
        <ele>312.2</ele>
        <time>2014-10-12T11:23:39.000Z</time>
      </trkpt>
      <trkpt lat="47.50415" lon="6.77427">
        <ele>312.2</ele>
        <time>2014-10-12T11:23:40.000Z</time>
      </trkpt>
      <trkpt lat="47.50419" lon="6.7743">
        <ele>312.8</ele>
        <time>2014-10-12T11:23:41.000Z</time>
      </trkpt>
      <trkpt lat="47.50423" lon="6.77434">
        <ele>312.9</ele>
        <time>2014-10-12T11:23:42.000Z</time>
      </trkpt>
      <trkpt lat="47.50428" lon="6.77438">
        <ele>312</ele>
        <time>2014-10-12T11:23:43.000Z</time>
      </trkpt>
      <trkpt lat="47.50432" lon="6.77441">
        <ele>311.7</ele>
        <time>2014-10-12T11:23:44.000Z</time>
      </trkpt>
      <trkpt lat="47.50436" lon="6.77446">
        <ele>312.3</ele>
        <time>2014-10-12T11:23:45.000Z</time>
      </trkpt>
      <trkpt lat="47.50441" lon="6.7745">
        <ele>312.5</ele>
        <time>2014-10-12T11:23:46.000Z</time>
      </trkpt>
      <trkpt lat="47.50446" lon="6.77455">
        <ele>312.8</ele>
        <time>2014-10-12T11:23:47.000Z</time>
      </trkpt>
      <trkpt lat="47.50452" lon="6.77464">
        <ele>309.6</ele>
        <time>2014-10-12T11:23:50.000Z</time>
      </trkpt>
      <trkpt lat="47.50455" lon="6.77469">
        <ele>309.6</ele>
        <time>2014-10-12T11:23:51.000Z</time>
      </trkpt>
      <trkpt lat="47.50459" lon="6.77471">
        <ele>309.5</ele>
        <time>2014-10-12T11:23:52.000Z</time>
      </trkpt>
      <trkpt lat="47.50464" lon="6.77477">
        <ele>309</ele>
        <time>2014-10-12T11:23:53.000Z</time>
      </trkpt>
      <trkpt lat="47.5047" lon="6.77481">
        <ele>308.5</ele>
        <time>2014-10-12T11:23:54.000Z</time>
      </trkpt>
      <trkpt lat="47.50475" lon="6.77484">
        <ele>308.5</ele>
        <time>2014-10-12T11:23:55.000Z</time>
      </trkpt>
      <trkpt lat="47.50479" lon="6.77488">
        <ele>309</ele>
        <time>2014-10-12T11:23:56.000Z</time>
      </trkpt>
      <trkpt lat="47.50484" lon="6.77491">
        <ele>308.9</ele>
        <time>2014-10-12T11:23:57.000Z</time>
      </trkpt>
      <trkpt lat="47.50489" lon="6.77495">
        <ele>309.1</ele>
        <time>2014-10-12T11:23:58.000Z</time>
      </trkpt>
      <trkpt lat="47.50493" lon="6.77499">
        <ele>310.1</ele>
        <time>2014-10-12T11:23:59.000Z</time>
      </trkpt>
      <trkpt lat="47.50498" lon="6.77501">
        <ele>310.2</ele>
        <time>2014-10-12T11:24:00.000Z</time>
      </trkpt>
      <trkpt lat="47.50504" lon="6.77504">
        <ele>310.8</ele>
        <time>2014-10-12T11:24:01.000Z</time>
      </trkpt>
      <trkpt lat="47.50509" lon="6.77507">
        <ele>310.5</ele>
        <time>2014-10-12T11:24:02.000Z</time>
      </trkpt>
      <trkpt lat="47.50514" lon="6.7751">
        <ele>311.5</ele>
        <time>2014-10-12T11:24:03.000Z</time>
      </trkpt>
      <trkpt lat="47.5052" lon="6.77513">
        <ele>312.8</ele>
        <time>2014-10-12T11:24:04.000Z</time>
      </trkpt>
      <trkpt lat="47.50525" lon="6.77516">
        <ele>313</ele>
        <time>2014-10-12T11:24:05.000Z</time>
      </trkpt>
      <trkpt lat="47.5053" lon="6.77519">
        <ele>313.4</ele>
        <time>2014-10-12T11:24:06.000Z</time>
      </trkpt>
      <trkpt lat="47.50534" lon="6.77523">
        <ele>312.4</ele>
        <time>2014-10-12T11:24:07.000Z</time>
      </trkpt>
      <trkpt lat="47.50537" lon="6.77526">
        <ele>312.2</ele>
        <time>2014-10-12T11:24:08.000Z</time>
      </trkpt>
      <trkpt lat="47.5054" lon="6.77531">
        <ele>312</ele>
        <time>2014-10-12T11:24:09.000Z</time>
      </trkpt>
      <trkpt lat="47.50545" lon="6.77537">
        <ele>312.8</ele>
        <time>2014-10-12T11:24:10.000Z</time>
      </trkpt>
      <trkpt lat="47.50548" lon="6.77542">
        <ele>313.4</ele>
        <time>2014-10-12T11:24:11.000Z</time>
      </trkpt>
      <trkpt lat="47.5055" lon="6.77547">
        <ele>313.8</ele>
        <time>2014-10-12T11:24:12.000Z</time>
      </trkpt>
      <trkpt lat="47.50554" lon="6.77551">
        <ele>314</ele>
        <time>2014-10-12T11:24:13.000Z</time>
      </trkpt>
      <trkpt lat="47.50556" lon="6.77554">
        <ele>313.8</ele>
        <time>2014-10-12T11:24:14.000Z</time>
      </trkpt>
      <trkpt lat="47.50562" lon="6.77555">
        <ele>314.3</ele>
        <time>2014-10-12T11:24:15.000Z</time>
      </trkpt>
      <trkpt lat="47.50566" lon="6.77556">
        <ele>314.8</ele>
        <time>2014-10-12T11:24:16.000Z</time>
      </trkpt>
      <trkpt lat="47.5057" lon="6.77554">
        <ele>314.7</ele>
        <time>2014-10-12T11:24:17.000Z</time>
      </trkpt>
      <trkpt lat="47.50573" lon="6.77549">
        <ele>314.5</ele>
        <time>2014-10-12T11:24:18.000Z</time>
      </trkpt>
      <trkpt lat="47.50577" lon="6.77546">
        <ele>314.9</ele>
        <time>2014-10-12T11:24:19.000Z</time>
      </trkpt>
      <trkpt lat="47.50581" lon="6.77543">
        <ele>315.2</ele>
        <time>2014-10-12T11:24:20.000Z</time>
      </trkpt>
      <trkpt lat="47.50584" lon="6.7754">
        <ele>315</ele>
        <time>2014-10-12T11:24:21.000Z</time>
      </trkpt>
      <trkpt lat="47.50593" lon="6.77539">
        <ele>316.1</ele>
        <time>2014-10-12T11:24:22.000Z</time>
      </trkpt>
      <trkpt lat="47.50598" lon="6.77537">
        <ele>315.9</ele>
        <time>2014-10-12T11:24:23.000Z</time>
      </trkpt>
      <trkpt lat="47.50603" lon="6.77537">
        <ele>316.6</ele>
        <time>2014-10-12T11:24:24.000Z</time>
      </trkpt>
      <trkpt lat="47.50607" lon="6.77537">
        <ele>317.1</ele>
        <time>2014-10-12T11:24:25.000Z</time>
      </trkpt>
      <trkpt lat="47.50611" lon="6.77537">
        <ele>316.3</ele>
        <time>2014-10-12T11:24:26.000Z</time>
      </trkpt>
      <trkpt lat="47.50616" lon="6.77537">
        <ele>316.7</ele>
        <time>2014-10-12T11:24:27.000Z</time>
      </trkpt>
      <trkpt lat="47.5062" lon="6.77538">
        <ele>317.3</ele>
        <time>2014-10-12T11:24:28.000Z</time>
      </trkpt>
      <trkpt lat="47.50623" lon="6.77538">
        <ele>318.1</ele>
        <time>2014-10-12T11:24:29.000Z</time>
      </trkpt>
      <trkpt lat="47.50628" lon="6.77534">
        <ele>319.2</ele>
        <time>2014-10-12T11:24:30.000Z</time>
      </trkpt>
      <trkpt lat="47.50633" lon="6.77534">
        <ele>319.2</ele>
        <time>2014-10-12T11:24:31.000Z</time>
      </trkpt>
      <trkpt lat="47.50637" lon="6.77534">
        <ele>319.5</ele>
        <time>2014-10-12T11:24:32.000Z</time>
      </trkpt>
      <trkpt lat="47.50642" lon="6.77533">
        <ele>319.4</ele>
        <time>2014-10-12T11:24:33.000Z</time>
      </trkpt>
      <trkpt lat="47.50645" lon="6.77533">
        <ele>319.2</ele>
        <time>2014-10-12T11:24:34.000Z</time>
      </trkpt>
      <trkpt lat="47.5065" lon="6.77532">
        <ele>317.9</ele>
        <time>2014-10-12T11:24:35.000Z</time>
      </trkpt>
      <trkpt lat="47.50655" lon="6.77533">
        <ele>318.5</ele>
        <time>2014-10-12T11:24:36.000Z</time>
      </trkpt>
      <trkpt lat="47.5066" lon="6.77533">
        <ele>315.8</ele>
        <time>2014-10-12T11:24:37.000Z</time>
      </trkpt>
      <trkpt lat="47.50664" lon="6.77532">
        <ele>314.6</ele>
        <time>2014-10-12T11:24:38.000Z</time>
      </trkpt>
      <trkpt lat="47.50668" lon="6.77529">
        <ele>311.8</ele>
        <time>2014-10-12T11:24:39.000Z</time>
      </trkpt>
      <trkpt lat="47.50674" lon="6.7753">
        <ele>313.6</ele>
        <time>2014-10-12T11:24:40.000Z</time>
      </trkpt>
      <trkpt lat="47.50679" lon="6.77529">
        <ele>314.4</ele>
        <time>2014-10-12T11:24:41.000Z</time>
      </trkpt>
      <trkpt lat="47.50684" lon="6.77528">
        <ele>314.1</ele>
        <time>2014-10-12T11:24:42.000Z</time>
      </trkpt>
      <trkpt lat="47.50689" lon="6.77528">
        <ele>314.8</ele>
        <time>2014-10-12T11:24:43.000Z</time>
      </trkpt>
      <trkpt lat="47.50694" lon="6.77527">
        <ele>314.9</ele>
        <time>2014-10-12T11:24:44.000Z</time>
      </trkpt>
      <trkpt lat="47.50699" lon="6.77527">
        <ele>315.1</ele>
        <time>2014-10-12T11:24:45.000Z</time>
      </trkpt>
      <trkpt lat="47.50705" lon="6.77528">
        <ele>315.5</ele>
        <time>2014-10-12T11:24:46.000Z</time>
      </trkpt>
      <trkpt lat="47.5071" lon="6.7753">
        <ele>315.5</ele>
        <time>2014-10-12T11:24:47.000Z</time>
      </trkpt>
      <trkpt lat="47.50721" lon="6.77536">
        <ele>314.7</ele>
        <time>2014-10-12T11:24:50.000Z</time>
      </trkpt>
      <trkpt lat="47.50725" lon="6.7754">
        <ele>315.2</ele>
        <time>2014-10-12T11:24:51.000Z</time>
      </trkpt>
      <trkpt lat="47.50731" lon="6.77544">
        <ele>315.2</ele>
        <time>2014-10-12T11:24:52.000Z</time>
      </trkpt>
      <trkpt lat="47.50737" lon="6.77547">
        <ele>315.7</ele>
        <time>2014-10-12T11:24:53.000Z</time>
      </trkpt>
      <trkpt lat="47.50738" lon="6.77554">
        <ele>312.1</ele>
        <time>2014-10-12T11:24:54.000Z</time>
      </trkpt>
      <trkpt lat="47.50744" lon="6.77557">
        <ele>312.4</ele>
        <time>2014-10-12T11:24:55.000Z</time>
      </trkpt>
      <trkpt lat="47.50748" lon="6.77561">
        <ele>312.7</ele>
        <time>2014-10-12T11:24:56.000Z</time>
      </trkpt>
      <trkpt lat="47.50752" lon="6.77565">
        <ele>312.8</ele>
        <time>2014-10-12T11:24:57.000Z</time>
      </trkpt>
      <trkpt lat="47.50754" lon="6.77566">
        <ele>313.7</ele>
        <time>2014-10-12T11:24:58.000Z</time>
      </trkpt>
      <trkpt lat="47.50762" lon="6.77568">
        <ele>314</ele>
        <time>2014-10-12T11:24:59.000Z</time>
      </trkpt>
      <trkpt lat="47.50766" lon="6.77572">
        <ele>314.3</ele>
        <time>2014-10-12T11:25:00.000Z</time>
      </trkpt>
      <trkpt lat="47.50773" lon="6.77575">
        <ele>317.4</ele>
        <time>2014-10-12T11:25:01.000Z</time>
      </trkpt>
      <trkpt lat="47.50777" lon="6.7758">
        <ele>318.5</ele>
        <time>2014-10-12T11:25:02.000Z</time>
      </trkpt>
      <trkpt lat="47.50782" lon="6.77583">
        <ele>318.6</ele>
        <time>2014-10-12T11:25:03.000Z</time>
      </trkpt>
      <trkpt lat="47.50787" lon="6.77589">
        <ele>317.9</ele>
        <time>2014-10-12T11:25:04.000Z</time>
      </trkpt>
      <trkpt lat="47.50791" lon="6.77593">
        <ele>317.8</ele>
        <time>2014-10-12T11:25:05.000Z</time>
      </trkpt>
      <trkpt lat="47.50794" lon="6.77597">
        <ele>317.9</ele>
        <time>2014-10-12T11:25:06.000Z</time>
      </trkpt>
      <trkpt lat="47.50799" lon="6.77601">
        <ele>317</ele>
        <time>2014-10-12T11:25:07.000Z</time>
      </trkpt>
      <trkpt lat="47.50804" lon="6.77606">
        <ele>315.9</ele>
        <time>2014-10-12T11:25:08.000Z</time>
      </trkpt>
      <trkpt lat="47.50809" lon="6.77611">
        <ele>315.6</ele>
        <time>2014-10-12T11:25:09.000Z</time>
      </trkpt>
      <trkpt lat="47.50814" lon="6.77615">
        <ele>315</ele>
        <time>2014-10-12T11:25:10.000Z</time>
      </trkpt>
      <trkpt lat="47.50818" lon="6.77621">
        <ele>314.7</ele>
        <time>2014-10-12T11:25:11.000Z</time>
      </trkpt>
      <trkpt lat="47.50824" lon="6.77626">
        <ele>314.9</ele>
        <time>2014-10-12T11:25:12.000Z</time>
      </trkpt>
      <trkpt lat="47.50828" lon="6.7763">
        <ele>315.1</ele>
        <time>2014-10-12T11:25:13.000Z</time>
      </trkpt>
      <trkpt lat="47.50833" lon="6.77635">
        <ele>315.1</ele>
        <time>2014-10-12T11:25:14.000Z</time>
      </trkpt>
      <trkpt lat="47.50837" lon="6.77639">
        <ele>315.6</ele>
        <time>2014-10-12T11:25:15.000Z</time>
      </trkpt>
      <trkpt lat="47.50842" lon="6.77643">
        <ele>316.7</ele>
        <time>2014-10-12T11:25:16.000Z</time>
      </trkpt>
      <trkpt lat="47.50847" lon="6.77647">
        <ele>317.3</ele>
        <time>2014-10-12T11:25:17.000Z</time>
      </trkpt>
      <trkpt lat="47.50851" lon="6.77649">
        <ele>317.1</ele>
        <time>2014-10-12T11:25:18.000Z</time>
      </trkpt>
      <trkpt lat="47.50853" lon="6.77654">
        <ele>317.2</ele>
        <time>2014-10-12T11:25:19.000Z</time>
      </trkpt>
      <trkpt lat="47.50855" lon="6.77658">
        <ele>316.2</ele>
        <time>2014-10-12T11:25:20.000Z</time>
      </trkpt>
      <trkpt lat="47.50857" lon="6.77662">
        <ele>316.1</ele>
        <time>2014-10-12T11:25:21.000Z</time>
      </trkpt>
      <trkpt lat="47.50859" lon="6.77668">
        <ele>316.5</ele>
        <time>2014-10-12T11:25:22.000Z</time>
      </trkpt>
      <trkpt lat="47.50862" lon="6.77672">
        <ele>316.4</ele>
        <time>2014-10-12T11:25:23.000Z</time>
      </trkpt>
      <trkpt lat="47.50863" lon="6.77675">
        <ele>314</ele>
        <time>2014-10-12T11:25:24.000Z</time>
      </trkpt>
      <trkpt lat="47.50866" lon="6.77678">
        <ele>313.9</ele>
        <time>2014-10-12T11:25:25.000Z</time>
      </trkpt>
      <trkpt lat="47.50868" lon="6.77682">
        <ele>313</ele>
        <time>2014-10-12T11:25:26.000Z</time>
      </trkpt>
      <trkpt lat="47.50869" lon="6.77686">
        <ele>313.2</ele>
        <time>2014-10-12T11:25:27.000Z</time>
      </trkpt>
      <trkpt lat="47.5087" lon="6.77689">
        <ele>312.7</ele>
        <time>2014-10-12T11:25:28.000Z</time>
      </trkpt>
      <trkpt lat="47.50871" lon="6.77692">
        <ele>312.1</ele>
        <time>2014-10-12T11:25:29.000Z</time>
      </trkpt>
      <trkpt lat="47.50873" lon="6.77696">
        <ele>309.7</ele>
        <time>2014-10-12T11:25:30.000Z</time>
      </trkpt>
      <trkpt lat="47.50874" lon="6.77699">
        <ele>308.7</ele>
        <time>2014-10-12T11:25:31.000Z</time>
      </trkpt>
      <trkpt lat="47.50876" lon="6.77702">
        <ele>307.9</ele>
        <time>2014-10-12T11:25:32.000Z</time>
      </trkpt>
      <trkpt lat="47.50877" lon="6.77704">
        <ele>307.6</ele>
        <time>2014-10-12T11:25:33.000Z</time>
      </trkpt>
      <trkpt lat="47.5088" lon="6.77705">
        <ele>308.5</ele>
        <time>2014-10-12T11:25:34.000Z</time>
      </trkpt>
      <trkpt lat="47.50882" lon="6.77706">
        <ele>309.9</ele>
        <time>2014-10-12T11:25:35.000Z</time>
      </trkpt>
      <trkpt lat="47.50884" lon="6.77705">
        <ele>310.7</ele>
        <time>2014-10-12T11:25:36.000Z</time>
      </trkpt>
      <trkpt lat="47.50887" lon="6.77704">
        <ele>310.8</ele>
        <time>2014-10-12T11:25:37.000Z</time>
      </trkpt>
      <trkpt lat="47.50889" lon="6.77703">
        <ele>311</ele>
        <time>2014-10-12T11:25:38.000Z</time>
      </trkpt>
      <trkpt lat="47.50892" lon="6.77702">
        <ele>311.6</ele>
        <time>2014-10-12T11:25:39.000Z</time>
      </trkpt>
      <trkpt lat="47.50895" lon="6.77701">
        <ele>312.6</ele>
        <time>2014-10-12T11:25:40.000Z</time>
      </trkpt>
      <trkpt lat="47.50898" lon="6.77699">
        <ele>312.8</ele>
        <time>2014-10-12T11:25:41.000Z</time>
      </trkpt>
      <trkpt lat="47.509" lon="6.77699">
        <ele>309.6</ele>
        <time>2014-10-12T11:25:42.000Z</time>
      </trkpt>
      <trkpt lat="47.50903" lon="6.77699">
        <ele>309.4</ele>
        <time>2014-10-12T11:25:43.000Z</time>
      </trkpt>
      <trkpt lat="47.50906" lon="6.777">
        <ele>308</ele>
        <time>2014-10-12T11:25:44.000Z</time>
      </trkpt>
      <trkpt lat="47.50909" lon="6.77701">
        <ele>307.2</ele>
        <time>2014-10-12T11:25:45.000Z</time>
      </trkpt>
      <trkpt lat="47.50911" lon="6.77702">
        <ele>308.6</ele>
        <time>2014-10-12T11:25:46.000Z</time>
      </trkpt>
      <trkpt lat="47.50914" lon="6.77703">
        <ele>310</ele>
        <time>2014-10-12T11:25:47.000Z</time>
      </trkpt>
      <trkpt lat="47.50924" lon="6.77701">
        <ele>310.7</ele>
        <time>2014-10-12T11:25:50.000Z</time>
      </trkpt>
      <trkpt lat="47.50926" lon="6.77701">
        <ele>312.4</ele>
        <time>2014-10-12T11:25:51.000Z</time>
      </trkpt>
      <trkpt lat="47.50929" lon="6.77702">
        <ele>313.5</ele>
        <time>2014-10-12T11:25:52.000Z</time>
      </trkpt>
      <trkpt lat="47.50933" lon="6.77703">
        <ele>314.5</ele>
        <time>2014-10-12T11:25:54.000Z</time>
      </trkpt>
      <trkpt lat="47.50935" lon="6.77704">
        <ele>315.1</ele>
        <time>2014-10-12T11:25:55.000Z</time>
      </trkpt>
      <trkpt lat="47.50937" lon="6.77703">
        <ele>315.7</ele>
        <time>2014-10-12T11:25:56.000Z</time>
      </trkpt>
      <trkpt lat="47.50939" lon="6.777">
        <ele>317.3</ele>
        <time>2014-10-12T11:25:57.000Z</time>
      </trkpt>
      <trkpt lat="47.50942" lon="6.77697">
        <ele>317.6</ele>
        <time>2014-10-12T11:25:58.000Z</time>
      </trkpt>
      <trkpt lat="47.50944" lon="6.77694">
        <ele>315.8</ele>
        <time>2014-10-12T11:25:59.000Z</time>
      </trkpt>
      <trkpt lat="47.50947" lon="6.77692">
        <ele>316.6</ele>
        <time>2014-10-12T11:26:00.000Z</time>
      </trkpt>
      <trkpt lat="47.5095" lon="6.77692">
        <ele>317.7</ele>
        <time>2014-10-12T11:26:01.000Z</time>
      </trkpt>
      <trkpt lat="47.50954" lon="6.77694">
        <ele>318.1</ele>
        <time>2014-10-12T11:26:02.000Z</time>
      </trkpt>
      <trkpt lat="47.50958" lon="6.77698">
        <ele>319.8</ele>
        <time>2014-10-12T11:26:03.000Z</time>
      </trkpt>
      <trkpt lat="47.50962" lon="6.77701">
        <ele>320.6</ele>
        <time>2014-10-12T11:26:04.000Z</time>
      </trkpt>
      <trkpt lat="47.50965" lon="6.77703">
        <ele>320.5</ele>
        <time>2014-10-12T11:26:05.000Z</time>
      </trkpt>
      <trkpt lat="47.50969" lon="6.77705">
        <ele>320.5</ele>
        <time>2014-10-12T11:26:06.000Z</time>
      </trkpt>
      <trkpt lat="47.50972" lon="6.77708">
        <ele>320.1</ele>
        <time>2014-10-12T11:26:07.000Z</time>
      </trkpt>
      <trkpt lat="47.50976" lon="6.7771">
        <ele>321.2</ele>
        <time>2014-10-12T11:26:08.000Z</time>
      </trkpt>
      <trkpt lat="47.5098" lon="6.77712">
        <ele>319.7</ele>
        <time>2014-10-12T11:26:09.000Z</time>
      </trkpt>
      <trkpt lat="47.50984" lon="6.77714">
        <ele>318.7</ele>
        <time>2014-10-12T11:26:10.000Z</time>
      </trkpt>
      <trkpt lat="47.50987" lon="6.77717">
        <ele>318.6</ele>
        <time>2014-10-12T11:26:11.000Z</time>
      </trkpt>
      <trkpt lat="47.50991" lon="6.7772">
        <ele>318.8</ele>
        <time>2014-10-12T11:26:12.000Z</time>
      </trkpt>
      <trkpt lat="47.50994" lon="6.77723">
        <ele>318.4</ele>
        <time>2014-10-12T11:26:13.000Z</time>
      </trkpt>
      <trkpt lat="47.50997" lon="6.77726">
        <ele>318.6</ele>
        <time>2014-10-12T11:26:14.000Z</time>
      </trkpt>
      <trkpt lat="47.51" lon="6.77729">
        <ele>318.2</ele>
        <time>2014-10-12T11:26:15.000Z</time>
      </trkpt>
      <trkpt lat="47.51002" lon="6.77732">
        <ele>317.9</ele>
        <time>2014-10-12T11:26:16.000Z</time>
      </trkpt>
      <trkpt lat="47.51006" lon="6.77736">
        <ele>319.5</ele>
        <time>2014-10-12T11:26:17.000Z</time>
      </trkpt>
      <trkpt lat="47.51009" lon="6.77739">
        <ele>319.5</ele>
        <time>2014-10-12T11:26:18.000Z</time>
      </trkpt>
      <trkpt lat="47.51012" lon="6.77742">
        <ele>319.8</ele>
        <time>2014-10-12T11:26:19.000Z</time>
      </trkpt>
      <trkpt lat="47.51015" lon="6.77744">
        <ele>316</ele>
        <time>2014-10-12T11:26:20.000Z</time>
      </trkpt>
      <trkpt lat="47.51017" lon="6.77746">
        <ele>315.5</ele>
        <time>2014-10-12T11:26:21.000Z</time>
      </trkpt>
      <trkpt lat="47.51019" lon="6.77749">
        <ele>314.7</ele>
        <time>2014-10-12T11:26:22.000Z</time>
      </trkpt>
      <trkpt lat="47.51022" lon="6.77751">
        <ele>314.4</ele>
        <time>2014-10-12T11:26:23.000Z</time>
      </trkpt>
      <trkpt lat="47.51025" lon="6.77754">
        <ele>314.3</ele>
        <time>2014-10-12T11:26:24.000Z</time>
      </trkpt>
      <trkpt lat="47.51028" lon="6.77755">
        <ele>313.8</ele>
        <time>2014-10-12T11:26:25.000Z</time>
      </trkpt>
      <trkpt lat="47.51029" lon="6.77761">
        <ele>304</ele>
        <time>2014-10-12T11:26:28.000Z</time>
      </trkpt>
      <trkpt lat="47.51029" lon="6.77763">
        <ele>304.8</ele>
        <time>2014-10-12T11:26:29.000Z</time>
      </trkpt>
      <trkpt lat="47.51032" lon="6.77768">
        <ele>306.6</ele>
        <time>2014-10-12T11:26:31.000Z</time>
      </trkpt>
      <trkpt lat="47.51035" lon="6.77769">
        <ele>308.1</ele>
        <time>2014-10-12T11:26:32.000Z</time>
      </trkpt>
      <trkpt lat="47.51038" lon="6.7777">
        <ele>309.1</ele>
        <time>2014-10-12T11:26:33.000Z</time>
      </trkpt>
      <trkpt lat="47.51042" lon="6.77772">
        <ele>310.2</ele>
        <time>2014-10-12T11:26:34.000Z</time>
      </trkpt>
      <trkpt lat="47.51045" lon="6.77774">
        <ele>308.2</ele>
        <time>2014-10-12T11:26:35.000Z</time>
      </trkpt>
      <trkpt lat="47.51047" lon="6.77776">
        <ele>307.6</ele>
        <time>2014-10-12T11:26:36.000Z</time>
      </trkpt>
      <trkpt lat="47.5105" lon="6.77778">
        <ele>308.2</ele>
        <time>2014-10-12T11:26:37.000Z</time>
      </trkpt>
      <trkpt lat="47.51053" lon="6.7778">
        <ele>309.5</ele>
        <time>2014-10-12T11:26:38.000Z</time>
      </trkpt>
      <trkpt lat="47.51057" lon="6.77782">
        <ele>310</ele>
        <time>2014-10-12T11:26:39.000Z</time>
      </trkpt>
      <trkpt lat="47.51062" lon="6.77784">
        <ele>311</ele>
        <time>2014-10-12T11:26:40.000Z</time>
      </trkpt>
      <trkpt lat="47.51067" lon="6.77785">
        <ele>312</ele>
        <time>2014-10-12T11:26:41.000Z</time>
      </trkpt>
      <trkpt lat="47.51071" lon="6.77787">
        <ele>312.2</ele>
        <time>2014-10-12T11:26:41.999Z</time>
      </trkpt>
      <trkpt lat="47.51076" lon="6.77787">
        <ele>315.7</ele>
        <time>2014-10-12T11:26:43.000Z</time>
      </trkpt>
      <trkpt lat="47.51081" lon="6.77787">
        <ele>316.4</ele>
        <time>2014-10-12T11:26:44.000Z</time>
      </trkpt>
      <trkpt lat="47.51085" lon="6.77786">
        <ele>317</ele>
        <time>2014-10-12T11:26:45.000Z</time>
      </trkpt>
      <trkpt lat="47.51089" lon="6.77786">
        <ele>317.8</ele>
        <time>2014-10-12T11:26:46.000Z</time>
      </trkpt>
      <trkpt lat="47.51093" lon="6.77785">
        <ele>317</ele>
        <time>2014-10-12T11:26:47.000Z</time>
      </trkpt>
      <trkpt lat="47.51103" lon="6.77787">
        <ele>317.2</ele>
        <time>2014-10-12T11:26:50.000Z</time>
      </trkpt>
      <trkpt lat="47.51106" lon="6.77787">
        <ele>318.9</ele>
        <time>2014-10-12T11:26:51.000Z</time>
      </trkpt>
      <trkpt lat="47.51109" lon="6.77788">
        <ele>319.6</ele>
        <time>2014-10-12T11:26:52.000Z</time>
      </trkpt>
      <trkpt lat="47.51112" lon="6.77788">
        <ele>320.2</ele>
        <time>2014-10-12T11:26:53.000Z</time>
      </trkpt>
      <trkpt lat="47.51115" lon="6.77788">
        <ele>320.6</ele>
        <time>2014-10-12T11:26:54.000Z</time>
      </trkpt>
      <trkpt lat="47.51119" lon="6.77787">
        <ele>318.9</ele>
        <time>2014-10-12T11:26:55.000Z</time>
      </trkpt>
      <trkpt lat="47.51122" lon="6.77787">
        <ele>318.6</ele>
        <time>2014-10-12T11:26:56.000Z</time>
      </trkpt>
      <trkpt lat="47.51124" lon="6.77786">
        <ele>318</ele>
        <time>2014-10-12T11:26:57.000Z</time>
      </trkpt>
      <trkpt lat="47.51126" lon="6.77786">
        <ele>322.3</ele>
        <time>2014-10-12T11:26:58.000Z</time>
      </trkpt>
      <trkpt lat="47.5113" lon="6.77785">
        <ele>328</ele>
        <time>2014-10-12T11:27:00.000Z</time>
      </trkpt>
      <trkpt lat="47.51132" lon="6.77785">
        <ele>326.4</ele>
        <time>2014-10-12T11:27:01.000Z</time>
      </trkpt>
      <trkpt lat="47.51135" lon="6.77785">
        <ele>325.7</ele>
        <time>2014-10-12T11:27:02.000Z</time>
      </trkpt>
      <trkpt lat="47.51137" lon="6.77785">
        <ele>325.9</ele>
        <time>2014-10-12T11:27:03.000Z</time>
      </trkpt>
      <trkpt lat="47.5114" lon="6.77785">
        <ele>325.5</ele>
        <time>2014-10-12T11:27:04.000Z</time>
      </trkpt>
      <trkpt lat="47.51143" lon="6.77786">
        <ele>327.5</ele>
        <time>2014-10-12T11:27:05.000Z</time>
      </trkpt>
      <trkpt lat="47.51146" lon="6.77786">
        <ele>328</ele>
        <time>2014-10-12T11:27:06.000Z</time>
      </trkpt>
      <trkpt lat="47.5115" lon="6.77786">
        <ele>327.9</ele>
        <time>2014-10-12T11:27:07.000Z</time>
      </trkpt>
      <trkpt lat="47.51153" lon="6.77786">
        <ele>328.1</ele>
        <time>2014-10-12T11:27:08.000Z</time>
      </trkpt>
      <trkpt lat="47.51156" lon="6.77785">
        <ele>328.4</ele>
        <time>2014-10-12T11:27:09.000Z</time>
      </trkpt>
      <trkpt lat="47.51159" lon="6.77785">
        <ele>327.2</ele>
        <time>2014-10-12T11:27:10.000Z</time>
      </trkpt>
      <trkpt lat="47.51162" lon="6.77785">
        <ele>326.8</ele>
        <time>2014-10-12T11:27:11.000Z</time>
      </trkpt>
      <trkpt lat="47.51165" lon="6.77785">
        <ele>325.8</ele>
        <time>2014-10-12T11:27:12.000Z</time>
      </trkpt>
      <trkpt lat="47.51168" lon="6.77786">
        <ele>325.6</ele>
        <time>2014-10-12T11:27:13.000Z</time>
      </trkpt>
      <trkpt lat="47.51172" lon="6.77786">
        <ele>328.1</ele>
        <time>2014-10-12T11:27:14.000Z</time>
      </trkpt>
      <trkpt lat="47.51176" lon="6.77787">
        <ele>328.8</ele>
        <time>2014-10-12T11:27:15.000Z</time>
      </trkpt>
      <trkpt lat="47.51179" lon="6.77787">
        <ele>328.7</ele>
        <time>2014-10-12T11:27:16.000Z</time>
      </trkpt>
      <trkpt lat="47.51182" lon="6.77787">
        <ele>328.2</ele>
        <time>2014-10-12T11:27:17.000Z</time>
      </trkpt>
      <trkpt lat="47.51185" lon="6.77787">
        <ele>328.1</ele>
        <time>2014-10-12T11:27:18.000Z</time>
      </trkpt>
      <trkpt lat="47.51187" lon="6.77787">
        <ele>330.9</ele>
        <time>2014-10-12T11:27:19.000Z</time>
      </trkpt>
      <trkpt lat="47.51191" lon="6.77786">
        <ele>330.1</ele>
        <time>2014-10-12T11:27:22.000Z</time>
      </trkpt>
      <trkpt lat="47.51193" lon="6.77787">
        <ele>329.8</ele>
        <time>2014-10-12T11:27:23.000Z</time>
      </trkpt>
      <trkpt lat="47.51196" lon="6.77786">
        <ele>329.7</ele>
        <time>2014-10-12T11:27:25.000Z</time>
      </trkpt>
      <trkpt lat="47.51198" lon="6.77785">
        <ele>327.8</ele>
        <time>2014-10-12T11:27:26.000Z</time>
      </trkpt>
      <trkpt lat="47.51201" lon="6.77784">
        <ele>325.8</ele>
        <time>2014-10-12T11:27:28.000Z</time>
      </trkpt>
      <trkpt lat="47.51203" lon="6.77783">
        <ele>327.7</ele>
        <time>2014-10-12T11:27:29.000Z</time>
      </trkpt>
      <trkpt lat="47.51207" lon="6.77783">
        <ele>329.4</ele>
        <time>2014-10-12T11:27:31.000Z</time>
      </trkpt>
      <trkpt lat="47.51209" lon="6.77783">
        <ele>330.6</ele>
        <time>2014-10-12T11:27:32.000Z</time>
      </trkpt>
      <trkpt lat="47.51212" lon="6.77783">
        <ele>331.7</ele>
        <time>2014-10-12T11:27:33.000Z</time>
      </trkpt>
      <trkpt lat="47.51215" lon="6.77782">
        <ele>331.2</ele>
        <time>2014-10-12T11:27:34.000Z</time>
      </trkpt>
      <trkpt lat="47.51218" lon="6.77782">
        <ele>331.6</ele>
        <time>2014-10-12T11:27:35.000Z</time>
      </trkpt>
      <trkpt lat="47.5122" lon="6.77782">
        <ele>331.7</ele>
        <time>2014-10-12T11:27:36.000Z</time>
      </trkpt>
      <trkpt lat="47.51223" lon="6.77782">
        <ele>332.5</ele>
        <time>2014-10-12T11:27:37.000Z</time>
      </trkpt>
      <trkpt lat="47.51226" lon="6.77782">
        <ele>331.8</ele>
        <time>2014-10-12T11:27:38.000Z</time>
      </trkpt>
      <trkpt lat="47.51229" lon="6.77782">
        <ele>332</ele>
        <time>2014-10-12T11:27:39.000Z</time>
      </trkpt>
      <trkpt lat="47.51231" lon="6.77782">
        <ele>331</ele>
        <time>2014-10-12T11:27:40.000Z</time>
      </trkpt>
      <trkpt lat="47.51235" lon="6.77782">
        <ele>331.2</ele>
        <time>2014-10-12T11:27:42.000Z</time>
      </trkpt>
      <trkpt lat="47.51237" lon="6.77782">
        <ele>331.8</ele>
        <time>2014-10-12T11:27:43.000Z</time>
      </trkpt>
      <trkpt lat="47.5124" lon="6.77782">
        <ele>332</ele>
        <time>2014-10-12T11:27:44.000Z</time>
      </trkpt>
      <trkpt lat="47.51242" lon="6.77782">
        <ele>332.1</ele>
        <time>2014-10-12T11:27:45.000Z</time>
      </trkpt>
      <trkpt lat="47.51245" lon="6.77783">
        <ele>332.3</ele>
        <time>2014-10-12T11:27:46.000Z</time>
      </trkpt>
      <trkpt lat="47.51248" lon="6.77783">
        <ele>332.1</ele>
        <time>2014-10-12T11:27:47.000Z</time>
      </trkpt>
      <trkpt lat="47.51251" lon="6.77783">
        <ele>333.6</ele>
        <time>2014-10-12T11:27:48.000Z</time>
      </trkpt>
      <trkpt lat="47.51264" lon="6.77781">
        <ele>336.2</ele>
        <time>2014-10-12T11:27:56.000Z</time>
      </trkpt>
      <trkpt lat="47.51268" lon="6.77778">
        <ele>333.4</ele>
        <time>2014-10-12T11:28:00.000Z</time>
      </trkpt>
      <trkpt lat="47.51269" lon="6.77777">
        <ele>334.6</ele>
        <time>2014-10-12T11:28:01.000Z</time>
      </trkpt>
      <trkpt lat="47.51273" lon="6.77776">
        <ele>334.4</ele>
        <time>2014-10-12T11:28:04.000Z</time>
      </trkpt>
      <trkpt lat="47.51273" lon="6.77776">
        <ele>334.8</ele>
        <time>2014-10-12T11:28:05.000Z</time>
      </trkpt>
      <trkpt lat="47.51277" lon="6.77775">
        <ele>336.5</ele>
        <time>2014-10-12T11:28:07.000Z</time>
      </trkpt>
      <trkpt lat="47.51279" lon="6.77775">
        <ele>336.4</ele>
        <time>2014-10-12T11:28:08.000Z</time>
      </trkpt>
      <trkpt lat="47.51281" lon="6.77775">
        <ele>338</ele>
        <time>2014-10-12T11:28:09.000Z</time>
      </trkpt>
      <trkpt lat="47.51283" lon="6.77775">
        <ele>338.4</ele>
        <time>2014-10-12T11:28:10.000Z</time>
      </trkpt>
      <trkpt lat="47.51286" lon="6.77774">
        <ele>338.1</ele>
        <time>2014-10-12T11:28:11.000Z</time>
      </trkpt>
      <trkpt lat="47.51288" lon="6.77774">
        <ele>338.3</ele>
        <time>2014-10-12T11:28:12.000Z</time>
      </trkpt>
      <trkpt lat="47.51292" lon="6.77773">
        <ele>337.9</ele>
        <time>2014-10-12T11:28:14.000Z</time>
      </trkpt>
      <trkpt lat="47.51295" lon="6.77773">
        <ele>338.3</ele>
        <time>2014-10-12T11:28:15.000Z</time>
      </trkpt>
      <trkpt lat="47.51297" lon="6.77773">
        <ele>339</ele>
        <time>2014-10-12T11:28:16.000Z</time>
      </trkpt>
      <trkpt lat="47.513" lon="6.77773">
        <ele>340.3</ele>
        <time>2014-10-12T11:28:17.000Z</time>
      </trkpt>
      <trkpt lat="47.51303" lon="6.77773">
        <ele>340.9</ele>
        <time>2014-10-12T11:28:18.000Z</time>
      </trkpt>
      <trkpt lat="47.51305" lon="6.77773">
        <ele>341.8</ele>
        <time>2014-10-12T11:28:19.000Z</time>
      </trkpt>
      <trkpt lat="47.51308" lon="6.77773">
        <ele>342.3</ele>
        <time>2014-10-12T11:28:20.000Z</time>
      </trkpt>
      <trkpt lat="47.51311" lon="6.77773">
        <ele>342.2</ele>
        <time>2014-10-12T11:28:21.000Z</time>
      </trkpt>
      <trkpt lat="47.51313" lon="6.77773">
        <ele>341.1</ele>
        <time>2014-10-12T11:28:22.000Z</time>
      </trkpt>
      <trkpt lat="47.51316" lon="6.77774">
        <ele>340.7</ele>
        <time>2014-10-12T11:28:23.000Z</time>
      </trkpt>
      <trkpt lat="47.51318" lon="6.77775">
        <ele>340.2</ele>
        <time>2014-10-12T11:28:24.000Z</time>
      </trkpt>
      <trkpt lat="47.5132" lon="6.77776">
        <ele>339.9</ele>
        <time>2014-10-12T11:28:25.000Z</time>
      </trkpt>
      <trkpt lat="47.51323" lon="6.77777">
        <ele>339.2</ele>
        <time>2014-10-12T11:28:26.000Z</time>
      </trkpt>
      <trkpt lat="47.51325" lon="6.77779">
        <ele>339.1</ele>
        <time>2014-10-12T11:28:27.000Z</time>
      </trkpt>
      <trkpt lat="47.51327" lon="6.7778">
        <ele>339.3</ele>
        <time>2014-10-12T11:28:28.000Z</time>
      </trkpt>
      <trkpt lat="47.5133" lon="6.7778">
        <ele>339.5</ele>
        <time>2014-10-12T11:28:29.000Z</time>
      </trkpt>
      <trkpt lat="47.51334" lon="6.7778">
        <ele>337.7</ele>
        <time>2014-10-12T11:28:31.000Z</time>
      </trkpt>
      <trkpt lat="47.51336" lon="6.77779">
        <ele>338.2</ele>
        <time>2014-10-12T11:28:32.000Z</time>
      </trkpt>
      <trkpt lat="47.51338" lon="6.77776">
        <ele>338.8</ele>
        <time>2014-10-12T11:28:34.000Z</time>
      </trkpt>
      <trkpt lat="47.5134" lon="6.77774">
        <ele>339.5</ele>
        <time>2014-10-12T11:28:35.000Z</time>
      </trkpt>
      <trkpt lat="47.51342" lon="6.77772">
        <ele>339.5</ele>
        <time>2014-10-12T11:28:37.000Z</time>
      </trkpt>
      <trkpt lat="47.51344" lon="6.77771">
        <ele>340.3</ele>
        <time>2014-10-12T11:28:38.000Z</time>
      </trkpt>
      <trkpt lat="47.51348" lon="6.77769">
        <ele>342.5</ele>
        <time>2014-10-12T11:28:40.000Z</time>
      </trkpt>
      <trkpt lat="47.5135" lon="6.77769">
        <ele>340.9</ele>
        <time>2014-10-12T11:28:41.000Z</time>
      </trkpt>
      <trkpt lat="47.51353" lon="6.77767">
        <ele>340.4</ele>
        <time>2014-10-12T11:28:43.000Z</time>
      </trkpt>
      <trkpt lat="47.51354" lon="6.77765">
        <ele>340.6</ele>
        <time>2014-10-12T11:28:44.000Z</time>
      </trkpt>
      <trkpt lat="47.51358" lon="6.77763">
        <ele>342.5</ele>
        <time>2014-10-12T11:28:46.000Z</time>
      </trkpt>
      <trkpt lat="47.5136" lon="6.77761">
        <ele>343.6</ele>
        <time>2014-10-12T11:28:47.000Z</time>
      </trkpt>
      <trkpt lat="47.51362" lon="6.77757">
        <ele>343.5</ele>
        <time>2014-10-12T11:28:50.000Z</time>
      </trkpt>
      <trkpt lat="47.51363" lon="6.77755">
        <ele>345.4</ele>
        <time>2014-10-12T11:28:51.000Z</time>
      </trkpt>
      <trkpt lat="47.51367" lon="6.77753">
        <ele>346</ele>
        <time>2014-10-12T11:28:53.000Z</time>
      </trkpt>
      <trkpt lat="47.51369" lon="6.77752">
        <ele>346.4</ele>
        <time>2014-10-12T11:28:54.000Z</time>
      </trkpt>
      <trkpt lat="47.51372" lon="6.77751">
        <ele>345.6</ele>
        <time>2014-10-12T11:28:56.000Z</time>
      </trkpt>
      <trkpt lat="47.51373" lon="6.7775">
        <ele>343.1</ele>
        <time>2014-10-12T11:28:57.000Z</time>
      </trkpt>
      <trkpt lat="47.51376" lon="6.77746">
        <ele>342.8</ele>
        <time>2014-10-12T11:29:01.000Z</time>
      </trkpt>
      <trkpt lat="47.51378" lon="6.77745">
        <ele>342.2</ele>
        <time>2014-10-12T11:29:02.000Z</time>
      </trkpt>
      <trkpt lat="47.51382" lon="6.77743">
        <ele>341.4</ele>
        <time>2014-10-12T11:29:05.000Z</time>
      </trkpt>
      <trkpt lat="47.51383" lon="6.77742">
        <ele>341.2</ele>
        <time>2014-10-12T11:29:06.000Z</time>
      </trkpt>
      <trkpt lat="47.51386" lon="6.7774">
        <ele>342.6</ele>
        <time>2014-10-12T11:29:09.000Z</time>
      </trkpt>
      <trkpt lat="47.51387" lon="6.77739">
        <ele>343.3</ele>
        <time>2014-10-12T11:29:10.000Z</time>
      </trkpt>
      <trkpt lat="47.51391" lon="6.77737">
        <ele>345</ele>
        <time>2014-10-12T11:29:12.000Z</time>
      </trkpt>
      <trkpt lat="47.51392" lon="6.77736">
        <ele>345</ele>
        <time>2014-10-12T11:29:13.000Z</time>
      </trkpt>
      <trkpt lat="47.51395" lon="6.77733">
        <ele>342.3</ele>
        <time>2014-10-12T11:29:17.000Z</time>
      </trkpt>
      <trkpt lat="47.51396" lon="6.77732">
        <ele>342.6</ele>
        <time>2014-10-12T11:29:18.000Z</time>
      </trkpt>
      <trkpt lat="47.514" lon="6.77729">
        <ele>343.1</ele>
        <time>2014-10-12T11:29:21.000Z</time>
      </trkpt>
      <trkpt lat="47.51402" lon="6.77728">
        <ele>342.6</ele>
        <time>2014-10-12T11:29:22.000Z</time>
      </trkpt>
      <trkpt lat="47.51405" lon="6.77727">
        <ele>343.5</ele>
        <time>2014-10-12T11:29:24.000Z</time>
      </trkpt>
      <trkpt lat="47.51407" lon="6.77726">
        <ele>343</ele>
        <time>2014-10-12T11:29:25.000Z</time>
      </trkpt>
      <trkpt lat="47.51411" lon="6.77725">
        <ele>343.1</ele>
        <time>2014-10-12T11:29:27.000Z</time>
      </trkpt>
      <trkpt lat="47.51412" lon="6.77725">
        <ele>342.1</ele>
        <time>2014-10-12T11:29:28.000Z</time>
      </trkpt>
      <trkpt lat="47.51415" lon="6.77724">
        <ele>340.5</ele>
        <time>2014-10-12T11:29:30.000Z</time>
      </trkpt>
      <trkpt lat="47.51417" lon="6.77723">
        <ele>338.9</ele>
        <time>2014-10-12T11:29:31.000Z</time>
      </trkpt>
      <trkpt lat="47.5142" lon="6.77721">
        <ele>339.1</ele>
        <time>2014-10-12T11:29:33.000Z</time>
      </trkpt>
      <trkpt lat="47.51422" lon="6.7772">
        <ele>338.4</ele>
        <time>2014-10-12T11:29:34.000Z</time>
      </trkpt>
      <trkpt lat="47.51426" lon="6.77719">
        <ele>337.5</ele>
        <time>2014-10-12T11:29:37.000Z</time>
      </trkpt>
      <trkpt lat="47.51427" lon="6.77719">
        <ele>337.3</ele>
        <time>2014-10-12T11:29:38.000Z</time>
      </trkpt>
      <trkpt lat="47.51431" lon="6.77719">
        <ele>338.8</ele>
        <time>2014-10-12T11:29:42.000Z</time>
      </trkpt>
      <trkpt lat="47.51432" lon="6.77719">
        <ele>338.4</ele>
        <time>2014-10-12T11:29:43.000Z</time>
      </trkpt>
      <trkpt lat="47.51435" lon="6.77718">
        <ele>338.5</ele>
        <time>2014-10-12T11:29:45.000Z</time>
      </trkpt>
      <trkpt lat="47.51437" lon="6.77718">
        <ele>338</ele>
        <time>2014-10-12T11:29:46.000Z</time>
      </trkpt>
      <trkpt lat="47.51439" lon="6.77717">
        <ele>338.8</ele>
        <time>2014-10-12T11:29:47.000Z</time>
      </trkpt>
      <trkpt lat="47.51442" lon="6.77716">
        <ele>335.4</ele>
        <time>2014-10-12T11:29:50.000Z</time>
      </trkpt>
      <trkpt lat="47.51446" lon="6.77715">
        <ele>335.6</ele>
        <time>2014-10-12T11:29:54.000Z</time>
      </trkpt>
      <trkpt lat="47.51448" lon="6.77714">
        <ele>335.7</ele>
        <time>2014-10-12T11:29:55.000Z</time>
      </trkpt>
      <trkpt lat="47.51452" lon="6.77712">
        <ele>336.6</ele>
        <time>2014-10-12T11:29:58.000Z</time>
      </trkpt>
      <trkpt lat="47.51453" lon="6.77711">
        <ele>336.2</ele>
        <time>2014-10-12T11:29:59.000Z</time>
      </trkpt>
      <trkpt lat="47.51456" lon="6.77711">
        <ele>338.5</ele>
        <time>2014-10-12T11:30:01.000Z</time>
      </trkpt>
      <trkpt lat="47.51458" lon="6.77712">
        <ele>338.6</ele>
        <time>2014-10-12T11:30:02.000Z</time>
      </trkpt>
      <trkpt lat="47.51462" lon="6.77712">
        <ele>339.4</ele>
        <time>2014-10-12T11:30:04.000Z</time>
      </trkpt>
      <trkpt lat="47.51463" lon="6.77712">
        <ele>338.5</ele>
        <time>2014-10-12T11:30:05.000Z</time>
      </trkpt>
      <trkpt lat="47.51466" lon="6.77711">
        <ele>339.3</ele>
        <time>2014-10-12T11:30:07.000Z</time>
      </trkpt>
      <trkpt lat="47.51468" lon="6.77711">
        <ele>339.8</ele>
        <time>2014-10-12T11:30:08.000Z</time>
      </trkpt>
      <trkpt lat="47.51471" lon="6.77711">
        <ele>338.4</ele>
        <time>2014-10-12T11:30:10.000Z</time>
      </trkpt>
      <trkpt lat="47.51473" lon="6.77711">
        <ele>339.7</ele>
        <time>2014-10-12T11:30:11.000Z</time>
      </trkpt>
      <trkpt lat="47.51476" lon="6.7771">
        <ele>338.4</ele>
        <time>2014-10-12T11:30:13.000Z</time>
      </trkpt>
      <trkpt lat="47.51478" lon="6.7771">
        <ele>339.2</ele>
        <time>2014-10-12T11:30:14.000Z</time>
      </trkpt>
      <trkpt lat="47.51481" lon="6.77709">
        <ele>339.7</ele>
        <time>2014-10-12T11:30:16.000Z</time>
      </trkpt>
      <trkpt lat="47.51483" lon="6.77709">
        <ele>341</ele>
        <time>2014-10-12T11:30:17.000Z</time>
      </trkpt>
      <trkpt lat="47.51487" lon="6.7771">
        <ele>340.9</ele>
        <time>2014-10-12T11:30:20.000Z</time>
      </trkpt>
      <trkpt lat="47.51488" lon="6.77709">
        <ele>340.9</ele>
        <time>2014-10-12T11:30:21.000Z</time>
      </trkpt>
      <trkpt lat="47.51491" lon="6.77708">
        <ele>337.8</ele>
        <time>2014-10-12T11:30:23.000Z</time>
      </trkpt>
      <trkpt lat="47.51493" lon="6.77708">
        <ele>337.8</ele>
        <time>2014-10-12T11:30:24.000Z</time>
      </trkpt>
      <trkpt lat="47.51497" lon="6.77707">
        <ele>337.6</ele>
        <time>2014-10-12T11:30:26.000Z</time>
      </trkpt>
      <trkpt lat="47.51498" lon="6.77707">
        <ele>339.3</ele>
        <time>2014-10-12T11:30:27.000Z</time>
      </trkpt>
      <trkpt lat="47.51502" lon="6.77707">
        <ele>340.4</ele>
        <time>2014-10-12T11:30:29.000Z</time>
      </trkpt>
      <trkpt lat="47.51504" lon="6.77707">
        <ele>341.6</ele>
        <time>2014-10-12T11:30:30.000Z</time>
      </trkpt>
      <trkpt lat="47.51507" lon="6.77707">
        <ele>343.8</ele>
        <time>2014-10-12T11:30:32.000Z</time>
      </trkpt>
      <trkpt lat="47.51508" lon="6.77708">
        <ele>344.7</ele>
        <time>2014-10-12T11:30:33.000Z</time>
      </trkpt>
      <trkpt lat="47.51512" lon="6.77709">
        <ele>348.1</ele>
        <time>2014-10-12T11:30:35.000Z</time>
      </trkpt>
      <trkpt lat="47.51514" lon="6.7771">
        <ele>348.4</ele>
        <time>2014-10-12T11:30:36.000Z</time>
      </trkpt>
      <trkpt lat="47.51517" lon="6.7771">
        <ele>348.4</ele>
        <time>2014-10-12T11:30:37.000Z</time>
      </trkpt>
      <trkpt lat="47.51519" lon="6.77711">
        <ele>348.5</ele>
        <time>2014-10-12T11:30:38.000Z</time>
      </trkpt>
      <trkpt lat="47.51523" lon="6.77712">
        <ele>349</ele>
        <time>2014-10-12T11:30:40.000Z</time>
      </trkpt>
      <trkpt lat="47.51525" lon="6.77713">
        <ele>348.7</ele>
        <time>2014-10-12T11:30:41.000Z</time>
      </trkpt>
      <trkpt lat="47.51527" lon="6.77714">
        <ele>351.1</ele>
        <time>2014-10-12T11:30:42.000Z</time>
      </trkpt>
      <trkpt lat="47.51529" lon="6.77714">
        <ele>352.2</ele>
        <time>2014-10-12T11:30:43.000Z</time>
      </trkpt>
      <trkpt lat="47.51532" lon="6.77715">
        <ele>352.7</ele>
        <time>2014-10-12T11:30:44.000Z</time>
      </trkpt>
      <trkpt lat="47.51534" lon="6.77716">
        <ele>352.8</ele>
        <time>2014-10-12T11:30:45.000Z</time>
      </trkpt>
      <trkpt lat="47.51536" lon="6.77716">
        <ele>352.4</ele>
        <time>2014-10-12T11:30:46.000Z</time>
      </trkpt>
      <trkpt lat="47.51539" lon="6.77716">
        <ele>352.9</ele>
        <time>2014-10-12T11:30:47.000Z</time>
      </trkpt>
      <trkpt lat="47.51543" lon="6.77718">
        <ele>352.4</ele>
        <time>2014-10-12T11:30:50.000Z</time>
      </trkpt>
      <trkpt lat="47.51547" lon="6.77719">
        <ele>352.5</ele>
        <time>2014-10-12T11:30:52.000Z</time>
      </trkpt>
      <trkpt lat="47.51548" lon="6.7772">
        <ele>352.5</ele>
        <time>2014-10-12T11:30:53.000Z</time>
      </trkpt>
      <trkpt lat="47.51552" lon="6.77722">
        <ele>352.5</ele>
        <time>2014-10-12T11:30:56.000Z</time>
      </trkpt>
      <trkpt lat="47.51553" lon="6.77722">
        <ele>352.3</ele>
        <time>2014-10-12T11:30:57.000Z</time>
      </trkpt>
      <trkpt lat="47.51557" lon="6.77724">
        <ele>351.4</ele>
        <time>2014-10-12T11:30:59.000Z</time>
      </trkpt>
      <trkpt lat="47.51559" lon="6.77725">
        <ele>349.2</ele>
        <time>2014-10-12T11:31:00.000Z</time>
      </trkpt>
      <trkpt lat="47.51562" lon="6.77727">
        <ele>350.3</ele>
        <time>2014-10-12T11:31:02.000Z</time>
      </trkpt>
      <trkpt lat="47.51563" lon="6.77729">
        <ele>349.8</ele>
        <time>2014-10-12T11:31:03.000Z</time>
      </trkpt>
      <trkpt lat="47.51565" lon="6.77729">
        <ele>348.9</ele>
        <time>2014-10-12T11:31:04.000Z</time>
      </trkpt>
    </trkseg>
  </trk>
</gpx>